<?xml version='1.0' encoding='UTF-8'?><gpx version="1.1" creator="JPX - https://github.com/jenetics/jpx" xmlns="http://www.topografix.com/GPX/1/1"><trk><trkseg><trkpt lat="43.5185698" lon="11.5749588"><ele>152.0</ele><time>2026-03-22T09:40:24.018Z</time></trkpt><trkpt lat="43.518613" lon="11.575135"><ele>152.0</ele><time>2026-03-22T09:40:28.344Z</time></trkpt><trkpt lat="43.5186094" lon="11.5753614"><ele>152.0</ele><time>2026-03-22T09:40:36.344Z</time></trkpt><trkpt lat="43.5185775" lon="11.5752817"><ele>152.0</ele><time>2026-03-22T09:40:48.344Z</time></trkpt><trkpt lat="43.5185194" lon="11.5752062"><ele>152.0</ele><time>2026-03-22T09:40:52.344Z</time></trkpt><trkpt lat="43.5184554" lon="11.5751558"><ele>152.0</ele><time>2026-03-22T09:40:56.344Z</time></trkpt><trkpt lat="43.5184255" lon="11.5750535"><ele>152.0</ele><time>2026-03-22T09:41:00.344Z</time></trkpt><trkpt lat="43.5184232" lon="11.5749573"><ele>152.0</ele><time>2026-03-22T09:41:03.344Z</time></trkpt><trkpt lat="43.518408" lon="11.5748543"><ele>152.0</ele><time>2026-03-22T09:41:07.344Z</time></trkpt><trkpt lat="43.5183734" lon="11.5747612"><ele>152.0</ele><time>2026-03-22T09:41:10.344Z</time></trkpt><trkpt lat="43.518336" lon="11.5746699"><ele>152.0</ele><time>2026-03-22T09:41:14.344Z</time></trkpt><trkpt lat="43.518282" lon="11.5746009"><ele>152.0</ele><time>2026-03-22T09:41:18.343Z</time></trkpt><trkpt lat="43.5183703" lon="11.5745447"><ele>152.0</ele><time>2026-03-22T09:41:41.344Z</time></trkpt><trkpt lat="43.5184198" lon="11.5746307"><ele>152.0</ele><time>2026-03-22T09:41:44.344Z</time></trkpt><trkpt lat="43.5184611" lon="11.5747138"><ele>152.0</ele><time>2026-03-22T09:41:46.343Z</time></trkpt><trkpt lat="43.5184943" lon="11.5747917"><ele>152.0</ele><time>2026-03-22T09:41:49.344Z</time></trkpt><trkpt lat="43.5185283" lon="11.574927"><ele>152.0</ele><time>2026-03-22T09:43:00.344Z</time></trkpt><trkpt lat="43.5185933" lon="11.5747933"><ele>152.0</ele><time>2026-03-22T09:44:55.344Z</time></trkpt><trkpt lat="43.518675" lon="11.5747517"><ele>152.0</ele><time>2026-03-22T09:44:57.344Z</time></trkpt><trkpt lat="43.5187517" lon="11.5747933"><ele>152.0</ele><time>2026-03-22T09:44:59.344Z</time></trkpt><trkpt lat="43.5188083" lon="11.5748733"><ele>152.0</ele><time>2026-03-22T09:45:01.343Z</time></trkpt><trkpt lat="43.51886" lon="11.5749283"><ele>152.0</ele><time>2026-03-22T09:45:03.344Z</time></trkpt><trkpt lat="43.51895" lon="11.5748333"><ele>152.0</ele><time>2026-03-22T09:45:19.343Z</time></trkpt><trkpt lat="43.5189767" lon="11.5747283"><ele>151.75</ele><time>2026-03-22T09:45:20.343Z</time></trkpt><trkpt lat="43.5190083" lon="11.574595"><ele>151.5</ele><time>2026-03-22T09:45:21.344Z</time></trkpt><trkpt lat="43.5190467" lon="11.5744533"><ele>151.25</ele><time>2026-03-22T09:45:22.344Z</time></trkpt><trkpt lat="43.5190917" lon="11.5743033"><ele>151.0</ele><time>2026-03-22T09:45:23.344Z</time></trkpt><trkpt lat="43.5191333" lon="11.5741367"><ele>151.0</ele><time>2026-03-22T09:45:24.344Z</time></trkpt><trkpt lat="43.5191767" lon="11.57394"><ele>151.0</ele><time>2026-03-22T09:45:25.344Z</time></trkpt><trkpt lat="43.519225" lon="11.573745"><ele>151.0</ele><time>2026-03-22T09:45:26.344Z</time></trkpt><trkpt lat="43.5192633" lon="11.5735483"><ele>151.0</ele><time>2026-03-22T09:45:27.344Z</time></trkpt><trkpt lat="43.5193117" lon="11.57333"><ele>151.0</ele><time>2026-03-22T09:45:28.344Z</time></trkpt><trkpt lat="43.5193633" lon="11.5731083"><ele>151.0</ele><time>2026-03-22T09:45:29.344Z</time></trkpt><trkpt lat="43.5194167" lon="11.5729"><ele>151.0</ele><time>2026-03-22T09:45:30.344Z</time></trkpt><trkpt lat="43.519465" lon="11.5727117"><ele>151.0</ele><time>2026-03-22T09:45:31.343Z</time></trkpt><trkpt lat="43.5194967" lon="11.5725367"><ele>151.0</ele><time>2026-03-22T09:45:32.344Z</time></trkpt><trkpt lat="43.519525" lon="11.572375"><ele>151.0</ele><time>2026-03-22T09:45:33.344Z</time></trkpt><trkpt lat="43.51956" lon="11.5722233"><ele>151.0</ele><time>2026-03-22T09:45:34.343Z</time></trkpt><trkpt lat="43.519605" lon="11.5720783"><ele>150.75</ele><time>2026-03-22T09:45:35.344Z</time></trkpt><trkpt lat="43.5196517" lon="11.5719067"><ele>150.5</ele><time>2026-03-22T09:45:36.343Z</time></trkpt><trkpt lat="43.5197" lon="11.5717283"><ele>150.25</ele><time>2026-03-22T09:45:37.344Z</time></trkpt><trkpt lat="43.5197417" lon="11.57153"><ele>150.0</ele><time>2026-03-22T09:45:38.344Z</time></trkpt><trkpt lat="43.519785" lon="11.5713267"><ele>150.66666666666666</ele><time>2026-03-22T09:45:39.344Z</time></trkpt><trkpt lat="43.519845" lon="11.57111"><ele>151.33333333333331</ele><time>2026-03-22T09:45:40.344Z</time></trkpt><trkpt lat="43.519905" lon="11.5708883"><ele>152.0</ele><time>2026-03-22T09:45:41.344Z</time></trkpt><trkpt lat="43.5199683" lon="11.570665"><ele>152.0</ele><time>2026-03-22T09:45:42.344Z</time></trkpt><trkpt lat="43.52003" lon="11.5704367"><ele>152.0</ele><time>2026-03-22T09:45:43.344Z</time></trkpt><trkpt lat="43.5200817" lon="11.5702133"><ele>152.0</ele><time>2026-03-22T09:45:44.343Z</time></trkpt><trkpt lat="43.520135" lon="11.57001"><ele>152.0</ele><time>2026-03-22T09:45:45.344Z</time></trkpt><trkpt lat="43.5202017" lon="11.5698067"><ele>152.0</ele><time>2026-03-22T09:45:46.344Z</time></trkpt><trkpt lat="43.520265" lon="11.5696"><ele>152.0</ele><time>2026-03-22T09:45:47.344Z</time></trkpt><trkpt lat="43.52033" lon="11.5694017"><ele>151.75</ele><time>2026-03-22T09:45:48.344Z</time></trkpt><trkpt lat="43.5203917" lon="11.5692333"><ele>151.5</ele><time>2026-03-22T09:45:49.344Z</time></trkpt><trkpt lat="43.520445" lon="11.5690883"><ele>151.25</ele><time>2026-03-22T09:45:50.344Z</time></trkpt><trkpt lat="43.5204917" lon="11.5689533"><ele>151.0</ele><time>2026-03-22T09:45:51.344Z</time></trkpt><trkpt lat="43.520535" lon="11.5688167"><ele>151.0</ele><time>2026-03-22T09:45:52.344Z</time></trkpt><trkpt lat="43.520555" lon="11.56872"><ele>151.0</ele><time>2026-03-22T09:45:53.344Z</time></trkpt><trkpt lat="43.5205417" lon="11.5686267"><ele>151.0</ele><time>2026-03-22T09:45:54.344Z</time></trkpt><trkpt lat="43.5204483" lon="11.5684733"><ele>151.0</ele><time>2026-03-22T09:45:56.343Z</time></trkpt><trkpt lat="43.5203683" lon="11.5683867"><ele>151.0</ele><time>2026-03-22T09:45:57.344Z</time></trkpt><trkpt lat="43.52028" lon="11.5682833"><ele>151.0</ele><time>2026-03-22T09:45:58.344Z</time></trkpt><trkpt lat="43.5201817" lon="11.5681683"><ele>151.0</ele><time>2026-03-22T09:45:59.344Z</time></trkpt><trkpt lat="43.5200717" lon="11.5680467"><ele>151.0</ele><time>2026-03-22T09:46:00.344Z</time></trkpt><trkpt lat="43.519975" lon="11.5679367"><ele>151.0</ele><time>2026-03-22T09:46:01.344Z</time></trkpt><trkpt lat="43.519885" lon="11.5678417"><ele>151.16666666666669</ele><time>2026-03-22T09:46:02.344Z</time></trkpt><trkpt lat="43.5198033" lon="11.5677667"><ele>151.33333333333334</ele><time>2026-03-22T09:46:03.343Z</time></trkpt><trkpt lat="43.519735" lon="11.5676883"><ele>151.5</ele><time>2026-03-22T09:46:05.344Z</time></trkpt><trkpt lat="43.5196467" lon="11.56778"><ele>151.66666666666666</ele><time>2026-03-22T09:46:08.344Z</time></trkpt><trkpt lat="43.5196033" lon="11.5678467"><ele>151.83333333333331</ele><time>2026-03-22T09:46:09.344Z</time></trkpt><trkpt lat="43.5195483" lon="11.5679183"><ele>152.0</ele><time>2026-03-22T09:46:10.343Z</time></trkpt><trkpt lat="43.519485" lon="11.5679917"><ele>152.0</ele><time>2026-03-22T09:46:11.343Z</time></trkpt><trkpt lat="43.51942" lon="11.5680683"><ele>152.0</ele><time>2026-03-22T09:46:12.343Z</time></trkpt><trkpt lat="43.519355" lon="11.5681333"><ele>152.0</ele><time>2026-03-22T09:46:13.344Z</time></trkpt><trkpt lat="43.519295" lon="11.5681933"><ele>152.0</ele><time>2026-03-22T09:46:14.344Z</time></trkpt><trkpt lat="43.5192433" lon="11.5682633"><ele>152.0</ele><time>2026-03-22T09:46:15.343Z</time></trkpt><trkpt lat="43.5191967" lon="11.5683283"><ele>152.0</ele><time>2026-03-22T09:46:16.343Z</time></trkpt><trkpt lat="43.5191933" lon="11.568435"><ele>152.0</ele><time>2026-03-22T09:46:18.343Z</time></trkpt><trkpt lat="43.5192517" lon="11.568565"><ele>152.0</ele><time>2026-03-22T09:46:20.344Z</time></trkpt><trkpt lat="43.519305" lon="11.56866"><ele>152.0</ele><time>2026-03-22T09:46:21.344Z</time></trkpt><trkpt lat="43.5193667" lon="11.56877"><ele>152.0</ele><time>2026-03-22T09:46:22.344Z</time></trkpt><trkpt lat="43.5194517" lon="11.5688917"><ele>152.0</ele><time>2026-03-22T09:46:23.344Z</time></trkpt><trkpt lat="43.5195217" lon="11.5690167"><ele>152.0</ele><time>2026-03-22T09:46:24.344Z</time></trkpt><trkpt lat="43.519575" lon="11.5691583"><ele>152.0</ele><time>2026-03-22T09:46:25.343Z</time></trkpt><trkpt lat="43.5196417" lon="11.56927"><ele>152.0</ele><time>2026-03-22T09:46:26.343Z</time></trkpt><trkpt lat="43.5197017" lon="11.5693633"><ele>152.0</ele><time>2026-03-22T09:46:27.343Z</time></trkpt><trkpt lat="43.5197517" lon="11.5694433"><ele>152.0</ele><time>2026-03-22T09:46:28.344Z</time></trkpt><trkpt lat="43.51979" lon="11.5695667"><ele>152.0</ele><time>2026-03-22T09:46:30.344Z</time></trkpt><trkpt lat="43.5197167" lon="11.56966"><ele>152.0</ele><time>2026-03-22T09:46:32.343Z</time></trkpt><trkpt lat="43.5196467" lon="11.5697083"><ele>152.0</ele><time>2026-03-22T09:46:33.343Z</time></trkpt><trkpt lat="43.519565" lon="11.56973"><ele>152.0</ele><time>2026-03-22T09:46:34.344Z</time></trkpt><trkpt lat="43.5194833" lon="11.5697217"><ele>152.0</ele><time>2026-03-22T09:46:35.344Z</time></trkpt><trkpt lat="43.519405" lon="11.5696867"><ele>152.0</ele><time>2026-03-22T09:46:36.343Z</time></trkpt><trkpt lat="43.5193167" lon="11.56964"><ele>154.2</ele><time>2026-03-22T09:46:37.343Z</time></trkpt><trkpt lat="43.5192383" lon="11.5696133"><ele>156.39999999999998</ele><time>2026-03-22T09:46:38.344Z</time></trkpt><trkpt lat="43.519115" lon="11.569635"><ele>158.60000000000002</ele><time>2026-03-22T09:46:40.344Z</time></trkpt><trkpt lat="43.5190483" lon="11.5697067"><ele>160.8</ele><time>2026-03-22T09:46:41.344Z</time></trkpt><trkpt lat="43.5189933" lon="11.5698483"><ele>163.0</ele><time>2026-03-22T09:46:42.343Z</time></trkpt><trkpt lat="43.5189517" lon="11.5699933"><ele>163.0</ele><time>2026-03-22T09:46:43.344Z</time></trkpt><trkpt lat="43.5189283" lon="11.570145"><ele>163.0</ele><time>2026-03-22T09:46:44.344Z</time></trkpt><trkpt lat="43.5189183" lon="11.570275"><ele>163.0</ele><time>2026-03-22T09:46:45.344Z</time></trkpt><trkpt lat="43.5189033" lon="11.57039"><ele>163.0</ele><time>2026-03-22T09:46:46.343Z</time></trkpt><trkpt lat="43.5188883" lon="11.570485"><ele>163.0</ele><time>2026-03-22T09:46:47.344Z</time></trkpt><trkpt lat="43.5188633" lon="11.57057"><ele>163.0</ele><time>2026-03-22T09:46:48.344Z</time></trkpt><trkpt lat="43.518825" lon="11.5706517"><ele>162.83333333333334</ele><time>2026-03-22T09:46:49.343Z</time></trkpt><trkpt lat="43.5187833" lon="11.5707283"><ele>162.66666666666669</ele><time>2026-03-22T09:46:50.343Z</time></trkpt><trkpt lat="43.518685" lon="11.57081"><ele>162.5</ele><time>2026-03-22T09:46:52.344Z</time></trkpt><trkpt lat="43.518625" lon="11.5708467"><ele>162.33333333333334</ele><time>2026-03-22T09:46:54.344Z</time></trkpt><trkpt lat="43.5185617" lon="11.5708683"><ele>162.16666666666666</ele><time>2026-03-22T09:47:29.344Z</time></trkpt><trkpt lat="43.5184583" lon="11.5709317"><ele>162.0</ele><time>2026-03-22T09:47:31.344Z</time></trkpt><trkpt lat="43.51838" lon="11.570985"><ele>162.0</ele><time>2026-03-22T09:47:32.343Z</time></trkpt><trkpt lat="43.5182833" lon="11.5710567"><ele>162.0</ele><time>2026-03-22T09:47:33.344Z</time></trkpt><trkpt lat="43.518165" lon="11.5711317"><ele>162.0</ele><time>2026-03-22T09:47:34.344Z</time></trkpt><trkpt lat="43.5180483" lon="11.5712133"><ele>162.0</ele><time>2026-03-22T09:47:35.344Z</time></trkpt><trkpt lat="43.5179067" lon="11.5712967"><ele>170.33333333333334</ele><time>2026-03-22T09:47:36.344Z</time></trkpt><trkpt lat="43.51776" lon="11.5713717"><ele>178.66666666666669</ele><time>2026-03-22T09:47:37.343Z</time></trkpt><trkpt lat="43.5175917" lon="11.5714383"><ele>187.0</ele><time>2026-03-22T09:47:38.343Z</time></trkpt><trkpt lat="43.5174167" lon="11.5714983"><ele>187.0</ele><time>2026-03-22T09:47:39.344Z</time></trkpt><trkpt lat="43.5172483" lon="11.5715533"><ele>187.0</ele><time>2026-03-22T09:47:40.344Z</time></trkpt><trkpt lat="43.5171083" lon="11.5716"><ele>187.0</ele><time>2026-03-22T09:47:41.344Z</time></trkpt><trkpt lat="43.51696" lon="11.57165"><ele>190.25</ele><time>2026-03-22T09:47:42.344Z</time></trkpt><trkpt lat="43.5168367" lon="11.571675"><ele>193.5</ele><time>2026-03-22T09:47:43.344Z</time></trkpt><trkpt lat="43.5167217" lon="11.5716567"><ele>196.75</ele><time>2026-03-22T09:47:44.344Z</time></trkpt><trkpt lat="43.5165917" lon="11.5716133"><ele>200.0</ele><time>2026-03-22T09:47:45.344Z</time></trkpt><trkpt lat="43.5164517" lon="11.5715383"><ele>200.0</ele><time>2026-03-22T09:47:46.344Z</time></trkpt><trkpt lat="43.5163117" lon="11.57146"><ele>200.0</ele><time>2026-03-22T09:47:47.344Z</time></trkpt><trkpt lat="43.516165" lon="11.5714217"><ele>200.0</ele><time>2026-03-22T09:47:48.344Z</time></trkpt><trkpt lat="43.5160217" lon="11.5714"><ele>200.0</ele><time>2026-03-22T09:47:49.343Z</time></trkpt><trkpt lat="43.5158867" lon="11.571395"><ele>202.0</ele><time>2026-03-22T09:47:50.344Z</time></trkpt><trkpt lat="43.515755" lon="11.5713683"><ele>204.0</ele><time>2026-03-22T09:47:51.344Z</time></trkpt><trkpt lat="43.51563" lon="11.5713267"><ele>206.0</ele><time>2026-03-22T09:47:52.344Z</time></trkpt><trkpt lat="43.5155033" lon="11.5712883"><ele>208.0</ele><time>2026-03-22T09:47:53.344Z</time></trkpt><trkpt lat="43.5153633" lon="11.5712483"><ele>209.0</ele><time>2026-03-22T09:47:54.344Z</time></trkpt><trkpt lat="43.5152417" lon="11.571205"><ele>210.0</ele><time>2026-03-22T09:47:55.344Z</time></trkpt><trkpt lat="43.51513" lon="11.57118"><ele>211.0</ele><time>2026-03-22T09:47:56.343Z</time></trkpt><trkpt lat="43.5150083" lon="11.571195"><ele>212.0</ele><time>2026-03-22T09:47:57.344Z</time></trkpt><trkpt lat="43.514885" lon="11.5712283"><ele>214.5</ele><time>2026-03-22T09:47:58.344Z</time></trkpt><trkpt lat="43.5147567" lon="11.571265"><ele>217.0</ele><time>2026-03-22T09:47:59.344Z</time></trkpt><trkpt lat="43.514615" lon="11.5712833"><ele>219.5</ele><time>2026-03-22T09:48:00.344Z</time></trkpt><trkpt lat="43.5144667" lon="11.5712967"><ele>222.0</ele><time>2026-03-22T09:48:01.343Z</time></trkpt><trkpt lat="43.5143267" lon="11.5713017"><ele>222.25</ele><time>2026-03-22T09:48:02.344Z</time></trkpt><trkpt lat="43.5142" lon="11.5713133"><ele>222.5</ele><time>2026-03-22T09:48:03.344Z</time></trkpt><trkpt lat="43.5140867" lon="11.5712917"><ele>222.75</ele><time>2026-03-22T09:48:04.344Z</time></trkpt><trkpt lat="43.5139817" lon="11.57124"><ele>223.0</ele><time>2026-03-22T09:48:05.343Z</time></trkpt><trkpt lat="43.5138767" lon="11.5711633"><ele>223.5</ele><time>2026-03-22T09:48:06.344Z</time></trkpt><trkpt lat="43.513765" lon="11.5710783"><ele>224.0</ele><time>2026-03-22T09:48:07.344Z</time></trkpt><trkpt lat="43.5136617" lon="11.5709867"><ele>224.5</ele><time>2026-03-22T09:48:08.344Z</time></trkpt><trkpt lat="43.5135817" lon="11.5708733"><ele>225.0</ele><time>2026-03-22T09:48:09.344Z</time></trkpt><trkpt lat="43.5135017" lon="11.570755"><ele>225.0</ele><time>2026-03-22T09:48:10.343Z</time></trkpt><trkpt lat="43.5134067" lon="11.5706433"><ele>225.0</ele><time>2026-03-22T09:48:11.343Z</time></trkpt><trkpt lat="43.5132983" lon="11.57057"><ele>225.0</ele><time>2026-03-22T09:48:12.344Z</time></trkpt><trkpt lat="43.5131833" lon="11.5705217"><ele>225.0</ele><time>2026-03-22T09:48:13.344Z</time></trkpt><trkpt lat="43.513055" lon="11.57049"><ele>225.0</ele><time>2026-03-22T09:48:14.344Z</time></trkpt><trkpt lat="43.512925" lon="11.57047"><ele>225.0</ele><time>2026-03-22T09:48:15.344Z</time></trkpt><trkpt lat="43.512795" lon="11.570435"><ele>225.0</ele><time>2026-03-22T09:48:16.344Z</time></trkpt><trkpt lat="43.512655" lon="11.5704083"><ele>225.0</ele><time>2026-03-22T09:48:17.344Z</time></trkpt><trkpt lat="43.512525" lon="11.5703783"><ele>226.0</ele><time>2026-03-22T09:48:18.344Z</time></trkpt><trkpt lat="43.5123983" lon="11.570385"><ele>227.0</ele><time>2026-03-22T09:48:19.344Z</time></trkpt><trkpt lat="43.5122783" lon="11.5704283"><ele>228.0</ele><time>2026-03-22T09:48:20.344Z</time></trkpt><trkpt lat="43.5121483" lon="11.5704967"><ele>229.0</ele><time>2026-03-22T09:48:21.344Z</time></trkpt><trkpt lat="43.5120033" lon="11.5705383"><ele>230.33333333333331</ele><time>2026-03-22T09:48:22.344Z</time></trkpt><trkpt lat="43.51186" lon="11.5705483"><ele>231.66666666666669</ele><time>2026-03-22T09:48:23.344Z</time></trkpt><trkpt lat="43.5117167" lon="11.5705383"><ele>233.0</ele><time>2026-03-22T09:48:24.344Z</time></trkpt><trkpt lat="43.511555" lon="11.570515"><ele>233.0</ele><time>2026-03-22T09:48:25.344Z</time></trkpt><trkpt lat="43.511385" lon="11.5704933"><ele>233.0</ele><time>2026-03-22T09:48:26.343Z</time></trkpt><trkpt lat="43.5112083" lon="11.570465"><ele>233.0</ele><time>2026-03-22T09:48:27.344Z</time></trkpt><trkpt lat="43.5110367" lon="11.5704617"><ele>233.0</ele><time>2026-03-22T09:48:28.344Z</time></trkpt><trkpt lat="43.510865" lon="11.5704483"><ele>233.0</ele><time>2026-03-22T09:48:29.343Z</time></trkpt><trkpt lat="43.5106967" lon="11.5704383"><ele>233.0</ele><time>2026-03-22T09:48:30.344Z</time></trkpt><trkpt lat="43.51054" lon="11.5704067"><ele>232.66666666666669</ele><time>2026-03-22T09:48:31.344Z</time></trkpt><trkpt lat="43.51038" lon="11.5703517"><ele>232.33333333333331</ele><time>2026-03-22T09:48:32.344Z</time></trkpt><trkpt lat="43.5102333" lon="11.5702967"><ele>232.0</ele><time>2026-03-22T09:48:33.343Z</time></trkpt><trkpt lat="43.5100983" lon="11.570245"><ele>232.0</ele><time>2026-03-22T09:48:34.344Z</time></trkpt><trkpt lat="43.5099633" lon="11.5702"><ele>232.0</ele><time>2026-03-22T09:48:35.344Z</time></trkpt><trkpt lat="43.5098267" lon="11.5701883"><ele>232.0</ele><time>2026-03-22T09:48:36.344Z</time></trkpt><trkpt lat="43.5096967" lon="11.570205"><ele>232.0</ele><time>2026-03-22T09:48:37.343Z</time></trkpt><trkpt lat="43.50957" lon="11.5702567"><ele>228.33333333333331</ele><time>2026-03-22T09:48:38.344Z</time></trkpt><trkpt lat="43.50944" lon="11.570325"><ele>224.66666666666669</ele><time>2026-03-22T09:48:39.344Z</time></trkpt><trkpt lat="43.5093" lon="11.57043"><ele>221.0</ele><time>2026-03-22T09:48:40.343Z</time></trkpt><trkpt lat="43.5091717" lon="11.5705517"><ele>221.0</ele><time>2026-03-22T09:48:41.343Z</time></trkpt><trkpt lat="43.50904" lon="11.5706617"><ele>221.0</ele><time>2026-03-22T09:48:42.344Z</time></trkpt><trkpt lat="43.5089117" lon="11.5707567"><ele>221.0</ele><time>2026-03-22T09:48:43.344Z</time></trkpt><trkpt lat="43.5087717" lon="11.57085"><ele>222.66666666666669</ele><time>2026-03-22T09:48:44.344Z</time></trkpt><trkpt lat="43.50863" lon="11.57094"><ele>224.33333333333331</ele><time>2026-03-22T09:48:45.344Z</time></trkpt><trkpt lat="43.50848" lon="11.5710183"><ele>226.0</ele><time>2026-03-22T09:48:46.344Z</time></trkpt><trkpt lat="43.50832" lon="11.5710883"><ele>226.0</ele><time>2026-03-22T09:48:47.343Z</time></trkpt><trkpt lat="43.5081583" lon="11.57116"><ele>226.0</ele><time>2026-03-22T09:48:48.343Z</time></trkpt><trkpt lat="43.5080017" lon="11.5712317"><ele>226.0</ele><time>2026-03-22T09:48:49.344Z</time></trkpt><trkpt lat="43.5078383" lon="11.5713167"><ele>227.66666666666666</ele><time>2026-03-22T09:48:50.344Z</time></trkpt><trkpt lat="43.507675" lon="11.5713933"><ele>229.33333333333331</ele><time>2026-03-22T09:48:51.344Z</time></trkpt><trkpt lat="43.50751" lon="11.57145"><ele>231.0</ele><time>2026-03-22T09:48:52.344Z</time></trkpt><trkpt lat="43.5073617" lon="11.571505"><ele>231.0</ele><time>2026-03-22T09:48:53.344Z</time></trkpt><trkpt lat="43.5072217" lon="11.571565"><ele>231.0</ele><time>2026-03-22T09:48:54.344Z</time></trkpt><trkpt lat="43.5071" lon="11.57163"><ele>231.0</ele><time>2026-03-22T09:48:55.344Z</time></trkpt><trkpt lat="43.50697" lon="11.5716917"><ele>231.0</ele><time>2026-03-22T09:48:56.344Z</time></trkpt><trkpt lat="43.5068467" lon="11.5717017"><ele>230.5</ele><time>2026-03-22T09:48:57.344Z</time></trkpt><trkpt lat="43.506715" lon="11.57169"><ele>230.0</ele><time>2026-03-22T09:48:58.343Z</time></trkpt><trkpt lat="43.5065783" lon="11.57168"><ele>229.5</ele><time>2026-03-22T09:48:59.344Z</time></trkpt><trkpt lat="43.5064333" lon="11.5717133"><ele>229.0</ele><time>2026-03-22T09:49:00.344Z</time></trkpt><trkpt lat="43.5062917" lon="11.57177"><ele>229.0</ele><time>2026-03-22T09:49:01.344Z</time></trkpt><trkpt lat="43.50614" lon="11.5718267"><ele>229.0</ele><time>2026-03-22T09:49:02.343Z</time></trkpt><trkpt lat="43.5059767" lon="11.5718817"><ele>229.0</ele><time>2026-03-22T09:49:03.344Z</time></trkpt><trkpt lat="43.5058083" lon="11.57194"><ele>229.0</ele><time>2026-03-22T09:49:04.344Z</time></trkpt><trkpt lat="43.5056617" lon="11.5720033"><ele>229.0</ele><time>2026-03-22T09:49:05.343Z</time></trkpt><trkpt lat="43.5055267" lon="11.5720567"><ele>229.0</ele><time>2026-03-22T09:49:06.344Z</time></trkpt><trkpt lat="43.5054083" lon="11.5720767"><ele>229.0</ele><time>2026-03-22T09:49:07.344Z</time></trkpt><trkpt lat="43.505295" lon="11.57208"><ele>232.5</ele><time>2026-03-22T09:49:08.344Z</time></trkpt><trkpt lat="43.505165" lon="11.5720733"><ele>236.0</ele><time>2026-03-22T09:49:09.344Z</time></trkpt><trkpt lat="43.5050417" lon="11.572055"><ele>239.5</ele><time>2026-03-22T09:49:10.343Z</time></trkpt><trkpt lat="43.5049267" lon="11.5720533"><ele>243.0</ele><time>2026-03-22T09:49:11.344Z</time></trkpt><trkpt lat="43.50481" lon="11.57206"><ele>243.0</ele><time>2026-03-22T09:49:12.344Z</time></trkpt><trkpt lat="43.504695" lon="11.572095"><ele>243.0</ele><time>2026-03-22T09:49:13.344Z</time></trkpt><trkpt lat="43.504575" lon="11.5721317"><ele>243.0</ele><time>2026-03-22T09:49:14.344Z</time></trkpt><trkpt lat="43.50445" lon="11.5721617"><ele>243.0</ele><time>2026-03-22T09:49:15.344Z</time></trkpt><trkpt lat="43.50434" lon="11.57218"><ele>242.4</ele><time>2026-03-22T09:49:16.344Z</time></trkpt><trkpt lat="43.50423" lon="11.5721917"><ele>241.8</ele><time>2026-03-22T09:49:17.344Z</time></trkpt><trkpt lat="43.5041283" lon="11.5721817"><ele>241.2</ele><time>2026-03-22T09:49:18.344Z</time></trkpt><trkpt lat="43.50402" lon="11.57215"><ele>240.6</ele><time>2026-03-22T09:49:19.344Z</time></trkpt><trkpt lat="43.5039233" lon="11.5721533"><ele>240.0</ele><time>2026-03-22T09:49:20.344Z</time></trkpt><trkpt lat="43.503825" lon="11.572175"><ele>237.6</ele><time>2026-03-22T09:49:21.343Z</time></trkpt><trkpt lat="43.5037283" lon="11.5721983"><ele>235.2</ele><time>2026-03-22T09:49:22.343Z</time></trkpt><trkpt lat="43.50363" lon="11.5722017"><ele>232.8</ele><time>2026-03-22T09:49:23.343Z</time></trkpt><trkpt lat="43.5035183" lon="11.5721917"><ele>230.4</ele><time>2026-03-22T09:49:24.343Z</time></trkpt><trkpt lat="43.5034083" lon="11.5721933"><ele>228.0</ele><time>2026-03-22T09:49:25.343Z</time></trkpt><trkpt lat="43.5032967" lon="11.572205"><ele>228.0</ele><time>2026-03-22T09:49:26.344Z</time></trkpt><trkpt lat="43.50319" lon="11.5722633"><ele>228.0</ele><time>2026-03-22T09:49:27.344Z</time></trkpt><trkpt lat="43.5030767" lon="11.57232"><ele>228.0</ele><time>2026-03-22T09:49:28.344Z</time></trkpt><trkpt lat="43.5029667" lon="11.5724017"><ele>228.0</ele><time>2026-03-22T09:49:29.344Z</time></trkpt><trkpt lat="43.5028583" lon="11.5724867"><ele>227.60000000000002</ele><time>2026-03-22T09:49:30.343Z</time></trkpt><trkpt lat="43.50277" lon="11.5725667"><ele>227.20000000000002</ele><time>2026-03-22T09:49:31.344Z</time></trkpt><trkpt lat="43.5026817" lon="11.5726617"><ele>226.8</ele><time>2026-03-22T09:49:32.343Z</time></trkpt><trkpt lat="43.50263" lon="11.5727667"><ele>226.4</ele><time>2026-03-22T09:49:33.344Z</time></trkpt><trkpt lat="43.50261" lon="11.572905"><ele>226.0</ele><time>2026-03-22T09:49:34.344Z</time></trkpt><trkpt lat="43.5026033" lon="11.5730683"><ele>225.75</ele><time>2026-03-22T09:49:35.343Z</time></trkpt><trkpt lat="43.5025833" lon="11.5732383"><ele>225.5</ele><time>2026-03-22T09:49:36.343Z</time></trkpt><trkpt lat="43.5025433" lon="11.5734117"><ele>225.25</ele><time>2026-03-22T09:49:37.344Z</time></trkpt><trkpt lat="43.5024867" lon="11.5735767"><ele>225.0</ele><time>2026-03-22T09:49:38.344Z</time></trkpt><trkpt lat="43.5024167" lon="11.5737217"><ele>225.5</ele><time>2026-03-22T09:49:39.343Z</time></trkpt><trkpt lat="43.5023267" lon="11.573845"><ele>226.0</ele><time>2026-03-22T09:49:40.343Z</time></trkpt><trkpt lat="43.502225" lon="11.5739517"><ele>226.5</ele><time>2026-03-22T09:49:41.344Z</time></trkpt><trkpt lat="43.5021117" lon="11.57404"><ele>227.0</ele><time>2026-03-22T09:49:42.344Z</time></trkpt><trkpt lat="43.50201" lon="11.574135"><ele>227.25</ele><time>2026-03-22T09:49:43.344Z</time></trkpt><trkpt lat="43.5019267" lon="11.574245"><ele>227.5</ele><time>2026-03-22T09:49:44.344Z</time></trkpt><trkpt lat="43.5018617" lon="11.57437"><ele>227.75</ele><time>2026-03-22T09:49:45.344Z</time></trkpt><trkpt lat="43.50181" lon="11.5745217"><ele>228.0</ele><time>2026-03-22T09:49:46.344Z</time></trkpt><trkpt lat="43.50176" lon="11.5746833"><ele>228.0</ele><time>2026-03-22T09:49:47.344Z</time></trkpt><trkpt lat="43.5017067" lon="11.5748417"><ele>228.0</ele><time>2026-03-22T09:49:48.343Z</time></trkpt><trkpt lat="43.5016383" lon="11.57497"><ele>228.0</ele><time>2026-03-22T09:49:49.344Z</time></trkpt><trkpt lat="43.501545" lon="11.5750583"><ele>228.0</ele><time>2026-03-22T09:49:50.344Z</time></trkpt><trkpt lat="43.5014467" lon="11.5751217"><ele>228.0</ele><time>2026-03-22T09:49:51.344Z</time></trkpt><trkpt lat="43.5013483" lon="11.5752117"><ele>228.0</ele><time>2026-03-22T09:49:52.344Z</time></trkpt><trkpt lat="43.5012617" lon="11.57531"><ele>228.0</ele><time>2026-03-22T09:49:53.344Z</time></trkpt><trkpt lat="43.501185" lon="11.575385"><ele>228.0</ele><time>2026-03-22T09:49:54.344Z</time></trkpt><trkpt lat="43.5011" lon="11.5754317"><ele>228.0</ele><time>2026-03-22T09:49:55.343Z</time></trkpt><trkpt lat="43.5010117" lon="11.575455"><ele>228.2</ele><time>2026-03-22T09:49:56.344Z</time></trkpt><trkpt lat="43.5009233" lon="11.5754517"><ele>228.4</ele><time>2026-03-22T09:49:57.344Z</time></trkpt><trkpt lat="43.50083" lon="11.5754267"><ele>228.59999999999997</ele><time>2026-03-22T09:49:58.343Z</time></trkpt><trkpt lat="43.5007183" lon="11.57538"><ele>228.79999999999998</ele><time>2026-03-22T09:49:59.343Z</time></trkpt><trkpt lat="43.50061" lon="11.5753517"><ele>229.0</ele><time>2026-03-22T09:50:00.344Z</time></trkpt><trkpt lat="43.5005233" lon="11.5753233"><ele>228.99999999999997</ele><time>2026-03-22T09:50:01.344Z</time></trkpt><trkpt lat="43.500435" lon="11.5752867"><ele>229.0</ele><time>2026-03-22T09:50:02.344Z</time></trkpt><trkpt lat="43.5003633" lon="11.57523"><ele>229.0</ele><time>2026-03-22T09:50:03.343Z</time></trkpt><trkpt lat="43.50029" lon="11.575155"><ele>229.0</ele><time>2026-03-22T09:50:04.344Z</time></trkpt><trkpt lat="43.500215" lon="11.5750867"><ele>228.99999999999997</ele><time>2026-03-22T09:50:05.344Z</time></trkpt><trkpt lat="43.50015" lon="11.5750383"><ele>229.0</ele><time>2026-03-22T09:50:06.344Z</time></trkpt><trkpt lat="43.5000383" lon="11.57506"><ele>229.25</ele><time>2026-03-22T09:50:08.344Z</time></trkpt><trkpt lat="43.4999717" lon="11.575115"><ele>229.5</ele><time>2026-03-22T09:50:09.344Z</time></trkpt><trkpt lat="43.4998933" lon="11.57522"><ele>229.75</ele><time>2026-03-22T09:50:10.344Z</time></trkpt><trkpt lat="43.4997883" lon="11.5753567"><ele>230.0</ele><time>2026-03-22T09:50:11.344Z</time></trkpt><trkpt lat="43.4996683" lon="11.575485"><ele>229.0</ele><time>2026-03-22T09:50:12.344Z</time></trkpt><trkpt lat="43.4995417" lon="11.5755983"><ele>228.0</ele><time>2026-03-22T09:50:13.344Z</time></trkpt><trkpt lat="43.4994267" lon="11.5757117"><ele>227.0</ele><time>2026-03-22T09:50:14.344Z</time></trkpt><trkpt lat="43.4993217" lon="11.5758133"><ele>226.0</ele><time>2026-03-22T09:50:15.344Z</time></trkpt><trkpt lat="43.49921" lon="11.5759117"><ele>226.0</ele><time>2026-03-22T09:50:16.344Z</time></trkpt><trkpt lat="43.499105" lon="11.576"><ele>226.00000000000003</ele><time>2026-03-22T09:50:17.344Z</time></trkpt><trkpt lat="43.4990217" lon="11.576075"><ele>226.00000000000003</ele><time>2026-03-22T09:50:18.343Z</time></trkpt><trkpt lat="43.49894" lon="11.576135"><ele>226.0</ele><time>2026-03-22T09:50:19.344Z</time></trkpt><trkpt lat="43.4988617" lon="11.57617"><ele>226.0</ele><time>2026-03-22T09:50:20.344Z</time></trkpt><trkpt lat="43.498785" lon="11.5761667"><ele>226.4</ele><time>2026-03-22T09:50:21.343Z</time></trkpt><trkpt lat="43.4987183" lon="11.5761017"><ele>226.8</ele><time>2026-03-22T09:50:22.343Z</time></trkpt><trkpt lat="43.49866" lon="11.5759917"><ele>227.20000000000002</ele><time>2026-03-22T09:50:23.344Z</time></trkpt><trkpt lat="43.4985983" lon="11.5758617"><ele>227.60000000000002</ele><time>2026-03-22T09:50:24.344Z</time></trkpt><trkpt lat="43.4985317" lon="11.5757167"><ele>228.0</ele><time>2026-03-22T09:50:25.343Z</time></trkpt><trkpt lat="43.4984533" lon="11.5755667"><ele>228.0</ele><time>2026-03-22T09:50:26.343Z</time></trkpt><trkpt lat="43.4983733" lon="11.5754"><ele>228.0</ele><time>2026-03-22T09:50:27.343Z</time></trkpt><trkpt lat="43.4982967" lon="11.5752533"><ele>228.0</ele><time>2026-03-22T09:50:28.344Z</time></trkpt><trkpt lat="43.498225" lon="11.575125"><ele>228.0</ele><time>2026-03-22T09:50:29.344Z</time></trkpt><trkpt lat="43.4981533" lon="11.5750083"><ele>228.75</ele><time>2026-03-22T09:50:30.344Z</time></trkpt><trkpt lat="43.4980717" lon="11.5749067"><ele>229.5</ele><time>2026-03-22T09:50:31.344Z</time></trkpt><trkpt lat="43.497965" lon="11.5748383"><ele>230.25</ele><time>2026-03-22T09:50:32.344Z</time></trkpt><trkpt lat="43.4978533" lon="11.57478"><ele>231.0</ele><time>2026-03-22T09:50:33.344Z</time></trkpt><trkpt lat="43.4977383" lon="11.574715"><ele>231.20000000000002</ele><time>2026-03-22T09:50:34.344Z</time></trkpt><trkpt lat="43.497625" lon="11.5746367"><ele>231.40000000000003</ele><time>2026-03-22T09:50:35.344Z</time></trkpt><trkpt lat="43.497525" lon="11.5745567"><ele>231.6</ele><time>2026-03-22T09:50:36.344Z</time></trkpt><trkpt lat="43.4974317" lon="11.5744917"><ele>231.8</ele><time>2026-03-22T09:50:37.344Z</time></trkpt><trkpt lat="43.4973483" lon="11.5744567"><ele>232.0</ele><time>2026-03-22T09:50:38.343Z</time></trkpt><trkpt lat="43.4972733" lon="11.5744467"><ele>232.16666666666666</ele><time>2026-03-22T09:50:39.344Z</time></trkpt><trkpt lat="43.49721" lon="11.5744717"><ele>232.33333333333331</ele><time>2026-03-22T09:50:40.344Z</time></trkpt><trkpt lat="43.49714" lon="11.5745183"><ele>232.5</ele><time>2026-03-22T09:50:41.343Z</time></trkpt><trkpt lat="43.49706" lon="11.5745633"><ele>232.66666666666669</ele><time>2026-03-22T09:50:42.344Z</time></trkpt><trkpt lat="43.49698" lon="11.5745983"><ele>232.83333333333334</ele><time>2026-03-22T09:50:43.343Z</time></trkpt><trkpt lat="43.4969117" lon="11.5745933"><ele>233.0</ele><time>2026-03-22T09:50:44.343Z</time></trkpt><trkpt lat="43.49685" lon="11.57454"><ele>233.2</ele><time>2026-03-22T09:50:45.344Z</time></trkpt><trkpt lat="43.4967917" lon="11.574455"><ele>233.4</ele><time>2026-03-22T09:50:46.344Z</time></trkpt><trkpt lat="43.496735" lon="11.5743367"><ele>233.59999999999997</ele><time>2026-03-22T09:50:47.344Z</time></trkpt><trkpt lat="43.4966983" lon="11.574215"><ele>233.79999999999998</ele><time>2026-03-22T09:50:48.343Z</time></trkpt><trkpt lat="43.4966733" lon="11.5740767"><ele>234.0</ele><time>2026-03-22T09:50:49.344Z</time></trkpt><trkpt lat="43.496655" lon="11.57393"><ele>234.0</ele><time>2026-03-22T09:50:50.343Z</time></trkpt><trkpt lat="43.4966233" lon="11.57377"><ele>233.99999999999997</ele><time>2026-03-22T09:50:51.343Z</time></trkpt><trkpt lat="43.4965633" lon="11.573645"><ele>233.99999999999997</ele><time>2026-03-22T09:50:52.344Z</time></trkpt><trkpt lat="43.4964817" lon="11.5735583"><ele>234.0</ele><time>2026-03-22T09:50:53.343Z</time></trkpt><trkpt lat="43.49638" lon="11.5734883"><ele>234.0</ele><time>2026-03-22T09:50:54.344Z</time></trkpt><trkpt lat="43.496265" lon="11.5734467"><ele>234.0</ele><time>2026-03-22T09:50:55.344Z</time></trkpt><trkpt lat="43.496155" lon="11.5733967"><ele>233.99999999999997</ele><time>2026-03-22T09:50:56.344Z</time></trkpt><trkpt lat="43.4960483" lon="11.5733383"><ele>233.99999999999997</ele><time>2026-03-22T09:50:57.344Z</time></trkpt><trkpt lat="43.49596" lon="11.5732683"><ele>234.0</ele><time>2026-03-22T09:50:58.343Z</time></trkpt><trkpt lat="43.49587" lon="11.5731933"><ele>234.0</ele><time>2026-03-22T09:50:59.344Z</time></trkpt><trkpt lat="43.4958133" lon="11.5730833"><ele>234.0</ele><time>2026-03-22T09:51:00.343Z</time></trkpt><trkpt lat="43.4957733" lon="11.57294"><ele>233.99999999999997</ele><time>2026-03-22T09:51:01.344Z</time></trkpt><trkpt lat="43.495735" lon="11.5728133"><ele>233.99999999999997</ele><time>2026-03-22T09:51:02.343Z</time></trkpt><trkpt lat="43.4956967" lon="11.57272"><ele>234.0</ele><time>2026-03-22T09:51:03.344Z</time></trkpt><trkpt lat="43.495605" lon="11.57266"><ele>234.0</ele><time>2026-03-22T09:51:05.344Z</time></trkpt><trkpt lat="43.4955367" lon="11.5727083"><ele>234.2</ele><time>2026-03-22T09:51:06.344Z</time></trkpt><trkpt lat="43.4954567" lon="11.5728183"><ele>234.39999999999998</ele><time>2026-03-22T09:51:07.344Z</time></trkpt><trkpt lat="43.4953933" lon="11.5729283"><ele>234.6</ele><time>2026-03-22T09:51:08.344Z</time></trkpt><trkpt lat="43.4953533" lon="11.573035"><ele>234.8</ele><time>2026-03-22T09:51:09.344Z</time></trkpt><trkpt lat="43.495335" lon="11.5731383"><ele>235.0</ele><time>2026-03-22T09:51:10.344Z</time></trkpt><trkpt lat="43.4953367" lon="11.57326"><ele>234.8</ele><time>2026-03-22T09:51:11.344Z</time></trkpt><trkpt lat="43.49535" lon="11.5734033"><ele>234.6</ele><time>2026-03-22T09:51:12.344Z</time></trkpt><trkpt lat="43.4953633" lon="11.5735633"><ele>234.39999999999998</ele><time>2026-03-22T09:51:13.344Z</time></trkpt><trkpt lat="43.4953683" lon="11.573725"><ele>234.2</ele><time>2026-03-22T09:51:14.344Z</time></trkpt><trkpt lat="43.4953833" lon="11.5738683"><ele>234.0</ele><time>2026-03-22T09:51:15.343Z</time></trkpt><trkpt lat="43.495355" lon="11.5740283"><ele>234.0</ele><time>2026-03-22T09:51:17.344Z</time></trkpt><trkpt lat="43.49524" lon="11.5741333"><ele>234.0</ele><time>2026-03-22T09:51:19.344Z</time></trkpt><trkpt lat="43.4951283" lon="11.574155"><ele>234.0</ele><time>2026-03-22T09:51:20.344Z</time></trkpt><trkpt lat="43.49499" lon="11.5741633"><ele>234.0</ele><time>2026-03-22T09:51:21.344Z</time></trkpt><trkpt lat="43.4948417" lon="11.57417"><ele>234.0</ele><time>2026-03-22T09:51:22.344Z</time></trkpt><trkpt lat="43.4946933" lon="11.5741883"><ele>234.0</ele><time>2026-03-22T09:51:23.344Z</time></trkpt><trkpt lat="43.49456" lon="11.5742133"><ele>234.0</ele><time>2026-03-22T09:51:24.344Z</time></trkpt><trkpt lat="43.49446" lon="11.57425"><ele>234.0</ele><time>2026-03-22T09:51:25.344Z</time></trkpt><trkpt lat="43.4943717" lon="11.5743067"><ele>234.0</ele><time>2026-03-22T09:51:26.344Z</time></trkpt><trkpt lat="43.4942967" lon="11.5743467"><ele>234.0</ele><time>2026-03-22T09:51:27.344Z</time></trkpt><trkpt lat="43.4942317" lon="11.5743817"><ele>234.0</ele><time>2026-03-22T09:51:28.344Z</time></trkpt><trkpt lat="43.4941417" lon="11.574415"><ele>234.0</ele><time>2026-03-22T09:51:30.344Z</time></trkpt><trkpt lat="43.4940767" lon="11.5744217"><ele>234.0</ele><time>2026-03-22T09:51:32.344Z</time></trkpt><trkpt lat="43.4939833" lon="11.5743633"><ele>234.0</ele><time>2026-03-22T09:51:34.343Z</time></trkpt><trkpt lat="43.4939333" lon="11.5743017"><ele>234.0</ele><time>2026-03-22T09:51:35.344Z</time></trkpt><trkpt lat="43.4938783" lon="11.5742167"><ele>233.99999999999997</ele><time>2026-03-22T09:51:36.344Z</time></trkpt><trkpt lat="43.4938133" lon="11.5741117"><ele>233.99999999999997</ele><time>2026-03-22T09:51:37.344Z</time></trkpt><trkpt lat="43.4937633" lon="11.5739867"><ele>234.0</ele><time>2026-03-22T09:51:38.343Z</time></trkpt><trkpt lat="43.4937117" lon="11.5738567"><ele>234.0</ele><time>2026-03-22T09:51:39.344Z</time></trkpt><trkpt lat="43.4936667" lon="11.5737133"><ele>235.0</ele><time>2026-03-22T09:51:40.343Z</time></trkpt><trkpt lat="43.493625" lon="11.573555"><ele>236.0</ele><time>2026-03-22T09:51:41.343Z</time></trkpt><trkpt lat="43.493585" lon="11.5733967"><ele>237.0</ele><time>2026-03-22T09:51:42.344Z</time></trkpt><trkpt lat="43.493565" lon="11.5732517"><ele>238.0</ele><time>2026-03-22T09:51:43.343Z</time></trkpt><trkpt lat="43.4935583" lon="11.573105"><ele>237.99999999999997</ele><time>2026-03-22T09:51:44.344Z</time></trkpt><trkpt lat="43.4935517" lon="11.5729667"><ele>238.0</ele><time>2026-03-22T09:51:45.344Z</time></trkpt><trkpt lat="43.49355" lon="11.57283"><ele>238.0</ele><time>2026-03-22T09:51:46.344Z</time></trkpt><trkpt lat="43.4935483" lon="11.5727133"><ele>238.0</ele><time>2026-03-22T09:51:47.343Z</time></trkpt><trkpt lat="43.4935317" lon="11.57262"><ele>237.99999999999997</ele><time>2026-03-22T09:51:48.344Z</time></trkpt><trkpt lat="43.4934733" lon="11.5725183"><ele>238.0</ele><time>2026-03-22T09:51:50.344Z</time></trkpt><trkpt lat="43.4934" lon="11.57248"><ele>237.83333333333331</ele><time>2026-03-22T09:51:52.344Z</time></trkpt><trkpt lat="43.49331" lon="11.572425"><ele>237.66666666666666</ele><time>2026-03-22T09:51:54.344Z</time></trkpt><trkpt lat="43.4932483" lon="11.5723833"><ele>237.5</ele><time>2026-03-22T09:51:55.344Z</time></trkpt><trkpt lat="43.4931783" lon="11.5723317"><ele>237.33333333333331</ele><time>2026-03-22T09:51:56.344Z</time></trkpt><trkpt lat="43.4931033" lon="11.5722767"><ele>237.16666666666666</ele><time>2026-03-22T09:51:57.344Z</time></trkpt><trkpt lat="43.4930233" lon="11.572225"><ele>237.0</ele><time>2026-03-22T09:51:58.344Z</time></trkpt><trkpt lat="43.492935" lon="11.5721717"><ele>237.66666666666666</ele><time>2026-03-22T09:51:59.344Z</time></trkpt><trkpt lat="43.4928417" lon="11.5721133"><ele>238.33333333333331</ele><time>2026-03-22T09:52:00.344Z</time></trkpt><trkpt lat="43.4927583" lon="11.5720533"><ele>239.0</ele><time>2026-03-22T09:52:01.344Z</time></trkpt><trkpt lat="43.4926917" lon="11.572005"><ele>239.66666666666666</ele><time>2026-03-22T09:52:02.344Z</time></trkpt><trkpt lat="43.49263" lon="11.5719767"><ele>240.33333333333331</ele><time>2026-03-22T09:52:03.343Z</time></trkpt><trkpt lat="43.4925583" lon="11.5719767"><ele>241.0</ele><time>2026-03-22T09:52:04.343Z</time></trkpt><trkpt lat="43.492475" lon="11.5719617"><ele>241.20000000000002</ele><time>2026-03-22T09:52:05.344Z</time></trkpt><trkpt lat="43.492405" lon="11.57194"><ele>241.40000000000003</ele><time>2026-03-22T09:52:06.343Z</time></trkpt><trkpt lat="43.49232" lon="11.5718967"><ele>241.6</ele><time>2026-03-22T09:52:07.344Z</time></trkpt><trkpt lat="43.492215" lon="11.5718417"><ele>241.8</ele><time>2026-03-22T09:52:08.344Z</time></trkpt><trkpt lat="43.4921133" lon="11.5717917"><ele>242.0</ele><time>2026-03-22T09:52:09.344Z</time></trkpt><trkpt lat="43.4920067" lon="11.571735"><ele>243.2</ele><time>2026-03-22T09:52:10.344Z</time></trkpt><trkpt lat="43.4919" lon="11.5717183"><ele>244.39999999999998</ele><time>2026-03-22T09:52:11.344Z</time></trkpt><trkpt lat="43.4917983" lon="11.5717183"><ele>245.60000000000002</ele><time>2026-03-22T09:52:12.344Z</time></trkpt><trkpt lat="43.4917083" lon="11.5717633"><ele>246.8</ele><time>2026-03-22T09:52:13.343Z</time></trkpt><trkpt lat="43.4916183" lon="11.5718217"><ele>248.0</ele><time>2026-03-22T09:52:14.344Z</time></trkpt><trkpt lat="43.491525" lon="11.5718917"><ele>248.0</ele><time>2026-03-22T09:52:15.344Z</time></trkpt><trkpt lat="43.4914283" lon="11.5719533"><ele>248.0</ele><time>2026-03-22T09:52:16.344Z</time></trkpt><trkpt lat="43.49133" lon="11.571975"><ele>248.0</ele><time>2026-03-22T09:52:17.344Z</time></trkpt><trkpt lat="43.4912217" lon="11.571975"><ele>248.0</ele><time>2026-03-22T09:52:18.344Z</time></trkpt><trkpt lat="43.4911083" lon="11.57196"><ele>248.0</ele><time>2026-03-22T09:52:19.343Z</time></trkpt><trkpt lat="43.49099" lon="11.571935"><ele>247.4</ele><time>2026-03-22T09:52:20.344Z</time></trkpt><trkpt lat="43.4908767" lon="11.5719133"><ele>246.8</ele><time>2026-03-22T09:52:21.344Z</time></trkpt><trkpt lat="43.4907733" lon="11.57188"><ele>246.2</ele><time>2026-03-22T09:52:22.343Z</time></trkpt><trkpt lat="43.490685" lon="11.5718217"><ele>245.6</ele><time>2026-03-22T09:52:23.344Z</time></trkpt><trkpt lat="43.49061" lon="11.5717383"><ele>245.0</ele><time>2026-03-22T09:52:24.344Z</time></trkpt><trkpt lat="43.49054" lon="11.571635"><ele>245.0</ele><time>2026-03-22T09:52:25.343Z</time></trkpt><trkpt lat="43.4904817" lon="11.5715117"><ele>245.0</ele><time>2026-03-22T09:52:26.344Z</time></trkpt><trkpt lat="43.4904217" lon="11.5714133"><ele>245.0</ele><time>2026-03-22T09:52:27.344Z</time></trkpt><trkpt lat="43.4903583" lon="11.5713283"><ele>245.0</ele><time>2026-03-22T09:52:28.344Z</time></trkpt><trkpt lat="43.4902867" lon="11.5712517"><ele>245.0</ele><time>2026-03-22T09:52:29.344Z</time></trkpt><trkpt lat="43.490205" lon="11.5711683"><ele>243.2</ele><time>2026-03-22T09:52:30.344Z</time></trkpt><trkpt lat="43.490145" lon="11.57107"><ele>241.4</ele><time>2026-03-22T09:52:31.343Z</time></trkpt><trkpt lat="43.4900883" lon="11.5709583"><ele>239.60000000000002</ele><time>2026-03-22T09:52:32.344Z</time></trkpt><trkpt lat="43.4900317" lon="11.5708383"><ele>237.8</ele><time>2026-03-22T09:52:33.344Z</time></trkpt><trkpt lat="43.48998" lon="11.5707317"><ele>236.0</ele><time>2026-03-22T09:52:34.344Z</time></trkpt><trkpt lat="43.4899117" lon="11.5706417"><ele>236.0</ele><time>2026-03-22T09:52:35.344Z</time></trkpt><trkpt lat="43.48982" lon="11.5705867"><ele>236.00000000000003</ele><time>2026-03-22T09:52:36.344Z</time></trkpt><trkpt lat="43.48972" lon="11.57056"><ele>236.00000000000003</ele><time>2026-03-22T09:52:37.344Z</time></trkpt><trkpt lat="43.4896367" lon="11.5705967"><ele>236.0</ele><time>2026-03-22T09:52:38.344Z</time></trkpt><trkpt lat="43.489555" lon="11.570635"><ele>236.0</ele><time>2026-03-22T09:52:39.344Z</time></trkpt><trkpt lat="43.4894817" lon="11.5706933"><ele>236.4</ele><time>2026-03-22T09:52:40.344Z</time></trkpt><trkpt lat="43.489425" lon="11.5707683"><ele>236.8</ele><time>2026-03-22T09:52:41.344Z</time></trkpt><trkpt lat="43.4893783" lon="11.570865"><ele>237.20000000000002</ele><time>2026-03-22T09:52:42.344Z</time></trkpt><trkpt lat="43.4893133" lon="11.570965"><ele>237.60000000000002</ele><time>2026-03-22T09:52:43.344Z</time></trkpt><trkpt lat="43.4892367" lon="11.5710533"><ele>238.0</ele><time>2026-03-22T09:52:44.344Z</time></trkpt><trkpt lat="43.4891467" lon="11.57112"><ele>238.0</ele><time>2026-03-22T09:52:45.344Z</time></trkpt><trkpt lat="43.4890467" lon="11.5711667"><ele>238.0</ele><time>2026-03-22T09:52:46.344Z</time></trkpt><trkpt lat="43.48893" lon="11.571165"><ele>238.0</ele><time>2026-03-22T09:52:47.343Z</time></trkpt><trkpt lat="43.4888167" lon="11.57112"><ele>238.0</ele><time>2026-03-22T09:52:48.343Z</time></trkpt><trkpt lat="43.4887167" lon="11.5710433"><ele>241.75</ele><time>2026-03-22T09:52:49.343Z</time></trkpt><trkpt lat="43.48862" lon="11.5709583"><ele>245.5</ele><time>2026-03-22T09:52:50.344Z</time></trkpt><trkpt lat="43.48852" lon="11.570875"><ele>249.25</ele><time>2026-03-22T09:52:51.344Z</time></trkpt><trkpt lat="43.48841" lon="11.5707917"><ele>253.0</ele><time>2026-03-22T09:52:52.344Z</time></trkpt><trkpt lat="43.4882917" lon="11.570705"><ele>253.0</ele><time>2026-03-22T09:52:53.343Z</time></trkpt><trkpt lat="43.48818" lon="11.5706317"><ele>253.0</ele><time>2026-03-22T09:52:54.344Z</time></trkpt><trkpt lat="43.48807" lon="11.57054"><ele>253.0</ele><time>2026-03-22T09:52:55.344Z</time></trkpt><trkpt lat="43.4879633" lon="11.570435"><ele>253.0</ele><time>2026-03-22T09:52:56.344Z</time></trkpt><trkpt lat="43.487855" lon="11.5703033"><ele>254.75</ele><time>2026-03-22T09:52:57.344Z</time></trkpt><trkpt lat="43.4877633" lon="11.5701567"><ele>256.5</ele><time>2026-03-22T09:52:58.344Z</time></trkpt><trkpt lat="43.4876883" lon="11.5700117"><ele>258.25</ele><time>2026-03-22T09:52:59.344Z</time></trkpt><trkpt lat="43.4876233" lon="11.5698417"><ele>260.0</ele><time>2026-03-22T09:53:00.343Z</time></trkpt><trkpt lat="43.4875817" lon="11.569675"><ele>260.0</ele><time>2026-03-22T09:53:01.344Z</time></trkpt><trkpt lat="43.48756" lon="11.56953"><ele>260.0</ele><time>2026-03-22T09:53:02.344Z</time></trkpt><trkpt lat="43.4875433" lon="11.5693883"><ele>260.0</ele><time>2026-03-22T09:53:03.344Z</time></trkpt><trkpt lat="43.4875233" lon="11.569265"><ele>260.0</ele><time>2026-03-22T09:53:04.344Z</time></trkpt><trkpt lat="43.4875" lon="11.569155"><ele>260.0</ele><time>2026-03-22T09:53:05.344Z</time></trkpt><trkpt lat="43.4874667" lon="11.56905"><ele>259.0</ele><time>2026-03-22T09:53:06.344Z</time></trkpt><trkpt lat="43.4874233" lon="11.5689367"><ele>258.0</ele><time>2026-03-22T09:53:07.344Z</time></trkpt><trkpt lat="43.4873733" lon="11.5688067"><ele>257.0</ele><time>2026-03-22T09:53:08.344Z</time></trkpt><trkpt lat="43.4873217" lon="11.5686483"><ele>256.0</ele><time>2026-03-22T09:53:09.344Z</time></trkpt><trkpt lat="43.48727" lon="11.5684833"><ele>256.0</ele><time>2026-03-22T09:53:10.344Z</time></trkpt><trkpt lat="43.4872283" lon="11.5683"><ele>256.0</ele><time>2026-03-22T09:53:11.344Z</time></trkpt><trkpt lat="43.4871833" lon="11.5681117"><ele>256.0</ele><time>2026-03-22T09:53:12.344Z</time></trkpt><trkpt lat="43.48715" lon="11.5679133"><ele>256.0</ele><time>2026-03-22T09:53:13.344Z</time></trkpt><trkpt lat="43.4871183" lon="11.567715"><ele>255.5</ele><time>2026-03-22T09:53:14.344Z</time></trkpt><trkpt lat="43.4870883" lon="11.567515"><ele>255.0</ele><time>2026-03-22T09:53:15.343Z</time></trkpt><trkpt lat="43.4870583" lon="11.56732"><ele>254.5</ele><time>2026-03-22T09:53:16.344Z</time></trkpt><trkpt lat="43.48703" lon="11.567125"><ele>254.0</ele><time>2026-03-22T09:53:17.343Z</time></trkpt><trkpt lat="43.4869683" lon="11.5669617"><ele>255.0</ele><time>2026-03-22T09:53:18.344Z</time></trkpt><trkpt lat="43.4868967" lon="11.5667917"><ele>256.0</ele><time>2026-03-22T09:53:19.344Z</time></trkpt><trkpt lat="43.486825" lon="11.5666117"><ele>257.0</ele><time>2026-03-22T09:53:20.344Z</time></trkpt><trkpt lat="43.48678" lon="11.5664083"><ele>258.0</ele><time>2026-03-22T09:53:21.344Z</time></trkpt><trkpt lat="43.48673" lon="11.5661967"><ele>259.3333333333333</ele><time>2026-03-22T09:53:22.343Z</time></trkpt><trkpt lat="43.4866717" lon="11.5659933"><ele>260.66666666666663</ele><time>2026-03-22T09:53:23.344Z</time></trkpt><trkpt lat="43.486595" lon="11.565795"><ele>262.0</ele><time>2026-03-22T09:53:24.344Z</time></trkpt><trkpt lat="43.4865" lon="11.5656183"><ele>262.0</ele><time>2026-03-22T09:53:25.344Z</time></trkpt><trkpt lat="43.486385" lon="11.5654617"><ele>262.0</ele><time>2026-03-22T09:53:26.344Z</time></trkpt><trkpt lat="43.486245" lon="11.5653133"><ele>262.0</ele><time>2026-03-22T09:53:27.344Z</time></trkpt><trkpt lat="43.486105" lon="11.56518"><ele>264.0</ele><time>2026-03-22T09:53:28.343Z</time></trkpt><trkpt lat="43.4859667" lon="11.5650267"><ele>266.0</ele><time>2026-03-22T09:53:29.344Z</time></trkpt><trkpt lat="43.4858267" lon="11.5648567"><ele>268.0</ele><time>2026-03-22T09:53:30.344Z</time></trkpt><trkpt lat="43.4856933" lon="11.5647"><ele>268.0</ele><time>2026-03-22T09:53:31.344Z</time></trkpt><trkpt lat="43.485565" lon="11.5645417"><ele>268.0</ele><time>2026-03-22T09:53:32.344Z</time></trkpt><trkpt lat="43.4854367" lon="11.5643933"><ele>268.0</ele><time>2026-03-22T09:53:33.343Z</time></trkpt><trkpt lat="43.4853233" lon="11.5642433"><ele>268.0</ele><time>2026-03-22T09:53:34.343Z</time></trkpt><trkpt lat="43.4852233" lon="11.564095"><ele>268.0</ele><time>2026-03-22T09:53:35.344Z</time></trkpt><trkpt lat="43.4851317" lon="11.563945"><ele>268.0</ele><time>2026-03-22T09:53:36.344Z</time></trkpt><trkpt lat="43.4850433" lon="11.5638067"><ele>268.0</ele><time>2026-03-22T09:53:37.344Z</time></trkpt><trkpt lat="43.4849683" lon="11.5636733"><ele>268.4</ele><time>2026-03-22T09:53:38.344Z</time></trkpt><trkpt lat="43.4849017" lon="11.56354"><ele>268.8</ele><time>2026-03-22T09:53:39.344Z</time></trkpt><trkpt lat="43.484865" lon="11.5634233"><ele>269.2</ele><time>2026-03-22T09:53:40.344Z</time></trkpt><trkpt lat="43.4848383" lon="11.5633383"><ele>269.6</ele><time>2026-03-22T09:53:41.344Z</time></trkpt><trkpt lat="43.484755" lon="11.5632867"><ele>270.0</ele><time>2026-03-22T09:53:46.344Z</time></trkpt><trkpt lat="43.4846167" lon="11.5632967"><ele>268.8</ele><time>2026-03-22T09:53:48.344Z</time></trkpt><trkpt lat="43.4845267" lon="11.5632767"><ele>267.6</ele><time>2026-03-22T09:53:49.344Z</time></trkpt><trkpt lat="43.4844267" lon="11.5632333"><ele>266.4</ele><time>2026-03-22T09:53:50.343Z</time></trkpt><trkpt lat="43.484325" lon="11.563135"><ele>265.2</ele><time>2026-03-22T09:53:51.344Z</time></trkpt><trkpt lat="43.4842233" lon="11.5630317"><ele>264.0</ele><time>2026-03-22T09:53:52.344Z</time></trkpt><trkpt lat="43.484115" lon="11.5629267"><ele>266.0</ele><time>2026-03-22T09:53:53.344Z</time></trkpt><trkpt lat="43.4840083" lon="11.5628133"><ele>268.0</ele><time>2026-03-22T09:53:54.344Z</time></trkpt><trkpt lat="43.483905" lon="11.56269"><ele>270.0</ele><time>2026-03-22T09:53:55.344Z</time></trkpt><trkpt lat="43.4838133" lon="11.5625617"><ele>272.0</ele><time>2026-03-22T09:53:56.344Z</time></trkpt><trkpt lat="43.4837367" lon="11.5624433"><ele>268.0</ele><time>2026-03-22T09:53:57.344Z</time></trkpt><trkpt lat="43.4836683" lon="11.562315"><ele>264.0</ele><time>2026-03-22T09:53:58.344Z</time></trkpt><trkpt lat="43.4835883" lon="11.5622117"><ele>260.0</ele><time>2026-03-22T09:53:59.344Z</time></trkpt><trkpt lat="43.48348" lon="11.5621333"><ele>256.0</ele><time>2026-03-22T09:54:00.344Z</time></trkpt><trkpt lat="43.48336" lon="11.5620717"><ele>259.25</ele><time>2026-03-22T09:54:01.343Z</time></trkpt><trkpt lat="43.483245" lon="11.5619967"><ele>262.5</ele><time>2026-03-22T09:54:02.343Z</time></trkpt><trkpt lat="43.4831417" lon="11.5619283"><ele>265.75</ele><time>2026-03-22T09:54:03.344Z</time></trkpt><trkpt lat="43.483035" lon="11.5618583"><ele>269.0</ele><time>2026-03-22T09:54:04.344Z</time></trkpt><trkpt lat="43.48292" lon="11.561795"><ele>269.0</ele><time>2026-03-22T09:54:05.343Z</time></trkpt><trkpt lat="43.4827967" lon="11.5617467"><ele>269.0</ele><time>2026-03-22T09:54:06.344Z</time></trkpt><trkpt lat="43.482685" lon="11.5617267"><ele>269.0</ele><time>2026-03-22T09:54:07.344Z</time></trkpt><trkpt lat="43.48258" lon="11.5617167"><ele>269.0</ele><time>2026-03-22T09:54:08.343Z</time></trkpt><trkpt lat="43.482475" lon="11.5617433"><ele>269.0</ele><time>2026-03-22T09:54:09.344Z</time></trkpt><trkpt lat="43.482385" lon="11.561795"><ele>269.0</ele><time>2026-03-22T09:54:10.344Z</time></trkpt><trkpt lat="43.482285" lon="11.5618683"><ele>269.0</ele><time>2026-03-22T09:54:11.344Z</time></trkpt><trkpt lat="43.48218" lon="11.56194"><ele>269.0</ele><time>2026-03-22T09:54:12.343Z</time></trkpt><trkpt lat="43.4820817" lon="11.5620117"><ele>269.0</ele><time>2026-03-22T09:54:13.344Z</time></trkpt><trkpt lat="43.4819817" lon="11.5620867"><ele>267.4</ele><time>2026-03-22T09:54:14.344Z</time></trkpt><trkpt lat="43.48188" lon="11.5621683"><ele>265.79999999999995</ele><time>2026-03-22T09:54:15.343Z</time></trkpt><trkpt lat="43.4817883" lon="11.5622333"><ele>264.20000000000005</ele><time>2026-03-22T09:54:16.344Z</time></trkpt><trkpt lat="43.4817083" lon="11.5622817"><ele>262.6</ele><time>2026-03-22T09:54:17.343Z</time></trkpt><trkpt lat="43.481635" lon="11.56233"><ele>261.0</ele><time>2026-03-22T09:54:18.344Z</time></trkpt><trkpt lat="43.4815617" lon="11.56235"><ele>261.0</ele><time>2026-03-22T09:54:19.343Z</time></trkpt><trkpt lat="43.4814883" lon="11.5623383"><ele>261.0</ele><time>2026-03-22T09:54:20.344Z</time></trkpt><trkpt lat="43.4814183" lon="11.5622967"><ele>261.0</ele><time>2026-03-22T09:54:21.343Z</time></trkpt><trkpt lat="43.4813667" lon="11.5622333"><ele>261.0</ele><time>2026-03-22T09:54:22.344Z</time></trkpt><trkpt lat="43.48132" lon="11.562135"><ele>261.0</ele><time>2026-03-22T09:54:23.344Z</time></trkpt><trkpt lat="43.48127" lon="11.5620267"><ele>261.0</ele><time>2026-03-22T09:54:24.344Z</time></trkpt><trkpt lat="43.4812267" lon="11.561935"><ele>262.0</ele><time>2026-03-22T09:54:25.344Z</time></trkpt><trkpt lat="43.4811833" lon="11.5618617"><ele>263.0</ele><time>2026-03-22T09:54:26.344Z</time></trkpt><trkpt lat="43.4811383" lon="11.5617917"><ele>264.0</ele><time>2026-03-22T09:54:27.344Z</time></trkpt><trkpt lat="43.4810783" lon="11.56172"><ele>265.0</ele><time>2026-03-22T09:54:28.344Z</time></trkpt><trkpt lat="43.481005" lon="11.5616433"><ele>266.0</ele><time>2026-03-22T09:54:29.344Z</time></trkpt><trkpt lat="43.4809083" lon="11.5615583"><ele>267.0</ele><time>2026-03-22T09:54:30.343Z</time></trkpt><trkpt lat="43.4807767" lon="11.5614617"><ele>267.0</ele><time>2026-03-22T09:54:31.344Z</time></trkpt><trkpt lat="43.4806" lon="11.561345"><ele>267.0</ele><time>2026-03-22T09:54:32.344Z</time></trkpt><trkpt lat="43.4803983" lon="11.5612483"><ele>267.0</ele><time>2026-03-22T09:54:33.344Z</time></trkpt><trkpt lat="43.4802017" lon="11.5611483"><ele>267.3333333333333</ele><time>2026-03-22T09:54:34.344Z</time></trkpt><trkpt lat="43.4800117" lon="11.5610433"><ele>267.66666666666663</ele><time>2026-03-22T09:54:35.344Z</time></trkpt><trkpt lat="43.47982" lon="11.56093"><ele>268.0</ele><time>2026-03-22T09:54:36.344Z</time></trkpt><trkpt lat="43.4796367" lon="11.5608267"><ele>266.3333333333333</ele><time>2026-03-22T09:54:37.344Z</time></trkpt><trkpt lat="43.479455" lon="11.5607483"><ele>264.6666666666667</ele><time>2026-03-22T09:54:38.344Z</time></trkpt><trkpt lat="43.4792633" lon="11.560665"><ele>263.0</ele><time>2026-03-22T09:54:39.343Z</time></trkpt><trkpt lat="43.4790717" lon="11.5605967"><ele>263.0</ele><time>2026-03-22T09:54:40.344Z</time></trkpt><trkpt lat="43.4788833" lon="11.560525"><ele>263.0</ele><time>2026-03-22T09:54:41.344Z</time></trkpt><trkpt lat="43.4786867" lon="11.56045"><ele>263.0</ele><time>2026-03-22T09:54:42.343Z</time></trkpt><trkpt lat="43.4784983" lon="11.5603883"><ele>264.33333333333337</ele><time>2026-03-22T09:54:43.344Z</time></trkpt><trkpt lat="43.478305" lon="11.560325"><ele>265.6666666666667</ele><time>2026-03-22T09:54:44.344Z</time></trkpt><trkpt lat="43.4781283" lon="11.5602667"><ele>267.0</ele><time>2026-03-22T09:54:45.343Z</time></trkpt><trkpt lat="43.4779633" lon="11.560225"><ele>266.0</ele><time>2026-03-22T09:54:46.344Z</time></trkpt><trkpt lat="43.477815" lon="11.56022"><ele>265.0</ele><time>2026-03-22T09:54:47.344Z</time></trkpt><trkpt lat="43.4776817" lon="11.5602617"><ele>264.0</ele><time>2026-03-22T09:54:48.344Z</time></trkpt><trkpt lat="43.4775833" lon="11.560345"><ele>263.0</ele><time>2026-03-22T09:54:49.344Z</time></trkpt><trkpt lat="43.47751" lon="11.5604267"><ele>262.8</ele><time>2026-03-22T09:54:50.343Z</time></trkpt><trkpt lat="43.4774617" lon="11.560495"><ele>262.6</ele><time>2026-03-22T09:54:51.344Z</time></trkpt><trkpt lat="43.4774183" lon="11.5605933"><ele>262.4</ele><time>2026-03-22T09:54:52.343Z</time></trkpt><trkpt lat="43.4773883" lon="11.5607467"><ele>262.2</ele><time>2026-03-22T09:54:53.343Z</time></trkpt><trkpt lat="43.47736" lon="11.5609217"><ele>262.0</ele><time>2026-03-22T09:54:54.344Z</time></trkpt><trkpt lat="43.47732" lon="11.561105"><ele>261.3333333333333</ele><time>2026-03-22T09:54:55.344Z</time></trkpt><trkpt lat="43.4772833" lon="11.5613"><ele>260.6666666666667</ele><time>2026-03-22T09:54:56.344Z</time></trkpt><trkpt lat="43.4772333" lon="11.5615067"><ele>260.0</ele><time>2026-03-22T09:54:57.344Z</time></trkpt><trkpt lat="43.4772033" lon="11.5617467"><ele>260.0</ele><time>2026-03-22T09:54:58.343Z</time></trkpt><trkpt lat="43.4771767" lon="11.5619833"><ele>260.0</ele><time>2026-03-22T09:54:59.344Z</time></trkpt><trkpt lat="43.4771783" lon="11.562235"><ele>260.0</ele><time>2026-03-22T09:55:00.343Z</time></trkpt><trkpt lat="43.4771917" lon="11.5624833"><ele>260.6666666666667</ele><time>2026-03-22T09:55:01.344Z</time></trkpt><trkpt lat="43.4772317" lon="11.5627367"><ele>261.3333333333333</ele><time>2026-03-22T09:55:02.344Z</time></trkpt><trkpt lat="43.477285" lon="11.5629667"><ele>262.0</ele><time>2026-03-22T09:55:03.344Z</time></trkpt><trkpt lat="43.4773567" lon="11.5632067"><ele>262.66666666666663</ele><time>2026-03-22T09:55:04.344Z</time></trkpt><trkpt lat="43.477445" lon="11.5634567"><ele>263.3333333333333</ele><time>2026-03-22T09:55:05.344Z</time></trkpt><trkpt lat="43.4775217" lon="11.563705"><ele>264.0</ele><time>2026-03-22T09:55:06.344Z</time></trkpt><trkpt lat="43.4776" lon="11.5639533"><ele>266.0</ele><time>2026-03-22T09:55:07.344Z</time></trkpt><trkpt lat="43.4776883" lon="11.5642133"><ele>268.0</ele><time>2026-03-22T09:55:08.343Z</time></trkpt><trkpt lat="43.477775" lon="11.5644867"><ele>270.0</ele><time>2026-03-22T09:55:09.344Z</time></trkpt><trkpt lat="43.4778633" lon="11.5647433"><ele>270.0</ele><time>2026-03-22T09:55:10.344Z</time></trkpt><trkpt lat="43.4779617" lon="11.565005"><ele>270.0</ele><time>2026-03-22T09:55:11.343Z</time></trkpt><trkpt lat="43.4780533" lon="11.56526"><ele>270.0</ele><time>2026-03-22T09:55:12.344Z</time></trkpt><trkpt lat="43.47815" lon="11.5655067"><ele>270.0</ele><time>2026-03-22T09:55:13.344Z</time></trkpt><trkpt lat="43.4782417" lon="11.565755"><ele>270.0</ele><time>2026-03-22T09:55:14.344Z</time></trkpt><trkpt lat="43.4783417" lon="11.566"><ele>270.0</ele><time>2026-03-22T09:55:15.344Z</time></trkpt><trkpt lat="43.4784317" lon="11.5662467"><ele>271.0</ele><time>2026-03-22T09:55:16.344Z</time></trkpt><trkpt lat="43.47852" lon="11.5664967"><ele>272.0</ele><time>2026-03-22T09:55:17.344Z</time></trkpt><trkpt lat="43.4785933" lon="11.5667717"><ele>273.0</ele><time>2026-03-22T09:55:18.344Z</time></trkpt><trkpt lat="43.4786517" lon="11.5670483"><ele>273.3333333333333</ele><time>2026-03-22T09:55:19.344Z</time></trkpt><trkpt lat="43.4786967" lon="11.5673333"><ele>273.66666666666663</ele><time>2026-03-22T09:55:20.344Z</time></trkpt><trkpt lat="43.4787233" lon="11.567615"><ele>274.0</ele><time>2026-03-22T09:55:21.344Z</time></trkpt><trkpt lat="43.4787317" lon="11.5679267"><ele>274.0</ele><time>2026-03-22T09:55:22.343Z</time></trkpt><trkpt lat="43.4787183" lon="11.568225"><ele>274.0</ele><time>2026-03-22T09:55:23.344Z</time></trkpt><trkpt lat="43.4786967" lon="11.5685367"><ele>274.0</ele><time>2026-03-22T09:55:24.344Z</time></trkpt><trkpt lat="43.47868" lon="11.56883"><ele>273.3333333333333</ele><time>2026-03-22T09:55:25.344Z</time></trkpt><trkpt lat="43.4786683" lon="11.5691367"><ele>272.6666666666667</ele><time>2026-03-22T09:55:26.343Z</time></trkpt><trkpt lat="43.4786583" lon="11.569435"><ele>272.0</ele><time>2026-03-22T09:55:27.344Z</time></trkpt><trkpt lat="43.4786383" lon="11.5697367"><ele>271.0</ele><time>2026-03-22T09:55:28.344Z</time></trkpt><trkpt lat="43.47862" lon="11.57005"><ele>270.0</ele><time>2026-03-22T09:55:29.344Z</time></trkpt><trkpt lat="43.47859" lon="11.5703567"><ele>270.0</ele><time>2026-03-22T09:55:30.344Z</time></trkpt><trkpt lat="43.47854" lon="11.570655"><ele>270.0</ele><time>2026-03-22T09:55:31.344Z</time></trkpt><trkpt lat="43.4784817" lon="11.5709617"><ele>268.0</ele><time>2026-03-22T09:55:32.344Z</time></trkpt><trkpt lat="43.4784083" lon="11.57126"><ele>266.0</ele><time>2026-03-22T09:55:33.343Z</time></trkpt><trkpt lat="43.4783233" lon="11.5715517"><ele>266.0</ele><time>2026-03-22T09:55:34.344Z</time></trkpt><trkpt lat="43.478225" lon="11.5718267"><ele>266.0</ele><time>2026-03-22T09:55:35.344Z</time></trkpt><trkpt lat="43.47812" lon="11.5721067"><ele>266.0</ele><time>2026-03-22T09:55:36.344Z</time></trkpt><trkpt lat="43.4780133" lon="11.5723917"><ele>266.0</ele><time>2026-03-22T09:55:37.344Z</time></trkpt><trkpt lat="43.47792" lon="11.5726767"><ele>266.0</ele><time>2026-03-22T09:55:38.343Z</time></trkpt><trkpt lat="43.4778167" lon="11.572945"><ele>266.0</ele><time>2026-03-22T09:55:39.344Z</time></trkpt><trkpt lat="43.477715" lon="11.5732167"><ele>266.0</ele><time>2026-03-22T09:55:40.344Z</time></trkpt><trkpt lat="43.4776183" lon="11.5735"><ele>266.0</ele><time>2026-03-22T09:55:41.343Z</time></trkpt><trkpt lat="43.4775383" lon="11.573795"><ele>266.0</ele><time>2026-03-22T09:55:42.344Z</time></trkpt><trkpt lat="43.4774717" lon="11.574095"><ele>266.0</ele><time>2026-03-22T09:55:43.344Z</time></trkpt><trkpt lat="43.47743" lon="11.574385"><ele>266.0</ele><time>2026-03-22T09:55:44.344Z</time></trkpt><trkpt lat="43.4774183" lon="11.574675"><ele>266.0</ele><time>2026-03-22T09:55:45.343Z</time></trkpt><trkpt lat="43.4774283" lon="11.5749567"><ele>266.0</ele><time>2026-03-22T09:55:46.344Z</time></trkpt><trkpt lat="43.4774417" lon="11.57524"><ele>266.0</ele><time>2026-03-22T09:55:47.344Z</time></trkpt><trkpt lat="43.4774517" lon="11.5755283"><ele>266.0</ele><time>2026-03-22T09:55:48.344Z</time></trkpt><trkpt lat="43.477465" lon="11.5758067"><ele>267.0</ele><time>2026-03-22T09:55:49.344Z</time></trkpt><trkpt lat="43.477475" lon="11.576095"><ele>268.0</ele><time>2026-03-22T09:55:50.344Z</time></trkpt><trkpt lat="43.4774733" lon="11.5763683"><ele>269.0</ele><time>2026-03-22T09:55:51.344Z</time></trkpt><trkpt lat="43.477465" lon="11.57664"><ele>269.33333333333337</ele><time>2026-03-22T09:55:52.344Z</time></trkpt><trkpt lat="43.477435" lon="11.5768717"><ele>269.6666666666667</ele><time>2026-03-22T09:55:53.344Z</time></trkpt><trkpt lat="43.477395" lon="11.5771083"><ele>270.0</ele><time>2026-03-22T09:55:54.344Z</time></trkpt><trkpt lat="43.4773433" lon="11.5773317"><ele>270.0</ele><time>2026-03-22T09:55:55.344Z</time></trkpt><trkpt lat="43.4772933" lon="11.5775467"><ele>270.0</ele><time>2026-03-22T09:55:56.344Z</time></trkpt><trkpt lat="43.4772333" lon="11.5777783"><ele>270.0</ele><time>2026-03-22T09:55:57.344Z</time></trkpt><trkpt lat="43.4771467" lon="11.5780183"><ele>270.0</ele><time>2026-03-22T09:55:58.344Z</time></trkpt><trkpt lat="43.4770433" lon="11.5782867"><ele>270.0</ele><time>2026-03-22T09:55:59.344Z</time></trkpt><trkpt lat="43.47692" lon="11.57855"><ele>270.0</ele><time>2026-03-22T09:56:00.344Z</time></trkpt><trkpt lat="43.476785" lon="11.57881"><ele>269.0</ele><time>2026-03-22T09:56:01.343Z</time></trkpt><trkpt lat="43.4766617" lon="11.57907"><ele>268.0</ele><time>2026-03-22T09:56:02.344Z</time></trkpt><trkpt lat="43.4765267" lon="11.5793433"><ele>268.5</ele><time>2026-03-22T09:56:03.343Z</time></trkpt><trkpt lat="43.4764" lon="11.579615"><ele>269.0</ele><time>2026-03-22T09:56:04.344Z</time></trkpt><trkpt lat="43.4762783" lon="11.57989"><ele>269.0</ele><time>2026-03-22T09:56:05.344Z</time></trkpt><trkpt lat="43.4761533" lon="11.5801633"><ele>269.0</ele><time>2026-03-22T09:56:06.343Z</time></trkpt><trkpt lat="43.4760267" lon="11.5804267"><ele>269.0</ele><time>2026-03-22T09:56:07.344Z</time></trkpt><trkpt lat="43.475905" lon="11.5806883"><ele>269.0</ele><time>2026-03-22T09:56:08.344Z</time></trkpt><trkpt lat="43.4757917" lon="11.5809467"><ele>269.0</ele><time>2026-03-22T09:56:09.344Z</time></trkpt><trkpt lat="43.4756833" lon="11.5811867"><ele>268.33333333333337</ele><time>2026-03-22T09:56:10.344Z</time></trkpt><trkpt lat="43.475575" lon="11.581425"><ele>267.6666666666667</ele><time>2026-03-22T09:56:11.344Z</time></trkpt><trkpt lat="43.4754667" lon="11.58166"><ele>267.0</ele><time>2026-03-22T09:56:12.343Z</time></trkpt><trkpt lat="43.4753583" lon="11.5819033"><ele>268.3333333333333</ele><time>2026-03-22T09:56:13.344Z</time></trkpt><trkpt lat="43.47525" lon="11.5821467"><ele>269.66666666666663</ele><time>2026-03-22T09:56:14.344Z</time></trkpt><trkpt lat="43.4751367" lon="11.58238"><ele>271.0</ele><time>2026-03-22T09:56:15.344Z</time></trkpt><trkpt lat="43.4750283" lon="11.5826183"><ele>270.0</ele><time>2026-03-22T09:56:16.344Z</time></trkpt><trkpt lat="43.4749167" lon="11.5828633"><ele>269.0</ele><time>2026-03-22T09:56:17.343Z</time></trkpt><trkpt lat="43.4748083" lon="11.5831017"><ele>268.0</ele><time>2026-03-22T09:56:18.344Z</time></trkpt><trkpt lat="43.4747017" lon="11.5833383"><ele>268.3333333333333</ele><time>2026-03-22T09:56:19.344Z</time></trkpt><trkpt lat="43.474595" lon="11.5835733"><ele>268.6666666666667</ele><time>2026-03-22T09:56:20.344Z</time></trkpt><trkpt lat="43.4744933" lon="11.583795"><ele>269.0</ele><time>2026-03-22T09:56:21.343Z</time></trkpt><trkpt lat="43.4744" lon="11.5840033"><ele>269.0</ele><time>2026-03-22T09:56:22.344Z</time></trkpt><trkpt lat="43.474305" lon="11.584205"><ele>269.0</ele><time>2026-03-22T09:56:23.344Z</time></trkpt><trkpt lat="43.47422" lon="11.58439"><ele>269.0</ele><time>2026-03-22T09:56:24.344Z</time></trkpt><trkpt lat="43.4741533" lon="11.5845717"><ele>268.75</ele><time>2026-03-22T09:56:25.344Z</time></trkpt><trkpt lat="43.4740883" lon="11.5847567"><ele>268.5</ele><time>2026-03-22T09:56:26.344Z</time></trkpt><trkpt lat="43.4740333" lon="11.5849283"><ele>268.25</ele><time>2026-03-22T09:56:27.344Z</time></trkpt><trkpt lat="43.4739867" lon="11.5850833"><ele>268.0</ele><time>2026-03-22T09:56:28.343Z</time></trkpt><trkpt lat="43.4739367" lon="11.585215"><ele>268.0</ele><time>2026-03-22T09:56:29.344Z</time></trkpt><trkpt lat="43.4739017" lon="11.5853117"><ele>268.0</ele><time>2026-03-22T09:56:30.344Z</time></trkpt><trkpt lat="43.4738733" lon="11.5854017"><ele>268.0</ele><time>2026-03-22T09:56:31.344Z</time></trkpt><trkpt lat="43.4738167" lon="11.5854883"><ele>268.0</ele><time>2026-03-22T09:56:33.343Z</time></trkpt><trkpt lat="43.47374" lon="11.5854783"><ele>268.0</ele><time>2026-03-22T09:56:37.344Z</time></trkpt><trkpt lat="43.4738033" lon="11.585505"><ele>268.0</ele><time>2026-03-22T09:57:26.344Z</time></trkpt><trkpt lat="43.47386" lon="11.5854633"><ele>268.0</ele><time>2026-03-22T09:57:28.344Z</time></trkpt><trkpt lat="43.473905" lon="11.5853617"><ele>268.0</ele><time>2026-03-22T09:57:30.344Z</time></trkpt><trkpt lat="43.4739583" lon="11.5852"><ele>268.0</ele><time>2026-03-22T09:57:32.344Z</time></trkpt><trkpt lat="43.4739867" lon="11.5850917"><ele>268.0</ele><time>2026-03-22T09:57:33.343Z</time></trkpt><trkpt lat="43.474025" lon="11.5849867"><ele>268.0</ele><time>2026-03-22T09:57:34.344Z</time></trkpt><trkpt lat="43.47407" lon="11.58487"><ele>268.0</ele><time>2026-03-22T09:57:35.344Z</time></trkpt><trkpt lat="43.4741133" lon="11.5847383"><ele>268.0</ele><time>2026-03-22T09:57:36.344Z</time></trkpt><trkpt lat="43.4741617" lon="11.5845983"><ele>268.0</ele><time>2026-03-22T09:57:37.344Z</time></trkpt><trkpt lat="43.4742133" lon="11.5844633"><ele>268.0</ele><time>2026-03-22T09:57:38.343Z</time></trkpt><trkpt lat="43.4742767" lon="11.5843233"><ele>268.0</ele><time>2026-03-22T09:57:39.344Z</time></trkpt><trkpt lat="43.474345" lon="11.58417"><ele>268.0</ele><time>2026-03-22T09:57:40.344Z</time></trkpt><trkpt lat="43.474415" lon="11.5840033"><ele>268.0</ele><time>2026-03-22T09:57:41.344Z</time></trkpt><trkpt lat="43.47449" lon="11.5838417"><ele>268.0</ele><time>2026-03-22T09:57:42.344Z</time></trkpt><trkpt lat="43.4745683" lon="11.58368"><ele>268.0</ele><time>2026-03-22T09:57:43.344Z</time></trkpt><trkpt lat="43.4746467" lon="11.583515"><ele>268.0</ele><time>2026-03-22T09:57:44.344Z</time></trkpt><trkpt lat="43.4747267" lon="11.583335"><ele>268.0</ele><time>2026-03-22T09:57:45.344Z</time></trkpt><trkpt lat="43.474815" lon="11.5831533"><ele>268.0</ele><time>2026-03-22T09:57:46.344Z</time></trkpt><trkpt lat="43.4749" lon="11.58297"><ele>269.0</ele><time>2026-03-22T09:57:47.343Z</time></trkpt><trkpt lat="43.47499" lon="11.5827783"><ele>270.0</ele><time>2026-03-22T09:57:48.343Z</time></trkpt><trkpt lat="43.4750767" lon="11.5825933"><ele>271.0</ele><time>2026-03-22T09:57:49.343Z</time></trkpt><trkpt lat="43.4751633" lon="11.5823933"><ele>271.0</ele><time>2026-03-22T09:57:50.344Z</time></trkpt><trkpt lat="43.4752533" lon="11.5821917"><ele>271.0</ele><time>2026-03-22T09:57:51.344Z</time></trkpt><trkpt lat="43.4753433" lon="11.5819967"><ele>271.0</ele><time>2026-03-22T09:57:52.343Z</time></trkpt><trkpt lat="43.4754333" lon="11.5818"><ele>269.66666666666663</ele><time>2026-03-22T09:57:53.344Z</time></trkpt><trkpt lat="43.4755183" lon="11.5816117"><ele>268.3333333333333</ele><time>2026-03-22T09:57:54.344Z</time></trkpt><trkpt lat="43.4755983" lon="11.58143"><ele>267.0</ele><time>2026-03-22T09:57:55.344Z</time></trkpt><trkpt lat="43.4756683" lon="11.58127"><ele>267.5</ele><time>2026-03-22T09:57:56.344Z</time></trkpt><trkpt lat="43.4757433" lon="11.5811133"><ele>268.0</ele><time>2026-03-22T09:57:57.343Z</time></trkpt><trkpt lat="43.4758117" lon="11.5809617"><ele>268.5</ele><time>2026-03-22T09:57:58.344Z</time></trkpt><trkpt lat="43.475875" lon="11.580815"><ele>269.0</ele><time>2026-03-22T09:57:59.343Z</time></trkpt><trkpt lat="43.4759383" lon="11.5806817"><ele>269.0</ele><time>2026-03-22T09:58:00.344Z</time></trkpt><trkpt lat="43.4760017" lon="11.5805517"><ele>269.0</ele><time>2026-03-22T09:58:01.343Z</time></trkpt><trkpt lat="43.476055" lon="11.58044"><ele>269.0</ele><time>2026-03-22T09:58:02.343Z</time></trkpt><trkpt lat="43.4760867" lon="11.5803483"><ele>269.0</ele><time>2026-03-22T09:58:03.344Z</time></trkpt><trkpt lat="43.4760917" lon="11.580245"><ele>269.0</ele><time>2026-03-22T09:58:05.344Z</time></trkpt><trkpt lat="43.47602" lon="11.5802833"><ele>269.0</ele><time>2026-03-22T09:58:07.344Z</time></trkpt><trkpt lat="43.4759717" lon="11.580355"><ele>269.0</ele><time>2026-03-22T09:58:08.344Z</time></trkpt><trkpt lat="43.4759167" lon="11.58043"><ele>269.0</ele><time>2026-03-22T09:58:09.343Z</time></trkpt><trkpt lat="43.4758533" lon="11.580515"><ele>269.0</ele><time>2026-03-22T09:58:10.343Z</time></trkpt><trkpt lat="43.475785" lon="11.5806183"><ele>269.0</ele><time>2026-03-22T09:58:11.344Z</time></trkpt><trkpt lat="43.4757083" lon="11.580735"><ele>269.0</ele><time>2026-03-22T09:58:12.344Z</time></trkpt><trkpt lat="43.4756283" lon="11.5808783"><ele>269.0</ele><time>2026-03-22T09:58:13.344Z</time></trkpt><trkpt lat="43.4755433" lon="11.5810017"><ele>269.0</ele><time>2026-03-22T09:58:14.344Z</time></trkpt><trkpt lat="43.4754467" lon="11.5811267"><ele>269.0</ele><time>2026-03-22T09:58:15.344Z</time></trkpt><trkpt lat="43.4753467" lon="11.5812283"><ele>269.0</ele><time>2026-03-22T09:58:16.344Z</time></trkpt><trkpt lat="43.4752317" lon="11.5813283"><ele>270.5</ele><time>2026-03-22T09:58:17.344Z</time></trkpt><trkpt lat="43.475115" lon="11.5814133"><ele>272.0</ele><time>2026-03-22T09:58:18.344Z</time></trkpt><trkpt lat="43.474985" lon="11.581495"><ele>273.5</ele><time>2026-03-22T09:58:19.344Z</time></trkpt><trkpt lat="43.47485" lon="11.5815717"><ele>275.0</ele><time>2026-03-22T09:58:20.343Z</time></trkpt><trkpt lat="43.4747267" lon="11.5816617"><ele>276.0</ele><time>2026-03-22T09:58:21.344Z</time></trkpt><trkpt lat="43.4745967" lon="11.5817433"><ele>277.0</ele><time>2026-03-22T09:58:22.344Z</time></trkpt><trkpt lat="43.474475" lon="11.581815"><ele>278.0</ele><time>2026-03-22T09:58:23.344Z</time></trkpt><trkpt lat="43.4743633" lon="11.5818817"><ele>279.0</ele><time>2026-03-22T09:58:24.344Z</time></trkpt><trkpt lat="43.4742483" lon="11.5819283"><ele>279.0</ele><time>2026-03-22T09:58:25.343Z</time></trkpt><trkpt lat="43.4741533" lon="11.5819683"><ele>279.0</ele><time>2026-03-22T09:58:26.344Z</time></trkpt><trkpt lat="43.4740533" lon="11.5820083"><ele>279.0</ele><time>2026-03-22T09:58:27.343Z</time></trkpt><trkpt lat="43.4739367" lon="11.5820567"><ele>279.0</ele><time>2026-03-22T09:58:28.344Z</time></trkpt><trkpt lat="43.4738067" lon="11.5821217"><ele>278.5</ele><time>2026-03-22T09:58:29.344Z</time></trkpt><trkpt lat="43.47367" lon="11.5821883"><ele>278.0</ele><time>2026-03-22T09:58:30.344Z</time></trkpt><trkpt lat="43.4735367" lon="11.5822417"><ele>277.5</ele><time>2026-03-22T09:58:31.344Z</time></trkpt><trkpt lat="43.4734083" lon="11.58232"><ele>277.0</ele><time>2026-03-22T09:58:32.344Z</time></trkpt><trkpt lat="43.4732833" lon="11.5824233"><ele>277.0</ele><time>2026-03-22T09:58:33.344Z</time></trkpt><trkpt lat="43.473165" lon="11.5825317"><ele>277.0</ele><time>2026-03-22T09:58:34.344Z</time></trkpt><trkpt lat="43.4730583" lon="11.5826617"><ele>277.0</ele><time>2026-03-22T09:58:35.344Z</time></trkpt><trkpt lat="43.4729667" lon="11.5827967"><ele>277.0</ele><time>2026-03-22T09:58:36.344Z</time></trkpt><trkpt lat="43.4728717" lon="11.5829417"><ele>276.25</ele><time>2026-03-22T09:58:37.344Z</time></trkpt><trkpt lat="43.4727833" lon="11.5830867"><ele>275.5</ele><time>2026-03-22T09:58:38.344Z</time></trkpt><trkpt lat="43.472695" lon="11.583205"><ele>274.75</ele><time>2026-03-22T09:58:39.344Z</time></trkpt><trkpt lat="43.4725983" lon="11.5832867"><ele>274.0</ele><time>2026-03-22T09:58:40.344Z</time></trkpt><trkpt lat="43.472505" lon="11.5833283"><ele>274.0</ele><time>2026-03-22T09:58:41.344Z</time></trkpt><trkpt lat="43.4724" lon="11.583365"><ele>274.0</ele><time>2026-03-22T09:58:42.344Z</time></trkpt><trkpt lat="43.4722817" lon="11.5834183"><ele>274.0</ele><time>2026-03-22T09:58:43.344Z</time></trkpt><trkpt lat="43.4721783" lon="11.5834867"><ele>274.0</ele><time>2026-03-22T09:58:44.344Z</time></trkpt><trkpt lat="43.4721" lon="11.5835933"><ele>274.5</ele><time>2026-03-22T09:58:45.344Z</time></trkpt><trkpt lat="43.47205" lon="11.5837383"><ele>275.0</ele><time>2026-03-22T09:58:46.344Z</time></trkpt><trkpt lat="43.472005" lon="11.5839017"><ele>275.5</ele><time>2026-03-22T09:58:47.344Z</time></trkpt><trkpt lat="43.4719617" lon="11.5840767"><ele>276.0</ele><time>2026-03-22T09:58:48.344Z</time></trkpt><trkpt lat="43.4719133" lon="11.5842517"><ele>276.0</ele><time>2026-03-22T09:58:49.344Z</time></trkpt><trkpt lat="43.4718467" lon="11.58442"><ele>276.0</ele><time>2026-03-22T09:58:50.343Z</time></trkpt><trkpt lat="43.471755" lon="11.5845233"><ele>276.0</ele><time>2026-03-22T09:58:51.344Z</time></trkpt><trkpt lat="43.4716433" lon="11.5845867"><ele>276.0</ele><time>2026-03-22T09:58:52.344Z</time></trkpt><trkpt lat="43.4714933" lon="11.5846233"><ele>276.0</ele><time>2026-03-22T09:58:53.344Z</time></trkpt><trkpt lat="43.4713267" lon="11.584665"><ele>276.0</ele><time>2026-03-22T09:58:54.344Z</time></trkpt><trkpt lat="43.4711533" lon="11.584705"><ele>276.0</ele><time>2026-03-22T09:58:55.344Z</time></trkpt><trkpt lat="43.4709817" lon="11.5847617"><ele>276.0</ele><time>2026-03-22T09:58:56.344Z</time></trkpt><trkpt lat="43.4708167" lon="11.584825"><ele>276.0</ele><time>2026-03-22T09:58:57.344Z</time></trkpt><trkpt lat="43.4706517" lon="11.5849017"><ele>276.0</ele><time>2026-03-22T09:58:58.344Z</time></trkpt><trkpt lat="43.4704983" lon="11.5849733"><ele>276.5</ele><time>2026-03-22T09:58:59.344Z</time></trkpt><trkpt lat="43.4703633" lon="11.5850567"><ele>277.0</ele><time>2026-03-22T09:59:00.344Z</time></trkpt><trkpt lat="43.4702533" lon="11.5851467"><ele>277.5</ele><time>2026-03-22T09:59:01.343Z</time></trkpt><trkpt lat="43.47017" lon="11.585235"><ele>278.0</ele><time>2026-03-22T09:59:02.343Z</time></trkpt><trkpt lat="43.470095" lon="11.5852933"><ele>278.0</ele><time>2026-03-22T09:59:03.343Z</time></trkpt><trkpt lat="43.4700367" lon="11.5853467"><ele>278.0</ele><time>2026-03-22T09:59:04.343Z</time></trkpt><trkpt lat="43.4699517" lon="11.5853517"><ele>278.0</ele><time>2026-03-22T09:59:06.344Z</time></trkpt><trkpt lat="43.4698967" lon="11.5852483"><ele>278.0</ele><time>2026-03-22T09:59:08.344Z</time></trkpt><trkpt lat="43.46986" lon="11.5851167"><ele>278.0</ele><time>2026-03-22T09:59:10.344Z</time></trkpt><trkpt lat="43.4697933" lon="11.5849867"><ele>278.0</ele><time>2026-03-22T09:59:12.344Z</time></trkpt><trkpt lat="43.4697483" lon="11.5849"><ele>278.0</ele><time>2026-03-22T09:59:13.343Z</time></trkpt><trkpt lat="43.4696967" lon="11.584805"><ele>278.0</ele><time>2026-03-22T09:59:14.344Z</time></trkpt><trkpt lat="43.4696417" lon="11.584715"><ele>278.0</ele><time>2026-03-22T09:59:15.344Z</time></trkpt><trkpt lat="43.4695883" lon="11.584615"><ele>278.0</ele><time>2026-03-22T09:59:16.344Z</time></trkpt><trkpt lat="43.4695333" lon="11.5845083"><ele>278.0</ele><time>2026-03-22T09:59:17.344Z</time></trkpt><trkpt lat="43.4694783" lon="11.584395"><ele>280.6</ele><time>2026-03-22T09:59:18.344Z</time></trkpt><trkpt lat="43.46941" lon="11.5842783"><ele>283.20000000000005</ele><time>2026-03-22T09:59:19.344Z</time></trkpt><trkpt lat="43.4693417" lon="11.5841817"><ele>285.8</ele><time>2026-03-22T09:59:20.344Z</time></trkpt><trkpt lat="43.4692783" lon="11.58408"><ele>288.40000000000003</ele><time>2026-03-22T09:59:21.344Z</time></trkpt><trkpt lat="43.4692233" lon="11.5839633"><ele>291.0</ele><time>2026-03-22T09:59:22.344Z</time></trkpt><trkpt lat="43.4691733" lon="11.583845"><ele>291.0</ele><time>2026-03-22T09:59:23.344Z</time></trkpt><trkpt lat="43.469135" lon="11.58373"><ele>291.0</ele><time>2026-03-22T09:59:24.343Z</time></trkpt><trkpt lat="43.4691133" lon="11.583635"><ele>291.0</ele><time>2026-03-22T09:59:25.344Z</time></trkpt><trkpt lat="43.4691133" lon="11.5835417"><ele>291.0</ele><time>2026-03-22T09:59:26.344Z</time></trkpt><trkpt lat="43.4691267" lon="11.5834433"><ele>291.0</ele><time>2026-03-22T09:59:27.343Z</time></trkpt><trkpt lat="43.469145" lon="11.5833433"><ele>291.0</ele><time>2026-03-22T09:59:28.344Z</time></trkpt><trkpt lat="43.4691517" lon="11.5832183"><ele>292.3333333333333</ele><time>2026-03-22T09:59:29.344Z</time></trkpt><trkpt lat="43.4691417" lon="11.5830917"><ele>293.6666666666667</ele><time>2026-03-22T09:59:30.344Z</time></trkpt><trkpt lat="43.46913" lon="11.582985"><ele>295.0</ele><time>2026-03-22T09:59:31.344Z</time></trkpt><trkpt lat="43.4690833" lon="11.5828767"><ele>296.33333333333337</ele><time>2026-03-22T09:59:33.344Z</time></trkpt><trkpt lat="43.4689883" lon="11.5828967"><ele>297.6666666666667</ele><time>2026-03-22T09:59:35.344Z</time></trkpt><trkpt lat="43.468905" lon="11.5829133"><ele>299.0</ele><time>2026-03-22T09:59:37.344Z</time></trkpt><trkpt lat="43.4688533" lon="11.5828467"><ele>299.6666666666667</ele><time>2026-03-22T09:59:39.344Z</time></trkpt><trkpt lat="43.468805" lon="11.5827267"><ele>300.33333333333337</ele><time>2026-03-22T09:59:41.344Z</time></trkpt><trkpt lat="43.4687417" lon="11.58259"><ele>301.0</ele><time>2026-03-22T09:59:43.344Z</time></trkpt><trkpt lat="43.4687117" lon="11.5825117"><ele>301.6666666666667</ele><time>2026-03-22T09:59:44.344Z</time></trkpt><trkpt lat="43.46868" lon="11.582425"><ele>302.3333333333333</ele><time>2026-03-22T09:59:45.344Z</time></trkpt><trkpt lat="43.46864" lon="11.5823317"><ele>303.0</ele><time>2026-03-22T09:59:46.344Z</time></trkpt><trkpt lat="43.468595" lon="11.582235"><ele>304.8333333333333</ele><time>2026-03-22T09:59:47.344Z</time></trkpt><trkpt lat="43.4685483" lon="11.5821617"><ele>306.6666666666667</ele><time>2026-03-22T09:59:48.344Z</time></trkpt><trkpt lat="43.468495" lon="11.58209"><ele>308.5</ele><time>2026-03-22T09:59:49.344Z</time></trkpt><trkpt lat="43.4684433" lon="11.582025"><ele>310.33333333333337</ele><time>2026-03-22T09:59:50.344Z</time></trkpt><trkpt lat="43.4684" lon="11.5819567"><ele>312.1666666666667</ele><time>2026-03-22T09:59:51.344Z</time></trkpt><trkpt lat="43.468335" lon="11.5818433"><ele>314.0</ele><time>2026-03-22T09:59:53.345Z</time></trkpt><trkpt lat="43.4683083" lon="11.5817617"><ele>315.33333333333337</ele><time>2026-03-22T09:59:54.344Z</time></trkpt><trkpt lat="43.4682833" lon="11.5816667"><ele>316.6666666666667</ele><time>2026-03-22T09:59:55.345Z</time></trkpt><trkpt lat="43.4682583" lon="11.5815817"><ele>318.0</ele><time>2026-03-22T09:59:56.345Z</time></trkpt><trkpt lat="43.4682183" lon="11.5814383"><ele>319.3333333333333</ele><time>2026-03-22T09:59:58.345Z</time></trkpt><trkpt lat="43.46818" lon="11.5813683"><ele>320.66666666666663</ele><time>2026-03-22T10:00:43.345Z</time></trkpt><trkpt lat="43.4681" lon="11.5813833"><ele>322.0</ele><time>2026-03-22T10:00:46.344Z</time></trkpt><trkpt lat="43.4680283" lon="11.5814333"><ele>324.0</ele><time>2026-03-22T10:00:48.345Z</time></trkpt><trkpt lat="43.467935" lon="11.5814983"><ele>326.0</ele><time>2026-03-22T10:00:50.345Z</time></trkpt><trkpt lat="43.4678367" lon="11.5815717"><ele>328.0</ele><time>2026-03-22T10:00:52.345Z</time></trkpt><trkpt lat="43.4677767" lon="11.5816117"><ele>330.0</ele><time>2026-03-22T10:00:53.345Z</time></trkpt><trkpt lat="43.4676767" lon="11.5816383"><ele>332.0</ele><time>2026-03-22T10:00:55.344Z</time></trkpt><trkpt lat="43.4676233" lon="11.5815883"><ele>334.0</ele><time>2026-03-22T10:00:57.345Z</time></trkpt><trkpt lat="43.4676167" lon="11.581455"><ele>334.0</ele><time>2026-03-22T10:01:00.345Z</time></trkpt><trkpt lat="43.467595" lon="11.5813417"><ele>334.0</ele><time>2026-03-22T10:01:02.345Z</time></trkpt><trkpt lat="43.46754" lon="11.5812183"><ele>334.0</ele><time>2026-03-22T10:01:04.345Z</time></trkpt><trkpt lat="43.467515" lon="11.581085"><ele>334.0</ele><time>2026-03-22T10:01:06.345Z</time></trkpt><trkpt lat="43.467515" lon="11.5809433"><ele>334.0</ele><time>2026-03-22T10:01:08.345Z</time></trkpt><trkpt lat="43.4674883" lon="11.5808417"><ele>335.66666666666663</ele><time>2026-03-22T10:01:10.344Z</time></trkpt><trkpt lat="43.467435" lon="11.5807767"><ele>337.3333333333333</ele><time>2026-03-22T10:01:12.345Z</time></trkpt><trkpt lat="43.4673533" lon="11.580785"><ele>339.0</ele><time>2026-03-22T10:01:15.345Z</time></trkpt><trkpt lat="43.46727" lon="11.580745"><ele>340.6666666666667</ele><time>2026-03-22T10:01:18.345Z</time></trkpt><trkpt lat="43.4671833" lon="11.5807417"><ele>342.33333333333337</ele><time>2026-03-22T10:01:20.344Z</time></trkpt><trkpt lat="43.4670967" lon="11.5807633"><ele>344.0</ele><time>2026-03-22T10:01:22.344Z</time></trkpt><trkpt lat="43.4670067" lon="11.5807467"><ele>345.79999999999995</ele><time>2026-03-22T10:01:24.345Z</time></trkpt><trkpt lat="43.4669317" lon="11.580675"><ele>347.59999999999997</ele><time>2026-03-22T10:01:26.344Z</time></trkpt><trkpt lat="43.4668433" lon="11.5805667"><ele>349.4</ele><time>2026-03-22T10:01:28.345Z</time></trkpt><trkpt lat="43.46679" lon="11.5804383"><ele>351.2</ele><time>2026-03-22T10:01:30.344Z</time></trkpt><trkpt lat="43.46677" lon="11.5802917"><ele>353.0</ele><time>2026-03-22T10:01:32.344Z</time></trkpt><trkpt lat="43.4667267" lon="11.58017"><ele>355.59999999999997</ele><time>2026-03-22T10:01:34.344Z</time></trkpt><trkpt lat="43.4666333" lon="11.5800733"><ele>358.2</ele><time>2026-03-22T10:01:36.345Z</time></trkpt><trkpt lat="43.466575" lon="11.5799383"><ele>360.8</ele><time>2026-03-22T10:01:38.344Z</time></trkpt><trkpt lat="43.466545" lon="11.5797917"><ele>363.4</ele><time>2026-03-22T10:01:40.345Z</time></trkpt><trkpt lat="43.4664967" lon="11.5797017"><ele>366.0</ele><time>2026-03-22T10:01:42.345Z</time></trkpt><trkpt lat="43.4663983" lon="11.5796483"><ele>366.0</ele><time>2026-03-22T10:01:44.345Z</time></trkpt><trkpt lat="43.4663467" lon="11.5795917"><ele>366.0</ele><time>2026-03-22T10:01:45.345Z</time></trkpt><trkpt lat="43.4663" lon="11.57953"><ele>366.0</ele><time>2026-03-22T10:01:46.345Z</time></trkpt><trkpt lat="43.466245" lon="11.5794833"><ele>366.0</ele><time>2026-03-22T10:01:47.345Z</time></trkpt><trkpt lat="43.4661883" lon="11.5794333"><ele>366.0</ele><time>2026-03-22T10:01:48.345Z</time></trkpt><trkpt lat="43.4661367" lon="11.579375"><ele>366.0</ele><time>2026-03-22T10:01:49.344Z</time></trkpt><trkpt lat="43.46607" lon="11.5792683"><ele>366.0</ele><time>2026-03-22T10:01:51.344Z</time></trkpt><trkpt lat="43.4660583" lon="11.579165"><ele>368.6</ele><time>2026-03-22T10:01:53.345Z</time></trkpt><trkpt lat="43.4660317" lon="11.5790383"><ele>371.20000000000005</ele><time>2026-03-22T10:01:55.344Z</time></trkpt><trkpt lat="43.4659833" lon="11.5789233"><ele>373.79999999999995</ele><time>2026-03-22T10:01:57.345Z</time></trkpt><trkpt lat="43.465935" lon="11.578795"><ele>376.4</ele><time>2026-03-22T10:01:59.345Z</time></trkpt><trkpt lat="43.4659133" lon="11.57866"><ele>379.0</ele><time>2026-03-22T10:02:01.345Z</time></trkpt><trkpt lat="43.4659133" lon="11.5785083"><ele>381.4</ele><time>2026-03-22T10:02:03.344Z</time></trkpt><trkpt lat="43.4659067" lon="11.578375"><ele>383.79999999999995</ele><time>2026-03-22T10:02:05.345Z</time></trkpt><trkpt lat="43.46593" lon="11.5782067"><ele>386.20000000000005</ele><time>2026-03-22T10:02:07.345Z</time></trkpt><trkpt lat="43.465955" lon="11.57811"><ele>388.6</ele><time>2026-03-22T10:02:08.345Z</time></trkpt><trkpt lat="43.4659917" lon="11.57801"><ele>391.0</ele><time>2026-03-22T10:02:09.345Z</time></trkpt><trkpt lat="43.4660467" lon="11.5779083"><ele>393.00000000000006</ele><time>2026-03-22T10:02:10.344Z</time></trkpt><trkpt lat="43.4660883" lon="11.5778083"><ele>395.0</ele><time>2026-03-22T10:02:11.345Z</time></trkpt><trkpt lat="43.4661133" lon="11.5777183"><ele>397.0</ele><time>2026-03-22T10:02:12.345Z</time></trkpt><trkpt lat="43.46613" lon="11.57762"><ele>399.0</ele><time>2026-03-22T10:02:13.344Z</time></trkpt><trkpt lat="43.4661417" lon="11.5775067"><ele>401.00000000000006</ele><time>2026-03-22T10:02:14.345Z</time></trkpt><trkpt lat="43.4661483" lon="11.5773867"><ele>403.0</ele><time>2026-03-22T10:02:15.345Z</time></trkpt><trkpt lat="43.4661617" lon="11.5772667"><ele>403.00000000000006</ele><time>2026-03-22T10:02:16.345Z</time></trkpt><trkpt lat="43.4661617" lon="11.5771567"><ele>403.0</ele><time>2026-03-22T10:02:17.345Z</time></trkpt><trkpt lat="43.46615" lon="11.5770583"><ele>403.0</ele><time>2026-03-22T10:02:18.345Z</time></trkpt><trkpt lat="43.4661283" lon="11.5769517"><ele>403.0</ele><time>2026-03-22T10:02:19.344Z</time></trkpt><trkpt lat="43.466105" lon="11.5768583"><ele>403.00000000000006</ele><time>2026-03-22T10:02:20.345Z</time></trkpt><trkpt lat="43.4660833" lon="11.5767683"><ele>403.0</ele><time>2026-03-22T10:02:21.345Z</time></trkpt><trkpt lat="43.46605" lon="11.5766683"><ele>404.2</ele><time>2026-03-22T10:02:22.345Z</time></trkpt><trkpt lat="43.4660067" lon="11.5765467"><ele>405.4</ele><time>2026-03-22T10:02:23.345Z</time></trkpt><trkpt lat="43.4659583" lon="11.5764217"><ele>406.59999999999997</ele><time>2026-03-22T10:02:24.345Z</time></trkpt><trkpt lat="43.4659117" lon="11.5762867"><ele>407.79999999999995</ele><time>2026-03-22T10:02:25.345Z</time></trkpt><trkpt lat="43.4658617" lon="11.5761517"><ele>409.0</ele><time>2026-03-22T10:02:26.345Z</time></trkpt><trkpt lat="43.465805" lon="11.5760067"><ele>409.0</ele><time>2026-03-22T10:02:27.345Z</time></trkpt><trkpt lat="43.46575" lon="11.57585"><ele>409.0</ele><time>2026-03-22T10:02:28.344Z</time></trkpt><trkpt lat="43.46569" lon="11.5757"><ele>409.0</ele><time>2026-03-22T10:02:29.345Z</time></trkpt><trkpt lat="43.46563" lon="11.5755717"><ele>409.0</ele><time>2026-03-22T10:02:30.345Z</time></trkpt><trkpt lat="43.4655583" lon="11.575445"><ele>410.6</ele><time>2026-03-22T10:02:31.345Z</time></trkpt><trkpt lat="43.4654917" lon="11.575325"><ele>412.2</ele><time>2026-03-22T10:02:32.344Z</time></trkpt><trkpt lat="43.4654383" lon="11.5752317"><ele>413.8</ele><time>2026-03-22T10:02:33.345Z</time></trkpt><trkpt lat="43.4653767" lon="11.5751383"><ele>415.40000000000003</ele><time>2026-03-22T10:02:35.344Z</time></trkpt><trkpt lat="43.4653333" lon="11.5749717"><ele>417.0</ele><time>2026-03-22T10:03:46.344Z</time></trkpt><trkpt lat="43.4652917" lon="11.57485"><ele>417.0</ele><time>2026-03-22T10:03:47.345Z</time></trkpt><trkpt lat="43.46525" lon="11.5747333"><ele>417.0</ele><time>2026-03-22T10:03:48.345Z</time></trkpt><trkpt lat="43.4652033" lon="11.57462"><ele>417.0</ele><time>2026-03-22T10:03:49.345Z</time></trkpt><trkpt lat="43.46516" lon="11.5744967"><ele>417.0</ele><time>2026-03-22T10:03:50.344Z</time></trkpt><trkpt lat="43.4651283" lon="11.5743767"><ele>417.0</ele><time>2026-03-22T10:03:51.345Z</time></trkpt><trkpt lat="43.4650967" lon="11.574255"><ele>417.0</ele><time>2026-03-22T10:03:52.345Z</time></trkpt><trkpt lat="43.4650733" lon="11.57412"><ele>417.0</ele><time>2026-03-22T10:03:53.345Z</time></trkpt><trkpt lat="43.46505" lon="11.5739717"><ele>417.0</ele><time>2026-03-22T10:03:54.345Z</time></trkpt><trkpt lat="43.4650233" lon="11.5738333"><ele>417.0</ele><time>2026-03-22T10:03:55.345Z</time></trkpt><trkpt lat="43.4649967" lon="11.57371"><ele>417.0</ele><time>2026-03-22T10:03:56.345Z</time></trkpt><trkpt lat="43.464985" lon="11.5735967"><ele>417.0</ele><time>2026-03-22T10:03:57.344Z</time></trkpt><trkpt lat="43.4649817" lon="11.573495"><ele>417.0</ele><time>2026-03-22T10:03:58.344Z</time></trkpt><trkpt lat="43.46502" lon="11.57336"><ele>417.0</ele><time>2026-03-22T10:04:00.345Z</time></trkpt><trkpt lat="43.4651633" lon="11.5733083"><ele>417.0</ele><time>2026-03-22T10:04:02.345Z</time></trkpt><trkpt lat="43.4652917" lon="11.5732883"><ele>417.0</ele><time>2026-03-22T10:04:03.345Z</time></trkpt><trkpt lat="43.4654367" lon="11.5732833"><ele>417.0</ele><time>2026-03-22T10:04:04.345Z</time></trkpt><trkpt lat="43.465595" lon="11.5732717"><ele>417.0</ele><time>2026-03-22T10:04:05.344Z</time></trkpt><trkpt lat="43.4657467" lon="11.573275"><ele>415.25</ele><time>2026-03-22T10:04:06.345Z</time></trkpt><trkpt lat="43.4658917" lon="11.5732667"><ele>413.5</ele><time>2026-03-22T10:04:07.344Z</time></trkpt><trkpt lat="43.4660117" lon="11.57327"><ele>411.75</ele><time>2026-03-22T10:04:08.345Z</time></trkpt><trkpt lat="43.4661233" lon="11.57328"><ele>410.0</ele><time>2026-03-22T10:04:09.345Z</time></trkpt><trkpt lat="43.46622" lon="11.5732867"><ele>409.99999999999994</ele><time>2026-03-22T10:04:10.345Z</time></trkpt><trkpt lat="43.46629" lon="11.573285"><ele>410.0</ele><time>2026-03-22T10:04:11.345Z</time></trkpt><trkpt lat="43.466355" lon="11.5732467"><ele>410.0</ele><time>2026-03-22T10:04:12.344Z</time></trkpt><trkpt lat="43.466415" lon="11.573155"><ele>410.0</ele><time>2026-03-22T10:04:14.345Z</time></trkpt><trkpt lat="43.466365" lon="11.5730717"><ele>409.99999999999994</ele><time>2026-03-22T10:04:17.345Z</time></trkpt><trkpt lat="43.46626" lon="11.57303"><ele>410.0</ele><time>2026-03-22T10:04:19.345Z</time></trkpt><trkpt lat="43.4661983" lon="11.5729867"><ele>410.0</ele><time>2026-03-22T10:04:20.345Z</time></trkpt><trkpt lat="43.466135" lon="11.5729217"><ele>410.0</ele><time>2026-03-22T10:04:21.345Z</time></trkpt><trkpt lat="43.46607" lon="11.5728417"><ele>410.0</ele><time>2026-03-22T10:04:22.345Z</time></trkpt><trkpt lat="43.466005" lon="11.5727583"><ele>410.0</ele><time>2026-03-22T10:04:23.345Z</time></trkpt><trkpt lat="43.4659367" lon="11.5726567"><ele>410.0</ele><time>2026-03-22T10:04:24.344Z</time></trkpt><trkpt lat="43.4658667" lon="11.57255"><ele>412.2</ele><time>2026-03-22T10:04:25.345Z</time></trkpt><trkpt lat="43.4658017" lon="11.5724467"><ele>414.4</ele><time>2026-03-22T10:04:26.345Z</time></trkpt><trkpt lat="43.46574" lon="11.5723433"><ele>416.6</ele><time>2026-03-22T10:04:27.345Z</time></trkpt><trkpt lat="43.4656733" lon="11.57226"><ele>418.8</ele><time>2026-03-22T10:04:28.344Z</time></trkpt><trkpt lat="43.465595" lon="11.5722067"><ele>421.0</ele><time>2026-03-22T10:04:29.345Z</time></trkpt><trkpt lat="43.4655083" lon="11.572155"><ele>422.20000000000005</ele><time>2026-03-22T10:04:30.344Z</time></trkpt><trkpt lat="43.4654167" lon="11.5721067"><ele>423.40000000000003</ele><time>2026-03-22T10:04:31.345Z</time></trkpt><trkpt lat="43.4653183" lon="11.5720533"><ele>424.6</ele><time>2026-03-22T10:04:32.345Z</time></trkpt><trkpt lat="43.4652233" lon="11.572005"><ele>425.8</ele><time>2026-03-22T10:04:33.345Z</time></trkpt><trkpt lat="43.465125" lon="11.5719683"><ele>427.0</ele><time>2026-03-22T10:04:34.345Z</time></trkpt><trkpt lat="43.4650367" lon="11.571955"><ele>427.00000000000006</ele><time>2026-03-22T10:04:35.344Z</time></trkpt><trkpt lat="43.4649517" lon="11.5719767"><ele>427.0</ele><time>2026-03-22T10:04:36.345Z</time></trkpt><trkpt lat="43.4648633" lon="11.5720117"><ele>427.0</ele><time>2026-03-22T10:04:37.345Z</time></trkpt><trkpt lat="43.4647767" lon="11.57205"><ele>427.0</ele><time>2026-03-22T10:04:38.345Z</time></trkpt><trkpt lat="43.4646933" lon="11.5720717"><ele>427.00000000000006</ele><time>2026-03-22T10:04:39.344Z</time></trkpt><trkpt lat="43.4646233" lon="11.5720883"><ele>427.0</ele><time>2026-03-22T10:04:40.345Z</time></trkpt><trkpt lat="43.46453" lon="11.5721433"><ele>429.1666666666667</ele><time>2026-03-22T10:04:42.345Z</time></trkpt><trkpt lat="43.4644517" lon="11.5722433"><ele>431.33333333333337</ele><time>2026-03-22T10:04:44.345Z</time></trkpt><trkpt lat="43.4644033" lon="11.5723083"><ele>433.5</ele><time>2026-03-22T10:04:45.345Z</time></trkpt><trkpt lat="43.46435" lon="11.57238"><ele>435.66666666666663</ele><time>2026-03-22T10:04:46.345Z</time></trkpt><trkpt lat="43.4643017" lon="11.5724467"><ele>437.8333333333333</ele><time>2026-03-22T10:04:47.345Z</time></trkpt><trkpt lat="43.46425" lon="11.5725117"><ele>440.0</ele><time>2026-03-22T10:04:48.345Z</time></trkpt><trkpt lat="43.4641883" lon="11.5725733"><ele>439.99999999999994</ele><time>2026-03-22T10:04:49.345Z</time></trkpt><trkpt lat="43.464135" lon="11.5726333"><ele>440.0</ele><time>2026-03-22T10:04:50.344Z</time></trkpt><trkpt lat="43.4640867" lon="11.5726967"><ele>440.0</ele><time>2026-03-22T10:04:51.344Z</time></trkpt><trkpt lat="43.46404" lon="11.5727767"><ele>440.0</ele><time>2026-03-22T10:04:52.345Z</time></trkpt><trkpt lat="43.4639933" lon="11.5728633"><ele>440.0</ele><time>2026-03-22T10:04:53.344Z</time></trkpt><trkpt lat="43.4639483" lon="11.5729433"><ele>439.99999999999994</ele><time>2026-03-22T10:04:54.345Z</time></trkpt><trkpt lat="43.463895" lon="11.5730283"><ele>440.0</ele><time>2026-03-22T10:04:55.345Z</time></trkpt><trkpt lat="43.4638433" lon="11.5731067"><ele>438.8</ele><time>2026-03-22T10:04:56.345Z</time></trkpt><trkpt lat="43.4637883" lon="11.5731867"><ele>437.6</ele><time>2026-03-22T10:04:57.345Z</time></trkpt><trkpt lat="43.4637433" lon="11.5732517"><ele>436.4</ele><time>2026-03-22T10:04:58.345Z</time></trkpt><trkpt lat="43.463685" lon="11.5733533"><ele>435.2</ele><time>2026-03-22T10:05:00.344Z</time></trkpt><trkpt lat="43.4636717" lon="11.5734617"><ele>434.0</ele><time>2026-03-22T10:05:02.345Z</time></trkpt><trkpt lat="43.4636933" lon="11.5736433"><ele>435.16666666666663</ele><time>2026-03-22T10:05:04.345Z</time></trkpt><trkpt lat="43.4637167" lon="11.5737433"><ele>436.3333333333333</ele><time>2026-03-22T10:05:05.345Z</time></trkpt><trkpt lat="43.463745" lon="11.5738317"><ele>437.5</ele><time>2026-03-22T10:05:06.345Z</time></trkpt><trkpt lat="43.46377" lon="11.5739667"><ele>438.66666666666663</ele><time>2026-03-22T10:05:08.345Z</time></trkpt><trkpt lat="43.46371" lon="11.5740017"><ele>439.8333333333333</ele><time>2026-03-22T10:05:11.344Z</time></trkpt><trkpt lat="43.4636133" lon="11.5739533"><ele>441.0</ele><time>2026-03-22T10:05:13.345Z</time></trkpt><trkpt lat="43.4635367" lon="11.573925"><ele>441.0</ele><time>2026-03-22T10:05:14.344Z</time></trkpt><trkpt lat="43.4634467" lon="11.57391"><ele>441.0</ele><time>2026-03-22T10:05:15.344Z</time></trkpt><trkpt lat="43.4633667" lon="11.5739117"><ele>441.0</ele><time>2026-03-22T10:05:16.344Z</time></trkpt><trkpt lat="43.4632967" lon="11.5739333"><ele>441.0</ele><time>2026-03-22T10:05:17.345Z</time></trkpt><trkpt lat="43.4632317" lon="11.573985"><ele>441.0</ele><time>2026-03-22T10:05:18.345Z</time></trkpt><trkpt lat="43.4631617" lon="11.5740383"><ele>441.0</ele><time>2026-03-22T10:05:19.345Z</time></trkpt><trkpt lat="43.4630833" lon="11.5741033"><ele>441.0</ele><time>2026-03-22T10:05:20.345Z</time></trkpt><trkpt lat="43.4630033" lon="11.574175"><ele>441.0</ele><time>2026-03-22T10:05:21.344Z</time></trkpt><trkpt lat="43.46293" lon="11.574235"><ele>441.0</ele><time>2026-03-22T10:05:22.345Z</time></trkpt><trkpt lat="43.46287" lon="11.5742933"><ele>441.0</ele><time>2026-03-22T10:05:23.344Z</time></trkpt><trkpt lat="43.4627733" lon="11.5744117"><ele>441.0</ele><time>2026-03-22T10:05:25.345Z</time></trkpt><trkpt lat="43.462675" lon="11.5744817"><ele>442.2857142857143</ele><time>2026-03-22T10:05:27.345Z</time></trkpt><trkpt lat="43.4626133" lon="11.5745033"><ele>443.57142857142856</ele><time>2026-03-22T10:05:28.345Z</time></trkpt><trkpt lat="43.4625467" lon="11.5745133"><ele>444.8571428571429</ele><time>2026-03-22T10:05:29.345Z</time></trkpt><trkpt lat="43.4624683" lon="11.5745167"><ele>446.14285714285717</ele><time>2026-03-22T10:05:30.345Z</time></trkpt><trkpt lat="43.4623883" lon="11.5745117"><ele>447.42857142857144</ele><time>2026-03-22T10:05:31.345Z</time></trkpt><trkpt lat="43.4623283" lon="11.574485"><ele>448.7142857142858</ele><time>2026-03-22T10:05:32.345Z</time></trkpt><trkpt lat="43.4622783" lon="11.5744233"><ele>450.00000000000006</ele><time>2026-03-22T10:05:33.345Z</time></trkpt><trkpt lat="43.4622283" lon="11.5743417"><ele>450.0</ele><time>2026-03-22T10:05:34.344Z</time></trkpt><trkpt lat="43.4621667" lon="11.5742417"><ele>450.0</ele><time>2026-03-22T10:05:35.345Z</time></trkpt><trkpt lat="43.4621" lon="11.57415"><ele>450.0</ele><time>2026-03-22T10:05:36.345Z</time></trkpt><trkpt lat="43.4620317" lon="11.5740717"><ele>450.0</ele><time>2026-03-22T10:05:37.345Z</time></trkpt><trkpt lat="43.4619783" lon="11.5740167"><ele>450.0</ele><time>2026-03-22T10:05:38.344Z</time></trkpt><trkpt lat="43.46194" lon="11.57394"><ele>450.0</ele><time>2026-03-22T10:05:39.344Z</time></trkpt><trkpt lat="43.4618933" lon="11.5738483"><ele>450.1666666666667</ele><time>2026-03-22T10:05:40.345Z</time></trkpt><trkpt lat="43.4618617" lon="11.5737583"><ele>450.33333333333337</ele><time>2026-03-22T10:05:41.345Z</time></trkpt><trkpt lat="43.4618067" lon="11.5736267"><ele>450.5</ele><time>2026-03-22T10:05:43.345Z</time></trkpt><trkpt lat="43.4617317" lon="11.5736"><ele>450.6666666666667</ele><time>2026-03-22T10:05:45.345Z</time></trkpt><trkpt lat="43.4616283" lon="11.5736633"><ele>450.83333333333337</ele><time>2026-03-22T10:05:47.345Z</time></trkpt><trkpt lat="43.4615683" lon="11.573705"><ele>451.0</ele><time>2026-03-22T10:05:48.345Z</time></trkpt><trkpt lat="43.461475" lon="11.573785"><ele>449.8</ele><time>2026-03-22T10:05:50.345Z</time></trkpt><trkpt lat="43.46137" lon="11.5738817"><ele>448.6</ele><time>2026-03-22T10:05:52.345Z</time></trkpt><trkpt lat="43.4613167" lon="11.5739417"><ele>447.4</ele><time>2026-03-22T10:05:53.345Z</time></trkpt><trkpt lat="43.4612683" lon="11.5740133"><ele>446.2</ele><time>2026-03-22T10:05:54.345Z</time></trkpt><trkpt lat="43.46116" lon="11.574075"><ele>445.0</ele><time>2026-03-22T10:05:56.344Z</time></trkpt><trkpt lat="43.4610967" lon="11.5741017"><ele>443.50000000000006</ele><time>2026-03-22T10:05:57.345Z</time></trkpt><trkpt lat="43.4610183" lon="11.5741983"><ele>442.0</ele><time>2026-03-22T10:05:59.344Z</time></trkpt><trkpt lat="43.4609867" lon="11.5742817"><ele>440.5</ele><time>2026-03-22T10:06:00.345Z</time></trkpt><trkpt lat="43.460945" lon="11.5743633"><ele>439.0</ele><time>2026-03-22T10:06:01.344Z</time></trkpt><trkpt lat="43.4608767" lon="11.57444"><ele>437.50000000000006</ele><time>2026-03-22T10:06:03.345Z</time></trkpt><trkpt lat="43.460775" lon="11.57445"><ele>436.0</ele><time>2026-03-22T10:06:05.345Z</time></trkpt><trkpt lat="43.4606533" lon="11.5744817"><ele>436.0</ele><time>2026-03-22T10:06:07.345Z</time></trkpt><trkpt lat="43.4605767" lon="11.5744933"><ele>436.0</ele><time>2026-03-22T10:06:08.345Z</time></trkpt><trkpt lat="43.4604817" lon="11.5744917"><ele>436.0</ele><time>2026-03-22T10:06:09.345Z</time></trkpt><trkpt lat="43.4603867" lon="11.5745067"><ele>436.0</ele><time>2026-03-22T10:06:10.345Z</time></trkpt><trkpt lat="43.46028" lon="11.5745167"><ele>436.0</ele><time>2026-03-22T10:06:11.344Z</time></trkpt><trkpt lat="43.46017" lon="11.5745283"><ele>436.0</ele><time>2026-03-22T10:06:12.344Z</time></trkpt><trkpt lat="43.4600633" lon="11.57454"><ele>436.0</ele><time>2026-03-22T10:06:13.345Z</time></trkpt><trkpt lat="43.4599717" lon="11.5745567"><ele>436.0</ele><time>2026-03-22T10:06:14.345Z</time></trkpt><trkpt lat="43.459885" lon="11.57459"><ele>436.0</ele><time>2026-03-22T10:06:15.345Z</time></trkpt><trkpt lat="43.4598017" lon="11.5746383"><ele>436.0</ele><time>2026-03-22T10:06:16.345Z</time></trkpt><trkpt lat="43.4597333" lon="11.5746883"><ele>436.0</ele><time>2026-03-22T10:06:17.345Z</time></trkpt><trkpt lat="43.4596483" lon="11.5747433"><ele>436.0</ele><time>2026-03-22T10:06:19.345Z</time></trkpt><trkpt lat="43.459585" lon="11.5748133"><ele>436.0</ele><time>2026-03-22T10:06:22.345Z</time></trkpt><trkpt lat="43.4594667" lon="11.5748983"><ele>436.0</ele><time>2026-03-22T10:06:24.345Z</time></trkpt><trkpt lat="43.4593917" lon="11.57492"><ele>436.0</ele><time>2026-03-22T10:06:25.345Z</time></trkpt><trkpt lat="43.4593083" lon="11.57493"><ele>437.6666666666667</ele><time>2026-03-22T10:06:26.345Z</time></trkpt><trkpt lat="43.459225" lon="11.57492"><ele>439.33333333333337</ele><time>2026-03-22T10:06:27.345Z</time></trkpt><trkpt lat="43.4591483" lon="11.574915"><ele>441.0</ele><time>2026-03-22T10:06:28.345Z</time></trkpt><trkpt lat="43.4590633" lon="11.57491"><ele>442.66666666666663</ele><time>2026-03-22T10:06:29.344Z</time></trkpt><trkpt lat="43.4589817" lon="11.5749017"><ele>444.3333333333333</ele><time>2026-03-22T10:06:30.344Z</time></trkpt><trkpt lat="43.4588867" lon="11.5748867"><ele>446.0</ele><time>2026-03-22T10:06:31.345Z</time></trkpt><trkpt lat="43.4587933" lon="11.57487"><ele>447.16666666666663</ele><time>2026-03-22T10:06:32.345Z</time></trkpt><trkpt lat="43.458705" lon="11.5748533"><ele>448.3333333333333</ele><time>2026-03-22T10:06:33.345Z</time></trkpt><trkpt lat="43.458625" lon="11.5748267"><ele>449.5</ele><time>2026-03-22T10:06:34.344Z</time></trkpt><trkpt lat="43.45855" lon="11.5747967"><ele>450.66666666666663</ele><time>2026-03-22T10:06:35.345Z</time></trkpt><trkpt lat="43.4584867" lon="11.574765"><ele>451.8333333333333</ele><time>2026-03-22T10:06:36.345Z</time></trkpt><trkpt lat="43.45837" lon="11.57473"><ele>453.0</ele><time>2026-03-22T10:06:38.345Z</time></trkpt><trkpt lat="43.45827" lon="11.5748017"><ele>452.99999999999994</ele><time>2026-03-22T10:06:40.345Z</time></trkpt><trkpt lat="43.4582267" lon="11.5748683"><ele>453.0</ele><time>2026-03-22T10:06:41.345Z</time></trkpt><trkpt lat="43.4581983" lon="11.57495"><ele>452.99999999999994</ele><time>2026-03-22T10:06:42.345Z</time></trkpt><trkpt lat="43.4581667" lon="11.5750383"><ele>452.99999999999994</ele><time>2026-03-22T10:06:43.345Z</time></trkpt><trkpt lat="43.4581333" lon="11.5751233"><ele>453.0</ele><time>2026-03-22T10:06:44.345Z</time></trkpt><trkpt lat="43.4581" lon="11.575215"><ele>452.99999999999994</ele><time>2026-03-22T10:06:45.345Z</time></trkpt><trkpt lat="43.458075" lon="11.5752983"><ele>452.99999999999994</ele><time>2026-03-22T10:06:46.345Z</time></trkpt><trkpt lat="43.4580483" lon="11.57539"><ele>455.3333333333333</ele><time>2026-03-22T10:06:47.345Z</time></trkpt><trkpt lat="43.45802" lon="11.5754817"><ele>457.66666666666663</ele><time>2026-03-22T10:06:48.345Z</time></trkpt><trkpt lat="43.4579767" lon="11.5755983"><ele>460.0</ele><time>2026-03-22T10:06:50.345Z</time></trkpt><trkpt lat="43.457915" lon="11.5756667"><ele>462.3333333333333</ele><time>2026-03-22T10:06:52.345Z</time></trkpt><trkpt lat="43.4578383" lon="11.5757067"><ele>464.66666666666663</ele><time>2026-03-22T10:06:54.345Z</time></trkpt><trkpt lat="43.4577417" lon="11.5757233"><ele>467.0</ele><time>2026-03-22T10:06:56.345Z</time></trkpt><trkpt lat="43.45764" lon="11.5756733"><ele>467.0</ele><time>2026-03-22T10:06:58.344Z</time></trkpt><trkpt lat="43.4575167" lon="11.5756717"><ele>467.00000000000006</ele><time>2026-03-22T10:07:00.344Z</time></trkpt><trkpt lat="43.457405" lon="11.5757217"><ele>467.00000000000006</ele><time>2026-03-22T10:07:02.345Z</time></trkpt><trkpt lat="43.457335" lon="11.575785"><ele>467.0</ele><time>2026-03-22T10:07:04.344Z</time></trkpt><trkpt lat="43.4572667" lon="11.5758283"><ele>467.0</ele><time>2026-03-22T10:07:06.345Z</time></trkpt><trkpt lat="43.45717" lon="11.5758567"><ele>466.3333333333333</ele><time>2026-03-22T10:07:08.345Z</time></trkpt><trkpt lat="43.4570983" lon="11.5758717"><ele>465.66666666666663</ele><time>2026-03-22T10:07:09.344Z</time></trkpt><trkpt lat="43.457025" lon="11.5758983"><ele>465.0</ele><time>2026-03-22T10:07:10.345Z</time></trkpt><trkpt lat="43.45695" lon="11.57594"><ele>464.33333333333337</ele><time>2026-03-22T10:07:11.345Z</time></trkpt><trkpt lat="43.456895" lon="11.5759867"><ele>463.6666666666667</ele><time>2026-03-22T10:07:12.345Z</time></trkpt><trkpt lat="43.4568383" lon="11.57608"><ele>463.0</ele><time>2026-03-22T10:07:14.344Z</time></trkpt><trkpt lat="43.4567983" lon="11.576165"><ele>463.0</ele><time>2026-03-22T10:07:16.345Z</time></trkpt><trkpt lat="43.456735" lon="11.57627"><ele>462.99999999999994</ele><time>2026-03-22T10:07:18.345Z</time></trkpt><trkpt lat="43.4566617" lon="11.57639"><ele>462.99999999999994</ele><time>2026-03-22T10:07:20.345Z</time></trkpt><trkpt lat="43.4565967" lon="11.5765067"><ele>463.0</ele><time>2026-03-22T10:07:22.344Z</time></trkpt><trkpt lat="43.4565533" lon="11.576575"><ele>463.0</ele><time>2026-03-22T10:07:23.345Z</time></trkpt><trkpt lat="43.4564817" lon="11.576745"><ele>463.00000000000006</ele><time>2026-03-22T10:07:25.345Z</time></trkpt><trkpt lat="43.4564467" lon="11.5768417"><ele>463.0</ele><time>2026-03-22T10:07:26.345Z</time></trkpt><trkpt lat="43.4564" lon="11.576955"><ele>463.0</ele><time>2026-03-22T10:07:27.345Z</time></trkpt><trkpt lat="43.4563417" lon="11.5770633"><ele>463.0</ele><time>2026-03-22T10:07:28.345Z</time></trkpt><trkpt lat="43.4563" lon="11.577145"><ele>463.00000000000006</ele><time>2026-03-22T10:07:29.345Z</time></trkpt><trkpt lat="43.45625" lon="11.577205"><ele>463.0</ele><time>2026-03-22T10:07:30.345Z</time></trkpt><trkpt lat="43.4561633" lon="11.5772733"><ele>462.83333333333337</ele><time>2026-03-22T10:07:32.344Z</time></trkpt><trkpt lat="43.4560517" lon="11.5773217"><ele>462.6666666666667</ele><time>2026-03-22T10:07:34.345Z</time></trkpt><trkpt lat="43.45598" lon="11.577365"><ele>462.5</ele><time>2026-03-22T10:07:35.345Z</time></trkpt><trkpt lat="43.455905" lon="11.577415"><ele>462.33333333333337</ele><time>2026-03-22T10:07:36.345Z</time></trkpt><trkpt lat="43.4558267" lon="11.5774667"><ele>462.1666666666667</ele><time>2026-03-22T10:07:37.345Z</time></trkpt><trkpt lat="43.4557567" lon="11.5775167"><ele>462.0</ele><time>2026-03-22T10:07:38.345Z</time></trkpt><trkpt lat="43.455685" lon="11.5775767"><ele>462.0</ele><time>2026-03-22T10:07:39.345Z</time></trkpt><trkpt lat="43.4556167" lon="11.5776133"><ele>462.0</ele><time>2026-03-22T10:07:40.344Z</time></trkpt><trkpt lat="43.455545" lon="11.5776183"><ele>462.0</ele><time>2026-03-22T10:07:41.345Z</time></trkpt><trkpt lat="43.4554367" lon="11.5775867"><ele>462.0</ele><time>2026-03-22T10:07:43.345Z</time></trkpt><trkpt lat="43.455375" lon="11.5776583"><ele>462.0</ele><time>2026-03-22T10:07:46.345Z</time></trkpt><trkpt lat="43.4553333" lon="11.5777333"><ele>462.0</ele><time>2026-03-22T10:07:48.345Z</time></trkpt><trkpt lat="43.455265" lon="11.5777967"><ele>462.20000000000005</ele><time>2026-03-22T10:07:50.345Z</time></trkpt><trkpt lat="43.4551617" lon="11.5778633"><ele>462.40000000000003</ele><time>2026-03-22T10:07:52.344Z</time></trkpt><trkpt lat="43.4550717" lon="11.5779417"><ele>462.59999999999997</ele><time>2026-03-22T10:07:54.344Z</time></trkpt><trkpt lat="43.4549883" lon="11.57806"><ele>462.79999999999995</ele><time>2026-03-22T10:07:56.345Z</time></trkpt><trkpt lat="43.4549283" lon="11.5781633"><ele>463.0</ele><time>2026-03-22T10:07:58.345Z</time></trkpt><trkpt lat="43.4548733" lon="11.5782767"><ele>463.0</ele><time>2026-03-22T10:08:00.345Z</time></trkpt><trkpt lat="43.4547967" lon="11.5783783"><ele>462.99999999999994</ele><time>2026-03-22T10:08:02.345Z</time></trkpt><trkpt lat="43.4546817" lon="11.5784017"><ele>462.99999999999994</ele><time>2026-03-22T10:08:04.345Z</time></trkpt><trkpt lat="43.4545667" lon="11.578425"><ele>463.0</ele><time>2026-03-22T10:08:06.345Z</time></trkpt><trkpt lat="43.4545" lon="11.5784667"><ele>463.0</ele><time>2026-03-22T10:08:07.345Z</time></trkpt><trkpt lat="43.454425" lon="11.5785167"><ele>462.0</ele><time>2026-03-22T10:08:08.345Z</time></trkpt><trkpt lat="43.454355" lon="11.5785883"><ele>460.99999999999994</ele><time>2026-03-22T10:08:09.345Z</time></trkpt><trkpt lat="43.454275" lon="11.57865"><ele>459.99999999999994</ele><time>2026-03-22T10:08:10.344Z</time></trkpt><trkpt lat="43.4541917" lon="11.5787017"><ele>459.0</ele><time>2026-03-22T10:08:11.344Z</time></trkpt><trkpt lat="43.4541017" lon="11.57876"><ele>458.0</ele><time>2026-03-22T10:08:12.345Z</time></trkpt><trkpt lat="43.454005" lon="11.578835"><ele>457.59999999999997</ele><time>2026-03-22T10:08:13.344Z</time></trkpt><trkpt lat="43.4539133" lon="11.57893"><ele>457.19999999999993</ele><time>2026-03-22T10:08:14.345Z</time></trkpt><trkpt lat="43.4538317" lon="11.5790217"><ele>456.8</ele><time>2026-03-22T10:08:15.345Z</time></trkpt><trkpt lat="43.453755" lon="11.5790933"><ele>456.4</ele><time>2026-03-22T10:08:16.345Z</time></trkpt><trkpt lat="43.4536767" lon="11.57915"><ele>456.0</ele><time>2026-03-22T10:08:17.345Z</time></trkpt><trkpt lat="43.45359" lon="11.5791967"><ele>456.0</ele><time>2026-03-22T10:08:18.344Z</time></trkpt><trkpt lat="43.453485" lon="11.5792583"><ele>456.0</ele><time>2026-03-22T10:08:19.345Z</time></trkpt><trkpt lat="43.4533683" lon="11.5793333"><ele>456.0</ele><time>2026-03-22T10:08:20.345Z</time></trkpt><trkpt lat="43.4532367" lon="11.57941"><ele>456.0</ele><time>2026-03-22T10:08:21.344Z</time></trkpt><trkpt lat="43.4531067" lon="11.5794867"><ele>453.66666666666663</ele><time>2026-03-22T10:08:22.345Z</time></trkpt><trkpt lat="43.452965" lon="11.5795633"><ele>451.3333333333333</ele><time>2026-03-22T10:08:23.345Z</time></trkpt><trkpt lat="43.4528167" lon="11.5796467"><ele>449.0</ele><time>2026-03-22T10:08:24.345Z</time></trkpt><trkpt lat="43.4526733" lon="11.5797233"><ele>449.0</ele><time>2026-03-22T10:08:25.345Z</time></trkpt><trkpt lat="43.4525367" lon="11.5798067"><ele>449.0</ele><time>2026-03-22T10:08:26.345Z</time></trkpt><trkpt lat="43.452395" lon="11.5798933"><ele>449.0</ele><time>2026-03-22T10:08:27.345Z</time></trkpt><trkpt lat="43.4522633" lon="11.5799667"><ele>449.0</ele><time>2026-03-22T10:08:28.344Z</time></trkpt><trkpt lat="43.45216" lon="11.58003"><ele>449.0</ele><time>2026-03-22T10:08:29.345Z</time></trkpt><trkpt lat="43.4520883" lon="11.58008"><ele>449.0</ele><time>2026-03-22T10:08:30.344Z</time></trkpt><trkpt lat="43.4520283" lon="11.5801883"><ele>449.0</ele><time>2026-03-22T10:08:32.345Z</time></trkpt><trkpt lat="43.45206" lon="11.5803383"><ele>449.0</ele><time>2026-03-22T10:08:34.344Z</time></trkpt><trkpt lat="43.45211" lon="11.5803983"><ele>449.0</ele><time>2026-03-22T10:08:35.344Z</time></trkpt><trkpt lat="43.4521617" lon="11.5805083"><ele>447.3333333333333</ele><time>2026-03-22T10:08:37.344Z</time></trkpt><trkpt lat="43.452215" lon="11.5806"><ele>445.66666666666663</ele><time>2026-03-22T10:09:00.344Z</time></trkpt><trkpt lat="43.45229" lon="11.5806267"><ele>444.0</ele><time>2026-03-22T10:09:02.344Z</time></trkpt><trkpt lat="43.4523983" lon="11.5806167"><ele>442.33333333333337</ele><time>2026-03-22T10:09:04.345Z</time></trkpt><trkpt lat="43.45246" lon="11.5805983"><ele>440.6666666666667</ele><time>2026-03-22T10:09:05.345Z</time></trkpt><trkpt lat="43.4525217" lon="11.5805683"><ele>439.0</ele><time>2026-03-22T10:09:06.345Z</time></trkpt><trkpt lat="43.4525817" lon="11.5805383"><ele>439.00000000000006</ele><time>2026-03-22T10:09:07.345Z</time></trkpt><trkpt lat="43.4526717" lon="11.5805"><ele>439.0</ele><time>2026-03-22T10:09:09.345Z</time></trkpt><trkpt lat="43.4527383" lon="11.5804817"><ele>439.0</ele><time>2026-03-22T10:09:11.345Z</time></trkpt><trkpt lat="43.4528183" lon="11.58047"><ele>439.0</ele><time>2026-03-22T10:09:13.344Z</time></trkpt><trkpt lat="43.452935" lon="11.5804583"><ele>439.00000000000006</ele><time>2026-03-22T10:09:15.345Z</time></trkpt><trkpt lat="43.4530017" lon="11.580445"><ele>439.0</ele><time>2026-03-22T10:09:16.345Z</time></trkpt><trkpt lat="43.4530683" lon="11.580445"><ele>437.33333333333337</ele><time>2026-03-22T10:09:17.345Z</time></trkpt><trkpt lat="43.4531317" lon="11.58045"><ele>435.6666666666667</ele><time>2026-03-22T10:09:18.344Z</time></trkpt><trkpt lat="43.4531967" lon="11.5804583"><ele>434.0</ele><time>2026-03-22T10:09:19.345Z</time></trkpt><trkpt lat="43.4533217" lon="11.5805217"><ele>432.33333333333337</ele><time>2026-03-22T10:09:21.345Z</time></trkpt><trkpt lat="43.45338" lon="11.5805583"><ele>430.6666666666667</ele><time>2026-03-22T10:09:22.345Z</time></trkpt><trkpt lat="43.453485" lon="11.580645"><ele>429.0</ele><time>2026-03-22T10:09:24.344Z</time></trkpt><trkpt lat="43.4535717" lon="11.5807317"><ele>429.0</ele><time>2026-03-22T10:09:26.345Z</time></trkpt><trkpt lat="43.45365" lon="11.5808383"><ele>429.0</ele><time>2026-03-22T10:09:28.344Z</time></trkpt><trkpt lat="43.4537183" lon="11.5809433"><ele>429.0</ele><time>2026-03-22T10:09:30.344Z</time></trkpt><trkpt lat="43.4537533" lon="11.5810333"><ele>429.0</ele><time>2026-03-22T10:09:32.345Z</time></trkpt><trkpt lat="43.45371" lon="11.5809167"><ele>429.0</ele><time>2026-03-22T10:10:01.344Z</time></trkpt><trkpt lat="43.4536133" lon="11.5807867"><ele>429.0</ele><time>2026-03-22T10:10:03.345Z</time></trkpt><trkpt lat="43.4535517" lon="11.58072"><ele>429.0</ele><time>2026-03-22T10:10:04.344Z</time></trkpt><trkpt lat="43.45349" lon="11.58065"><ele>429.0</ele><time>2026-03-22T10:10:05.344Z</time></trkpt><trkpt lat="43.453425" lon="11.5805817"><ele>429.0</ele><time>2026-03-22T10:10:06.344Z</time></trkpt><trkpt lat="43.4533583" lon="11.5805217"><ele>429.0</ele><time>2026-03-22T10:10:07.345Z</time></trkpt><trkpt lat="43.4532767" lon="11.5804783"><ele>429.0</ele><time>2026-03-22T10:10:08.345Z</time></trkpt><trkpt lat="43.453195" lon="11.5804483"><ele>429.0</ele><time>2026-03-22T10:10:09.345Z</time></trkpt><trkpt lat="43.453105" lon="11.5804417"><ele>429.0</ele><time>2026-03-22T10:10:10.345Z</time></trkpt><trkpt lat="43.4530117" lon="11.58044"><ele>429.0</ele><time>2026-03-22T10:10:11.345Z</time></trkpt><trkpt lat="43.4529083" lon="11.5804483"><ele>429.0</ele><time>2026-03-22T10:10:12.345Z</time></trkpt><trkpt lat="43.4528033" lon="11.5804667"><ele>429.0</ele><time>2026-03-22T10:10:13.345Z</time></trkpt><trkpt lat="43.4526917" lon="11.5804933"><ele>431.0</ele><time>2026-03-22T10:10:14.344Z</time></trkpt><trkpt lat="43.4525933" lon="11.5805333"><ele>433.0</ele><time>2026-03-22T10:10:15.345Z</time></trkpt><trkpt lat="43.4524833" lon="11.5805767"><ele>435.0</ele><time>2026-03-22T10:10:16.345Z</time></trkpt><trkpt lat="43.4523683" lon="11.58062"><ele>437.0</ele><time>2026-03-22T10:10:17.345Z</time></trkpt><trkpt lat="43.45228" lon="11.5806217"><ele>439.0</ele><time>2026-03-22T10:10:18.345Z</time></trkpt><trkpt lat="43.4521917" lon="11.5806083"><ele>440.33333333333337</ele><time>2026-03-22T10:10:19.344Z</time></trkpt><trkpt lat="43.4521167" lon="11.5805817"><ele>441.6666666666667</ele><time>2026-03-22T10:10:20.344Z</time></trkpt><trkpt lat="43.452035" lon="11.5805633"><ele>443.0</ele><time>2026-03-22T10:10:21.345Z</time></trkpt><trkpt lat="43.4519583" lon="11.5805667"><ele>444.33333333333337</ele><time>2026-03-22T10:10:22.344Z</time></trkpt><trkpt lat="43.4518733" lon="11.580585"><ele>445.6666666666667</ele><time>2026-03-22T10:10:23.344Z</time></trkpt><trkpt lat="43.4517883" lon="11.580615"><ele>447.0</ele><time>2026-03-22T10:10:24.344Z</time></trkpt><trkpt lat="43.451695" lon="11.5806617"><ele>447.0</ele><time>2026-03-22T10:10:25.345Z</time></trkpt><trkpt lat="43.451605" lon="11.5807233"><ele>447.00000000000006</ele><time>2026-03-22T10:10:26.345Z</time></trkpt><trkpt lat="43.4515233" lon="11.5807883"><ele>447.00000000000006</ele><time>2026-03-22T10:10:27.345Z</time></trkpt><trkpt lat="43.4514417" lon="11.5808567"><ele>447.0</ele><time>2026-03-22T10:10:28.345Z</time></trkpt><trkpt lat="43.4513583" lon="11.5809183"><ele>447.0</ele><time>2026-03-22T10:10:29.345Z</time></trkpt><trkpt lat="43.4512867" lon="11.5809733"><ele>449.0</ele><time>2026-03-22T10:10:30.345Z</time></trkpt><trkpt lat="43.4512133" lon="11.58106"><ele>451.00000000000006</ele><time>2026-03-22T10:10:32.345Z</time></trkpt><trkpt lat="43.4511783" lon="11.5811733"><ele>453.00000000000006</ele><time>2026-03-22T10:10:47.345Z</time></trkpt><trkpt lat="43.45114" lon="11.58135"><ele>455.0</ele><time>2026-03-22T10:10:49.344Z</time></trkpt><trkpt lat="43.451165" lon="11.5814867"><ele>457.0</ele><time>2026-03-22T10:10:51.345Z</time></trkpt><trkpt lat="43.4512067" lon="11.5816217"><ele>457.83333333333337</ele><time>2026-03-22T10:10:53.345Z</time></trkpt><trkpt lat="43.4512167" lon="11.5817083"><ele>458.6666666666667</ele><time>2026-03-22T10:10:54.345Z</time></trkpt><trkpt lat="43.45123" lon="11.581865"><ele>459.5</ele><time>2026-03-22T10:10:56.344Z</time></trkpt><trkpt lat="43.45119" lon="11.5819817"><ele>460.33333333333337</ele><time>2026-03-22T10:10:58.345Z</time></trkpt><trkpt lat="43.4511033" lon="11.5819617"><ele>461.1666666666667</ele><time>2026-03-22T10:11:00.345Z</time></trkpt><trkpt lat="43.4510467" lon="11.5819"><ele>462.0</ele><time>2026-03-22T10:11:01.345Z</time></trkpt><trkpt lat="43.4509817" lon="11.581835"><ele>462.0</ele><time>2026-03-22T10:11:02.344Z</time></trkpt><trkpt lat="43.45091" lon="11.5817783"><ele>462.0</ele><time>2026-03-22T10:11:03.345Z</time></trkpt><trkpt lat="43.4508383" lon="11.5817467"><ele>462.0</ele><time>2026-03-22T10:11:04.345Z</time></trkpt><trkpt lat="43.4507667" lon="11.5817317"><ele>462.0</ele><time>2026-03-22T10:11:05.345Z</time></trkpt><trkpt lat="43.4506867" lon="11.581745"><ele>462.0</ele><time>2026-03-22T10:11:06.344Z</time></trkpt><trkpt lat="43.4506083" lon="11.5817667"><ele>462.0</ele><time>2026-03-22T10:11:07.345Z</time></trkpt><trkpt lat="43.4505333" lon="11.5817883"><ele>462.0</ele><time>2026-03-22T10:11:08.345Z</time></trkpt><trkpt lat="43.45047" lon="11.581795"><ele>462.0</ele><time>2026-03-22T10:11:09.345Z</time></trkpt><trkpt lat="43.4503817" lon="11.5817917"><ele>462.0</ele><time>2026-03-22T10:11:11.345Z</time></trkpt><trkpt lat="43.45028" lon="11.5818017"><ele>462.0</ele><time>2026-03-22T10:11:14.345Z</time></trkpt><trkpt lat="43.4501917" lon="11.5818117"><ele>462.0</ele><time>2026-03-22T10:11:16.345Z</time></trkpt><trkpt lat="43.4501017" lon="11.5818183"><ele>462.0</ele><time>2026-03-22T10:11:18.345Z</time></trkpt><trkpt lat="43.4499967" lon="11.5818467"><ele>461.6</ele><time>2026-03-22T10:11:20.345Z</time></trkpt><trkpt lat="43.449895" lon="11.5819217"><ele>461.20000000000005</ele><time>2026-03-22T10:11:22.344Z</time></trkpt><trkpt lat="43.44977" lon="11.58199"><ele>460.8</ele><time>2026-03-22T10:11:24.345Z</time></trkpt><trkpt lat="43.4496883" lon="11.582035"><ele>460.4</ele><time>2026-03-22T10:11:25.344Z</time></trkpt><trkpt lat="43.449605" lon="11.5820933"><ele>460.0</ele><time>2026-03-22T10:11:26.344Z</time></trkpt><trkpt lat="43.44951" lon="11.5821583"><ele>461.4</ele><time>2026-03-22T10:11:27.345Z</time></trkpt><trkpt lat="43.4494167" lon="11.582235"><ele>462.8</ele><time>2026-03-22T10:11:28.345Z</time></trkpt><trkpt lat="43.4493467" lon="11.5823167"><ele>464.20000000000005</ele><time>2026-03-22T10:11:29.344Z</time></trkpt><trkpt lat="43.4492933" lon="11.582425"><ele>465.6</ele><time>2026-03-22T10:11:30.345Z</time></trkpt><trkpt lat="43.4492583" lon="11.58253"><ele>467.0</ele><time>2026-03-22T10:11:31.345Z</time></trkpt><trkpt lat="43.449225" lon="11.582665"><ele>467.0</ele><time>2026-03-22T10:11:32.345Z</time></trkpt><trkpt lat="43.4491983" lon="11.58278"><ele>467.00000000000006</ele><time>2026-03-22T10:11:33.345Z</time></trkpt><trkpt lat="43.4491783" lon="11.5828767"><ele>467.00000000000006</ele><time>2026-03-22T10:11:34.344Z</time></trkpt><trkpt lat="43.44912" lon="11.5829917"><ele>467.0</ele><time>2026-03-22T10:11:36.345Z</time></trkpt><trkpt lat="43.4490083" lon="11.5829967"><ele>467.0</ele><time>2026-03-22T10:11:38.345Z</time></trkpt><trkpt lat="43.4488817" lon="11.5830317"><ele>466.8333333333333</ele><time>2026-03-22T10:11:40.345Z</time></trkpt><trkpt lat="43.4488067" lon="11.58306"><ele>466.66666666666663</ele><time>2026-03-22T10:11:41.345Z</time></trkpt><trkpt lat="43.4487333" lon="11.5830917"><ele>466.5</ele><time>2026-03-22T10:11:42.345Z</time></trkpt><trkpt lat="43.4486683" lon="11.5831117"><ele>466.33333333333337</ele><time>2026-03-22T10:11:43.345Z</time></trkpt><trkpt lat="43.4486017" lon="11.58313"><ele>466.1666666666667</ele><time>2026-03-22T10:11:44.345Z</time></trkpt><trkpt lat="43.44849" lon="11.5831683"><ele>466.0</ele><time>2026-03-22T10:11:46.345Z</time></trkpt><trkpt lat="43.4483783" lon="11.5831817"><ele>468.33333333333337</ele><time>2026-03-22T10:11:48.344Z</time></trkpt><trkpt lat="43.4482583" lon="11.5832167"><ele>470.6666666666667</ele><time>2026-03-22T10:11:50.344Z</time></trkpt><trkpt lat="43.4481967" lon="11.5832367"><ele>473.0</ele><time>2026-03-22T10:11:51.345Z</time></trkpt><trkpt lat="43.4481333" lon="11.5832633"><ele>475.33333333333337</ele><time>2026-03-22T10:11:52.344Z</time></trkpt><trkpt lat="43.44807" lon="11.5833017"><ele>477.6666666666667</ele><time>2026-03-22T10:11:53.345Z</time></trkpt><trkpt lat="43.4480067" lon="11.583345"><ele>480.0</ele><time>2026-03-22T10:11:54.345Z</time></trkpt><trkpt lat="43.4479333" lon="11.5833867"><ele>482.0</ele><time>2026-03-22T10:11:55.345Z</time></trkpt><trkpt lat="43.4478583" lon="11.58343"><ele>484.0</ele><time>2026-03-22T10:11:56.344Z</time></trkpt><trkpt lat="43.4477933" lon="11.58347"><ele>486.0</ele><time>2026-03-22T10:11:57.345Z</time></trkpt><trkpt lat="43.4477267" lon="11.5835067"><ele>488.0</ele><time>2026-03-22T10:11:58.344Z</time></trkpt><trkpt lat="43.44765" lon="11.5835317"><ele>490.0</ele><time>2026-03-22T10:11:59.345Z</time></trkpt><trkpt lat="43.4475683" lon="11.5835467"><ele>492.0</ele><time>2026-03-22T10:12:00.345Z</time></trkpt><trkpt lat="43.447475" lon="11.5835783"><ele>492.0</ele><time>2026-03-22T10:12:01.345Z</time></trkpt><trkpt lat="43.4473717" lon="11.5836133"><ele>492.00000000000006</ele><time>2026-03-22T10:12:02.344Z</time></trkpt><trkpt lat="43.4472683" lon="11.583655"><ele>492.00000000000006</ele><time>2026-03-22T10:12:03.345Z</time></trkpt><trkpt lat="43.44718" lon="11.5837033"><ele>492.0</ele><time>2026-03-22T10:12:04.344Z</time></trkpt><trkpt lat="43.4471017" lon="11.5837583"><ele>492.0</ele><time>2026-03-22T10:12:05.344Z</time></trkpt><trkpt lat="43.447035" lon="11.5838017"><ele>489.6666666666667</ele><time>2026-03-22T10:12:06.345Z</time></trkpt><trkpt lat="43.446965" lon="11.5838167"><ele>487.33333333333337</ele><time>2026-03-22T10:12:07.345Z</time></trkpt><trkpt lat="43.4468833" lon="11.5838167"><ele>485.0</ele><time>2026-03-22T10:12:08.344Z</time></trkpt><trkpt lat="43.4468017" lon="11.5838117"><ele>482.6666666666667</ele><time>2026-03-22T10:12:09.345Z</time></trkpt><trkpt lat="43.446725" lon="11.5838317"><ele>480.33333333333337</ele><time>2026-03-22T10:12:10.345Z</time></trkpt><trkpt lat="43.4466433" lon="11.583865"><ele>478.0</ele><time>2026-03-22T10:12:11.345Z</time></trkpt><trkpt lat="43.446565" lon="11.5839"><ele>478.00000000000006</ele><time>2026-03-22T10:12:12.345Z</time></trkpt><trkpt lat="43.4464917" lon="11.5839167"><ele>478.0</ele><time>2026-03-22T10:12:13.345Z</time></trkpt><trkpt lat="43.4464217" lon="11.58391"><ele>478.0</ele><time>2026-03-22T10:12:14.345Z</time></trkpt><trkpt lat="43.4463533" lon="11.5838783"><ele>478.0</ele><time>2026-03-22T10:12:15.344Z</time></trkpt><trkpt lat="43.4462767" lon="11.583825"><ele>478.00000000000006</ele><time>2026-03-22T10:12:16.345Z</time></trkpt><trkpt lat="43.4462083" lon="11.5837767"><ele>478.0</ele><time>2026-03-22T10:12:17.345Z</time></trkpt><trkpt lat="43.44614" lon="11.583735"><ele>480.0</ele><time>2026-03-22T10:12:18.345Z</time></trkpt><trkpt lat="43.4460233" lon="11.583655"><ele>481.99999999999994</ele><time>2026-03-22T10:12:20.345Z</time></trkpt><trkpt lat="43.44594" lon="11.5836167"><ele>483.99999999999994</ele><time>2026-03-22T10:12:21.345Z</time></trkpt><trkpt lat="43.4458517" lon="11.5835683"><ele>486.0</ele><time>2026-03-22T10:12:22.345Z</time></trkpt><trkpt lat="43.44576" lon="11.583515"><ele>488.0</ele><time>2026-03-22T10:12:23.344Z</time></trkpt><trkpt lat="43.4456733" lon="11.58347"><ele>488.0</ele><time>2026-03-22T10:12:24.345Z</time></trkpt><trkpt lat="43.4455883" lon="11.5834083"><ele>487.99999999999994</ele><time>2026-03-22T10:12:25.344Z</time></trkpt><trkpt lat="43.4455" lon="11.5833333"><ele>487.99999999999994</ele><time>2026-03-22T10:12:26.344Z</time></trkpt><trkpt lat="43.445415" lon="11.58325"><ele>488.0</ele><time>2026-03-22T10:12:27.345Z</time></trkpt><trkpt lat="43.4453333" lon="11.58318"><ele>488.0</ele><time>2026-03-22T10:12:28.344Z</time></trkpt><trkpt lat="43.4452717" lon="11.5831283"><ele>487.49999999999994</ele><time>2026-03-22T10:12:29.345Z</time></trkpt><trkpt lat="43.44521" lon="11.58311"><ele>487.0</ele><time>2026-03-22T10:12:30.344Z</time></trkpt><trkpt lat="43.4451" lon="11.5831733"><ele>486.5</ele><time>2026-03-22T10:12:32.344Z</time></trkpt><trkpt lat="43.4450367" lon="11.583235"><ele>486.0</ele><time>2026-03-22T10:12:33.344Z</time></trkpt><trkpt lat="43.4449717" lon="11.583315"><ele>485.49999999999994</ele><time>2026-03-22T10:12:34.345Z</time></trkpt><trkpt lat="43.4449067" lon="11.583375"><ele>485.0</ele><time>2026-03-22T10:12:35.345Z</time></trkpt><trkpt lat="43.44483" lon="11.5834367"><ele>484.99999999999994</ele><time>2026-03-22T10:12:36.345Z</time></trkpt><trkpt lat="43.4447433" lon="11.583505"><ele>485.0</ele><time>2026-03-22T10:12:37.345Z</time></trkpt><trkpt lat="43.44465" lon="11.583575"><ele>485.0</ele><time>2026-03-22T10:12:38.345Z</time></trkpt><trkpt lat="43.4445717" lon="11.58361"><ele>485.0</ele><time>2026-03-22T10:12:39.345Z</time></trkpt><trkpt lat="43.4445067" lon="11.583615"><ele>484.99999999999994</ele><time>2026-03-22T10:12:40.345Z</time></trkpt><trkpt lat="43.444435" lon="11.583595"><ele>485.0</ele><time>2026-03-22T10:12:41.344Z</time></trkpt><trkpt lat="43.44436" lon="11.583575"><ele>486.8</ele><time>2026-03-22T10:12:42.345Z</time></trkpt><trkpt lat="43.444275" lon="11.583555"><ele>488.6</ele><time>2026-03-22T10:12:43.345Z</time></trkpt><trkpt lat="43.4441833" lon="11.5835383"><ele>490.4</ele><time>2026-03-22T10:12:44.344Z</time></trkpt><trkpt lat="43.4440767" lon="11.583545"><ele>492.2</ele><time>2026-03-22T10:12:45.345Z</time></trkpt><trkpt lat="43.443965" lon="11.5835733"><ele>494.0</ele><time>2026-03-22T10:12:46.345Z</time></trkpt><trkpt lat="43.4438583" lon="11.5835883"><ele>494.79999999999995</ele><time>2026-03-22T10:12:47.344Z</time></trkpt><trkpt lat="43.4437667" lon="11.5835783"><ele>495.59999999999997</ele><time>2026-03-22T10:12:48.345Z</time></trkpt><trkpt lat="43.4436867" lon="11.5835617"><ele>496.4</ele><time>2026-03-22T10:12:49.344Z</time></trkpt><trkpt lat="43.44359" lon="11.5835533"><ele>497.2</ele><time>2026-03-22T10:12:50.345Z</time></trkpt><trkpt lat="43.4434917" lon="11.5835517"><ele>498.0</ele><time>2026-03-22T10:12:51.345Z</time></trkpt><trkpt lat="43.44338" lon="11.5835783"><ele>498.0</ele><time>2026-03-22T10:12:52.345Z</time></trkpt><trkpt lat="43.4432733" lon="11.583595"><ele>497.99999999999994</ele><time>2026-03-22T10:12:53.345Z</time></trkpt><trkpt lat="43.4431633" lon="11.5835933"><ele>497.99999999999994</ele><time>2026-03-22T10:12:54.345Z</time></trkpt><trkpt lat="43.443065" lon="11.5835917"><ele>498.0</ele><time>2026-03-22T10:12:55.345Z</time></trkpt><trkpt lat="43.442975" lon="11.5835833"><ele>498.0</ele><time>2026-03-22T10:12:56.345Z</time></trkpt><trkpt lat="43.4428883" lon="11.5835717"><ele>496.79999999999995</ele><time>2026-03-22T10:12:57.345Z</time></trkpt><trkpt lat="43.44281" lon="11.5835533"><ele>495.59999999999997</ele><time>2026-03-22T10:12:58.345Z</time></trkpt><trkpt lat="43.44272" lon="11.5835383"><ele>494.40000000000003</ele><time>2026-03-22T10:12:59.345Z</time></trkpt><trkpt lat="43.4426233" lon="11.5835417"><ele>493.20000000000005</ele><time>2026-03-22T10:13:00.344Z</time></trkpt><trkpt lat="43.4425283" lon="11.5835733"><ele>492.0</ele><time>2026-03-22T10:13:01.345Z</time></trkpt><trkpt lat="43.4424417" lon="11.5836033"><ele>492.0</ele><time>2026-03-22T10:13:02.345Z</time></trkpt><trkpt lat="43.4423633" lon="11.5836217"><ele>492.0</ele><time>2026-03-22T10:13:03.345Z</time></trkpt><trkpt lat="43.4422883" lon="11.5836033"><ele>492.0</ele><time>2026-03-22T10:13:04.345Z</time></trkpt><trkpt lat="43.442215" lon="11.5835567"><ele>492.0</ele><time>2026-03-22T10:13:05.345Z</time></trkpt><trkpt lat="43.4421367" lon="11.5834867"><ele>492.0</ele><time>2026-03-22T10:13:06.345Z</time></trkpt><trkpt lat="43.4420583" lon="11.5834083"><ele>492.0</ele><time>2026-03-22T10:13:07.345Z</time></trkpt><trkpt lat="43.441975" lon="11.583345"><ele>490.6</ele><time>2026-03-22T10:13:08.345Z</time></trkpt><trkpt lat="43.4418883" lon="11.5833117"><ele>489.20000000000005</ele><time>2026-03-22T10:13:09.345Z</time></trkpt><trkpt lat="43.4418017" lon="11.5833167"><ele>487.8</ele><time>2026-03-22T10:13:10.345Z</time></trkpt><trkpt lat="43.4417133" lon="11.5833567"><ele>486.4</ele><time>2026-03-22T10:13:11.345Z</time></trkpt><trkpt lat="43.4416217" lon="11.5834217"><ele>485.0</ele><time>2026-03-22T10:13:12.345Z</time></trkpt><trkpt lat="43.441535" lon="11.583475"><ele>485.0</ele><time>2026-03-22T10:13:13.345Z</time></trkpt><trkpt lat="43.441455" lon="11.583515"><ele>485.0</ele><time>2026-03-22T10:13:14.345Z</time></trkpt><trkpt lat="43.4413733" lon="11.5835283"><ele>485.0</ele><time>2026-03-22T10:13:15.345Z</time></trkpt><trkpt lat="43.4412867" lon="11.5834983"><ele>485.0</ele><time>2026-03-22T10:13:16.345Z</time></trkpt><trkpt lat="43.44119" lon="11.5834483"><ele>485.0</ele><time>2026-03-22T10:13:17.345Z</time></trkpt><trkpt lat="43.4411033" lon="11.5833767"><ele>483.49999999999994</ele><time>2026-03-22T10:13:18.345Z</time></trkpt><trkpt lat="43.44102" lon="11.5833067"><ele>482.0</ele><time>2026-03-22T10:13:19.345Z</time></trkpt><trkpt lat="43.4409617" lon="11.5832317"><ele>480.5</ele><time>2026-03-22T10:13:20.345Z</time></trkpt><trkpt lat="43.440895" lon="11.58313"><ele>479.0</ele><time>2026-03-22T10:13:22.345Z</time></trkpt><trkpt lat="43.440965" lon="11.5830917"><ele>477.49999999999994</ele><time>2026-03-22T10:13:27.345Z</time></trkpt><trkpt lat="43.44104" lon="11.5831667"><ele>476.0</ele><time>2026-03-22T10:13:29.345Z</time></trkpt><trkpt lat="43.4411317" lon="11.5832567"><ele>475.99999999999994</ele><time>2026-03-22T10:13:31.344Z</time></trkpt><trkpt lat="43.441195" lon="11.5832783"><ele>476.0</ele><time>2026-03-22T10:13:32.345Z</time></trkpt><trkpt lat="43.4412683" lon="11.5832283"><ele>476.0</ele><time>2026-03-22T10:13:34.345Z</time></trkpt><trkpt lat="43.4412533" lon="11.5831117"><ele>476.0</ele><time>2026-03-22T10:13:36.344Z</time></trkpt><trkpt lat="43.4412083" lon="11.58305"><ele>475.99999999999994</ele><time>2026-03-22T10:13:37.345Z</time></trkpt><trkpt lat="43.4411617" lon="11.5829617"><ele>476.0</ele><time>2026-03-22T10:13:38.345Z</time></trkpt><trkpt lat="43.441115" lon="11.582855"><ele>478.8</ele><time>2026-03-22T10:13:39.345Z</time></trkpt><trkpt lat="43.44108" lon="11.58273"><ele>481.6</ele><time>2026-03-22T10:13:40.345Z</time></trkpt><trkpt lat="43.4410533" lon="11.5826"><ele>484.4</ele><time>2026-03-22T10:13:41.345Z</time></trkpt><trkpt lat="43.44103" lon="11.582495"><ele>487.2</ele><time>2026-03-22T10:13:42.345Z</time></trkpt><trkpt lat="43.4410117" lon="11.582395"><ele>490.0</ele><time>2026-03-22T10:13:43.345Z</time></trkpt><trkpt lat="43.4410133" lon="11.58225"><ele>490.00000000000006</ele><time>2026-03-22T10:13:45.344Z</time></trkpt><trkpt lat="43.4410467" lon="11.5821233"><ele>490.0</ele><time>2026-03-22T10:13:47.345Z</time></trkpt><trkpt lat="43.4410667" lon="11.5820333"><ele>490.0</ele><time>2026-03-22T10:13:48.344Z</time></trkpt><trkpt lat="43.4410867" lon="11.5819317"><ele>490.0</ele><time>2026-03-22T10:13:49.345Z</time></trkpt><trkpt lat="43.4411133" lon="11.58181"><ele>490.00000000000006</ele><time>2026-03-22T10:13:50.344Z</time></trkpt><trkpt lat="43.4411467" lon="11.58167"><ele>490.0</ele><time>2026-03-22T10:13:51.345Z</time></trkpt><trkpt lat="43.441195" lon="11.5815267"><ele>491.6</ele><time>2026-03-22T10:13:52.344Z</time></trkpt><trkpt lat="43.441245" lon="11.5813817"><ele>493.2</ele><time>2026-03-22T10:13:53.345Z</time></trkpt><trkpt lat="43.441275" lon="11.5812433"><ele>494.79999999999995</ele><time>2026-03-22T10:13:54.345Z</time></trkpt><trkpt lat="43.4413" lon="11.5811167"><ele>496.4</ele><time>2026-03-22T10:13:55.345Z</time></trkpt><trkpt lat="43.4413017" lon="11.5809783"><ele>498.0</ele><time>2026-03-22T10:13:56.345Z</time></trkpt><trkpt lat="43.4412867" lon="11.5808617"><ele>498.4</ele><time>2026-03-22T10:13:57.344Z</time></trkpt><trkpt lat="43.441265" lon="11.58075"><ele>498.79999999999995</ele><time>2026-03-22T10:13:58.345Z</time></trkpt><trkpt lat="43.4412133" lon="11.5806483"><ele>499.2</ele><time>2026-03-22T10:13:59.345Z</time></trkpt><trkpt lat="43.4411467" lon="11.5805533"><ele>499.6</ele><time>2026-03-22T10:14:00.344Z</time></trkpt><trkpt lat="43.4410783" lon="11.5804633"><ele>500.0</ele><time>2026-03-22T10:14:01.344Z</time></trkpt><trkpt lat="43.441015" lon="11.58037"><ele>498.0</ele><time>2026-03-22T10:14:02.345Z</time></trkpt><trkpt lat="43.44096" lon="11.58027"><ele>496.0</ele><time>2026-03-22T10:14:03.346Z</time></trkpt><trkpt lat="43.4409233" lon="11.5801533"><ele>494.0</ele><time>2026-03-22T10:14:04.346Z</time></trkpt><trkpt lat="43.44091" lon="11.5800133"><ele>492.0</ele><time>2026-03-22T10:14:05.346Z</time></trkpt><trkpt lat="43.4409083" lon="11.579865"><ele>490.0</ele><time>2026-03-22T10:14:06.346Z</time></trkpt><trkpt lat="43.4409033" lon="11.579715"><ele>490.0</ele><time>2026-03-22T10:14:07.346Z</time></trkpt><trkpt lat="43.44087" lon="11.5795633"><ele>490.0</ele><time>2026-03-22T10:14:08.346Z</time></trkpt><trkpt lat="43.4408233" lon="11.57942"><ele>490.0</ele><time>2026-03-22T10:14:09.346Z</time></trkpt><trkpt lat="43.44077" lon="11.5792967"><ele>490.0</ele><time>2026-03-22T10:14:10.346Z</time></trkpt><trkpt lat="43.4407267" lon="11.579215"><ele>490.0</ele><time>2026-03-22T10:14:11.346Z</time></trkpt><trkpt lat="43.4406917" lon="11.5790983"><ele>489.2</ele><time>2026-03-22T10:14:13.346Z</time></trkpt><trkpt lat="43.44076" lon="11.5790283"><ele>488.4</ele><time>2026-03-22T10:14:15.346Z</time></trkpt><trkpt lat="43.44084" lon="11.57902"><ele>487.6</ele><time>2026-03-22T10:14:16.345Z</time></trkpt><trkpt lat="43.4409367" lon="11.5790383"><ele>486.8</ele><time>2026-03-22T10:14:17.346Z</time></trkpt><trkpt lat="43.4410383" lon="11.5790667"><ele>486.0</ele><time>2026-03-22T10:14:18.346Z</time></trkpt><trkpt lat="43.4411267" lon="11.5791033"><ele>486.0</ele><time>2026-03-22T10:14:19.346Z</time></trkpt><trkpt lat="43.4412" lon="11.5791333"><ele>486.0</ele><time>2026-03-22T10:14:20.346Z</time></trkpt><trkpt lat="43.4412883" lon="11.5791817"><ele>486.0</ele><time>2026-03-22T10:14:22.346Z</time></trkpt><trkpt lat="43.44136" lon="11.5791783"><ele>486.0</ele><time>2026-03-22T10:14:53.346Z</time></trkpt><trkpt lat="43.4414283" lon="11.579155"><ele>486.0</ele><time>2026-03-22T10:18:32.346Z</time></trkpt><trkpt lat="43.4413583" lon="11.5791283"><ele>486.0</ele><time>2026-03-22T10:18:39.346Z</time></trkpt><trkpt lat="43.4412867" lon="11.5791533"><ele>486.0</ele><time>2026-03-22T10:18:42.346Z</time></trkpt><trkpt lat="43.44121" lon="11.5791367"><ele>486.0</ele><time>2026-03-22T10:18:44.346Z</time></trkpt><trkpt lat="43.4411417" lon="11.579115"><ele>486.0</ele><time>2026-03-22T10:18:45.346Z</time></trkpt><trkpt lat="43.4410517" lon="11.5790883"><ele>486.0</ele><time>2026-03-22T10:18:46.345Z</time></trkpt><trkpt lat="43.4409517" lon="11.5790667"><ele>486.0</ele><time>2026-03-22T10:18:47.345Z</time></trkpt><trkpt lat="43.4408583" lon="11.5790617"><ele>486.0</ele><time>2026-03-22T10:18:48.345Z</time></trkpt><trkpt lat="43.4407833" lon="11.57907"><ele>486.0</ele><time>2026-03-22T10:18:49.346Z</time></trkpt><trkpt lat="43.4406867" lon="11.5791267"><ele>486.0</ele><time>2026-03-22T10:18:51.346Z</time></trkpt><trkpt lat="43.4406867" lon="11.5792283"><ele>486.0</ele><time>2026-03-22T10:18:53.346Z</time></trkpt><trkpt lat="43.440775" lon="11.5793567"><ele>486.0</ele><time>2026-03-22T10:18:55.346Z</time></trkpt><trkpt lat="43.4408367" lon="11.579465"><ele>486.0</ele><time>2026-03-22T10:18:56.346Z</time></trkpt><trkpt lat="43.4408883" lon="11.5796"><ele>487.0</ele><time>2026-03-22T10:18:57.346Z</time></trkpt><trkpt lat="43.4409217" lon="11.5797733"><ele>488.0</ele><time>2026-03-22T10:18:58.346Z</time></trkpt><trkpt lat="43.4409217" lon="11.5799667"><ele>489.0</ele><time>2026-03-22T10:18:59.346Z</time></trkpt><trkpt lat="43.44093" lon="11.580165"><ele>490.0</ele><time>2026-03-22T10:19:00.346Z</time></trkpt><trkpt lat="43.4409583" lon="11.5803367"><ele>492.0</ele><time>2026-03-22T10:19:01.345Z</time></trkpt><trkpt lat="43.4409867" lon="11.58047"><ele>494.0</ele><time>2026-03-22T10:19:02.346Z</time></trkpt><trkpt lat="43.44105" lon="11.5805683"><ele>496.0</ele><time>2026-03-22T10:19:03.346Z</time></trkpt><trkpt lat="43.441125" lon="11.5806567"><ele>498.0</ele><time>2026-03-22T10:19:04.346Z</time></trkpt><trkpt lat="43.4412017" lon="11.5807433"><ele>500.0</ele><time>2026-03-22T10:19:05.346Z</time></trkpt><trkpt lat="43.4412667" lon="11.5808367"><ele>499.66666666666663</ele><time>2026-03-22T10:19:06.345Z</time></trkpt><trkpt lat="43.4413083" lon="11.5809517"><ele>499.3333333333333</ele><time>2026-03-22T10:19:07.346Z</time></trkpt><trkpt lat="43.4413183" lon="11.5810717"><ele>499.0</ele><time>2026-03-22T10:19:08.346Z</time></trkpt><trkpt lat="43.441305" lon="11.5811833"><ele>498.66666666666663</ele><time>2026-03-22T10:19:09.345Z</time></trkpt><trkpt lat="43.4413033" lon="11.58129"><ele>498.3333333333333</ele><time>2026-03-22T10:19:10.346Z</time></trkpt><trkpt lat="43.4412733" lon="11.58142"><ele>498.0</ele><time>2026-03-22T10:19:11.346Z</time></trkpt><trkpt lat="43.441215" lon="11.581555"><ele>498.0</ele><time>2026-03-22T10:19:12.346Z</time></trkpt><trkpt lat="43.4411533" lon="11.5817017"><ele>497.99999999999994</ele><time>2026-03-22T10:19:13.346Z</time></trkpt><trkpt lat="43.441115" lon="11.58181"><ele>497.99999999999994</ele><time>2026-03-22T10:19:14.346Z</time></trkpt><trkpt lat="43.4410833" lon="11.5819283"><ele>498.0</ele><time>2026-03-22T10:19:16.346Z</time></trkpt><trkpt lat="43.4410533" lon="11.5818317"><ele>498.0</ele><time>2026-03-22T10:19:20.346Z</time></trkpt><trkpt lat="43.441045" lon="11.5817267"><ele>498.0</ele><time>2026-03-22T10:19:21.345Z</time></trkpt><trkpt lat="43.4410317" lon="11.5815933"><ele>497.99999999999994</ele><time>2026-03-22T10:19:22.346Z</time></trkpt><trkpt lat="43.4410133" lon="11.5814383"><ele>497.99999999999994</ele><time>2026-03-22T10:19:23.346Z</time></trkpt><trkpt lat="43.4410033" lon="11.5812933"><ele>498.0</ele><time>2026-03-22T10:19:24.346Z</time></trkpt><trkpt lat="43.440995" lon="11.5811817"><ele>498.0</ele><time>2026-03-22T10:19:25.346Z</time></trkpt><trkpt lat="43.440925" lon="11.581045"><ele>498.4</ele><time>2026-03-22T10:19:27.346Z</time></trkpt><trkpt lat="43.4408533" lon="11.580995"><ele>498.79999999999995</ele><time>2026-03-22T10:19:28.345Z</time></trkpt><trkpt lat="43.4407717" lon="11.58094"><ele>499.2</ele><time>2026-03-22T10:19:29.346Z</time></trkpt><trkpt lat="43.4407033" lon="11.5808567"><ele>499.6</ele><time>2026-03-22T10:19:30.345Z</time></trkpt><trkpt lat="43.4406317" lon="11.5807633"><ele>500.0</ele><time>2026-03-22T10:19:31.346Z</time></trkpt><trkpt lat="43.440565" lon="11.5806567"><ele>500.0</ele><time>2026-03-22T10:19:32.345Z</time></trkpt><trkpt lat="43.4404933" lon="11.580555"><ele>500.0</ele><time>2026-03-22T10:19:33.345Z</time></trkpt><trkpt lat="43.44041" lon="11.5804517"><ele>500.0</ele><time>2026-03-22T10:19:34.345Z</time></trkpt><trkpt lat="43.4403083" lon="11.580365"><ele>500.0</ele><time>2026-03-22T10:19:35.346Z</time></trkpt><trkpt lat="43.4402067" lon="11.5802883"><ele>504.25</ele><time>2026-03-22T10:19:36.346Z</time></trkpt><trkpt lat="43.4401017" lon="11.5802083"><ele>508.5</ele><time>2026-03-22T10:19:37.346Z</time></trkpt><trkpt lat="43.4399883" lon="11.580125"><ele>512.75</ele><time>2026-03-22T10:19:38.346Z</time></trkpt><trkpt lat="43.4398767" lon="11.58004"><ele>517.0</ele><time>2026-03-22T10:19:39.346Z</time></trkpt><trkpt lat="43.439755" lon="11.5799567"><ele>517.0</ele><time>2026-03-22T10:19:40.346Z</time></trkpt><trkpt lat="43.4396433" lon="11.57986"><ele>517.0</ele><time>2026-03-22T10:19:41.345Z</time></trkpt><trkpt lat="43.439545" lon="11.5797533"><ele>517.0</ele><time>2026-03-22T10:19:42.346Z</time></trkpt><trkpt lat="43.43945" lon="11.57964"><ele>517.0</ele><time>2026-03-22T10:19:43.346Z</time></trkpt><trkpt lat="43.4393683" lon="11.5795083"><ele>518.8000000000001</ele><time>2026-03-22T10:19:44.346Z</time></trkpt><trkpt lat="43.439305" lon="11.5793833"><ele>520.6</ele><time>2026-03-22T10:19:45.346Z</time></trkpt><trkpt lat="43.43927" lon="11.5792467"><ele>522.4000000000001</ele><time>2026-03-22T10:19:46.346Z</time></trkpt><trkpt lat="43.43926" lon="11.5791033"><ele>524.2</ele><time>2026-03-22T10:19:47.346Z</time></trkpt><trkpt lat="43.4392617" lon="11.5789567"><ele>526.0</ele><time>2026-03-22T10:19:48.346Z</time></trkpt><trkpt lat="43.43924" lon="11.57882"><ele>526.0</ele><time>2026-03-22T10:19:49.346Z</time></trkpt><trkpt lat="43.4392017" lon="11.57869"><ele>526.0</ele><time>2026-03-22T10:19:50.346Z</time></trkpt><trkpt lat="43.4391617" lon="11.5785783"><ele>526.0</ele><time>2026-03-22T10:19:51.345Z</time></trkpt><trkpt lat="43.4391283" lon="11.578465"><ele>526.0</ele><time>2026-03-22T10:19:52.345Z</time></trkpt><trkpt lat="43.4391217" lon="11.5783583"><ele>526.0</ele><time>2026-03-22T10:19:53.346Z</time></trkpt><trkpt lat="43.4391283" lon="11.5782267"><ele>526.2</ele><time>2026-03-22T10:19:54.345Z</time></trkpt><trkpt lat="43.4391333" lon="11.5780767"><ele>526.4000000000001</ele><time>2026-03-22T10:19:55.346Z</time></trkpt><trkpt lat="43.4391383" lon="11.5779233"><ele>526.6</ele><time>2026-03-22T10:19:56.346Z</time></trkpt><trkpt lat="43.43914" lon="11.5777667"><ele>526.8000000000001</ele><time>2026-03-22T10:19:57.346Z</time></trkpt><trkpt lat="43.4391533" lon="11.5776283"><ele>527.0</ele><time>2026-03-22T10:19:58.346Z</time></trkpt><trkpt lat="43.4391517" lon="11.5775017"><ele>527.0</ele><time>2026-03-22T10:19:59.346Z</time></trkpt><trkpt lat="43.439145" lon="11.577385"><ele>527.0</ele><time>2026-03-22T10:20:00.346Z</time></trkpt><trkpt lat="43.4391167" lon="11.577285"><ele>527.0</ele><time>2026-03-22T10:20:01.346Z</time></trkpt><trkpt lat="43.4390567" lon="11.577185"><ele>527.0</ele><time>2026-03-22T10:20:02.345Z</time></trkpt><trkpt lat="43.4389817" lon="11.57707"><ele>527.0</ele><time>2026-03-22T10:20:03.346Z</time></trkpt><trkpt lat="43.4388883" lon="11.5769283"><ele>526.75</ele><time>2026-03-22T10:20:04.346Z</time></trkpt><trkpt lat="43.4387967" lon="11.5767833"><ele>526.5</ele><time>2026-03-22T10:20:05.346Z</time></trkpt><trkpt lat="43.4386967" lon="11.57664"><ele>526.25</ele><time>2026-03-22T10:20:06.346Z</time></trkpt><trkpt lat="43.438605" lon="11.576515"><ele>526.0</ele><time>2026-03-22T10:20:07.346Z</time></trkpt><trkpt lat="43.438535" lon="11.57642"><ele>526.0</ele><time>2026-03-22T10:20:08.346Z</time></trkpt><trkpt lat="43.438485" lon="11.576315"><ele>526.0</ele><time>2026-03-22T10:20:09.345Z</time></trkpt><trkpt lat="43.4384583" lon="11.5762183"><ele>526.0</ele><time>2026-03-22T10:20:10.346Z</time></trkpt><trkpt lat="43.438455" lon="11.5761083"><ele>526.0</ele><time>2026-03-22T10:20:11.345Z</time></trkpt><trkpt lat="43.4384717" lon="11.5759783"><ele>526.0</ele><time>2026-03-22T10:20:12.345Z</time></trkpt><trkpt lat="43.4384767" lon="11.57585"><ele>526.0</ele><time>2026-03-22T10:20:13.346Z</time></trkpt><trkpt lat="43.438475" lon="11.5757"><ele>531.0</ele><time>2026-03-22T10:20:14.346Z</time></trkpt><trkpt lat="43.4384283" lon="11.5755617"><ele>536.0</ele><time>2026-03-22T10:20:15.345Z</time></trkpt><trkpt lat="43.4383583" lon="11.5754167"><ele>541.0</ele><time>2026-03-22T10:20:16.346Z</time></trkpt><trkpt lat="43.438285" lon="11.575275"><ele>546.0</ele><time>2026-03-22T10:20:17.346Z</time></trkpt><trkpt lat="43.4382167" lon="11.5751433"><ele>545.8</ele><time>2026-03-22T10:20:18.345Z</time></trkpt><trkpt lat="43.43815" lon="11.575015"><ele>545.6</ele><time>2026-03-22T10:20:19.346Z</time></trkpt><trkpt lat="43.4380767" lon="11.5749233"><ele>545.4</ele><time>2026-03-22T10:20:20.345Z</time></trkpt><trkpt lat="43.4379883" lon="11.5748733"><ele>545.2</ele><time>2026-03-22T10:20:21.346Z</time></trkpt><trkpt lat="43.4378867" lon="11.5748517"><ele>545.0</ele><time>2026-03-22T10:20:22.346Z</time></trkpt><trkpt lat="43.4378017" lon="11.5748233"><ele>545.0</ele><time>2026-03-22T10:20:23.345Z</time></trkpt><trkpt lat="43.4377217" lon="11.574775"><ele>545.0</ele><time>2026-03-22T10:20:24.345Z</time></trkpt><trkpt lat="43.43766" lon="11.574695"><ele>545.0</ele><time>2026-03-22T10:20:25.346Z</time></trkpt><trkpt lat="43.4376217" lon="11.5745867"><ele>545.0</ele><time>2026-03-22T10:20:26.345Z</time></trkpt><trkpt lat="43.4376083" lon="11.5744467"><ele>545.0</ele><time>2026-03-22T10:20:27.346Z</time></trkpt><trkpt lat="43.437615" lon="11.574265"><ele>547.6</ele><time>2026-03-22T10:20:28.346Z</time></trkpt><trkpt lat="43.4376167" lon="11.5741017"><ele>550.2</ele><time>2026-03-22T10:20:29.346Z</time></trkpt><trkpt lat="43.437595" lon="11.5739617"><ele>552.8</ele><time>2026-03-22T10:20:30.345Z</time></trkpt><trkpt lat="43.4375433" lon="11.573865"><ele>555.4</ele><time>2026-03-22T10:20:31.345Z</time></trkpt><trkpt lat="43.4374667" lon="11.5737717"><ele>558.0</ele><time>2026-03-22T10:20:32.346Z</time></trkpt><trkpt lat="43.437355" lon="11.5736917"><ele>556.4</ele><time>2026-03-22T10:20:33.345Z</time></trkpt><trkpt lat="43.4372417" lon="11.5735983"><ele>554.8</ele><time>2026-03-22T10:20:34.346Z</time></trkpt><trkpt lat="43.437145" lon="11.573515"><ele>553.2</ele><time>2026-03-22T10:20:35.346Z</time></trkpt><trkpt lat="43.4370783" lon="11.57344"><ele>551.6</ele><time>2026-03-22T10:20:36.346Z</time></trkpt><trkpt lat="43.4370317" lon="11.57334"><ele>550.0</ele><time>2026-03-22T10:20:37.346Z</time></trkpt><trkpt lat="43.437005" lon="11.5732033"><ele>550.0</ele><time>2026-03-22T10:20:38.346Z</time></trkpt><trkpt lat="43.4369733" lon="11.5730617"><ele>550.0</ele><time>2026-03-22T10:20:39.346Z</time></trkpt><trkpt lat="43.4369367" lon="11.5729067"><ele>550.0</ele><time>2026-03-22T10:20:40.346Z</time></trkpt><trkpt lat="43.4368817" lon="11.5727317"><ele>550.0</ele><time>2026-03-22T10:20:41.346Z</time></trkpt><trkpt lat="43.43682" lon="11.5725583"><ele>553.75</ele><time>2026-03-22T10:20:42.345Z</time></trkpt><trkpt lat="43.4367667" lon="11.5723933"><ele>557.5</ele><time>2026-03-22T10:20:43.346Z</time></trkpt><trkpt lat="43.4367033" lon="11.5722483"><ele>561.25</ele><time>2026-03-22T10:20:44.345Z</time></trkpt><trkpt lat="43.4366283" lon="11.57211"><ele>565.0</ele><time>2026-03-22T10:20:45.345Z</time></trkpt><trkpt lat="43.43656" lon="11.5719833"><ele>569.5</ele><time>2026-03-22T10:20:46.345Z</time></trkpt><trkpt lat="43.4364933" lon="11.571855"><ele>574.0</ele><time>2026-03-22T10:20:47.345Z</time></trkpt><trkpt lat="43.4364367" lon="11.5717183"><ele>578.5</ele><time>2026-03-22T10:20:48.345Z</time></trkpt><trkpt lat="43.4364" lon="11.5715617"><ele>583.0</ele><time>2026-03-22T10:20:49.346Z</time></trkpt><trkpt lat="43.4363717" lon="11.5714017"><ele>583.0</ele><time>2026-03-22T10:20:50.346Z</time></trkpt><trkpt lat="43.4363433" lon="11.5712517"><ele>583.0</ele><time>2026-03-22T10:20:51.346Z</time></trkpt><trkpt lat="43.4362933" lon="11.571125"><ele>583.0</ele><time>2026-03-22T10:20:52.346Z</time></trkpt><trkpt lat="43.436245" lon="11.57101"><ele>583.0</ele><time>2026-03-22T10:20:53.346Z</time></trkpt><trkpt lat="43.4361917" lon="11.570905"><ele>583.0</ele><time>2026-03-22T10:20:54.346Z</time></trkpt><trkpt lat="43.4361183" lon="11.5708333"><ele>583.1999999999999</ele><time>2026-03-22T10:20:55.346Z</time></trkpt><trkpt lat="43.4360267" lon="11.5707883"><ele>583.4</ele><time>2026-03-22T10:20:56.346Z</time></trkpt><trkpt lat="43.43593" lon="11.5707583"><ele>583.5999999999999</ele><time>2026-03-22T10:20:57.346Z</time></trkpt><trkpt lat="43.4358133" lon="11.5707283"><ele>583.8</ele><time>2026-03-22T10:20:58.346Z</time></trkpt><trkpt lat="43.4356917" lon="11.5706767"><ele>584.0</ele><time>2026-03-22T10:20:59.346Z</time></trkpt><trkpt lat="43.4355817" lon="11.5706183"><ele>584.0</ele><time>2026-03-22T10:21:00.346Z</time></trkpt><trkpt lat="43.43548" lon="11.5705267"><ele>584.0</ele><time>2026-03-22T10:21:01.346Z</time></trkpt><trkpt lat="43.4353833" lon="11.5704333"><ele>584.0</ele><time>2026-03-22T10:21:02.346Z</time></trkpt><trkpt lat="43.4352783" lon="11.5703133"><ele>584.0</ele><time>2026-03-22T10:21:03.345Z</time></trkpt><trkpt lat="43.43517" lon="11.5701983"><ele>586.0</ele><time>2026-03-22T10:21:04.346Z</time></trkpt><trkpt lat="43.4350633" lon="11.57009"><ele>588.0</ele><time>2026-03-22T10:21:05.345Z</time></trkpt><trkpt lat="43.4349583" lon="11.5699833"><ele>590.0</ele><time>2026-03-22T10:21:06.346Z</time></trkpt><trkpt lat="43.4348433" lon="11.5698867"><ele>592.0</ele><time>2026-03-22T10:21:07.346Z</time></trkpt><trkpt lat="43.4347267" lon="11.5698183"><ele>591.5</ele><time>2026-03-22T10:21:08.345Z</time></trkpt><trkpt lat="43.434625" lon="11.5697467"><ele>591.0</ele><time>2026-03-22T10:21:09.346Z</time></trkpt><trkpt lat="43.4345117" lon="11.569725"><ele>590.5</ele><time>2026-03-22T10:21:10.346Z</time></trkpt><trkpt lat="43.4343967" lon="11.5697267"><ele>590.0</ele><time>2026-03-22T10:21:11.345Z</time></trkpt><trkpt lat="43.4342717" lon="11.5697333"><ele>590.0</ele><time>2026-03-22T10:21:12.346Z</time></trkpt><trkpt lat="43.4341233" lon="11.5697267"><ele>590.0</ele><time>2026-03-22T10:21:13.345Z</time></trkpt><trkpt lat="43.4339683" lon="11.56971"><ele>590.0</ele><time>2026-03-22T10:21:14.346Z</time></trkpt><trkpt lat="43.4338167" lon="11.56969"><ele>590.0</ele><time>2026-03-22T10:21:15.346Z</time></trkpt><trkpt lat="43.433675" lon="11.5696717"><ele>590.0</ele><time>2026-03-22T10:21:16.346Z</time></trkpt><trkpt lat="43.4335533" lon="11.56968"><ele>590.0</ele><time>2026-03-22T10:21:17.345Z</time></trkpt><trkpt lat="43.4334467" lon="11.5697117"><ele>590.0</ele><time>2026-03-22T10:21:18.345Z</time></trkpt><trkpt lat="43.4333383" lon="11.5697483"><ele>590.0</ele><time>2026-03-22T10:21:19.346Z</time></trkpt><trkpt lat="43.43325" lon="11.56977"><ele>590.0</ele><time>2026-03-22T10:21:20.346Z</time></trkpt><trkpt lat="43.4331733" lon="11.5697667"><ele>590.0</ele><time>2026-03-22T10:21:21.346Z</time></trkpt><trkpt lat="43.4331117" lon="11.5697417"><ele>590.0</ele><time>2026-03-22T10:21:22.345Z</time></trkpt><trkpt lat="43.4330533" lon="11.5697"><ele>590.0</ele><time>2026-03-22T10:21:23.345Z</time></trkpt><trkpt lat="43.43299" lon="11.5696267"><ele>590.0</ele><time>2026-03-22T10:21:24.346Z</time></trkpt><trkpt lat="43.4329083" lon="11.56954"><ele>592.1666666666666</ele><time>2026-03-22T10:21:25.346Z</time></trkpt><trkpt lat="43.4328267" lon="11.5694833"><ele>594.3333333333333</ele><time>2026-03-22T10:21:26.345Z</time></trkpt><trkpt lat="43.4327467" lon="11.5694567"><ele>596.5</ele><time>2026-03-22T10:21:27.346Z</time></trkpt><trkpt lat="43.432635" lon="11.5694617"><ele>598.6666666666666</ele><time>2026-03-22T10:21:29.345Z</time></trkpt><trkpt lat="43.43256" lon="11.5694517"><ele>600.8333333333334</ele><time>2026-03-22T10:21:30.346Z</time></trkpt><trkpt lat="43.4324783" lon="11.5694267"><ele>603.0</ele><time>2026-03-22T10:21:31.346Z</time></trkpt><trkpt lat="43.4324067" lon="11.569395"><ele>603.0</ele><time>2026-03-22T10:21:32.346Z</time></trkpt><trkpt lat="43.43233" lon="11.5693533"><ele>603.0</ele><time>2026-03-22T10:21:33.346Z</time></trkpt><trkpt lat="43.432255" lon="11.569295"><ele>603.0</ele><time>2026-03-22T10:21:34.346Z</time></trkpt><trkpt lat="43.432185" lon="11.56928"><ele>603.0</ele><time>2026-03-22T10:21:35.346Z</time></trkpt><trkpt lat="43.43212" lon="11.5692817"><ele>603.0</ele><time>2026-03-22T10:21:36.346Z</time></trkpt><trkpt lat="43.432065" lon="11.5693267"><ele>603.0</ele><time>2026-03-22T10:21:37.346Z</time></trkpt><trkpt lat="43.4320133" lon="11.5693767"><ele>603.0</ele><time>2026-03-22T10:21:38.346Z</time></trkpt><trkpt lat="43.4318783" lon="11.56936"><ele>605.4</ele><time>2026-03-22T10:21:40.346Z</time></trkpt><trkpt lat="43.4318017" lon="11.5692967"><ele>607.8</ele><time>2026-03-22T10:21:41.346Z</time></trkpt><trkpt lat="43.4317067" lon="11.5692067"><ele>610.2</ele><time>2026-03-22T10:21:42.346Z</time></trkpt><trkpt lat="43.4316183" lon="11.56912"><ele>612.6</ele><time>2026-03-22T10:21:43.346Z</time></trkpt><trkpt lat="43.4315283" lon="11.5690533"><ele>615.0</ele><time>2026-03-22T10:21:44.346Z</time></trkpt><trkpt lat="43.4314483" lon="11.568995"><ele>615.0</ele><time>2026-03-22T10:21:45.346Z</time></trkpt><trkpt lat="43.4313717" lon="11.56894"><ele>615.0</ele><time>2026-03-22T10:21:46.346Z</time></trkpt><trkpt lat="43.431295" lon="11.56888"><ele>615.0</ele><time>2026-03-22T10:21:47.346Z</time></trkpt><trkpt lat="43.4312167" lon="11.5688383"><ele>615.0</ele><time>2026-03-22T10:21:48.346Z</time></trkpt><trkpt lat="43.43113" lon="11.568815"><ele>615.0</ele><time>2026-03-22T10:21:49.345Z</time></trkpt><trkpt lat="43.431045" lon="11.56882"><ele>615.0</ele><time>2026-03-22T10:21:50.346Z</time></trkpt><trkpt lat="43.4309483" lon="11.56884"><ele>614.3333333333334</ele><time>2026-03-22T10:21:51.346Z</time></trkpt><trkpt lat="43.4308683" lon="11.5688417"><ele>613.6666666666666</ele><time>2026-03-22T10:21:52.346Z</time></trkpt><trkpt lat="43.4307883" lon="11.5688183"><ele>613.0</ele><time>2026-03-22T10:21:53.346Z</time></trkpt><trkpt lat="43.43072" lon="11.56877"><ele>612.3333333333333</ele><time>2026-03-22T10:21:54.346Z</time></trkpt><trkpt lat="43.4306433" lon="11.568715"><ele>611.6666666666666</ele><time>2026-03-22T10:21:55.345Z</time></trkpt><trkpt lat="43.4305517" lon="11.568655"><ele>611.0</ele><time>2026-03-22T10:21:56.345Z</time></trkpt><trkpt lat="43.4304617" lon="11.5686017"><ele>613.5</ele><time>2026-03-22T10:21:57.345Z</time></trkpt><trkpt lat="43.4304033" lon="11.5685367"><ele>616.0</ele><time>2026-03-22T10:21:58.346Z</time></trkpt><trkpt lat="43.43036" lon="11.5684667"><ele>618.5</ele><time>2026-03-22T10:21:59.346Z</time></trkpt><trkpt lat="43.4303167" lon="11.56838"><ele>621.0</ele><time>2026-03-22T10:22:00.345Z</time></trkpt><trkpt lat="43.430275" lon="11.5682767"><ele>623.5</ele><time>2026-03-22T10:22:01.346Z</time></trkpt><trkpt lat="43.4302233" lon="11.5681467"><ele>626.0</ele><time>2026-03-22T10:22:02.346Z</time></trkpt><trkpt lat="43.4301533" lon="11.5680133"><ele>626.0</ele><time>2026-03-22T10:22:03.346Z</time></trkpt><trkpt lat="43.4300817" lon="11.5678767"><ele>626.0</ele><time>2026-03-22T10:22:04.346Z</time></trkpt><trkpt lat="43.43002" lon="11.5677317"><ele>626.0</ele><time>2026-03-22T10:22:05.345Z</time></trkpt><trkpt lat="43.4299533" lon="11.5675883"><ele>626.0</ele><time>2026-03-22T10:22:06.346Z</time></trkpt><trkpt lat="43.4298933" lon="11.5674683"><ele>627.6666666666666</ele><time>2026-03-22T10:22:07.346Z</time></trkpt><trkpt lat="43.4298483" lon="11.567355"><ele>629.3333333333333</ele><time>2026-03-22T10:22:08.346Z</time></trkpt><trkpt lat="43.4297933" lon="11.567245"><ele>631.0</ele><time>2026-03-22T10:22:09.345Z</time></trkpt><trkpt lat="43.4297333" lon="11.567155"><ele>632.6666666666666</ele><time>2026-03-22T10:22:10.345Z</time></trkpt><trkpt lat="43.4296867" lon="11.56708"><ele>634.3333333333334</ele><time>2026-03-22T10:22:11.346Z</time></trkpt><trkpt lat="43.429655" lon="11.5669983"><ele>636.0</ele><time>2026-03-22T10:22:12.346Z</time></trkpt><trkpt lat="43.42963" lon="11.5669067"><ele>632.0</ele><time>2026-03-22T10:22:13.346Z</time></trkpt><trkpt lat="43.4296217" lon="11.5667883"><ele>628.0</ele><time>2026-03-22T10:22:14.346Z</time></trkpt><trkpt lat="43.42962" lon="11.5666767"><ele>624.0</ele><time>2026-03-22T10:22:15.346Z</time></trkpt><trkpt lat="43.4296333" lon="11.56656"><ele>620.0</ele><time>2026-03-22T10:22:16.346Z</time></trkpt><trkpt lat="43.429635" lon="11.5664433"><ele>616.0</ele><time>2026-03-22T10:22:17.345Z</time></trkpt><trkpt lat="43.429625" lon="11.5663333"><ele>612.0</ele><time>2026-03-22T10:22:18.346Z</time></trkpt><trkpt lat="43.42959" lon="11.5662067"><ele>613.4</ele><time>2026-03-22T10:22:19.346Z</time></trkpt><trkpt lat="43.4295317" lon="11.566065"><ele>614.8000000000001</ele><time>2026-03-22T10:22:20.345Z</time></trkpt><trkpt lat="43.429475" lon="11.5659483"><ele>616.2</ele><time>2026-03-22T10:22:21.345Z</time></trkpt><trkpt lat="43.4294333" lon="11.5658417"><ele>617.6</ele><time>2026-03-22T10:22:22.346Z</time></trkpt><trkpt lat="43.4293883" lon="11.565745"><ele>619.0</ele><time>2026-03-22T10:22:23.345Z</time></trkpt><trkpt lat="43.429335" lon="11.5656417"><ele>619.0</ele><time>2026-03-22T10:22:24.346Z</time></trkpt><trkpt lat="43.429275" lon="11.565535"><ele>619.0</ele><time>2026-03-22T10:22:25.346Z</time></trkpt><trkpt lat="43.4292083" lon="11.565415"><ele>619.0</ele><time>2026-03-22T10:22:26.346Z</time></trkpt><trkpt lat="43.429145" lon="11.565315"><ele>619.0</ele><time>2026-03-22T10:22:27.346Z</time></trkpt><trkpt lat="43.4290833" lon="11.5652233"><ele>619.0</ele><time>2026-03-22T10:22:28.346Z</time></trkpt><trkpt lat="43.4290267" lon="11.5651267"><ele>619.0</ele><time>2026-03-22T10:22:29.345Z</time></trkpt><trkpt lat="43.4289883" lon="11.565015"><ele>619.0</ele><time>2026-03-22T10:22:30.346Z</time></trkpt><trkpt lat="43.4289533" lon="11.5649133"><ele>619.0</ele><time>2026-03-22T10:22:31.346Z</time></trkpt><trkpt lat="43.4289167" lon="11.5648283"><ele>619.0</ele><time>2026-03-22T10:22:32.346Z</time></trkpt><trkpt lat="43.4288367" lon="11.56471"><ele>619.0</ele><time>2026-03-22T10:22:34.345Z</time></trkpt><trkpt lat="43.428735" lon="11.5646617"><ele>616.8333333333334</ele><time>2026-03-22T10:22:36.346Z</time></trkpt><trkpt lat="43.4286383" lon="11.5646733"><ele>614.6666666666667</ele><time>2026-03-22T10:22:38.346Z</time></trkpt><trkpt lat="43.42854" lon="11.5647217"><ele>612.5</ele><time>2026-03-22T10:22:40.346Z</time></trkpt><trkpt lat="43.4284717" lon="11.5648167"><ele>610.3333333333334</ele><time>2026-03-22T10:22:42.345Z</time></trkpt><trkpt lat="43.4284467" lon="11.5649017"><ele>608.1666666666666</ele><time>2026-03-22T10:22:44.346Z</time></trkpt><trkpt lat="43.42843" lon="11.5649933"><ele>606.0</ele><time>2026-03-22T10:22:46.346Z</time></trkpt><trkpt lat="43.4284133" lon="11.5650783"><ele>606.0</ele><time>2026-03-22T10:22:56.346Z</time></trkpt><trkpt lat="43.4284533" lon="11.5651483"><ele>606.0</ele><time>2026-03-22T10:22:58.346Z</time></trkpt><trkpt lat="43.4283883" lon="11.565"><ele>606.0</ele><time>2026-03-22T10:23:14.346Z</time></trkpt><trkpt lat="43.428325" lon="11.5649"><ele>606.0</ele><time>2026-03-22T10:23:15.346Z</time></trkpt><trkpt lat="43.4282567" lon="11.5648083"><ele>606.0</ele><time>2026-03-22T10:23:16.346Z</time></trkpt><trkpt lat="43.4281867" lon="11.5647333"><ele>606.0</ele><time>2026-03-22T10:23:17.346Z</time></trkpt><trkpt lat="43.42811" lon="11.5646667"><ele>606.0</ele><time>2026-03-22T10:23:18.346Z</time></trkpt><trkpt lat="43.4280167" lon="11.564615"><ele>606.0</ele><time>2026-03-22T10:23:19.346Z</time></trkpt><trkpt lat="43.4279133" lon="11.5645767"><ele>606.0</ele><time>2026-03-22T10:23:20.346Z</time></trkpt><trkpt lat="43.427805" lon="11.5645283"><ele>606.0</ele><time>2026-03-22T10:23:21.346Z</time></trkpt><trkpt lat="43.4276883" lon="11.5645067"><ele>606.0</ele><time>2026-03-22T10:23:22.346Z</time></trkpt><trkpt lat="43.4275883" lon="11.5645017"><ele>606.0</ele><time>2026-03-22T10:23:23.346Z</time></trkpt><trkpt lat="43.4274983" lon="11.5645217"><ele>606.0</ele><time>2026-03-22T10:23:24.346Z</time></trkpt><trkpt lat="43.4274217" lon="11.564565"><ele>606.0</ele><time>2026-03-22T10:23:25.346Z</time></trkpt><trkpt lat="43.4273617" lon="11.56463"><ele>606.0</ele><time>2026-03-22T10:23:26.346Z</time></trkpt><trkpt lat="43.4273" lon="11.5647167"><ele>606.0</ele><time>2026-03-22T10:23:27.345Z</time></trkpt><trkpt lat="43.42724" lon="11.5647767"><ele>604.5</ele><time>2026-03-22T10:23:28.346Z</time></trkpt><trkpt lat="43.427175" lon="11.564815"><ele>603.0</ele><time>2026-03-22T10:23:29.346Z</time></trkpt><trkpt lat="43.4270917" lon="11.5648383"><ele>601.5</ele><time>2026-03-22T10:23:30.346Z</time></trkpt><trkpt lat="43.4269917" lon="11.5648183"><ele>600.0</ele><time>2026-03-22T10:23:31.345Z</time></trkpt><trkpt lat="43.4268883" lon="11.5647967"><ele>598.5</ele><time>2026-03-22T10:23:32.346Z</time></trkpt><trkpt lat="43.4268033" lon="11.5647917"><ele>597.0</ele><time>2026-03-22T10:23:33.346Z</time></trkpt><trkpt lat="43.426725" lon="11.5648083"><ele>597.0</ele><time>2026-03-22T10:23:34.345Z</time></trkpt><trkpt lat="43.4266383" lon="11.5648133"><ele>597.0</ele><time>2026-03-22T10:23:35.346Z</time></trkpt><trkpt lat="43.42655" lon="11.5648117"><ele>597.0</ele><time>2026-03-22T10:23:36.346Z</time></trkpt><trkpt lat="43.4264483" lon="11.5648067"><ele>597.0</ele><time>2026-03-22T10:23:37.346Z</time></trkpt><trkpt lat="43.4263367" lon="11.564825"><ele>597.0</ele><time>2026-03-22T10:23:38.345Z</time></trkpt><trkpt lat="43.4262217" lon="11.56484"><ele>597.0</ele><time>2026-03-22T10:23:39.346Z</time></trkpt><trkpt lat="43.4261" lon="11.5648683"><ele>597.0</ele><time>2026-03-22T10:23:40.345Z</time></trkpt><trkpt lat="43.425995" lon="11.5649"><ele>597.0</ele><time>2026-03-22T10:23:41.346Z</time></trkpt><trkpt lat="43.425885" lon="11.56495"><ele>597.0</ele><time>2026-03-22T10:23:42.346Z</time></trkpt><trkpt lat="43.42577" lon="11.5649833"><ele>597.0</ele><time>2026-03-22T10:23:43.345Z</time></trkpt><trkpt lat="43.4256683" lon="11.5650017"><ele>597.0</ele><time>2026-03-22T10:23:44.346Z</time></trkpt><trkpt lat="43.4255617" lon="11.5649917"><ele>597.0</ele><time>2026-03-22T10:23:45.346Z</time></trkpt><trkpt lat="43.4254433" lon="11.564975"><ele>597.0</ele><time>2026-03-22T10:23:46.346Z</time></trkpt><trkpt lat="43.425335" lon="11.564955"><ele>597.0</ele><time>2026-03-22T10:23:47.346Z</time></trkpt><trkpt lat="43.4252217" lon="11.5649183"><ele>597.25</ele><time>2026-03-22T10:23:48.346Z</time></trkpt><trkpt lat="43.42511" lon="11.564865"><ele>597.5</ele><time>2026-03-22T10:23:49.345Z</time></trkpt><trkpt lat="43.425005" lon="11.56481"><ele>597.75</ele><time>2026-03-22T10:23:50.346Z</time></trkpt><trkpt lat="43.4249033" lon="11.5647417"><ele>598.0</ele><time>2026-03-22T10:23:51.345Z</time></trkpt><trkpt lat="43.4247883" lon="11.564695"><ele>598.0</ele><time>2026-03-22T10:23:52.345Z</time></trkpt><trkpt lat="43.4246833" lon="11.5646433"><ele>598.0</ele><time>2026-03-22T10:23:53.346Z</time></trkpt><trkpt lat="43.4245883" lon="11.5646017"><ele>598.0</ele><time>2026-03-22T10:23:54.346Z</time></trkpt><trkpt lat="43.424505" lon="11.56453"><ele>598.0</ele><time>2026-03-22T10:23:55.346Z</time></trkpt><trkpt lat="43.4244183" lon="11.5644533"><ele>598.0</ele><time>2026-03-22T10:23:56.346Z</time></trkpt><trkpt lat="43.4243433" lon="11.5643867"><ele>598.1666666666667</ele><time>2026-03-22T10:23:57.346Z</time></trkpt><trkpt lat="43.4242733" lon="11.5643383"><ele>598.3333333333334</ele><time>2026-03-22T10:23:58.346Z</time></trkpt><trkpt lat="43.4242033" lon="11.56431"><ele>598.5</ele><time>2026-03-22T10:23:59.346Z</time></trkpt><trkpt lat="43.4241267" lon="11.564325"><ele>598.6666666666666</ele><time>2026-03-22T10:24:00.346Z</time></trkpt><trkpt lat="43.4240383" lon="11.56435"><ele>598.8333333333333</ele><time>2026-03-22T10:24:01.346Z</time></trkpt><trkpt lat="43.4239433" lon="11.5644017"><ele>599.0</ele><time>2026-03-22T10:24:02.346Z</time></trkpt><trkpt lat="43.4238383" lon="11.5644483"><ele>599.25</ele><time>2026-03-22T10:24:03.346Z</time></trkpt><trkpt lat="43.4237117" lon="11.56446"><ele>599.5</ele><time>2026-03-22T10:24:04.345Z</time></trkpt><trkpt lat="43.423575" lon="11.5644417"><ele>599.75</ele><time>2026-03-22T10:24:05.346Z</time></trkpt><trkpt lat="43.423435" lon="11.5644283"><ele>600.0</ele><time>2026-03-22T10:24:06.346Z</time></trkpt><trkpt lat="43.4232767" lon="11.564415"><ele>600.0</ele><time>2026-03-22T10:24:07.346Z</time></trkpt><trkpt lat="43.42313" lon="11.564395"><ele>600.0</ele><time>2026-03-22T10:24:08.345Z</time></trkpt><trkpt lat="43.4229933" lon="11.5643667"><ele>600.0</ele><time>2026-03-22T10:24:09.346Z</time></trkpt><trkpt lat="43.42288" lon="11.5643383"><ele>600.0</ele><time>2026-03-22T10:24:10.345Z</time></trkpt><trkpt lat="43.4227867" lon="11.5643083"><ele>599.4</ele><time>2026-03-22T10:24:11.346Z</time></trkpt><trkpt lat="43.4226817" lon="11.5642933"><ele>598.8</ele><time>2026-03-22T10:24:12.345Z</time></trkpt><trkpt lat="43.422575" lon="11.564295"><ele>598.2</ele><time>2026-03-22T10:24:13.346Z</time></trkpt><trkpt lat="43.4224667" lon="11.5643167"><ele>597.6</ele><time>2026-03-22T10:24:14.345Z</time></trkpt><trkpt lat="43.422355" lon="11.5643467"><ele>597.0</ele><time>2026-03-22T10:24:15.346Z</time></trkpt><trkpt lat="43.4222483" lon="11.5643683"><ele>594.25</ele><time>2026-03-22T10:24:16.346Z</time></trkpt><trkpt lat="43.42214" lon="11.5643833"><ele>591.5</ele><time>2026-03-22T10:24:17.346Z</time></trkpt><trkpt lat="43.4220167" lon="11.564385"><ele>588.75</ele><time>2026-03-22T10:24:18.346Z</time></trkpt><trkpt lat="43.4218833" lon="11.5643783"><ele>586.0</ele><time>2026-03-22T10:24:19.346Z</time></trkpt><trkpt lat="43.4217433" lon="11.5643517"><ele>586.0</ele><time>2026-03-22T10:24:20.346Z</time></trkpt><trkpt lat="43.4216183" lon="11.5643217"><ele>586.0</ele><time>2026-03-22T10:24:21.346Z</time></trkpt><trkpt lat="43.4214967" lon="11.56431"><ele>586.0</ele><time>2026-03-22T10:24:22.345Z</time></trkpt><trkpt lat="43.4213883" lon="11.564325"><ele>586.0</ele><time>2026-03-22T10:24:23.346Z</time></trkpt><trkpt lat="43.4212967" lon="11.564355"><ele>584.0</ele><time>2026-03-22T10:24:24.346Z</time></trkpt><trkpt lat="43.421215" lon="11.5643917"><ele>582.0</ele><time>2026-03-22T10:24:25.346Z</time></trkpt><trkpt lat="43.42113" lon="11.56444"><ele>580.0</ele><time>2026-03-22T10:24:26.345Z</time></trkpt><trkpt lat="43.42105" lon="11.5645017"><ele>578.0</ele><time>2026-03-22T10:24:27.346Z</time></trkpt><trkpt lat="43.42098" lon="11.5645633"><ele>576.0</ele><time>2026-03-22T10:24:28.346Z</time></trkpt><trkpt lat="43.4209183" lon="11.5646117"><ele>574.0</ele><time>2026-03-22T10:24:29.345Z</time></trkpt><trkpt lat="43.4208233" lon="11.5646617"><ele>574.0</ele><time>2026-03-22T10:24:31.346Z</time></trkpt><trkpt lat="43.4207533" lon="11.5646167"><ele>574.0</ele><time>2026-03-22T10:24:33.346Z</time></trkpt><trkpt lat="43.420695" lon="11.5645183"><ele>574.0</ele><time>2026-03-22T10:24:35.346Z</time></trkpt><trkpt lat="43.4206367" lon="11.5643933"><ele>574.0</ele><time>2026-03-22T10:24:37.346Z</time></trkpt><trkpt lat="43.4205967" lon="11.5642667"><ele>574.0</ele><time>2026-03-22T10:24:39.345Z</time></trkpt><trkpt lat="43.4206017" lon="11.564105"><ele>574.0</ele><time>2026-03-22T10:24:41.346Z</time></trkpt><trkpt lat="43.4206633" lon="11.5639733"><ele>574.0</ele><time>2026-03-22T10:24:43.346Z</time></trkpt><trkpt lat="43.4207217" lon="11.5639183"><ele>574.0</ele><time>2026-03-22T10:24:44.346Z</time></trkpt><trkpt lat="43.4208" lon="11.5638617"><ele>574.0</ele><time>2026-03-22T10:24:45.346Z</time></trkpt><trkpt lat="43.42089" lon="11.5637983"><ele>574.0</ele><time>2026-03-22T10:24:46.345Z</time></trkpt><trkpt lat="43.42099" lon="11.563715"><ele>571.25</ele><time>2026-03-22T10:24:47.346Z</time></trkpt><trkpt lat="43.421085" lon="11.563625"><ele>568.5</ele><time>2026-03-22T10:24:48.346Z</time></trkpt><trkpt lat="43.4211783" lon="11.563515"><ele>565.75</ele><time>2026-03-22T10:24:49.346Z</time></trkpt><trkpt lat="43.4212467" lon="11.5633933"><ele>563.0</ele><time>2026-03-22T10:24:50.345Z</time></trkpt><trkpt lat="43.4213083" lon="11.5632717"><ele>566.1999999999999</ele><time>2026-03-22T10:24:51.346Z</time></trkpt><trkpt lat="43.4213633" lon="11.5631617"><ele>569.4</ele><time>2026-03-22T10:24:52.346Z</time></trkpt><trkpt lat="43.4214017" lon="11.563055"><ele>572.5999999999999</ele><time>2026-03-22T10:24:53.346Z</time></trkpt><trkpt lat="43.4214333" lon="11.5629333"><ele>575.8</ele><time>2026-03-22T10:24:54.346Z</time></trkpt><trkpt lat="43.4214583" lon="11.5628067"><ele>579.0</ele><time>2026-03-22T10:24:55.346Z</time></trkpt><trkpt lat="43.421485" lon="11.5626767"><ele>579.0</ele><time>2026-03-22T10:24:56.346Z</time></trkpt><trkpt lat="43.42152" lon="11.5625267"><ele>579.0</ele><time>2026-03-22T10:24:57.346Z</time></trkpt><trkpt lat="43.4215417" lon="11.5623783"><ele>579.0</ele><time>2026-03-22T10:24:58.345Z</time></trkpt><trkpt lat="43.4215533" lon="11.5622283"><ele>579.0</ele><time>2026-03-22T10:24:59.346Z</time></trkpt><trkpt lat="43.421545" lon="11.5620867"><ele>579.0</ele><time>2026-03-22T10:25:00.346Z</time></trkpt><trkpt lat="43.4215317" lon="11.5619617"><ele>577.6</ele><time>2026-03-22T10:25:01.346Z</time></trkpt><trkpt lat="43.4215083" lon="11.5618367"><ele>576.2</ele><time>2026-03-22T10:25:02.346Z</time></trkpt><trkpt lat="43.421475" lon="11.5617133"><ele>574.8000000000001</ele><time>2026-03-22T10:25:03.346Z</time></trkpt><trkpt lat="43.4214517" lon="11.56159"><ele>573.4</ele><time>2026-03-22T10:25:04.345Z</time></trkpt><trkpt lat="43.4214383" lon="11.56146"><ele>572.0</ele><time>2026-03-22T10:25:05.346Z</time></trkpt><trkpt lat="43.42144" lon="11.5613133"><ele>569.8000000000001</ele><time>2026-03-22T10:25:06.346Z</time></trkpt><trkpt lat="43.421445" lon="11.561165"><ele>567.6</ele><time>2026-03-22T10:25:07.346Z</time></trkpt><trkpt lat="43.42145" lon="11.56105"><ele>565.4000000000001</ele><time>2026-03-22T10:25:08.345Z</time></trkpt><trkpt lat="43.42143" lon="11.560925"><ele>563.2</ele><time>2026-03-22T10:25:09.346Z</time></trkpt><trkpt lat="43.42139" lon="11.5608117"><ele>561.0</ele><time>2026-03-22T10:25:10.346Z</time></trkpt><trkpt lat="43.42134" lon="11.5606983"><ele>559.5</ele><time>2026-03-22T10:25:11.346Z</time></trkpt><trkpt lat="43.4212983" lon="11.5605967"><ele>558.0</ele><time>2026-03-22T10:25:12.345Z</time></trkpt><trkpt lat="43.4212767" lon="11.5604983"><ele>556.5</ele><time>2026-03-22T10:25:13.346Z</time></trkpt><trkpt lat="43.4212633" lon="11.5603533"><ele>555.0</ele><time>2026-03-22T10:25:15.345Z</time></trkpt><trkpt lat="43.4212717" lon="11.5602583"><ele>553.5</ele><time>2026-03-22T10:25:17.346Z</time></trkpt><trkpt lat="43.42126" lon="11.5603483"><ele>552.0</ele><time>2026-03-22T10:25:48.346Z</time></trkpt><trkpt lat="43.4212583" lon="11.5605267"><ele>552.0</ele><time>2026-03-22T10:25:50.347Z</time></trkpt><trkpt lat="43.421275" lon="11.560615"><ele>552.0</ele><time>2026-03-22T10:25:51.347Z</time></trkpt><trkpt lat="43.4213017" lon="11.5606967"><ele>552.0</ele><time>2026-03-22T10:25:52.346Z</time></trkpt><trkpt lat="43.4213633" lon="11.5608567"><ele>552.0</ele><time>2026-03-22T10:25:54.347Z</time></trkpt><trkpt lat="43.4214033" lon="11.5610283"><ele>552.0</ele><time>2026-03-22T10:25:56.347Z</time></trkpt><trkpt lat="43.42141" lon="11.5611333"><ele>555.3333333333334</ele><time>2026-03-22T10:25:57.347Z</time></trkpt><trkpt lat="43.421405" lon="11.5612533"><ele>558.6666666666666</ele><time>2026-03-22T10:25:58.347Z</time></trkpt><trkpt lat="43.4214033" lon="11.5613817"><ele>562.0</ele><time>2026-03-22T10:25:59.347Z</time></trkpt><trkpt lat="43.4214033" lon="11.5615"><ele>565.3333333333333</ele><time>2026-03-22T10:26:00.346Z</time></trkpt><trkpt lat="43.4214017" lon="11.5616067"><ele>568.6666666666666</ele><time>2026-03-22T10:26:01.347Z</time></trkpt><trkpt lat="43.4214083" lon="11.5616933"><ele>572.0</ele><time>2026-03-22T10:26:02.347Z</time></trkpt><trkpt lat="43.4214483" lon="11.5618533"><ele>572.0</ele><time>2026-03-22T10:26:04.347Z</time></trkpt><trkpt lat="43.421475" lon="11.5619467"><ele>572.0</ele><time>2026-03-22T10:26:05.347Z</time></trkpt><trkpt lat="43.4214983" lon="11.5620483"><ele>572.0</ele><time>2026-03-22T10:26:06.347Z</time></trkpt><trkpt lat="43.421515" lon="11.5621717"><ele>572.0</ele><time>2026-03-22T10:26:07.347Z</time></trkpt><trkpt lat="43.4215117" lon="11.5623033"><ele>572.0</ele><time>2026-03-22T10:26:08.346Z</time></trkpt><trkpt lat="43.4214967" lon="11.562445"><ele>572.0</ele><time>2026-03-22T10:26:09.347Z</time></trkpt><trkpt lat="43.4214733" lon="11.562585"><ele>573.1666666666666</ele><time>2026-03-22T10:26:10.346Z</time></trkpt><trkpt lat="43.4214417" lon="11.562705"><ele>574.3333333333333</ele><time>2026-03-22T10:26:11.347Z</time></trkpt><trkpt lat="43.4213967" lon="11.5628167"><ele>575.5</ele><time>2026-03-22T10:26:12.346Z</time></trkpt><trkpt lat="43.4213633" lon="11.5629217"><ele>576.6666666666666</ele><time>2026-03-22T10:26:13.347Z</time></trkpt><trkpt lat="43.421345" lon="11.5630333"><ele>577.8333333333334</ele><time>2026-03-22T10:26:14.347Z</time></trkpt><trkpt lat="43.4213233" lon="11.56313"><ele>579.0</ele><time>2026-03-22T10:26:15.347Z</time></trkpt><trkpt lat="43.4212733" lon="11.5632833"><ele>578.1666666666666</ele><time>2026-03-22T10:26:17.347Z</time></trkpt><trkpt lat="43.42123" lon="11.563355"><ele>577.3333333333334</ele><time>2026-03-22T10:26:18.347Z</time></trkpt><trkpt lat="43.42119" lon="11.5634417"><ele>576.5</ele><time>2026-03-22T10:26:19.346Z</time></trkpt><trkpt lat="43.4211283" lon="11.5635283"><ele>575.6666666666667</ele><time>2026-03-22T10:26:20.347Z</time></trkpt><trkpt lat="43.4210567" lon="11.5636317"><ele>574.8333333333334</ele><time>2026-03-22T10:26:21.346Z</time></trkpt><trkpt lat="43.42098" lon="11.56373"><ele>574.0</ele><time>2026-03-22T10:26:22.347Z</time></trkpt><trkpt lat="43.42091" lon="11.5638183"><ele>574.0</ele><time>2026-03-22T10:26:23.347Z</time></trkpt><trkpt lat="43.4208333" lon="11.5638917"><ele>574.0</ele><time>2026-03-22T10:26:24.346Z</time></trkpt><trkpt lat="43.4207417" lon="11.5639433"><ele>574.0</ele><time>2026-03-22T10:26:25.347Z</time></trkpt><trkpt lat="43.4206683" lon="11.563985"><ele>574.0</ele><time>2026-03-22T10:26:26.347Z</time></trkpt><trkpt lat="43.42058" lon="11.5640683"><ele>574.0</ele><time>2026-03-22T10:26:28.347Z</time></trkpt><trkpt lat="43.420565" lon="11.5641817"><ele>574.0</ele><time>2026-03-22T10:26:31.347Z</time></trkpt><trkpt lat="43.4206" lon="11.5643167"><ele>574.0</ele><time>2026-03-22T10:26:34.347Z</time></trkpt><trkpt lat="43.4206417" lon="11.564435"><ele>574.0</ele><time>2026-03-22T10:26:36.347Z</time></trkpt><trkpt lat="43.4206983" lon="11.56457"><ele>574.0</ele><time>2026-03-22T10:26:38.347Z</time></trkpt><trkpt lat="43.4207883" lon="11.5646617"><ele>574.0</ele><time>2026-03-22T10:26:40.347Z</time></trkpt><trkpt lat="43.4208783" lon="11.5646767"><ele>573.1666666666667</ele><time>2026-03-22T10:26:42.347Z</time></trkpt><trkpt lat="43.4209133" lon="11.5647617"><ele>572.3333333333334</ele><time>2026-03-22T10:27:15.346Z</time></trkpt><trkpt lat="43.42086" lon="11.5648583"><ele>571.5</ele><time>2026-03-22T10:27:17.346Z</time></trkpt><trkpt lat="43.4207933" lon="11.5649583"><ele>570.6666666666666</ele><time>2026-03-22T10:27:19.347Z</time></trkpt><trkpt lat="43.4207267" lon="11.5650567"><ele>569.8333333333333</ele><time>2026-03-22T10:27:21.347Z</time></trkpt><trkpt lat="43.4206533" lon="11.5651367"><ele>569.0</ele><time>2026-03-22T10:27:23.346Z</time></trkpt><trkpt lat="43.4205817" lon="11.56518"><ele>569.0</ele><time>2026-03-22T10:27:25.347Z</time></trkpt><trkpt lat="43.4205167" lon="11.5652133"><ele>569.0</ele><time>2026-03-22T10:27:27.346Z</time></trkpt><trkpt lat="43.4204533" lon="11.5652283"><ele>569.0</ele><time>2026-03-22T10:27:29.347Z</time></trkpt><trkpt lat="43.4203883" lon="11.5652183"><ele>569.0</ele><time>2026-03-22T10:27:44.347Z</time></trkpt><trkpt lat="43.4202817" lon="11.565225"><ele>569.0</ele><time>2026-03-22T10:27:47.347Z</time></trkpt><trkpt lat="43.4202133" lon="11.565235"><ele>569.0</ele><time>2026-03-22T10:27:48.347Z</time></trkpt><trkpt lat="43.420125" lon="11.5652433"><ele>566.5</ele><time>2026-03-22T10:27:49.347Z</time></trkpt><trkpt lat="43.4200117" lon="11.5652417"><ele>564.0</ele><time>2026-03-22T10:27:50.347Z</time></trkpt><trkpt lat="43.4198817" lon="11.5652267"><ele>561.5</ele><time>2026-03-22T10:27:51.347Z</time></trkpt><trkpt lat="43.4197483" lon="11.5651967"><ele>559.0</ele><time>2026-03-22T10:27:52.347Z</time></trkpt><trkpt lat="43.4196167" lon="11.565165"><ele>557.5</ele><time>2026-03-22T10:27:53.347Z</time></trkpt><trkpt lat="43.4194683" lon="11.5651083"><ele>556.0</ele><time>2026-03-22T10:27:54.347Z</time></trkpt><trkpt lat="43.4193317" lon="11.565055"><ele>554.5</ele><time>2026-03-22T10:27:55.347Z</time></trkpt><trkpt lat="43.4192017" lon="11.56498"><ele>553.0</ele><time>2026-03-22T10:27:56.347Z</time></trkpt><trkpt lat="43.4190933" lon="11.5649083"><ele>553.0</ele><time>2026-03-22T10:27:57.346Z</time></trkpt><trkpt lat="43.4189833" lon="11.5648283"><ele>553.0</ele><time>2026-03-22T10:27:58.347Z</time></trkpt><trkpt lat="43.41887" lon="11.5647433"><ele>553.0</ele><time>2026-03-22T10:27:59.347Z</time></trkpt><trkpt lat="43.4187533" lon="11.564665"><ele>553.0</ele><time>2026-03-22T10:28:00.347Z</time></trkpt><trkpt lat="43.4186533" lon="11.5646033"><ele>555.0</ele><time>2026-03-22T10:28:01.346Z</time></trkpt><trkpt lat="43.4185483" lon="11.5645733"><ele>557.0</ele><time>2026-03-22T10:28:02.346Z</time></trkpt><trkpt lat="43.418425" lon="11.564565"><ele>559.0</ele><time>2026-03-22T10:28:03.346Z</time></trkpt><trkpt lat="43.4183067" lon="11.5645833"><ele>561.0</ele><time>2026-03-22T10:28:04.347Z</time></trkpt><trkpt lat="43.4182067" lon="11.5646117"><ele>561.0</ele><time>2026-03-22T10:28:05.347Z</time></trkpt><trkpt lat="43.4181167" lon="11.5646267"><ele>561.0</ele><time>2026-03-22T10:28:06.347Z</time></trkpt><trkpt lat="43.4180433" lon="11.5646333"><ele>561.0</ele><time>2026-03-22T10:28:07.347Z</time></trkpt><trkpt lat="43.417975" lon="11.5646117"><ele>561.0</ele><time>2026-03-22T10:28:08.347Z</time></trkpt><trkpt lat="43.4179167" lon="11.5644717"><ele>561.0</ele><time>2026-03-22T10:28:10.347Z</time></trkpt><trkpt lat="43.417905" lon="11.5643517"><ele>561.0</ele><time>2026-03-22T10:28:11.347Z</time></trkpt><trkpt lat="43.4178917" lon="11.5642383"><ele>563.4</ele><time>2026-03-22T10:28:12.347Z</time></trkpt><trkpt lat="43.4178667" lon="11.5641567"><ele>565.8</ele><time>2026-03-22T10:28:13.346Z</time></trkpt><trkpt lat="43.41779" lon="11.5640683"><ele>568.1999999999999</ele><time>2026-03-22T10:28:15.346Z</time></trkpt><trkpt lat="43.4176633" lon="11.5640317"><ele>570.6</ele><time>2026-03-22T10:28:17.347Z</time></trkpt><trkpt lat="43.4175733" lon="11.5640083"><ele>573.0</ele><time>2026-03-22T10:28:18.347Z</time></trkpt><trkpt lat="43.4174683" lon="11.563985"><ele>573.0</ele><time>2026-03-22T10:28:19.347Z</time></trkpt><trkpt lat="43.417355" lon="11.5639367"><ele>573.0</ele><time>2026-03-22T10:28:20.347Z</time></trkpt><trkpt lat="43.417225" lon="11.56387"><ele>573.0</ele><time>2026-03-22T10:28:21.347Z</time></trkpt><trkpt lat="43.4170883" lon="11.5637967"><ele>573.0</ele><time>2026-03-22T10:28:22.346Z</time></trkpt><trkpt lat="43.4169517" lon="11.563715"><ele>573.0</ele><time>2026-03-22T10:28:23.346Z</time></trkpt><trkpt lat="43.4168183" lon="11.5636417"><ele>573.0</ele><time>2026-03-22T10:28:24.346Z</time></trkpt><trkpt lat="43.41667" lon="11.56357"><ele>573.0</ele><time>2026-03-22T10:28:25.347Z</time></trkpt><trkpt lat="43.4165283" lon="11.5635117"><ele>573.0</ele><time>2026-03-22T10:28:26.347Z</time></trkpt><trkpt lat="43.416405" lon="11.5634633"><ele>573.75</ele><time>2026-03-22T10:28:27.347Z</time></trkpt><trkpt lat="43.4162883" lon="11.5634367"><ele>574.5</ele><time>2026-03-22T10:28:28.347Z</time></trkpt><trkpt lat="43.41617" lon="11.563405"><ele>575.25</ele><time>2026-03-22T10:28:29.347Z</time></trkpt><trkpt lat="43.4160517" lon="11.563375"><ele>576.0</ele><time>2026-03-22T10:28:30.347Z</time></trkpt><trkpt lat="43.4159417" lon="11.5633317"><ele>576.0</ele><time>2026-03-22T10:28:31.347Z</time></trkpt><trkpt lat="43.415835" lon="11.5632867"><ele>576.0</ele><time>2026-03-22T10:28:32.347Z</time></trkpt><trkpt lat="43.41572" lon="11.5632417"><ele>576.0</ele><time>2026-03-22T10:28:33.347Z</time></trkpt><trkpt lat="43.4156017" lon="11.563215"><ele>576.0</ele><time>2026-03-22T10:28:34.347Z</time></trkpt><trkpt lat="43.4154767" lon="11.5631883"><ele>577.5</ele><time>2026-03-22T10:28:35.347Z</time></trkpt><trkpt lat="43.4153683" lon="11.5631483"><ele>579.0</ele><time>2026-03-22T10:28:36.347Z</time></trkpt><trkpt lat="43.4152583" lon="11.5630717"><ele>580.5</ele><time>2026-03-22T10:28:37.347Z</time></trkpt><trkpt lat="43.4151617" lon="11.56298"><ele>582.0</ele><time>2026-03-22T10:28:38.347Z</time></trkpt><trkpt lat="43.4150733" lon="11.56291"><ele>582.0</ele><time>2026-03-22T10:28:39.347Z</time></trkpt><trkpt lat="43.4149883" lon="11.5628733"><ele>582.0</ele><time>2026-03-22T10:28:40.347Z</time></trkpt><trkpt lat="43.414905" lon="11.562885"><ele>582.0</ele><time>2026-03-22T10:28:41.346Z</time></trkpt><trkpt lat="43.414815" lon="11.562885"><ele>582.0</ele><time>2026-03-22T10:28:42.346Z</time></trkpt><trkpt lat="43.4147317" lon="11.5628717"><ele>582.0</ele><time>2026-03-22T10:28:43.346Z</time></trkpt><trkpt lat="43.4146483" lon="11.5628283"><ele>582.0</ele><time>2026-03-22T10:28:44.347Z</time></trkpt><trkpt lat="43.41457" lon="11.5627617"><ele>581.4</ele><time>2026-03-22T10:28:45.346Z</time></trkpt><trkpt lat="43.4144983" lon="11.5626717"><ele>580.8000000000001</ele><time>2026-03-22T10:28:46.347Z</time></trkpt><trkpt lat="43.4144133" lon="11.5625633"><ele>580.2</ele><time>2026-03-22T10:28:47.347Z</time></trkpt><trkpt lat="43.414345" lon="11.5624683"><ele>579.6</ele><time>2026-03-22T10:28:48.347Z</time></trkpt><trkpt lat="43.414295" lon="11.5623633"><ele>579.0</ele><time>2026-03-22T10:28:49.347Z</time></trkpt><trkpt lat="43.414265" lon="11.5622567"><ele>579.0</ele><time>2026-03-22T10:28:50.346Z</time></trkpt><trkpt lat="43.4142433" lon="11.5621383"><ele>579.0</ele><time>2026-03-22T10:28:51.346Z</time></trkpt><trkpt lat="43.41422" lon="11.56201"><ele>579.0</ele><time>2026-03-22T10:28:52.347Z</time></trkpt><trkpt lat="43.4141833" lon="11.561865"><ele>579.0</ele><time>2026-03-22T10:28:53.347Z</time></trkpt><trkpt lat="43.414145" lon="11.56174"><ele>579.0</ele><time>2026-03-22T10:28:54.347Z</time></trkpt><trkpt lat="43.4141083" lon="11.56162"><ele>577.4</ele><time>2026-03-22T10:28:55.347Z</time></trkpt><trkpt lat="43.4140633" lon="11.5615017"><ele>575.8</ele><time>2026-03-22T10:28:56.347Z</time></trkpt><trkpt lat="43.4140117" lon="11.5613783"><ele>574.2</ele><time>2026-03-22T10:28:57.347Z</time></trkpt><trkpt lat="43.4139483" lon="11.56126"><ele>572.6</ele><time>2026-03-22T10:28:58.347Z</time></trkpt><trkpt lat="43.413865" lon="11.5611517"><ele>571.0</ele><time>2026-03-22T10:28:59.346Z</time></trkpt><trkpt lat="43.4137817" lon="11.5610583"><ele>568.8</ele><time>2026-03-22T10:29:00.347Z</time></trkpt><trkpt lat="43.4136967" lon="11.5609917"><ele>566.6</ele><time>2026-03-22T10:29:01.347Z</time></trkpt><trkpt lat="43.4136117" lon="11.5609117"><ele>564.4</ele><time>2026-03-22T10:29:02.347Z</time></trkpt><trkpt lat="43.4135217" lon="11.5608533"><ele>562.2</ele><time>2026-03-22T10:29:03.347Z</time></trkpt><trkpt lat="43.41342" lon="11.5608183"><ele>560.0</ele><time>2026-03-22T10:29:04.346Z</time></trkpt><trkpt lat="43.4133067" lon="11.5608133"><ele>560.0</ele><time>2026-03-22T10:29:05.347Z</time></trkpt><trkpt lat="43.4131783" lon="11.5608083"><ele>560.0</ele><time>2026-03-22T10:29:06.347Z</time></trkpt><trkpt lat="43.4130533" lon="11.5608"><ele>560.0</ele><time>2026-03-22T10:29:07.347Z</time></trkpt><trkpt lat="43.4129367" lon="11.56079"><ele>560.0</ele><time>2026-03-22T10:29:08.347Z</time></trkpt><trkpt lat="43.4128333" lon="11.5607483"><ele>559.8</ele><time>2026-03-22T10:29:09.347Z</time></trkpt><trkpt lat="43.4127383" lon="11.5606833"><ele>559.6</ele><time>2026-03-22T10:29:10.347Z</time></trkpt><trkpt lat="43.4126517" lon="11.560595"><ele>559.4</ele><time>2026-03-22T10:29:11.347Z</time></trkpt><trkpt lat="43.4125583" lon="11.5604867"><ele>559.2</ele><time>2026-03-22T10:29:12.347Z</time></trkpt><trkpt lat="43.4124733" lon="11.5604017"><ele>559.0</ele><time>2026-03-22T10:29:13.346Z</time></trkpt><trkpt lat="43.412405" lon="11.5603533"><ele>558.8333333333334</ele><time>2026-03-22T10:29:14.347Z</time></trkpt><trkpt lat="43.412335" lon="11.5603183"><ele>558.6666666666667</ele><time>2026-03-22T10:29:15.347Z</time></trkpt><trkpt lat="43.4122733" lon="11.5602683"><ele>558.5</ele><time>2026-03-22T10:29:16.347Z</time></trkpt><trkpt lat="43.4122233" lon="11.5601867"><ele>558.3333333333334</ele><time>2026-03-22T10:29:17.347Z</time></trkpt><trkpt lat="43.4121933" lon="11.560075"><ele>558.1666666666666</ele><time>2026-03-22T10:29:18.347Z</time></trkpt><trkpt lat="43.4121717" lon="11.5599333"><ele>558.0</ele><time>2026-03-22T10:29:19.347Z</time></trkpt><trkpt lat="43.412155" lon="11.5597667"><ele>557.0</ele><time>2026-03-22T10:29:20.347Z</time></trkpt><trkpt lat="43.41213" lon="11.5596033"><ele>556.0</ele><time>2026-03-22T10:29:21.347Z</time></trkpt><trkpt lat="43.4120917" lon="11.5594467"><ele>555.0</ele><time>2026-03-22T10:29:22.347Z</time></trkpt><trkpt lat="43.41205" lon="11.5593117"><ele>554.0</ele><time>2026-03-22T10:29:23.347Z</time></trkpt><trkpt lat="43.411995" lon="11.5591767"><ele>556.4</ele><time>2026-03-22T10:29:24.346Z</time></trkpt><trkpt lat="43.4119483" lon="11.5590433"><ele>558.8</ele><time>2026-03-22T10:29:25.347Z</time></trkpt><trkpt lat="43.4119033" lon="11.5589183"><ele>561.2</ele><time>2026-03-22T10:29:26.346Z</time></trkpt><trkpt lat="43.4118733" lon="11.5587833"><ele>563.6</ele><time>2026-03-22T10:29:27.347Z</time></trkpt><trkpt lat="43.4118483" lon="11.558655"><ele>566.0</ele><time>2026-03-22T10:29:28.346Z</time></trkpt><trkpt lat="43.4118517" lon="11.5585167"><ele>567.0</ele><time>2026-03-22T10:29:29.347Z</time></trkpt><trkpt lat="43.4118717" lon="11.558355"><ele>568.0</ele><time>2026-03-22T10:29:30.347Z</time></trkpt><trkpt lat="43.411885" lon="11.558195"><ele>569.0</ele><time>2026-03-22T10:29:31.347Z</time></trkpt><trkpt lat="43.4118833" lon="11.5580717"><ele>570.0</ele><time>2026-03-22T10:29:32.347Z</time></trkpt><trkpt lat="43.4118733" lon="11.55797"><ele>571.0</ele><time>2026-03-22T10:29:33.347Z</time></trkpt><trkpt lat="43.4118033" lon="11.557825"><ele>571.1666666666667</ele><time>2026-03-22T10:29:35.347Z</time></trkpt><trkpt lat="43.4117533" lon="11.5577383"><ele>571.3333333333334</ele><time>2026-03-22T10:29:36.346Z</time></trkpt><trkpt lat="43.4117067" lon="11.5576317"><ele>571.5</ele><time>2026-03-22T10:29:37.347Z</time></trkpt><trkpt lat="43.4116683" lon="11.5575183"><ele>571.6666666666666</ele><time>2026-03-22T10:29:38.347Z</time></trkpt><trkpt lat="43.4116617" lon="11.5574033"><ele>571.8333333333333</ele><time>2026-03-22T10:29:39.347Z</time></trkpt><trkpt lat="43.41167" lon="11.5572733"><ele>572.0</ele><time>2026-03-22T10:29:40.347Z</time></trkpt><trkpt lat="43.411695" lon="11.5571383"><ele>571.5</ele><time>2026-03-22T10:29:41.347Z</time></trkpt><trkpt lat="43.4117267" lon="11.5569867"><ele>571.0</ele><time>2026-03-22T10:29:42.346Z</time></trkpt><trkpt lat="43.41176" lon="11.5568267"><ele>570.5</ele><time>2026-03-22T10:29:43.347Z</time></trkpt><trkpt lat="43.4117967" lon="11.5566733"><ele>570.0</ele><time>2026-03-22T10:29:44.347Z</time></trkpt><trkpt lat="43.4118167" lon="11.55651"><ele>570.0</ele><time>2026-03-22T10:29:45.347Z</time></trkpt><trkpt lat="43.41183" lon="11.5563617"><ele>570.0</ele><time>2026-03-22T10:29:46.347Z</time></trkpt><trkpt lat="43.4118333" lon="11.5562183"><ele>570.0</ele><time>2026-03-22T10:29:47.347Z</time></trkpt><trkpt lat="43.4118267" lon="11.5560817"><ele>570.0</ele><time>2026-03-22T10:29:48.347Z</time></trkpt><trkpt lat="43.4118183" lon="11.5559583"><ele>570.0</ele><time>2026-03-22T10:29:49.347Z</time></trkpt><trkpt lat="43.4117917" lon="11.555845"><ele>570.3333333333334</ele><time>2026-03-22T10:29:50.347Z</time></trkpt><trkpt lat="43.4117717" lon="11.55572"><ele>570.6666666666666</ele><time>2026-03-22T10:29:51.346Z</time></trkpt><trkpt lat="43.4117583" lon="11.5555967"><ele>571.0</ele><time>2026-03-22T10:29:52.347Z</time></trkpt><trkpt lat="43.41174" lon="11.5554883"><ele>571.3333333333333</ele><time>2026-03-22T10:29:53.346Z</time></trkpt><trkpt lat="43.4117033" lon="11.5553883"><ele>571.6666666666666</ele><time>2026-03-22T10:29:54.346Z</time></trkpt><trkpt lat="43.4116483" lon="11.5552833"><ele>572.0</ele><time>2026-03-22T10:29:55.347Z</time></trkpt><trkpt lat="43.41159" lon="11.55518"><ele>571.1666666666666</ele><time>2026-03-22T10:29:56.347Z</time></trkpt><trkpt lat="43.4115433" lon="11.5550933"><ele>570.3333333333333</ele><time>2026-03-22T10:29:57.347Z</time></trkpt><trkpt lat="43.41151" lon="11.555015"><ele>569.5</ele><time>2026-03-22T10:29:58.347Z</time></trkpt><trkpt lat="43.4114967" lon="11.5549267"><ele>568.6666666666666</ele><time>2026-03-22T10:29:59.347Z</time></trkpt><trkpt lat="43.4115083" lon="11.554835"><ele>567.8333333333334</ele><time>2026-03-22T10:30:00.346Z</time></trkpt><trkpt lat="43.4115183" lon="11.5547483"><ele>567.0</ele><time>2026-03-22T10:30:01.347Z</time></trkpt><trkpt lat="43.411495" lon="11.5545967"><ele>563.8000000000001</ele><time>2026-03-22T10:30:03.346Z</time></trkpt><trkpt lat="43.41138" lon="11.5545117"><ele>560.6</ele><time>2026-03-22T10:30:05.347Z</time></trkpt><trkpt lat="43.4113033" lon="11.5545033"><ele>557.4000000000001</ele><time>2026-03-22T10:30:06.347Z</time></trkpt><trkpt lat="43.4112167" lon="11.5545117"><ele>554.2</ele><time>2026-03-22T10:30:07.347Z</time></trkpt><trkpt lat="43.41113" lon="11.554525"><ele>551.0</ele><time>2026-03-22T10:30:08.347Z</time></trkpt><trkpt lat="43.4110483" lon="11.554515"><ele>551.0</ele><time>2026-03-22T10:30:09.347Z</time></trkpt><trkpt lat="43.4109717" lon="11.55447"><ele>551.0</ele><time>2026-03-22T10:30:10.347Z</time></trkpt><trkpt lat="43.4109083" lon="11.5544"><ele>551.0</ele><time>2026-03-22T10:30:11.347Z</time></trkpt><trkpt lat="43.410845" lon="11.5543167"><ele>551.0</ele><time>2026-03-22T10:30:12.346Z</time></trkpt><trkpt lat="43.4107933" lon="11.55423"><ele>551.0</ele><time>2026-03-22T10:30:13.347Z</time></trkpt><trkpt lat="43.410735" lon="11.55416"><ele>551.0</ele><time>2026-03-22T10:30:14.346Z</time></trkpt><trkpt lat="43.4106767" lon="11.554105"><ele>551.0</ele><time>2026-03-22T10:30:15.347Z</time></trkpt><trkpt lat="43.4106217" lon="11.5539867"><ele>551.0</ele><time>2026-03-22T10:30:17.347Z</time></trkpt><trkpt lat="43.4106083" lon="11.5538167"><ele>551.0</ele><time>2026-03-22T10:30:19.346Z</time></trkpt><trkpt lat="43.4105817" lon="11.55372"><ele>551.0</ele><time>2026-03-22T10:30:20.347Z</time></trkpt><trkpt lat="43.41054" lon="11.5536133"><ele>551.0</ele><time>2026-03-22T10:30:21.346Z</time></trkpt><trkpt lat="43.4105117" lon="11.553495"><ele>550.0</ele><time>2026-03-22T10:30:22.347Z</time></trkpt><trkpt lat="43.4104983" lon="11.5533633"><ele>549.0</ele><time>2026-03-22T10:30:23.347Z</time></trkpt><trkpt lat="43.4104917" lon="11.5532167"><ele>548.0</ele><time>2026-03-22T10:30:24.347Z</time></trkpt><trkpt lat="43.4104883" lon="11.5530417"><ele>547.0</ele><time>2026-03-22T10:30:25.347Z</time></trkpt><trkpt lat="43.4104783" lon="11.55287"><ele>546.5</ele><time>2026-03-22T10:30:26.347Z</time></trkpt><trkpt lat="43.410455" lon="11.5527183"><ele>546.0</ele><time>2026-03-22T10:30:27.347Z</time></trkpt><trkpt lat="43.4104217" lon="11.5525717"><ele>545.5</ele><time>2026-03-22T10:30:28.347Z</time></trkpt><trkpt lat="43.4103733" lon="11.5524267"><ele>545.0</ele><time>2026-03-22T10:30:29.346Z</time></trkpt><trkpt lat="43.4103267" lon="11.5522783"><ele>545.0</ele><time>2026-03-22T10:30:30.347Z</time></trkpt><trkpt lat="43.41029" lon="11.5521217"><ele>545.0</ele><time>2026-03-22T10:30:31.347Z</time></trkpt><trkpt lat="43.4102583" lon="11.551955"><ele>545.0</ele><time>2026-03-22T10:30:32.347Z</time></trkpt><trkpt lat="43.410225" lon="11.5517933"><ele>545.0</ele><time>2026-03-22T10:30:33.347Z</time></trkpt><trkpt lat="43.4102" lon="11.551645"><ele>544.25</ele><time>2026-03-22T10:30:34.347Z</time></trkpt><trkpt lat="43.410155" lon="11.5514767"><ele>543.5</ele><time>2026-03-22T10:30:35.346Z</time></trkpt><trkpt lat="43.4101117" lon="11.5513233"><ele>542.75</ele><time>2026-03-22T10:30:36.347Z</time></trkpt><trkpt lat="43.4100633" lon="11.551185"><ele>542.0</ele><time>2026-03-22T10:30:37.346Z</time></trkpt><trkpt lat="43.41" lon="11.5510733"><ele>542.0</ele><time>2026-03-22T10:30:38.347Z</time></trkpt><trkpt lat="43.4099083" lon="11.5509933"><ele>542.0</ele><time>2026-03-22T10:30:39.347Z</time></trkpt><trkpt lat="43.4097933" lon="11.550925"><ele>542.0</ele><time>2026-03-22T10:30:40.346Z</time></trkpt><trkpt lat="43.4096733" lon="11.5508483"><ele>542.0</ele><time>2026-03-22T10:30:41.347Z</time></trkpt><trkpt lat="43.4095567" lon="11.550765"><ele>540.0</ele><time>2026-03-22T10:30:42.347Z</time></trkpt><trkpt lat="43.409445" lon="11.550685"><ele>538.0</ele><time>2026-03-22T10:30:43.347Z</time></trkpt><trkpt lat="43.409355" lon="11.5505983"><ele>536.0</ele><time>2026-03-22T10:30:44.347Z</time></trkpt><trkpt lat="43.4092717" lon="11.55049"><ele>534.0</ele><time>2026-03-22T10:30:45.347Z</time></trkpt><trkpt lat="43.4091867" lon="11.5503567"><ele>534.0</ele><time>2026-03-22T10:30:46.347Z</time></trkpt><trkpt lat="43.4091083" lon="11.550215"><ele>534.0</ele><time>2026-03-22T10:30:47.347Z</time></trkpt><trkpt lat="43.4090267" lon="11.55008"><ele>534.0</ele><time>2026-03-22T10:30:48.347Z</time></trkpt><trkpt lat="43.4089583" lon="11.54995"><ele>534.0</ele><time>2026-03-22T10:30:49.347Z</time></trkpt><trkpt lat="43.40888" lon="11.5498167"><ele>529.5</ele><time>2026-03-22T10:30:50.346Z</time></trkpt><trkpt lat="43.4088033" lon="11.5497"><ele>525.0</ele><time>2026-03-22T10:30:51.347Z</time></trkpt><trkpt lat="43.4087267" lon="11.549575"><ele>520.5</ele><time>2026-03-22T10:30:52.347Z</time></trkpt><trkpt lat="43.4086517" lon="11.5494367"><ele>516.0</ele><time>2026-03-22T10:30:53.346Z</time></trkpt><trkpt lat="43.4085767" lon="11.5492967"><ele>516.0</ele><time>2026-03-22T10:30:54.347Z</time></trkpt><trkpt lat="43.4085033" lon="11.5491667"><ele>516.0</ele><time>2026-03-22T10:30:55.347Z</time></trkpt><trkpt lat="43.40844" lon="11.5490417"><ele>516.0</ele><time>2026-03-22T10:30:56.346Z</time></trkpt><trkpt lat="43.4083617" lon="11.548925"><ele>516.0</ele><time>2026-03-22T10:30:57.347Z</time></trkpt><trkpt lat="43.408275" lon="11.5488117"><ele>513.75</ele><time>2026-03-22T10:30:58.347Z</time></trkpt><trkpt lat="43.4081717" lon="11.548705"><ele>511.5</ele><time>2026-03-22T10:30:59.347Z</time></trkpt><trkpt lat="43.4080667" lon="11.54859"><ele>509.25</ele><time>2026-03-22T10:31:00.346Z</time></trkpt><trkpt lat="43.407965" lon="11.5484867"><ele>507.0</ele><time>2026-03-22T10:31:01.347Z</time></trkpt><trkpt lat="43.4078733" lon="11.5483933"><ele>505.0</ele><time>2026-03-22T10:31:02.346Z</time></trkpt><trkpt lat="43.407785" lon="11.5482767"><ele>503.0</ele><time>2026-03-22T10:31:03.347Z</time></trkpt><trkpt lat="43.4077083" lon="11.5481417"><ele>501.0</ele><time>2026-03-22T10:31:04.346Z</time></trkpt><trkpt lat="43.4076367" lon="11.548005"><ele>499.0</ele><time>2026-03-22T10:31:05.347Z</time></trkpt><trkpt lat="43.407575" lon="11.5478717"><ele>498.33333333333337</ele><time>2026-03-22T10:31:06.347Z</time></trkpt><trkpt lat="43.407515" lon="11.5477533"><ele>497.6666666666667</ele><time>2026-03-22T10:31:07.347Z</time></trkpt><trkpt lat="43.4074733" lon="11.5476383"><ele>497.0</ele><time>2026-03-22T10:31:08.347Z</time></trkpt><trkpt lat="43.4074383" lon="11.5475367"><ele>496.33333333333337</ele><time>2026-03-22T10:31:09.347Z</time></trkpt><trkpt lat="43.4074017" lon="11.5474517"><ele>495.6666666666667</ele><time>2026-03-22T10:31:10.347Z</time></trkpt><trkpt lat="43.4073783" lon="11.5473667"><ele>495.0</ele><time>2026-03-22T10:31:11.347Z</time></trkpt><trkpt lat="43.4073583" lon="11.5471667"><ele>493.75</ele><time>2026-03-22T10:31:13.347Z</time></trkpt><trkpt lat="43.40735" lon="11.5470117"><ele>492.5</ele><time>2026-03-22T10:31:14.347Z</time></trkpt><trkpt lat="43.40735" lon="11.5468467"><ele>491.25</ele><time>2026-03-22T10:31:15.347Z</time></trkpt><trkpt lat="43.40735" lon="11.5466767"><ele>490.0</ele><time>2026-03-22T10:31:16.347Z</time></trkpt><trkpt lat="43.4073567" lon="11.5464967"><ele>490.0</ele><time>2026-03-22T10:31:17.347Z</time></trkpt><trkpt lat="43.4073567" lon="11.5463167"><ele>490.0</ele><time>2026-03-22T10:31:18.347Z</time></trkpt><trkpt lat="43.4073517" lon="11.5461433"><ele>490.0</ele><time>2026-03-22T10:31:19.347Z</time></trkpt><trkpt lat="43.4073467" lon="11.5459767"><ele>490.0</ele><time>2026-03-22T10:31:20.347Z</time></trkpt><trkpt lat="43.407335" lon="11.545855"><ele>489.83333333333337</ele><time>2026-03-22T10:31:21.347Z</time></trkpt><trkpt lat="43.4073167" lon="11.54577"><ele>489.6666666666667</ele><time>2026-03-22T10:31:22.346Z</time></trkpt><trkpt lat="43.4072817" lon="11.54568"><ele>489.5</ele><time>2026-03-22T10:31:23.347Z</time></trkpt><trkpt lat="43.4072333" lon="11.5456217"><ele>489.33333333333337</ele><time>2026-03-22T10:31:24.347Z</time></trkpt><trkpt lat="43.4071633" lon="11.545585"><ele>489.1666666666667</ele><time>2026-03-22T10:31:25.346Z</time></trkpt><trkpt lat="43.4070667" lon="11.5455583"><ele>489.0</ele><time>2026-03-22T10:31:26.347Z</time></trkpt><trkpt lat="43.406965" lon="11.54552"><ele>488.25</ele><time>2026-03-22T10:31:27.346Z</time></trkpt><trkpt lat="43.4068667" lon="11.5454517"><ele>487.5</ele><time>2026-03-22T10:31:28.347Z</time></trkpt><trkpt lat="43.4067583" lon="11.5453717"><ele>486.75</ele><time>2026-03-22T10:31:29.347Z</time></trkpt><trkpt lat="43.40665" lon="11.5452767"><ele>486.0</ele><time>2026-03-22T10:31:30.347Z</time></trkpt><trkpt lat="43.4065317" lon="11.545195"><ele>488.5</ele><time>2026-03-22T10:31:31.346Z</time></trkpt><trkpt lat="43.406395" lon="11.5451417"><ele>491.0</ele><time>2026-03-22T10:31:32.346Z</time></trkpt><trkpt lat="43.4062617" lon="11.54511"><ele>493.5</ele><time>2026-03-22T10:31:33.347Z</time></trkpt><trkpt lat="43.4061317" lon="11.54508"><ele>496.0</ele><time>2026-03-22T10:31:34.347Z</time></trkpt><trkpt lat="43.4060233" lon="11.5450517"><ele>496.83333333333337</ele><time>2026-03-22T10:31:35.347Z</time></trkpt><trkpt lat="43.4059233" lon="11.5450183"><ele>497.6666666666667</ele><time>2026-03-22T10:31:36.347Z</time></trkpt><trkpt lat="43.4058483" lon="11.544985"><ele>498.5</ele><time>2026-03-22T10:31:37.347Z</time></trkpt><trkpt lat="43.4057867" lon="11.5449467"><ele>499.33333333333337</ele><time>2026-03-22T10:31:38.347Z</time></trkpt><trkpt lat="43.4057467" lon="11.5448683"><ele>500.1666666666667</ele><time>2026-03-22T10:31:39.346Z</time></trkpt><trkpt lat="43.4057017" lon="11.5448033"><ele>501.0</ele><time>2026-03-22T10:31:40.347Z</time></trkpt><trkpt lat="43.4056133" lon="11.5447583"><ele>501.0</ele><time>2026-03-22T10:31:42.347Z</time></trkpt><trkpt lat="43.4055467" lon="11.54475"><ele>501.0</ele><time>2026-03-22T10:31:43.347Z</time></trkpt><trkpt lat="43.4054233" lon="11.54473"><ele>501.0</ele><time>2026-03-22T10:31:45.346Z</time></trkpt><trkpt lat="43.4053483" lon="11.5447133"><ele>501.0</ele><time>2026-03-22T10:31:46.347Z</time></trkpt><trkpt lat="43.40526" lon="11.5446917"><ele>501.0</ele><time>2026-03-22T10:31:47.347Z</time></trkpt><trkpt lat="43.4051817" lon="11.5446533"><ele>501.0</ele><time>2026-03-22T10:31:48.347Z</time></trkpt><trkpt lat="43.4050933" lon="11.54461"><ele>500.6666666666667</ele><time>2026-03-22T10:31:49.347Z</time></trkpt><trkpt lat="43.40501" lon="11.5445817"><ele>500.33333333333337</ele><time>2026-03-22T10:31:50.347Z</time></trkpt><trkpt lat="43.4049383" lon="11.544535"><ele>500.0</ele><time>2026-03-22T10:31:51.346Z</time></trkpt><trkpt lat="43.4048683" lon="11.54451"><ele>499.6666666666667</ele><time>2026-03-22T10:31:52.347Z</time></trkpt><trkpt lat="43.4048083" lon="11.5444567"><ele>499.33333333333337</ele><time>2026-03-22T10:31:53.347Z</time></trkpt><trkpt lat="43.4047567" lon="11.5444"><ele>499.0</ele><time>2026-03-22T10:31:54.347Z</time></trkpt><trkpt lat="43.40469" lon="11.5442533"><ele>500.1666666666667</ele><time>2026-03-22T10:31:56.347Z</time></trkpt><trkpt lat="43.40468" lon="11.54415"><ele>501.33333333333337</ele><time>2026-03-22T10:31:57.347Z</time></trkpt><trkpt lat="43.4046883" lon="11.5440167"><ele>502.5</ele><time>2026-03-22T10:31:58.347Z</time></trkpt><trkpt lat="43.4046767" lon="11.54388"><ele>503.66666666666663</ele><time>2026-03-22T10:31:59.346Z</time></trkpt><trkpt lat="43.4046583" lon="11.5437767"><ele>504.8333333333333</ele><time>2026-03-22T10:32:00.347Z</time></trkpt><trkpt lat="43.4046067" lon="11.5436983"><ele>506.0</ele><time>2026-03-22T10:32:01.347Z</time></trkpt><trkpt lat="43.4045367" lon="11.5436667"><ele>502.0</ele><time>2026-03-22T10:32:02.347Z</time></trkpt><trkpt lat="43.404465" lon="11.5436767"><ele>498.0</ele><time>2026-03-22T10:32:03.347Z</time></trkpt><trkpt lat="43.4043933" lon="11.5437567"><ele>494.0</ele><time>2026-03-22T10:32:04.347Z</time></trkpt><trkpt lat="43.404335" lon="11.54387"><ele>490.0</ele><time>2026-03-22T10:32:05.347Z</time></trkpt><trkpt lat="43.40429" lon="11.544035"><ele>486.0</ele><time>2026-03-22T10:32:06.347Z</time></trkpt><trkpt lat="43.4042483" lon="11.5442367"><ele>486.0</ele><time>2026-03-22T10:32:07.347Z</time></trkpt><trkpt lat="43.40421" lon="11.5444333"><ele>486.0</ele><time>2026-03-22T10:32:08.347Z</time></trkpt><trkpt lat="43.404185" lon="11.5446133"><ele>486.0</ele><time>2026-03-22T10:32:09.347Z</time></trkpt><trkpt lat="43.4041483" lon="11.5447783"><ele>486.0</ele><time>2026-03-22T10:32:10.346Z</time></trkpt><trkpt lat="43.4041067" lon="11.54491"><ele>485.20000000000005</ele><time>2026-03-22T10:32:11.347Z</time></trkpt><trkpt lat="43.404075" lon="11.5450167"><ele>484.40000000000003</ele><time>2026-03-22T10:32:12.347Z</time></trkpt><trkpt lat="43.40404" lon="11.5451067"><ele>483.6</ele><time>2026-03-22T10:32:13.347Z</time></trkpt><trkpt lat="43.4039833" lon="11.5452167"><ele>482.8</ele><time>2026-03-22T10:32:15.347Z</time></trkpt><trkpt lat="43.4038617" lon="11.5452967"><ele>482.0</ele><time>2026-03-22T10:32:17.347Z</time></trkpt><trkpt lat="43.4037667" lon="11.5453467"><ele>478.25</ele><time>2026-03-22T10:32:18.347Z</time></trkpt><trkpt lat="43.4036517" lon="11.545405"><ele>474.5</ele><time>2026-03-22T10:32:19.347Z</time></trkpt><trkpt lat="43.403525" lon="11.54547"><ele>470.75</ele><time>2026-03-22T10:32:20.346Z</time></trkpt><trkpt lat="43.4033733" lon="11.5455517"><ele>467.0</ele><time>2026-03-22T10:32:21.347Z</time></trkpt><trkpt lat="43.403225" lon="11.5456283"><ele>467.0</ele><time>2026-03-22T10:32:22.347Z</time></trkpt><trkpt lat="43.4031017" lon="11.5457"><ele>467.00000000000006</ele><time>2026-03-22T10:32:23.347Z</time></trkpt><trkpt lat="43.4030117" lon="11.5457433"><ele>467.00000000000006</ele><time>2026-03-22T10:32:24.347Z</time></trkpt><trkpt lat="43.4029383" lon="11.5457717"><ele>467.0</ele><time>2026-03-22T10:32:25.346Z</time></trkpt><trkpt lat="43.4028717" lon="11.5458033"><ele>467.0</ele><time>2026-03-22T10:32:26.347Z</time></trkpt><trkpt lat="43.4028" lon="11.54584"><ele>464.75</ele><time>2026-03-22T10:32:27.346Z</time></trkpt><trkpt lat="43.4026967" lon="11.5458817"><ele>462.5</ele><time>2026-03-22T10:32:28.347Z</time></trkpt><trkpt lat="43.4025633" lon="11.5459233"><ele>460.25</ele><time>2026-03-22T10:32:29.346Z</time></trkpt><trkpt lat="43.4024133" lon="11.54598"><ele>458.0</ele><time>2026-03-22T10:32:30.347Z</time></trkpt><trkpt lat="43.4022633" lon="11.5460533"><ele>455.75</ele><time>2026-03-22T10:32:31.346Z</time></trkpt><trkpt lat="43.4021317" lon="11.5461333"><ele>453.5</ele><time>2026-03-22T10:32:32.347Z</time></trkpt><trkpt lat="43.402" lon="11.546185"><ele>451.25</ele><time>2026-03-22T10:32:33.347Z</time></trkpt><trkpt lat="43.4018767" lon="11.5462133"><ele>449.0</ele><time>2026-03-22T10:32:34.347Z</time></trkpt><trkpt lat="43.40176" lon="11.54619"><ele>449.0</ele><time>2026-03-22T10:32:35.347Z</time></trkpt><trkpt lat="43.4016433" lon="11.5461267"><ele>449.0</ele><time>2026-03-22T10:32:36.347Z</time></trkpt><trkpt lat="43.401525" lon="11.5460367"><ele>449.0</ele><time>2026-03-22T10:32:37.346Z</time></trkpt><trkpt lat="43.401385" lon="11.54592"><ele>449.0</ele><time>2026-03-22T10:32:38.347Z</time></trkpt><trkpt lat="43.40123" lon="11.54583"><ele>446.66666666666663</ele><time>2026-03-22T10:32:39.346Z</time></trkpt><trkpt lat="43.40108" lon="11.5457583"><ele>444.33333333333337</ele><time>2026-03-22T10:32:40.347Z</time></trkpt><trkpt lat="43.4009317" lon="11.545735"><ele>442.0</ele><time>2026-03-22T10:32:41.347Z</time></trkpt><trkpt lat="43.400765" lon="11.5457517"><ele>442.0</ele><time>2026-03-22T10:32:42.347Z</time></trkpt><trkpt lat="43.4005933" lon="11.5458017"><ele>442.0</ele><time>2026-03-22T10:32:43.346Z</time></trkpt><trkpt lat="43.40043" lon="11.54583"><ele>442.0</ele><time>2026-03-22T10:32:44.347Z</time></trkpt><trkpt lat="43.4002683" lon="11.5458217"><ele>442.33333333333337</ele><time>2026-03-22T10:32:45.347Z</time></trkpt><trkpt lat="43.4001" lon="11.5457933"><ele>442.66666666666663</ele><time>2026-03-22T10:32:46.347Z</time></trkpt><trkpt lat="43.399925" lon="11.5457583"><ele>443.0</ele><time>2026-03-22T10:32:47.347Z</time></trkpt><trkpt lat="43.3997283" lon="11.5457317"><ele>441.66666666666663</ele><time>2026-03-22T10:32:48.346Z</time></trkpt><trkpt lat="43.399545" lon="11.545705"><ele>440.33333333333337</ele><time>2026-03-22T10:32:49.346Z</time></trkpt><trkpt lat="43.39937" lon="11.5456817"><ele>439.0</ele><time>2026-03-22T10:32:50.347Z</time></trkpt><trkpt lat="43.3992033" lon="11.5456583"><ele>439.0</ele><time>2026-03-22T10:32:51.347Z</time></trkpt><trkpt lat="43.3990233" lon="11.5456533"><ele>439.0</ele><time>2026-03-22T10:32:52.347Z</time></trkpt><trkpt lat="43.3988467" lon="11.5456517"><ele>439.0</ele><time>2026-03-22T10:32:53.347Z</time></trkpt><trkpt lat="43.3986883" lon="11.5456617"><ele>437.75</ele><time>2026-03-22T10:32:54.347Z</time></trkpt><trkpt lat="43.3985483" lon="11.5456583"><ele>436.5</ele><time>2026-03-22T10:32:55.346Z</time></trkpt><trkpt lat="43.39842" lon="11.54562"><ele>435.25</ele><time>2026-03-22T10:32:56.347Z</time></trkpt><trkpt lat="43.39829" lon="11.5455583"><ele>434.0</ele><time>2026-03-22T10:32:57.346Z</time></trkpt><trkpt lat="43.39815" lon="11.54546"><ele>431.66666666666663</ele><time>2026-03-22T10:32:58.347Z</time></trkpt><trkpt lat="43.398" lon="11.5453467"><ele>429.33333333333337</ele><time>2026-03-22T10:32:59.347Z</time></trkpt><trkpt lat="43.3978417" lon="11.54523"><ele>427.0</ele><time>2026-03-22T10:33:00.347Z</time></trkpt><trkpt lat="43.3976733" lon="11.5451067"><ele>427.0</ele><time>2026-03-22T10:33:01.347Z</time></trkpt><trkpt lat="43.3974983" lon="11.544975"><ele>427.0</ele><time>2026-03-22T10:33:02.347Z</time></trkpt><trkpt lat="43.3973283" lon="11.54485"><ele>427.0</ele><time>2026-03-22T10:33:03.347Z</time></trkpt><trkpt lat="43.3971667" lon="11.5447317"><ele>425.33333333333337</ele><time>2026-03-22T10:33:04.346Z</time></trkpt><trkpt lat="43.3970083" lon="11.5446217"><ele>423.66666666666663</ele><time>2026-03-22T10:33:05.347Z</time></trkpt><trkpt lat="43.3968517" lon="11.544515"><ele>422.0</ele><time>2026-03-22T10:33:06.347Z</time></trkpt><trkpt lat="43.39671" lon="11.5444133"><ele>422.0</ele><time>2026-03-22T10:33:07.347Z</time></trkpt><trkpt lat="43.3965883" lon="11.54432"><ele>422.0</ele><time>2026-03-22T10:33:08.347Z</time></trkpt><trkpt lat="43.3964783" lon="11.5442317"><ele>422.0</ele><time>2026-03-22T10:33:09.346Z</time></trkpt><trkpt lat="43.3963733" lon="11.544145"><ele>422.0</ele><time>2026-03-22T10:33:10.346Z</time></trkpt><trkpt lat="43.3962567" lon="11.54405"><ele>420.5</ele><time>2026-03-22T10:33:11.346Z</time></trkpt><trkpt lat="43.3961333" lon="11.54395"><ele>419.0</ele><time>2026-03-22T10:33:12.347Z</time></trkpt><trkpt lat="43.3960183" lon="11.5438383"><ele>417.5</ele><time>2026-03-22T10:33:13.347Z</time></trkpt><trkpt lat="43.3959167" lon="11.5437267"><ele>416.0</ele><time>2026-03-22T10:33:14.347Z</time></trkpt><trkpt lat="43.3958083" lon="11.5436117"><ele>416.0</ele><time>2026-03-22T10:33:15.346Z</time></trkpt><trkpt lat="43.3956933" lon="11.543505"><ele>416.0</ele><time>2026-03-22T10:33:16.347Z</time></trkpt><trkpt lat="43.3955733" lon="11.5434233"><ele>416.0</ele><time>2026-03-22T10:33:17.347Z</time></trkpt><trkpt lat="43.3954533" lon="11.5433333"><ele>416.0</ele><time>2026-03-22T10:33:18.347Z</time></trkpt><trkpt lat="43.3953333" lon="11.5432333"><ele>415.0</ele><time>2026-03-22T10:33:19.347Z</time></trkpt><trkpt lat="43.3952" lon="11.5431383"><ele>414.0</ele><time>2026-03-22T10:33:20.347Z</time></trkpt><trkpt lat="43.3950683" lon="11.54303"><ele>413.0</ele><time>2026-03-22T10:33:21.347Z</time></trkpt><trkpt lat="43.3949517" lon="11.54294"><ele>412.0</ele><time>2026-03-22T10:33:22.346Z</time></trkpt><trkpt lat="43.39486" lon="11.5428717"><ele>411.40000000000003</ele><time>2026-03-22T10:33:23.346Z</time></trkpt><trkpt lat="43.3947833" lon="11.5428183"><ele>410.8</ele><time>2026-03-22T10:33:24.347Z</time></trkpt><trkpt lat="43.3947217" lon="11.542745"><ele>410.2</ele><time>2026-03-22T10:33:25.347Z</time></trkpt><trkpt lat="43.39467" lon="11.54264"><ele>409.6</ele><time>2026-03-22T10:33:26.346Z</time></trkpt><trkpt lat="43.3946133" lon="11.5425067"><ele>409.0</ele><time>2026-03-22T10:33:27.347Z</time></trkpt><trkpt lat="43.39454" lon="11.542355"><ele>407.75</ele><time>2026-03-22T10:33:28.347Z</time></trkpt><trkpt lat="43.39447" lon="11.5421967"><ele>406.5</ele><time>2026-03-22T10:33:29.347Z</time></trkpt><trkpt lat="43.394405" lon="11.54205"><ele>405.25</ele><time>2026-03-22T10:33:30.347Z</time></trkpt><trkpt lat="43.394335" lon="11.54191"><ele>404.0</ele><time>2026-03-22T10:33:31.347Z</time></trkpt><trkpt lat="43.3942367" lon="11.54178"><ele>404.0</ele><time>2026-03-22T10:33:32.347Z</time></trkpt><trkpt lat="43.39413" lon="11.5416567"><ele>404.0</ele><time>2026-03-22T10:33:33.347Z</time></trkpt><trkpt lat="43.394035" lon="11.5415233"><ele>404.0</ele><time>2026-03-22T10:33:34.346Z</time></trkpt><trkpt lat="43.3939383" lon="11.5414"><ele>404.0</ele><time>2026-03-22T10:33:35.346Z</time></trkpt><trkpt lat="43.39386" lon="11.5412733"><ele>402.5</ele><time>2026-03-22T10:33:36.347Z</time></trkpt><trkpt lat="43.39378" lon="11.5411317"><ele>401.0</ele><time>2026-03-22T10:33:37.346Z</time></trkpt><trkpt lat="43.3937033" lon="11.541015"><ele>399.5</ele><time>2026-03-22T10:33:38.347Z</time></trkpt><trkpt lat="43.3936233" lon="11.5409033"><ele>398.0</ele><time>2026-03-22T10:33:39.347Z</time></trkpt><trkpt lat="43.3935367" lon="11.5407867"><ele>398.0</ele><time>2026-03-22T10:33:40.347Z</time></trkpt><trkpt lat="43.39344" lon="11.5406933"><ele>398.0</ele><time>2026-03-22T10:33:41.346Z</time></trkpt><trkpt lat="43.3933367" lon="11.5406233"><ele>398.0</ele><time>2026-03-22T10:33:42.347Z</time></trkpt><trkpt lat="43.3932167" lon="11.5405583"><ele>398.0</ele><time>2026-03-22T10:33:43.347Z</time></trkpt><trkpt lat="43.39308" lon="11.5404817"><ele>397.0</ele><time>2026-03-22T10:33:44.347Z</time></trkpt><trkpt lat="43.39294" lon="11.5404083"><ele>396.0</ele><time>2026-03-22T10:33:45.346Z</time></trkpt><trkpt lat="43.39281" lon="11.5403383"><ele>395.0</ele><time>2026-03-22T10:33:46.347Z</time></trkpt><trkpt lat="43.3926817" lon="11.5402717"><ele>394.0</ele><time>2026-03-22T10:33:47.347Z</time></trkpt><trkpt lat="43.39256" lon="11.5401933"><ele>394.0</ele><time>2026-03-22T10:33:48.346Z</time></trkpt><trkpt lat="43.39245" lon="11.54012"><ele>394.0</ele><time>2026-03-22T10:33:49.347Z</time></trkpt><trkpt lat="43.3923333" lon="11.5400383"><ele>394.0</ele><time>2026-03-22T10:33:50.348Z</time></trkpt><trkpt lat="43.3922233" lon="11.539955"><ele>394.0</ele><time>2026-03-22T10:33:51.348Z</time></trkpt><trkpt lat="43.3921167" lon="11.5398767"><ele>390.75</ele><time>2026-03-22T10:33:52.348Z</time></trkpt><trkpt lat="43.3919933" lon="11.539795"><ele>387.5</ele><time>2026-03-22T10:33:53.347Z</time></trkpt><trkpt lat="43.39189" lon="11.5397133"><ele>384.25</ele><time>2026-03-22T10:33:54.348Z</time></trkpt><trkpt lat="43.3917933" lon="11.5396383"><ele>381.0</ele><time>2026-03-22T10:33:55.348Z</time></trkpt><trkpt lat="43.391685" lon="11.539555"><ele>381.6</ele><time>2026-03-22T10:33:56.348Z</time></trkpt><trkpt lat="43.39158" lon="11.5394783"><ele>382.20000000000005</ele><time>2026-03-22T10:33:57.348Z</time></trkpt><trkpt lat="43.3914983" lon="11.5394"><ele>382.79999999999995</ele><time>2026-03-22T10:33:58.348Z</time></trkpt><trkpt lat="43.391435" lon="11.539305"><ele>383.4</ele><time>2026-03-22T10:33:59.348Z</time></trkpt><trkpt lat="43.391395" lon="11.5391833"><ele>384.0</ele><time>2026-03-22T10:34:00.347Z</time></trkpt><trkpt lat="43.3913733" lon="11.5390333"><ele>384.0</ele><time>2026-03-22T10:34:01.348Z</time></trkpt><trkpt lat="43.39137" lon="11.5388867"><ele>384.0</ele><time>2026-03-22T10:34:02.348Z</time></trkpt><trkpt lat="43.391345" lon="11.538755"><ele>384.0</ele><time>2026-03-22T10:34:03.348Z</time></trkpt><trkpt lat="43.3913133" lon="11.5386433"><ele>384.0</ele><time>2026-03-22T10:34:04.348Z</time></trkpt><trkpt lat="43.39128" lon="11.5385533"><ele>384.0</ele><time>2026-03-22T10:34:05.348Z</time></trkpt><trkpt lat="43.3912083" lon="11.5384817"><ele>380.0</ele><time>2026-03-22T10:34:06.348Z</time></trkpt><trkpt lat="43.3911217" lon="11.538435"><ele>376.0</ele><time>2026-03-22T10:34:07.348Z</time></trkpt><trkpt lat="43.391015" lon="11.5383933"><ele>372.0</ele><time>2026-03-22T10:34:08.348Z</time></trkpt><trkpt lat="43.39088" lon="11.5383617"><ele>368.0</ele><time>2026-03-22T10:34:09.347Z</time></trkpt><trkpt lat="43.3907467" lon="11.538325"><ele>368.0</ele><time>2026-03-22T10:34:10.348Z</time></trkpt><trkpt lat="43.3906267" lon="11.53828"><ele>368.0</ele><time>2026-03-22T10:34:11.348Z</time></trkpt><trkpt lat="43.3905417" lon="11.53822"><ele>368.0</ele><time>2026-03-22T10:34:12.348Z</time></trkpt><trkpt lat="43.3904733" lon="11.53813"><ele>368.0</ele><time>2026-03-22T10:34:13.347Z</time></trkpt><trkpt lat="43.3904267" lon="11.53802"><ele>368.0</ele><time>2026-03-22T10:34:14.348Z</time></trkpt><trkpt lat="43.3903917" lon="11.5378733"><ele>365.75</ele><time>2026-03-22T10:34:15.348Z</time></trkpt><trkpt lat="43.3903633" lon="11.5376983"><ele>363.5</ele><time>2026-03-22T10:34:16.348Z</time></trkpt><trkpt lat="43.3903417" lon="11.53752"><ele>361.25</ele><time>2026-03-22T10:34:17.347Z</time></trkpt><trkpt lat="43.3903117" lon="11.53733"><ele>359.0</ele><time>2026-03-22T10:34:18.348Z</time></trkpt><trkpt lat="43.3902833" lon="11.53714"><ele>356.75</ele><time>2026-03-22T10:34:19.348Z</time></trkpt><trkpt lat="43.3902567" lon="11.53696"><ele>354.5</ele><time>2026-03-22T10:34:20.347Z</time></trkpt><trkpt lat="43.3902267" lon="11.53678"><ele>352.25</ele><time>2026-03-22T10:34:21.347Z</time></trkpt><trkpt lat="43.3901817" lon="11.536585"><ele>350.0</ele><time>2026-03-22T10:34:22.348Z</time></trkpt><trkpt lat="43.39015" lon="11.5364283"><ele>350.0</ele><time>2026-03-22T10:34:23.347Z</time></trkpt><trkpt lat="43.3901117" lon="11.5362683"><ele>350.0</ele><time>2026-03-22T10:34:24.347Z</time></trkpt><trkpt lat="43.390075" lon="11.5361333"><ele>350.0</ele><time>2026-03-22T10:34:25.348Z</time></trkpt><trkpt lat="43.3900517" lon="11.5360117"><ele>350.0</ele><time>2026-03-22T10:34:26.347Z</time></trkpt><trkpt lat="43.3900317" lon="11.5359033"><ele>350.0</ele><time>2026-03-22T10:34:27.348Z</time></trkpt><trkpt lat="43.39001" lon="11.535815"><ele>348.6666666666667</ele><time>2026-03-22T10:34:28.348Z</time></trkpt><trkpt lat="43.3899667" lon="11.5357383"><ele>347.33333333333337</ele><time>2026-03-22T10:34:29.348Z</time></trkpt><trkpt lat="43.3899133" lon="11.5356917"><ele>346.0</ele><time>2026-03-22T10:34:30.347Z</time></trkpt><trkpt lat="43.3897817" lon="11.5356633"><ele>344.6666666666667</ele><time>2026-03-22T10:34:32.347Z</time></trkpt><trkpt lat="43.3897133" lon="11.5356383"><ele>343.3333333333333</ele><time>2026-03-22T10:34:33.347Z</time></trkpt><trkpt lat="43.3896517" lon="11.5356"><ele>342.0</ele><time>2026-03-22T10:34:34.347Z</time></trkpt><trkpt lat="43.38961" lon="11.535525"><ele>341.6</ele><time>2026-03-22T10:34:35.348Z</time></trkpt><trkpt lat="43.3895917" lon="11.5354367"><ele>341.20000000000005</ele><time>2026-03-22T10:34:36.348Z</time></trkpt><trkpt lat="43.389585" lon="11.5353267"><ele>340.8</ele><time>2026-03-22T10:34:37.348Z</time></trkpt><trkpt lat="43.389575" lon="11.5351783"><ele>340.4</ele><time>2026-03-22T10:34:38.347Z</time></trkpt><trkpt lat="43.389555" lon="11.535015"><ele>340.0</ele><time>2026-03-22T10:34:39.348Z</time></trkpt><trkpt lat="43.389535" lon="11.53484"><ele>338.0</ele><time>2026-03-22T10:34:40.347Z</time></trkpt><trkpt lat="43.3895067" lon="11.5346883"><ele>336.0</ele><time>2026-03-22T10:34:41.348Z</time></trkpt><trkpt lat="43.3894867" lon="11.53456"><ele>334.0</ele><time>2026-03-22T10:34:42.348Z</time></trkpt><trkpt lat="43.38948" lon="11.5344367"><ele>332.0</ele><time>2026-03-22T10:34:43.348Z</time></trkpt><trkpt lat="43.389495" lon="11.5343233"><ele>330.0</ele><time>2026-03-22T10:34:44.348Z</time></trkpt><trkpt lat="43.3895283" lon="11.5342383"><ele>328.4</ele><time>2026-03-22T10:34:45.348Z</time></trkpt><trkpt lat="43.38959" lon="11.5341733"><ele>326.8</ele><time>2026-03-22T10:34:46.348Z</time></trkpt><trkpt lat="43.3896767" lon="11.5341167"><ele>325.20000000000005</ele><time>2026-03-22T10:34:47.347Z</time></trkpt><trkpt lat="43.3897817" lon="11.5340717"><ele>323.6</ele><time>2026-03-22T10:34:48.348Z</time></trkpt><trkpt lat="43.38989" lon="11.534035"><ele>322.0</ele><time>2026-03-22T10:34:49.347Z</time></trkpt><trkpt lat="43.389985" lon="11.534015"><ele>322.0</ele><time>2026-03-22T10:34:50.348Z</time></trkpt><trkpt lat="43.39007" lon="11.5339883"><ele>322.0</ele><time>2026-03-22T10:34:51.348Z</time></trkpt><trkpt lat="43.3901317" lon="11.5339567"><ele>322.0</ele><time>2026-03-22T10:34:52.348Z</time></trkpt><trkpt lat="43.39019" lon="11.5338733"><ele>322.0</ele><time>2026-03-22T10:34:54.348Z</time></trkpt><trkpt lat="43.39016" lon="11.533755"><ele>322.0</ele><time>2026-03-22T10:34:56.348Z</time></trkpt><trkpt lat="43.390095" lon="11.5336683"><ele>322.0</ele><time>2026-03-22T10:34:57.348Z</time></trkpt><trkpt lat="43.3900117" lon="11.53358"><ele>318.5</ele><time>2026-03-22T10:34:58.348Z</time></trkpt><trkpt lat="43.389895" lon="11.5334867"><ele>315.0</ele><time>2026-03-22T10:34:59.347Z</time></trkpt><trkpt lat="43.389775" lon="11.5334083"><ele>311.5</ele><time>2026-03-22T10:35:00.348Z</time></trkpt><trkpt lat="43.389645" lon="11.533345"><ele>308.0</ele><time>2026-03-22T10:35:01.348Z</time></trkpt><trkpt lat="43.38952" lon="11.533285"><ele>308.0</ele><time>2026-03-22T10:35:02.347Z</time></trkpt><trkpt lat="43.389375" lon="11.5332567"><ele>308.0</ele><time>2026-03-22T10:35:03.348Z</time></trkpt><trkpt lat="43.3892217" lon="11.533245"><ele>308.0</ele><time>2026-03-22T10:35:04.347Z</time></trkpt><trkpt lat="43.38907" lon="11.5332333"><ele>308.0</ele><time>2026-03-22T10:35:05.348Z</time></trkpt><trkpt lat="43.388895" lon="11.53322"><ele>308.0</ele><time>2026-03-22T10:35:06.348Z</time></trkpt><trkpt lat="43.3887217" lon="11.5332017"><ele>308.0</ele><time>2026-03-22T10:35:07.348Z</time></trkpt><trkpt lat="43.388545" lon="11.5331783"><ele>305.6666666666667</ele><time>2026-03-22T10:35:08.348Z</time></trkpt><trkpt lat="43.388375" lon="11.5331833"><ele>303.3333333333333</ele><time>2026-03-22T10:35:09.348Z</time></trkpt><trkpt lat="43.388225" lon="11.5332033"><ele>301.0</ele><time>2026-03-22T10:35:10.348Z</time></trkpt><trkpt lat="43.38808" lon="11.5332433"><ele>300.25</ele><time>2026-03-22T10:35:11.347Z</time></trkpt><trkpt lat="43.3879517" lon="11.533295"><ele>299.5</ele><time>2026-03-22T10:35:12.347Z</time></trkpt><trkpt lat="43.3878317" lon="11.5333467"><ele>298.75</ele><time>2026-03-22T10:35:13.348Z</time></trkpt><trkpt lat="43.387725" lon="11.53339"><ele>298.0</ele><time>2026-03-22T10:35:14.347Z</time></trkpt><trkpt lat="43.387635" lon="11.5334"><ele>298.0</ele><time>2026-03-22T10:35:15.348Z</time></trkpt><trkpt lat="43.3875617" lon="11.5333817"><ele>298.0</ele><time>2026-03-22T10:35:16.347Z</time></trkpt><trkpt lat="43.3875033" lon="11.533325"><ele>298.0</ele><time>2026-03-22T10:35:17.348Z</time></trkpt><trkpt lat="43.3874583" lon="11.533225"><ele>298.0</ele><time>2026-03-22T10:35:18.348Z</time></trkpt><trkpt lat="43.38743" lon="11.53308"><ele>298.0</ele><time>2026-03-22T10:35:19.347Z</time></trkpt><trkpt lat="43.3874183" lon="11.5329033"><ele>297.75</ele><time>2026-03-22T10:35:20.347Z</time></trkpt><trkpt lat="43.3873933" lon="11.532705"><ele>297.5</ele><time>2026-03-22T10:35:21.348Z</time></trkpt><trkpt lat="43.3873783" lon="11.5325017"><ele>297.25</ele><time>2026-03-22T10:35:22.348Z</time></trkpt><trkpt lat="43.3873467" lon="11.5322967"><ele>297.0</ele><time>2026-03-22T10:35:23.348Z</time></trkpt><trkpt lat="43.3873183" lon="11.53208"><ele>299.0</ele><time>2026-03-22T10:35:24.347Z</time></trkpt><trkpt lat="43.38728" lon="11.5318533"><ele>301.0</ele><time>2026-03-22T10:35:25.348Z</time></trkpt><trkpt lat="43.387245" lon="11.53163"><ele>303.0</ele><time>2026-03-22T10:35:26.348Z</time></trkpt><trkpt lat="43.38721" lon="11.5314283"><ele>303.0</ele><time>2026-03-22T10:35:27.348Z</time></trkpt><trkpt lat="43.387185" lon="11.5312517"><ele>303.0</ele><time>2026-03-22T10:35:28.348Z</time></trkpt><trkpt lat="43.3871867" lon="11.5310933"><ele>303.0</ele><time>2026-03-22T10:35:29.348Z</time></trkpt><trkpt lat="43.387215" lon="11.53094"><ele>303.0</ele><time>2026-03-22T10:35:30.347Z</time></trkpt><trkpt lat="43.3872467" lon="11.5308133"><ele>305.25</ele><time>2026-03-22T10:35:31.348Z</time></trkpt><trkpt lat="43.3873" lon="11.530665"><ele>307.5</ele><time>2026-03-22T10:35:32.348Z</time></trkpt><trkpt lat="43.38736" lon="11.5305117"><ele>309.75</ele><time>2026-03-22T10:35:33.347Z</time></trkpt><trkpt lat="43.3874333" lon="11.5303583"><ele>312.0</ele><time>2026-03-22T10:35:34.348Z</time></trkpt><trkpt lat="43.3875067" lon="11.5301667"><ele>313.25</ele><time>2026-03-22T10:35:35.348Z</time></trkpt><trkpt lat="43.3875617" lon="11.529955"><ele>314.5</ele><time>2026-03-22T10:35:36.348Z</time></trkpt><trkpt lat="43.3875983" lon="11.5297633"><ele>315.75</ele><time>2026-03-22T10:35:37.348Z</time></trkpt><trkpt lat="43.38763" lon="11.529575"><ele>317.0</ele><time>2026-03-22T10:35:38.348Z</time></trkpt><trkpt lat="43.387645" lon="11.529375"><ele>319.33333333333337</ele><time>2026-03-22T10:35:39.348Z</time></trkpt><trkpt lat="43.3876417" lon="11.529175"><ele>321.6666666666667</ele><time>2026-03-22T10:35:40.347Z</time></trkpt><trkpt lat="43.3876183" lon="11.52897"><ele>324.0</ele><time>2026-03-22T10:35:41.347Z</time></trkpt><trkpt lat="43.3875967" lon="11.5287567"><ele>324.0</ele><time>2026-03-22T10:35:42.348Z</time></trkpt><trkpt lat="43.387575" lon="11.5285517"><ele>324.0</ele><time>2026-03-22T10:35:43.347Z</time></trkpt><trkpt lat="43.3875567" lon="11.5283533"><ele>324.0</ele><time>2026-03-22T10:35:44.348Z</time></trkpt><trkpt lat="43.387545" lon="11.5281617"><ele>324.0</ele><time>2026-03-22T10:35:45.348Z</time></trkpt><trkpt lat="43.38751" lon="11.5279833"><ele>324.0</ele><time>2026-03-22T10:35:46.348Z</time></trkpt><trkpt lat="43.387455" lon="11.52783"><ele>324.0</ele><time>2026-03-22T10:35:47.347Z</time></trkpt><trkpt lat="43.387395" lon="11.5276667"><ele>324.0</ele><time>2026-03-22T10:35:48.348Z</time></trkpt><trkpt lat="43.38733" lon="11.5274867"><ele>324.0</ele><time>2026-03-22T10:35:49.348Z</time></trkpt><trkpt lat="43.3872817" lon="11.5273083"><ele>324.0</ele><time>2026-03-22T10:35:50.348Z</time></trkpt><trkpt lat="43.3872433" lon="11.5271233"><ele>324.0</ele><time>2026-03-22T10:35:51.347Z</time></trkpt><trkpt lat="43.38722" lon="11.5269417"><ele>324.0</ele><time>2026-03-22T10:35:52.347Z</time></trkpt><trkpt lat="43.3871933" lon="11.526765"><ele>324.0</ele><time>2026-03-22T10:35:53.347Z</time></trkpt><trkpt lat="43.3871583" lon="11.5266183"><ele>324.75</ele><time>2026-03-22T10:35:54.348Z</time></trkpt><trkpt lat="43.3871017" lon="11.5264983"><ele>325.5</ele><time>2026-03-22T10:35:55.348Z</time></trkpt><trkpt lat="43.387025" lon="11.5263533"><ele>326.25</ele><time>2026-03-22T10:35:56.348Z</time></trkpt><trkpt lat="43.3869483" lon="11.5261967"><ele>327.0</ele><time>2026-03-22T10:35:57.348Z</time></trkpt><trkpt lat="43.38688" lon="11.5260017"><ele>327.3333333333333</ele><time>2026-03-22T10:35:58.347Z</time></trkpt><trkpt lat="43.3868267" lon="11.5257967"><ele>327.66666666666663</ele><time>2026-03-22T10:35:59.347Z</time></trkpt><trkpt lat="43.3867783" lon="11.5255833"><ele>328.0</ele><time>2026-03-22T10:36:00.347Z</time></trkpt><trkpt lat="43.3867317" lon="11.5253667"><ele>330.0</ele><time>2026-03-22T10:36:01.347Z</time></trkpt><trkpt lat="43.3866617" lon="11.5251667"><ele>332.0</ele><time>2026-03-22T10:36:02.347Z</time></trkpt><trkpt lat="43.3865783" lon="11.5249633"><ele>334.0</ele><time>2026-03-22T10:36:03.347Z</time></trkpt><trkpt lat="43.38646" lon="11.524795"><ele>334.0</ele><time>2026-03-22T10:36:04.348Z</time></trkpt><trkpt lat="43.3863483" lon="11.5246333"><ele>334.0</ele><time>2026-03-22T10:36:05.348Z</time></trkpt><trkpt lat="43.3862167" lon="11.52448"><ele>334.0</ele><time>2026-03-22T10:36:06.348Z</time></trkpt><trkpt lat="43.386095" lon="11.52431"><ele>336.0</ele><time>2026-03-22T10:36:07.348Z</time></trkpt><trkpt lat="43.3859883" lon="11.5241467"><ele>338.0</ele><time>2026-03-22T10:36:08.347Z</time></trkpt><trkpt lat="43.3858917" lon="11.5239683"><ele>340.0</ele><time>2026-03-22T10:36:09.348Z</time></trkpt><trkpt lat="43.385795" lon="11.523785"><ele>343.0</ele><time>2026-03-22T10:36:10.347Z</time></trkpt><trkpt lat="43.3857" lon="11.5235867"><ele>346.0</ele><time>2026-03-22T10:36:11.348Z</time></trkpt><trkpt lat="43.3855917" lon="11.5234033"><ele>349.0</ele><time>2026-03-22T10:36:12.348Z</time></trkpt><trkpt lat="43.3854983" lon="11.52322"><ele>349.0</ele><time>2026-03-22T10:36:13.348Z</time></trkpt><trkpt lat="43.3854017" lon="11.5230483"><ele>349.0</ele><time>2026-03-22T10:36:14.348Z</time></trkpt><trkpt lat="43.38533" lon="11.5228467"><ele>349.0</ele><time>2026-03-22T10:36:15.348Z</time></trkpt><trkpt lat="43.3852683" lon="11.52264"><ele>349.0</ele><time>2026-03-22T10:36:16.348Z</time></trkpt><trkpt lat="43.3852133" lon="11.52243"><ele>349.0</ele><time>2026-03-22T10:36:17.347Z</time></trkpt><trkpt lat="43.3851517" lon="11.52221"><ele>349.0</ele><time>2026-03-22T10:36:18.348Z</time></trkpt><trkpt lat="43.385085" lon="11.52199"><ele>351.3333333333333</ele><time>2026-03-22T10:36:19.347Z</time></trkpt><trkpt lat="43.3849983" lon="11.521785"><ele>353.6666666666667</ele><time>2026-03-22T10:36:20.348Z</time></trkpt><trkpt lat="43.3849183" lon="11.5215617"><ele>356.0</ele><time>2026-03-22T10:36:21.347Z</time></trkpt><trkpt lat="43.38484" lon="11.5213467"><ele>355.33333333333337</ele><time>2026-03-22T10:36:22.348Z</time></trkpt><trkpt lat="43.384755" lon="11.5211617"><ele>354.6666666666667</ele><time>2026-03-22T10:36:23.348Z</time></trkpt><trkpt lat="43.38467" lon="11.5209933"><ele>354.0</ele><time>2026-03-22T10:36:24.348Z</time></trkpt><trkpt lat="43.38457" lon="11.5208433"><ele>354.0</ele><time>2026-03-22T10:36:25.348Z</time></trkpt><trkpt lat="43.3844667" lon="11.520675"><ele>354.0</ele><time>2026-03-22T10:36:26.348Z</time></trkpt><trkpt lat="43.3843633" lon="11.5205267"><ele>354.0</ele><time>2026-03-22T10:36:27.348Z</time></trkpt><trkpt lat="43.3842717" lon="11.52039"><ele>354.0</ele><time>2026-03-22T10:36:28.348Z</time></trkpt><trkpt lat="43.384195" lon="11.520245"><ele>355.2</ele><time>2026-03-22T10:36:29.347Z</time></trkpt><trkpt lat="43.3841583" lon="11.5200883"><ele>356.4</ele><time>2026-03-22T10:36:30.348Z</time></trkpt><trkpt lat="43.3841433" lon="11.5199383"><ele>357.6</ele><time>2026-03-22T10:36:31.348Z</time></trkpt><trkpt lat="43.38413" lon="11.5198033"><ele>358.8</ele><time>2026-03-22T10:36:32.348Z</time></trkpt><trkpt lat="43.3841133" lon="11.5196917"><ele>360.0</ele><time>2026-03-22T10:36:33.348Z</time></trkpt><trkpt lat="43.3840683" lon="11.5196083"><ele>360.8</ele><time>2026-03-22T10:36:34.348Z</time></trkpt><trkpt lat="43.384005" lon="11.5195333"><ele>361.6</ele><time>2026-03-22T10:36:35.347Z</time></trkpt><trkpt lat="43.383945" lon="11.5194483"><ele>362.4</ele><time>2026-03-22T10:36:36.348Z</time></trkpt><trkpt lat="43.3838817" lon="11.5193533"><ele>363.2</ele><time>2026-03-22T10:36:37.348Z</time></trkpt><trkpt lat="43.3838267" lon="11.51925"><ele>364.0</ele><time>2026-03-22T10:36:38.348Z</time></trkpt><trkpt lat="43.383795" lon="11.5191083"><ele>368.75</ele><time>2026-03-22T10:36:39.348Z</time></trkpt><trkpt lat="43.3837783" lon="11.518945"><ele>373.5</ele><time>2026-03-22T10:36:40.348Z</time></trkpt><trkpt lat="43.3837517" lon="11.5187567"><ele>378.25</ele><time>2026-03-22T10:36:41.348Z</time></trkpt><trkpt lat="43.383715" lon="11.51856"><ele>383.0</ele><time>2026-03-22T10:36:42.348Z</time></trkpt><trkpt lat="43.3836667" lon="11.5183467"><ele>383.0</ele><time>2026-03-22T10:36:43.348Z</time></trkpt><trkpt lat="43.383615" lon="11.5181217"><ele>383.0</ele><time>2026-03-22T10:36:44.348Z</time></trkpt><trkpt lat="43.3835567" lon="11.51789"><ele>383.0</ele><time>2026-03-22T10:36:45.348Z</time></trkpt><trkpt lat="43.38349" lon="11.517675"><ele>380.75</ele><time>2026-03-22T10:36:46.348Z</time></trkpt><trkpt lat="43.3834217" lon="11.517475"><ele>378.5</ele><time>2026-03-22T10:36:47.347Z</time></trkpt><trkpt lat="43.3833617" lon="11.5172917"><ele>376.25</ele><time>2026-03-22T10:36:48.348Z</time></trkpt><trkpt lat="43.38331" lon="11.5171517"><ele>374.0</ele><time>2026-03-22T10:36:49.348Z</time></trkpt><trkpt lat="43.3832633" lon="11.5170317"><ele>374.0</ele><time>2026-03-22T10:36:50.347Z</time></trkpt><trkpt lat="43.3832133" lon="11.5169217"><ele>374.0</ele><time>2026-03-22T10:36:51.348Z</time></trkpt><trkpt lat="43.3831833" lon="11.5168217"><ele>374.0</ele><time>2026-03-22T10:36:52.347Z</time></trkpt><trkpt lat="43.38317" lon="11.516705"><ele>374.0</ele><time>2026-03-22T10:36:53.347Z</time></trkpt><trkpt lat="43.3831817" lon="11.51657"><ele>374.0</ele><time>2026-03-22T10:36:54.348Z</time></trkpt><trkpt lat="43.3831883" lon="11.5164183"><ele>374.0</ele><time>2026-03-22T10:36:55.348Z</time></trkpt><trkpt lat="43.3831833" lon="11.5162367"><ele>374.0</ele><time>2026-03-22T10:36:56.348Z</time></trkpt><trkpt lat="43.3831633" lon="11.516045"><ele>374.0</ele><time>2026-03-22T10:36:57.347Z</time></trkpt><trkpt lat="43.3831333" lon="11.51586"><ele>374.0</ele><time>2026-03-22T10:36:58.347Z</time></trkpt><trkpt lat="43.3830967" lon="11.5156833"><ele>375.5</ele><time>2026-03-22T10:36:59.347Z</time></trkpt><trkpt lat="43.383045" lon="11.5155283"><ele>377.0</ele><time>2026-03-22T10:37:00.347Z</time></trkpt><trkpt lat="43.382985" lon="11.5153683"><ele>378.5</ele><time>2026-03-22T10:37:01.348Z</time></trkpt><trkpt lat="43.3829033" lon="11.5152383"><ele>380.0</ele><time>2026-03-22T10:37:02.348Z</time></trkpt><trkpt lat="43.3828117" lon="11.5151117"><ele>383.75</ele><time>2026-03-22T10:37:03.348Z</time></trkpt><trkpt lat="43.38272" lon="11.5149933"><ele>387.5</ele><time>2026-03-22T10:37:04.347Z</time></trkpt><trkpt lat="43.3826317" lon="11.514865"><ele>391.25</ele><time>2026-03-22T10:37:05.347Z</time></trkpt><trkpt lat="43.3825367" lon="11.5147033"><ele>395.0</ele><time>2026-03-22T10:37:06.348Z</time></trkpt><trkpt lat="43.382465" lon="11.5145267"><ele>395.66666666666663</ele><time>2026-03-22T10:37:07.348Z</time></trkpt><trkpt lat="43.3824" lon="11.51434"><ele>396.33333333333337</ele><time>2026-03-22T10:37:08.348Z</time></trkpt><trkpt lat="43.3823433" lon="11.5141467"><ele>397.0</ele><time>2026-03-22T10:37:09.348Z</time></trkpt><trkpt lat="43.38228" lon="11.5139617"><ele>397.0</ele><time>2026-03-22T10:37:10.348Z</time></trkpt><trkpt lat="43.382215" lon="11.51378"><ele>397.0</ele><time>2026-03-22T10:37:11.347Z</time></trkpt><trkpt lat="43.3821483" lon="11.513595"><ele>397.0</ele><time>2026-03-22T10:37:12.348Z</time></trkpt><trkpt lat="43.3820783" lon="11.513415"><ele>397.0</ele><time>2026-03-22T10:37:13.348Z</time></trkpt><trkpt lat="43.3819933" lon="11.5132367"><ele>400.0</ele><time>2026-03-22T10:37:14.347Z</time></trkpt><trkpt lat="43.3818983" lon="11.51306"><ele>403.0</ele><time>2026-03-22T10:37:15.348Z</time></trkpt><trkpt lat="43.3818" lon="11.5128767"><ele>406.0</ele><time>2026-03-22T10:37:16.347Z</time></trkpt><trkpt lat="43.3816933" lon="11.5126867"><ele>406.0</ele><time>2026-03-22T10:37:17.347Z</time></trkpt><trkpt lat="43.3815533" lon="11.5124983"><ele>406.0</ele><time>2026-03-22T10:37:18.348Z</time></trkpt><trkpt lat="43.3814417" lon="11.5123183"><ele>406.0</ele><time>2026-03-22T10:37:19.348Z</time></trkpt><trkpt lat="43.3813217" lon="11.512125"><ele>407.0</ele><time>2026-03-22T10:37:20.348Z</time></trkpt><trkpt lat="43.3812133" lon="11.511945"><ele>408.0</ele><time>2026-03-22T10:37:21.348Z</time></trkpt><trkpt lat="43.3811133" lon="11.5117817"><ele>409.0</ele><time>2026-03-22T10:37:22.348Z</time></trkpt><trkpt lat="43.3810333" lon="11.511625"><ele>409.0</ele><time>2026-03-22T10:37:23.347Z</time></trkpt><trkpt lat="43.3809683" lon="11.5114967"><ele>409.0</ele><time>2026-03-22T10:37:24.348Z</time></trkpt><trkpt lat="43.380915" lon="11.5113833"><ele>409.0</ele><time>2026-03-22T10:37:25.348Z</time></trkpt><trkpt lat="43.38087" lon="11.511305"><ele>409.0</ele><time>2026-03-22T10:37:26.347Z</time></trkpt><trkpt lat="43.3808583" lon="11.51116"><ele>409.0</ele><time>2026-03-22T10:37:28.347Z</time></trkpt><trkpt lat="43.38088" lon="11.51106"><ele>408.79999999999995</ele><time>2026-03-22T10:37:29.348Z</time></trkpt><trkpt lat="43.3809017" lon="11.510965"><ele>408.59999999999997</ele><time>2026-03-22T10:37:30.348Z</time></trkpt><trkpt lat="43.3809717" lon="11.5108517"><ele>408.4</ele><time>2026-03-22T10:37:32.348Z</time></trkpt><trkpt lat="43.3811017" lon="11.5107683"><ele>408.2</ele><time>2026-03-22T10:37:34.348Z</time></trkpt><trkpt lat="43.3811933" lon="11.5107083"><ele>408.0</ele><time>2026-03-22T10:37:35.348Z</time></trkpt><trkpt lat="43.38128" lon="11.5106333"><ele>407.75</ele><time>2026-03-22T10:37:36.348Z</time></trkpt><trkpt lat="43.3813967" lon="11.5105267"><ele>407.5</ele><time>2026-03-22T10:37:37.348Z</time></trkpt><trkpt lat="43.3815117" lon="11.510415"><ele>407.25</ele><time>2026-03-22T10:37:38.348Z</time></trkpt><trkpt lat="43.3816283" lon="11.5102933"><ele>407.0</ele><time>2026-03-22T10:37:39.348Z</time></trkpt><trkpt lat="43.381745" lon="11.51018"><ele>407.0</ele><time>2026-03-22T10:37:40.348Z</time></trkpt><trkpt lat="43.3818467" lon="11.5100433"><ele>407.0</ele><time>2026-03-22T10:37:41.347Z</time></trkpt><trkpt lat="43.3819333" lon="11.5098867"><ele>407.0</ele><time>2026-03-22T10:37:42.348Z</time></trkpt><trkpt lat="43.3820033" lon="11.5097267"><ele>407.0</ele><time>2026-03-22T10:37:43.348Z</time></trkpt><trkpt lat="43.38207" lon="11.5095517"><ele>405.3333333333333</ele><time>2026-03-22T10:37:44.348Z</time></trkpt><trkpt lat="43.3821333" lon="11.5093567"><ele>403.66666666666663</ele><time>2026-03-22T10:37:45.348Z</time></trkpt><trkpt lat="43.382195" lon="11.5091667"><ele>402.0</ele><time>2026-03-22T10:37:46.347Z</time></trkpt><trkpt lat="43.382265" lon="11.50898"><ele>403.66666666666663</ele><time>2026-03-22T10:37:47.348Z</time></trkpt><trkpt lat="43.382335" lon="11.5087917"><ele>405.3333333333333</ele><time>2026-03-22T10:37:48.348Z</time></trkpt><trkpt lat="43.382415" lon="11.5085967"><ele>407.0</ele><time>2026-03-22T10:37:49.348Z</time></trkpt><trkpt lat="43.38249" lon="11.50839"><ele>407.0</ele><time>2026-03-22T10:37:50.348Z</time></trkpt><trkpt lat="43.3825567" lon="11.5081833"><ele>407.0</ele><time>2026-03-22T10:37:51.347Z</time></trkpt><trkpt lat="43.3826183" lon="11.5080117"><ele>407.0</ele><time>2026-03-22T10:37:52.348Z</time></trkpt><trkpt lat="43.3826783" lon="11.507865"><ele>407.0</ele><time>2026-03-22T10:37:53.348Z</time></trkpt><trkpt lat="43.382755" lon="11.50774"><ele>406.0</ele><time>2026-03-22T10:37:54.348Z</time></trkpt><trkpt lat="43.3828383" lon="11.50763"><ele>405.0</ele><time>2026-03-22T10:37:55.347Z</time></trkpt><trkpt lat="43.3829267" lon="11.5075367"><ele>404.0</ele><time>2026-03-22T10:37:56.348Z</time></trkpt><trkpt lat="43.3830183" lon="11.50745"><ele>403.0</ele><time>2026-03-22T10:37:57.347Z</time></trkpt><trkpt lat="43.383115" lon="11.5073733"><ele>403.0</ele><time>2026-03-22T10:37:58.348Z</time></trkpt><trkpt lat="43.3832267" lon="11.5073217"><ele>403.0</ele><time>2026-03-22T10:37:59.348Z</time></trkpt><trkpt lat="43.3833517" lon="11.507275"><ele>403.0</ele><time>2026-03-22T10:38:00.348Z</time></trkpt><trkpt lat="43.3834917" lon="11.5072267"><ele>403.0</ele><time>2026-03-22T10:38:01.348Z</time></trkpt><trkpt lat="43.3836133" lon="11.5071933"><ele>403.0</ele><time>2026-03-22T10:38:02.348Z</time></trkpt><trkpt lat="43.3837067" lon="11.5071467"><ele>403.0</ele><time>2026-03-22T10:38:03.348Z</time></trkpt><trkpt lat="43.3837733" lon="11.50707"><ele>403.0</ele><time>2026-03-22T10:38:04.347Z</time></trkpt><trkpt lat="43.3838233" lon="11.5069733"><ele>403.0</ele><time>2026-03-22T10:38:05.348Z</time></trkpt><trkpt lat="43.3838667" lon="11.5068483"><ele>403.0</ele><time>2026-03-22T10:38:06.348Z</time></trkpt><trkpt lat="43.383915" lon="11.5066983"><ele>403.25</ele><time>2026-03-22T10:38:07.348Z</time></trkpt><trkpt lat="43.38397" lon="11.5065483"><ele>403.5</ele><time>2026-03-22T10:38:08.348Z</time></trkpt><trkpt lat="43.3840367" lon="11.5063867"><ele>403.75</ele><time>2026-03-22T10:38:09.348Z</time></trkpt><trkpt lat="43.38411" lon="11.50621"><ele>404.0</ele><time>2026-03-22T10:38:10.348Z</time></trkpt><trkpt lat="43.3841867" lon="11.5060317"><ele>401.0</ele><time>2026-03-22T10:38:11.347Z</time></trkpt><trkpt lat="43.38426" lon="11.5058733"><ele>398.0</ele><time>2026-03-22T10:38:12.347Z</time></trkpt><trkpt lat="43.3843367" lon="11.5057267"><ele>395.0</ele><time>2026-03-22T10:38:13.348Z</time></trkpt><trkpt lat="43.3844133" lon="11.505595"><ele>392.0</ele><time>2026-03-22T10:38:14.347Z</time></trkpt><trkpt lat="43.3844967" lon="11.5055083"><ele>391.99999999999994</ele><time>2026-03-22T10:38:15.348Z</time></trkpt><trkpt lat="43.3845767" lon="11.505465"><ele>392.0</ele><time>2026-03-22T10:38:16.348Z</time></trkpt><trkpt lat="43.3846433" lon="11.505435"><ele>392.0</ele><time>2026-03-22T10:38:17.348Z</time></trkpt><trkpt lat="43.3847067" lon="11.5054117"><ele>392.0</ele><time>2026-03-22T10:38:18.348Z</time></trkpt><trkpt lat="43.38477" lon="11.5053967"><ele>391.99999999999994</ele><time>2026-03-22T10:38:19.347Z</time></trkpt><trkpt lat="43.3848517" lon="11.5053767"><ele>392.0</ele><time>2026-03-22T10:38:20.348Z</time></trkpt><trkpt lat="43.384935" lon="11.50535"><ele>392.8333333333333</ele><time>2026-03-22T10:38:21.347Z</time></trkpt><trkpt lat="43.3850117" lon="11.5053267"><ele>393.66666666666663</ele><time>2026-03-22T10:38:22.348Z</time></trkpt><trkpt lat="43.3850833" lon="11.5053017"><ele>394.5</ele><time>2026-03-22T10:38:23.347Z</time></trkpt><trkpt lat="43.3851783" lon="11.5052917"><ele>395.33333333333337</ele><time>2026-03-22T10:38:25.348Z</time></trkpt><trkpt lat="43.38525" lon="11.5053133"><ele>396.1666666666667</ele><time>2026-03-22T10:38:27.347Z</time></trkpt><trkpt lat="43.3851633" lon="11.5053"><ele>397.0</ele><time>2026-03-22T10:38:49.348Z</time></trkpt><trkpt lat="43.385095" lon="11.5052917"><ele>397.00000000000006</ele><time>2026-03-22T10:38:50.348Z</time></trkpt><trkpt lat="43.3850117" lon="11.50531"><ele>397.0</ele><time>2026-03-22T10:38:51.348Z</time></trkpt><trkpt lat="43.384925" lon="11.505335"><ele>397.0</ele><time>2026-03-22T10:38:52.348Z</time></trkpt><trkpt lat="43.3848417" lon="11.5053733"><ele>397.0</ele><time>2026-03-22T10:38:53.348Z</time></trkpt><trkpt lat="43.3847683" lon="11.5054117"><ele>397.00000000000006</ele><time>2026-03-22T10:38:54.348Z</time></trkpt><trkpt lat="43.3846833" lon="11.5054517"><ele>397.0</ele><time>2026-03-22T10:38:55.347Z</time></trkpt><trkpt lat="43.3846117" lon="11.505485"><ele>397.33333333333337</ele><time>2026-03-22T10:38:56.348Z</time></trkpt><trkpt lat="43.384525" lon="11.5055367"><ele>397.6666666666667</ele><time>2026-03-22T10:38:58.347Z</time></trkpt><trkpt lat="43.3844583" lon="11.5055817"><ele>398.0</ele><time>2026-03-22T10:39:34.347Z</time></trkpt><trkpt lat="43.3845033" lon="11.5055183"><ele>398.33333333333337</ele><time>2026-03-22T10:39:45.347Z</time></trkpt><trkpt lat="43.3845583" lon="11.5054733"><ele>398.6666666666667</ele><time>2026-03-22T10:39:46.348Z</time></trkpt><trkpt lat="43.3846283" lon="11.5054317"><ele>399.0</ele><time>2026-03-22T10:39:47.348Z</time></trkpt><trkpt lat="43.384715" lon="11.5054133"><ele>398.5</ele><time>2026-03-22T10:39:48.348Z</time></trkpt><trkpt lat="43.3848283" lon="11.5053867"><ele>398.0</ele><time>2026-03-22T10:39:49.348Z</time></trkpt><trkpt lat="43.3849517" lon="11.5053417"><ele>397.5</ele><time>2026-03-22T10:39:50.348Z</time></trkpt><trkpt lat="43.385065" lon="11.5053233"><ele>397.0</ele><time>2026-03-22T10:39:51.348Z</time></trkpt><trkpt lat="43.3851633" lon="11.505315"><ele>397.0</ele><time>2026-03-22T10:39:52.347Z</time></trkpt><trkpt lat="43.3852767" lon="11.5053317"><ele>397.0</ele><time>2026-03-22T10:39:53.348Z</time></trkpt><trkpt lat="43.3853933" lon="11.50534"><ele>397.0</ele><time>2026-03-22T10:39:54.348Z</time></trkpt><trkpt lat="43.3855033" lon="11.50536"><ele>397.0</ele><time>2026-03-22T10:39:55.347Z</time></trkpt><trkpt lat="43.3856133" lon="11.505375"><ele>399.0</ele><time>2026-03-22T10:39:56.348Z</time></trkpt><trkpt lat="43.385725" lon="11.5053667"><ele>401.0</ele><time>2026-03-22T10:39:57.347Z</time></trkpt><trkpt lat="43.3858467" lon="11.5053283"><ele>403.0</ele><time>2026-03-22T10:39:58.348Z</time></trkpt><trkpt lat="43.3859717" lon="11.5052667"><ele>405.0</ele><time>2026-03-22T10:39:59.348Z</time></trkpt><trkpt lat="43.3860833" lon="11.505185"><ele>405.0</ele><time>2026-03-22T10:40:00.348Z</time></trkpt><trkpt lat="43.3861933" lon="11.5050933"><ele>405.0</ele><time>2026-03-22T10:40:01.348Z</time></trkpt><trkpt lat="43.3863067" lon="11.5049933"><ele>405.0</ele><time>2026-03-22T10:40:02.348Z</time></trkpt><trkpt lat="43.3864033" lon="11.5048933"><ele>405.0</ele><time>2026-03-22T10:40:03.348Z</time></trkpt><trkpt lat="43.3865167" lon="11.5047833"><ele>406.75</ele><time>2026-03-22T10:40:04.348Z</time></trkpt><trkpt lat="43.3866467" lon="11.5046867"><ele>408.5</ele><time>2026-03-22T10:40:05.348Z</time></trkpt><trkpt lat="43.3867717" lon="11.5046233"><ele>410.25</ele><time>2026-03-22T10:40:06.348Z</time></trkpt><trkpt lat="43.3868883" lon="11.50453"><ele>412.0</ele><time>2026-03-22T10:40:07.348Z</time></trkpt><trkpt lat="43.3869867" lon="11.504425"><ele>414.0</ele><time>2026-03-22T10:40:08.348Z</time></trkpt><trkpt lat="43.3870783" lon="11.5043117"><ele>416.0</ele><time>2026-03-22T10:40:09.348Z</time></trkpt><trkpt lat="43.3871567" lon="11.50419"><ele>418.0</ele><time>2026-03-22T10:40:10.348Z</time></trkpt><trkpt lat="43.3872433" lon="11.504065"><ele>420.0</ele><time>2026-03-22T10:40:11.348Z</time></trkpt><trkpt lat="43.3873317" lon="11.503915"><ele>420.0</ele><time>2026-03-22T10:40:12.348Z</time></trkpt><trkpt lat="43.387415" lon="11.5037633"><ele>420.0</ele><time>2026-03-22T10:40:13.348Z</time></trkpt><trkpt lat="43.38749" lon="11.5035967"><ele>420.0</ele><time>2026-03-22T10:40:14.348Z</time></trkpt><trkpt lat="43.3875817" lon="11.503455"><ele>420.0</ele><time>2026-03-22T10:40:15.348Z</time></trkpt><trkpt lat="43.38768" lon="11.5033333"><ele>423.25</ele><time>2026-03-22T10:40:16.348Z</time></trkpt><trkpt lat="43.3877583" lon="11.503195"><ele>426.5</ele><time>2026-03-22T10:40:17.348Z</time></trkpt><trkpt lat="43.3878217" lon="11.503055"><ele>429.75</ele><time>2026-03-22T10:40:18.348Z</time></trkpt><trkpt lat="43.3878867" lon="11.5029133"><ele>433.0</ele><time>2026-03-22T10:40:19.348Z</time></trkpt><trkpt lat="43.38794" lon="11.5027617"><ele>433.25</ele><time>2026-03-22T10:40:20.348Z</time></trkpt><trkpt lat="43.3879783" lon="11.5026017"><ele>433.5</ele><time>2026-03-22T10:40:21.348Z</time></trkpt><trkpt lat="43.38801" lon="11.5024283"><ele>433.75</ele><time>2026-03-22T10:40:22.348Z</time></trkpt><trkpt lat="43.3880467" lon="11.502255"><ele>434.0</ele><time>2026-03-22T10:40:23.347Z</time></trkpt><trkpt lat="43.3880833" lon="11.502075"><ele>436.0</ele><time>2026-03-22T10:40:24.347Z</time></trkpt><trkpt lat="43.3881433" lon="11.5018917"><ele>438.0</ele><time>2026-03-22T10:40:25.348Z</time></trkpt><trkpt lat="43.388185" lon="11.5017033"><ele>440.0</ele><time>2026-03-22T10:40:26.348Z</time></trkpt><trkpt lat="43.38823" lon="11.50154"><ele>442.0</ele><time>2026-03-22T10:40:27.347Z</time></trkpt><trkpt lat="43.3882733" lon="11.5013933"><ele>442.0</ele><time>2026-03-22T10:40:28.347Z</time></trkpt><trkpt lat="43.388325" lon="11.5012667"><ele>442.0</ele><time>2026-03-22T10:40:29.348Z</time></trkpt><trkpt lat="43.3883933" lon="11.501155"><ele>442.0</ele><time>2026-03-22T10:40:30.347Z</time></trkpt><trkpt lat="43.3884867" lon="11.501055"><ele>442.0</ele><time>2026-03-22T10:40:31.348Z</time></trkpt><trkpt lat="43.3885883" lon="11.5009583"><ele>443.75</ele><time>2026-03-22T10:40:32.348Z</time></trkpt><trkpt lat="43.3887" lon="11.5008533"><ele>445.5</ele><time>2026-03-22T10:40:33.348Z</time></trkpt><trkpt lat="43.388805" lon="11.5007517"><ele>447.25</ele><time>2026-03-22T10:40:34.348Z</time></trkpt><trkpt lat="43.3888817" lon="11.5006483"><ele>449.0</ele><time>2026-03-22T10:40:35.348Z</time></trkpt><trkpt lat="43.38894" lon="11.5005617"><ele>449.3333333333333</ele><time>2026-03-22T10:40:36.347Z</time></trkpt><trkpt lat="43.3889833" lon="11.5004267"><ele>449.66666666666663</ele><time>2026-03-22T10:40:38.347Z</time></trkpt><trkpt lat="43.388945" lon="11.5002983"><ele>450.0</ele><time>2026-03-22T10:40:40.348Z</time></trkpt><trkpt lat="43.3889017" lon="11.5002233"><ele>450.33333333333337</ele><time>2026-03-22T10:40:41.347Z</time></trkpt><trkpt lat="43.3888583" lon="11.5001417"><ele>450.6666666666667</ele><time>2026-03-22T10:40:42.348Z</time></trkpt><trkpt lat="43.38882" lon="11.5000683"><ele>451.0</ele><time>2026-03-22T10:40:43.348Z</time></trkpt><trkpt lat="43.38877" lon="11.4999283"><ele>451.0</ele><time>2026-03-22T10:40:45.348Z</time></trkpt><trkpt lat="43.3887467" lon="11.499845"><ele>451.0</ele><time>2026-03-22T10:40:46.348Z</time></trkpt><trkpt lat="43.3887317" lon="11.4997417"><ele>451.0</ele><time>2026-03-22T10:40:47.347Z</time></trkpt><trkpt lat="43.388715" lon="11.4996467"><ele>451.0</ele><time>2026-03-22T10:40:48.348Z</time></trkpt><trkpt lat="43.3887" lon="11.49955"><ele>451.0</ele><time>2026-03-22T10:40:49.348Z</time></trkpt><trkpt lat="43.3886867" lon="11.4994517"><ele>451.0</ele><time>2026-03-22T10:40:50.348Z</time></trkpt><trkpt lat="43.3886817" lon="11.4993617"><ele>451.0</ele><time>2026-03-22T10:40:51.348Z</time></trkpt><trkpt lat="43.3886817" lon="11.49926"><ele>452.20000000000005</ele><time>2026-03-22T10:40:52.348Z</time></trkpt><trkpt lat="43.3886617" lon="11.4991633"><ele>453.40000000000003</ele><time>2026-03-22T10:40:53.349Z</time></trkpt><trkpt lat="43.3886333" lon="11.4990833"><ele>454.6</ele><time>2026-03-22T10:40:54.349Z</time></trkpt><trkpt lat="43.3885467" lon="11.49896"><ele>455.8</ele><time>2026-03-22T10:40:56.349Z</time></trkpt><trkpt lat="43.3884667" lon="11.4988667"><ele>457.0</ele><time>2026-03-22T10:40:58.349Z</time></trkpt><trkpt lat="43.3883483" lon="11.49887"><ele>457.0</ele><time>2026-03-22T10:41:01.349Z</time></trkpt><trkpt lat="43.388215" lon="11.4988783"><ele>457.00000000000006</ele><time>2026-03-22T10:41:03.349Z</time></trkpt><trkpt lat="43.3881317" lon="11.4988717"><ele>457.00000000000006</ele><time>2026-03-22T10:41:04.349Z</time></trkpt><trkpt lat="43.3880517" lon="11.49886"><ele>457.0</ele><time>2026-03-22T10:41:05.348Z</time></trkpt><trkpt lat="43.3879733" lon="11.4988433"><ele>457.0</ele><time>2026-03-22T10:41:06.349Z</time></trkpt><trkpt lat="43.3879017" lon="11.4988133"><ele>456.83333333333337</ele><time>2026-03-22T10:41:07.349Z</time></trkpt><trkpt lat="43.3878367" lon="11.49876"><ele>456.6666666666667</ele><time>2026-03-22T10:41:08.349Z</time></trkpt><trkpt lat="43.3877767" lon="11.4986933"><ele>456.5</ele><time>2026-03-22T10:41:09.348Z</time></trkpt><trkpt lat="43.3877183" lon="11.498625"><ele>456.33333333333337</ele><time>2026-03-22T10:41:10.348Z</time></trkpt><trkpt lat="43.38767" lon="11.49856"><ele>456.1666666666667</ele><time>2026-03-22T10:41:11.349Z</time></trkpt><trkpt lat="43.3875783" lon="11.4984583"><ele>456.0</ele><time>2026-03-22T10:41:13.349Z</time></trkpt><trkpt lat="43.3875217" lon="11.4983633"><ele>456.3333333333333</ele><time>2026-03-22T10:41:15.349Z</time></trkpt><trkpt lat="43.3874833" lon="11.49822"><ele>456.66666666666663</ele><time>2026-03-22T10:41:17.349Z</time></trkpt><trkpt lat="43.387435" lon="11.498105"><ele>457.0</ele><time>2026-03-22T10:41:19.349Z</time></trkpt><trkpt lat="43.3874717" lon="11.497975"><ele>457.3333333333333</ele><time>2026-03-22T10:41:21.349Z</time></trkpt><trkpt lat="43.3875117" lon="11.4979067"><ele>457.66666666666663</ele><time>2026-03-22T10:41:22.349Z</time></trkpt><trkpt lat="43.3875583" lon="11.4978283"><ele>458.0</ele><time>2026-03-22T10:41:23.348Z</time></trkpt><trkpt lat="43.3876" lon="11.497755"><ele>457.99999999999994</ele><time>2026-03-22T10:41:24.348Z</time></trkpt><trkpt lat="43.387655" lon="11.49769"><ele>458.0</ele><time>2026-03-22T10:41:25.349Z</time></trkpt><trkpt lat="43.3877233" lon="11.49766"><ele>458.0</ele><time>2026-03-22T10:41:26.349Z</time></trkpt><trkpt lat="43.387775" lon="11.4976067"><ele>458.0</ele><time>2026-03-22T10:41:28.349Z</time></trkpt><trkpt lat="43.387705" lon="11.497625"><ele>457.99999999999994</ele><time>2026-03-22T10:41:31.349Z</time></trkpt><trkpt lat="43.3876367" lon="11.4977283"><ele>458.0</ele><time>2026-03-22T10:41:33.349Z</time></trkpt><trkpt lat="43.3875683" lon="11.4978367"><ele>458.8333333333333</ele><time>2026-03-22T10:41:35.349Z</time></trkpt><trkpt lat="43.3875017" lon="11.497945"><ele>459.66666666666663</ele><time>2026-03-22T10:41:37.349Z</time></trkpt><trkpt lat="43.3874417" lon="11.49806"><ele>460.5</ele><time>2026-03-22T10:41:39.349Z</time></trkpt><trkpt lat="43.3874267" lon="11.4981667"><ele>461.33333333333337</ele><time>2026-03-22T10:41:41.349Z</time></trkpt><trkpt lat="43.3874683" lon="11.4982517"><ele>462.1666666666667</ele><time>2026-03-22T10:41:43.349Z</time></trkpt><trkpt lat="43.38752" lon="11.4983117"><ele>463.0</ele><time>2026-03-22T10:41:44.349Z</time></trkpt><trkpt lat="43.3875633" lon="11.4984"><ele>463.00000000000006</ele><time>2026-03-22T10:41:46.349Z</time></trkpt><trkpt lat="43.3875917" lon="11.498505"><ele>463.0</ele><time>2026-03-22T10:41:48.349Z</time></trkpt><trkpt lat="43.3875483" lon="11.4985833"><ele>463.0</ele><time>2026-03-22T10:41:51.349Z</time></trkpt><trkpt lat="43.38746" lon="11.49861"><ele>463.0</ele><time>2026-03-22T10:41:54.349Z</time></trkpt><trkpt lat="43.3873783" lon="11.498605"><ele>463.00000000000006</ele><time>2026-03-22T10:41:56.348Z</time></trkpt><trkpt lat="43.3872967" lon="11.4985783"><ele>463.0</ele><time>2026-03-22T10:41:58.348Z</time></trkpt><trkpt lat="43.38721" lon="11.4985533"><ele>460.1666666666667</ele><time>2026-03-22T10:42:00.349Z</time></trkpt><trkpt lat="43.38713" lon="11.4985967"><ele>457.33333333333337</ele><time>2026-03-22T10:42:02.349Z</time></trkpt><trkpt lat="43.3870583" lon="11.49866"><ele>454.5</ele><time>2026-03-22T10:42:04.349Z</time></trkpt><trkpt lat="43.3869917" lon="11.49869"><ele>451.66666666666663</ele><time>2026-03-22T10:42:07.349Z</time></trkpt><trkpt lat="43.3868933" lon="11.4986717"><ele>448.8333333333333</ele><time>2026-03-22T10:42:10.349Z</time></trkpt><trkpt lat="43.3867883" lon="11.4986683"><ele>446.0</ele><time>2026-03-22T10:42:12.349Z</time></trkpt><trkpt lat="43.3866817" lon="11.4986867"><ele>446.0</ele><time>2026-03-22T10:42:14.349Z</time></trkpt><trkpt lat="43.3865767" lon="11.4987083"><ele>446.0</ele><time>2026-03-22T10:42:16.348Z</time></trkpt><trkpt lat="43.38649" lon="11.4987567"><ele>446.0</ele><time>2026-03-22T10:43:01.348Z</time></trkpt><trkpt lat="43.386565" lon="11.4987333"><ele>446.0</ele><time>2026-03-22T10:43:09.349Z</time></trkpt><trkpt lat="43.38667" lon="11.4987"><ele>446.0</ele><time>2026-03-22T10:43:11.349Z</time></trkpt><trkpt lat="43.3867383" lon="11.49869"><ele>445.99999999999994</ele><time>2026-03-22T10:43:12.349Z</time></trkpt><trkpt lat="43.3868167" lon="11.4986767"><ele>446.0</ele><time>2026-03-22T10:43:13.349Z</time></trkpt><trkpt lat="43.386895" lon="11.4986617"><ele>446.0</ele><time>2026-03-22T10:43:14.349Z</time></trkpt><trkpt lat="43.3869667" lon="11.49864"><ele>446.0</ele><time>2026-03-22T10:43:15.349Z</time></trkpt><trkpt lat="43.387045" lon="11.49856"><ele>445.99999999999994</ele><time>2026-03-22T10:43:17.349Z</time></trkpt><trkpt lat="43.387045" lon="11.498415"><ele>446.0</ele><time>2026-03-22T10:43:19.349Z</time></trkpt><trkpt lat="43.387015" lon="11.49833"><ele>446.0</ele><time>2026-03-22T10:43:20.349Z</time></trkpt><trkpt lat="43.3869783" lon="11.4982517"><ele>446.0</ele><time>2026-03-22T10:43:21.349Z</time></trkpt><trkpt lat="43.386925" lon="11.4981867"><ele>446.0</ele><time>2026-03-22T10:43:22.349Z</time></trkpt><trkpt lat="43.3868633" lon="11.4981583"><ele>446.0</ele><time>2026-03-22T10:43:23.349Z</time></trkpt><trkpt lat="43.3867917" lon="11.49814"><ele>446.0</ele><time>2026-03-22T10:43:24.349Z</time></trkpt><trkpt lat="43.386725" lon="11.498145"><ele>446.0</ele><time>2026-03-22T10:43:25.349Z</time></trkpt><trkpt lat="43.3866433" lon="11.498155"><ele>446.0</ele><time>2026-03-22T10:43:26.349Z</time></trkpt><trkpt lat="43.3865483" lon="11.4981717"><ele>446.0</ele><time>2026-03-22T10:43:27.349Z</time></trkpt><trkpt lat="43.3864283" lon="11.498195"><ele>446.0</ele><time>2026-03-22T10:43:28.349Z</time></trkpt><trkpt lat="43.3862983" lon="11.4982183"><ele>446.0</ele><time>2026-03-22T10:43:29.348Z</time></trkpt><trkpt lat="43.3861667" lon="11.4982483"><ele>446.0</ele><time>2026-03-22T10:43:30.348Z</time></trkpt><trkpt lat="43.3860367" lon="11.4982783"><ele>443.5</ele><time>2026-03-22T10:43:31.349Z</time></trkpt><trkpt lat="43.3859233" lon="11.4983033"><ele>441.0</ele><time>2026-03-22T10:43:32.349Z</time></trkpt><trkpt lat="43.3858083" lon="11.4983317"><ele>438.5</ele><time>2026-03-22T10:43:33.349Z</time></trkpt><trkpt lat="43.3856883" lon="11.4983633"><ele>436.0</ele><time>2026-03-22T10:43:34.348Z</time></trkpt><trkpt lat="43.3855817" lon="11.49838"><ele>433.6</ele><time>2026-03-22T10:43:35.348Z</time></trkpt><trkpt lat="43.385475" lon="11.4984"><ele>431.20000000000005</ele><time>2026-03-22T10:43:36.349Z</time></trkpt><trkpt lat="43.3853783" lon="11.49842"><ele>428.79999999999995</ele><time>2026-03-22T10:43:37.349Z</time></trkpt><trkpt lat="43.3852767" lon="11.49843"><ele>426.4</ele><time>2026-03-22T10:43:38.349Z</time></trkpt><trkpt lat="43.38519" lon="11.4984467"><ele>424.0</ele><time>2026-03-22T10:43:39.349Z</time></trkpt><trkpt lat="43.3851133" lon="11.4984633"><ele>424.00000000000006</ele><time>2026-03-22T10:43:40.349Z</time></trkpt><trkpt lat="43.3850483" lon="11.4984683"><ele>424.0</ele><time>2026-03-22T10:43:41.349Z</time></trkpt><trkpt lat="43.3849767" lon="11.49844"><ele>424.0</ele><time>2026-03-22T10:43:43.349Z</time></trkpt><trkpt lat="43.3849267" lon="11.4983117"><ele>424.0</ele><time>2026-03-22T10:43:45.349Z</time></trkpt><trkpt lat="43.3849067" lon="11.4982017"><ele>424.00000000000006</ele><time>2026-03-22T10:43:46.349Z</time></trkpt><trkpt lat="43.3848833" lon="11.4980633"><ele>424.0</ele><time>2026-03-22T10:43:47.349Z</time></trkpt><trkpt lat="43.3848583" lon="11.4979117"><ele>423.25</ele><time>2026-03-22T10:43:48.349Z</time></trkpt><trkpt lat="43.38483" lon="11.497755"><ele>422.5</ele><time>2026-03-22T10:43:49.349Z</time></trkpt><trkpt lat="43.3847967" lon="11.497575"><ele>421.75</ele><time>2026-03-22T10:43:50.349Z</time></trkpt><trkpt lat="43.38477" lon="11.4974"><ele>421.0</ele><time>2026-03-22T10:43:51.349Z</time></trkpt><trkpt lat="43.3847433" lon="11.497215"><ele>420.75</ele><time>2026-03-22T10:43:52.349Z</time></trkpt><trkpt lat="43.3847117" lon="11.497035"><ele>420.5</ele><time>2026-03-22T10:43:53.349Z</time></trkpt><trkpt lat="43.3846817" lon="11.49685"><ele>420.25</ele><time>2026-03-22T10:43:54.349Z</time></trkpt><trkpt lat="43.3846617" lon="11.49669"><ele>420.0</ele><time>2026-03-22T10:43:55.349Z</time></trkpt><trkpt lat="43.3846233" lon="11.4965083"><ele>419.6</ele><time>2026-03-22T10:43:56.349Z</time></trkpt><trkpt lat="43.3845883" lon="11.4963383"><ele>419.2</ele><time>2026-03-22T10:43:57.349Z</time></trkpt><trkpt lat="43.384555" lon="11.4961733"><ele>418.79999999999995</ele><time>2026-03-22T10:43:58.349Z</time></trkpt><trkpt lat="43.384525" lon="11.4960467"><ele>418.4</ele><time>2026-03-22T10:43:59.349Z</time></trkpt><trkpt lat="43.3844867" lon="11.495935"><ele>418.0</ele><time>2026-03-22T10:44:00.349Z</time></trkpt><trkpt lat="43.384455" lon="11.495855"><ele>418.0</ele><time>2026-03-22T10:44:01.349Z</time></trkpt><trkpt lat="43.38436" lon="11.4958133"><ele>418.0</ele><time>2026-03-22T10:44:03.349Z</time></trkpt><trkpt lat="43.3842917" lon="11.4958383"><ele>418.0</ele><time>2026-03-22T10:44:04.349Z</time></trkpt><trkpt lat="43.3842117" lon="11.4958817"><ele>418.0</ele><time>2026-03-22T10:44:05.349Z</time></trkpt><trkpt lat="43.3841183" lon="11.49591"><ele>418.0</ele><time>2026-03-22T10:44:06.349Z</time></trkpt><trkpt lat="43.3840167" lon="11.4959417"><ele>418.00000000000006</ele><time>2026-03-22T10:44:07.348Z</time></trkpt><trkpt lat="43.383925" lon="11.4959667"><ele>418.0</ele><time>2026-03-22T10:44:08.348Z</time></trkpt><trkpt lat="43.383835" lon="11.49599"><ele>418.0</ele><time>2026-03-22T10:44:09.348Z</time></trkpt><trkpt lat="43.38375" lon="11.4960083"><ele>418.0</ele><time>2026-03-22T10:44:10.349Z</time></trkpt><trkpt lat="43.383665" lon="11.4960283"><ele>418.00000000000006</ele><time>2026-03-22T10:44:11.349Z</time></trkpt><trkpt lat="43.3835867" lon="11.49604"><ele>418.0</ele><time>2026-03-22T10:44:12.349Z</time></trkpt><trkpt lat="43.3834833" lon="11.4961133"><ele>417.2</ele><time>2026-03-22T10:44:14.348Z</time></trkpt><trkpt lat="43.3834283" lon="11.4962233"><ele>416.4</ele><time>2026-03-22T10:44:16.349Z</time></trkpt><trkpt lat="43.3833517" lon="11.4963267"><ele>415.59999999999997</ele><time>2026-03-22T10:44:18.349Z</time></trkpt><trkpt lat="43.383235" lon="11.4963767"><ele>414.79999999999995</ele><time>2026-03-22T10:44:20.348Z</time></trkpt><trkpt lat="43.3831617" lon="11.4964"><ele>414.0</ele><time>2026-03-22T10:44:21.349Z</time></trkpt><trkpt lat="43.3830933" lon="11.4964167"><ele>413.8333333333333</ele><time>2026-03-22T10:44:22.348Z</time></trkpt><trkpt lat="43.383005" lon="11.4964333"><ele>413.66666666666663</ele><time>2026-03-22T10:44:24.348Z</time></trkpt><trkpt lat="43.3829567" lon="11.496365"><ele>413.5</ele><time>2026-03-22T10:44:28.348Z</time></trkpt><trkpt lat="43.382975" lon="11.4962617"><ele>413.3333333333333</ele><time>2026-03-22T10:44:30.348Z</time></trkpt><trkpt lat="43.382995" lon="11.4961333"><ele>413.16666666666663</ele><time>2026-03-22T10:44:32.349Z</time></trkpt><trkpt lat="43.3830117" lon="11.496025"><ele>413.0</ele><time>2026-03-22T10:44:34.348Z</time></trkpt><trkpt lat="43.383" lon="11.4959217"><ele>412.99999999999994</ele><time>2026-03-22T10:44:36.348Z</time></trkpt><trkpt lat="43.3829433" lon="11.4958433"><ele>413.0</ele><time>2026-03-22T10:44:38.349Z</time></trkpt><trkpt lat="43.3828517" lon="11.4957533"><ele>413.0</ele><time>2026-03-22T10:44:40.348Z</time></trkpt><trkpt lat="43.3827933" lon="11.49571"><ele>413.0</ele><time>2026-03-22T10:44:41.349Z</time></trkpt><trkpt lat="43.38273" lon="11.4956517"><ele>412.99999999999994</ele><time>2026-03-22T10:44:42.349Z</time></trkpt><trkpt lat="43.382665" lon="11.4955817"><ele>413.0</ele><time>2026-03-22T10:44:43.349Z</time></trkpt><trkpt lat="43.382585" lon="11.495505"><ele>413.0</ele><time>2026-03-22T10:44:44.348Z</time></trkpt><trkpt lat="43.3825" lon="11.4954267"><ele>413.0</ele><time>2026-03-22T10:44:45.349Z</time></trkpt><trkpt lat="43.3824217" lon="11.4953517"><ele>413.0</ele><time>2026-03-22T10:44:46.349Z</time></trkpt><trkpt lat="43.3823733" lon="11.495295"><ele>413.0</ele><time>2026-03-22T10:44:47.349Z</time></trkpt><trkpt lat="43.3823" lon="11.4952167"><ele>413.0</ele><time>2026-03-22T10:44:49.348Z</time></trkpt><trkpt lat="43.382185" lon="11.4951117"><ele>411.25</ele><time>2026-03-22T10:44:51.349Z</time></trkpt><trkpt lat="43.3820917" lon="11.4950533"><ele>409.5</ele><time>2026-03-22T10:44:52.348Z</time></trkpt><trkpt lat="43.3819917" lon="11.4949717"><ele>407.75</ele><time>2026-03-22T10:44:53.349Z</time></trkpt><trkpt lat="43.3818883" lon="11.49487"><ele>406.0</ele><time>2026-03-22T10:44:54.348Z</time></trkpt><trkpt lat="43.381775" lon="11.49476"><ele>406.0</ele><time>2026-03-22T10:44:55.349Z</time></trkpt><trkpt lat="43.38166" lon="11.49464"><ele>406.0</ele><time>2026-03-22T10:44:56.348Z</time></trkpt><trkpt lat="43.3815383" lon="11.4945067"><ele>406.0</ele><time>2026-03-22T10:44:57.348Z</time></trkpt><trkpt lat="43.3814" lon="11.494375"><ele>403.6666666666667</ele><time>2026-03-22T10:44:58.348Z</time></trkpt><trkpt lat="43.3812533" lon="11.4942317"><ele>401.33333333333337</ele><time>2026-03-22T10:44:59.349Z</time></trkpt><trkpt lat="43.38111" lon="11.4940967"><ele>399.0</ele><time>2026-03-22T10:45:00.349Z</time></trkpt><trkpt lat="43.380965" lon="11.49396"><ele>399.0</ele><time>2026-03-22T10:45:01.348Z</time></trkpt><trkpt lat="43.3808117" lon="11.4938133"><ele>399.0</ele><time>2026-03-22T10:45:02.349Z</time></trkpt><trkpt lat="43.380655" lon="11.493665"><ele>399.0</ele><time>2026-03-22T10:45:03.348Z</time></trkpt><trkpt lat="43.3804933" lon="11.4935183"><ele>399.33333333333337</ele><time>2026-03-22T10:45:04.348Z</time></trkpt><trkpt lat="43.3803333" lon="11.493365"><ele>399.6666666666667</ele><time>2026-03-22T10:45:05.349Z</time></trkpt><trkpt lat="43.38017" lon="11.4932217"><ele>400.0</ele><time>2026-03-22T10:45:06.349Z</time></trkpt><trkpt lat="43.3800117" lon="11.4930933"><ele>400.0</ele><time>2026-03-22T10:45:07.349Z</time></trkpt><trkpt lat="43.3798567" lon="11.4929783"><ele>400.0</ele><time>2026-03-22T10:45:08.349Z</time></trkpt><trkpt lat="43.3796983" lon="11.492865"><ele>400.0</ele><time>2026-03-22T10:45:09.349Z</time></trkpt><trkpt lat="43.3795483" lon="11.4927517"><ele>401.33333333333337</ele><time>2026-03-22T10:45:10.349Z</time></trkpt><trkpt lat="43.3793983" lon="11.4926167"><ele>402.66666666666663</ele><time>2026-03-22T10:45:11.349Z</time></trkpt><trkpt lat="43.379255" lon="11.4924667"><ele>404.0</ele><time>2026-03-22T10:45:12.349Z</time></trkpt><trkpt lat="43.3791083" lon="11.4922933"><ele>404.0</ele><time>2026-03-22T10:45:13.349Z</time></trkpt><trkpt lat="43.3789667" lon="11.49212"><ele>404.0</ele><time>2026-03-22T10:45:14.349Z</time></trkpt><trkpt lat="43.3788133" lon="11.4919533"><ele>404.0</ele><time>2026-03-22T10:45:15.349Z</time></trkpt><trkpt lat="43.3786583" lon="11.49179"><ele>401.0</ele><time>2026-03-22T10:45:16.349Z</time></trkpt><trkpt lat="43.378495" lon="11.4916383"><ele>398.0</ele><time>2026-03-22T10:45:17.349Z</time></trkpt><trkpt lat="43.3783333" lon="11.4915083"><ele>395.0</ele><time>2026-03-22T10:45:18.349Z</time></trkpt><trkpt lat="43.3781733" lon="11.4913767"><ele>393.3333333333333</ele><time>2026-03-22T10:45:19.349Z</time></trkpt><trkpt lat="43.3780233" lon="11.4912533"><ele>391.66666666666663</ele><time>2026-03-22T10:45:20.349Z</time></trkpt><trkpt lat="43.37788" lon="11.49114"><ele>390.0</ele><time>2026-03-22T10:45:21.348Z</time></trkpt><trkpt lat="43.3777367" lon="11.4910267"><ele>390.0</ele><time>2026-03-22T10:45:22.349Z</time></trkpt><trkpt lat="43.3775933" lon="11.4909167"><ele>390.0</ele><time>2026-03-22T10:45:23.348Z</time></trkpt><trkpt lat="43.377455" lon="11.4908083"><ele>390.0</ele><time>2026-03-22T10:45:24.349Z</time></trkpt><trkpt lat="43.3773083" lon="11.4907083"><ele>389.0</ele><time>2026-03-22T10:45:25.348Z</time></trkpt><trkpt lat="43.3771567" lon="11.490615"><ele>388.0</ele><time>2026-03-22T10:45:26.349Z</time></trkpt><trkpt lat="43.3770067" lon="11.490515"><ele>387.0</ele><time>2026-03-22T10:45:27.348Z</time></trkpt><trkpt lat="43.3768567" lon="11.4904033"><ele>387.0</ele><time>2026-03-22T10:45:28.349Z</time></trkpt><trkpt lat="43.3767033" lon="11.490275"><ele>387.0</ele><time>2026-03-22T10:45:29.349Z</time></trkpt><trkpt lat="43.3765517" lon="11.49013"><ele>387.0</ele><time>2026-03-22T10:45:30.348Z</time></trkpt><trkpt lat="43.37641" lon="11.4899617"><ele>386.66666666666663</ele><time>2026-03-22T10:45:31.348Z</time></trkpt><trkpt lat="43.3762883" lon="11.4898017"><ele>386.3333333333333</ele><time>2026-03-22T10:45:32.349Z</time></trkpt><trkpt lat="43.3761917" lon="11.4896267"><ele>386.0</ele><time>2026-03-22T10:45:33.349Z</time></trkpt><trkpt lat="43.3761317" lon="11.4894283"><ele>387.25</ele><time>2026-03-22T10:45:34.349Z</time></trkpt><trkpt lat="43.3760967" lon="11.4892367"><ele>388.5</ele><time>2026-03-22T10:45:35.349Z</time></trkpt><trkpt lat="43.3760633" lon="11.489055"><ele>389.75</ele><time>2026-03-22T10:45:36.349Z</time></trkpt><trkpt lat="43.3760267" lon="11.4888733"><ele>391.0</ele><time>2026-03-22T10:45:37.348Z</time></trkpt><trkpt lat="43.375955" lon="11.4887"><ele>391.0</ele><time>2026-03-22T10:45:38.349Z</time></trkpt><trkpt lat="43.3758567" lon="11.4885233"><ele>391.0</ele><time>2026-03-22T10:45:39.349Z</time></trkpt><trkpt lat="43.3757517" lon="11.4883433"><ele>391.0</ele><time>2026-03-22T10:45:40.349Z</time></trkpt><trkpt lat="43.375635" lon="11.4881533"><ele>391.0</ele><time>2026-03-22T10:45:41.348Z</time></trkpt><trkpt lat="43.3755333" lon="11.487955"><ele>391.0</ele><time>2026-03-22T10:45:42.349Z</time></trkpt><trkpt lat="43.3754383" lon="11.487745"><ele>391.0</ele><time>2026-03-22T10:45:43.349Z</time></trkpt><trkpt lat="43.375335" lon="11.4875317"><ele>391.33333333333337</ele><time>2026-03-22T10:45:44.348Z</time></trkpt><trkpt lat="43.3752267" lon="11.4873167"><ele>391.66666666666663</ele><time>2026-03-22T10:45:45.349Z</time></trkpt><trkpt lat="43.3751233" lon="11.48711"><ele>392.0</ele><time>2026-03-22T10:45:46.349Z</time></trkpt><trkpt lat="43.3750017" lon="11.4869067"><ele>392.0</ele><time>2026-03-22T10:45:47.349Z</time></trkpt><trkpt lat="43.374885" lon="11.48671"><ele>392.0</ele><time>2026-03-22T10:45:48.348Z</time></trkpt><trkpt lat="43.374765" lon="11.4864983"><ele>392.0</ele><time>2026-03-22T10:45:49.348Z</time></trkpt><trkpt lat="43.3746717" lon="11.48627"><ele>392.66666666666663</ele><time>2026-03-22T10:45:50.349Z</time></trkpt><trkpt lat="43.374605" lon="11.486035"><ele>393.33333333333337</ele><time>2026-03-22T10:45:51.349Z</time></trkpt><trkpt lat="43.3745483" lon="11.4857883"><ele>394.0</ele><time>2026-03-22T10:45:52.349Z</time></trkpt><trkpt lat="43.3744867" lon="11.485545"><ele>394.0</ele><time>2026-03-22T10:45:53.348Z</time></trkpt><trkpt lat="43.374415" lon="11.4853067"><ele>394.0</ele><time>2026-03-22T10:45:54.349Z</time></trkpt><trkpt lat="43.374315" lon="11.4850883"><ele>394.0</ele><time>2026-03-22T10:45:55.349Z</time></trkpt><trkpt lat="43.3741867" lon="11.4849017"><ele>394.0</ele><time>2026-03-22T10:45:56.348Z</time></trkpt><trkpt lat="43.3740683" lon="11.48472"><ele>394.0</ele><time>2026-03-22T10:45:57.349Z</time></trkpt><trkpt lat="43.373965" lon="11.4845667"><ele>394.0</ele><time>2026-03-22T10:45:58.349Z</time></trkpt><trkpt lat="43.3738767" lon="11.484455"><ele>394.0</ele><time>2026-03-22T10:45:59.349Z</time></trkpt><trkpt lat="43.3738067" lon="11.484365"><ele>393.33333333333337</ele><time>2026-03-22T10:46:00.348Z</time></trkpt><trkpt lat="43.3737517" lon="11.4843067"><ele>392.6666666666667</ele><time>2026-03-22T10:46:01.349Z</time></trkpt><trkpt lat="43.37367" lon="11.484235"><ele>392.0</ele><time>2026-03-22T10:46:03.349Z</time></trkpt><trkpt lat="43.3736017" lon="11.4842167"><ele>391.33333333333337</ele><time>2026-03-22T10:46:06.348Z</time></trkpt><trkpt lat="43.3736833" lon="11.484295"><ele>390.6666666666667</ele><time>2026-03-22T10:46:09.349Z</time></trkpt><trkpt lat="43.373745" lon="11.48435"><ele>390.0</ele><time>2026-03-22T10:46:10.349Z</time></trkpt><trkpt lat="43.3738217" lon="11.4844183"><ele>389.6</ele><time>2026-03-22T10:46:11.349Z</time></trkpt><trkpt lat="43.3739" lon="11.484505"><ele>389.2</ele><time>2026-03-22T10:46:12.349Z</time></trkpt><trkpt lat="43.3739733" lon="11.4846083"><ele>388.79999999999995</ele><time>2026-03-22T10:46:13.349Z</time></trkpt><trkpt lat="43.3740317" lon="11.4846983"><ele>388.4</ele><time>2026-03-22T10:46:14.349Z</time></trkpt><trkpt lat="43.3740867" lon="11.4847917"><ele>388.0</ele><time>2026-03-22T10:46:15.349Z</time></trkpt><trkpt lat="43.3741267" lon="11.4848717"><ele>388.1666666666667</ele><time>2026-03-22T10:46:16.349Z</time></trkpt><trkpt lat="43.3741617" lon="11.4850033"><ele>388.33333333333337</ele><time>2026-03-22T10:46:18.349Z</time></trkpt><trkpt lat="43.3741283" lon="11.4851233"><ele>388.5</ele><time>2026-03-22T10:46:20.349Z</time></trkpt><trkpt lat="43.3740717" lon="11.4851667"><ele>388.66666666666663</ele><time>2026-03-22T10:46:21.349Z</time></trkpt><trkpt lat="43.3740017" lon="11.485195"><ele>388.8333333333333</ele><time>2026-03-22T10:46:22.349Z</time></trkpt><trkpt lat="43.3739267" lon="11.4852233"><ele>389.0</ele><time>2026-03-22T10:46:23.349Z</time></trkpt><trkpt lat="43.3738533" lon="11.485255"><ele>388.99999999999994</ele><time>2026-03-22T10:46:24.349Z</time></trkpt><trkpt lat="43.3737917" lon="11.4853"><ele>389.0</ele><time>2026-03-22T10:46:25.349Z</time></trkpt><trkpt lat="43.3737433" lon="11.4853583"><ele>389.0</ele><time>2026-03-22T10:46:26.349Z</time></trkpt><trkpt lat="43.3737067" lon="11.485445"><ele>389.0</ele><time>2026-03-22T10:46:27.349Z</time></trkpt><trkpt lat="43.3736817" lon="11.48554"><ele>388.99999999999994</ele><time>2026-03-22T10:46:28.349Z</time></trkpt><trkpt lat="43.3736533" lon="11.4856183"><ele>389.0</ele><time>2026-03-22T10:46:29.349Z</time></trkpt><trkpt lat="43.3735783" lon="11.4857417"><ele>388.25</ele><time>2026-03-22T10:46:31.349Z</time></trkpt><trkpt lat="43.3734767" lon="11.4857917"><ele>387.5</ele><time>2026-03-22T10:46:33.349Z</time></trkpt><trkpt lat="43.3733583" lon="11.4858583"><ele>386.75</ele><time>2026-03-22T10:46:35.348Z</time></trkpt><trkpt lat="43.3732367" lon="11.48589"><ele>386.0</ele><time>2026-03-22T10:46:37.349Z</time></trkpt><trkpt lat="43.373155" lon="11.4858283"><ele>385.99999999999994</ele><time>2026-03-22T10:46:39.349Z</time></trkpt><trkpt lat="43.3731017" lon="11.4856583"><ele>386.0</ele><time>2026-03-22T10:46:41.349Z</time></trkpt><trkpt lat="43.3730933" lon="11.485535"><ele>386.0</ele><time>2026-03-22T10:46:42.349Z</time></trkpt><trkpt lat="43.37308" lon="11.48542"><ele>386.0</ele><time>2026-03-22T10:46:43.348Z</time></trkpt><trkpt lat="43.373065" lon="11.4853183"><ele>385.99999999999994</ele><time>2026-03-22T10:46:44.348Z</time></trkpt><trkpt lat="43.3730467" lon="11.485235"><ele>386.0</ele><time>2026-03-22T10:46:45.348Z</time></trkpt><trkpt lat="43.37299" lon="11.4851717"><ele>384.3333333333333</ele><time>2026-03-22T10:46:47.349Z</time></trkpt><trkpt lat="43.3728983" lon="11.4852233"><ele>382.66666666666663</ele><time>2026-03-22T10:46:49.349Z</time></trkpt><trkpt lat="43.3728283" lon="11.4852967"><ele>381.0</ele><time>2026-03-22T10:46:50.349Z</time></trkpt><trkpt lat="43.37276" lon="11.4853717"><ele>379.3333333333333</ele><time>2026-03-22T10:46:51.349Z</time></trkpt><trkpt lat="43.3726917" lon="11.4854433"><ele>377.66666666666663</ele><time>2026-03-22T10:46:52.349Z</time></trkpt><trkpt lat="43.3726217" lon="11.4855183"><ele>376.0</ele><time>2026-03-22T10:46:53.348Z</time></trkpt><trkpt lat="43.3725467" lon="11.485605"><ele>375.0</ele><time>2026-03-22T10:46:54.349Z</time></trkpt><trkpt lat="43.3724733" lon="11.4857067"><ele>374.0</ele><time>2026-03-22T10:46:55.348Z</time></trkpt><trkpt lat="43.372415" lon="11.48581"><ele>373.0</ele><time>2026-03-22T10:46:56.349Z</time></trkpt><trkpt lat="43.3723517" lon="11.4859"><ele>372.0</ele><time>2026-03-22T10:46:57.348Z</time></trkpt><trkpt lat="43.37229" lon="11.48599"><ele>371.0</ele><time>2026-03-22T10:46:58.348Z</time></trkpt><trkpt lat="43.3722283" lon="11.486065"><ele>369.0</ele><time>2026-03-22T10:46:59.348Z</time></trkpt><trkpt lat="43.37216" lon="11.4861383"><ele>367.0</ele><time>2026-03-22T10:47:00.349Z</time></trkpt><trkpt lat="43.3720933" lon="11.4862083"><ele>365.0</ele><time>2026-03-22T10:47:01.349Z</time></trkpt><trkpt lat="43.3720433" lon="11.4862933"><ele>363.0</ele><time>2026-03-22T10:47:02.349Z</time></trkpt><trkpt lat="43.37201" lon="11.4863983"><ele>361.0</ele><time>2026-03-22T10:47:03.349Z</time></trkpt><trkpt lat="43.3719817" lon="11.486485"><ele>359.0</ele><time>2026-03-22T10:47:04.349Z</time></trkpt><trkpt lat="43.371915" lon="11.4865817"><ele>358.0</ele><time>2026-03-22T10:47:06.349Z</time></trkpt><trkpt lat="43.371785" lon="11.4865867"><ele>357.0</ele><time>2026-03-22T10:47:08.349Z</time></trkpt><trkpt lat="43.371715" lon="11.486565"><ele>356.0</ele><time>2026-03-22T10:47:09.349Z</time></trkpt><trkpt lat="43.37159" lon="11.4865167"><ele>355.0</ele><time>2026-03-22T10:47:11.348Z</time></trkpt><trkpt lat="43.3714833" lon="11.48646"><ele>354.0</ele><time>2026-03-22T10:47:13.349Z</time></trkpt><trkpt lat="43.371375" lon="11.486375"><ele>353.5</ele><time>2026-03-22T10:47:15.348Z</time></trkpt><trkpt lat="43.3713233" lon="11.486315"><ele>353.0</ele><time>2026-03-22T10:47:16.349Z</time></trkpt><trkpt lat="43.37128" lon="11.48623"><ele>352.5</ele><time>2026-03-22T10:47:17.349Z</time></trkpt><trkpt lat="43.3712417" lon="11.486125"><ele>352.0</ele><time>2026-03-22T10:47:18.349Z</time></trkpt><trkpt lat="43.3711917" lon="11.4860117"><ele>351.5</ele><time>2026-03-22T10:47:19.349Z</time></trkpt><trkpt lat="43.3711383" lon="11.4858783"><ele>351.0</ele><time>2026-03-22T10:47:20.349Z</time></trkpt><trkpt lat="43.3710783" lon="11.4857433"><ele>351.0</ele><time>2026-03-22T10:47:21.348Z</time></trkpt><trkpt lat="43.3710117" lon="11.4855983"><ele>351.0</ele><time>2026-03-22T10:47:22.349Z</time></trkpt><trkpt lat="43.3709467" lon="11.4854683"><ele>351.0</ele><time>2026-03-22T10:47:23.349Z</time></trkpt><trkpt lat="43.3708933" lon="11.48534"><ele>351.0</ele><time>2026-03-22T10:47:24.349Z</time></trkpt><trkpt lat="43.3708467" lon="11.4851983"><ele>352.6</ele><time>2026-03-22T10:47:25.348Z</time></trkpt><trkpt lat="43.3707867" lon="11.4850583"><ele>354.20000000000005</ele><time>2026-03-22T10:47:26.349Z</time></trkpt><trkpt lat="43.37074" lon="11.4849183"><ele>355.79999999999995</ele><time>2026-03-22T10:47:27.348Z</time></trkpt><trkpt lat="43.370705" lon="11.4847733"><ele>357.4</ele><time>2026-03-22T10:47:28.349Z</time></trkpt><trkpt lat="43.3706817" lon="11.484635"><ele>359.0</ele><time>2026-03-22T10:47:29.348Z</time></trkpt><trkpt lat="43.370665" lon="11.4845117"><ele>359.5</ele><time>2026-03-22T10:47:30.348Z</time></trkpt><trkpt lat="43.3706433" lon="11.484405"><ele>360.0</ele><time>2026-03-22T10:47:31.349Z</time></trkpt><trkpt lat="43.3706133" lon="11.4843083"><ele>360.5</ele><time>2026-03-22T10:47:32.349Z</time></trkpt><trkpt lat="43.370595" lon="11.48422"><ele>361.0</ele><time>2026-03-22T10:47:33.349Z</time></trkpt><trkpt lat="43.3705833" lon="11.4841133"><ele>361.5</ele><time>2026-03-22T10:47:34.349Z</time></trkpt><trkpt lat="43.3705717" lon="11.4840133"><ele>362.0</ele><time>2026-03-22T10:47:35.349Z</time></trkpt><trkpt lat="43.3705533" lon="11.48387"><ele>362.0</ele><time>2026-03-22T10:47:37.349Z</time></trkpt><trkpt lat="43.370575" lon="11.4837667"><ele>362.0</ele><time>2026-03-22T10:47:39.349Z</time></trkpt><trkpt lat="43.370675" lon="11.4837167"><ele>362.0</ele><time>2026-03-22T10:47:41.348Z</time></trkpt><trkpt lat="43.3707533" lon="11.4837333"><ele>362.0</ele><time>2026-03-22T10:47:42.348Z</time></trkpt><trkpt lat="43.37085" lon="11.4837583"><ele>362.0</ele><time>2026-03-22T10:47:43.349Z</time></trkpt><trkpt lat="43.3709317" lon="11.4837667"><ele>362.0</ele><time>2026-03-22T10:47:44.349Z</time></trkpt><trkpt lat="43.3710133" lon="11.48373"><ele>361.6666666666667</ele><time>2026-03-22T10:47:45.348Z</time></trkpt><trkpt lat="43.371075" lon="11.483675"><ele>361.33333333333337</ele><time>2026-03-22T10:47:46.349Z</time></trkpt><trkpt lat="43.3711367" lon="11.4836067"><ele>361.0</ele><time>2026-03-22T10:47:47.349Z</time></trkpt><trkpt lat="43.3711717" lon="11.483515"><ele>360.6666666666667</ele><time>2026-03-22T10:47:48.349Z</time></trkpt><trkpt lat="43.371205" lon="11.4834167"><ele>360.3333333333333</ele><time>2026-03-22T10:47:49.349Z</time></trkpt><trkpt lat="43.3712167" lon="11.483315"><ele>360.0</ele><time>2026-03-22T10:47:50.348Z</time></trkpt><trkpt lat="43.37124" lon="11.483175"><ele>360.0</ele><time>2026-03-22T10:47:52.349Z</time></trkpt><trkpt lat="43.3712833" lon="11.4830833"><ele>360.0</ele><time>2026-03-22T10:47:54.349Z</time></trkpt><trkpt lat="43.3713567" lon="11.483055"><ele>360.0</ele><time>2026-03-22T10:47:57.349Z</time></trkpt><trkpt lat="43.3714167" lon="11.4830967"><ele>360.0</ele><time>2026-03-22T10:47:59.349Z</time></trkpt><trkpt lat="43.3714767" lon="11.4830483"><ele>360.0</ele><time>2026-03-22T10:48:02.349Z</time></trkpt><trkpt lat="43.3714033" lon="11.4830317"><ele>360.0</ele><time>2026-03-22T10:48:05.349Z</time></trkpt><trkpt lat="43.37132" lon="11.4830783"><ele>360.0</ele><time>2026-03-22T10:48:07.349Z</time></trkpt><trkpt lat="43.371255" lon="11.483165"><ele>360.0</ele><time>2026-03-22T10:48:09.348Z</time></trkpt><trkpt lat="43.3712017" lon="11.4832917"><ele>360.0</ele><time>2026-03-22T10:48:11.348Z</time></trkpt><trkpt lat="43.3711683" lon="11.4834183"><ele>360.0</ele><time>2026-03-22T10:48:13.348Z</time></trkpt><trkpt lat="43.371135" lon="11.4835383"><ele>360.0</ele><time>2026-03-22T10:48:15.349Z</time></trkpt><trkpt lat="43.371065" lon="11.4836417"><ele>360.0</ele><time>2026-03-22T10:48:17.349Z</time></trkpt><trkpt lat="43.3709883" lon="11.4836467"><ele>360.0</ele><time>2026-03-22T10:48:19.349Z</time></trkpt><trkpt lat="43.3709267" lon="11.48359"><ele>360.0</ele><time>2026-03-22T10:48:21.348Z</time></trkpt><trkpt lat="43.3708783" lon="11.4834233"><ele>360.0</ele><time>2026-03-22T10:48:23.349Z</time></trkpt><trkpt lat="43.3708733" lon="11.4833317"><ele>360.0</ele><time>2026-03-22T10:48:24.348Z</time></trkpt><trkpt lat="43.3708817" lon="11.4832333"><ele>360.0</ele><time>2026-03-22T10:48:25.349Z</time></trkpt><trkpt lat="43.370895" lon="11.4831317"><ele>360.0</ele><time>2026-03-22T10:48:26.349Z</time></trkpt><trkpt lat="43.3709183" lon="11.483025"><ele>360.0</ele><time>2026-03-22T10:48:27.349Z</time></trkpt><trkpt lat="43.3709433" lon="11.4829233"><ele>360.0</ele><time>2026-03-22T10:48:28.349Z</time></trkpt><trkpt lat="43.3709617" lon="11.4827767"><ele>360.0</ele><time>2026-03-22T10:48:30.349Z</time></trkpt><trkpt lat="43.37092" lon="11.4826617"><ele>360.0</ele><time>2026-03-22T10:48:32.349Z</time></trkpt><trkpt lat="43.3708683" lon="11.4825967"><ele>360.0</ele><time>2026-03-22T10:48:33.349Z</time></trkpt><trkpt lat="43.3707917" lon="11.482525"><ele>360.5</ele><time>2026-03-22T10:48:34.349Z</time></trkpt><trkpt lat="43.3706917" lon="11.48245"><ele>361.0</ele><time>2026-03-22T10:48:35.348Z</time></trkpt><trkpt lat="43.37058" lon="11.482375"><ele>361.5</ele><time>2026-03-22T10:48:36.348Z</time></trkpt><trkpt lat="43.3704483" lon="11.48228"><ele>362.0</ele><time>2026-03-22T10:48:37.349Z</time></trkpt><trkpt lat="43.37032" lon="11.4821883"><ele>361.20000000000005</ele><time>2026-03-22T10:48:38.349Z</time></trkpt><trkpt lat="43.370205" lon="11.4821033"><ele>360.4</ele><time>2026-03-22T10:48:39.349Z</time></trkpt><trkpt lat="43.3700967" lon="11.4820183"><ele>359.6</ele><time>2026-03-22T10:48:40.349Z</time></trkpt><trkpt lat="43.3700033" lon="11.481955"><ele>358.79999999999995</ele><time>2026-03-22T10:48:41.349Z</time></trkpt><trkpt lat="43.369925" lon="11.481905"><ele>358.0</ele><time>2026-03-22T10:48:42.349Z</time></trkpt><trkpt lat="43.3698267" lon="11.4818567"><ele>358.0</ele><time>2026-03-22T10:48:44.349Z</time></trkpt><trkpt lat="43.3697333" lon="11.4818433"><ele>358.0</ele><time>2026-03-22T10:48:47.349Z</time></trkpt><trkpt lat="43.36961" lon="11.4817417"><ele>358.0</ele><time>2026-03-22T10:48:49.348Z</time></trkpt><trkpt lat="43.36953" lon="11.4816617"><ele>358.0</ele><time>2026-03-22T10:48:50.348Z</time></trkpt><trkpt lat="43.36944" lon="11.4815683"><ele>358.0</ele><time>2026-03-22T10:48:51.349Z</time></trkpt><trkpt lat="43.3693583" lon="11.481485"><ele>357.5</ele><time>2026-03-22T10:48:52.349Z</time></trkpt><trkpt lat="43.3692817" lon="11.4814167"><ele>357.0</ele><time>2026-03-22T10:48:53.349Z</time></trkpt><trkpt lat="43.3692067" lon="11.48137"><ele>356.5</ele><time>2026-03-22T10:48:54.349Z</time></trkpt><trkpt lat="43.3691383" lon="11.4813367"><ele>356.0</ele><time>2026-03-22T10:48:55.349Z</time></trkpt><trkpt lat="43.3690733" lon="11.4813167"><ele>355.5</ele><time>2026-03-22T10:48:56.349Z</time></trkpt><trkpt lat="43.3689933" lon="11.481275"><ele>355.0</ele><time>2026-03-22T10:48:57.349Z</time></trkpt><trkpt lat="43.3689133" lon="11.4812167"><ele>352.6</ele><time>2026-03-22T10:48:58.349Z</time></trkpt><trkpt lat="43.3688233" lon="11.4811417"><ele>350.2</ele><time>2026-03-22T10:48:59.348Z</time></trkpt><trkpt lat="43.3687383" lon="11.4810733"><ele>347.79999999999995</ele><time>2026-03-22T10:49:00.348Z</time></trkpt><trkpt lat="43.3686617" lon="11.4809983"><ele>345.4</ele><time>2026-03-22T10:49:01.349Z</time></trkpt><trkpt lat="43.3685817" lon="11.4809167"><ele>343.0</ele><time>2026-03-22T10:49:02.349Z</time></trkpt><trkpt lat="43.368505" lon="11.4808467"><ele>343.0</ele><time>2026-03-22T10:49:03.349Z</time></trkpt><trkpt lat="43.3684267" lon="11.48078"><ele>343.0</ele><time>2026-03-22T10:49:04.349Z</time></trkpt><trkpt lat="43.3683567" lon="11.48072"><ele>343.0</ele><time>2026-03-22T10:49:05.349Z</time></trkpt><trkpt lat="43.3683017" lon="11.48066"><ele>343.0</ele><time>2026-03-22T10:49:06.349Z</time></trkpt><trkpt lat="43.368255" lon="11.4805667"><ele>343.0</ele><time>2026-03-22T10:49:08.348Z</time></trkpt><trkpt lat="43.368285" lon="11.480475"><ele>343.0</ele><time>2026-03-22T10:49:11.349Z</time></trkpt><trkpt lat="43.3683683" lon="11.4803917"><ele>343.59999999999997</ele><time>2026-03-22T10:49:13.349Z</time></trkpt><trkpt lat="43.368425" lon="11.4803283"><ele>344.2</ele><time>2026-03-22T10:49:14.349Z</time></trkpt><trkpt lat="43.3684933" lon="11.4802567"><ele>344.8</ele><time>2026-03-22T10:49:15.349Z</time></trkpt><trkpt lat="43.3685733" lon="11.4801783"><ele>345.4</ele><time>2026-03-22T10:49:16.349Z</time></trkpt><trkpt lat="43.3686533" lon="11.4800933"><ele>346.0</ele><time>2026-03-22T10:49:17.348Z</time></trkpt><trkpt lat="43.3687417" lon="11.4799983"><ele>346.0</ele><time>2026-03-22T10:49:18.349Z</time></trkpt><trkpt lat="43.368815" lon="11.4799217"><ele>346.0</ele><time>2026-03-22T10:49:19.349Z</time></trkpt><trkpt lat="43.3688783" lon="11.4798617"><ele>346.0</ele><time>2026-03-22T10:49:20.349Z</time></trkpt><trkpt lat="43.3689167" lon="11.4797883"><ele>346.0</ele><time>2026-03-22T10:49:22.349Z</time></trkpt><trkpt lat="43.36882" lon="11.4798167"><ele>346.0</ele><time>2026-03-22T10:49:37.349Z</time></trkpt><trkpt lat="43.3687483" lon="11.4797917"><ele>346.0</ele><time>2026-03-22T10:49:38.349Z</time></trkpt><trkpt lat="43.36866" lon="11.4797533"><ele>346.0</ele><time>2026-03-22T10:49:39.349Z</time></trkpt><trkpt lat="43.3685533" lon="11.47969"><ele>346.0</ele><time>2026-03-22T10:49:40.349Z</time></trkpt><trkpt lat="43.3684267" lon="11.4795983"><ele>346.0</ele><time>2026-03-22T10:49:41.348Z</time></trkpt><trkpt lat="43.3682983" lon="11.4794917"><ele>346.0</ele><time>2026-03-22T10:49:42.348Z</time></trkpt><trkpt lat="43.3681717" lon="11.47938"><ele>345.66666666666663</ele><time>2026-03-22T10:49:43.35Z</time></trkpt><trkpt lat="43.368045" lon="11.4792767"><ele>345.3333333333333</ele><time>2026-03-22T10:49:44.349Z</time></trkpt><trkpt lat="43.3679167" lon="11.4791783"><ele>345.0</ele><time>2026-03-22T10:49:45.35Z</time></trkpt><trkpt lat="43.367775" lon="11.4790767"><ele>343.25</ele><time>2026-03-22T10:49:46.35Z</time></trkpt><trkpt lat="43.3676417" lon="11.479"><ele>341.5</ele><time>2026-03-22T10:49:47.349Z</time></trkpt><trkpt lat="43.3675033" lon="11.4789267"><ele>339.75</ele><time>2026-03-22T10:49:48.35Z</time></trkpt><trkpt lat="43.367365" lon="11.478855"><ele>338.0</ele><time>2026-03-22T10:49:49.35Z</time></trkpt><trkpt lat="43.3672333" lon="11.47879"><ele>339.25</ele><time>2026-03-22T10:49:50.35Z</time></trkpt><trkpt lat="43.3671067" lon="11.47872"><ele>340.5</ele><time>2026-03-22T10:49:51.349Z</time></trkpt><trkpt lat="43.3669917" lon="11.4786483"><ele>341.75</ele><time>2026-03-22T10:49:52.35Z</time></trkpt><trkpt lat="43.36689" lon="11.478575"><ele>343.0</ele><time>2026-03-22T10:49:53.349Z</time></trkpt><trkpt lat="43.3667933" lon="11.4785083"><ele>343.0</ele><time>2026-03-22T10:49:54.349Z</time></trkpt><trkpt lat="43.3667133" lon="11.4784283"><ele>343.0</ele><time>2026-03-22T10:49:55.35Z</time></trkpt><trkpt lat="43.36663" lon="11.478345"><ele>343.0</ele><time>2026-03-22T10:49:56.35Z</time></trkpt><trkpt lat="43.36654" lon="11.4782383"><ele>343.0</ele><time>2026-03-22T10:49:57.35Z</time></trkpt><trkpt lat="43.366445" lon="11.4781217"><ele>343.0</ele><time>2026-03-22T10:49:58.35Z</time></trkpt><trkpt lat="43.366335" lon="11.478"><ele>341.3333333333333</ele><time>2026-03-22T10:49:59.349Z</time></trkpt><trkpt lat="43.366215" lon="11.47786"><ele>339.6666666666667</ele><time>2026-03-22T10:50:00.35Z</time></trkpt><trkpt lat="43.3660983" lon="11.47773"><ele>338.0</ele><time>2026-03-22T10:50:01.35Z</time></trkpt><trkpt lat="43.3659783" lon="11.4776017"><ele>338.0</ele><time>2026-03-22T10:50:02.35Z</time></trkpt><trkpt lat="43.3658667" lon="11.4775167"><ele>338.0</ele><time>2026-03-22T10:50:03.35Z</time></trkpt><trkpt lat="43.36574" lon="11.477445"><ele>338.0</ele><time>2026-03-22T10:50:04.35Z</time></trkpt><trkpt lat="43.3656233" lon="11.4774033"><ele>338.0</ele><time>2026-03-22T10:50:05.35Z</time></trkpt><trkpt lat="43.3655083" lon="11.4773733"><ele>338.59999999999997</ele><time>2026-03-22T10:50:06.349Z</time></trkpt><trkpt lat="43.3653983" lon="11.4773383"><ele>339.2</ele><time>2026-03-22T10:50:07.349Z</time></trkpt><trkpt lat="43.3653083" lon="11.4772667"><ele>339.8</ele><time>2026-03-22T10:50:08.35Z</time></trkpt><trkpt lat="43.3652383" lon="11.4771667"><ele>340.4</ele><time>2026-03-22T10:50:09.35Z</time></trkpt><trkpt lat="43.3651683" lon="11.4770383"><ele>341.0</ele><time>2026-03-22T10:50:10.35Z</time></trkpt><trkpt lat="43.3650917" lon="11.4768983"><ele>341.0</ele><time>2026-03-22T10:50:11.35Z</time></trkpt><trkpt lat="43.365" lon="11.4767583"><ele>341.0</ele><time>2026-03-22T10:50:12.35Z</time></trkpt><trkpt lat="43.3649067" lon="11.4766133"><ele>341.0</ele><time>2026-03-22T10:50:13.35Z</time></trkpt><trkpt lat="43.3648117" lon="11.4764783"><ele>341.0</ele><time>2026-03-22T10:50:14.35Z</time></trkpt><trkpt lat="43.3647167" lon="11.476345"><ele>340.4</ele><time>2026-03-22T10:50:15.35Z</time></trkpt><trkpt lat="43.3646417" lon="11.476215"><ele>339.8</ele><time>2026-03-22T10:50:16.35Z</time></trkpt><trkpt lat="43.3645917" lon="11.4760833"><ele>339.2</ele><time>2026-03-22T10:50:17.349Z</time></trkpt><trkpt lat="43.3645717" lon="11.4759517"><ele>338.59999999999997</ele><time>2026-03-22T10:50:18.35Z</time></trkpt><trkpt lat="43.3645617" lon="11.4758067"><ele>338.0</ele><time>2026-03-22T10:50:19.35Z</time></trkpt><trkpt lat="43.3645667" lon="11.4756433"><ele>338.0</ele><time>2026-03-22T10:50:20.35Z</time></trkpt><trkpt lat="43.3645817" lon="11.475485"><ele>338.0</ele><time>2026-03-22T10:50:21.349Z</time></trkpt><trkpt lat="43.3645917" lon="11.47532"><ele>338.0</ele><time>2026-03-22T10:50:22.35Z</time></trkpt><trkpt lat="43.3645783" lon="11.4751767"><ele>338.0</ele><time>2026-03-22T10:50:23.349Z</time></trkpt><trkpt lat="43.3645467" lon="11.4750417"><ele>338.0</ele><time>2026-03-22T10:50:24.35Z</time></trkpt><trkpt lat="43.3645083" lon="11.4749033"><ele>338.2</ele><time>2026-03-22T10:50:25.35Z</time></trkpt><trkpt lat="43.3644583" lon="11.4747467"><ele>338.4</ele><time>2026-03-22T10:50:26.349Z</time></trkpt><trkpt lat="43.364405" lon="11.4746083"><ele>338.59999999999997</ele><time>2026-03-22T10:50:27.349Z</time></trkpt><trkpt lat="43.3643483" lon="11.4745067"><ele>338.79999999999995</ele><time>2026-03-22T10:50:28.35Z</time></trkpt><trkpt lat="43.3642783" lon="11.474425"><ele>339.0</ele><time>2026-03-22T10:50:29.35Z</time></trkpt><trkpt lat="43.3642067" lon="11.4743433"><ele>339.0</ele><time>2026-03-22T10:50:30.349Z</time></trkpt><trkpt lat="43.3641383" lon="11.47427"><ele>339.0</ele><time>2026-03-22T10:50:31.35Z</time></trkpt><trkpt lat="43.3640817" lon="11.474185"><ele>339.0</ele><time>2026-03-22T10:50:32.349Z</time></trkpt><trkpt lat="43.364045" lon="11.474095"><ele>339.0</ele><time>2026-03-22T10:50:33.35Z</time></trkpt><trkpt lat="43.364025" lon="11.4739817"><ele>339.0</ele><time>2026-03-22T10:50:34.35Z</time></trkpt><trkpt lat="43.3640083" lon="11.4738583"><ele>339.0</ele><time>2026-03-22T10:50:35.35Z</time></trkpt><trkpt lat="43.3639883" lon="11.4737217"><ele>338.0</ele><time>2026-03-22T10:50:36.35Z</time></trkpt><trkpt lat="43.36398" lon="11.4735633"><ele>337.0</ele><time>2026-03-22T10:50:37.35Z</time></trkpt><trkpt lat="43.3639783" lon="11.473375"><ele>336.0</ele><time>2026-03-22T10:50:38.35Z</time></trkpt><trkpt lat="43.3639817" lon="11.4731833"><ele>335.0</ele><time>2026-03-22T10:50:39.349Z</time></trkpt><trkpt lat="43.3639833" lon="11.4730017"><ele>335.5</ele><time>2026-03-22T10:50:40.349Z</time></trkpt><trkpt lat="43.3639617" lon="11.47283"><ele>336.0</ele><time>2026-03-22T10:50:41.349Z</time></trkpt><trkpt lat="43.3639267" lon="11.472665"><ele>336.5</ele><time>2026-03-22T10:50:42.349Z</time></trkpt><trkpt lat="43.3638817" lon="11.4725067"><ele>337.0</ele><time>2026-03-22T10:50:43.35Z</time></trkpt><trkpt lat="43.3638167" lon="11.4723483"><ele>337.0</ele><time>2026-03-22T10:50:44.349Z</time></trkpt><trkpt lat="43.3637567" lon="11.4722133"><ele>337.0</ele><time>2026-03-22T10:50:45.35Z</time></trkpt><trkpt lat="43.3636883" lon="11.4721"><ele>337.0</ele><time>2026-03-22T10:50:46.35Z</time></trkpt><trkpt lat="43.36365" lon="11.4720267"><ele>337.0</ele><time>2026-03-22T10:50:47.35Z</time></trkpt><trkpt lat="43.3636" lon="11.47197"><ele>337.0</ele><time>2026-03-22T10:50:48.35Z</time></trkpt><trkpt lat="43.3634967" lon="11.4719067"><ele>335.8</ele><time>2026-03-22T10:50:50.35Z</time></trkpt><trkpt lat="43.36337" lon="11.4719067"><ele>334.6</ele><time>2026-03-22T10:50:52.35Z</time></trkpt><trkpt lat="43.36328" lon="11.4719217"><ele>333.40000000000003</ele><time>2026-03-22T10:50:53.35Z</time></trkpt><trkpt lat="43.3631833" lon="11.4719167"><ele>332.20000000000005</ele><time>2026-03-22T10:50:54.35Z</time></trkpt><trkpt lat="43.3630917" lon="11.4718967"><ele>331.0</ele><time>2026-03-22T10:50:55.35Z</time></trkpt><trkpt lat="43.3630233" lon="11.4718717"><ele>330.8</ele><time>2026-03-22T10:50:56.35Z</time></trkpt><trkpt lat="43.362945" lon="11.4718467"><ele>330.6</ele><time>2026-03-22T10:50:58.35Z</time></trkpt><trkpt lat="43.3628783" lon="11.4717967"><ele>330.4</ele><time>2026-03-22T10:51:07.35Z</time></trkpt><trkpt lat="43.362755" lon="11.4716983"><ele>330.2</ele><time>2026-03-22T10:51:09.35Z</time></trkpt><trkpt lat="43.3626683" lon="11.471655"><ele>330.0</ele><time>2026-03-22T10:51:10.35Z</time></trkpt><trkpt lat="43.3625583" lon="11.4716117"><ele>330.0</ele><time>2026-03-22T10:51:11.35Z</time></trkpt><trkpt lat="43.36242" lon="11.471585"><ele>330.0</ele><time>2026-03-22T10:51:12.35Z</time></trkpt><trkpt lat="43.3622817" lon="11.4715833"><ele>330.0</ele><time>2026-03-22T10:51:13.35Z</time></trkpt><trkpt lat="43.3621433" lon="11.47154"><ele>330.0</ele><time>2026-03-22T10:51:14.35Z</time></trkpt><trkpt lat="43.362015" lon="11.4715083"><ele>329.4</ele><time>2026-03-22T10:51:15.35Z</time></trkpt><trkpt lat="43.3618967" lon="11.4714533"><ele>328.8</ele><time>2026-03-22T10:51:16.35Z</time></trkpt><trkpt lat="43.36179" lon="11.4713833"><ele>328.20000000000005</ele><time>2026-03-22T10:51:17.349Z</time></trkpt><trkpt lat="43.3617017" lon="11.4713133"><ele>327.6</ele><time>2026-03-22T10:51:18.35Z</time></trkpt><trkpt lat="43.3616217" lon="11.471265"><ele>327.0</ele><time>2026-03-22T10:51:19.35Z</time></trkpt><trkpt lat="43.361545" lon="11.4712117"><ele>327.0</ele><time>2026-03-22T10:51:20.35Z</time></trkpt><trkpt lat="43.3614817" lon="11.4711633"><ele>327.0</ele><time>2026-03-22T10:51:21.35Z</time></trkpt><trkpt lat="43.3613783" lon="11.471105"><ele>327.0</ele><time>2026-03-22T10:51:23.35Z</time></trkpt><trkpt lat="43.3612417" lon="11.4711017"><ele>327.0</ele><time>2026-03-22T10:51:25.35Z</time></trkpt><trkpt lat="43.361165" lon="11.471125"><ele>327.0</ele><time>2026-03-22T10:51:26.35Z</time></trkpt><trkpt lat="43.3610917" lon="11.4711767"><ele>328.40000000000003</ele><time>2026-03-22T10:51:27.35Z</time></trkpt><trkpt lat="43.361005" lon="11.4712383"><ele>329.8</ele><time>2026-03-22T10:51:28.349Z</time></trkpt><trkpt lat="43.3609133" lon="11.4712833"><ele>331.2</ele><time>2026-03-22T10:51:29.35Z</time></trkpt><trkpt lat="43.360815" lon="11.4712967"><ele>332.6</ele><time>2026-03-22T10:51:30.35Z</time></trkpt><trkpt lat="43.3607367" lon="11.47129"><ele>334.0</ele><time>2026-03-22T10:51:31.349Z</time></trkpt><trkpt lat="43.36066" lon="11.4712367"><ele>334.0</ele><time>2026-03-22T10:51:32.35Z</time></trkpt><trkpt lat="43.360575" lon="11.47115"><ele>334.0</ele><time>2026-03-22T10:51:33.35Z</time></trkpt><trkpt lat="43.360495" lon="11.471035"><ele>334.0</ele><time>2026-03-22T10:51:34.35Z</time></trkpt><trkpt lat="43.3604367" lon="11.470875"><ele>334.0</ele><time>2026-03-22T10:51:35.35Z</time></trkpt><trkpt lat="43.3603633" lon="11.4707467"><ele>334.6</ele><time>2026-03-22T10:51:36.35Z</time></trkpt><trkpt lat="43.3602833" lon="11.4706467"><ele>335.2</ele><time>2026-03-22T10:51:37.35Z</time></trkpt><trkpt lat="43.3602033" lon="11.4705517"><ele>335.8</ele><time>2026-03-22T10:51:38.35Z</time></trkpt><trkpt lat="43.3601117" lon="11.4704883"><ele>336.40000000000003</ele><time>2026-03-22T10:51:39.349Z</time></trkpt><trkpt lat="43.3600133" lon="11.470445"><ele>337.0</ele><time>2026-03-22T10:51:40.35Z</time></trkpt><trkpt lat="43.3599117" lon="11.4704233"><ele>337.0</ele><time>2026-03-22T10:51:41.35Z</time></trkpt><trkpt lat="43.3598017" lon="11.4704317"><ele>337.0</ele><time>2026-03-22T10:51:42.35Z</time></trkpt><trkpt lat="43.3596917" lon="11.4704533"><ele>337.0</ele><time>2026-03-22T10:51:43.35Z</time></trkpt><trkpt lat="43.3595733" lon="11.4704917"><ele>337.0</ele><time>2026-03-22T10:51:44.35Z</time></trkpt><trkpt lat="43.3594467" lon="11.4705417"><ele>340.75</ele><time>2026-03-22T10:51:45.35Z</time></trkpt><trkpt lat="43.359305" lon="11.47059"><ele>344.5</ele><time>2026-03-22T10:51:46.35Z</time></trkpt><trkpt lat="43.35919" lon="11.4706383"><ele>348.25</ele><time>2026-03-22T10:51:47.35Z</time></trkpt><trkpt lat="43.3590717" lon="11.4706433"><ele>352.0</ele><time>2026-03-22T10:51:48.35Z</time></trkpt><trkpt lat="43.3589533" lon="11.4706283"><ele>351.8</ele><time>2026-03-22T10:51:49.349Z</time></trkpt><trkpt lat="43.358845" lon="11.4706167"><ele>351.6</ele><time>2026-03-22T10:51:50.35Z</time></trkpt><trkpt lat="43.3587483" lon="11.4706117"><ele>351.40000000000003</ele><time>2026-03-22T10:51:51.349Z</time></trkpt><trkpt lat="43.35864" lon="11.4706217"><ele>351.20000000000005</ele><time>2026-03-22T10:51:52.35Z</time></trkpt><trkpt lat="43.3585383" lon="11.4706717"><ele>351.0</ele><time>2026-03-22T10:51:53.349Z</time></trkpt><trkpt lat="43.358435" lon="11.470715"><ele>351.0</ele><time>2026-03-22T10:51:54.35Z</time></trkpt><trkpt lat="43.3583167" lon="11.4707483"><ele>351.0</ele><time>2026-03-22T10:51:55.35Z</time></trkpt><trkpt lat="43.35821" lon="11.4707667"><ele>351.0</ele><time>2026-03-22T10:51:56.35Z</time></trkpt><trkpt lat="43.3581083" lon="11.4707667"><ele>351.0</ele><time>2026-03-22T10:51:57.349Z</time></trkpt><trkpt lat="43.3580167" lon="11.4707133"><ele>351.0</ele><time>2026-03-22T10:51:58.35Z</time></trkpt><trkpt lat="43.3579233" lon="11.4706083"><ele>349.5</ele><time>2026-03-22T10:51:59.35Z</time></trkpt><trkpt lat="43.35782" lon="11.4704883"><ele>348.0</ele><time>2026-03-22T10:52:00.35Z</time></trkpt><trkpt lat="43.357705" lon="11.4703667"><ele>346.5</ele><time>2026-03-22T10:52:01.349Z</time></trkpt><trkpt lat="43.3575783" lon="11.470245"><ele>345.0</ele><time>2026-03-22T10:52:02.35Z</time></trkpt><trkpt lat="43.357445" lon="11.4701217"><ele>345.0</ele><time>2026-03-22T10:52:03.35Z</time></trkpt><trkpt lat="43.3573083" lon="11.4700067"><ele>345.0</ele><time>2026-03-22T10:52:04.35Z</time></trkpt><trkpt lat="43.3571633" lon="11.4698883"><ele>345.0</ele><time>2026-03-22T10:52:05.35Z</time></trkpt><trkpt lat="43.35702" lon="11.46978"><ele>344.0</ele><time>2026-03-22T10:52:06.35Z</time></trkpt><trkpt lat="43.356875" lon="11.4696783"><ele>343.0</ele><time>2026-03-22T10:52:07.349Z</time></trkpt><trkpt lat="43.3567383" lon="11.4695733"><ele>342.0</ele><time>2026-03-22T10:52:08.35Z</time></trkpt><trkpt lat="43.35662" lon="11.4694767"><ele>342.0</ele><time>2026-03-22T10:52:09.35Z</time></trkpt><trkpt lat="43.356495" lon="11.4693967"><ele>342.0</ele><time>2026-03-22T10:52:10.35Z</time></trkpt><trkpt lat="43.3564" lon="11.4693467"><ele>342.0</ele><time>2026-03-22T10:52:11.349Z</time></trkpt><trkpt lat="43.3563067" lon="11.4693317"><ele>342.0</ele><time>2026-03-22T10:52:12.35Z</time></trkpt><trkpt lat="43.3562267" lon="11.469345"><ele>342.0</ele><time>2026-03-22T10:52:13.35Z</time></trkpt><trkpt lat="43.35615" lon="11.4693817"><ele>341.20000000000005</ele><time>2026-03-22T10:52:14.349Z</time></trkpt><trkpt lat="43.3560733" lon="11.4694267"><ele>340.4</ele><time>2026-03-22T10:52:15.35Z</time></trkpt><trkpt lat="43.3559817" lon="11.4694917"><ele>339.6</ele><time>2026-03-22T10:52:16.349Z</time></trkpt><trkpt lat="43.3558867" lon="11.4695667"><ele>338.79999999999995</ele><time>2026-03-22T10:52:17.35Z</time></trkpt><trkpt lat="43.3557817" lon="11.4696533"><ele>338.0</ele><time>2026-03-22T10:52:18.35Z</time></trkpt><trkpt lat="43.3556633" lon="11.46973"><ele>338.0</ele><time>2026-03-22T10:52:19.35Z</time></trkpt><trkpt lat="43.3555383" lon="11.4697867"><ele>338.0</ele><time>2026-03-22T10:52:20.35Z</time></trkpt><trkpt lat="43.3554183" lon="11.4698467"><ele>338.0</ele><time>2026-03-22T10:52:21.35Z</time></trkpt><trkpt lat="43.3552933" lon="11.4699083"><ele>338.0</ele><time>2026-03-22T10:52:22.349Z</time></trkpt><trkpt lat="43.3551717" lon="11.4699767"><ele>338.5</ele><time>2026-03-22T10:52:23.35Z</time></trkpt><trkpt lat="43.3550467" lon="11.4700317"><ele>339.0</ele><time>2026-03-22T10:52:24.349Z</time></trkpt><trkpt lat="43.35491" lon="11.4700767"><ele>339.5</ele><time>2026-03-22T10:52:25.35Z</time></trkpt><trkpt lat="43.3547717" lon="11.4701167"><ele>340.0</ele><time>2026-03-22T10:52:26.35Z</time></trkpt><trkpt lat="43.35463" lon="11.470135"><ele>339.0</ele><time>2026-03-22T10:52:27.35Z</time></trkpt><trkpt lat="43.354485" lon="11.4701683"><ele>338.0</ele><time>2026-03-22T10:52:28.35Z</time></trkpt><trkpt lat="43.3543483" lon="11.4701983"><ele>337.0</ele><time>2026-03-22T10:52:29.35Z</time></trkpt><trkpt lat="43.3542167" lon="11.47023"><ele>336.0</ele><time>2026-03-22T10:52:30.349Z</time></trkpt><trkpt lat="43.3541033" lon="11.4702517"><ele>336.0</ele><time>2026-03-22T10:52:31.35Z</time></trkpt><trkpt lat="43.3540033" lon="11.4703017"><ele>336.0</ele><time>2026-03-22T10:52:32.349Z</time></trkpt><trkpt lat="43.3539117" lon="11.4703683"><ele>336.0</ele><time>2026-03-22T10:52:33.349Z</time></trkpt><trkpt lat="43.3538333" lon="11.470465"><ele>336.0</ele><time>2026-03-22T10:52:34.35Z</time></trkpt><trkpt lat="43.3537583" lon="11.4705917"><ele>336.0</ele><time>2026-03-22T10:52:35.35Z</time></trkpt><trkpt lat="43.3536883" lon="11.4707333"><ele>335.5</ele><time>2026-03-22T10:52:36.35Z</time></trkpt><trkpt lat="43.35361" lon="11.47088"><ele>335.0</ele><time>2026-03-22T10:52:37.349Z</time></trkpt><trkpt lat="43.3535133" lon="11.4710383"><ele>334.5</ele><time>2026-03-22T10:52:38.349Z</time></trkpt><trkpt lat="43.35342" lon="11.4712017"><ele>334.0</ele><time>2026-03-22T10:52:39.35Z</time></trkpt><trkpt lat="43.35333" lon="11.4713467"><ele>334.0</ele><time>2026-03-22T10:52:40.35Z</time></trkpt><trkpt lat="43.353255" lon="11.4714867"><ele>334.0</ele><time>2026-03-22T10:52:41.35Z</time></trkpt><trkpt lat="43.3531917" lon="11.4716167"><ele>334.0</ele><time>2026-03-22T10:52:42.349Z</time></trkpt><trkpt lat="43.3531217" lon="11.4717183"><ele>334.0</ele><time>2026-03-22T10:52:43.35Z</time></trkpt><trkpt lat="43.3530617" lon="11.4717983"><ele>334.0</ele><time>2026-03-22T10:52:44.35Z</time></trkpt><trkpt lat="43.3530167" lon="11.471865"><ele>333.8333333333333</ele><time>2026-03-22T10:52:45.35Z</time></trkpt><trkpt lat="43.3529683" lon="11.47195"><ele>333.66666666666663</ele><time>2026-03-22T10:52:47.349Z</time></trkpt><trkpt lat="43.352905" lon="11.4720017"><ele>333.5</ele><time>2026-03-22T10:52:50.35Z</time></trkpt><trkpt lat="43.35283" lon="11.47203"><ele>333.3333333333333</ele><time>2026-03-22T10:52:52.35Z</time></trkpt><trkpt lat="43.352755" lon="11.4720217"><ele>333.1666666666667</ele><time>2026-03-22T10:52:54.35Z</time></trkpt><trkpt lat="43.352865" lon="11.472035"><ele>333.0</ele><time>2026-03-22T10:53:01.35Z</time></trkpt><trkpt lat="43.352925" lon="11.4719733"><ele>333.0</ele><time>2026-03-22T10:53:02.35Z</time></trkpt><trkpt lat="43.3529833" lon="11.4719017"><ele>333.0</ele><time>2026-03-22T10:53:03.349Z</time></trkpt><trkpt lat="43.3530383" lon="11.47181"><ele>333.0</ele><time>2026-03-22T10:53:04.35Z</time></trkpt><trkpt lat="43.3530983" lon="11.4717083"><ele>333.0</ele><time>2026-03-22T10:53:05.35Z</time></trkpt><trkpt lat="43.353165" lon="11.4716067"><ele>333.0</ele><time>2026-03-22T10:53:06.35Z</time></trkpt><trkpt lat="43.3532267" lon="11.4715"><ele>333.2</ele><time>2026-03-22T10:53:07.349Z</time></trkpt><trkpt lat="43.3532867" lon="11.471385"><ele>333.4</ele><time>2026-03-22T10:53:08.35Z</time></trkpt><trkpt lat="43.3533417" lon="11.47128"><ele>333.59999999999997</ele><time>2026-03-22T10:53:09.35Z</time></trkpt><trkpt lat="43.3534017" lon="11.4711833"><ele>333.79999999999995</ele><time>2026-03-22T10:53:10.35Z</time></trkpt><trkpt lat="43.3534633" lon="11.4710933"><ele>334.0</ele><time>2026-03-22T10:53:11.349Z</time></trkpt><trkpt lat="43.3535217" lon="11.4710183"><ele>334.0</ele><time>2026-03-22T10:53:12.349Z</time></trkpt><trkpt lat="43.353575" lon="11.470925"><ele>334.0</ele><time>2026-03-22T10:53:14.35Z</time></trkpt><trkpt lat="43.3534717" lon="11.4708667"><ele>334.0</ele><time>2026-03-22T10:53:17.35Z</time></trkpt><trkpt lat="43.353405" lon="11.470835"><ele>334.0</ele><time>2026-03-22T10:53:18.35Z</time></trkpt><trkpt lat="43.353325" lon="11.47079"><ele>334.0</ele><time>2026-03-22T10:53:19.349Z</time></trkpt><trkpt lat="43.35323" lon="11.4707383"><ele>334.0</ele><time>2026-03-22T10:53:20.35Z</time></trkpt><trkpt lat="43.3531367" lon="11.4706933"><ele>334.0</ele><time>2026-03-22T10:53:21.35Z</time></trkpt><trkpt lat="43.353045" lon="11.470655"><ele>334.0</ele><time>2026-03-22T10:53:22.35Z</time></trkpt><trkpt lat="43.3529617" lon="11.4706233"><ele>334.0</ele><time>2026-03-22T10:53:23.35Z</time></trkpt><trkpt lat="43.3528883" lon="11.4705967"><ele>334.0</ele><time>2026-03-22T10:53:24.35Z</time></trkpt><trkpt lat="43.3528167" lon="11.47056"><ele>334.0</ele><time>2026-03-22T10:53:25.35Z</time></trkpt><trkpt lat="43.3527433" lon="11.4705233"><ele>334.16666666666663</ele><time>2026-03-22T10:53:26.35Z</time></trkpt><trkpt lat="43.3526717" lon="11.4704933"><ele>334.3333333333333</ele><time>2026-03-22T10:53:27.349Z</time></trkpt><trkpt lat="43.3525917" lon="11.4704617"><ele>334.5</ele><time>2026-03-22T10:53:28.35Z</time></trkpt><trkpt lat="43.352505" lon="11.4704217"><ele>334.6666666666667</ele><time>2026-03-22T10:53:29.349Z</time></trkpt><trkpt lat="43.3524167" lon="11.47038"><ele>334.83333333333337</ele><time>2026-03-22T10:53:30.35Z</time></trkpt><trkpt lat="43.352335" lon="11.4703333"><ele>335.0</ele><time>2026-03-22T10:53:31.35Z</time></trkpt><trkpt lat="43.3522567" lon="11.4702717"><ele>334.8</ele><time>2026-03-22T10:53:32.35Z</time></trkpt><trkpt lat="43.3521817" lon="11.4702117"><ele>334.6</ele><time>2026-03-22T10:53:33.349Z</time></trkpt><trkpt lat="43.3521017" lon="11.470155"><ele>334.4</ele><time>2026-03-22T10:53:34.349Z</time></trkpt><trkpt lat="43.35201" lon="11.4701083"><ele>334.2</ele><time>2026-03-22T10:53:35.35Z</time></trkpt><trkpt lat="43.35192" lon="11.47006"><ele>334.0</ele><time>2026-03-22T10:53:36.35Z</time></trkpt><trkpt lat="43.3518283" lon="11.4700217"><ele>334.0</ele><time>2026-03-22T10:53:37.349Z</time></trkpt><trkpt lat="43.3517383" lon="11.4699867"><ele>334.0</ele><time>2026-03-22T10:53:38.35Z</time></trkpt><trkpt lat="43.3516333" lon="11.4699583"><ele>334.0</ele><time>2026-03-22T10:53:39.349Z</time></trkpt><trkpt lat="43.35155" lon="11.4699583"><ele>334.0</ele><time>2026-03-22T10:53:40.35Z</time></trkpt><trkpt lat="43.3514533" lon="11.469955"><ele>334.0</ele><time>2026-03-22T10:53:42.35Z</time></trkpt><trkpt lat="43.3513767" lon="11.4699367"><ele>333.2</ele><time>2026-03-22T10:54:24.35Z</time></trkpt><trkpt lat="43.3512983" lon="11.4699633"><ele>332.4</ele><time>2026-03-22T10:55:02.35Z</time></trkpt><trkpt lat="43.3512383" lon="11.47006"><ele>331.6</ele><time>2026-03-22T10:55:05.349Z</time></trkpt><trkpt lat="43.3512033" lon="11.4701333"><ele>330.8</ele><time>2026-03-22T10:55:07.35Z</time></trkpt><trkpt lat="43.3511017" lon="11.4701267"><ele>330.0</ele><time>2026-03-22T10:55:10.349Z</time></trkpt><trkpt lat="43.3509867" lon="11.4700833"><ele>330.0</ele><time>2026-03-22T10:55:12.35Z</time></trkpt><trkpt lat="43.3509133" lon="11.4700567"><ele>330.0</ele><time>2026-03-22T10:55:13.35Z</time></trkpt><trkpt lat="43.35083" lon="11.470025"><ele>330.0</ele><time>2026-03-22T10:55:14.35Z</time></trkpt><trkpt lat="43.35074" lon="11.469995"><ele>330.0</ele><time>2026-03-22T10:55:15.35Z</time></trkpt><trkpt lat="43.3506417" lon="11.46997"><ele>330.0</ele><time>2026-03-22T10:55:16.349Z</time></trkpt><trkpt lat="43.3505383" lon="11.4699517"><ele>328.5</ele><time>2026-03-22T10:55:17.35Z</time></trkpt><trkpt lat="43.3504467" lon="11.469935"><ele>327.0</ele><time>2026-03-22T10:55:18.349Z</time></trkpt><trkpt lat="43.35035" lon="11.4699133"><ele>325.5</ele><time>2026-03-22T10:55:19.35Z</time></trkpt><trkpt lat="43.3502667" lon="11.469905"><ele>324.0</ele><time>2026-03-22T10:55:20.35Z</time></trkpt><trkpt lat="43.3501817" lon="11.4698983"><ele>322.5</ele><time>2026-03-22T10:55:21.35Z</time></trkpt><trkpt lat="43.3500933" lon="11.4699033"><ele>321.0</ele><time>2026-03-22T10:55:22.35Z</time></trkpt><trkpt lat="43.3499983" lon="11.4699033"><ele>321.0</ele><time>2026-03-22T10:55:23.35Z</time></trkpt><trkpt lat="43.3498983" lon="11.469895"><ele>321.0</ele><time>2026-03-22T10:55:24.349Z</time></trkpt><trkpt lat="43.349795" lon="11.4698733"><ele>321.0</ele><time>2026-03-22T10:55:25.35Z</time></trkpt><trkpt lat="43.3496833" lon="11.4698467"><ele>321.0</ele><time>2026-03-22T10:55:26.35Z</time></trkpt><trkpt lat="43.3495767" lon="11.4698383"><ele>321.0</ele><time>2026-03-22T10:55:27.349Z</time></trkpt><trkpt lat="43.3494633" lon="11.46983"><ele>319.6666666666667</ele><time>2026-03-22T10:55:28.35Z</time></trkpt><trkpt lat="43.3493617" lon="11.4698533"><ele>318.3333333333333</ele><time>2026-03-22T10:55:29.35Z</time></trkpt><trkpt lat="43.3492733" lon="11.4698817"><ele>317.0</ele><time>2026-03-22T10:55:30.35Z</time></trkpt><trkpt lat="43.34919" lon="11.4699183"><ele>315.66666666666663</ele><time>2026-03-22T10:55:31.35Z</time></trkpt><trkpt lat="43.34912" lon="11.469955"><ele>314.3333333333333</ele><time>2026-03-22T10:55:32.349Z</time></trkpt><trkpt lat="43.34906" lon="11.47002"><ele>313.0</ele><time>2026-03-22T10:55:33.35Z</time></trkpt><trkpt lat="43.3490017" lon="11.4700983"><ele>313.0</ele><time>2026-03-22T10:55:34.35Z</time></trkpt><trkpt lat="43.3489483" lon="11.4701967"><ele>313.0</ele><time>2026-03-22T10:55:35.35Z</time></trkpt><trkpt lat="43.3488933" lon="11.4703167"><ele>313.0</ele><time>2026-03-22T10:55:36.349Z</time></trkpt><trkpt lat="43.348845" lon="11.4704183"><ele>313.0</ele><time>2026-03-22T10:55:37.349Z</time></trkpt><trkpt lat="43.34879" lon="11.4705183"><ele>313.0</ele><time>2026-03-22T10:55:38.35Z</time></trkpt><trkpt lat="43.3487017" lon="11.4706233"><ele>309.0</ele><time>2026-03-22T10:55:40.35Z</time></trkpt><trkpt lat="43.348605" lon="11.4706683"><ele>305.0</ele><time>2026-03-22T10:55:41.35Z</time></trkpt><trkpt lat="43.3484917" lon="11.4706933"><ele>301.0</ele><time>2026-03-22T10:55:42.35Z</time></trkpt><trkpt lat="43.3483483" lon="11.4707083"><ele>297.0</ele><time>2026-03-22T10:55:43.35Z</time></trkpt><trkpt lat="43.34821" lon="11.4707333"><ele>297.0</ele><time>2026-03-22T10:55:44.35Z</time></trkpt><trkpt lat="43.34807" lon="11.47077"><ele>297.0</ele><time>2026-03-22T10:55:45.35Z</time></trkpt><trkpt lat="43.3479217" lon="11.4708183"><ele>297.0</ele><time>2026-03-22T10:55:46.35Z</time></trkpt><trkpt lat="43.3477783" lon="11.4708533"><ele>297.0</ele><time>2026-03-22T10:55:47.35Z</time></trkpt><trkpt lat="43.34765" lon="11.4708767"><ele>296.0</ele><time>2026-03-22T10:55:48.35Z</time></trkpt><trkpt lat="43.3475267" lon="11.4709083"><ele>295.0</ele><time>2026-03-22T10:55:49.35Z</time></trkpt><trkpt lat="43.347405" lon="11.47094"><ele>294.0</ele><time>2026-03-22T10:55:50.35Z</time></trkpt><trkpt lat="43.3472917" lon="11.470965"><ele>293.0</ele><time>2026-03-22T10:55:51.35Z</time></trkpt><trkpt lat="43.3471833" lon="11.471"><ele>292.4</ele><time>2026-03-22T10:55:52.35Z</time></trkpt><trkpt lat="43.3470733" lon="11.47104"><ele>291.8</ele><time>2026-03-22T10:55:53.349Z</time></trkpt><trkpt lat="43.346975" lon="11.471095"><ele>291.2</ele><time>2026-03-22T10:55:54.35Z</time></trkpt><trkpt lat="43.3469033" lon="11.4711533"><ele>290.6</ele><time>2026-03-22T10:55:55.35Z</time></trkpt><trkpt lat="43.3468117" lon="11.47124"><ele>290.0</ele><time>2026-03-22T10:55:56.35Z</time></trkpt><trkpt lat="43.3467317" lon="11.4713417"><ele>289.8</ele><time>2026-03-22T10:55:57.349Z</time></trkpt><trkpt lat="43.3466583" lon="11.4714417"><ele>289.6</ele><time>2026-03-22T10:55:58.349Z</time></trkpt><trkpt lat="43.3465933" lon="11.4715333"><ele>289.4</ele><time>2026-03-22T10:55:59.35Z</time></trkpt><trkpt lat="43.34653" lon="11.4716333"><ele>289.2</ele><time>2026-03-22T10:56:01.35Z</time></trkpt><trkpt lat="43.3464917" lon="11.4717183"><ele>289.0</ele><time>2026-03-22T10:56:03.35Z</time></trkpt><trkpt lat="43.3464333" lon="11.47187"><ele>289.0</ele><time>2026-03-22T10:56:05.35Z</time></trkpt><trkpt lat="43.3463817" lon="11.4719767"><ele>289.0</ele><time>2026-03-22T10:56:06.35Z</time></trkpt><trkpt lat="43.3463317" lon="11.472085"><ele>289.0</ele><time>2026-03-22T10:56:07.35Z</time></trkpt><trkpt lat="43.3462783" lon="11.4721967"><ele>289.0</ele><time>2026-03-22T10:56:08.35Z</time></trkpt><trkpt lat="43.346225" lon="11.4723067"><ele>289.0</ele><time>2026-03-22T10:56:09.35Z</time></trkpt><trkpt lat="43.3461733" lon="11.4724183"><ele>290.0</ele><time>2026-03-22T10:56:10.35Z</time></trkpt><trkpt lat="43.3461133" lon="11.472545"><ele>291.0</ele><time>2026-03-22T10:56:11.35Z</time></trkpt><trkpt lat="43.3460517" lon="11.4726717"><ele>292.0</ele><time>2026-03-22T10:56:12.35Z</time></trkpt><trkpt lat="43.34598" lon="11.4728"><ele>293.0</ele><time>2026-03-22T10:56:13.35Z</time></trkpt><trkpt lat="43.3459017" lon="11.4729417"><ele>290.6</ele><time>2026-03-22T10:56:14.35Z</time></trkpt><trkpt lat="43.34583" lon="11.4730633"><ele>288.20000000000005</ele><time>2026-03-22T10:56:15.35Z</time></trkpt><trkpt lat="43.3457683" lon="11.4731583"><ele>285.8</ele><time>2026-03-22T10:56:16.35Z</time></trkpt><trkpt lat="43.3456867" lon="11.4732283"><ele>283.40000000000003</ele><time>2026-03-22T10:56:17.35Z</time></trkpt><trkpt lat="43.3455917" lon="11.4732733"><ele>281.0</ele><time>2026-03-22T10:56:18.35Z</time></trkpt><trkpt lat="43.3454967" lon="11.473305"><ele>281.0</ele><time>2026-03-22T10:56:19.35Z</time></trkpt><trkpt lat="43.3453667" lon="11.47332"><ele>281.0</ele><time>2026-03-22T10:56:20.35Z</time></trkpt><trkpt lat="43.34523" lon="11.4733383"><ele>281.0</ele><time>2026-03-22T10:56:21.349Z</time></trkpt><trkpt lat="43.3450967" lon="11.473365"><ele>281.0</ele><time>2026-03-22T10:56:22.35Z</time></trkpt><trkpt lat="43.3449733" lon="11.473385"><ele>281.0</ele><time>2026-03-22T10:56:23.35Z</time></trkpt><trkpt lat="43.3448617" lon="11.473385"><ele>281.0</ele><time>2026-03-22T10:56:24.35Z</time></trkpt><trkpt lat="43.34476" lon="11.4733483"><ele>281.0</ele><time>2026-03-22T10:56:25.349Z</time></trkpt><trkpt lat="43.34464" lon="11.4733"><ele>281.0</ele><time>2026-03-22T10:56:26.35Z</time></trkpt><trkpt lat="43.3445383" lon="11.4732333"><ele>280.75</ele><time>2026-03-22T10:56:27.35Z</time></trkpt><trkpt lat="43.3444217" lon="11.4731583"><ele>280.5</ele><time>2026-03-22T10:56:28.349Z</time></trkpt><trkpt lat="43.3443267" lon="11.47304"><ele>280.25</ele><time>2026-03-22T10:56:29.35Z</time></trkpt><trkpt lat="43.3442333" lon="11.47291"><ele>280.0</ele><time>2026-03-22T10:56:30.35Z</time></trkpt><trkpt lat="43.3441367" lon="11.4728083"><ele>280.0</ele><time>2026-03-22T10:56:31.349Z</time></trkpt><trkpt lat="43.3440633" lon="11.4726967"><ele>280.0</ele><time>2026-03-22T10:56:32.35Z</time></trkpt><trkpt lat="43.34398" lon="11.4726017"><ele>280.0</ele><time>2026-03-22T10:56:33.35Z</time></trkpt><trkpt lat="43.3439117" lon="11.4724933"><ele>280.0</ele><time>2026-03-22T10:56:34.35Z</time></trkpt><trkpt lat="43.3438617" lon="11.4723633"><ele>280.0</ele><time>2026-03-22T10:56:35.35Z</time></trkpt><trkpt lat="43.34382" lon="11.47222"><ele>277.4</ele><time>2026-03-22T10:56:36.349Z</time></trkpt><trkpt lat="43.343785" lon="11.47209"><ele>274.8</ele><time>2026-03-22T10:56:37.35Z</time></trkpt><trkpt lat="43.34372" lon="11.4719533"><ele>272.2</ele><time>2026-03-22T10:56:38.35Z</time></trkpt><trkpt lat="43.3436533" lon="11.4718333"><ele>269.6</ele><time>2026-03-22T10:56:39.349Z</time></trkpt><trkpt lat="43.343575" lon="11.47171"><ele>267.0</ele><time>2026-03-22T10:56:40.35Z</time></trkpt><trkpt lat="43.3434917" lon="11.4716017"><ele>267.0</ele><time>2026-03-22T10:56:41.35Z</time></trkpt><trkpt lat="43.3434067" lon="11.471515"><ele>267.0</ele><time>2026-03-22T10:56:42.35Z</time></trkpt><trkpt lat="43.3433317" lon="11.4714333"><ele>267.0</ele><time>2026-03-22T10:56:43.35Z</time></trkpt><trkpt lat="43.3432733" lon="11.4713433"><ele>267.0</ele><time>2026-03-22T10:56:44.35Z</time></trkpt><trkpt lat="43.343225" lon="11.4712483"><ele>267.0</ele><time>2026-03-22T10:56:45.349Z</time></trkpt><trkpt lat="43.3431917" lon="11.47113"><ele>267.0</ele><time>2026-03-22T10:56:46.349Z</time></trkpt><trkpt lat="43.3431683" lon="11.4709833"><ele>267.0</ele><time>2026-03-22T10:56:47.35Z</time></trkpt><trkpt lat="43.3431483" lon="11.47084"><ele>267.0</ele><time>2026-03-22T10:56:48.349Z</time></trkpt><trkpt lat="43.343125" lon="11.4706783"><ele>267.0</ele><time>2026-03-22T10:56:49.349Z</time></trkpt><trkpt lat="43.343085" lon="11.4705217"><ele>264.6</ele><time>2026-03-22T10:56:50.35Z</time></trkpt><trkpt lat="43.343045" lon="11.4703883"><ele>262.2</ele><time>2026-03-22T10:56:51.35Z</time></trkpt><trkpt lat="43.3429933" lon="11.4702583"><ele>259.8</ele><time>2026-03-22T10:56:52.35Z</time></trkpt><trkpt lat="43.342935" lon="11.4701567"><ele>257.4</ele><time>2026-03-22T10:56:53.349Z</time></trkpt><trkpt lat="43.342855" lon="11.47006"><ele>255.0</ele><time>2026-03-22T10:56:54.35Z</time></trkpt><trkpt lat="43.3427583" lon="11.4699817"><ele>255.0</ele><time>2026-03-22T10:56:55.35Z</time></trkpt><trkpt lat="43.3426583" lon="11.46991"><ele>255.0</ele><time>2026-03-22T10:56:56.35Z</time></trkpt><trkpt lat="43.3425617" lon="11.4698517"><ele>255.0</ele><time>2026-03-22T10:56:57.349Z</time></trkpt><trkpt lat="43.3424483" lon="11.4697867"><ele>255.0</ele><time>2026-03-22T10:56:58.35Z</time></trkpt><trkpt lat="43.342325" lon="11.4697417"><ele>253.5</ele><time>2026-03-22T10:56:59.35Z</time></trkpt><trkpt lat="43.3421833" lon="11.46971"><ele>252.0</ele><time>2026-03-22T10:57:00.35Z</time></trkpt><trkpt lat="43.34205" lon="11.46966"><ele>250.5</ele><time>2026-03-22T10:57:01.35Z</time></trkpt><trkpt lat="43.3419083" lon="11.46962"><ele>249.0</ele><time>2026-03-22T10:57:02.35Z</time></trkpt><trkpt lat="43.34177" lon="11.4695817"><ele>247.25</ele><time>2026-03-22T10:57:03.349Z</time></trkpt><trkpt lat="43.34163" lon="11.4695517"><ele>245.5</ele><time>2026-03-22T10:57:04.35Z</time></trkpt><trkpt lat="43.3414983" lon="11.4695183"><ele>243.75</ele><time>2026-03-22T10:57:05.35Z</time></trkpt><trkpt lat="43.3413683" lon="11.4694733"><ele>242.0</ele><time>2026-03-22T10:57:06.35Z</time></trkpt><trkpt lat="43.341245" lon="11.4694217"><ele>241.0</ele><time>2026-03-22T10:57:07.35Z</time></trkpt><trkpt lat="43.34113" lon="11.469365"><ele>240.0</ele><time>2026-03-22T10:57:08.35Z</time></trkpt><trkpt lat="43.3410117" lon="11.46931"><ele>239.0</ele><time>2026-03-22T10:57:09.349Z</time></trkpt><trkpt lat="43.3409033" lon="11.4692633"><ele>238.0</ele><time>2026-03-22T10:57:10.35Z</time></trkpt><trkpt lat="43.3408" lon="11.4692183"><ele>238.0</ele><time>2026-03-22T10:57:11.35Z</time></trkpt><trkpt lat="43.3406933" lon="11.4691767"><ele>238.0</ele><time>2026-03-22T10:57:12.35Z</time></trkpt><trkpt lat="43.3405817" lon="11.4691367"><ele>238.0</ele><time>2026-03-22T10:57:13.35Z</time></trkpt><trkpt lat="43.3404633" lon="11.4691317"><ele>238.0</ele><time>2026-03-22T10:57:14.349Z</time></trkpt><trkpt lat="43.3403333" lon="11.469195"><ele>237.0</ele><time>2026-03-22T10:57:15.35Z</time></trkpt><trkpt lat="43.340205" lon="11.469325"><ele>236.0</ele><time>2026-03-22T10:57:16.35Z</time></trkpt><trkpt lat="43.3400867" lon="11.4694867"><ele>235.0</ele><time>2026-03-22T10:57:17.35Z</time></trkpt><trkpt lat="43.3399917" lon="11.469685"><ele>235.0</ele><time>2026-03-22T10:57:18.35Z</time></trkpt><trkpt lat="43.33992" lon="11.4698817"><ele>235.0</ele><time>2026-03-22T10:57:19.349Z</time></trkpt><trkpt lat="43.3398767" lon="11.4700733"><ele>235.0</ele><time>2026-03-22T10:57:20.35Z</time></trkpt><trkpt lat="43.33986" lon="11.4702683"><ele>235.0</ele><time>2026-03-22T10:57:21.35Z</time></trkpt><trkpt lat="43.3398567" lon="11.4704667"><ele>234.33333333333331</ele><time>2026-03-22T10:57:22.35Z</time></trkpt><trkpt lat="43.3398883" lon="11.4706667"><ele>233.66666666666669</ele><time>2026-03-22T10:57:23.349Z</time></trkpt><trkpt lat="43.339955" lon="11.4708617"><ele>233.0</ele><time>2026-03-22T10:57:24.35Z</time></trkpt><trkpt lat="43.3400283" lon="11.4710667"><ele>232.0</ele><time>2026-03-22T10:57:25.35Z</time></trkpt><trkpt lat="43.3400767" lon="11.4712833"><ele>231.0</ele><time>2026-03-22T10:57:26.35Z</time></trkpt><trkpt lat="43.34011" lon="11.4714933"><ele>230.0</ele><time>2026-03-22T10:57:27.349Z</time></trkpt><trkpt lat="43.3401083" lon="11.4716917"><ele>230.0</ele><time>2026-03-22T10:57:28.35Z</time></trkpt><trkpt lat="43.3400717" lon="11.4718967"><ele>230.0</ele><time>2026-03-22T10:57:29.35Z</time></trkpt><trkpt lat="43.3400117" lon="11.4721017"><ele>230.0</ele><time>2026-03-22T10:57:30.35Z</time></trkpt><trkpt lat="43.3399283" lon="11.472295"><ele>229.33333333333334</ele><time>2026-03-22T10:57:31.35Z</time></trkpt><trkpt lat="43.33982" lon="11.472485"><ele>228.66666666666669</ele><time>2026-03-22T10:57:32.35Z</time></trkpt><trkpt lat="43.3397033" lon="11.4726867"><ele>228.0</ele><time>2026-03-22T10:57:33.349Z</time></trkpt><trkpt lat="43.33959" lon="11.4728883"><ele>231.0</ele><time>2026-03-22T10:57:34.349Z</time></trkpt><trkpt lat="43.3394633" lon="11.4731067"><ele>234.0</ele><time>2026-03-22T10:57:35.35Z</time></trkpt><trkpt lat="43.3393633" lon="11.4733267"><ele>237.0</ele><time>2026-03-22T10:57:36.349Z</time></trkpt><trkpt lat="43.3392683" lon="11.473535"><ele>237.0</ele><time>2026-03-22T10:57:37.35Z</time></trkpt><trkpt lat="43.339155" lon="11.47371"><ele>237.0</ele><time>2026-03-22T10:57:38.35Z</time></trkpt><trkpt lat="43.3390283" lon="11.4738567"><ele>237.0</ele><time>2026-03-22T10:57:39.349Z</time></trkpt><trkpt lat="43.3388767" lon="11.473915"><ele>241.33333333333331</ele><time>2026-03-22T10:57:40.349Z</time></trkpt><trkpt lat="43.3387083" lon="11.473925"><ele>245.66666666666666</ele><time>2026-03-22T10:57:41.35Z</time></trkpt><trkpt lat="43.3385433" lon="11.4739233"><ele>250.0</ele><time>2026-03-22T10:57:42.35Z</time></trkpt><trkpt lat="43.33838" lon="11.4739617"><ele>250.0</ele><time>2026-03-22T10:57:43.35Z</time></trkpt><trkpt lat="43.338225" lon="11.4740433"><ele>250.0</ele><time>2026-03-22T10:57:44.35Z</time></trkpt><trkpt lat="43.33808" lon="11.47417"><ele>250.0</ele><time>2026-03-22T10:57:45.35Z</time></trkpt><trkpt lat="43.3379633" lon="11.47433"><ele>251.0</ele><time>2026-03-22T10:57:46.349Z</time></trkpt><trkpt lat="43.3378733" lon="11.474525"><ele>252.0</ele><time>2026-03-22T10:57:47.35Z</time></trkpt><trkpt lat="43.337815" lon="11.474735"><ele>253.0</ele><time>2026-03-22T10:57:48.35Z</time></trkpt><trkpt lat="43.3377767" lon="11.474955"><ele>253.0</ele><time>2026-03-22T10:57:49.35Z</time></trkpt><trkpt lat="43.3377483" lon="11.4752017"><ele>253.0</ele><time>2026-03-22T10:57:50.35Z</time></trkpt><trkpt lat="43.33773" lon="11.4754467"><ele>253.0</ele><time>2026-03-22T10:57:51.35Z</time></trkpt><trkpt lat="43.337685" lon="11.4756883"><ele>255.66666666666666</ele><time>2026-03-22T10:57:52.349Z</time></trkpt><trkpt lat="43.33764" lon="11.4759333"><ele>258.3333333333333</ele><time>2026-03-22T10:57:53.35Z</time></trkpt><trkpt lat="43.3375783" lon="11.4761733"><ele>261.0</ele><time>2026-03-22T10:57:54.349Z</time></trkpt><trkpt lat="43.3375267" lon="11.4763967"><ele>261.6666666666667</ele><time>2026-03-22T10:57:55.349Z</time></trkpt><trkpt lat="43.3375133" lon="11.4766133"><ele>262.33333333333337</ele><time>2026-03-22T10:57:56.35Z</time></trkpt><trkpt lat="43.337535" lon="11.4768367"><ele>263.0</ele><time>2026-03-22T10:57:57.35Z</time></trkpt><trkpt lat="43.3375833" lon="11.4770567"><ele>264.0</ele><time>2026-03-22T10:57:58.349Z</time></trkpt><trkpt lat="43.3376317" lon="11.477285"><ele>265.0</ele><time>2026-03-22T10:57:59.349Z</time></trkpt><trkpt lat="43.3376783" lon="11.47753"><ele>266.0</ele><time>2026-03-22T10:58:00.35Z</time></trkpt><trkpt lat="43.3377317" lon="11.477775"><ele>267.6666666666667</ele><time>2026-03-22T10:58:01.351Z</time></trkpt><trkpt lat="43.3377867" lon="11.4780217"><ele>269.3333333333333</ele><time>2026-03-22T10:58:02.351Z</time></trkpt><trkpt lat="43.33784" lon="11.4782733"><ele>271.0</ele><time>2026-03-22T10:58:03.351Z</time></trkpt><trkpt lat="43.3378983" lon="11.4785133"><ele>271.0</ele><time>2026-03-22T10:58:04.35Z</time></trkpt><trkpt lat="43.33792" lon="11.47873"><ele>271.0</ele><time>2026-03-22T10:58:05.351Z</time></trkpt><trkpt lat="43.3379217" lon="11.4789233"><ele>271.0</ele><time>2026-03-22T10:58:06.351Z</time></trkpt><trkpt lat="43.3378983" lon="11.479065"><ele>271.0</ele><time>2026-03-22T10:58:07.351Z</time></trkpt><trkpt lat="43.3378517" lon="11.479175"><ele>271.75</ele><time>2026-03-22T10:58:08.351Z</time></trkpt><trkpt lat="43.3377617" lon="11.4792533"><ele>272.5</ele><time>2026-03-22T10:58:09.351Z</time></trkpt><trkpt lat="43.337635" lon="11.4792867"><ele>273.25</ele><time>2026-03-22T10:58:10.351Z</time></trkpt><trkpt lat="43.3375017" lon="11.4792983"><ele>274.0</ele><time>2026-03-22T10:58:11.351Z</time></trkpt><trkpt lat="43.33735" lon="11.4792883"><ele>274.4</ele><time>2026-03-22T10:58:12.351Z</time></trkpt><trkpt lat="43.3372133" lon="11.4792967"><ele>274.79999999999995</ele><time>2026-03-22T10:58:13.35Z</time></trkpt><trkpt lat="43.3371" lon="11.47929"><ele>275.20000000000005</ele><time>2026-03-22T10:58:14.351Z</time></trkpt><trkpt lat="43.337025" lon="11.4792817"><ele>275.6</ele><time>2026-03-22T10:58:15.351Z</time></trkpt><trkpt lat="43.3369617" lon="11.479275"><ele>276.0</ele><time>2026-03-22T10:58:17.351Z</time></trkpt><trkpt lat="43.336945" lon="11.47919"><ele>276.0</ele><time>2026-03-22T10:58:21.351Z</time></trkpt><trkpt lat="43.3370167" lon="11.4791083"><ele>276.0</ele><time>2026-03-22T10:58:23.35Z</time></trkpt><trkpt lat="43.3371033" lon="11.4789767"><ele>276.0</ele><time>2026-03-22T10:58:25.351Z</time></trkpt><trkpt lat="43.3371483" lon="11.478905"><ele>276.0</ele><time>2026-03-22T10:58:26.351Z</time></trkpt><trkpt lat="43.3371967" lon="11.478775"><ele>276.0</ele><time>2026-03-22T10:58:28.351Z</time></trkpt><trkpt lat="43.3371717" lon="11.478685"><ele>275.8</ele><time>2026-03-22T10:58:30.351Z</time></trkpt><trkpt lat="43.3371167" lon="11.4785633"><ele>275.6</ele><time>2026-03-22T10:58:32.351Z</time></trkpt><trkpt lat="43.33705" lon="11.4784133"><ele>275.4</ele><time>2026-03-22T10:58:34.351Z</time></trkpt><trkpt lat="43.3370117" lon="11.4783317"><ele>275.2</ele><time>2026-03-22T10:58:35.351Z</time></trkpt><trkpt lat="43.3369717" lon="11.4782367"><ele>275.0</ele><time>2026-03-22T10:58:36.35Z</time></trkpt><trkpt lat="43.3369267" lon="11.478125"><ele>275.0</ele><time>2026-03-22T10:58:37.351Z</time></trkpt><trkpt lat="43.3368733" lon="11.4780067"><ele>275.0</ele><time>2026-03-22T10:58:38.351Z</time></trkpt><trkpt lat="43.3368233" lon="11.477885"><ele>275.0</ele><time>2026-03-22T10:58:39.351Z</time></trkpt><trkpt lat="43.3367783" lon="11.477765"><ele>275.0</ele><time>2026-03-22T10:58:40.35Z</time></trkpt><trkpt lat="43.3367433" lon="11.4776817"><ele>275.0</ele><time>2026-03-22T10:58:41.351Z</time></trkpt><trkpt lat="43.3367067" lon="11.4776017"><ele>275.0</ele><time>2026-03-22T10:58:42.351Z</time></trkpt><trkpt lat="43.3366467" lon="11.4774567"><ele>274.6666666666667</ele><time>2026-03-22T10:58:44.351Z</time></trkpt><trkpt lat="43.3366167" lon="11.4773733"><ele>274.33333333333337</ele><time>2026-03-22T10:58:45.35Z</time></trkpt><trkpt lat="43.3365783" lon="11.4772867"><ele>274.0</ele><time>2026-03-22T10:58:46.351Z</time></trkpt><trkpt lat="43.33653" lon="11.4771933"><ele>273.6666666666667</ele><time>2026-03-22T10:58:47.35Z</time></trkpt><trkpt lat="43.3364917" lon="11.4771017"><ele>273.3333333333333</ele><time>2026-03-22T10:58:48.351Z</time></trkpt><trkpt lat="43.3364567" lon="11.477025"><ele>273.0</ele><time>2026-03-22T10:58:49.351Z</time></trkpt><trkpt lat="43.336395" lon="11.47694"><ele>273.1666666666667</ele><time>2026-03-22T10:58:51.351Z</time></trkpt><trkpt lat="43.33631" lon="11.4769617"><ele>273.3333333333333</ele><time>2026-03-22T10:58:53.35Z</time></trkpt><trkpt lat="43.336245" lon="11.4769933"><ele>273.5</ele><time>2026-03-22T10:58:54.351Z</time></trkpt><trkpt lat="43.3361717" lon="11.47704"><ele>273.66666666666663</ele><time>2026-03-22T10:58:55.351Z</time></trkpt><trkpt lat="43.3360967" lon="11.4770883"><ele>273.8333333333333</ele><time>2026-03-22T10:58:56.351Z</time></trkpt><trkpt lat="43.3360267" lon="11.4771483"><ele>274.0</ele><time>2026-03-22T10:58:57.351Z</time></trkpt><trkpt lat="43.3359717" lon="11.4771933"><ele>274.0</ele><time>2026-03-22T10:58:58.351Z</time></trkpt><trkpt lat="43.3359033" lon="11.477235"><ele>274.0</ele><time>2026-03-22T10:59:00.351Z</time></trkpt><trkpt lat="43.3358483" lon="11.4771883"><ele>274.0</ele><time>2026-03-22T10:59:02.35Z</time></trkpt><trkpt lat="43.3358033" lon="11.4770283"><ele>274.0</ele><time>2026-03-22T10:59:04.351Z</time></trkpt><trkpt lat="43.3357783" lon="11.47691"><ele>274.0</ele><time>2026-03-22T10:59:05.351Z</time></trkpt><trkpt lat="43.3357383" lon="11.4767783"><ele>274.25</ele><time>2026-03-22T10:59:06.351Z</time></trkpt><trkpt lat="43.3356867" lon="11.476625"><ele>274.5</ele><time>2026-03-22T10:59:07.351Z</time></trkpt><trkpt lat="43.3356233" lon="11.476465"><ele>274.75</ele><time>2026-03-22T10:59:08.351Z</time></trkpt><trkpt lat="43.33556" lon="11.476295"><ele>275.0</ele><time>2026-03-22T10:59:09.351Z</time></trkpt><trkpt lat="43.3355" lon="11.4761383"><ele>275.0</ele><time>2026-03-22T10:59:10.351Z</time></trkpt><trkpt lat="43.3354417" lon="11.47602"><ele>275.0</ele><time>2026-03-22T10:59:11.35Z</time></trkpt><trkpt lat="43.3354033" lon="11.4759267"><ele>275.0</ele><time>2026-03-22T10:59:12.351Z</time></trkpt><trkpt lat="43.3353617" lon="11.47581"><ele>275.0</ele><time>2026-03-22T10:59:14.351Z</time></trkpt><trkpt lat="43.3353183" lon="11.4757383"><ele>275.0</ele><time>2026-03-22T10:59:19.35Z</time></trkpt><trkpt lat="43.3353867" lon="11.4759083"><ele>275.0</ele><time>2026-03-22T10:59:29.351Z</time></trkpt><trkpt lat="43.3354233" lon="11.4760233"><ele>275.0</ele><time>2026-03-22T10:59:30.351Z</time></trkpt><trkpt lat="43.33545" lon="11.47612"><ele>275.0</ele><time>2026-03-22T10:59:31.351Z</time></trkpt><trkpt lat="43.335445" lon="11.4762433"><ele>275.0</ele><time>2026-03-22T10:59:33.351Z</time></trkpt><trkpt lat="43.3353367" lon="11.4762933"><ele>275.0</ele><time>2026-03-22T10:59:35.351Z</time></trkpt><trkpt lat="43.335255" lon="11.47629"><ele>275.0</ele><time>2026-03-22T10:59:36.35Z</time></trkpt><trkpt lat="43.3351633" lon="11.4762617"><ele>275.0</ele><time>2026-03-22T10:59:37.351Z</time></trkpt><trkpt lat="43.3350683" lon="11.4762433"><ele>275.0</ele><time>2026-03-22T10:59:38.351Z</time></trkpt><trkpt lat="43.3349617" lon="11.47622"><ele>275.0</ele><time>2026-03-22T10:59:39.351Z</time></trkpt><trkpt lat="43.33484" lon="11.4761933"><ele>275.0</ele><time>2026-03-22T10:59:40.351Z</time></trkpt><trkpt lat="43.33471" lon="11.4761717"><ele>273.5</ele><time>2026-03-22T10:59:41.351Z</time></trkpt><trkpt lat="43.3345717" lon="11.476145"><ele>272.0</ele><time>2026-03-22T10:59:42.351Z</time></trkpt><trkpt lat="43.33443" lon="11.4761283"><ele>270.5</ele><time>2026-03-22T10:59:43.351Z</time></trkpt><trkpt lat="43.3342833" lon="11.4761067"><ele>269.0</ele><time>2026-03-22T10:59:44.351Z</time></trkpt><trkpt lat="43.33415" lon="11.4760883"><ele>269.0</ele><time>2026-03-22T10:59:45.35Z</time></trkpt><trkpt lat="43.334005" lon="11.476065"><ele>269.0</ele><time>2026-03-22T10:59:46.351Z</time></trkpt><trkpt lat="43.3338633" lon="11.47605"><ele>269.0</ele><time>2026-03-22T10:59:47.351Z</time></trkpt><trkpt lat="43.3337317" lon="11.4760383"><ele>269.0</ele><time>2026-03-22T10:59:48.351Z</time></trkpt><trkpt lat="43.3335967" lon="11.4760167"><ele>268.8</ele><time>2026-03-22T10:59:49.35Z</time></trkpt><trkpt lat="43.3334717" lon="11.47599"><ele>268.59999999999997</ele><time>2026-03-22T10:59:50.351Z</time></trkpt><trkpt lat="43.3333567" lon="11.47596"><ele>268.4</ele><time>2026-03-22T10:59:51.351Z</time></trkpt><trkpt lat="43.33327" lon="11.475905"><ele>268.2</ele><time>2026-03-22T10:59:52.351Z</time></trkpt><trkpt lat="43.3332033" lon="11.4758217"><ele>268.0</ele><time>2026-03-22T10:59:53.351Z</time></trkpt><trkpt lat="43.3331267" lon="11.47571"><ele>268.3333333333333</ele><time>2026-03-22T10:59:54.351Z</time></trkpt><trkpt lat="43.333035" lon="11.4755833"><ele>268.6666666666667</ele><time>2026-03-22T10:59:55.351Z</time></trkpt><trkpt lat="43.3329183" lon="11.475435"><ele>269.0</ele><time>2026-03-22T10:59:56.351Z</time></trkpt><trkpt lat="43.3327967" lon="11.4752833"><ele>266.6666666666667</ele><time>2026-03-22T10:59:57.351Z</time></trkpt><trkpt lat="43.3326567" lon="11.4751367"><ele>264.3333333333333</ele><time>2026-03-22T10:59:58.351Z</time></trkpt><trkpt lat="43.33252" lon="11.4749967"><ele>262.0</ele><time>2026-03-22T10:59:59.35Z</time></trkpt><trkpt lat="43.3323867" lon="11.4748667"><ele>262.0</ele><time>2026-03-22T11:00:00.35Z</time></trkpt><trkpt lat="43.3322517" lon="11.4747367"><ele>262.0</ele><time>2026-03-22T11:00:01.35Z</time></trkpt><trkpt lat="43.3321217" lon="11.4746333"><ele>262.0</ele><time>2026-03-22T11:00:02.351Z</time></trkpt><trkpt lat="43.332" lon="11.4745167"><ele>262.4</ele><time>2026-03-22T11:00:03.351Z</time></trkpt><trkpt lat="43.331885" lon="11.47444"><ele>262.79999999999995</ele><time>2026-03-22T11:00:04.351Z</time></trkpt><trkpt lat="43.3317867" lon="11.47435"><ele>263.2</ele><time>2026-03-22T11:00:05.351Z</time></trkpt><trkpt lat="43.331715" lon="11.4742767"><ele>263.59999999999997</ele><time>2026-03-22T11:00:06.35Z</time></trkpt><trkpt lat="43.3316633" lon="11.4742067"><ele>264.0</ele><time>2026-03-22T11:00:07.351Z</time></trkpt><trkpt lat="43.3316183" lon="11.47412"><ele>264.0</ele><time>2026-03-22T11:00:08.351Z</time></trkpt><trkpt lat="43.33158" lon="11.4740033"><ele>264.0</ele><time>2026-03-22T11:00:09.35Z</time></trkpt><trkpt lat="43.3315517" lon="11.47386"><ele>264.0</ele><time>2026-03-22T11:00:10.351Z</time></trkpt><trkpt lat="43.33151" lon="11.4737"><ele>264.0</ele><time>2026-03-22T11:00:11.35Z</time></trkpt><trkpt lat="43.3314667" lon="11.4735417"><ele>264.0</ele><time>2026-03-22T11:00:12.351Z</time></trkpt><trkpt lat="43.3314183" lon="11.47339"><ele>264.0</ele><time>2026-03-22T11:00:13.351Z</time></trkpt><trkpt lat="43.3313683" lon="11.4732417"><ele>264.0</ele><time>2026-03-22T11:00:14.351Z</time></trkpt><trkpt lat="43.3313233" lon="11.4731"><ele>264.0</ele><time>2026-03-22T11:00:15.35Z</time></trkpt><trkpt lat="43.3312767" lon="11.4729833"><ele>264.0</ele><time>2026-03-22T11:00:16.351Z</time></trkpt><trkpt lat="43.33124" lon="11.472875"><ele>264.0</ele><time>2026-03-22T11:00:17.351Z</time></trkpt><trkpt lat="43.3311983" lon="11.4727833"><ele>262.3333333333333</ele><time>2026-03-22T11:00:18.351Z</time></trkpt><trkpt lat="43.3311567" lon="11.4726983"><ele>260.6666666666667</ele><time>2026-03-22T11:00:19.351Z</time></trkpt><trkpt lat="43.331115" lon="11.4726033"><ele>259.0</ele><time>2026-03-22T11:00:20.351Z</time></trkpt><trkpt lat="43.33109" lon="11.4724917"><ele>257.33333333333337</ele><time>2026-03-22T11:00:21.351Z</time></trkpt><trkpt lat="43.33108" lon="11.4723617"><ele>255.66666666666669</ele><time>2026-03-22T11:00:22.351Z</time></trkpt><trkpt lat="43.331085" lon="11.47222"><ele>254.0</ele><time>2026-03-22T11:00:23.35Z</time></trkpt><trkpt lat="43.33109" lon="11.4720917"><ele>252.0</ele><time>2026-03-22T11:00:24.351Z</time></trkpt><trkpt lat="43.331095" lon="11.4719733"><ele>249.99999999999997</ele><time>2026-03-22T11:00:25.351Z</time></trkpt><trkpt lat="43.3310917" lon="11.4718617"><ele>247.99999999999997</ele><time>2026-03-22T11:00:26.351Z</time></trkpt><trkpt lat="43.3310683" lon="11.47176"><ele>246.0</ele><time>2026-03-22T11:00:27.351Z</time></trkpt><trkpt lat="43.3310267" lon="11.47165"><ele>244.0</ele><time>2026-03-22T11:00:28.351Z</time></trkpt><trkpt lat="43.3309767" lon="11.4715083"><ele>244.0</ele><time>2026-03-22T11:00:29.351Z</time></trkpt><trkpt lat="43.3309283" lon="11.4713733"><ele>243.99999999999997</ele><time>2026-03-22T11:00:30.351Z</time></trkpt><trkpt lat="43.3308833" lon="11.4712133"><ele>243.99999999999997</ele><time>2026-03-22T11:00:31.351Z</time></trkpt><trkpt lat="43.3308417" lon="11.47107"><ele>244.0</ele><time>2026-03-22T11:00:32.351Z</time></trkpt><trkpt lat="43.3308" lon="11.470965"><ele>244.0</ele><time>2026-03-22T11:00:33.351Z</time></trkpt><trkpt lat="43.3307817" lon="11.4708633"><ele>242.79999999999998</ele><time>2026-03-22T11:00:35.351Z</time></trkpt><trkpt lat="43.3307133" lon="11.4707467"><ele>241.59999999999997</ele><time>2026-03-22T11:01:35.351Z</time></trkpt><trkpt lat="43.3306617" lon="11.4706883"><ele>240.4</ele><time>2026-03-22T11:01:36.35Z</time></trkpt><trkpt lat="43.330595" lon="11.4706267"><ele>239.2</ele><time>2026-03-22T11:01:37.351Z</time></trkpt><trkpt lat="43.3305083" lon="11.4705483"><ele>238.0</ele><time>2026-03-22T11:01:38.351Z</time></trkpt><trkpt lat="43.3304033" lon="11.4704533"><ele>236.0</ele><time>2026-03-22T11:01:39.351Z</time></trkpt><trkpt lat="43.3302967" lon="11.4703483"><ele>234.0</ele><time>2026-03-22T11:01:40.351Z</time></trkpt><trkpt lat="43.3301817" lon="11.4702567"><ele>232.0</ele><time>2026-03-22T11:01:41.351Z</time></trkpt><trkpt lat="43.3300667" lon="11.470165"><ele>230.0</ele><time>2026-03-22T11:01:42.35Z</time></trkpt><trkpt lat="43.3299483" lon="11.4700733"><ele>230.0</ele><time>2026-03-22T11:01:43.351Z</time></trkpt><trkpt lat="43.329835" lon="11.47"><ele>230.0</ele><time>2026-03-22T11:01:44.351Z</time></trkpt><trkpt lat="43.3297067" lon="11.46993"><ele>230.0</ele><time>2026-03-22T11:01:45.351Z</time></trkpt><trkpt lat="43.3295733" lon="11.4698733"><ele>230.0</ele><time>2026-03-22T11:01:46.351Z</time></trkpt><trkpt lat="43.3294317" lon="11.46981"><ele>228.5</ele><time>2026-03-22T11:01:47.351Z</time></trkpt><trkpt lat="43.3293117" lon="11.4697467"><ele>227.0</ele><time>2026-03-22T11:01:48.351Z</time></trkpt><trkpt lat="43.3291883" lon="11.4696933"><ele>225.5</ele><time>2026-03-22T11:01:49.351Z</time></trkpt><trkpt lat="43.32907" lon="11.4696383"><ele>224.0</ele><time>2026-03-22T11:01:50.35Z</time></trkpt><trkpt lat="43.3289667" lon="11.4695967"><ele>222.33333333333334</ele><time>2026-03-22T11:01:51.351Z</time></trkpt><trkpt lat="43.3288917" lon="11.4695633"><ele>220.66666666666669</ele><time>2026-03-22T11:01:52.35Z</time></trkpt><trkpt lat="43.3288267" lon="11.469535"><ele>219.0</ele><time>2026-03-22T11:01:53.35Z</time></trkpt><trkpt lat="43.3287317" lon="11.46949"><ele>217.33333333333331</ele><time>2026-03-22T11:01:55.351Z</time></trkpt><trkpt lat="43.3287183" lon="11.46938"><ele>215.66666666666666</ele><time>2026-03-22T11:01:57.35Z</time></trkpt><trkpt lat="43.3287483" lon="11.4692917"><ele>214.0</ele><time>2026-03-22T11:01:58.351Z</time></trkpt><trkpt lat="43.32879" lon="11.4691817"><ele>214.0</ele><time>2026-03-22T11:01:59.351Z</time></trkpt><trkpt lat="43.3288467" lon="11.46905"><ele>214.0</ele><time>2026-03-22T11:02:00.351Z</time></trkpt><trkpt lat="43.3289133" lon="11.4688967"><ele>214.0</ele><time>2026-03-22T11:02:01.351Z</time></trkpt><trkpt lat="43.328985" lon="11.4687417"><ele>214.0</ele><time>2026-03-22T11:02:02.351Z</time></trkpt><trkpt lat="43.3290483" lon="11.46856"><ele>216.25</ele><time>2026-03-22T11:02:03.351Z</time></trkpt><trkpt lat="43.3291117" lon="11.4683967"><ele>218.5</ele><time>2026-03-22T11:02:04.35Z</time></trkpt><trkpt lat="43.3291733" lon="11.4682533"><ele>220.75</ele><time>2026-03-22T11:02:05.351Z</time></trkpt><trkpt lat="43.32922" lon="11.4681167"><ele>223.0</ele><time>2026-03-22T11:02:06.35Z</time></trkpt><trkpt lat="43.3292717" lon="11.4679817"><ele>222.0</ele><time>2026-03-22T11:02:07.35Z</time></trkpt><trkpt lat="43.3293233" lon="11.46784"><ele>221.0</ele><time>2026-03-22T11:02:08.351Z</time></trkpt><trkpt lat="43.3293733" lon="11.46769"><ele>220.0</ele><time>2026-03-22T11:02:09.351Z</time></trkpt><trkpt lat="43.3294217" lon="11.4675433"><ele>219.0</ele><time>2026-03-22T11:02:10.351Z</time></trkpt><trkpt lat="43.3294667" lon="11.4674"><ele>219.0</ele><time>2026-03-22T11:02:11.35Z</time></trkpt><trkpt lat="43.32951" lon="11.4672667"><ele>219.0</ele><time>2026-03-22T11:02:12.351Z</time></trkpt><trkpt lat="43.3295533" lon="11.4671467"><ele>219.0</ele><time>2026-03-22T11:02:13.351Z</time></trkpt><trkpt lat="43.3295867" lon="11.4670317"><ele>219.0</ele><time>2026-03-22T11:02:14.351Z</time></trkpt><trkpt lat="43.3296217" lon="11.4669383"><ele>219.0</ele><time>2026-03-22T11:02:15.35Z</time></trkpt><trkpt lat="43.329665" lon="11.4668683"><ele>219.0</ele><time>2026-03-22T11:02:16.351Z</time></trkpt><trkpt lat="43.329755" lon="11.46684"><ele>219.6</ele><time>2026-03-22T11:02:18.351Z</time></trkpt><trkpt lat="43.32982" lon="11.466875"><ele>220.2</ele><time>2026-03-22T11:02:19.351Z</time></trkpt><trkpt lat="43.3299067" lon="11.466935"><ele>220.79999999999998</ele><time>2026-03-22T11:02:20.35Z</time></trkpt><trkpt lat="43.3300117" lon="11.4669967"><ele>221.39999999999998</ele><time>2026-03-22T11:02:21.351Z</time></trkpt><trkpt lat="43.330125" lon="11.4670633"><ele>222.0</ele><time>2026-03-22T11:02:22.351Z</time></trkpt><trkpt lat="43.3302383" lon="11.4671267"><ele>222.0</ele><time>2026-03-22T11:02:23.351Z</time></trkpt><trkpt lat="43.33035" lon="11.4671883"><ele>222.0</ele><time>2026-03-22T11:02:24.351Z</time></trkpt><trkpt lat="43.3304683" lon="11.4672517"><ele>222.0</ele><time>2026-03-22T11:02:25.35Z</time></trkpt><trkpt lat="43.330575" lon="11.467305"><ele>222.0</ele><time>2026-03-22T11:02:26.35Z</time></trkpt><trkpt lat="43.33067" lon="11.4673533"><ele>221.6</ele><time>2026-03-22T11:02:27.351Z</time></trkpt><trkpt lat="43.3307533" lon="11.4673967"><ele>221.2</ele><time>2026-03-22T11:02:28.35Z</time></trkpt><trkpt lat="43.3308267" lon="11.46742"><ele>220.8</ele><time>2026-03-22T11:02:29.351Z</time></trkpt><trkpt lat="43.3309317" lon="11.4673717"><ele>220.4</ele><time>2026-03-22T11:02:31.35Z</time></trkpt><trkpt lat="43.3309933" lon="11.4671967"><ele>220.0</ele><time>2026-03-22T11:02:33.351Z</time></trkpt><trkpt lat="43.33102" lon="11.4670667"><ele>219.25</ele><time>2026-03-22T11:02:34.351Z</time></trkpt><trkpt lat="43.33105" lon="11.466915"><ele>218.5</ele><time>2026-03-22T11:02:35.351Z</time></trkpt><trkpt lat="43.33108" lon="11.4667483"><ele>217.75</ele><time>2026-03-22T11:02:36.351Z</time></trkpt><trkpt lat="43.3311217" lon="11.4665683"><ele>217.0</ele><time>2026-03-22T11:02:37.35Z</time></trkpt><trkpt lat="43.3311717" lon="11.4663917"><ele>217.25</ele><time>2026-03-22T11:02:38.351Z</time></trkpt><trkpt lat="43.3312217" lon="11.4662083"><ele>217.5</ele><time>2026-03-22T11:02:39.351Z</time></trkpt><trkpt lat="43.3312733" lon="11.46603"><ele>217.75</ele><time>2026-03-22T11:02:40.351Z</time></trkpt><trkpt lat="43.33132" lon="11.4658483"><ele>218.0</ele><time>2026-03-22T11:02:41.351Z</time></trkpt><trkpt lat="43.3313633" lon="11.4656717"><ele>218.83333333333334</ele><time>2026-03-22T11:02:42.35Z</time></trkpt><trkpt lat="43.331405" lon="11.4655317"><ele>219.66666666666669</ele><time>2026-03-22T11:02:43.351Z</time></trkpt><trkpt lat="43.3314467" lon="11.46543"><ele>220.5</ele><time>2026-03-22T11:02:44.351Z</time></trkpt><trkpt lat="43.3314983" lon="11.46536"><ele>221.33333333333331</ele><time>2026-03-22T11:02:45.351Z</time></trkpt><trkpt lat="43.3315617" lon="11.4653017"><ele>222.16666666666666</ele><time>2026-03-22T11:02:46.35Z</time></trkpt><trkpt lat="43.33164" lon="11.4652683"><ele>223.0</ele><time>2026-03-22T11:02:47.35Z</time></trkpt><trkpt lat="43.3317383" lon="11.4652483"><ele>223.0</ele><time>2026-03-22T11:02:48.351Z</time></trkpt><trkpt lat="43.33186" lon="11.4652517"><ele>223.0</ele><time>2026-03-22T11:02:49.351Z</time></trkpt><trkpt lat="43.3319867" lon="11.46527"><ele>223.0</ele><time>2026-03-22T11:02:50.351Z</time></trkpt><trkpt lat="43.33211" lon="11.4652683"><ele>223.0</ele><time>2026-03-22T11:02:51.351Z</time></trkpt><trkpt lat="43.3322233" lon="11.4652583"><ele>224.2</ele><time>2026-03-22T11:02:52.351Z</time></trkpt><trkpt lat="43.3323067" lon="11.4652067"><ele>225.4</ele><time>2026-03-22T11:02:53.35Z</time></trkpt><trkpt lat="43.3323733" lon="11.46511"><ele>226.59999999999997</ele><time>2026-03-22T11:02:54.351Z</time></trkpt><trkpt lat="43.3324333" lon="11.4649833"><ele>227.79999999999998</ele><time>2026-03-22T11:02:55.351Z</time></trkpt><trkpt lat="43.3324967" lon="11.4648367"><ele>229.0</ele><time>2026-03-22T11:02:56.351Z</time></trkpt><trkpt lat="43.332565" lon="11.4646717"><ele>228.33333333333331</ele><time>2026-03-22T11:02:57.351Z</time></trkpt><trkpt lat="43.3326383" lon="11.4645033"><ele>227.66666666666669</ele><time>2026-03-22T11:02:58.351Z</time></trkpt><trkpt lat="43.3327167" lon="11.4643317"><ele>227.0</ele><time>2026-03-22T11:02:59.351Z</time></trkpt><trkpt lat="43.3328017" lon="11.46414"><ele>227.0</ele><time>2026-03-22T11:03:00.351Z</time></trkpt><trkpt lat="43.3328867" lon="11.46395"><ele>227.0</ele><time>2026-03-22T11:03:01.351Z</time></trkpt><trkpt lat="43.33298" lon="11.4637517"><ele>227.0</ele><time>2026-03-22T11:03:02.351Z</time></trkpt><trkpt lat="43.3330683" lon="11.4635683"><ele>227.66666666666669</ele><time>2026-03-22T11:03:03.351Z</time></trkpt><trkpt lat="43.3331517" lon="11.463375"><ele>228.33333333333331</ele><time>2026-03-22T11:03:04.351Z</time></trkpt><trkpt lat="43.3332417" lon="11.46318"><ele>229.0</ele><time>2026-03-22T11:03:05.351Z</time></trkpt><trkpt lat="43.3333317" lon="11.462995"><ele>226.66666666666666</ele><time>2026-03-22T11:03:06.351Z</time></trkpt><trkpt lat="43.333415" lon="11.4628083"><ele>224.33333333333331</ele><time>2026-03-22T11:03:07.351Z</time></trkpt><trkpt lat="43.3335033" lon="11.4626067"><ele>222.0</ele><time>2026-03-22T11:03:08.35Z</time></trkpt><trkpt lat="43.3335867" lon="11.462415"><ele>222.0</ele><time>2026-03-22T11:03:09.351Z</time></trkpt><trkpt lat="43.333665" lon="11.46222"><ele>222.0</ele><time>2026-03-22T11:03:10.351Z</time></trkpt><trkpt lat="43.3337483" lon="11.4620217"><ele>222.0</ele><time>2026-03-22T11:03:11.351Z</time></trkpt><trkpt lat="43.3338317" lon="11.4618183"><ele>223.66666666666669</ele><time>2026-03-22T11:03:12.351Z</time></trkpt><trkpt lat="43.3339233" lon="11.4616167"><ele>225.33333333333334</ele><time>2026-03-22T11:03:13.351Z</time></trkpt><trkpt lat="43.33402" lon="11.4614267"><ele>227.0</ele><time>2026-03-22T11:03:14.351Z</time></trkpt><trkpt lat="43.3341033" lon="11.4612467"><ele>227.5</ele><time>2026-03-22T11:03:15.351Z</time></trkpt><trkpt lat="43.3341867" lon="11.4610767"><ele>228.0</ele><time>2026-03-22T11:03:16.351Z</time></trkpt><trkpt lat="43.3342617" lon="11.4609433"><ele>228.5</ele><time>2026-03-22T11:03:17.351Z</time></trkpt><trkpt lat="43.3343117" lon="11.4608117"><ele>229.0</ele><time>2026-03-22T11:03:18.351Z</time></trkpt><trkpt lat="43.334365" lon="11.4607017"><ele>229.0</ele><time>2026-03-22T11:03:19.351Z</time></trkpt><trkpt lat="43.3343983" lon="11.4605867"><ele>228.99999999999997</ele><time>2026-03-22T11:03:20.351Z</time></trkpt><trkpt lat="43.3344367" lon="11.4604683"><ele>228.99999999999997</ele><time>2026-03-22T11:03:21.35Z</time></trkpt><trkpt lat="43.3344933" lon="11.4603733"><ele>229.0</ele><time>2026-03-22T11:03:22.351Z</time></trkpt><trkpt lat="43.3345717" lon="11.46029"><ele>229.0</ele><time>2026-03-22T11:03:23.351Z</time></trkpt><trkpt lat="43.334665" lon="11.4602117"><ele>230.66666666666666</ele><time>2026-03-22T11:03:24.35Z</time></trkpt><trkpt lat="43.3347583" lon="11.4601483"><ele>232.33333333333331</ele><time>2026-03-22T11:03:25.351Z</time></trkpt><trkpt lat="43.3348383" lon="11.460105"><ele>234.0</ele><time>2026-03-22T11:03:26.351Z</time></trkpt><trkpt lat="43.334915" lon="11.4600533"><ele>235.66666666666669</ele><time>2026-03-22T11:03:27.351Z</time></trkpt><trkpt lat="43.3349733" lon="11.4599733"><ele>237.33333333333334</ele><time>2026-03-22T11:03:28.35Z</time></trkpt><trkpt lat="43.3350167" lon="11.4598783"><ele>239.0</ele><time>2026-03-22T11:03:29.351Z</time></trkpt><trkpt lat="43.3350467" lon="11.4597567"><ele>239.00000000000003</ele><time>2026-03-22T11:03:30.35Z</time></trkpt><trkpt lat="43.3350633" lon="11.45962"><ele>239.0</ele><time>2026-03-22T11:03:31.35Z</time></trkpt><trkpt lat="43.3350917" lon="11.4594833"><ele>239.0</ele><time>2026-03-22T11:03:32.351Z</time></trkpt><trkpt lat="43.3351133" lon="11.4593533"><ele>239.0</ele><time>2026-03-22T11:03:33.351Z</time></trkpt><trkpt lat="43.3351367" lon="11.4592567"><ele>239.00000000000003</ele><time>2026-03-22T11:03:34.35Z</time></trkpt><trkpt lat="43.3351583" lon="11.459165"><ele>239.0</ele><time>2026-03-22T11:03:35.351Z</time></trkpt><trkpt lat="43.3351533" lon="11.45904"><ele>239.2</ele><time>2026-03-22T11:03:37.35Z</time></trkpt><trkpt lat="43.33509" lon="11.4590033"><ele>239.39999999999998</ele><time>2026-03-22T11:03:39.351Z</time></trkpt><trkpt lat="43.33501" lon="11.4589717"><ele>239.6</ele><time>2026-03-22T11:03:41.351Z</time></trkpt><trkpt lat="43.3349333" lon="11.4588817"><ele>239.8</ele><time>2026-03-22T11:03:43.351Z</time></trkpt><trkpt lat="43.33486" lon="11.4587433"><ele>240.0</ele><time>2026-03-22T11:03:45.351Z</time></trkpt><trkpt lat="43.33477" lon="11.45863"><ele>239.4</ele><time>2026-03-22T11:03:47.351Z</time></trkpt><trkpt lat="43.3346617" lon="11.458595"><ele>238.8</ele><time>2026-03-22T11:03:49.35Z</time></trkpt><trkpt lat="43.3345333" lon="11.4586333"><ele>238.2</ele><time>2026-03-22T11:03:51.351Z</time></trkpt><trkpt lat="43.3344617" lon="11.4586617"><ele>237.6</ele><time>2026-03-22T11:03:52.351Z</time></trkpt><trkpt lat="43.33438" lon="11.458735"><ele>237.0</ele><time>2026-03-22T11:03:54.351Z</time></trkpt><trkpt lat="43.3343283" lon="11.4587983"><ele>236.66666666666666</ele><time>2026-03-22T11:03:56.351Z</time></trkpt><trkpt lat="43.3343467" lon="11.4588967"><ele>236.33333333333331</ele><time>2026-03-22T11:03:59.35Z</time></trkpt><trkpt lat="43.3344117" lon="11.4589933"><ele>236.0</ele><time>2026-03-22T11:04:01.35Z</time></trkpt><trkpt lat="43.3344583" lon="11.4591017"><ele>235.66666666666666</ele><time>2026-03-22T11:04:03.35Z</time></trkpt><trkpt lat="43.3344217" lon="11.4592217"><ele>235.33333333333331</ele><time>2026-03-22T11:04:05.351Z</time></trkpt><trkpt lat="43.3343667" lon="11.4593183"><ele>235.0</ele><time>2026-03-22T11:04:07.351Z</time></trkpt><trkpt lat="43.334305" lon="11.45943"><ele>235.0</ele><time>2026-03-22T11:04:09.351Z</time></trkpt><trkpt lat="43.3342433" lon="11.4595167"><ele>235.0</ele><time>2026-03-22T11:04:11.351Z</time></trkpt><trkpt lat="43.3341233" lon="11.4594967"><ele>235.0</ele><time>2026-03-22T11:04:13.351Z</time></trkpt><trkpt lat="43.33404" lon="11.4594333"><ele>235.0</ele><time>2026-03-22T11:04:14.351Z</time></trkpt><trkpt lat="43.3339483" lon="11.4593633"><ele>235.0</ele><time>2026-03-22T11:04:15.351Z</time></trkpt><trkpt lat="43.3338567" lon="11.45929"><ele>232.5</ele><time>2026-03-22T11:04:16.351Z</time></trkpt><trkpt lat="43.3337633" lon="11.4592067"><ele>230.0</ele><time>2026-03-22T11:04:17.351Z</time></trkpt><trkpt lat="43.3336633" lon="11.4591117"><ele>227.5</ele><time>2026-03-22T11:04:18.351Z</time></trkpt><trkpt lat="43.333565" lon="11.459015"><ele>225.0</ele><time>2026-03-22T11:04:19.351Z</time></trkpt><trkpt lat="43.3334667" lon="11.45892"><ele>225.0</ele><time>2026-03-22T11:04:20.351Z</time></trkpt><trkpt lat="43.3333683" lon="11.4588233"><ele>225.0</ele><time>2026-03-22T11:04:21.35Z</time></trkpt><trkpt lat="43.33327" lon="11.45873"><ele>225.0</ele><time>2026-03-22T11:04:22.351Z</time></trkpt><trkpt lat="43.3331717" lon="11.4586333"><ele>225.0</ele><time>2026-03-22T11:04:23.351Z</time></trkpt><trkpt lat="43.3330667" lon="11.45853"><ele>223.25</ele><time>2026-03-22T11:04:24.351Z</time></trkpt><trkpt lat="43.3329567" lon="11.4584217"><ele>221.5</ele><time>2026-03-22T11:04:25.351Z</time></trkpt><trkpt lat="43.332845" lon="11.4583167"><ele>219.75</ele><time>2026-03-22T11:04:26.351Z</time></trkpt><trkpt lat="43.332745" lon="11.458215"><ele>218.0</ele><time>2026-03-22T11:04:27.351Z</time></trkpt><trkpt lat="43.3326367" lon="11.4581083"><ele>218.0</ele><time>2026-03-22T11:04:28.351Z</time></trkpt><trkpt lat="43.332525" lon="11.457995"><ele>218.0</ele><time>2026-03-22T11:04:29.35Z</time></trkpt><trkpt lat="43.332405" lon="11.4578667"><ele>218.0</ele><time>2026-03-22T11:04:30.35Z</time></trkpt><trkpt lat="43.33229" lon="11.4577517"><ele>218.0</ele><time>2026-03-22T11:04:31.351Z</time></trkpt><trkpt lat="43.3321733" lon="11.4576367"><ele>216.66666666666669</ele><time>2026-03-22T11:04:32.351Z</time></trkpt><trkpt lat="43.3320533" lon="11.4575117"><ele>215.33333333333331</ele><time>2026-03-22T11:04:33.351Z</time></trkpt><trkpt lat="43.3319283" lon="11.4573933"><ele>214.0</ele><time>2026-03-22T11:04:34.35Z</time></trkpt><trkpt lat="43.3318033" lon="11.4572733"><ele>214.0</ele><time>2026-03-22T11:04:35.351Z</time></trkpt><trkpt lat="43.3316783" lon="11.4571483"><ele>214.0</ele><time>2026-03-22T11:04:36.351Z</time></trkpt><trkpt lat="43.33155" lon="11.4570183"><ele>214.0</ele><time>2026-03-22T11:04:37.351Z</time></trkpt><trkpt lat="43.3314367" lon="11.4569033"><ele>213.33333333333331</ele><time>2026-03-22T11:04:38.35Z</time></trkpt><trkpt lat="43.3313133" lon="11.4567867"><ele>212.66666666666669</ele><time>2026-03-22T11:04:39.35Z</time></trkpt><trkpt lat="43.3311933" lon="11.4566717"><ele>212.0</ele><time>2026-03-22T11:04:40.35Z</time></trkpt><trkpt lat="43.33106" lon="11.4565467"><ele>212.0</ele><time>2026-03-22T11:04:41.351Z</time></trkpt><trkpt lat="43.33093" lon="11.4564117"><ele>212.0</ele><time>2026-03-22T11:04:42.351Z</time></trkpt><trkpt lat="43.330795" lon="11.456265"><ele>212.0</ele><time>2026-03-22T11:04:43.351Z</time></trkpt><trkpt lat="43.33068" lon="11.4561217"><ele>211.66666666666669</ele><time>2026-03-22T11:04:44.351Z</time></trkpt><trkpt lat="43.3305583" lon="11.4559917"><ele>211.33333333333331</ele><time>2026-03-22T11:04:45.351Z</time></trkpt><trkpt lat="43.33043" lon="11.455855"><ele>211.0</ele><time>2026-03-22T11:04:46.351Z</time></trkpt><trkpt lat="43.3303017" lon="11.4557267"><ele>211.0</ele><time>2026-03-22T11:04:47.35Z</time></trkpt><trkpt lat="43.330165" lon="11.4555917"><ele>211.0</ele><time>2026-03-22T11:04:48.351Z</time></trkpt><trkpt lat="43.33001" lon="11.4554483"><ele>211.0</ele><time>2026-03-22T11:04:49.351Z</time></trkpt><trkpt lat="43.3298667" lon="11.4553133"><ele>211.33333333333331</ele><time>2026-03-22T11:04:50.351Z</time></trkpt><trkpt lat="43.3297383" lon="11.4551717"><ele>211.66666666666669</ele><time>2026-03-22T11:04:51.351Z</time></trkpt><trkpt lat="43.3296067" lon="11.4550233"><ele>212.0</ele><time>2026-03-22T11:04:52.35Z</time></trkpt><trkpt lat="43.3294883" lon="11.4548783"><ele>212.0</ele><time>2026-03-22T11:04:53.351Z</time></trkpt><trkpt lat="43.3293667" lon="11.4547483"><ele>212.0</ele><time>2026-03-22T11:04:54.351Z</time></trkpt><trkpt lat="43.3292417" lon="11.4546217"><ele>212.0</ele><time>2026-03-22T11:04:55.351Z</time></trkpt><trkpt lat="43.3291267" lon="11.4544983"><ele>212.2</ele><time>2026-03-22T11:04:56.351Z</time></trkpt><trkpt lat="43.329025" lon="11.45438"><ele>212.39999999999998</ele><time>2026-03-22T11:04:57.35Z</time></trkpt><trkpt lat="43.328935" lon="11.4542767"><ele>212.60000000000002</ele><time>2026-03-22T11:04:58.351Z</time></trkpt><trkpt lat="43.3288517" lon="11.454195"><ele>212.8</ele><time>2026-03-22T11:04:59.351Z</time></trkpt><trkpt lat="43.3287733" lon="11.4541383"><ele>213.0</ele><time>2026-03-22T11:05:00.351Z</time></trkpt><trkpt lat="43.3287033" lon="11.4541233"><ele>213.0</ele><time>2026-03-22T11:05:01.351Z</time></trkpt><trkpt lat="43.3286317" lon="11.454125"><ele>213.0</ele><time>2026-03-22T11:05:02.351Z</time></trkpt><trkpt lat="43.3285633" lon="11.4541517"><ele>213.0</ele><time>2026-03-22T11:05:03.35Z</time></trkpt><trkpt lat="43.3284883" lon="11.4542217"><ele>213.0</ele><time>2026-03-22T11:05:04.351Z</time></trkpt><trkpt lat="43.3284183" lon="11.4543167"><ele>213.0</ele><time>2026-03-22T11:05:05.351Z</time></trkpt><trkpt lat="43.3283383" lon="11.4544033"><ele>213.0</ele><time>2026-03-22T11:05:06.351Z</time></trkpt><trkpt lat="43.32825" lon="11.454475"><ele>213.0</ele><time>2026-03-22T11:05:07.351Z</time></trkpt><trkpt lat="43.3281633" lon="11.454515"><ele>213.0</ele><time>2026-03-22T11:05:08.351Z</time></trkpt><trkpt lat="43.3280633" lon="11.4545333"><ele>213.0</ele><time>2026-03-22T11:05:09.351Z</time></trkpt><trkpt lat="43.3279617" lon="11.4545317"><ele>213.0</ele><time>2026-03-22T11:05:10.351Z</time></trkpt><trkpt lat="43.3278683" lon="11.4545133"><ele>213.0</ele><time>2026-03-22T11:05:11.351Z</time></trkpt><trkpt lat="43.3277933" lon="11.4544717"><ele>212.0</ele><time>2026-03-22T11:05:12.351Z</time></trkpt><trkpt lat="43.3277083" lon="11.4543983"><ele>211.0</ele><time>2026-03-22T11:05:13.351Z</time></trkpt><trkpt lat="43.3276217" lon="11.454315"><ele>210.0</ele><time>2026-03-22T11:05:14.351Z</time></trkpt><trkpt lat="43.3275183" lon="11.4542017"><ele>209.0</ele><time>2026-03-22T11:05:15.351Z</time></trkpt><trkpt lat="43.32741" lon="11.45408"><ele>209.0</ele><time>2026-03-22T11:05:16.35Z</time></trkpt><trkpt lat="43.327295" lon="11.453975"><ele>209.0</ele><time>2026-03-22T11:05:17.351Z</time></trkpt><trkpt lat="43.327175" lon="11.4538583"><ele>209.0</ele><time>2026-03-22T11:05:18.351Z</time></trkpt><trkpt lat="43.32708" lon="11.45373"><ele>209.0</ele><time>2026-03-22T11:05:19.351Z</time></trkpt><trkpt lat="43.3269967" lon="11.4536083"><ele>208.39999999999998</ele><time>2026-03-22T11:05:20.35Z</time></trkpt><trkpt lat="43.3269133" lon="11.4534983"><ele>207.8</ele><time>2026-03-22T11:05:21.351Z</time></trkpt><trkpt lat="43.326845" lon="11.4534"><ele>207.2</ele><time>2026-03-22T11:05:22.35Z</time></trkpt><trkpt lat="43.326795" lon="11.4533217"><ele>206.60000000000002</ele><time>2026-03-22T11:05:23.351Z</time></trkpt><trkpt lat="43.3267417" lon="11.4532717"><ele>206.0</ele><time>2026-03-22T11:05:24.35Z</time></trkpt><trkpt lat="43.3266433" lon="11.4532417"><ele>206.0</ele><time>2026-03-22T11:05:26.351Z</time></trkpt><trkpt lat="43.3265167" lon="11.4533317"><ele>206.0</ele><time>2026-03-22T11:05:28.351Z</time></trkpt><trkpt lat="43.3264283" lon="11.4533983"><ele>206.0</ele><time>2026-03-22T11:05:29.351Z</time></trkpt><trkpt lat="43.32632" lon="11.453465"><ele>206.0</ele><time>2026-03-22T11:05:30.35Z</time></trkpt><trkpt lat="43.3262117" lon="11.45353"><ele>205.4</ele><time>2026-03-22T11:05:31.351Z</time></trkpt><trkpt lat="43.326125" lon="11.4535883"><ele>204.8</ele><time>2026-03-22T11:05:32.351Z</time></trkpt><trkpt lat="43.3260533" lon="11.4536267"><ele>204.20000000000002</ele><time>2026-03-22T11:05:33.35Z</time></trkpt><trkpt lat="43.3259617" lon="11.4536733"><ele>203.60000000000002</ele><time>2026-03-22T11:05:35.351Z</time></trkpt><trkpt lat="43.3259267" lon="11.4536"><ele>203.0</ele><time>2026-03-22T11:05:37.35Z</time></trkpt><trkpt lat="43.3259067" lon="11.453405"><ele>203.0</ele><time>2026-03-22T11:05:39.35Z</time></trkpt><trkpt lat="43.3258867" lon="11.4532633"><ele>203.0</ele><time>2026-03-22T11:05:40.351Z</time></trkpt><trkpt lat="43.3258633" lon="11.4531283"><ele>203.0</ele><time>2026-03-22T11:05:41.351Z</time></trkpt><trkpt lat="43.3258417" lon="11.4529933"><ele>203.0</ele><time>2026-03-22T11:05:42.351Z</time></trkpt><trkpt lat="43.325825" lon="11.4528517"><ele>203.0</ele><time>2026-03-22T11:05:43.351Z</time></trkpt><trkpt lat="43.3258083" lon="11.4526983"><ele>203.0</ele><time>2026-03-22T11:05:44.351Z</time></trkpt><trkpt lat="43.3258" lon="11.4525533"><ele>203.0</ele><time>2026-03-22T11:05:45.351Z</time></trkpt><trkpt lat="43.3257933" lon="11.4524117"><ele>203.0</ele><time>2026-03-22T11:05:46.35Z</time></trkpt><trkpt lat="43.325785" lon="11.4522833"><ele>203.0</ele><time>2026-03-22T11:05:47.351Z</time></trkpt><trkpt lat="43.3257617" lon="11.4521783"><ele>203.0</ele><time>2026-03-22T11:05:48.351Z</time></trkpt><trkpt lat="43.32574" lon="11.45207"><ele>203.0</ele><time>2026-03-22T11:05:49.351Z</time></trkpt><trkpt lat="43.3257467" lon="11.4519533"><ele>203.0</ele><time>2026-03-22T11:05:50.351Z</time></trkpt><trkpt lat="43.3257333" lon="11.4518283"><ele>203.0</ele><time>2026-03-22T11:05:51.35Z</time></trkpt><trkpt lat="43.32572" lon="11.4516783"><ele>203.0</ele><time>2026-03-22T11:05:52.35Z</time></trkpt><trkpt lat="43.3257067" lon="11.4515183"><ele>203.0</ele><time>2026-03-22T11:05:53.351Z</time></trkpt><trkpt lat="43.325695" lon="11.4513583"><ele>202.8</ele><time>2026-03-22T11:05:54.351Z</time></trkpt><trkpt lat="43.3256817" lon="11.4512017"><ele>202.60000000000002</ele><time>2026-03-22T11:05:55.351Z</time></trkpt><trkpt lat="43.325655" lon="11.4510617"><ele>202.39999999999998</ele><time>2026-03-22T11:05:56.35Z</time></trkpt><trkpt lat="43.32564" lon="11.4509183"><ele>202.2</ele><time>2026-03-22T11:05:57.351Z</time></trkpt><trkpt lat="43.3256217" lon="11.4507783"><ele>202.0</ele><time>2026-03-22T11:05:58.351Z</time></trkpt><trkpt lat="43.3256117" lon="11.4506483"><ele>202.0</ele><time>2026-03-22T11:05:59.351Z</time></trkpt><trkpt lat="43.325605" lon="11.45051"><ele>202.0</ele><time>2026-03-22T11:06:00.351Z</time></trkpt><trkpt lat="43.32561" lon="11.4503767"><ele>202.0</ele><time>2026-03-22T11:06:01.351Z</time></trkpt><trkpt lat="43.3256217" lon="11.4502433"><ele>202.0</ele><time>2026-03-22T11:06:02.351Z</time></trkpt><trkpt lat="43.3256567" lon="11.4501117"><ele>202.0</ele><time>2026-03-22T11:06:03.351Z</time></trkpt><trkpt lat="43.3256833" lon="11.4499933"><ele>202.0</ele><time>2026-03-22T11:06:04.351Z</time></trkpt><trkpt lat="43.3257183" lon="11.4498917"><ele>202.0</ele><time>2026-03-22T11:06:05.35Z</time></trkpt><trkpt lat="43.32577" lon="11.449795"><ele>202.0</ele><time>2026-03-22T11:06:06.351Z</time></trkpt><trkpt lat="43.3258233" lon="11.4496783"><ele>202.0</ele><time>2026-03-22T11:06:07.351Z</time></trkpt><trkpt lat="43.3258683" lon="11.44954"><ele>202.0</ele><time>2026-03-22T11:06:08.35Z</time></trkpt><trkpt lat="43.32591" lon="11.4493767"><ele>202.0</ele><time>2026-03-22T11:06:09.351Z</time></trkpt><trkpt lat="43.3259533" lon="11.4492133"><ele>202.0</ele><time>2026-03-22T11:06:10.351Z</time></trkpt><trkpt lat="43.3260017" lon="11.4490733"><ele>202.0</ele><time>2026-03-22T11:06:11.351Z</time></trkpt><trkpt lat="43.3260233" lon="11.4489433"><ele>202.0</ele><time>2026-03-22T11:06:12.351Z</time></trkpt><trkpt lat="43.32605" lon="11.44883"><ele>202.0</ele><time>2026-03-22T11:06:13.35Z</time></trkpt><trkpt lat="43.32608" lon="11.4487483"><ele>202.39999999999998</ele><time>2026-03-22T11:06:14.351Z</time></trkpt><trkpt lat="43.3261233" lon="11.4486717"><ele>202.79999999999998</ele><time>2026-03-22T11:06:15.351Z</time></trkpt><trkpt lat="43.32618" lon="11.44858"><ele>203.2</ele><time>2026-03-22T11:06:16.35Z</time></trkpt><trkpt lat="43.326245" lon="11.4484617"><ele>203.6</ele><time>2026-03-22T11:06:17.35Z</time></trkpt><trkpt lat="43.3263117" lon="11.4483217"><ele>204.0</ele><time>2026-03-22T11:06:18.351Z</time></trkpt><trkpt lat="43.3263833" lon="11.4481783"><ele>203.66666666666666</ele><time>2026-03-22T11:06:19.351Z</time></trkpt><trkpt lat="43.3264383" lon="11.4480617"><ele>203.33333333333331</ele><time>2026-03-22T11:06:20.351Z</time></trkpt><trkpt lat="43.3264867" lon="11.4479433"><ele>203.0</ele><time>2026-03-22T11:06:21.351Z</time></trkpt><trkpt lat="43.3265267" lon="11.4478467"><ele>202.66666666666666</ele><time>2026-03-22T11:06:22.351Z</time></trkpt><trkpt lat="43.3265667" lon="11.4477533"><ele>202.33333333333331</ele><time>2026-03-22T11:06:23.351Z</time></trkpt><trkpt lat="43.32659" lon="11.447645"><ele>202.0</ele><time>2026-03-22T11:06:24.351Z</time></trkpt><trkpt lat="43.3266033" lon="11.4475283"><ele>201.99999999999997</ele><time>2026-03-22T11:06:25.351Z</time></trkpt><trkpt lat="43.3266033" lon="11.4474117"><ele>202.0</ele><time>2026-03-22T11:06:26.351Z</time></trkpt><trkpt lat="43.3265867" lon="11.4472783"><ele>202.0</ele><time>2026-03-22T11:06:27.352Z</time></trkpt><trkpt lat="43.3265783" lon="11.4471517"><ele>202.0</ele><time>2026-03-22T11:06:28.352Z</time></trkpt><trkpt lat="43.32657" lon="11.4470417"><ele>201.99999999999997</ele><time>2026-03-22T11:06:29.351Z</time></trkpt><trkpt lat="43.326575" lon="11.4469317"><ele>202.0</ele><time>2026-03-22T11:06:30.352Z</time></trkpt><trkpt lat="43.3265883" lon="11.4468317"><ele>201.99999999999997</ele><time>2026-03-22T11:06:31.352Z</time></trkpt><trkpt lat="43.3266133" lon="11.4467433"><ele>202.0</ele><time>2026-03-22T11:06:32.352Z</time></trkpt><trkpt lat="43.326645" lon="11.4465983"><ele>202.0</ele><time>2026-03-22T11:06:34.351Z</time></trkpt><trkpt lat="43.3266817" lon="11.4465033"><ele>202.0</ele><time>2026-03-22T11:06:36.352Z</time></trkpt><trkpt lat="43.32669" lon="11.4464133"><ele>201.99999999999997</ele><time>2026-03-22T11:06:38.352Z</time></trkpt><trkpt lat="43.3266767" lon="11.4462867"><ele>202.0</ele><time>2026-03-22T11:06:40.351Z</time></trkpt><trkpt lat="43.3266633" lon="11.4461933"><ele>202.0</ele><time>2026-03-22T11:06:41.352Z</time></trkpt><trkpt lat="43.326655" lon="11.4460717"><ele>202.0</ele><time>2026-03-22T11:06:42.351Z</time></trkpt><trkpt lat="43.3266483" lon="11.4459417"><ele>202.0</ele><time>2026-03-22T11:06:43.352Z</time></trkpt><trkpt lat="43.3266383" lon="11.4458017"><ele>202.0</ele><time>2026-03-22T11:06:44.352Z</time></trkpt><trkpt lat="43.3266367" lon="11.4456733"><ele>202.0</ele><time>2026-03-22T11:06:45.352Z</time></trkpt><trkpt lat="43.326625" lon="11.445555"><ele>201.99999999999997</ele><time>2026-03-22T11:06:46.352Z</time></trkpt><trkpt lat="43.3266033" lon="11.4454683"><ele>202.0</ele><time>2026-03-22T11:06:47.352Z</time></trkpt><trkpt lat="43.326575" lon="11.44539"><ele>202.0</ele><time>2026-03-22T11:06:48.352Z</time></trkpt><trkpt lat="43.3265433" lon="11.4452917"><ele>202.0</ele><time>2026-03-22T11:06:50.352Z</time></trkpt><trkpt lat="43.32656" lon="11.4451917"><ele>201.99999999999997</ele><time>2026-03-22T11:06:59.352Z</time></trkpt><trkpt lat="43.326645" lon="11.4452"><ele>202.0</ele><time>2026-03-22T11:07:02.352Z</time></trkpt><trkpt lat="43.3267733" lon="11.445205"><ele>201.39999999999998</ele><time>2026-03-22T11:07:04.352Z</time></trkpt><trkpt lat="43.3268567" lon="11.4451717"><ele>200.79999999999998</ele><time>2026-03-22T11:07:05.351Z</time></trkpt><trkpt lat="43.3269367" lon="11.4451167"><ele>200.2</ele><time>2026-03-22T11:07:06.352Z</time></trkpt><trkpt lat="43.3270367" lon="11.4450483"><ele>199.6</ele><time>2026-03-22T11:07:07.352Z</time></trkpt><trkpt lat="43.3271367" lon="11.444985"><ele>199.0</ele><time>2026-03-22T11:07:08.352Z</time></trkpt><trkpt lat="43.3272133" lon="11.4449283"><ele>199.0</ele><time>2026-03-22T11:07:09.351Z</time></trkpt><trkpt lat="43.3272767" lon="11.44488"><ele>199.0</ele><time>2026-03-22T11:07:11.351Z</time></trkpt><trkpt lat="43.327355" lon="11.4448233"><ele>199.0</ele><time>2026-03-22T11:07:37.351Z</time></trkpt><trkpt lat="43.327475" lon="11.4447267"><ele>199.0</ele><time>2026-03-22T11:07:39.351Z</time></trkpt><trkpt lat="43.3275517" lon="11.4446667"><ele>199.0</ele><time>2026-03-22T11:07:40.351Z</time></trkpt><trkpt lat="43.3276233" lon="11.4446217"><ele>198.99999999999997</ele><time>2026-03-22T11:07:41.352Z</time></trkpt><trkpt lat="43.32772" lon="11.4445367"><ele>199.0</ele><time>2026-03-22T11:07:43.352Z</time></trkpt><trkpt lat="43.3277617" lon="11.444465"><ele>199.0</ele><time>2026-03-22T11:07:45.352Z</time></trkpt><trkpt lat="43.32773" lon="11.444385"><ele>199.0</ele><time>2026-03-22T11:07:48.352Z</time></trkpt><trkpt lat="43.327685" lon="11.444495"><ele>198.99999999999997</ele><time>2026-03-22T11:07:51.351Z</time></trkpt><trkpt lat="43.3276417" lon="11.4445883"><ele>199.0</ele><time>2026-03-22T11:07:53.351Z</time></trkpt><trkpt lat="43.32753" lon="11.444665"><ele>199.0</ele><time>2026-03-22T11:07:55.352Z</time></trkpt><trkpt lat="43.3274517" lon="11.4447267"><ele>199.0</ele><time>2026-03-22T11:07:56.351Z</time></trkpt><trkpt lat="43.3273583" lon="11.44479"><ele>199.0</ele><time>2026-03-22T11:07:57.352Z</time></trkpt><trkpt lat="43.3272617" lon="11.4448617"><ele>199.0</ele><time>2026-03-22T11:07:58.352Z</time></trkpt><trkpt lat="43.327165" lon="11.4449383"><ele>199.0</ele><time>2026-03-22T11:07:59.352Z</time></trkpt><trkpt lat="43.32706" lon="11.445005"><ele>198.99999999999997</ele><time>2026-03-22T11:08:00.352Z</time></trkpt><trkpt lat="43.326965" lon="11.445085"><ele>199.0</ele><time>2026-03-22T11:08:01.352Z</time></trkpt><trkpt lat="43.3268767" lon="11.445145"><ele>199.0</ele><time>2026-03-22T11:08:02.352Z</time></trkpt><trkpt lat="43.326795" lon="11.44519"><ele>199.0</ele><time>2026-03-22T11:08:03.352Z</time></trkpt><trkpt lat="43.3267317" lon="11.4452117"><ele>198.99999999999997</ele><time>2026-03-22T11:08:04.352Z</time></trkpt><trkpt lat="43.3266483" lon="11.445225"><ele>199.0</ele><time>2026-03-22T11:08:06.351Z</time></trkpt><trkpt lat="43.3265883" lon="11.445185"><ele>199.0</ele><time>2026-03-22T11:08:09.352Z</time></trkpt><trkpt lat="43.3265333" lon="11.4452583"><ele>199.0</ele><time>2026-03-22T11:08:14.352Z</time></trkpt><trkpt lat="43.3265417" lon="11.44537"><ele>199.0</ele><time>2026-03-22T11:08:16.352Z</time></trkpt><trkpt lat="43.3265733" lon="11.4455083"><ele>199.0</ele><time>2026-03-22T11:08:18.352Z</time></trkpt><trkpt lat="43.3266033" lon="11.445655"><ele>199.0</ele><time>2026-03-22T11:08:20.352Z</time></trkpt><trkpt lat="43.32662" lon="11.445805"><ele>199.6</ele><time>2026-03-22T11:08:22.351Z</time></trkpt><trkpt lat="43.3266317" lon="11.445945"><ele>200.2</ele><time>2026-03-22T11:08:24.352Z</time></trkpt><trkpt lat="43.3266317" lon="11.4460917"><ele>200.79999999999998</ele><time>2026-03-22T11:08:26.351Z</time></trkpt><trkpt lat="43.3266367" lon="11.44618"><ele>201.39999999999998</ele><time>2026-03-22T11:08:27.352Z</time></trkpt><trkpt lat="43.326655" lon="11.4463233"><ele>202.0</ele><time>2026-03-22T11:08:29.352Z</time></trkpt><trkpt lat="43.3266733" lon="11.4464167"><ele>202.2</ele><time>2026-03-22T11:08:31.352Z</time></trkpt><trkpt lat="43.3266783" lon="11.44651"><ele>202.39999999999998</ele><time>2026-03-22T11:08:33.352Z</time></trkpt><trkpt lat="43.3266567" lon="11.4466517"><ele>202.60000000000002</ele><time>2026-03-22T11:08:36.351Z</time></trkpt><trkpt lat="43.326625" lon="11.44677"><ele>202.8</ele><time>2026-03-22T11:08:38.352Z</time></trkpt><trkpt lat="43.3266" lon="11.4468717"><ele>203.0</ele><time>2026-03-22T11:08:40.352Z</time></trkpt><trkpt lat="43.326575" lon="11.4470383"><ele>202.83333333333334</ele><time>2026-03-22T11:08:42.352Z</time></trkpt><trkpt lat="43.3265717" lon="11.4471383"><ele>202.66666666666669</ele><time>2026-03-22T11:08:43.352Z</time></trkpt><trkpt lat="43.32658" lon="11.4472367"><ele>202.5</ele><time>2026-03-22T11:08:44.352Z</time></trkpt><trkpt lat="43.3265867" lon="11.4473317"><ele>202.33333333333331</ele><time>2026-03-22T11:08:45.351Z</time></trkpt><trkpt lat="43.3265983" lon="11.4474217"><ele>202.16666666666666</ele><time>2026-03-22T11:08:46.352Z</time></trkpt><trkpt lat="43.3266133" lon="11.44758"><ele>202.0</ele><time>2026-03-22T11:08:48.352Z</time></trkpt><trkpt lat="43.3266067" lon="11.4476917"><ele>201.99999999999997</ele><time>2026-03-22T11:08:50.352Z</time></trkpt><trkpt lat="43.3265783" lon="11.44778"><ele>202.0</ele><time>2026-03-22T11:08:52.352Z</time></trkpt><trkpt lat="43.3265367" lon="11.44788"><ele>202.0</ele><time>2026-03-22T11:08:54.352Z</time></trkpt><trkpt lat="43.3265" lon="11.44796"><ele>202.0</ele><time>2026-03-22T11:08:56.352Z</time></trkpt><trkpt lat="43.3264483" lon="11.4480767"><ele>201.99999999999997</ele><time>2026-03-22T11:08:58.352Z</time></trkpt><trkpt lat="43.3264183" lon="11.4481533"><ele>202.0</ele><time>2026-03-22T11:08:59.352Z</time></trkpt><trkpt lat="43.3263717" lon="11.4482467"><ele>202.39999999999998</ele><time>2026-03-22T11:09:00.351Z</time></trkpt><trkpt lat="43.3262983" lon="11.4483733"><ele>202.79999999999998</ele><time>2026-03-22T11:09:01.352Z</time></trkpt><trkpt lat="43.3262317" lon="11.448485"><ele>203.2</ele><time>2026-03-22T11:09:02.351Z</time></trkpt><trkpt lat="43.3261767" lon="11.4485867"><ele>203.6</ele><time>2026-03-22T11:09:03.352Z</time></trkpt><trkpt lat="43.326135" lon="11.4486767"><ele>204.0</ele><time>2026-03-22T11:09:04.352Z</time></trkpt><trkpt lat="43.3260883" lon="11.4487583"><ele>203.66666666666666</ele><time>2026-03-22T11:09:05.352Z</time></trkpt><trkpt lat="43.3260417" lon="11.44888"><ele>203.33333333333331</ele><time>2026-03-22T11:09:07.352Z</time></trkpt><trkpt lat="43.32601" lon="11.4489633"><ele>203.0</ele><time>2026-03-22T11:09:48.352Z</time></trkpt><trkpt lat="43.32599" lon="11.4490933"><ele>202.66666666666666</ele><time>2026-03-22T11:09:51.352Z</time></trkpt><trkpt lat="43.3259617" lon="11.4491717"><ele>202.33333333333331</ele><time>2026-03-22T11:09:53.352Z</time></trkpt><trkpt lat="43.3259333" lon="11.4492717"><ele>202.0</ele><time>2026-03-22T11:09:55.352Z</time></trkpt><trkpt lat="43.325905" lon="11.4494033"><ele>202.0</ele><time>2026-03-22T11:09:57.351Z</time></trkpt><trkpt lat="43.32588" lon="11.4495133"><ele>202.0</ele><time>2026-03-22T11:09:59.351Z</time></trkpt><trkpt lat="43.3258433" lon="11.4496583"><ele>202.0</ele><time>2026-03-22T11:10:01.352Z</time></trkpt><trkpt lat="43.3258083" lon="11.4497717"><ele>202.0</ele><time>2026-03-22T11:10:03.352Z</time></trkpt><trkpt lat="43.3258467" lon="11.4496533"><ele>202.0</ele><time>2026-03-22T11:10:12.352Z</time></trkpt><trkpt lat="43.3258833" lon="11.4494817"><ele>201.99999999999997</ele><time>2026-03-22T11:10:14.352Z</time></trkpt><trkpt lat="43.3258983" lon="11.4493817"><ele>202.0</ele><time>2026-03-22T11:10:15.351Z</time></trkpt><trkpt lat="43.3259233" lon="11.4492767"><ele>202.0</ele><time>2026-03-22T11:10:16.352Z</time></trkpt><trkpt lat="43.3259567" lon="11.4491617"><ele>202.0</ele><time>2026-03-22T11:10:17.351Z</time></trkpt><trkpt lat="43.32599" lon="11.449055"><ele>201.99999999999997</ele><time>2026-03-22T11:10:18.352Z</time></trkpt><trkpt lat="43.3260117" lon="11.4489567"><ele>202.0</ele><time>2026-03-22T11:10:19.352Z</time></trkpt><trkpt lat="43.3260567" lon="11.4487917"><ele>202.39999999999998</ele><time>2026-03-22T11:10:21.352Z</time></trkpt><trkpt lat="43.3261383" lon="11.4486517"><ele>202.79999999999998</ele><time>2026-03-22T11:10:23.352Z</time></trkpt><trkpt lat="43.3261867" lon="11.4485667"><ele>203.2</ele><time>2026-03-22T11:10:24.351Z</time></trkpt><trkpt lat="43.3262417" lon="11.448465"><ele>203.6</ele><time>2026-03-22T11:10:25.352Z</time></trkpt><trkpt lat="43.326295" lon="11.44835"><ele>204.0</ele><time>2026-03-22T11:10:26.352Z</time></trkpt><trkpt lat="43.3263533" lon="11.448235"><ele>203.6</ele><time>2026-03-22T11:10:27.351Z</time></trkpt><trkpt lat="43.3264083" lon="11.448135"><ele>203.2</ele><time>2026-03-22T11:10:28.352Z</time></trkpt><trkpt lat="43.32644" lon="11.4480417"><ele>202.79999999999998</ele><time>2026-03-22T11:10:29.352Z</time></trkpt><trkpt lat="43.3264717" lon="11.4479533"><ele>202.39999999999998</ele><time>2026-03-22T11:10:30.352Z</time></trkpt><trkpt lat="43.32653" lon="11.447805"><ele>202.0</ele><time>2026-03-22T11:10:32.351Z</time></trkpt><trkpt lat="43.3265667" lon="11.4476367"><ele>202.0</ele><time>2026-03-22T11:10:34.352Z</time></trkpt><trkpt lat="43.3265883" lon="11.4474983"><ele>202.0</ele><time>2026-03-22T11:10:36.352Z</time></trkpt><trkpt lat="43.3265817" lon="11.447375"><ele>202.0</ele><time>2026-03-22T11:10:39.352Z</time></trkpt><trkpt lat="43.326575" lon="11.4472617"><ele>202.0</ele><time>2026-03-22T11:10:41.352Z</time></trkpt><trkpt lat="43.32656" lon="11.4470983"><ele>202.0</ele><time>2026-03-22T11:10:43.352Z</time></trkpt><trkpt lat="43.3265583" lon="11.4470117"><ele>202.2</ele><time>2026-03-22T11:10:44.352Z</time></trkpt><trkpt lat="43.326555" lon="11.44692"><ele>202.39999999999998</ele><time>2026-03-22T11:10:45.352Z</time></trkpt><trkpt lat="43.3265767" lon="11.4467583"><ele>202.60000000000002</ele><time>2026-03-22T11:10:47.352Z</time></trkpt><trkpt lat="43.326625" lon="11.4466017"><ele>202.8</ele><time>2026-03-22T11:10:49.352Z</time></trkpt><trkpt lat="43.326675" lon="11.44649"><ele>203.0</ele><time>2026-03-22T11:10:51.352Z</time></trkpt><trkpt lat="43.3266883" lon="11.446385"><ele>202.83333333333334</ele><time>2026-03-22T11:10:53.351Z</time></trkpt><trkpt lat="43.3266667" lon="11.4462617"><ele>202.66666666666669</ele><time>2026-03-22T11:10:55.351Z</time></trkpt><trkpt lat="43.3266567" lon="11.4461733"><ele>202.5</ele><time>2026-03-22T11:10:56.352Z</time></trkpt><trkpt lat="43.3266533" lon="11.4460633"><ele>202.33333333333331</ele><time>2026-03-22T11:10:57.351Z</time></trkpt><trkpt lat="43.32665" lon="11.44595"><ele>202.16666666666666</ele><time>2026-03-22T11:10:58.352Z</time></trkpt><trkpt lat="43.3266433" lon="11.445835"><ele>202.0</ele><time>2026-03-22T11:10:59.352Z</time></trkpt><trkpt lat="43.32664" lon="11.4457283"><ele>202.0</ele><time>2026-03-22T11:11:00.352Z</time></trkpt><trkpt lat="43.3266233" lon="11.445625"><ele>202.0</ele><time>2026-03-22T11:11:01.352Z</time></trkpt><trkpt lat="43.3266117" lon="11.4455317"><ele>202.0</ele><time>2026-03-22T11:11:02.352Z</time></trkpt><trkpt lat="43.3265817" lon="11.445395"><ele>202.0</ele><time>2026-03-22T11:11:04.352Z</time></trkpt><trkpt lat="43.32656" lon="11.4453117"><ele>202.0</ele><time>2026-03-22T11:11:06.352Z</time></trkpt><trkpt lat="43.3265267" lon="11.4452333"><ele>202.0</ele><time>2026-03-22T11:12:15.352Z</time></trkpt><trkpt lat="43.3265133" lon="11.445145"><ele>202.0</ele><time>2026-03-22T11:12:18.352Z</time></trkpt><trkpt lat="43.3264617" lon="11.445065"><ele>201.49999999999997</ele><time>2026-03-22T11:12:22.352Z</time></trkpt><trkpt lat="43.3264" lon="11.4450167"><ele>201.0</ele><time>2026-03-22T11:12:25.351Z</time></trkpt><trkpt lat="43.3263217" lon="11.444965"><ele>200.5</ele><time>2026-03-22T11:12:59.352Z</time></trkpt><trkpt lat="43.3262533" lon="11.4449783"><ele>200.0</ele><time>2026-03-22T11:13:02.351Z</time></trkpt><trkpt lat="43.3262633" lon="11.4451"><ele>199.49999999999997</ele><time>2026-03-22T11:13:05.352Z</time></trkpt><trkpt lat="43.326315" lon="11.445205"><ele>199.0</ele><time>2026-03-22T11:13:07.351Z</time></trkpt><trkpt lat="43.3263417" lon="11.445285"><ele>199.6</ele><time>2026-03-22T11:13:09.351Z</time></trkpt><trkpt lat="43.32635" lon="11.4453783"><ele>200.2</ele><time>2026-03-22T11:13:11.352Z</time></trkpt><trkpt lat="43.32637" lon="11.4454883"><ele>200.79999999999998</ele><time>2026-03-22T11:13:13.351Z</time></trkpt><trkpt lat="43.3263983" lon="11.4455883"><ele>201.39999999999998</ele><time>2026-03-22T11:13:16.351Z</time></trkpt><trkpt lat="43.3264383" lon="11.445735"><ele>202.0</ele><time>2026-03-22T11:13:25.351Z</time></trkpt><trkpt lat="43.3264517" lon="11.445905"><ele>201.99999999999997</ele><time>2026-03-22T11:13:27.352Z</time></trkpt><trkpt lat="43.3264467" lon="11.446"><ele>202.0</ele><time>2026-03-22T11:13:28.352Z</time></trkpt><trkpt lat="43.3264383" lon="11.4460967"><ele>202.0</ele><time>2026-03-22T11:13:29.352Z</time></trkpt><trkpt lat="43.326425" lon="11.4461967"><ele>202.0</ele><time>2026-03-22T11:13:30.352Z</time></trkpt><trkpt lat="43.3264217" lon="11.4462917"><ele>201.99999999999997</ele><time>2026-03-22T11:13:31.352Z</time></trkpt><trkpt lat="43.32639" lon="11.4464033"><ele>202.0</ele><time>2026-03-22T11:13:33.352Z</time></trkpt><trkpt lat="43.3263083" lon="11.446415"><ele>204.83333333333331</ele><time>2026-03-22T11:13:36.352Z</time></trkpt><trkpt lat="43.3262483" lon="11.4463283"><ele>207.66666666666666</ele><time>2026-03-22T11:13:38.352Z</time></trkpt><trkpt lat="43.3262" lon="11.44618"><ele>210.5</ele><time>2026-03-22T11:13:40.351Z</time></trkpt><trkpt lat="43.3261883" lon="11.4460833"><ele>213.33333333333331</ele><time>2026-03-22T11:13:41.352Z</time></trkpt><trkpt lat="43.3261717" lon="11.4459767"><ele>216.16666666666666</ele><time>2026-03-22T11:13:42.352Z</time></trkpt><trkpt lat="43.326155" lon="11.4458833"><ele>219.0</ele><time>2026-03-22T11:13:43.352Z</time></trkpt><trkpt lat="43.3261133" lon="11.4457767"><ele>218.66666666666666</ele><time>2026-03-22T11:13:45.351Z</time></trkpt><trkpt lat="43.3260483" lon="11.44571"><ele>218.33333333333331</ele><time>2026-03-22T11:13:48.351Z</time></trkpt><trkpt lat="43.32597" lon="11.4456783"><ele>218.0</ele><time>2026-03-22T11:13:50.352Z</time></trkpt><trkpt lat="43.3258683" lon="11.4455917"><ele>217.66666666666666</ele><time>2026-03-22T11:13:52.352Z</time></trkpt><trkpt lat="43.3258133" lon="11.445525"><ele>217.33333333333331</ele><time>2026-03-22T11:13:53.352Z</time></trkpt><trkpt lat="43.3257617" lon="11.4454617"><ele>217.0</ele><time>2026-03-22T11:13:54.351Z</time></trkpt><trkpt lat="43.325705" lon="11.4454017"><ele>216.99999999999997</ele><time>2026-03-22T11:13:55.351Z</time></trkpt><trkpt lat="43.3256433" lon="11.4453467"><ele>217.0</ele><time>2026-03-22T11:13:56.351Z</time></trkpt><trkpt lat="43.3255783" lon="11.4452883"><ele>217.0</ele><time>2026-03-22T11:13:57.352Z</time></trkpt><trkpt lat="43.325515" lon="11.4452417"><ele>217.0</ele><time>2026-03-22T11:13:58.352Z</time></trkpt><trkpt lat="43.3253967" lon="11.4452117"><ele>216.99999999999997</ele><time>2026-03-22T11:14:00.352Z</time></trkpt><trkpt lat="43.3253183" lon="11.445225"><ele>217.0</ele><time>2026-03-22T11:14:01.352Z</time></trkpt><trkpt lat="43.325215" lon="11.44525"><ele>220.0</ele><time>2026-03-22T11:14:02.352Z</time></trkpt><trkpt lat="43.325105" lon="11.4452717"><ele>223.0</ele><time>2026-03-22T11:14:03.351Z</time></trkpt><trkpt lat="43.32498" lon="11.44529"><ele>226.0</ele><time>2026-03-22T11:14:04.351Z</time></trkpt><trkpt lat="43.3248533" lon="11.4453083"><ele>229.0</ele><time>2026-03-22T11:14:05.352Z</time></trkpt><trkpt lat="43.3247233" lon="11.4453417"><ele>231.0</ele><time>2026-03-22T11:14:06.351Z</time></trkpt><trkpt lat="43.32459" lon="11.4454017"><ele>233.0</ele><time>2026-03-22T11:14:07.352Z</time></trkpt><trkpt lat="43.3244667" lon="11.4454483"><ele>235.0</ele><time>2026-03-22T11:14:08.351Z</time></trkpt><trkpt lat="43.3243433" lon="11.4454967"><ele>237.0</ele><time>2026-03-22T11:14:09.352Z</time></trkpt><trkpt lat="43.324235" lon="11.4455367"><ele>237.0</ele><time>2026-03-22T11:14:10.352Z</time></trkpt><trkpt lat="43.3241367" lon="11.4455617"><ele>237.0</ele><time>2026-03-22T11:14:11.352Z</time></trkpt><trkpt lat="43.3240567" lon="11.4455783"><ele>237.0</ele><time>2026-03-22T11:14:12.352Z</time></trkpt><trkpt lat="43.3239817" lon="11.4455683"><ele>237.0</ele><time>2026-03-22T11:14:14.352Z</time></trkpt><trkpt lat="43.323905" lon="11.4455683"><ele>237.0</ele><time>2026-03-22T11:14:16.352Z</time></trkpt><trkpt lat="43.32379" lon="11.4455783"><ele>237.0</ele><time>2026-03-22T11:14:18.351Z</time></trkpt><trkpt lat="43.3237217" lon="11.445555"><ele>236.83333333333334</ele><time>2026-03-22T11:14:19.351Z</time></trkpt><trkpt lat="43.3236517" lon="11.445515"><ele>236.66666666666669</ele><time>2026-03-22T11:14:20.352Z</time></trkpt><trkpt lat="43.3235817" lon="11.4454667"><ele>236.5</ele><time>2026-03-22T11:14:21.352Z</time></trkpt><trkpt lat="43.3235167" lon="11.4453967"><ele>236.33333333333334</ele><time>2026-03-22T11:14:22.352Z</time></trkpt><trkpt lat="43.323465" lon="11.44533"><ele>236.16666666666669</ele><time>2026-03-22T11:14:23.352Z</time></trkpt><trkpt lat="43.3233783" lon="11.4452717"><ele>236.0</ele><time>2026-03-22T11:14:25.352Z</time></trkpt><trkpt lat="43.3232667" lon="11.4452383"><ele>235.66666666666669</ele><time>2026-03-22T11:14:27.352Z</time></trkpt><trkpt lat="43.3232017" lon="11.445215"><ele>235.33333333333334</ele><time>2026-03-22T11:14:28.351Z</time></trkpt><trkpt lat="43.323125" lon="11.44521"><ele>235.0</ele><time>2026-03-22T11:14:29.353Z</time></trkpt><trkpt lat="43.3230367" lon="11.4452033"><ele>234.66666666666669</ele><time>2026-03-22T11:14:30.353Z</time></trkpt><trkpt lat="43.322955" lon="11.4451767"><ele>234.33333333333334</ele><time>2026-03-22T11:14:31.353Z</time></trkpt><trkpt lat="43.3228867" lon="11.4451433"><ele>234.0</ele><time>2026-03-22T11:14:32.352Z</time></trkpt><trkpt lat="43.3228233" lon="11.445115"><ele>234.0</ele><time>2026-03-22T11:14:33.353Z</time></trkpt><trkpt lat="43.3226983" lon="11.4451"><ele>233.99999999999997</ele><time>2026-03-22T11:14:35.353Z</time></trkpt><trkpt lat="43.3225767" lon="11.4450833"><ele>233.99999999999997</ele><time>2026-03-22T11:14:37.353Z</time></trkpt><trkpt lat="43.32251" lon="11.445075"><ele>234.0</ele><time>2026-03-22T11:14:38.353Z</time></trkpt><trkpt lat="43.3224083" lon="11.4450383"><ele>234.0</ele><time>2026-03-22T11:14:40.352Z</time></trkpt><trkpt lat="43.3223633" lon="11.444935"><ele>234.0</ele><time>2026-03-22T11:14:42.353Z</time></trkpt><trkpt lat="43.3223617" lon="11.4447767"><ele>234.0</ele><time>2026-03-22T11:14:44.353Z</time></trkpt><trkpt lat="43.32237" lon="11.4446767"><ele>234.0</ele><time>2026-03-22T11:14:45.352Z</time></trkpt><trkpt lat="43.3223867" lon="11.4445783"><ele>234.0</ele><time>2026-03-22T11:14:46.353Z</time></trkpt><trkpt lat="43.32241" lon="11.4444933"><ele>234.0</ele><time>2026-03-22T11:14:47.353Z</time></trkpt><trkpt lat="43.322475" lon="11.4444083"><ele>234.0</ele><time>2026-03-22T11:14:49.353Z</time></trkpt><trkpt lat="43.322595" lon="11.4443917"><ele>234.39999999999998</ele><time>2026-03-22T11:14:51.352Z</time></trkpt><trkpt lat="43.3226817" lon="11.4443883"><ele>234.79999999999998</ele><time>2026-03-22T11:14:52.353Z</time></trkpt><trkpt lat="43.3227717" lon="11.444385"><ele>235.20000000000002</ele><time>2026-03-22T11:14:53.353Z</time></trkpt><trkpt lat="43.322865" lon="11.4443533"><ele>235.60000000000002</ele><time>2026-03-22T11:14:54.353Z</time></trkpt><trkpt lat="43.32296" lon="11.444295"><ele>236.0</ele><time>2026-03-22T11:14:55.352Z</time></trkpt><trkpt lat="43.32305" lon="11.4442233"><ele>235.33333333333334</ele><time>2026-03-22T11:14:56.353Z</time></trkpt><trkpt lat="43.3231133" lon="11.4441433"><ele>234.66666666666669</ele><time>2026-03-22T11:14:57.353Z</time></trkpt><trkpt lat="43.3231617" lon="11.44405"><ele>234.0</ele><time>2026-03-22T11:14:58.352Z</time></trkpt><trkpt lat="43.3231933" lon="11.443935"><ele>233.33333333333331</ele><time>2026-03-22T11:14:59.353Z</time></trkpt><trkpt lat="43.3232117" lon="11.44381"><ele>232.66666666666666</ele><time>2026-03-22T11:15:00.353Z</time></trkpt><trkpt lat="43.32323" lon="11.4436833"><ele>232.0</ele><time>2026-03-22T11:15:01.353Z</time></trkpt><trkpt lat="43.3232483" lon="11.443555"><ele>232.0</ele><time>2026-03-22T11:15:02.353Z</time></trkpt><trkpt lat="43.3232867" lon="11.4434517"><ele>232.0</ele><time>2026-03-22T11:15:03.353Z</time></trkpt><trkpt lat="43.3233233" lon="11.4433683"><ele>232.0</ele><time>2026-03-22T11:15:04.352Z</time></trkpt><trkpt lat="43.3234067" lon="11.4432767"><ele>232.0</ele><time>2026-03-22T11:15:06.353Z</time></trkpt><trkpt lat="43.3235167" lon="11.4431917"><ele>232.0</ele><time>2026-03-22T11:15:08.353Z</time></trkpt><trkpt lat="43.3235817" lon="11.443145"><ele>232.0</ele><time>2026-03-22T11:15:09.352Z</time></trkpt><trkpt lat="43.3236617" lon="11.443085"><ele>232.0</ele><time>2026-03-22T11:15:10.353Z</time></trkpt><trkpt lat="43.323745" lon="11.4430383"><ele>232.0</ele><time>2026-03-22T11:15:11.353Z</time></trkpt><trkpt lat="43.3238383" lon="11.4430033"><ele>232.0</ele><time>2026-03-22T11:15:12.353Z</time></trkpt><trkpt lat="43.32393" lon="11.442975"><ele>232.0</ele><time>2026-03-22T11:15:13.353Z</time></trkpt><trkpt lat="43.32401" lon="11.4429417"><ele>230.16666666666666</ele><time>2026-03-22T11:15:14.353Z</time></trkpt><trkpt lat="43.3240767" lon="11.442885"><ele>228.33333333333331</ele><time>2026-03-22T11:15:15.353Z</time></trkpt><trkpt lat="43.324135" lon="11.4428067"><ele>226.5</ele><time>2026-03-22T11:15:16.353Z</time></trkpt><trkpt lat="43.3241767" lon="11.4427083"><ele>224.66666666666669</ele><time>2026-03-22T11:15:17.353Z</time></trkpt><trkpt lat="43.324215" lon="11.44259"><ele>222.83333333333334</ele><time>2026-03-22T11:15:18.353Z</time></trkpt><trkpt lat="43.324235" lon="11.44246"><ele>221.0</ele><time>2026-03-22T11:15:19.352Z</time></trkpt><trkpt lat="43.3242517" lon="11.4423217"><ele>221.0</ele><time>2026-03-22T11:15:20.353Z</time></trkpt><trkpt lat="43.32427" lon="11.4421733"><ele>221.0</ele><time>2026-03-22T11:15:21.353Z</time></trkpt><trkpt lat="43.3242717" lon="11.4420083"><ele>221.0</ele><time>2026-03-22T11:15:22.353Z</time></trkpt><trkpt lat="43.324265" lon="11.4418383"><ele>221.0</ele><time>2026-03-22T11:15:23.352Z</time></trkpt><trkpt lat="43.3242517" lon="11.4416633"><ele>219.25</ele><time>2026-03-22T11:15:24.353Z</time></trkpt><trkpt lat="43.3242633" lon="11.4414783"><ele>217.5</ele><time>2026-03-22T11:15:25.353Z</time></trkpt><trkpt lat="43.3242817" lon="11.4413033"><ele>215.75</ele><time>2026-03-22T11:15:26.353Z</time></trkpt><trkpt lat="43.3243" lon="11.441135"><ele>214.0</ele><time>2026-03-22T11:15:27.353Z</time></trkpt><trkpt lat="43.3243467" lon="11.4409733"><ele>211.75</ele><time>2026-03-22T11:15:28.353Z</time></trkpt><trkpt lat="43.324405" lon="11.4408233"><ele>209.5</ele><time>2026-03-22T11:15:29.353Z</time></trkpt><trkpt lat="43.3244817" lon="11.4406467"><ele>207.25</ele><time>2026-03-22T11:15:30.352Z</time></trkpt><trkpt lat="43.3245533" lon="11.44046"><ele>205.0</ele><time>2026-03-22T11:15:31.352Z</time></trkpt><trkpt lat="43.3246183" lon="11.4402667"><ele>202.66666666666666</ele><time>2026-03-22T11:15:32.352Z</time></trkpt><trkpt lat="43.32469" lon="11.4400667"><ele>200.33333333333331</ele><time>2026-03-22T11:15:33.353Z</time></trkpt><trkpt lat="43.324755" lon="11.4398483"><ele>198.0</ele><time>2026-03-22T11:15:34.352Z</time></trkpt><trkpt lat="43.3248083" lon="11.4396517"><ele>198.0</ele><time>2026-03-22T11:15:35.353Z</time></trkpt><trkpt lat="43.3248683" lon="11.439435"><ele>198.0</ele><time>2026-03-22T11:15:36.353Z</time></trkpt><trkpt lat="43.3249067" lon="11.4392133"><ele>198.0</ele><time>2026-03-22T11:15:37.353Z</time></trkpt><trkpt lat="43.324935" lon="11.4390017"><ele>198.33333333333331</ele><time>2026-03-22T11:15:38.352Z</time></trkpt><trkpt lat="43.3249433" lon="11.43879"><ele>198.66666666666666</ele><time>2026-03-22T11:15:39.353Z</time></trkpt><trkpt lat="43.324935" lon="11.4385667"><ele>199.0</ele><time>2026-03-22T11:15:40.353Z</time></trkpt><trkpt lat="43.32492" lon="11.43835"><ele>199.0</ele><time>2026-03-22T11:15:41.353Z</time></trkpt><trkpt lat="43.3248917" lon="11.4381717"><ele>199.0</ele><time>2026-03-22T11:15:42.353Z</time></trkpt><trkpt lat="43.3248833" lon="11.4380383"><ele>199.0</ele><time>2026-03-22T11:15:43.353Z</time></trkpt><trkpt lat="43.3248733" lon="11.4379317"><ele>199.0</ele><time>2026-03-22T11:15:44.353Z</time></trkpt><trkpt lat="43.3248583" lon="11.437785"><ele>199.0</ele><time>2026-03-22T11:15:46.353Z</time></trkpt><trkpt lat="43.32485" lon="11.437665"><ele>198.99999999999997</ele><time>2026-03-22T11:15:48.353Z</time></trkpt><trkpt lat="43.3248733" lon="11.4375633"><ele>199.0</ele><time>2026-03-22T11:15:50.353Z</time></trkpt><trkpt lat="43.3248383" lon="11.43768"><ele>199.0</ele><time>2026-03-22T11:16:02.353Z</time></trkpt><trkpt lat="43.32484" lon="11.4377767"><ele>199.0</ele><time>2026-03-22T11:16:03.353Z</time></trkpt><trkpt lat="43.3248517" lon="11.4378983"><ele>198.99999999999997</ele><time>2026-03-22T11:16:04.353Z</time></trkpt><trkpt lat="43.3248617" lon="11.4380367"><ele>199.0</ele><time>2026-03-22T11:16:05.353Z</time></trkpt><trkpt lat="43.3248783" lon="11.438185"><ele>199.0</ele><time>2026-03-22T11:16:06.352Z</time></trkpt><trkpt lat="43.3248967" lon="11.4383617"><ele>199.0</ele><time>2026-03-22T11:16:07.352Z</time></trkpt><trkpt lat="43.3249133" lon="11.438545"><ele>199.0</ele><time>2026-03-22T11:16:08.353Z</time></trkpt><trkpt lat="43.3249217" lon="11.43874"><ele>199.0</ele><time>2026-03-22T11:16:09.353Z</time></trkpt><trkpt lat="43.3249267" lon="11.4389267"><ele>198.79999999999998</ele><time>2026-03-22T11:16:10.353Z</time></trkpt><trkpt lat="43.3249317" lon="11.4390917"><ele>198.6</ele><time>2026-03-22T11:16:11.353Z</time></trkpt><trkpt lat="43.32492" lon="11.4392417"><ele>198.4</ele><time>2026-03-22T11:16:12.352Z</time></trkpt><trkpt lat="43.3249" lon="11.43938"><ele>198.2</ele><time>2026-03-22T11:16:13.353Z</time></trkpt><trkpt lat="43.324865" lon="11.4395033"><ele>198.0</ele><time>2026-03-22T11:16:14.353Z</time></trkpt><trkpt lat="43.3248283" lon="11.4396083"><ele>198.0</ele><time>2026-03-22T11:16:15.353Z</time></trkpt><trkpt lat="43.3247933" lon="11.439705"><ele>198.0</ele><time>2026-03-22T11:16:16.353Z</time></trkpt><trkpt lat="43.3247383" lon="11.4398417"><ele>198.0</ele><time>2026-03-22T11:16:18.352Z</time></trkpt><trkpt lat="43.3246667" lon="11.4398533"><ele>198.0</ele><time>2026-03-22T11:16:20.352Z</time></trkpt><trkpt lat="43.3245567" lon="11.4397833"><ele>198.0</ele><time>2026-03-22T11:16:22.353Z</time></trkpt><trkpt lat="43.3244783" lon="11.43974"><ele>198.0</ele><time>2026-03-22T11:16:23.352Z</time></trkpt><trkpt lat="43.3243933" lon="11.4397"><ele>198.0</ele><time>2026-03-22T11:16:24.352Z</time></trkpt><trkpt lat="43.3243017" lon="11.4396433"><ele>198.0</ele><time>2026-03-22T11:16:25.352Z</time></trkpt><trkpt lat="43.3242067" lon="11.4395783"><ele>198.0</ele><time>2026-03-22T11:16:26.353Z</time></trkpt><trkpt lat="43.324105" lon="11.4395067"><ele>198.0</ele><time>2026-03-22T11:16:27.353Z</time></trkpt><trkpt lat="43.323995" lon="11.4394367"><ele>197.75</ele><time>2026-03-22T11:16:28.353Z</time></trkpt><trkpt lat="43.3238817" lon="11.4393517"><ele>197.5</ele><time>2026-03-22T11:16:29.353Z</time></trkpt><trkpt lat="43.32377" lon="11.4392817"><ele>197.25</ele><time>2026-03-22T11:16:30.353Z</time></trkpt><trkpt lat="43.3236617" lon="11.439225"><ele>197.0</ele><time>2026-03-22T11:16:31.352Z</time></trkpt><trkpt lat="43.3235617" lon="11.4391667"><ele>197.0</ele><time>2026-03-22T11:16:32.353Z</time></trkpt><trkpt lat="43.3234767" lon="11.4391117"><ele>197.0</ele><time>2026-03-22T11:16:33.352Z</time></trkpt><trkpt lat="43.323395" lon="11.4390533"><ele>197.0</ele><time>2026-03-22T11:16:34.353Z</time></trkpt><trkpt lat="43.3233017" lon="11.4389967"><ele>197.0</ele><time>2026-03-22T11:16:35.353Z</time></trkpt><trkpt lat="43.3232" lon="11.4389467"><ele>197.0</ele><time>2026-03-22T11:16:36.353Z</time></trkpt><trkpt lat="43.3230883" lon="11.4388933"><ele>196.75</ele><time>2026-03-22T11:16:37.353Z</time></trkpt><trkpt lat="43.32297" lon="11.4388267"><ele>196.5</ele><time>2026-03-22T11:16:38.352Z</time></trkpt><trkpt lat="43.3228517" lon="11.4387517"><ele>196.25</ele><time>2026-03-22T11:16:39.353Z</time></trkpt><trkpt lat="43.3227367" lon="11.4386783"><ele>196.0</ele><time>2026-03-22T11:16:40.353Z</time></trkpt><trkpt lat="43.3226183" lon="11.4386067"><ele>196.0</ele><time>2026-03-22T11:16:41.352Z</time></trkpt><trkpt lat="43.322505" lon="11.4385317"><ele>196.0</ele><time>2026-03-22T11:16:42.353Z</time></trkpt><trkpt lat="43.3224117" lon="11.4384567"><ele>196.0</ele><time>2026-03-22T11:16:43.353Z</time></trkpt><trkpt lat="43.3223383" lon="11.4384083"><ele>196.0</ele><time>2026-03-22T11:16:44.353Z</time></trkpt><trkpt lat="43.32228" lon="11.438365"><ele>196.0</ele><time>2026-03-22T11:16:45.353Z</time></trkpt><trkpt lat="43.3222167" lon="11.43831"><ele>196.20000000000002</ele><time>2026-03-22T11:16:47.352Z</time></trkpt><trkpt lat="43.32217" lon="11.4382433"><ele>196.4</ele><time>2026-03-22T11:16:56.353Z</time></trkpt><trkpt lat="43.3221633" lon="11.43809"><ele>196.6</ele><time>2026-03-22T11:16:59.353Z</time></trkpt><trkpt lat="43.3221617" lon="11.4379067"><ele>196.8</ele><time>2026-03-22T11:17:01.353Z</time></trkpt><trkpt lat="43.32216" lon="11.437805"><ele>197.0</ele><time>2026-03-22T11:17:02.353Z</time></trkpt><trkpt lat="43.322155" lon="11.43771"><ele>197.00000000000003</ele><time>2026-03-22T11:17:03.353Z</time></trkpt><trkpt lat="43.3221533" lon="11.4376067"><ele>197.0</ele><time>2026-03-22T11:17:04.353Z</time></trkpt><trkpt lat="43.32215" lon="11.4375083"><ele>197.0</ele><time>2026-03-22T11:17:05.353Z</time></trkpt><trkpt lat="43.322145" lon="11.4374183"><ele>197.0</ele><time>2026-03-22T11:17:06.352Z</time></trkpt><trkpt lat="43.3221567" lon="11.43733"><ele>197.00000000000003</ele><time>2026-03-22T11:17:07.352Z</time></trkpt><trkpt lat="43.322215" lon="11.4371883"><ele>197.0</ele><time>2026-03-22T11:17:09.352Z</time></trkpt><trkpt lat="43.3222633" lon="11.4371117"><ele>196.8</ele><time>2026-03-22T11:17:10.353Z</time></trkpt><trkpt lat="43.3223167" lon="11.4370283"><ele>196.6</ele><time>2026-03-22T11:17:11.352Z</time></trkpt><trkpt lat="43.3223683" lon="11.4369383"><ele>196.4</ele><time>2026-03-22T11:17:12.353Z</time></trkpt><trkpt lat="43.3224217" lon="11.43685"><ele>196.20000000000002</ele><time>2026-03-22T11:17:13.353Z</time></trkpt><trkpt lat="43.3224783" lon="11.4367417"><ele>196.0</ele><time>2026-03-22T11:17:14.353Z</time></trkpt><trkpt lat="43.3225483" lon="11.4366283"><ele>196.0</ele><time>2026-03-22T11:17:15.353Z</time></trkpt><trkpt lat="43.32261" lon="11.4365133"><ele>196.0</ele><time>2026-03-22T11:17:16.353Z</time></trkpt><trkpt lat="43.3226733" lon="11.4364067"><ele>196.0</ele><time>2026-03-22T11:17:17.352Z</time></trkpt><trkpt lat="43.322725" lon="11.4363033"><ele>196.0</ele><time>2026-03-22T11:17:18.353Z</time></trkpt><trkpt lat="43.3227833" lon="11.436195"><ele>196.0</ele><time>2026-03-22T11:17:19.353Z</time></trkpt><trkpt lat="43.3228333" lon="11.4361017"><ele>196.0</ele><time>2026-03-22T11:17:20.353Z</time></trkpt><trkpt lat="43.32288" lon="11.4360217"><ele>196.0</ele><time>2026-03-22T11:17:21.353Z</time></trkpt><trkpt lat="43.3229367" lon="11.4358867"><ele>196.0</ele><time>2026-03-22T11:17:23.353Z</time></trkpt><trkpt lat="43.3229417" lon="11.4357667"><ele>196.0</ele><time>2026-03-22T11:17:25.352Z</time></trkpt><trkpt lat="43.3229067" lon="11.4356683"><ele>196.0</ele><time>2026-03-22T11:17:27.353Z</time></trkpt><trkpt lat="43.32283" lon="11.4355517"><ele>196.66666666666666</ele><time>2026-03-22T11:17:30.353Z</time></trkpt><trkpt lat="43.322745" lon="11.4354367"><ele>197.33333333333331</ele><time>2026-03-22T11:17:32.352Z</time></trkpt><trkpt lat="43.3227017" lon="11.4353733"><ele>198.0</ele><time>2026-03-22T11:17:33.353Z</time></trkpt><trkpt lat="43.3226133" lon="11.4352583"><ele>198.66666666666669</ele><time>2026-03-22T11:17:35.353Z</time></trkpt><trkpt lat="43.32257" lon="11.4351833"><ele>199.33333333333334</ele><time>2026-03-22T11:17:36.353Z</time></trkpt><trkpt lat="43.3225283" lon="11.4351"><ele>200.0</ele><time>2026-03-22T11:17:37.353Z</time></trkpt><trkpt lat="43.322485" lon="11.4350067"><ele>200.00000000000003</ele><time>2026-03-22T11:17:38.353Z</time></trkpt><trkpt lat="43.3224367" lon="11.434905"><ele>200.0</ele><time>2026-03-22T11:17:39.353Z</time></trkpt><trkpt lat="43.3223983" lon="11.4347983"><ele>200.0</ele><time>2026-03-22T11:17:40.353Z</time></trkpt><trkpt lat="43.3223633" lon="11.4347133"><ele>200.0</ele><time>2026-03-22T11:17:41.353Z</time></trkpt><trkpt lat="43.322295" lon="11.434575"><ele>200.00000000000003</ele><time>2026-03-22T11:17:43.353Z</time></trkpt><trkpt lat="43.3222583" lon="11.4344983"><ele>200.0</ele><time>2026-03-22T11:17:44.353Z</time></trkpt><trkpt lat="43.3222183" lon="11.43441"><ele>199.66666666666669</ele><time>2026-03-22T11:17:45.353Z</time></trkpt><trkpt lat="43.322175" lon="11.434305"><ele>199.33333333333334</ele><time>2026-03-22T11:17:46.353Z</time></trkpt><trkpt lat="43.3221217" lon="11.4341917"><ele>199.0</ele><time>2026-03-22T11:17:47.352Z</time></trkpt><trkpt lat="43.3220733" lon="11.4340867"><ele>198.66666666666669</ele><time>2026-03-22T11:17:48.353Z</time></trkpt><trkpt lat="43.3220183" lon="11.43401"><ele>198.33333333333334</ele><time>2026-03-22T11:17:49.353Z</time></trkpt><trkpt lat="43.321965" lon="11.4339517"><ele>198.0</ele><time>2026-03-22T11:17:50.353Z</time></trkpt><trkpt lat="43.3219017" lon="11.433895"><ele>198.0</ele><time>2026-03-22T11:17:51.352Z</time></trkpt><trkpt lat="43.3218383" lon="11.4338383"><ele>198.0</ele><time>2026-03-22T11:17:52.353Z</time></trkpt><trkpt lat="43.3217683" lon="11.4337833"><ele>198.0</ele><time>2026-03-22T11:17:53.353Z</time></trkpt><trkpt lat="43.3216983" lon="11.43372"><ele>198.0</ele><time>2026-03-22T11:17:54.352Z</time></trkpt><trkpt lat="43.3216333" lon="11.4336433"><ele>198.0</ele><time>2026-03-22T11:17:55.353Z</time></trkpt><trkpt lat="43.3215517" lon="11.4335633"><ele>198.0</ele><time>2026-03-22T11:17:56.353Z</time></trkpt><trkpt lat="43.321465" lon="11.4334783"><ele>197.8</ele><time>2026-03-22T11:17:57.353Z</time></trkpt><trkpt lat="43.3213717" lon="11.4333883"><ele>197.60000000000002</ele><time>2026-03-22T11:17:58.353Z</time></trkpt><trkpt lat="43.3212933" lon="11.4333067"><ele>197.39999999999998</ele><time>2026-03-22T11:17:59.353Z</time></trkpt><trkpt lat="43.32122" lon="11.43324"><ele>197.2</ele><time>2026-03-22T11:18:00.352Z</time></trkpt><trkpt lat="43.3211517" lon="11.4331767"><ele>197.0</ele><time>2026-03-22T11:18:01.353Z</time></trkpt><trkpt lat="43.32109" lon="11.433125"><ele>197.0</ele><time>2026-03-22T11:18:02.353Z</time></trkpt><trkpt lat="43.3210483" lon="11.43303"><ele>197.0</ele><time>2026-03-22T11:18:04.353Z</time></trkpt><trkpt lat="43.3211183" lon="11.4329183"><ele>197.0</ele><time>2026-03-22T11:18:07.353Z</time></trkpt><trkpt lat="43.321185" lon="11.4328733"><ele>197.0</ele><time>2026-03-22T11:18:08.352Z</time></trkpt><trkpt lat="43.3212683" lon="11.43282"><ele>197.0</ele><time>2026-03-22T11:18:09.352Z</time></trkpt><trkpt lat="43.32137" lon="11.4327617"><ele>198.75</ele><time>2026-03-22T11:18:10.352Z</time></trkpt><trkpt lat="43.3214883" lon="11.432685"><ele>200.5</ele><time>2026-03-22T11:18:11.352Z</time></trkpt><trkpt lat="43.3216083" lon="11.432605"><ele>202.25</ele><time>2026-03-22T11:18:12.353Z</time></trkpt><trkpt lat="43.32173" lon="11.4325183"><ele>204.0</ele><time>2026-03-22T11:18:13.353Z</time></trkpt><trkpt lat="43.3218533" lon="11.4324383"><ele>204.0</ele><time>2026-03-22T11:18:14.353Z</time></trkpt><trkpt lat="43.3219833" lon="11.4323517"><ele>204.0</ele><time>2026-03-22T11:18:15.353Z</time></trkpt><trkpt lat="43.3221" lon="11.4322567"><ele>204.0</ele><time>2026-03-22T11:18:16.353Z</time></trkpt><trkpt lat="43.3222167" lon="11.4321733"><ele>204.0</ele><time>2026-03-22T11:18:17.352Z</time></trkpt><trkpt lat="43.3223233" lon="11.4320983"><ele>206.79999999999998</ele><time>2026-03-22T11:18:18.352Z</time></trkpt><trkpt lat="43.322425" lon="11.432025"><ele>209.6</ele><time>2026-03-22T11:18:19.352Z</time></trkpt><trkpt lat="43.3225083" lon="11.4319667"><ele>212.4</ele><time>2026-03-22T11:18:20.353Z</time></trkpt><trkpt lat="43.3225867" lon="11.4319233"><ele>215.2</ele><time>2026-03-22T11:18:21.353Z</time></trkpt><trkpt lat="43.3226583" lon="11.4319133"><ele>218.0</ele><time>2026-03-22T11:18:22.353Z</time></trkpt><trkpt lat="43.3227633" lon="11.4319867"><ele>218.00000000000003</ele><time>2026-03-22T11:18:24.352Z</time></trkpt><trkpt lat="43.3228067" lon="11.4320617"><ele>218.0</ele><time>2026-03-22T11:18:25.353Z</time></trkpt><trkpt lat="43.3228483" lon="11.4321417"><ele>218.0</ele><time>2026-03-22T11:18:26.353Z</time></trkpt><trkpt lat="43.3229117" lon="11.4322083"><ele>218.0</ele><time>2026-03-22T11:18:28.353Z</time></trkpt><trkpt lat="43.3229417" lon="11.4320867"><ele>218.00000000000003</ele><time>2026-03-22T11:18:32.353Z</time></trkpt><trkpt lat="43.32291" lon="11.43199"><ele>218.0</ele><time>2026-03-22T11:18:33.353Z</time></trkpt><trkpt lat="43.322885" lon="11.4318467"><ele>218.0</ele><time>2026-03-22T11:18:34.353Z</time></trkpt><trkpt lat="43.322865" lon="11.4316817"><ele>218.0</ele><time>2026-03-22T11:18:35.353Z</time></trkpt><trkpt lat="43.3228417" lon="11.4314967"><ele>218.0</ele><time>2026-03-22T11:18:36.353Z</time></trkpt><trkpt lat="43.322825" lon="11.4313083"><ele>218.0</ele><time>2026-03-22T11:18:37.353Z</time></trkpt><trkpt lat="43.3228183" lon="11.4311167"><ele>219.00000000000003</ele><time>2026-03-22T11:18:38.353Z</time></trkpt><trkpt lat="43.3228167" lon="11.4309683"><ele>220.0</ele><time>2026-03-22T11:18:39.352Z</time></trkpt><trkpt lat="43.3228233" lon="11.430855"><ele>221.0</ele><time>2026-03-22T11:18:40.353Z</time></trkpt><trkpt lat="43.3228233" lon="11.4307467"><ele>222.0</ele><time>2026-03-22T11:18:42.353Z</time></trkpt><trkpt lat="43.32282" lon="11.43066"><ele>223.00000000000003</ele><time>2026-03-22T11:19:13.353Z</time></trkpt><trkpt lat="43.3228233" lon="11.4305717"><ele>224.0</ele><time>2026-03-22T11:19:15.353Z</time></trkpt><trkpt lat="43.32284" lon="11.43045"><ele>224.16666666666669</ele><time>2026-03-22T11:19:17.353Z</time></trkpt><trkpt lat="43.3228383" lon="11.4303617"><ele>224.33333333333334</ele><time>2026-03-22T11:19:18.353Z</time></trkpt><trkpt lat="43.322845" lon="11.4302567"><ele>224.5</ele><time>2026-03-22T11:19:19.352Z</time></trkpt><trkpt lat="43.3228483" lon="11.43015"><ele>224.66666666666669</ele><time>2026-03-22T11:19:20.353Z</time></trkpt><trkpt lat="43.3228617" lon="11.4300433"><ele>224.83333333333334</ele><time>2026-03-22T11:19:21.353Z</time></trkpt><trkpt lat="43.3228667" lon="11.4299367"><ele>225.0</ele><time>2026-03-22T11:19:22.352Z</time></trkpt><trkpt lat="43.32289" lon="11.4298333"><ele>225.0</ele><time>2026-03-22T11:19:23.353Z</time></trkpt><trkpt lat="43.3229167" lon="11.429735"><ele>225.0</ele><time>2026-03-22T11:19:24.352Z</time></trkpt><trkpt lat="43.3229467" lon="11.42965"><ele>225.0</ele><time>2026-03-22T11:19:25.353Z</time></trkpt><trkpt lat="43.3229983" lon="11.4295083"><ele>225.0</ele><time>2026-03-22T11:19:27.353Z</time></trkpt><trkpt lat="43.32302" lon="11.429415"><ele>225.0</ele><time>2026-03-22T11:19:28.352Z</time></trkpt><trkpt lat="43.3230533" lon="11.4292883"><ele>225.0</ele><time>2026-03-22T11:19:29.353Z</time></trkpt><trkpt lat="43.3230983" lon="11.4291283"><ele>224.5</ele><time>2026-03-22T11:19:30.353Z</time></trkpt><trkpt lat="43.3231533" lon="11.42895"><ele>224.0</ele><time>2026-03-22T11:19:31.353Z</time></trkpt><trkpt lat="43.3232017" lon="11.4287767"><ele>223.5</ele><time>2026-03-22T11:19:32.353Z</time></trkpt><trkpt lat="43.3232417" lon="11.4286283"><ele>223.0</ele><time>2026-03-22T11:19:33.353Z</time></trkpt><trkpt lat="43.323265" lon="11.428485"><ele>222.99999999999997</ele><time>2026-03-22T11:19:34.353Z</time></trkpt><trkpt lat="43.323285" lon="11.4283567"><ele>223.0</ele><time>2026-03-22T11:19:35.353Z</time></trkpt><trkpt lat="43.3232983" lon="11.4282533"><ele>223.0</ele><time>2026-03-22T11:19:36.353Z</time></trkpt><trkpt lat="43.32331" lon="11.4281167"><ele>223.0</ele><time>2026-03-22T11:19:38.353Z</time></trkpt><trkpt lat="43.32335" lon="11.427995"><ele>222.99999999999997</ele><time>2026-03-22T11:20:25.353Z</time></trkpt><trkpt lat="43.3233733" lon="11.4279067"><ele>223.0</ele><time>2026-03-22T11:20:26.353Z</time></trkpt><trkpt lat="43.3234017" lon="11.4277967"><ele>222.0</ele><time>2026-03-22T11:20:27.353Z</time></trkpt><trkpt lat="43.3234317" lon="11.4276633"><ele>221.0</ele><time>2026-03-22T11:20:28.353Z</time></trkpt><trkpt lat="43.3234517" lon="11.4275083"><ele>220.0</ele><time>2026-03-22T11:20:29.353Z</time></trkpt><trkpt lat="43.3234317" lon="11.4273383"><ele>219.0</ele><time>2026-03-22T11:20:30.352Z</time></trkpt><trkpt lat="43.32338" lon="11.4271533"><ele>217.33333333333331</ele><time>2026-03-22T11:20:31.353Z</time></trkpt><trkpt lat="43.3233133" lon="11.426945"><ele>215.66666666666666</ele><time>2026-03-22T11:20:32.353Z</time></trkpt><trkpt lat="43.32325" lon="11.4267417"><ele>214.0</ele><time>2026-03-22T11:20:33.353Z</time></trkpt><trkpt lat="43.3232083" lon="11.4265717"><ele>214.0</ele><time>2026-03-22T11:20:34.353Z</time></trkpt><trkpt lat="43.323195" lon="11.4264217"><ele>213.99999999999997</ele><time>2026-03-22T11:20:35.352Z</time></trkpt><trkpt lat="43.323225" lon="11.4262867"><ele>213.99999999999997</ele><time>2026-03-22T11:20:36.352Z</time></trkpt><trkpt lat="43.3232683" lon="11.42619"><ele>214.0</ele><time>2026-03-22T11:20:37.353Z</time></trkpt><trkpt lat="43.3233317" lon="11.42611"><ele>214.0</ele><time>2026-03-22T11:20:38.352Z</time></trkpt><trkpt lat="43.323415" lon="11.42606"><ele>211.5</ele><time>2026-03-22T11:20:39.353Z</time></trkpt><trkpt lat="43.3235267" lon="11.426055"><ele>209.0</ele><time>2026-03-22T11:20:40.353Z</time></trkpt><trkpt lat="43.323645" lon="11.4260617"><ele>206.5</ele><time>2026-03-22T11:20:41.353Z</time></trkpt><trkpt lat="43.3237883" lon="11.4261167"><ele>204.0</ele><time>2026-03-22T11:20:42.352Z</time></trkpt><trkpt lat="43.3239433" lon="11.4261867"><ele>202.75</ele><time>2026-03-22T11:20:43.353Z</time></trkpt><trkpt lat="43.324095" lon="11.4262283"><ele>201.5</ele><time>2026-03-22T11:20:44.353Z</time></trkpt><trkpt lat="43.3242033" lon="11.4262483"><ele>200.25</ele><time>2026-03-22T11:20:45.352Z</time></trkpt><trkpt lat="43.32431" lon="11.42623"><ele>199.0</ele><time>2026-03-22T11:20:46.353Z</time></trkpt><trkpt lat="43.3244333" lon="11.42618"><ele>199.0</ele><time>2026-03-22T11:20:47.352Z</time></trkpt><trkpt lat="43.324585" lon="11.4260933"><ele>199.0</ele><time>2026-03-22T11:20:48.353Z</time></trkpt><trkpt lat="43.3247633" lon="11.425975"><ele>199.0</ele><time>2026-03-22T11:20:49.353Z</time></trkpt><trkpt lat="43.3249383" lon="11.4258683"><ele>198.0</ele><time>2026-03-22T11:20:50.353Z</time></trkpt><trkpt lat="43.3251083" lon="11.425755"><ele>197.0</ele><time>2026-03-22T11:20:51.352Z</time></trkpt><trkpt lat="43.3252867" lon="11.42563"><ele>196.0</ele><time>2026-03-22T11:20:52.353Z</time></trkpt><trkpt lat="43.3254717" lon="11.425515"><ele>196.66666666666666</ele><time>2026-03-22T11:20:53.352Z</time></trkpt><trkpt lat="43.325645" lon="11.4254167"><ele>197.33333333333331</ele><time>2026-03-22T11:20:54.353Z</time></trkpt><trkpt lat="43.3257883" lon="11.425305"><ele>198.0</ele><time>2026-03-22T11:20:55.353Z</time></trkpt><trkpt lat="43.3259367" lon="11.4251583"><ele>198.0</ele><time>2026-03-22T11:20:56.353Z</time></trkpt><trkpt lat="43.3260467" lon="11.4249883"><ele>198.0</ele><time>2026-03-22T11:20:57.353Z</time></trkpt><trkpt lat="43.326145" lon="11.4247983"><ele>198.0</ele><time>2026-03-22T11:20:58.353Z</time></trkpt><trkpt lat="43.3262217" lon="11.424585"><ele>197.33333333333331</ele><time>2026-03-22T11:20:59.353Z</time></trkpt><trkpt lat="43.3262683" lon="11.4243733"><ele>196.66666666666666</ele><time>2026-03-22T11:21:00.353Z</time></trkpt><trkpt lat="43.326275" lon="11.4241533"><ele>196.0</ele><time>2026-03-22T11:21:01.352Z</time></trkpt><trkpt lat="43.3262417" lon="11.423935"><ele>195.66666666666666</ele><time>2026-03-22T11:21:02.353Z</time></trkpt><trkpt lat="43.326195" lon="11.42372"><ele>195.33333333333331</ele><time>2026-03-22T11:21:03.353Z</time></trkpt><trkpt lat="43.3261367" lon="11.4235117"><ele>195.0</ele><time>2026-03-22T11:21:04.352Z</time></trkpt><trkpt lat="43.326075" lon="11.4233133"><ele>195.0</ele><time>2026-03-22T11:21:05.353Z</time></trkpt><trkpt lat="43.3260317" lon="11.4231083"><ele>195.0</ele><time>2026-03-22T11:21:06.353Z</time></trkpt><trkpt lat="43.326" lon="11.4228933"><ele>195.0</ele><time>2026-03-22T11:21:07.352Z</time></trkpt><trkpt lat="43.3259833" lon="11.4226717"><ele>196.0</ele><time>2026-03-22T11:21:08.352Z</time></trkpt><trkpt lat="43.325965" lon="11.422445"><ele>197.0</ele><time>2026-03-22T11:21:09.353Z</time></trkpt><trkpt lat="43.3259517" lon="11.4222167"><ele>198.0</ele><time>2026-03-22T11:21:10.353Z</time></trkpt><trkpt lat="43.3259433" lon="11.42201"><ele>199.0</ele><time>2026-03-22T11:21:11.352Z</time></trkpt><trkpt lat="43.3259283" lon="11.42184"><ele>200.0</ele><time>2026-03-22T11:21:12.352Z</time></trkpt><trkpt lat="43.3259" lon="11.421685"><ele>201.0</ele><time>2026-03-22T11:21:13.352Z</time></trkpt><trkpt lat="43.3258783" lon="11.421545"><ele>202.0</ele><time>2026-03-22T11:21:14.352Z</time></trkpt><trkpt lat="43.32585" lon="11.4214117"><ele>203.0</ele><time>2026-03-22T11:21:15.353Z</time></trkpt><trkpt lat="43.32582" lon="11.421275"><ele>204.0</ele><time>2026-03-22T11:21:16.352Z</time></trkpt><trkpt lat="43.32578" lon="11.4211267"><ele>205.0</ele><time>2026-03-22T11:21:17.353Z</time></trkpt><trkpt lat="43.3257417" lon="11.4209783"><ele>206.0</ele><time>2026-03-22T11:21:18.352Z</time></trkpt><trkpt lat="43.32571" lon="11.420805"><ele>207.0</ele><time>2026-03-22T11:21:19.353Z</time></trkpt><trkpt lat="43.3256933" lon="11.4206067"><ele>208.5</ele><time>2026-03-22T11:21:20.353Z</time></trkpt><trkpt lat="43.3256767" lon="11.4204117"><ele>210.0</ele><time>2026-03-22T11:21:21.353Z</time></trkpt><trkpt lat="43.3256667" lon="11.420235"><ele>211.5</ele><time>2026-03-22T11:21:22.353Z</time></trkpt><trkpt lat="43.325655" lon="11.4200733"><ele>213.0</ele><time>2026-03-22T11:21:23.352Z</time></trkpt><trkpt lat="43.3256483" lon="11.4199483"><ele>213.0</ele><time>2026-03-22T11:21:24.353Z</time></trkpt><trkpt lat="43.3256133" lon="11.419845"><ele>213.0</ele><time>2026-03-22T11:21:26.353Z</time></trkpt><trkpt lat="43.3254983" lon="11.4198233"><ele>213.0</ele><time>2026-03-22T11:21:28.353Z</time></trkpt><trkpt lat="43.3254233" lon="11.4197933"><ele>213.0</ele><time>2026-03-22T11:21:29.353Z</time></trkpt><trkpt lat="43.325335" lon="11.4197267"><ele>213.0</ele><time>2026-03-22T11:21:30.353Z</time></trkpt><trkpt lat="43.32524" lon="11.4196417"><ele>215.5</ele><time>2026-03-22T11:21:31.353Z</time></trkpt><trkpt lat="43.3251367" lon="11.4195433"><ele>218.0</ele><time>2026-03-22T11:21:32.353Z</time></trkpt><trkpt lat="43.3250367" lon="11.4194467"><ele>220.5</ele><time>2026-03-22T11:21:33.352Z</time></trkpt><trkpt lat="43.3249533" lon="11.4193367"><ele>223.0</ele><time>2026-03-22T11:21:34.353Z</time></trkpt><trkpt lat="43.3248767" lon="11.4192267"><ele>223.0</ele><time>2026-03-22T11:21:35.352Z</time></trkpt><trkpt lat="43.3247983" lon="11.4191133"><ele>223.0</ele><time>2026-03-22T11:21:36.353Z</time></trkpt><trkpt lat="43.324715" lon="11.4190017"><ele>223.0</ele><time>2026-03-22T11:21:37.353Z</time></trkpt><trkpt lat="43.324635" lon="11.4189017"><ele>223.0</ele><time>2026-03-22T11:21:38.353Z</time></trkpt><trkpt lat="43.3245683" lon="11.41879"><ele>223.0</ele><time>2026-03-22T11:21:39.353Z</time></trkpt><trkpt lat="43.3245233" lon="11.4186833"><ele>223.99999999999997</ele><time>2026-03-22T11:21:40.353Z</time></trkpt><trkpt lat="43.3244833" lon="11.41858"><ele>225.0</ele><time>2026-03-22T11:21:41.352Z</time></trkpt><trkpt lat="43.3244517" lon="11.418475"><ele>226.0</ele><time>2026-03-22T11:21:42.353Z</time></trkpt><trkpt lat="43.3244333" lon="11.4183717"><ele>227.0</ele><time>2026-03-22T11:21:43.353Z</time></trkpt><trkpt lat="43.32441" lon="11.41826"><ele>227.99999999999997</ele><time>2026-03-22T11:21:44.353Z</time></trkpt><trkpt lat="43.324385" lon="11.418155"><ele>229.0</ele><time>2026-03-22T11:21:45.353Z</time></trkpt><trkpt lat="43.3243667" lon="11.4180583"><ele>230.49999999999997</ele><time>2026-03-22T11:21:46.353Z</time></trkpt><trkpt lat="43.3243333" lon="11.417975"><ele>232.0</ele><time>2026-03-22T11:21:47.353Z</time></trkpt><trkpt lat="43.32429" lon="11.4179017"><ele>233.5</ele><time>2026-03-22T11:21:48.352Z</time></trkpt><trkpt lat="43.32425" lon="11.4178317"><ele>235.0</ele><time>2026-03-22T11:21:49.353Z</time></trkpt><trkpt lat="43.3241883" lon="11.4177533"><ele>236.49999999999997</ele><time>2026-03-22T11:21:50.353Z</time></trkpt><trkpt lat="43.324125" lon="11.4176683"><ele>238.0</ele><time>2026-03-22T11:21:51.353Z</time></trkpt><trkpt lat="43.3240583" lon="11.4175683"><ele>237.99999999999997</ele><time>2026-03-22T11:21:52.353Z</time></trkpt><trkpt lat="43.324005" lon="11.4174733"><ele>238.0</ele><time>2026-03-22T11:21:53.352Z</time></trkpt><trkpt lat="43.32397" lon="11.4173833"><ele>238.0</ele><time>2026-03-22T11:21:54.353Z</time></trkpt><trkpt lat="43.3239583" lon="11.4172917"><ele>238.0</ele><time>2026-03-22T11:21:55.353Z</time></trkpt><trkpt lat="43.3239483" lon="11.4171833"><ele>237.99999999999997</ele><time>2026-03-22T11:21:56.353Z</time></trkpt><trkpt lat="43.323935" lon="11.4170733"><ele>238.0</ele><time>2026-03-22T11:21:57.353Z</time></trkpt><trkpt lat="43.323925" lon="11.4169517"><ele>239.33333333333331</ele><time>2026-03-22T11:21:58.353Z</time></trkpt><trkpt lat="43.3239133" lon="11.4168317"><ele>240.66666666666666</ele><time>2026-03-22T11:21:59.353Z</time></trkpt><trkpt lat="43.3239" lon="11.4167283"><ele>242.0</ele><time>2026-03-22T11:22:00.353Z</time></trkpt><trkpt lat="43.3239" lon="11.41658"><ele>243.33333333333331</ele><time>2026-03-22T11:22:02.353Z</time></trkpt><trkpt lat="43.323945" lon="11.4165017"><ele>244.66666666666666</ele><time>2026-03-22T11:22:04.352Z</time></trkpt><trkpt lat="43.3240117" lon="11.416425"><ele>246.0</ele><time>2026-03-22T11:22:06.353Z</time></trkpt><trkpt lat="43.3240467" lon="11.4163"><ele>246.8</ele><time>2026-03-22T11:22:08.353Z</time></trkpt><trkpt lat="43.3240267" lon="11.4161217"><ele>247.60000000000002</ele><time>2026-03-22T11:22:10.353Z</time></trkpt><trkpt lat="43.324" lon="11.4160283"><ele>248.4</ele><time>2026-03-22T11:22:11.352Z</time></trkpt><trkpt lat="43.32398" lon="11.4159417"><ele>249.2</ele><time>2026-03-22T11:22:12.352Z</time></trkpt><trkpt lat="43.3239233" lon="11.415805"><ele>250.0</ele><time>2026-03-22T11:22:14.353Z</time></trkpt><trkpt lat="43.3238467" lon="11.415835"><ele>250.0</ele><time>2026-03-22T11:22:16.353Z</time></trkpt><trkpt lat="43.3237783" lon="11.4159067"><ele>250.0</ele><time>2026-03-22T11:22:17.352Z</time></trkpt><trkpt lat="43.32369" lon="11.415955"><ele>250.0</ele><time>2026-03-22T11:22:18.353Z</time></trkpt><trkpt lat="43.323585" lon="11.416"><ele>250.0</ele><time>2026-03-22T11:22:19.353Z</time></trkpt><trkpt lat="43.3234533" lon="11.4160467"><ele>250.0</ele><time>2026-03-22T11:22:20.352Z</time></trkpt><trkpt lat="43.32332" lon="11.4160917"><ele>250.0</ele><time>2026-03-22T11:22:21.352Z</time></trkpt><trkpt lat="43.32318" lon="11.416135"><ele>250.0</ele><time>2026-03-22T11:22:22.353Z</time></trkpt><trkpt lat="43.3230433" lon="11.4161817"><ele>250.0</ele><time>2026-03-22T11:22:23.353Z</time></trkpt><trkpt lat="43.322925" lon="11.41623"><ele>250.0</ele><time>2026-03-22T11:22:24.353Z</time></trkpt><trkpt lat="43.322815" lon="11.41626"><ele>248.8</ele><time>2026-03-22T11:22:25.352Z</time></trkpt><trkpt lat="43.3227217" lon="11.4162783"><ele>247.6</ele><time>2026-03-22T11:22:26.353Z</time></trkpt><trkpt lat="43.3226433" lon="11.4162717"><ele>246.39999999999998</ele><time>2026-03-22T11:22:27.353Z</time></trkpt><trkpt lat="43.3225283" lon="11.41621"><ele>245.2</ele><time>2026-03-22T11:22:29.353Z</time></trkpt><trkpt lat="43.3224467" lon="11.41615"><ele>244.0</ele><time>2026-03-22T11:22:30.353Z</time></trkpt><trkpt lat="43.322355" lon="11.4160667"><ele>244.0</ele><time>2026-03-22T11:22:31.353Z</time></trkpt><trkpt lat="43.3222417" lon="11.4159717"><ele>244.0</ele><time>2026-03-22T11:22:32.353Z</time></trkpt><trkpt lat="43.322125" lon="11.4158667"><ele>244.0</ele><time>2026-03-22T11:22:33.353Z</time></trkpt><trkpt lat="43.3220033" lon="11.4157467"><ele>244.0</ele><time>2026-03-22T11:22:34.352Z</time></trkpt><trkpt lat="43.321895" lon="11.4156067"><ele>241.75</ele><time>2026-03-22T11:22:35.353Z</time></trkpt><trkpt lat="43.321785" lon="11.4154617"><ele>239.5</ele><time>2026-03-22T11:22:36.353Z</time></trkpt><trkpt lat="43.3216833" lon="11.41532"><ele>237.25</ele><time>2026-03-22T11:22:37.353Z</time></trkpt><trkpt lat="43.3215833" lon="11.4152033"><ele>235.0</ele><time>2026-03-22T11:22:38.353Z</time></trkpt><trkpt lat="43.3214817" lon="11.4150883"><ele>236.0</ele><time>2026-03-22T11:22:39.353Z</time></trkpt><trkpt lat="43.3213683" lon="11.4149967"><ele>237.0</ele><time>2026-03-22T11:22:40.353Z</time></trkpt><trkpt lat="43.32125" lon="11.41493"><ele>238.0</ele><time>2026-03-22T11:22:41.353Z</time></trkpt><trkpt lat="43.3211233" lon="11.4148867"><ele>239.0</ele><time>2026-03-22T11:22:42.353Z</time></trkpt><trkpt lat="43.3210017" lon="11.41486"><ele>239.0</ele><time>2026-03-22T11:22:43.353Z</time></trkpt><trkpt lat="43.3208983" lon="11.4148533"><ele>238.99999999999997</ele><time>2026-03-22T11:22:44.353Z</time></trkpt><trkpt lat="43.32081" lon="11.414855"><ele>238.99999999999997</ele><time>2026-03-22T11:22:45.353Z</time></trkpt><trkpt lat="43.3207317" lon="11.4148567"><ele>239.0</ele><time>2026-03-22T11:22:46.353Z</time></trkpt><trkpt lat="43.3206517" lon="11.414845"><ele>239.0</ele><time>2026-03-22T11:22:47.352Z</time></trkpt><trkpt lat="43.32055" lon="11.4148133"><ele>237.6</ele><time>2026-03-22T11:22:48.353Z</time></trkpt><trkpt lat="43.32045" lon="11.4147733"><ele>236.2</ele><time>2026-03-22T11:22:49.353Z</time></trkpt><trkpt lat="43.3203383" lon="11.4147467"><ele>234.79999999999998</ele><time>2026-03-22T11:22:50.353Z</time></trkpt><trkpt lat="43.3202317" lon="11.4147417"><ele>233.39999999999998</ele><time>2026-03-22T11:22:51.353Z</time></trkpt><trkpt lat="43.32013" lon="11.4147717"><ele>232.0</ele><time>2026-03-22T11:22:52.353Z</time></trkpt><trkpt lat="43.32003" lon="11.414835"><ele>232.0</ele><time>2026-03-22T11:22:53.353Z</time></trkpt><trkpt lat="43.3199067" lon="11.4149333"><ele>232.0</ele><time>2026-03-22T11:22:54.353Z</time></trkpt><trkpt lat="43.3197967" lon="11.415045"><ele>232.0</ele><time>2026-03-22T11:22:55.353Z</time></trkpt><trkpt lat="43.3196917" lon="11.4151283"><ele>232.0</ele><time>2026-03-22T11:22:56.353Z</time></trkpt><trkpt lat="43.3195633" lon="11.4151867"><ele>230.25</ele><time>2026-03-22T11:22:57.353Z</time></trkpt><trkpt lat="43.3194333" lon="11.4152183"><ele>228.5</ele><time>2026-03-22T11:22:58.353Z</time></trkpt><trkpt lat="43.31931" lon="11.4152167"><ele>226.75</ele><time>2026-03-22T11:22:59.352Z</time></trkpt><trkpt lat="43.31918" lon="11.41519"><ele>225.0</ele><time>2026-03-22T11:23:00.353Z</time></trkpt><trkpt lat="43.3190433" lon="11.4151383"><ele>225.0</ele><time>2026-03-22T11:23:01.353Z</time></trkpt><trkpt lat="43.3189183" lon="11.4150867"><ele>225.0</ele><time>2026-03-22T11:23:02.353Z</time></trkpt><trkpt lat="43.3188" lon="11.41501"><ele>225.0</ele><time>2026-03-22T11:23:03.353Z</time></trkpt><trkpt lat="43.3186833" lon="11.4149317"><ele>225.0</ele><time>2026-03-22T11:23:04.353Z</time></trkpt><trkpt lat="43.318565" lon="11.41486"><ele>223.25</ele><time>2026-03-22T11:23:05.352Z</time></trkpt><trkpt lat="43.3184567" lon="11.4148083"><ele>221.5</ele><time>2026-03-22T11:23:06.353Z</time></trkpt><trkpt lat="43.3183383" lon="11.414775"><ele>219.75</ele><time>2026-03-22T11:23:07.353Z</time></trkpt><trkpt lat="43.3182133" lon="11.414775"><ele>218.0</ele><time>2026-03-22T11:23:08.353Z</time></trkpt><trkpt lat="43.3180683" lon="11.4148017"><ele>215.25</ele><time>2026-03-22T11:23:09.354Z</time></trkpt><trkpt lat="43.317925" lon="11.4148383"><ele>212.5</ele><time>2026-03-22T11:23:10.353Z</time></trkpt><trkpt lat="43.3177817" lon="11.4148733"><ele>209.75</ele><time>2026-03-22T11:23:11.354Z</time></trkpt><trkpt lat="43.3176317" lon="11.4148967"><ele>207.0</ele><time>2026-03-22T11:23:12.353Z</time></trkpt><trkpt lat="43.3174733" lon="11.4149"><ele>207.0</ele><time>2026-03-22T11:23:13.354Z</time></trkpt><trkpt lat="43.31731" lon="11.4148967"><ele>207.0</ele><time>2026-03-22T11:23:14.354Z</time></trkpt><trkpt lat="43.3171483" lon="11.4148917"><ele>207.0</ele><time>2026-03-22T11:23:15.354Z</time></trkpt><trkpt lat="43.317" lon="11.41487"><ele>203.33333333333331</ele><time>2026-03-22T11:23:16.354Z</time></trkpt><trkpt lat="43.3168483" lon="11.4148583"><ele>199.66666666666666</ele><time>2026-03-22T11:23:17.353Z</time></trkpt><trkpt lat="43.316695" lon="11.4148383"><ele>196.0</ele><time>2026-03-22T11:23:18.354Z</time></trkpt><trkpt lat="43.3165467" lon="11.4148333"><ele>196.0</ele><time>2026-03-22T11:23:19.354Z</time></trkpt><trkpt lat="43.31642" lon="11.4148433"><ele>196.0</ele><time>2026-03-22T11:23:20.354Z</time></trkpt><trkpt lat="43.3162917" lon="11.41489"><ele>196.0</ele><time>2026-03-22T11:23:21.354Z</time></trkpt><trkpt lat="43.31619" lon="11.4149483"><ele>196.0</ele><time>2026-03-22T11:23:22.354Z</time></trkpt><trkpt lat="43.3160933" lon="11.4150133"><ele>195.66666666666666</ele><time>2026-03-22T11:23:23.354Z</time></trkpt><trkpt lat="43.3160067" lon="11.415065"><ele>195.33333333333331</ele><time>2026-03-22T11:23:24.354Z</time></trkpt><trkpt lat="43.3159317" lon="11.4150967"><ele>195.0</ele><time>2026-03-22T11:23:25.354Z</time></trkpt><trkpt lat="43.3158683" lon="11.4151033"><ele>194.66666666666669</ele><time>2026-03-22T11:23:26.354Z</time></trkpt><trkpt lat="43.3157583" lon="11.4150183"><ele>194.33333333333334</ele><time>2026-03-22T11:23:28.353Z</time></trkpt><trkpt lat="43.3157067" lon="11.4149317"><ele>194.0</ele><time>2026-03-22T11:23:29.353Z</time></trkpt><trkpt lat="43.3156567" lon="11.4148383"><ele>194.0</ele><time>2026-03-22T11:23:30.354Z</time></trkpt><trkpt lat="43.3156017" lon="11.41474"><ele>194.0</ele><time>2026-03-22T11:23:31.353Z</time></trkpt><trkpt lat="43.3155283" lon="11.41464"><ele>194.0</ele><time>2026-03-22T11:23:32.353Z</time></trkpt><trkpt lat="43.3154533" lon="11.4145467"><ele>194.0</ele><time>2026-03-22T11:23:33.354Z</time></trkpt><trkpt lat="43.31538" lon="11.4144617"><ele>194.0</ele><time>2026-03-22T11:23:34.354Z</time></trkpt><trkpt lat="43.3152933" lon="11.414365"><ele>194.75</ele><time>2026-03-22T11:23:35.353Z</time></trkpt><trkpt lat="43.3152017" lon="11.4142717"><ele>195.5</ele><time>2026-03-22T11:23:36.354Z</time></trkpt><trkpt lat="43.3150917" lon="11.41418"><ele>196.25</ele><time>2026-03-22T11:23:37.354Z</time></trkpt><trkpt lat="43.314995" lon="11.4140767"><ele>197.0</ele><time>2026-03-22T11:23:38.354Z</time></trkpt><trkpt lat="43.3149083" lon="11.4139833"><ele>197.0</ele><time>2026-03-22T11:23:39.353Z</time></trkpt><trkpt lat="43.3148217" lon="11.4139017"><ele>197.0</ele><time>2026-03-22T11:23:40.354Z</time></trkpt><trkpt lat="43.3147433" lon="11.4138083"><ele>197.0</ele><time>2026-03-22T11:23:41.354Z</time></trkpt><trkpt lat="43.3146733" lon="11.4137117"><ele>197.0</ele><time>2026-03-22T11:23:42.354Z</time></trkpt><trkpt lat="43.3146133" lon="11.41358"><ele>197.0</ele><time>2026-03-22T11:23:43.353Z</time></trkpt><trkpt lat="43.31455" lon="11.4134467"><ele>197.5</ele><time>2026-03-22T11:23:44.354Z</time></trkpt><trkpt lat="43.3144867" lon="11.4133117"><ele>198.0</ele><time>2026-03-22T11:23:45.353Z</time></trkpt><trkpt lat="43.31443" lon="11.4131683"><ele>198.5</ele><time>2026-03-22T11:23:46.354Z</time></trkpt><trkpt lat="43.31437" lon="11.4130317"><ele>199.0</ele><time>2026-03-22T11:23:47.354Z</time></trkpt><trkpt lat="43.3143067" lon="11.4129183"><ele>199.0</ele><time>2026-03-22T11:23:48.354Z</time></trkpt><trkpt lat="43.3142367" lon="11.4127933"><ele>199.0</ele><time>2026-03-22T11:23:49.354Z</time></trkpt><trkpt lat="43.31416" lon="11.4126767"><ele>199.0</ele><time>2026-03-22T11:23:50.354Z</time></trkpt><trkpt lat="43.31408" lon="11.4125567"><ele>199.0</ele><time>2026-03-22T11:23:51.354Z</time></trkpt><trkpt lat="43.3139967" lon="11.4124517"><ele>198.99999999999997</ele><time>2026-03-22T11:23:52.354Z</time></trkpt><trkpt lat="43.3139167" lon="11.41236"><ele>199.0</ele><time>2026-03-22T11:23:53.353Z</time></trkpt><trkpt lat="43.31385" lon="11.4122917"><ele>199.0</ele><time>2026-03-22T11:23:54.354Z</time></trkpt><trkpt lat="43.313785" lon="11.4122267"><ele>199.0</ele><time>2026-03-22T11:23:55.354Z</time></trkpt><trkpt lat="43.3137233" lon="11.4121583"><ele>198.99999999999997</ele><time>2026-03-22T11:23:56.354Z</time></trkpt><trkpt lat="43.313675" lon="11.4120767"><ele>199.0</ele><time>2026-03-22T11:23:57.354Z</time></trkpt><trkpt lat="43.3136333" lon="11.4119717"><ele>198.0</ele><time>2026-03-22T11:23:58.354Z</time></trkpt><trkpt lat="43.3136133" lon="11.411845"><ele>197.0</ele><time>2026-03-22T11:23:59.354Z</time></trkpt><trkpt lat="43.313615" lon="11.4117017"><ele>196.0</ele><time>2026-03-22T11:24:00.354Z</time></trkpt><trkpt lat="43.313635" lon="11.4115317"><ele>195.0</ele><time>2026-03-22T11:24:01.354Z</time></trkpt><trkpt lat="43.3136533" lon="11.4113433"><ele>195.0</ele><time>2026-03-22T11:24:02.354Z</time></trkpt><trkpt lat="43.3136567" lon="11.411175"><ele>195.0</ele><time>2026-03-22T11:24:03.354Z</time></trkpt><trkpt lat="43.3136267" lon="11.411005"><ele>195.0</ele><time>2026-03-22T11:24:04.354Z</time></trkpt><trkpt lat="43.313565" lon="11.41082"><ele>195.0</ele><time>2026-03-22T11:24:05.354Z</time></trkpt><trkpt lat="43.3134983" lon="11.4106283"><ele>195.0</ele><time>2026-03-22T11:24:06.354Z</time></trkpt><trkpt lat="43.3134367" lon="11.4104217"><ele>195.0</ele><time>2026-03-22T11:24:07.354Z</time></trkpt><trkpt lat="43.3133733" lon="11.4102283"><ele>195.0</ele><time>2026-03-22T11:24:08.353Z</time></trkpt><trkpt lat="43.3133267" lon="11.4100367"><ele>195.0</ele><time>2026-03-22T11:24:09.354Z</time></trkpt><trkpt lat="43.3132867" lon="11.4098617"><ele>195.0</ele><time>2026-03-22T11:24:10.354Z</time></trkpt><trkpt lat="43.31324" lon="11.4096917"><ele>195.0</ele><time>2026-03-22T11:24:11.354Z</time></trkpt><trkpt lat="43.3131933" lon="11.4095117"><ele>195.0</ele><time>2026-03-22T11:24:12.354Z</time></trkpt><trkpt lat="43.313145" lon="11.4093567"><ele>195.5</ele><time>2026-03-22T11:24:13.354Z</time></trkpt><trkpt lat="43.3130833" lon="11.4091983"><ele>196.0</ele><time>2026-03-22T11:24:14.354Z</time></trkpt><trkpt lat="43.3129967" lon="11.4090467"><ele>196.5</ele><time>2026-03-22T11:24:15.354Z</time></trkpt><trkpt lat="43.3128983" lon="11.4089033"><ele>197.0</ele><time>2026-03-22T11:24:16.354Z</time></trkpt><trkpt lat="43.3127833" lon="11.408745"><ele>200.33333333333334</ele><time>2026-03-22T11:24:17.354Z</time></trkpt><trkpt lat="43.3126583" lon="11.408585"><ele>203.66666666666669</ele><time>2026-03-22T11:24:18.354Z</time></trkpt><trkpt lat="43.3125383" lon="11.408405"><ele>207.0</ele><time>2026-03-22T11:24:19.354Z</time></trkpt><trkpt lat="43.31241" lon="11.4082417"><ele>207.0</ele><time>2026-03-22T11:24:20.354Z</time></trkpt><trkpt lat="43.31228" lon="11.408075"><ele>207.0</ele><time>2026-03-22T11:24:21.354Z</time></trkpt><trkpt lat="43.3121433" lon="11.4079"><ele>207.0</ele><time>2026-03-22T11:24:22.354Z</time></trkpt><trkpt lat="43.3120183" lon="11.4077333"><ele>211.33333333333331</ele><time>2026-03-22T11:24:23.354Z</time></trkpt><trkpt lat="43.3118967" lon="11.40758"><ele>215.66666666666666</ele><time>2026-03-22T11:24:24.354Z</time></trkpt><trkpt lat="43.311775" lon="11.40742"><ele>220.0</ele><time>2026-03-22T11:24:25.353Z</time></trkpt><trkpt lat="43.31165" lon="11.4072683"><ele>218.66666666666666</ele><time>2026-03-22T11:24:26.354Z</time></trkpt><trkpt lat="43.31152" lon="11.4071233"><ele>217.33333333333331</ele><time>2026-03-22T11:24:27.354Z</time></trkpt><trkpt lat="43.31138" lon="11.4069733"><ele>216.0</ele><time>2026-03-22T11:24:28.354Z</time></trkpt><trkpt lat="43.31125" lon="11.4068233"><ele>218.66666666666669</ele><time>2026-03-22T11:24:29.353Z</time></trkpt><trkpt lat="43.3111033" lon="11.40668"><ele>221.33333333333334</ele><time>2026-03-22T11:24:30.354Z</time></trkpt><trkpt lat="43.310955" lon="11.4065067"><ele>224.0</ele><time>2026-03-22T11:24:31.354Z</time></trkpt><trkpt lat="43.3108133" lon="11.4063117"><ele>224.66666666666669</ele><time>2026-03-22T11:24:32.354Z</time></trkpt><trkpt lat="43.3106867" lon="11.406095"><ele>225.33333333333331</ele><time>2026-03-22T11:24:33.354Z</time></trkpt><trkpt lat="43.3105683" lon="11.4058817"><ele>226.0</ele><time>2026-03-22T11:24:34.354Z</time></trkpt><trkpt lat="43.3104717" lon="11.4056617"><ele>226.66666666666666</ele><time>2026-03-22T11:24:35.354Z</time></trkpt><trkpt lat="43.3103983" lon="11.4054433"><ele>227.33333333333331</ele><time>2026-03-22T11:24:36.354Z</time></trkpt><trkpt lat="43.3103367" lon="11.40523"><ele>228.0</ele><time>2026-03-22T11:24:37.353Z</time></trkpt><trkpt lat="43.310285" lon="11.4050267"><ele>228.0</ele><time>2026-03-22T11:24:38.354Z</time></trkpt><trkpt lat="43.3102483" lon="11.404855"><ele>228.0</ele><time>2026-03-22T11:24:39.354Z</time></trkpt><trkpt lat="43.310225" lon="11.4047217"><ele>228.0</ele><time>2026-03-22T11:24:40.353Z</time></trkpt><trkpt lat="43.3101733" lon="11.40461"><ele>228.0</ele><time>2026-03-22T11:24:41.354Z</time></trkpt><trkpt lat="43.310115" lon="11.4044967"><ele>228.0</ele><time>2026-03-22T11:24:42.354Z</time></trkpt><trkpt lat="43.3100283" lon="11.4043967"><ele>228.25</ele><time>2026-03-22T11:24:43.354Z</time></trkpt><trkpt lat="43.3099183" lon="11.4043167"><ele>228.5</ele><time>2026-03-22T11:24:44.354Z</time></trkpt><trkpt lat="43.30979" lon="11.404235"><ele>228.75</ele><time>2026-03-22T11:24:45.353Z</time></trkpt><trkpt lat="43.3096417" lon="11.4041467"><ele>229.0</ele><time>2026-03-22T11:24:46.354Z</time></trkpt><trkpt lat="43.3095033" lon="11.4040617"><ele>228.5</ele><time>2026-03-22T11:24:47.354Z</time></trkpt><trkpt lat="43.30937" lon="11.4039717"><ele>228.0</ele><time>2026-03-22T11:24:48.354Z</time></trkpt><trkpt lat="43.3092417" lon="11.4038817"><ele>227.5</ele><time>2026-03-22T11:24:49.354Z</time></trkpt><trkpt lat="43.3091267" lon="11.4037717"><ele>227.0</ele><time>2026-03-22T11:24:50.353Z</time></trkpt><trkpt lat="43.3090167" lon="11.4036483"><ele>227.0</ele><time>2026-03-22T11:24:51.354Z</time></trkpt><trkpt lat="43.308915" lon="11.40354"><ele>227.0</ele><time>2026-03-22T11:24:52.354Z</time></trkpt><trkpt lat="43.3088133" lon="11.403425"><ele>227.0</ele><time>2026-03-22T11:24:53.354Z</time></trkpt><trkpt lat="43.30872" lon="11.4032983"><ele>227.0</ele><time>2026-03-22T11:24:54.354Z</time></trkpt><trkpt lat="43.3086433" lon="11.4031983"><ele>227.0</ele><time>2026-03-22T11:24:55.354Z</time></trkpt><trkpt lat="43.3085767" lon="11.4031067"><ele>227.0</ele><time>2026-03-22T11:24:56.353Z</time></trkpt><trkpt lat="43.3085033" lon="11.40305"><ele>227.0</ele><time>2026-03-22T11:24:57.353Z</time></trkpt><trkpt lat="43.3084217" lon="11.403025"><ele>227.0</ele><time>2026-03-22T11:24:58.354Z</time></trkpt><trkpt lat="43.30833" lon="11.4030333"><ele>227.0</ele><time>2026-03-22T11:24:59.354Z</time></trkpt><trkpt lat="43.308215" lon="11.4030633"><ele>227.0</ele><time>2026-03-22T11:25:00.354Z</time></trkpt><trkpt lat="43.3080783" lon="11.403095"><ele>227.0</ele><time>2026-03-22T11:25:01.354Z</time></trkpt><trkpt lat="43.30794" lon="11.4031133"><ele>227.0</ele><time>2026-03-22T11:25:02.354Z</time></trkpt><trkpt lat="43.3078033" lon="11.4031133"><ele>227.0</ele><time>2026-03-22T11:25:03.354Z</time></trkpt><trkpt lat="43.3076833" lon="11.403115"><ele>226.66666666666669</ele><time>2026-03-22T11:25:04.354Z</time></trkpt><trkpt lat="43.3075983" lon="11.4031233"><ele>226.33333333333334</ele><time>2026-03-22T11:25:05.353Z</time></trkpt><trkpt lat="43.3075167" lon="11.4031367"><ele>226.0</ele><time>2026-03-22T11:25:06.353Z</time></trkpt><trkpt lat="43.3074433" lon="11.4031467"><ele>225.66666666666669</ele><time>2026-03-22T11:25:07.353Z</time></trkpt><trkpt lat="43.3073733" lon="11.4031583"><ele>225.33333333333334</ele><time>2026-03-22T11:25:08.353Z</time></trkpt><trkpt lat="43.3072667" lon="11.403175"><ele>225.0</ele><time>2026-03-22T11:25:10.354Z</time></trkpt><trkpt lat="43.30719" lon="11.4031767"><ele>225.0</ele><time>2026-03-22T11:25:12.354Z</time></trkpt><trkpt lat="43.3072867" lon="11.4031967"><ele>225.0</ele><time>2026-03-22T11:25:19.353Z</time></trkpt><trkpt lat="43.30735" lon="11.4032117"><ele>225.0</ele><time>2026-03-22T11:25:20.354Z</time></trkpt><trkpt lat="43.307425" lon="11.4032367"><ele>225.0</ele><time>2026-03-22T11:25:21.354Z</time></trkpt><trkpt lat="43.30751" lon="11.4032233"><ele>225.0</ele><time>2026-03-22T11:25:22.354Z</time></trkpt><trkpt lat="43.307585" lon="11.4032233"><ele>225.0</ele><time>2026-03-22T11:25:23.353Z</time></trkpt><trkpt lat="43.307675" lon="11.4032367"><ele>225.00000000000003</ele><time>2026-03-22T11:25:25.354Z</time></trkpt><trkpt lat="43.3076667" lon="11.4033267"><ele>225.0</ele><time>2026-03-22T11:25:28.353Z</time></trkpt><trkpt lat="43.30764" lon="11.403445"><ele>225.00000000000003</ele><time>2026-03-22T11:28:43.354Z</time></trkpt><trkpt lat="43.3076217" lon="11.4035417"><ele>225.00000000000003</ele><time>2026-03-22T11:29:31.354Z</time></trkpt><trkpt lat="43.307575" lon="11.4036"><ele>225.0</ele><time>2026-03-22T11:29:59.354Z</time></trkpt><trkpt lat="43.307545" lon="11.4036967"><ele>225.00000000000003</ele><time>2026-03-22T11:30:02.354Z</time></trkpt><trkpt lat="43.3075367" lon="11.40379"><ele>225.00000000000003</ele><time>2026-03-22T11:30:04.354Z</time></trkpt><trkpt lat="43.3075333" lon="11.4038917"><ele>223.83333333333334</ele><time>2026-03-22T11:30:06.354Z</time></trkpt><trkpt lat="43.3075117" lon="11.4040033"><ele>222.66666666666669</ele><time>2026-03-22T11:30:08.354Z</time></trkpt><trkpt lat="43.3074833" lon="11.40409"><ele>221.5</ele><time>2026-03-22T11:30:10.354Z</time></trkpt><trkpt lat="43.3074233" lon="11.404165"><ele>220.33333333333334</ele><time>2026-03-22T11:30:12.354Z</time></trkpt><trkpt lat="43.3073317" lon="11.4041867"><ele>219.16666666666669</ele><time>2026-03-22T11:30:14.353Z</time></trkpt><trkpt lat="43.3072217" lon="11.4041933"><ele>218.0</ele><time>2026-03-22T11:30:16.354Z</time></trkpt><trkpt lat="43.3071183" lon="11.4042083"><ele>217.4</ele><time>2026-03-22T11:30:18.353Z</time></trkpt><trkpt lat="43.3070183" lon="11.40428"><ele>216.8</ele><time>2026-03-22T11:30:20.354Z</time></trkpt><trkpt lat="43.3069433" lon="11.404395"><ele>216.2</ele><time>2026-03-22T11:30:22.354Z</time></trkpt><trkpt lat="43.3068867" lon="11.4045017"><ele>215.6</ele><time>2026-03-22T11:30:24.354Z</time></trkpt><trkpt lat="43.30681" lon="11.404615"><ele>215.0</ele><time>2026-03-22T11:30:26.354Z</time></trkpt><trkpt lat="43.30674" lon="11.4047133"><ele>214.0</ele><time>2026-03-22T11:30:28.354Z</time></trkpt><trkpt lat="43.3066767" lon="11.4047917"><ele>213.0</ele><time>2026-03-22T11:30:30.354Z</time></trkpt><trkpt lat="43.3066017" lon="11.404835"><ele>212.0</ele><time>2026-03-22T11:33:02.354Z</time></trkpt><trkpt lat="43.30653" lon="11.4049167"><ele>211.0</ele><time>2026-03-22T11:33:04.355Z</time></trkpt><trkpt lat="43.3064367" lon="11.4050033"><ele>210.0</ele><time>2026-03-22T11:33:06.355Z</time></trkpt><trkpt lat="43.306365" lon="11.40507"><ele>209.2</ele><time>2026-03-22T11:33:08.355Z</time></trkpt><trkpt lat="43.3062817" lon="11.4050733"><ele>208.4</ele><time>2026-03-22T11:33:16.355Z</time></trkpt><trkpt lat="43.3061867" lon="11.40504"><ele>207.60000000000002</ele><time>2026-03-22T11:33:19.355Z</time></trkpt><trkpt lat="43.3061267" lon="11.40496"><ele>206.8</ele><time>2026-03-22T11:33:21.355Z</time></trkpt><trkpt lat="43.3060233" lon="11.40484"><ele>206.0</ele><time>2026-03-22T11:33:23.355Z</time></trkpt><trkpt lat="43.305965" lon="11.4047717"><ele>206.0</ele><time>2026-03-22T11:33:24.355Z</time></trkpt><trkpt lat="43.3059" lon="11.4047083"><ele>206.0</ele><time>2026-03-22T11:33:25.355Z</time></trkpt><trkpt lat="43.305825" lon="11.4046517"><ele>206.0</ele><time>2026-03-22T11:33:26.354Z</time></trkpt><trkpt lat="43.3057317" lon="11.404605"><ele>206.0</ele><time>2026-03-22T11:33:27.355Z</time></trkpt><trkpt lat="43.30563" lon="11.4045733"><ele>206.0</ele><time>2026-03-22T11:33:28.355Z</time></trkpt><trkpt lat="43.30553" lon="11.4045583"><ele>207.20000000000002</ele><time>2026-03-22T11:33:29.355Z</time></trkpt><trkpt lat="43.30543" lon="11.4045483"><ele>208.4</ele><time>2026-03-22T11:33:30.355Z</time></trkpt><trkpt lat="43.3053233" lon="11.404535"><ele>209.6</ele><time>2026-03-22T11:33:31.355Z</time></trkpt><trkpt lat="43.3052117" lon="11.404515"><ele>210.8</ele><time>2026-03-22T11:33:32.355Z</time></trkpt><trkpt lat="43.305105" lon="11.4044983"><ele>212.0</ele><time>2026-03-22T11:33:33.354Z</time></trkpt><trkpt lat="43.3050167" lon="11.4044917"><ele>212.0</ele><time>2026-03-22T11:33:34.355Z</time></trkpt><trkpt lat="43.3049317" lon="11.40449"><ele>212.0</ele><time>2026-03-22T11:33:35.355Z</time></trkpt><trkpt lat="43.3048483" lon="11.4044883"><ele>212.0</ele><time>2026-03-22T11:33:36.355Z</time></trkpt><trkpt lat="43.3047567" lon="11.4044883"><ele>212.0</ele><time>2026-03-22T11:33:37.355Z</time></trkpt><trkpt lat="43.3046583" lon="11.404485"><ele>212.0</ele><time>2026-03-22T11:33:38.355Z</time></trkpt><trkpt lat="43.3045483" lon="11.4044733"><ele>211.0</ele><time>2026-03-22T11:33:39.355Z</time></trkpt><trkpt lat="43.304435" lon="11.4044583"><ele>210.0</ele><time>2026-03-22T11:33:40.355Z</time></trkpt><trkpt lat="43.3043183" lon="11.404445"><ele>209.0</ele><time>2026-03-22T11:33:41.354Z</time></trkpt><trkpt lat="43.3042083" lon="11.404425"><ele>208.0</ele><time>2026-03-22T11:33:42.355Z</time></trkpt><trkpt lat="43.30412" lon="11.4044167"><ele>207.0</ele><time>2026-03-22T11:33:43.355Z</time></trkpt><trkpt lat="43.3040467" lon="11.4044133"><ele>207.0</ele><time>2026-03-22T11:33:44.355Z</time></trkpt><trkpt lat="43.3039717" lon="11.4044033"><ele>207.0</ele><time>2026-03-22T11:33:46.355Z</time></trkpt><trkpt lat="43.3038783" lon="11.404385"><ele>207.0</ele><time>2026-03-22T11:33:48.355Z</time></trkpt><trkpt lat="43.303815" lon="11.4043717"><ele>207.0</ele><time>2026-03-22T11:33:49.355Z</time></trkpt><trkpt lat="43.3036817" lon="11.4043533"><ele>207.0</ele><time>2026-03-22T11:33:51.355Z</time></trkpt><trkpt lat="43.3036033" lon="11.4043617"><ele>207.0</ele><time>2026-03-22T11:33:52.355Z</time></trkpt><trkpt lat="43.3035183" lon="11.4043667"><ele>206.16666666666666</ele><time>2026-03-22T11:33:53.355Z</time></trkpt><trkpt lat="43.30343" lon="11.4043917"><ele>205.33333333333331</ele><time>2026-03-22T11:33:54.354Z</time></trkpt><trkpt lat="43.3033567" lon="11.4044217"><ele>204.5</ele><time>2026-03-22T11:33:55.354Z</time></trkpt><trkpt lat="43.3032917" lon="11.4044717"><ele>203.66666666666666</ele><time>2026-03-22T11:33:56.355Z</time></trkpt><trkpt lat="43.303225" lon="11.404535"><ele>202.83333333333331</ele><time>2026-03-22T11:33:57.354Z</time></trkpt><trkpt lat="43.303165" lon="11.4046117"><ele>202.0</ele><time>2026-03-22T11:33:58.355Z</time></trkpt><trkpt lat="43.3031" lon="11.4046983"><ele>199.8</ele><time>2026-03-22T11:33:59.355Z</time></trkpt><trkpt lat="43.30303" lon="11.4047867"><ele>197.6</ele><time>2026-03-22T11:34:00.355Z</time></trkpt><trkpt lat="43.3029533" lon="11.40488"><ele>195.4</ele><time>2026-03-22T11:34:01.355Z</time></trkpt><trkpt lat="43.3028733" lon="11.4049767"><ele>193.20000000000002</ele><time>2026-03-22T11:34:02.355Z</time></trkpt><trkpt lat="43.3027967" lon="11.4050683"><ele>191.0</ele><time>2026-03-22T11:34:03.354Z</time></trkpt><trkpt lat="43.302725" lon="11.405155"><ele>191.0</ele><time>2026-03-22T11:34:04.355Z</time></trkpt><trkpt lat="43.3026617" lon="11.4052383"><ele>191.0</ele><time>2026-03-22T11:34:05.355Z</time></trkpt><trkpt lat="43.3026067" lon="11.4053183"><ele>191.0</ele><time>2026-03-22T11:34:06.355Z</time></trkpt><trkpt lat="43.3025133" lon="11.405425"><ele>191.0</ele><time>2026-03-22T11:34:08.355Z</time></trkpt><trkpt lat="43.3024383" lon="11.4054417"><ele>191.0</ele><time>2026-03-22T11:34:10.354Z</time></trkpt><trkpt lat="43.3023717" lon="11.405385"><ele>191.0</ele><time>2026-03-22T11:34:12.354Z</time></trkpt><trkpt lat="43.3022917" lon="11.4052367"><ele>190.66666666666666</ele><time>2026-03-22T11:34:14.355Z</time></trkpt><trkpt lat="43.3022367" lon="11.40515"><ele>190.33333333333331</ele><time>2026-03-22T11:34:15.355Z</time></trkpt><trkpt lat="43.3021767" lon="11.4050583"><ele>190.0</ele><time>2026-03-22T11:34:16.355Z</time></trkpt><trkpt lat="43.3021167" lon="11.40497"><ele>189.66666666666666</ele><time>2026-03-22T11:34:17.355Z</time></trkpt><trkpt lat="43.302055" lon="11.4048833"><ele>189.33333333333334</ele><time>2026-03-22T11:34:18.355Z</time></trkpt><trkpt lat="43.3019883" lon="11.4047933"><ele>189.0</ele><time>2026-03-22T11:34:19.355Z</time></trkpt><trkpt lat="43.3019133" lon="11.4046983"><ele>189.6</ele><time>2026-03-22T11:34:20.355Z</time></trkpt><trkpt lat="43.30184" lon="11.4046017"><ele>190.2</ele><time>2026-03-22T11:34:21.355Z</time></trkpt><trkpt lat="43.3017633" lon="11.4045017"><ele>190.79999999999998</ele><time>2026-03-22T11:34:22.355Z</time></trkpt><trkpt lat="43.3016817" lon="11.40439"><ele>191.39999999999998</ele><time>2026-03-22T11:34:23.354Z</time></trkpt><trkpt lat="43.301585" lon="11.40428"><ele>192.0</ele><time>2026-03-22T11:34:24.355Z</time></trkpt><trkpt lat="43.3014983" lon="11.4041683"><ele>191.6</ele><time>2026-03-22T11:34:25.354Z</time></trkpt><trkpt lat="43.3014" lon="11.40406"><ele>191.2</ele><time>2026-03-22T11:34:26.354Z</time></trkpt><trkpt lat="43.3013217" lon="11.4039567"><ele>190.8</ele><time>2026-03-22T11:34:27.355Z</time></trkpt><trkpt lat="43.30127" lon="11.4038567"><ele>190.4</ele><time>2026-03-22T11:34:28.355Z</time></trkpt><trkpt lat="43.30123" lon="11.4037383"><ele>190.0</ele><time>2026-03-22T11:34:29.355Z</time></trkpt><trkpt lat="43.3011983" lon="11.4036"><ele>191.0</ele><time>2026-03-22T11:34:30.355Z</time></trkpt><trkpt lat="43.3011683" lon="11.4034633"><ele>192.0</ele><time>2026-03-22T11:34:31.355Z</time></trkpt><trkpt lat="43.3011317" lon="11.403315"><ele>193.0</ele><time>2026-03-22T11:34:32.355Z</time></trkpt><trkpt lat="43.3011017" lon="11.403205"><ele>194.0</ele><time>2026-03-22T11:34:33.355Z</time></trkpt><trkpt lat="43.3010617" lon="11.40312"><ele>195.0</ele><time>2026-03-22T11:34:34.355Z</time></trkpt><trkpt lat="43.30101" lon="11.4030467"><ele>195.0</ele><time>2026-03-22T11:34:36.355Z</time></trkpt><trkpt lat="43.300935" lon="11.4030683"><ele>195.0</ele><time>2026-03-22T11:34:40.355Z</time></trkpt><trkpt lat="43.300845" lon="11.4030683"><ele>195.0</ele><time>2026-03-22T11:34:43.355Z</time></trkpt><trkpt lat="43.300745" lon="11.40306"><ele>195.0</ele><time>2026-03-22T11:34:45.355Z</time></trkpt><trkpt lat="43.300635" lon="11.4030367"><ele>195.0</ele><time>2026-03-22T11:34:47.355Z</time></trkpt><trkpt lat="43.3005717" lon="11.403015"><ele>195.0</ele><time>2026-03-22T11:34:48.355Z</time></trkpt><trkpt lat="43.3004883" lon="11.4029967"><ele>192.25</ele><time>2026-03-22T11:34:49.354Z</time></trkpt><trkpt lat="43.3003867" lon="11.4029717"><ele>189.5</ele><time>2026-03-22T11:34:50.355Z</time></trkpt><trkpt lat="43.300275" lon="11.40294"><ele>186.75</ele><time>2026-03-22T11:34:51.354Z</time></trkpt><trkpt lat="43.3001583" lon="11.4029083"><ele>184.0</ele><time>2026-03-22T11:34:52.354Z</time></trkpt><trkpt lat="43.3000433" lon="11.4028783"><ele>184.0</ele><time>2026-03-22T11:34:53.355Z</time></trkpt><trkpt lat="43.299915" lon="11.4028567"><ele>184.0</ele><time>2026-03-22T11:34:54.355Z</time></trkpt><trkpt lat="43.299785" lon="11.402835"><ele>184.0</ele><time>2026-03-22T11:34:55.355Z</time></trkpt><trkpt lat="43.2996433" lon="11.4028383"><ele>184.0</ele><time>2026-03-22T11:34:56.354Z</time></trkpt><trkpt lat="43.2995017" lon="11.4028717"><ele>183.75</ele><time>2026-03-22T11:34:57.355Z</time></trkpt><trkpt lat="43.2993683" lon="11.402905"><ele>183.5</ele><time>2026-03-22T11:34:58.355Z</time></trkpt><trkpt lat="43.2992283" lon="11.402945"><ele>183.25</ele><time>2026-03-22T11:34:59.355Z</time></trkpt><trkpt lat="43.2991017" lon="11.4029833"><ele>183.0</ele><time>2026-03-22T11:35:00.354Z</time></trkpt><trkpt lat="43.2989833" lon="11.4030267"><ele>183.2</ele><time>2026-03-22T11:35:01.354Z</time></trkpt><trkpt lat="43.2988667" lon="11.4030583"><ele>183.4</ele><time>2026-03-22T11:35:02.354Z</time></trkpt><trkpt lat="43.2987567" lon="11.4030667"><ele>183.6</ele><time>2026-03-22T11:35:03.355Z</time></trkpt><trkpt lat="43.298675" lon="11.403025"><ele>183.79999999999998</ele><time>2026-03-22T11:35:04.355Z</time></trkpt><trkpt lat="43.298575" lon="11.402995"><ele>184.0</ele><time>2026-03-22T11:35:05.354Z</time></trkpt><trkpt lat="43.29848" lon="11.4029517"><ele>184.0</ele><time>2026-03-22T11:35:06.355Z</time></trkpt><trkpt lat="43.2983717" lon="11.40292"><ele>184.0</ele><time>2026-03-22T11:35:07.355Z</time></trkpt><trkpt lat="43.2982567" lon="11.402905"><ele>184.0</ele><time>2026-03-22T11:35:08.355Z</time></trkpt><trkpt lat="43.2981267" lon="11.4028783"><ele>184.0</ele><time>2026-03-22T11:35:09.354Z</time></trkpt><trkpt lat="43.29799" lon="11.4028333"><ele>183.25</ele><time>2026-03-22T11:35:10.355Z</time></trkpt><trkpt lat="43.2978483" lon="11.40278"><ele>182.5</ele><time>2026-03-22T11:35:11.354Z</time></trkpt><trkpt lat="43.2977083" lon="11.4027417"><ele>181.75</ele><time>2026-03-22T11:35:12.355Z</time></trkpt><trkpt lat="43.2975567" lon="11.4027183"><ele>181.0</ele><time>2026-03-22T11:35:13.355Z</time></trkpt><trkpt lat="43.2974067" lon="11.4027133"><ele>181.0</ele><time>2026-03-22T11:35:14.355Z</time></trkpt><trkpt lat="43.29726" lon="11.4027083"><ele>181.0</ele><time>2026-03-22T11:35:15.355Z</time></trkpt><trkpt lat="43.2970983" lon="11.4027067"><ele>181.0</ele><time>2026-03-22T11:35:16.354Z</time></trkpt><trkpt lat="43.2969383" lon="11.4027083"><ele>182.0</ele><time>2026-03-22T11:35:17.355Z</time></trkpt><trkpt lat="43.2967767" lon="11.4027"><ele>183.0</ele><time>2026-03-22T11:35:18.355Z</time></trkpt><trkpt lat="43.296625" lon="11.4027"><ele>184.0</ele><time>2026-03-22T11:35:19.354Z</time></trkpt><trkpt lat="43.2964817" lon="11.402685"><ele>183.25</ele><time>2026-03-22T11:35:20.355Z</time></trkpt><trkpt lat="43.2963467" lon="11.402655"><ele>182.5</ele><time>2026-03-22T11:35:21.355Z</time></trkpt><trkpt lat="43.2962267" lon="11.4026183"><ele>181.75</ele><time>2026-03-22T11:35:22.354Z</time></trkpt><trkpt lat="43.296125" lon="11.4025517"><ele>181.0</ele><time>2026-03-22T11:35:23.355Z</time></trkpt><trkpt lat="43.2960383" lon="11.4024733"><ele>181.0</ele><time>2026-03-22T11:35:24.355Z</time></trkpt><trkpt lat="43.29597" lon="11.4023633"><ele>181.0</ele><time>2026-03-22T11:35:25.355Z</time></trkpt><trkpt lat="43.2959267" lon="11.4022517"><ele>181.0</ele><time>2026-03-22T11:35:26.355Z</time></trkpt><trkpt lat="43.2958983" lon="11.4021283"><ele>181.0</ele><time>2026-03-22T11:35:27.355Z</time></trkpt><trkpt lat="43.2958717" lon="11.4020133"><ele>181.0</ele><time>2026-03-22T11:35:28.354Z</time></trkpt><trkpt lat="43.29583" lon="11.4019417"><ele>181.0</ele><time>2026-03-22T11:35:29.354Z</time></trkpt><trkpt lat="43.2957383" lon="11.401895"><ele>181.0</ele><time>2026-03-22T11:35:31.354Z</time></trkpt><trkpt lat="43.2956867" lon="11.4019517"><ele>181.0</ele><time>2026-03-22T11:35:32.355Z</time></trkpt><trkpt lat="43.2956333" lon="11.4020483"><ele>181.0</ele><time>2026-03-22T11:35:33.354Z</time></trkpt><trkpt lat="43.29559" lon="11.4021983"><ele>181.0</ele><time>2026-03-22T11:35:34.355Z</time></trkpt><trkpt lat="43.2955467" lon="11.4023417"><ele>181.0</ele><time>2026-03-22T11:35:35.355Z</time></trkpt><trkpt lat="43.29549" lon="11.4024567"><ele>180.25</ele><time>2026-03-22T11:35:36.355Z</time></trkpt><trkpt lat="43.2954233" lon="11.402565"><ele>179.5</ele><time>2026-03-22T11:35:37.355Z</time></trkpt><trkpt lat="43.2953417" lon="11.4026717"><ele>178.75</ele><time>2026-03-22T11:35:38.355Z</time></trkpt><trkpt lat="43.2952483" lon="11.4027733"><ele>178.0</ele><time>2026-03-22T11:35:39.355Z</time></trkpt><trkpt lat="43.2951583" lon="11.4028833"><ele>178.0</ele><time>2026-03-22T11:35:40.354Z</time></trkpt><trkpt lat="43.2950633" lon="11.4029883"><ele>178.0</ele><time>2026-03-22T11:35:41.355Z</time></trkpt><trkpt lat="43.294975" lon="11.4031"><ele>178.0</ele><time>2026-03-22T11:35:42.355Z</time></trkpt><trkpt lat="43.2948983" lon="11.40323"><ele>178.0</ele><time>2026-03-22T11:35:43.355Z</time></trkpt><trkpt lat="43.294855" lon="11.4033667"><ele>178.2</ele><time>2026-03-22T11:35:44.354Z</time></trkpt><trkpt lat="43.2948467" lon="11.4035083"><ele>178.4</ele><time>2026-03-22T11:35:45.355Z</time></trkpt><trkpt lat="43.2948717" lon="11.4036417"><ele>178.6</ele><time>2026-03-22T11:35:46.355Z</time></trkpt><trkpt lat="43.2949117" lon="11.4037333"><ele>178.79999999999998</ele><time>2026-03-22T11:35:47.354Z</time></trkpt><trkpt lat="43.2949517" lon="11.40387"><ele>179.0</ele><time>2026-03-22T11:35:49.355Z</time></trkpt><trkpt lat="43.2948783" lon="11.4037917"><ele>179.0</ele><time>2026-03-22T11:35:53.355Z</time></trkpt><trkpt lat="43.29486" lon="11.4037083"><ele>179.0</ele><time>2026-03-22T11:35:54.354Z</time></trkpt><trkpt lat="43.2948417" lon="11.403605"><ele>179.0</ele><time>2026-03-22T11:35:55.355Z</time></trkpt><trkpt lat="43.2948317" lon="11.4034933"><ele>179.0</ele><time>2026-03-22T11:35:56.355Z</time></trkpt><trkpt lat="43.2948217" lon="11.4033933"><ele>179.0</ele><time>2026-03-22T11:35:57.355Z</time></trkpt><trkpt lat="43.2948217" lon="11.40326"><ele>179.0</ele><time>2026-03-22T11:35:59.354Z</time></trkpt><trkpt lat="43.2948367" lon="11.4031733"><ele>179.0</ele><time>2026-03-22T11:36:01.355Z</time></trkpt><trkpt lat="43.294875" lon="11.403075"><ele>179.0</ele><time>2026-03-22T11:36:03.355Z</time></trkpt><trkpt lat="43.2949333" lon="11.4029383"><ele>179.0</ele><time>2026-03-22T11:36:05.355Z</time></trkpt><trkpt lat="43.2949533" lon="11.4028517"><ele>179.0</ele><time>2026-03-22T11:36:06.355Z</time></trkpt><trkpt lat="43.2949617" lon="11.4027617"><ele>179.0</ele><time>2026-03-22T11:36:07.355Z</time></trkpt><trkpt lat="43.2948967" lon="11.40261"><ele>178.75</ele><time>2026-03-22T11:36:09.355Z</time></trkpt><trkpt lat="43.2948167" lon="11.402535"><ele>178.5</ele><time>2026-03-22T11:36:10.354Z</time></trkpt><trkpt lat="43.2947183" lon="11.4024517"><ele>178.25</ele><time>2026-03-22T11:36:11.355Z</time></trkpt><trkpt lat="43.2946117" lon="11.4023483"><ele>178.0</ele><time>2026-03-22T11:36:12.355Z</time></trkpt><trkpt lat="43.29448" lon="11.4022383"><ele>178.33333333333334</ele><time>2026-03-22T11:36:13.355Z</time></trkpt><trkpt lat="43.294355" lon="11.40212"><ele>178.66666666666666</ele><time>2026-03-22T11:36:14.355Z</time></trkpt><trkpt lat="43.29422" lon="11.4019983"><ele>179.0</ele><time>2026-03-22T11:36:15.354Z</time></trkpt><trkpt lat="43.29409" lon="11.401885"><ele>179.0</ele><time>2026-03-22T11:36:16.355Z</time></trkpt><trkpt lat="43.29397" lon="11.4017683"><ele>179.0</ele><time>2026-03-22T11:36:17.355Z</time></trkpt><trkpt lat="43.2938517" lon="11.40165"><ele>179.0</ele><time>2026-03-22T11:36:18.355Z</time></trkpt><trkpt lat="43.2937233" lon="11.4015367"><ele>179.0</ele><time>2026-03-22T11:36:19.354Z</time></trkpt><trkpt lat="43.2936067" lon="11.4014167"><ele>179.0</ele><time>2026-03-22T11:36:20.355Z</time></trkpt><trkpt lat="43.2935067" lon="11.40129"><ele>179.0</ele><time>2026-03-22T11:36:21.355Z</time></trkpt><trkpt lat="43.29341" lon="11.4011617"><ele>179.0</ele><time>2026-03-22T11:36:22.355Z</time></trkpt><trkpt lat="43.2933217" lon="11.4010367"><ele>179.0</ele><time>2026-03-22T11:36:23.355Z</time></trkpt><trkpt lat="43.29324" lon="11.4009167"><ele>179.0</ele><time>2026-03-22T11:36:24.355Z</time></trkpt><trkpt lat="43.2931483" lon="11.4008067"><ele>179.0</ele><time>2026-03-22T11:36:25.355Z</time></trkpt><trkpt lat="43.293065" lon="11.4007"><ele>179.0</ele><time>2026-03-22T11:36:26.355Z</time></trkpt><trkpt lat="43.29298" lon="11.4006083"><ele>179.0</ele><time>2026-03-22T11:36:27.355Z</time></trkpt><trkpt lat="43.2929017" lon="11.4005267"><ele>179.0</ele><time>2026-03-22T11:36:28.355Z</time></trkpt><trkpt lat="43.2928167" lon="11.4004633"><ele>179.0</ele><time>2026-03-22T11:36:29.355Z</time></trkpt><trkpt lat="43.29272" lon="11.4004283"><ele>179.0</ele><time>2026-03-22T11:36:30.355Z</time></trkpt><trkpt lat="43.2926083" lon="11.4004183"><ele>179.0</ele><time>2026-03-22T11:36:31.355Z</time></trkpt><trkpt lat="43.2924983" lon="11.4004183"><ele>179.0</ele><time>2026-03-22T11:36:32.355Z</time></trkpt><trkpt lat="43.2924017" lon="11.400385"><ele>179.0</ele><time>2026-03-22T11:36:33.355Z</time></trkpt><trkpt lat="43.2923033" lon="11.4003117"><ele>178.75</ele><time>2026-03-22T11:36:34.355Z</time></trkpt><trkpt lat="43.2921917" lon="11.4002183"><ele>178.5</ele><time>2026-03-22T11:36:35.355Z</time></trkpt><trkpt lat="43.2920867" lon="11.400105"><ele>178.25</ele><time>2026-03-22T11:36:36.355Z</time></trkpt><trkpt lat="43.29198" lon="11.3999933"><ele>178.0</ele><time>2026-03-22T11:36:37.355Z</time></trkpt><trkpt lat="43.291865" lon="11.399875"><ele>178.0</ele><time>2026-03-22T11:36:38.354Z</time></trkpt><trkpt lat="43.291765" lon="11.3997717"><ele>178.0</ele><time>2026-03-22T11:36:39.355Z</time></trkpt><trkpt lat="43.2916683" lon="11.39968"><ele>178.0</ele><time>2026-03-22T11:36:40.355Z</time></trkpt><trkpt lat="43.29159" lon="11.399595"><ele>178.0</ele><time>2026-03-22T11:36:41.355Z</time></trkpt><trkpt lat="43.2915233" lon="11.39954"><ele>178.0</ele><time>2026-03-22T11:36:42.355Z</time></trkpt><trkpt lat="43.2914633" lon="11.3994833"><ele>178.0</ele><time>2026-03-22T11:36:44.355Z</time></trkpt><trkpt lat="43.291425" lon="11.3994033"><ele>178.0</ele><time>2026-03-22T11:36:46.355Z</time></trkpt><trkpt lat="43.2913967" lon="11.3992967"><ele>178.0</ele><time>2026-03-22T11:36:49.355Z</time></trkpt><trkpt lat="43.2914383" lon="11.39941"><ele>178.0</ele><time>2026-03-22T11:37:19.354Z</time></trkpt><trkpt lat="43.2914117" lon="11.39951"><ele>178.0</ele><time>2026-03-22T11:37:22.355Z</time></trkpt><trkpt lat="43.2913517" lon="11.39958"><ele>178.0</ele><time>2026-03-22T11:37:25.355Z</time></trkpt><trkpt lat="43.291285" lon="11.3996083"><ele>178.0</ele><time>2026-03-22T11:37:27.355Z</time></trkpt><trkpt lat="43.2912067" lon="11.3996233"><ele>178.0</ele><time>2026-03-22T11:37:29.355Z</time></trkpt><trkpt lat="43.2910817" lon="11.399645"><ele>178.0</ele><time>2026-03-22T11:37:31.355Z</time></trkpt><trkpt lat="43.2909983" lon="11.3996567"><ele>178.0</ele><time>2026-03-22T11:37:32.355Z</time></trkpt><trkpt lat="43.290905" lon="11.3996667"><ele>178.0</ele><time>2026-03-22T11:37:33.354Z</time></trkpt><trkpt lat="43.2907983" lon="11.39968"><ele>178.0</ele><time>2026-03-22T11:37:34.354Z</time></trkpt><trkpt lat="43.2906833" lon="11.3996967"><ele>178.0</ele><time>2026-03-22T11:37:35.355Z</time></trkpt><trkpt lat="43.2905533" lon="11.3997133"><ele>178.0</ele><time>2026-03-22T11:37:36.354Z</time></trkpt><trkpt lat="43.2904217" lon="11.3997367"><ele>178.0</ele><time>2026-03-22T11:37:37.355Z</time></trkpt><trkpt lat="43.2902917" lon="11.3997567"><ele>178.0</ele><time>2026-03-22T11:37:38.355Z</time></trkpt><trkpt lat="43.2901617" lon="11.3997717"><ele>178.0</ele><time>2026-03-22T11:37:39.355Z</time></trkpt><trkpt lat="43.2900267" lon="11.3997883"><ele>178.0</ele><time>2026-03-22T11:37:40.355Z</time></trkpt><trkpt lat="43.289885" lon="11.3998083"><ele>178.0</ele><time>2026-03-22T11:37:41.355Z</time></trkpt><trkpt lat="43.2897417" lon="11.3998383"><ele>180.0</ele><time>2026-03-22T11:37:42.354Z</time></trkpt><trkpt lat="43.2895867" lon="11.3998617"><ele>182.0</ele><time>2026-03-22T11:37:43.354Z</time></trkpt><trkpt lat="43.2894283" lon="11.3998883"><ele>184.0</ele><time>2026-03-22T11:37:44.355Z</time></trkpt><trkpt lat="43.289275" lon="11.3999083"><ele>184.0</ele><time>2026-03-22T11:37:45.355Z</time></trkpt><trkpt lat="43.2891267" lon="11.3999233"><ele>184.0</ele><time>2026-03-22T11:37:46.355Z</time></trkpt><trkpt lat="43.2889833" lon="11.39994"><ele>184.0</ele><time>2026-03-22T11:37:47.355Z</time></trkpt><trkpt lat="43.2888433" lon="11.3999467"><ele>184.0</ele><time>2026-03-22T11:37:48.355Z</time></trkpt><trkpt lat="43.2887117" lon="11.3999517"><ele>184.79999999999998</ele><time>2026-03-22T11:37:49.355Z</time></trkpt><trkpt lat="43.288595" lon="11.3999633"><ele>185.6</ele><time>2026-03-22T11:37:50.354Z</time></trkpt><trkpt lat="43.2884917" lon="11.39997"><ele>186.4</ele><time>2026-03-22T11:37:51.354Z</time></trkpt><trkpt lat="43.2883867" lon="11.3999267"><ele>187.2</ele><time>2026-03-22T11:37:53.355Z</time></trkpt><trkpt lat="43.28834" lon="11.3998017"><ele>188.0</ele><time>2026-03-22T11:37:55.355Z</time></trkpt><trkpt lat="43.28832" lon="11.3996233"><ele>188.0</ele><time>2026-03-22T11:37:57.355Z</time></trkpt><trkpt lat="43.28832" lon="11.3995033"><ele>188.0</ele><time>2026-03-22T11:37:58.355Z</time></trkpt><trkpt lat="43.2883117" lon="11.399365"><ele>188.0</ele><time>2026-03-22T11:37:59.355Z</time></trkpt><trkpt lat="43.28829" lon="11.3992083"><ele>188.0</ele><time>2026-03-22T11:38:00.355Z</time></trkpt><trkpt lat="43.2882483" lon="11.3990817"><ele>188.0</ele><time>2026-03-22T11:38:01.355Z</time></trkpt><trkpt lat="43.2881933" lon="11.3989633"><ele>188.5</ele><time>2026-03-22T11:38:02.355Z</time></trkpt><trkpt lat="43.2881167" lon="11.39883"><ele>189.0</ele><time>2026-03-22T11:38:03.355Z</time></trkpt><trkpt lat="43.2880517" lon="11.398695"><ele>189.5</ele><time>2026-03-22T11:38:04.355Z</time></trkpt><trkpt lat="43.2879917" lon="11.3985667"><ele>190.0</ele><time>2026-03-22T11:38:05.354Z</time></trkpt><trkpt lat="43.2879267" lon="11.3983967"><ele>190.0</ele><time>2026-03-22T11:38:06.355Z</time></trkpt><trkpt lat="43.2878567" lon="11.3982217"><ele>190.0</ele><time>2026-03-22T11:38:07.355Z</time></trkpt><trkpt lat="43.287775" lon="11.3980533"><ele>190.0</ele><time>2026-03-22T11:38:08.355Z</time></trkpt><trkpt lat="43.2876983" lon="11.397895"><ele>190.0</ele><time>2026-03-22T11:38:09.355Z</time></trkpt><trkpt lat="43.2876133" lon="11.3977467"><ele>189.5</ele><time>2026-03-22T11:38:10.355Z</time></trkpt><trkpt lat="43.28753" lon="11.39762"><ele>189.0</ele><time>2026-03-22T11:38:11.355Z</time></trkpt><trkpt lat="43.2874333" lon="11.397505"><ele>188.5</ele><time>2026-03-22T11:38:12.355Z</time></trkpt><trkpt lat="43.2873167" lon="11.3974017"><ele>188.0</ele><time>2026-03-22T11:38:13.355Z</time></trkpt><trkpt lat="43.2871933" lon="11.3973017"><ele>188.0</ele><time>2026-03-22T11:38:14.355Z</time></trkpt><trkpt lat="43.2870567" lon="11.3971917"><ele>188.0</ele><time>2026-03-22T11:38:15.355Z</time></trkpt><trkpt lat="43.2869083" lon="11.39708"><ele>188.0</ele><time>2026-03-22T11:38:16.355Z</time></trkpt><trkpt lat="43.2867633" lon="11.39697"><ele>187.0</ele><time>2026-03-22T11:38:17.354Z</time></trkpt><trkpt lat="43.286615" lon="11.3968683"><ele>186.0</ele><time>2026-03-22T11:38:18.355Z</time></trkpt><trkpt lat="43.2864667" lon="11.3967667"><ele>185.0</ele><time>2026-03-22T11:38:19.355Z</time></trkpt><trkpt lat="43.2863183" lon="11.39666"><ele>185.0</ele><time>2026-03-22T11:38:20.355Z</time></trkpt><trkpt lat="43.2861717" lon="11.3965467"><ele>185.0</ele><time>2026-03-22T11:38:21.355Z</time></trkpt><trkpt lat="43.2860283" lon="11.3964083"><ele>185.0</ele><time>2026-03-22T11:38:22.355Z</time></trkpt><trkpt lat="43.2858817" lon="11.3962717"><ele>184.33333333333331</ele><time>2026-03-22T11:38:23.355Z</time></trkpt><trkpt lat="43.2857317" lon="11.3961367"><ele>183.66666666666666</ele><time>2026-03-22T11:38:24.355Z</time></trkpt><trkpt lat="43.28559" lon="11.396015"><ele>183.0</ele><time>2026-03-22T11:38:25.355Z</time></trkpt><trkpt lat="43.28545" lon="11.3958867"><ele>183.0</ele><time>2026-03-22T11:38:26.355Z</time></trkpt><trkpt lat="43.2853117" lon="11.3957583"><ele>183.0</ele><time>2026-03-22T11:38:27.355Z</time></trkpt><trkpt lat="43.285185" lon="11.395645"><ele>183.0</ele><time>2026-03-22T11:38:28.355Z</time></trkpt><trkpt lat="43.28507" lon="11.39555"><ele>183.0</ele><time>2026-03-22T11:38:29.355Z</time></trkpt><trkpt lat="43.2849617" lon="11.3954667"><ele>183.0</ele><time>2026-03-22T11:38:30.354Z</time></trkpt><trkpt lat="43.2848567" lon="11.3953933"><ele>183.0</ele><time>2026-03-22T11:38:31.355Z</time></trkpt><trkpt lat="43.2847367" lon="11.3953367"><ele>183.0</ele><time>2026-03-22T11:38:32.355Z</time></trkpt><trkpt lat="43.2845983" lon="11.3952883"><ele>183.0</ele><time>2026-03-22T11:38:33.355Z</time></trkpt><trkpt lat="43.2844733" lon="11.395245"><ele>183.0</ele><time>2026-03-22T11:38:34.355Z</time></trkpt><trkpt lat="43.284365" lon="11.3951967"><ele>183.0</ele><time>2026-03-22T11:38:35.355Z</time></trkpt><trkpt lat="43.2842817" lon="11.395115"><ele>183.0</ele><time>2026-03-22T11:38:36.355Z</time></trkpt><trkpt lat="43.28422" lon="11.3950083"><ele>183.0</ele><time>2026-03-22T11:38:37.355Z</time></trkpt><trkpt lat="43.28416" lon="11.394855"><ele>183.0</ele><time>2026-03-22T11:38:38.355Z</time></trkpt><trkpt lat="43.2841" lon="11.39469"><ele>183.0</ele><time>2026-03-22T11:38:39.354Z</time></trkpt><trkpt lat="43.2840333" lon="11.394535"><ele>183.0</ele><time>2026-03-22T11:38:40.355Z</time></trkpt><trkpt lat="43.2839583" lon="11.394385"><ele>183.0</ele><time>2026-03-22T11:38:41.354Z</time></trkpt><trkpt lat="43.2838883" lon="11.3942383"><ele>182.4</ele><time>2026-03-22T11:38:42.354Z</time></trkpt><trkpt lat="43.2838033" lon="11.3941067"><ele>181.8</ele><time>2026-03-22T11:38:43.354Z</time></trkpt><trkpt lat="43.2837383" lon="11.393975"><ele>181.2</ele><time>2026-03-22T11:38:44.355Z</time></trkpt><trkpt lat="43.2836817" lon="11.39387"><ele>180.6</ele><time>2026-03-22T11:38:45.355Z</time></trkpt><trkpt lat="43.2836217" lon="11.393815"><ele>180.0</ele><time>2026-03-22T11:38:46.355Z</time></trkpt><trkpt lat="43.2835567" lon="11.39377"><ele>179.8</ele><time>2026-03-22T11:38:47.355Z</time></trkpt><trkpt lat="43.283475" lon="11.393755"><ele>179.6</ele><time>2026-03-22T11:38:48.354Z</time></trkpt><trkpt lat="43.2833783" lon="11.3937417"><ele>179.39999999999998</ele><time>2026-03-22T11:38:49.355Z</time></trkpt><trkpt lat="43.2832633" lon="11.39375"><ele>179.2</ele><time>2026-03-22T11:38:50.355Z</time></trkpt><trkpt lat="43.2831433" lon="11.3937817"><ele>179.0</ele><time>2026-03-22T11:38:51.354Z</time></trkpt><trkpt lat="43.283025" lon="11.3938317"><ele>179.25</ele><time>2026-03-22T11:38:52.354Z</time></trkpt><trkpt lat="43.2829033" lon="11.3939083"><ele>179.5</ele><time>2026-03-22T11:38:53.355Z</time></trkpt><trkpt lat="43.28278" lon="11.39397"><ele>179.75</ele><time>2026-03-22T11:38:54.355Z</time></trkpt><trkpt lat="43.2826417" lon="11.394035"><ele>180.0</ele><time>2026-03-22T11:38:55.355Z</time></trkpt><trkpt lat="43.282515" lon="11.3940867"><ele>180.0</ele><time>2026-03-22T11:38:56.355Z</time></trkpt><trkpt lat="43.2823867" lon="11.3941433"><ele>180.0</ele><time>2026-03-22T11:38:57.355Z</time></trkpt><trkpt lat="43.2822683" lon="11.3942017"><ele>180.0</ele><time>2026-03-22T11:38:58.355Z</time></trkpt><trkpt lat="43.2821533" lon="11.3942733"><ele>180.0</ele><time>2026-03-22T11:38:59.355Z</time></trkpt><trkpt lat="43.2820217" lon="11.3943383"><ele>181.0</ele><time>2026-03-22T11:39:00.355Z</time></trkpt><trkpt lat="43.281885" lon="11.3944067"><ele>182.0</ele><time>2026-03-22T11:39:01.355Z</time></trkpt><trkpt lat="43.2817467" lon="11.394475"><ele>183.0</ele><time>2026-03-22T11:39:02.354Z</time></trkpt><trkpt lat="43.2815983" lon="11.39453"><ele>184.0</ele><time>2026-03-22T11:39:03.355Z</time></trkpt><trkpt lat="43.2814617" lon="11.39459"><ele>186.0</ele><time>2026-03-22T11:39:04.355Z</time></trkpt><trkpt lat="43.2813383" lon="11.3946417"><ele>188.0</ele><time>2026-03-22T11:39:05.355Z</time></trkpt><trkpt lat="43.28121" lon="11.3947"><ele>190.0</ele><time>2026-03-22T11:39:06.355Z</time></trkpt><trkpt lat="43.2810733" lon="11.3947567"><ele>192.0</ele><time>2026-03-22T11:39:07.355Z</time></trkpt><trkpt lat="43.2809333" lon="11.39481"><ele>192.39999999999998</ele><time>2026-03-22T11:39:08.354Z</time></trkpt><trkpt lat="43.2808067" lon="11.3948633"><ele>192.79999999999998</ele><time>2026-03-22T11:39:09.355Z</time></trkpt><trkpt lat="43.2806833" lon="11.394915"><ele>193.2</ele><time>2026-03-22T11:39:10.355Z</time></trkpt><trkpt lat="43.2805867" lon="11.3949583"><ele>193.6</ele><time>2026-03-22T11:39:11.355Z</time></trkpt><trkpt lat="43.28051" lon="11.395005"><ele>194.0</ele><time>2026-03-22T11:39:12.354Z</time></trkpt><trkpt lat="43.280455" lon="11.3950683"><ele>195.79999999999998</ele><time>2026-03-22T11:39:13.355Z</time></trkpt><trkpt lat="43.2804167" lon="11.3951383"><ele>197.6</ele><time>2026-03-22T11:39:14.355Z</time></trkpt><trkpt lat="43.2804" lon="11.39524"><ele>199.4</ele><time>2026-03-22T11:39:15.355Z</time></trkpt><trkpt lat="43.28041" lon="11.3953783"><ele>201.2</ele><time>2026-03-22T11:39:16.354Z</time></trkpt><trkpt lat="43.2804133" lon="11.3955483"><ele>203.0</ele><time>2026-03-22T11:39:17.354Z</time></trkpt><trkpt lat="43.2804067" lon="11.3957267"><ele>204.5</ele><time>2026-03-22T11:39:18.355Z</time></trkpt><trkpt lat="43.2804" lon="11.3959117"><ele>206.0</ele><time>2026-03-22T11:39:19.355Z</time></trkpt><trkpt lat="43.2803917" lon="11.3961017"><ele>207.5</ele><time>2026-03-22T11:39:20.355Z</time></trkpt><trkpt lat="43.2803917" lon="11.3962883"><ele>209.0</ele><time>2026-03-22T11:39:21.355Z</time></trkpt><trkpt lat="43.2803917" lon="11.39648"><ele>209.75</ele><time>2026-03-22T11:39:22.355Z</time></trkpt><trkpt lat="43.2803833" lon="11.3966733"><ele>210.5</ele><time>2026-03-22T11:39:23.355Z</time></trkpt><trkpt lat="43.2803767" lon="11.3968583"><ele>211.25</ele><time>2026-03-22T11:39:24.355Z</time></trkpt><trkpt lat="43.28037" lon="11.3970383"><ele>212.0</ele><time>2026-03-22T11:39:25.355Z</time></trkpt><trkpt lat="43.2803467" lon="11.397195"><ele>212.2</ele><time>2026-03-22T11:39:26.355Z</time></trkpt><trkpt lat="43.28031" lon="11.3973433"><ele>212.39999999999998</ele><time>2026-03-22T11:39:27.355Z</time></trkpt><trkpt lat="43.2802483" lon="11.3974767"><ele>212.60000000000002</ele><time>2026-03-22T11:39:28.355Z</time></trkpt><trkpt lat="43.2801733" lon="11.397565"><ele>212.8</ele><time>2026-03-22T11:39:29.355Z</time></trkpt><trkpt lat="43.2800983" lon="11.39765"><ele>213.0</ele><time>2026-03-22T11:39:30.355Z</time></trkpt><trkpt lat="43.2800017" lon="11.3977267"><ele>213.0</ele><time>2026-03-22T11:39:31.355Z</time></trkpt><trkpt lat="43.2799" lon="11.3977983"><ele>213.0</ele><time>2026-03-22T11:39:32.354Z</time></trkpt><trkpt lat="43.2798117" lon="11.3978733"><ele>213.0</ele><time>2026-03-22T11:39:33.354Z</time></trkpt><trkpt lat="43.2797317" lon="11.3979617"><ele>213.0</ele><time>2026-03-22T11:39:34.355Z</time></trkpt><trkpt lat="43.2796667" lon="11.398075"><ele>213.0</ele><time>2026-03-22T11:39:35.355Z</time></trkpt><trkpt lat="43.2796283" lon="11.39823"><ele>212.75</ele><time>2026-03-22T11:39:36.354Z</time></trkpt><trkpt lat="43.27958" lon="11.3984083"><ele>212.5</ele><time>2026-03-22T11:39:37.355Z</time></trkpt><trkpt lat="43.2795283" lon="11.3985667"><ele>212.25</ele><time>2026-03-22T11:39:38.354Z</time></trkpt><trkpt lat="43.2794783" lon="11.3987267"><ele>212.0</ele><time>2026-03-22T11:39:39.355Z</time></trkpt><trkpt lat="43.2794417" lon="11.3989117"><ele>213.5</ele><time>2026-03-22T11:39:40.355Z</time></trkpt><trkpt lat="43.2794117" lon="11.39911"><ele>215.0</ele><time>2026-03-22T11:39:41.355Z</time></trkpt><trkpt lat="43.2793783" lon="11.3993033"><ele>216.5</ele><time>2026-03-22T11:39:42.355Z</time></trkpt><trkpt lat="43.27933" lon="11.3994967"><ele>218.0</ele><time>2026-03-22T11:39:43.355Z</time></trkpt><trkpt lat="43.2792783" lon="11.3996767"><ele>218.25</ele><time>2026-03-22T11:39:44.355Z</time></trkpt><trkpt lat="43.2792333" lon="11.3998333"><ele>218.5</ele><time>2026-03-22T11:39:45.355Z</time></trkpt><trkpt lat="43.2791833" lon="11.39997"><ele>218.75</ele><time>2026-03-22T11:39:46.355Z</time></trkpt><trkpt lat="43.2791383" lon="11.4001217"><ele>219.0</ele><time>2026-03-22T11:39:47.355Z</time></trkpt><trkpt lat="43.2790917" lon="11.4003033"><ele>219.0</ele><time>2026-03-22T11:39:48.355Z</time></trkpt><trkpt lat="43.2790667" lon="11.4004983"><ele>219.0</ele><time>2026-03-22T11:39:49.355Z</time></trkpt><trkpt lat="43.27904" lon="11.4007067"><ele>219.0</ele><time>2026-03-22T11:39:50.355Z</time></trkpt><trkpt lat="43.27904" lon="11.400905"><ele>219.0</ele><time>2026-03-22T11:39:51.355Z</time></trkpt><trkpt lat="43.2790467" lon="11.4010867"><ele>218.75</ele><time>2026-03-22T11:39:52.355Z</time></trkpt><trkpt lat="43.279065" lon="11.4012533"><ele>218.5</ele><time>2026-03-22T11:39:53.354Z</time></trkpt><trkpt lat="43.2791" lon="11.40145"><ele>218.25</ele><time>2026-03-22T11:39:54.355Z</time></trkpt><trkpt lat="43.2791183" lon="11.4016517"><ele>218.0</ele><time>2026-03-22T11:39:55.355Z</time></trkpt><trkpt lat="43.2791267" lon="11.401855"><ele>219.0</ele><time>2026-03-22T11:39:56.355Z</time></trkpt><trkpt lat="43.2791267" lon="11.4020683"><ele>220.0</ele><time>2026-03-22T11:39:57.355Z</time></trkpt><trkpt lat="43.2791317" lon="11.4022717"><ele>221.0</ele><time>2026-03-22T11:39:58.355Z</time></trkpt><trkpt lat="43.2791383" lon="11.4024817"><ele>221.0</ele><time>2026-03-22T11:39:59.354Z</time></trkpt><trkpt lat="43.2791517" lon="11.4026967"><ele>221.0</ele><time>2026-03-22T11:40:00.355Z</time></trkpt><trkpt lat="43.2791617" lon="11.4028883"><ele>221.0</ele><time>2026-03-22T11:40:01.355Z</time></trkpt><trkpt lat="43.2791717" lon="11.40308"><ele>221.0</ele><time>2026-03-22T11:40:02.355Z</time></trkpt><trkpt lat="43.2791917" lon="11.403265"><ele>221.0</ele><time>2026-03-22T11:40:03.355Z</time></trkpt><trkpt lat="43.27922" lon="11.403465"><ele>221.0</ele><time>2026-03-22T11:40:04.355Z</time></trkpt><trkpt lat="43.27927" lon="11.4036517"><ele>221.0</ele><time>2026-03-22T11:40:05.355Z</time></trkpt><trkpt lat="43.2793133" lon="11.4038383"><ele>221.0</ele><time>2026-03-22T11:40:06.355Z</time></trkpt><trkpt lat="43.279365" lon="11.4040367"><ele>221.0</ele><time>2026-03-22T11:40:07.354Z</time></trkpt><trkpt lat="43.2794083" lon="11.4042283"><ele>221.0</ele><time>2026-03-22T11:40:08.354Z</time></trkpt><trkpt lat="43.2794383" lon="11.4044267"><ele>221.0</ele><time>2026-03-22T11:40:09.355Z</time></trkpt><trkpt lat="43.279445" lon="11.404635"><ele>221.0</ele><time>2026-03-22T11:40:10.355Z</time></trkpt><trkpt lat="43.2794583" lon="11.40482"><ele>221.5</ele><time>2026-03-22T11:40:11.355Z</time></trkpt><trkpt lat="43.2794717" lon="11.40498"><ele>222.0</ele><time>2026-03-22T11:40:12.354Z</time></trkpt><trkpt lat="43.2794733" lon="11.4051383"><ele>222.5</ele><time>2026-03-22T11:40:13.355Z</time></trkpt><trkpt lat="43.279455" lon="11.405295"><ele>223.0</ele><time>2026-03-22T11:40:14.355Z</time></trkpt><trkpt lat="43.279435" lon="11.4054633"><ele>224.25</ele><time>2026-03-22T11:40:15.355Z</time></trkpt><trkpt lat="43.2794167" lon="11.40564"><ele>225.5</ele><time>2026-03-22T11:40:16.355Z</time></trkpt><trkpt lat="43.2794083" lon="11.4058167"><ele>226.75</ele><time>2026-03-22T11:40:17.355Z</time></trkpt><trkpt lat="43.27939" lon="11.4059783"><ele>228.0</ele><time>2026-03-22T11:40:18.354Z</time></trkpt><trkpt lat="43.2793617" lon="11.4061417"><ele>228.0</ele><time>2026-03-22T11:40:19.355Z</time></trkpt><trkpt lat="43.27931" lon="11.4062833"><ele>228.0</ele><time>2026-03-22T11:40:20.355Z</time></trkpt><trkpt lat="43.27925" lon="11.4064133"><ele>228.0</ele><time>2026-03-22T11:40:21.355Z</time></trkpt><trkpt lat="43.279175" lon="11.4065117"><ele>228.0</ele><time>2026-03-22T11:40:22.355Z</time></trkpt><trkpt lat="43.279095" lon="11.4065767"><ele>228.0</ele><time>2026-03-22T11:40:23.355Z</time></trkpt><trkpt lat="43.2789883" lon="11.4066117"><ele>229.66666666666666</ele><time>2026-03-22T11:40:24.355Z</time></trkpt><trkpt lat="43.27888" lon="11.4066433"><ele>231.33333333333331</ele><time>2026-03-22T11:40:25.355Z</time></trkpt><trkpt lat="43.2787967" lon="11.4066783"><ele>233.0</ele><time>2026-03-22T11:40:26.355Z</time></trkpt><trkpt lat="43.2787317" lon="11.40672"><ele>234.66666666666666</ele><time>2026-03-22T11:40:27.355Z</time></trkpt><trkpt lat="43.2786567" lon="11.40677"><ele>236.33333333333331</ele><time>2026-03-22T11:40:29.354Z</time></trkpt><trkpt lat="43.27859" lon="11.4068167"><ele>238.0</ele><time>2026-03-22T11:42:09.356Z</time></trkpt><trkpt lat="43.2784833" lon="11.4068333"><ele>238.0</ele><time>2026-03-22T11:42:48.355Z</time></trkpt><trkpt lat="43.2784133" lon="11.4068583"><ele>238.0</ele><time>2026-03-22T11:42:49.356Z</time></trkpt><trkpt lat="43.278335" lon="11.4068833"><ele>238.0</ele><time>2026-03-22T11:42:50.356Z</time></trkpt><trkpt lat="43.2782317" lon="11.4069167"><ele>238.0</ele><time>2026-03-22T11:42:51.355Z</time></trkpt><trkpt lat="43.2781267" lon="11.406945"><ele>238.0</ele><time>2026-03-22T11:42:52.356Z</time></trkpt><trkpt lat="43.2780133" lon="11.4069767"><ele>237.25</ele><time>2026-03-22T11:42:53.355Z</time></trkpt><trkpt lat="43.2778933" lon="11.407"><ele>236.5</ele><time>2026-03-22T11:42:54.356Z</time></trkpt><trkpt lat="43.2777733" lon="11.4070167"><ele>235.75</ele><time>2026-03-22T11:42:55.356Z</time></trkpt><trkpt lat="43.2776733" lon="11.407025"><ele>235.0</ele><time>2026-03-22T11:42:56.356Z</time></trkpt><trkpt lat="43.277565" lon="11.4070383"><ele>235.0</ele><time>2026-03-22T11:42:57.356Z</time></trkpt><trkpt lat="43.2774667" lon="11.407045"><ele>235.0</ele><time>2026-03-22T11:42:58.356Z</time></trkpt><trkpt lat="43.2773617" lon="11.4070267"><ele>235.0</ele><time>2026-03-22T11:42:59.355Z</time></trkpt><trkpt lat="43.277245" lon="11.4069917"><ele>235.0</ele><time>2026-03-22T11:43:00.355Z</time></trkpt><trkpt lat="43.2771183" lon="11.40695"><ele>234.25</ele><time>2026-03-22T11:43:01.356Z</time></trkpt><trkpt lat="43.2769883" lon="11.406905"><ele>233.5</ele><time>2026-03-22T11:43:02.356Z</time></trkpt><trkpt lat="43.276855" lon="11.4068533"><ele>232.75</ele><time>2026-03-22T11:43:03.356Z</time></trkpt><trkpt lat="43.2767217" lon="11.406805"><ele>232.0</ele><time>2026-03-22T11:43:04.355Z</time></trkpt><trkpt lat="43.2765967" lon="11.4067717"><ele>232.0</ele><time>2026-03-22T11:43:05.356Z</time></trkpt><trkpt lat="43.27645" lon="11.4067367"><ele>232.0</ele><time>2026-03-22T11:43:06.355Z</time></trkpt><trkpt lat="43.276315" lon="11.40671"><ele>232.0</ele><time>2026-03-22T11:43:07.356Z</time></trkpt><trkpt lat="43.2761867" lon="11.4066733"><ele>232.0</ele><time>2026-03-22T11:43:08.356Z</time></trkpt><trkpt lat="43.27607" lon="11.406635"><ele>231.75</ele><time>2026-03-22T11:43:09.356Z</time></trkpt><trkpt lat="43.2759433" lon="11.4065983"><ele>231.5</ele><time>2026-03-22T11:43:10.356Z</time></trkpt><trkpt lat="43.2758117" lon="11.4065567"><ele>231.25</ele><time>2026-03-22T11:43:11.356Z</time></trkpt><trkpt lat="43.2756783" lon="11.406505"><ele>231.0</ele><time>2026-03-22T11:43:12.356Z</time></trkpt><trkpt lat="43.2755517" lon="11.406445"><ele>231.0</ele><time>2026-03-22T11:43:13.356Z</time></trkpt><trkpt lat="43.2754217" lon="11.4063783"><ele>231.0</ele><time>2026-03-22T11:43:14.356Z</time></trkpt><trkpt lat="43.27529" lon="11.4063133"><ele>231.0</ele><time>2026-03-22T11:43:15.356Z</time></trkpt><trkpt lat="43.27515" lon="11.4062417"><ele>231.0</ele><time>2026-03-22T11:43:16.356Z</time></trkpt><trkpt lat="43.275025" lon="11.4061683"><ele>232.0</ele><time>2026-03-22T11:43:17.356Z</time></trkpt><trkpt lat="43.2749317" lon="11.4060917"><ele>233.00000000000003</ele><time>2026-03-22T11:43:18.356Z</time></trkpt><trkpt lat="43.2748633" lon="11.4060067"><ele>234.00000000000003</ele><time>2026-03-22T11:43:19.356Z</time></trkpt><trkpt lat="43.274825" lon="11.4059217"><ele>235.0</ele><time>2026-03-22T11:43:20.356Z</time></trkpt><trkpt lat="43.274795" lon="11.405815"><ele>236.0</ele><time>2026-03-22T11:43:21.356Z</time></trkpt><trkpt lat="43.2747733" lon="11.4056817"><ele>236.8</ele><time>2026-03-22T11:43:22.356Z</time></trkpt><trkpt lat="43.2747567" lon="11.4055133"><ele>237.60000000000002</ele><time>2026-03-22T11:43:23.356Z</time></trkpt><trkpt lat="43.2747383" lon="11.4053483"><ele>238.4</ele><time>2026-03-22T11:43:24.356Z</time></trkpt><trkpt lat="43.274705" lon="11.40522"><ele>239.2</ele><time>2026-03-22T11:43:25.355Z</time></trkpt><trkpt lat="43.2746517" lon="11.4051083"><ele>240.0</ele><time>2026-03-22T11:43:26.356Z</time></trkpt><trkpt lat="43.2745867" lon="11.4050083"><ele>240.0</ele><time>2026-03-22T11:43:27.355Z</time></trkpt><trkpt lat="43.2745033" lon="11.404895"><ele>240.0</ele><time>2026-03-22T11:43:28.356Z</time></trkpt><trkpt lat="43.2744067" lon="11.4047883"><ele>240.0</ele><time>2026-03-22T11:43:29.356Z</time></trkpt><trkpt lat="43.2743" lon="11.404655"><ele>240.0</ele><time>2026-03-22T11:43:30.355Z</time></trkpt><trkpt lat="43.2742067" lon="11.4045233"><ele>238.0</ele><time>2026-03-22T11:43:31.356Z</time></trkpt><trkpt lat="43.2741233" lon="11.4043767"><ele>236.0</ele><time>2026-03-22T11:43:32.355Z</time></trkpt><trkpt lat="43.2740567" lon="11.4042167"><ele>234.0</ele><time>2026-03-22T11:43:33.356Z</time></trkpt><trkpt lat="43.2739833" lon="11.404025"><ele>232.0</ele><time>2026-03-22T11:43:34.356Z</time></trkpt><trkpt lat="43.2739217" lon="11.4038367"><ele>230.66666666666666</ele><time>2026-03-22T11:43:35.356Z</time></trkpt><trkpt lat="43.273845" lon="11.403625"><ele>229.33333333333331</ele><time>2026-03-22T11:43:36.356Z</time></trkpt><trkpt lat="43.273775" lon="11.4034"><ele>228.0</ele><time>2026-03-22T11:43:37.355Z</time></trkpt><trkpt lat="43.2737167" lon="11.40318"><ele>228.66666666666669</ele><time>2026-03-22T11:43:38.356Z</time></trkpt><trkpt lat="43.27368" lon="11.40296"><ele>229.33333333333334</ele><time>2026-03-22T11:43:39.356Z</time></trkpt><trkpt lat="43.2736383" lon="11.40274"><ele>230.0</ele><time>2026-03-22T11:43:40.356Z</time></trkpt><trkpt lat="43.2736" lon="11.4025233"><ele>230.0</ele><time>2026-03-22T11:43:41.356Z</time></trkpt><trkpt lat="43.2735567" lon="11.4023133"><ele>230.0</ele><time>2026-03-22T11:43:42.355Z</time></trkpt><trkpt lat="43.2735183" lon="11.4021267"><ele>230.0</ele><time>2026-03-22T11:43:43.356Z</time></trkpt><trkpt lat="43.2734717" lon="11.4019583"><ele>230.0</ele><time>2026-03-22T11:43:44.356Z</time></trkpt><trkpt lat="43.2734167" lon="11.4018017"><ele>230.25</ele><time>2026-03-22T11:43:45.356Z</time></trkpt><trkpt lat="43.2733317" lon="11.40165"><ele>230.5</ele><time>2026-03-22T11:43:46.356Z</time></trkpt><trkpt lat="43.27324" lon="11.4015167"><ele>230.75</ele><time>2026-03-22T11:43:47.356Z</time></trkpt><trkpt lat="43.27314" lon="11.4013867"><ele>231.0</ele><time>2026-03-22T11:43:48.355Z</time></trkpt><trkpt lat="43.273015" lon="11.401275"><ele>231.66666666666669</ele><time>2026-03-22T11:43:49.356Z</time></trkpt><trkpt lat="43.2728733" lon="11.40118"><ele>232.33333333333334</ele><time>2026-03-22T11:43:50.356Z</time></trkpt><trkpt lat="43.27272" lon="11.4011"><ele>233.0</ele><time>2026-03-22T11:43:51.356Z</time></trkpt><trkpt lat="43.272575" lon="11.401025"><ele>233.0</ele><time>2026-03-22T11:43:52.356Z</time></trkpt><trkpt lat="43.2724317" lon="11.4009617"><ele>233.0</ele><time>2026-03-22T11:43:53.355Z</time></trkpt><trkpt lat="43.2722767" lon="11.4009"><ele>233.0</ele><time>2026-03-22T11:43:54.356Z</time></trkpt><trkpt lat="43.2721167" lon="11.40085"><ele>231.66666666666669</ele><time>2026-03-22T11:43:55.356Z</time></trkpt><trkpt lat="43.2719417" lon="11.4008033"><ele>230.33333333333331</ele><time>2026-03-22T11:43:56.356Z</time></trkpt><trkpt lat="43.2717517" lon="11.400755"><ele>229.0</ele><time>2026-03-22T11:43:57.356Z</time></trkpt><trkpt lat="43.27157" lon="11.4007283"><ele>227.33333333333331</ele><time>2026-03-22T11:43:58.356Z</time></trkpt><trkpt lat="43.2713783" lon="11.4007267"><ele>225.66666666666669</ele><time>2026-03-22T11:43:59.355Z</time></trkpt><trkpt lat="43.2711883" lon="11.4007533"><ele>224.0</ele><time>2026-03-22T11:44:00.355Z</time></trkpt><trkpt lat="43.2710017" lon="11.400775"><ele>224.0</ele><time>2026-03-22T11:44:01.356Z</time></trkpt><trkpt lat="43.27082" lon="11.4007983"><ele>224.0</ele><time>2026-03-22T11:44:02.356Z</time></trkpt><trkpt lat="43.27064" lon="11.4008217"><ele>224.0</ele><time>2026-03-22T11:44:03.355Z</time></trkpt><trkpt lat="43.2704767" lon="11.4008217"><ele>224.66666666666669</ele><time>2026-03-22T11:44:04.355Z</time></trkpt><trkpt lat="43.2703267" lon="11.400785"><ele>225.33333333333331</ele><time>2026-03-22T11:44:05.356Z</time></trkpt><trkpt lat="43.2701767" lon="11.400715"><ele>226.0</ele><time>2026-03-22T11:44:06.356Z</time></trkpt><trkpt lat="43.2700267" lon="11.400645"><ele>226.0</ele><time>2026-03-22T11:44:07.356Z</time></trkpt><trkpt lat="43.269855" lon="11.4005733"><ele>226.0</ele><time>2026-03-22T11:44:08.355Z</time></trkpt><trkpt lat="43.2696983" lon="11.4005117"><ele>226.0</ele><time>2026-03-22T11:44:09.356Z</time></trkpt><trkpt lat="43.26955" lon="11.4004517"><ele>227.75</ele><time>2026-03-22T11:44:10.356Z</time></trkpt><trkpt lat="43.2694233" lon="11.4003567"><ele>229.5</ele><time>2026-03-22T11:44:11.355Z</time></trkpt><trkpt lat="43.2693117" lon="11.40023"><ele>231.25</ele><time>2026-03-22T11:44:12.356Z</time></trkpt><trkpt lat="43.2692217" lon="11.4000867"><ele>233.0</ele><time>2026-03-22T11:44:13.356Z</time></trkpt><trkpt lat="43.26916" lon="11.3999583"><ele>233.00000000000003</ele><time>2026-03-22T11:44:14.356Z</time></trkpt><trkpt lat="43.2691183" lon="11.399855"><ele>233.0</ele><time>2026-03-22T11:44:15.356Z</time></trkpt><trkpt lat="43.26909" lon="11.3997683"><ele>233.0</ele><time>2026-03-22T11:44:16.356Z</time></trkpt><trkpt lat="43.269085" lon="11.399645"><ele>233.0</ele><time>2026-03-22T11:44:18.356Z</time></trkpt><trkpt lat="43.2690933" lon="11.3995433"><ele>233.00000000000003</ele><time>2026-03-22T11:44:20.355Z</time></trkpt><trkpt lat="43.2690817" lon="11.3994033"><ele>233.0</ele><time>2026-03-22T11:44:22.356Z</time></trkpt><trkpt lat="43.269075" lon="11.3993133"><ele>233.0</ele><time>2026-03-22T11:44:23.356Z</time></trkpt><trkpt lat="43.2690617" lon="11.399205"><ele>233.0</ele><time>2026-03-22T11:44:24.356Z</time></trkpt><trkpt lat="43.2690483" lon="11.3990767"><ele>233.0</ele><time>2026-03-22T11:44:25.356Z</time></trkpt><trkpt lat="43.2690267" lon="11.39892"><ele>233.0</ele><time>2026-03-22T11:44:26.356Z</time></trkpt><trkpt lat="43.2689933" lon="11.3987433"><ele>233.0</ele><time>2026-03-22T11:44:27.356Z</time></trkpt><trkpt lat="43.268965" lon="11.398545"><ele>231.66666666666669</ele><time>2026-03-22T11:44:28.355Z</time></trkpt><trkpt lat="43.2689333" lon="11.3983333"><ele>230.33333333333331</ele><time>2026-03-22T11:44:29.356Z</time></trkpt><trkpt lat="43.2688967" lon="11.398125"><ele>229.0</ele><time>2026-03-22T11:44:30.356Z</time></trkpt><trkpt lat="43.268855" lon="11.3979117"><ele>229.0</ele><time>2026-03-22T11:44:31.356Z</time></trkpt><trkpt lat="43.2688117" lon="11.3977"><ele>229.0</ele><time>2026-03-22T11:44:32.356Z</time></trkpt><trkpt lat="43.2687667" lon="11.3975133"><ele>229.0</ele><time>2026-03-22T11:44:33.356Z</time></trkpt><trkpt lat="43.2687267" lon="11.3973283"><ele>229.0</ele><time>2026-03-22T11:44:34.355Z</time></trkpt><trkpt lat="43.2686667" lon="11.3971567"><ele>229.5</ele><time>2026-03-22T11:44:35.355Z</time></trkpt><trkpt lat="43.2685967" lon="11.397"><ele>230.0</ele><time>2026-03-22T11:44:36.356Z</time></trkpt><trkpt lat="43.2685117" lon="11.3968733"><ele>230.5</ele><time>2026-03-22T11:44:37.356Z</time></trkpt><trkpt lat="43.268405" lon="11.3967283"><ele>231.0</ele><time>2026-03-22T11:44:38.356Z</time></trkpt><trkpt lat="43.2683017" lon="11.3965933"><ele>231.0</ele><time>2026-03-22T11:44:39.356Z</time></trkpt><trkpt lat="43.268215" lon="11.396435"><ele>231.0</ele><time>2026-03-22T11:44:40.356Z</time></trkpt><trkpt lat="43.26815" lon="11.3962433"><ele>231.0</ele><time>2026-03-22T11:44:41.355Z</time></trkpt><trkpt lat="43.268085" lon="11.3960383"><ele>230.25</ele><time>2026-03-22T11:44:42.356Z</time></trkpt><trkpt lat="43.26803" lon="11.3958417"><ele>229.5</ele><time>2026-03-22T11:44:43.356Z</time></trkpt><trkpt lat="43.2679783" lon="11.3956667"><ele>228.75</ele><time>2026-03-22T11:44:44.356Z</time></trkpt><trkpt lat="43.2679367" lon="11.39548"><ele>228.0</ele><time>2026-03-22T11:44:45.356Z</time></trkpt><trkpt lat="43.267915" lon="11.395295"><ele>227.0</ele><time>2026-03-22T11:44:46.356Z</time></trkpt><trkpt lat="43.2678967" lon="11.395085"><ele>226.0</ele><time>2026-03-22T11:44:47.356Z</time></trkpt><trkpt lat="43.2678883" lon="11.394865"><ele>225.0</ele><time>2026-03-22T11:44:48.356Z</time></trkpt><trkpt lat="43.2678783" lon="11.3946317"><ele>223.33333333333331</ele><time>2026-03-22T11:44:49.356Z</time></trkpt><trkpt lat="43.267865" lon="11.3943983"><ele>221.66666666666666</ele><time>2026-03-22T11:44:50.356Z</time></trkpt><trkpt lat="43.2678483" lon="11.3941617"><ele>220.0</ele><time>2026-03-22T11:44:51.356Z</time></trkpt><trkpt lat="43.26781" lon="11.3939117"><ele>219.0</ele><time>2026-03-22T11:44:52.356Z</time></trkpt><trkpt lat="43.2677733" lon="11.3936733"><ele>218.0</ele><time>2026-03-22T11:44:53.355Z</time></trkpt><trkpt lat="43.2677367" lon="11.39344"><ele>217.0</ele><time>2026-03-22T11:44:54.355Z</time></trkpt><trkpt lat="43.267685" lon="11.3932017"><ele>217.33333333333331</ele><time>2026-03-22T11:44:55.355Z</time></trkpt><trkpt lat="43.2676217" lon="11.39296"><ele>217.66666666666669</ele><time>2026-03-22T11:44:56.356Z</time></trkpt><trkpt lat="43.2675617" lon="11.392725"><ele>218.0</ele><time>2026-03-22T11:44:57.356Z</time></trkpt><trkpt lat="43.2675017" lon="11.3924933"><ele>218.0</ele><time>2026-03-22T11:44:58.356Z</time></trkpt><trkpt lat="43.2674467" lon="11.3922883"><ele>218.0</ele><time>2026-03-22T11:44:59.356Z</time></trkpt><trkpt lat="43.2673817" lon="11.3920933"><ele>218.0</ele><time>2026-03-22T11:45:00.355Z</time></trkpt><trkpt lat="43.2673083" lon="11.3919083"><ele>215.5</ele><time>2026-03-22T11:45:01.356Z</time></trkpt><trkpt lat="43.2672433" lon="11.3917317"><ele>213.0</ele><time>2026-03-22T11:45:02.356Z</time></trkpt><trkpt lat="43.2671967" lon="11.3915617"><ele>210.5</ele><time>2026-03-22T11:45:03.356Z</time></trkpt><trkpt lat="43.2671767" lon="11.3913967"><ele>208.0</ele><time>2026-03-22T11:45:04.356Z</time></trkpt><trkpt lat="43.2671633" lon="11.39123"><ele>207.75</ele><time>2026-03-22T11:45:05.356Z</time></trkpt><trkpt lat="43.2671517" lon="11.391075"><ele>207.5</ele><time>2026-03-22T11:45:06.356Z</time></trkpt><trkpt lat="43.2671033" lon="11.390905"><ele>207.25</ele><time>2026-03-22T11:45:07.356Z</time></trkpt><trkpt lat="43.2670333" lon="11.3907283"><ele>207.0</ele><time>2026-03-22T11:45:08.356Z</time></trkpt><trkpt lat="43.26693" lon="11.3905733"><ele>206.0</ele><time>2026-03-22T11:45:09.356Z</time></trkpt><trkpt lat="43.2668067" lon="11.3904017"><ele>205.0</ele><time>2026-03-22T11:45:10.356Z</time></trkpt><trkpt lat="43.2666783" lon="11.3902183"><ele>204.0</ele><time>2026-03-22T11:45:11.356Z</time></trkpt><trkpt lat="43.26655" lon="11.3900267"><ele>202.0</ele><time>2026-03-22T11:45:12.356Z</time></trkpt><trkpt lat="43.2664267" lon="11.3898283"><ele>200.0</ele><time>2026-03-22T11:45:13.355Z</time></trkpt><trkpt lat="43.2663117" lon="11.389625"><ele>198.0</ele><time>2026-03-22T11:45:14.356Z</time></trkpt><trkpt lat="43.2661967" lon="11.3894233"><ele>198.0</ele><time>2026-03-22T11:45:15.356Z</time></trkpt><trkpt lat="43.26609" lon="11.3892433"><ele>198.0</ele><time>2026-03-22T11:45:16.356Z</time></trkpt><trkpt lat="43.265985" lon="11.38907"><ele>198.0</ele><time>2026-03-22T11:45:17.356Z</time></trkpt><trkpt lat="43.26588" lon="11.3889167"><ele>197.0</ele><time>2026-03-22T11:45:18.356Z</time></trkpt><trkpt lat="43.2657583" lon="11.3887583"><ele>196.0</ele><time>2026-03-22T11:45:19.356Z</time></trkpt><trkpt lat="43.26563" lon="11.3886117"><ele>195.0</ele><time>2026-03-22T11:45:20.356Z</time></trkpt><trkpt lat="43.2655033" lon="11.388475"><ele>195.0</ele><time>2026-03-22T11:45:21.356Z</time></trkpt><trkpt lat="43.2653633" lon="11.388345"><ele>195.0</ele><time>2026-03-22T11:45:22.356Z</time></trkpt><trkpt lat="43.2652183" lon="11.3882267"><ele>195.0</ele><time>2026-03-22T11:45:23.355Z</time></trkpt><trkpt lat="43.2650817" lon="11.3881133"><ele>195.0</ele><time>2026-03-22T11:45:24.355Z</time></trkpt><trkpt lat="43.264925" lon="11.3880217"><ele>195.0</ele><time>2026-03-22T11:45:25.356Z</time></trkpt><trkpt lat="43.2647767" lon="11.3879617"><ele>195.0</ele><time>2026-03-22T11:45:26.356Z</time></trkpt><trkpt lat="43.2646267" lon="11.3879167"><ele>196.75</ele><time>2026-03-22T11:45:27.356Z</time></trkpt><trkpt lat="43.264495" lon="11.38788"><ele>198.5</ele><time>2026-03-22T11:45:28.356Z</time></trkpt><trkpt lat="43.264385" lon="11.387835"><ele>200.25</ele><time>2026-03-22T11:45:29.356Z</time></trkpt><trkpt lat="43.264295" lon="11.3877717"><ele>202.0</ele><time>2026-03-22T11:45:30.356Z</time></trkpt><trkpt lat="43.2642117" lon="11.3876833"><ele>201.99999999999997</ele><time>2026-03-22T11:45:31.356Z</time></trkpt><trkpt lat="43.2641433" lon="11.387585"><ele>202.0</ele><time>2026-03-22T11:45:32.356Z</time></trkpt><trkpt lat="43.264105" lon="11.387465"><ele>202.0</ele><time>2026-03-22T11:45:33.356Z</time></trkpt><trkpt lat="43.26408" lon="11.38736"><ele>202.0</ele><time>2026-03-22T11:45:34.356Z</time></trkpt><trkpt lat="43.2640783" lon="11.38726"><ele>201.99999999999997</ele><time>2026-03-22T11:45:35.356Z</time></trkpt><trkpt lat="43.2640867" lon="11.3871533"><ele>202.0</ele><time>2026-03-22T11:45:36.356Z</time></trkpt><trkpt lat="43.2641133" lon="11.3870433"><ele>201.83333333333331</ele><time>2026-03-22T11:45:37.356Z</time></trkpt><trkpt lat="43.2641583" lon="11.38695"><ele>201.66666666666666</ele><time>2026-03-22T11:45:38.356Z</time></trkpt><trkpt lat="43.264215" lon="11.3868717"><ele>201.5</ele><time>2026-03-22T11:45:39.355Z</time></trkpt><trkpt lat="43.264275" lon="11.386785"><ele>201.33333333333331</ele><time>2026-03-22T11:45:40.355Z</time></trkpt><trkpt lat="43.2643183" lon="11.3866917"><ele>201.16666666666666</ele><time>2026-03-22T11:45:41.356Z</time></trkpt><trkpt lat="43.2643517" lon="11.386585"><ele>201.0</ele><time>2026-03-22T11:45:42.356Z</time></trkpt><trkpt lat="43.2643683" lon="11.3864567"><ele>199.4</ele><time>2026-03-22T11:45:43.356Z</time></trkpt><trkpt lat="43.2643667" lon="11.38633"><ele>197.8</ele><time>2026-03-22T11:45:44.356Z</time></trkpt><trkpt lat="43.2643483" lon="11.38619"><ele>196.20000000000002</ele><time>2026-03-22T11:45:45.356Z</time></trkpt><trkpt lat="43.2643133" lon="11.38605"><ele>194.60000000000002</ele><time>2026-03-22T11:45:46.356Z</time></trkpt><trkpt lat="43.2642617" lon="11.3859083"><ele>193.0</ele><time>2026-03-22T11:45:47.355Z</time></trkpt><trkpt lat="43.2642083" lon="11.3857817"><ele>193.0</ele><time>2026-03-22T11:45:48.356Z</time></trkpt><trkpt lat="43.2641483" lon="11.3856517"><ele>193.0</ele><time>2026-03-22T11:45:49.356Z</time></trkpt><trkpt lat="43.2640883" lon="11.3855217"><ele>193.0</ele><time>2026-03-22T11:45:50.356Z</time></trkpt><trkpt lat="43.264025" lon="11.3853883"><ele>193.0</ele><time>2026-03-22T11:45:51.356Z</time></trkpt><trkpt lat="43.2639567" lon="11.3852583"><ele>192.2</ele><time>2026-03-22T11:45:52.356Z</time></trkpt><trkpt lat="43.2638933" lon="11.3851317"><ele>191.4</ele><time>2026-03-22T11:45:53.356Z</time></trkpt><trkpt lat="43.2638333" lon="11.3850233"><ele>190.6</ele><time>2026-03-22T11:45:54.356Z</time></trkpt><trkpt lat="43.26376" lon="11.3849083"><ele>189.79999999999998</ele><time>2026-03-22T11:45:55.356Z</time></trkpt><trkpt lat="43.2636733" lon="11.3847967"><ele>189.0</ele><time>2026-03-22T11:45:56.355Z</time></trkpt><trkpt lat="43.263585" lon="11.384695"><ele>183.66666666666666</ele><time>2026-03-22T11:45:57.355Z</time></trkpt><trkpt lat="43.2634683" lon="11.38458"><ele>178.33333333333331</ele><time>2026-03-22T11:45:58.356Z</time></trkpt><trkpt lat="43.2633333" lon="11.3844533"><ele>173.0</ele><time>2026-03-22T11:45:59.355Z</time></trkpt><trkpt lat="43.2632167" lon="11.3843133"><ele>172.66666666666666</ele><time>2026-03-22T11:46:00.356Z</time></trkpt><trkpt lat="43.2630883" lon="11.3841717"><ele>172.33333333333334</ele><time>2026-03-22T11:46:01.356Z</time></trkpt><trkpt lat="43.2629483" lon="11.384025"><ele>172.0</ele><time>2026-03-22T11:46:02.356Z</time></trkpt><trkpt lat="43.2628233" lon="11.3838783"><ele>171.25</ele><time>2026-03-22T11:46:03.355Z</time></trkpt><trkpt lat="43.2627183" lon="11.3837267"><ele>170.5</ele><time>2026-03-22T11:46:04.355Z</time></trkpt><trkpt lat="43.262625" lon="11.3835767"><ele>169.75</ele><time>2026-03-22T11:46:05.356Z</time></trkpt><trkpt lat="43.2625617" lon="11.383445"><ele>169.0</ele><time>2026-03-22T11:46:06.356Z</time></trkpt><trkpt lat="43.2625183" lon="11.38333"><ele>169.0</ele><time>2026-03-22T11:46:07.356Z</time></trkpt><trkpt lat="43.2624967" lon="11.3832283"><ele>169.0</ele><time>2026-03-22T11:46:08.356Z</time></trkpt><trkpt lat="43.2624917" lon="11.383105"><ele>169.0</ele><time>2026-03-22T11:46:09.356Z</time></trkpt><trkpt lat="43.2625067" lon="11.3829733"><ele>169.0</ele><time>2026-03-22T11:46:10.356Z</time></trkpt><trkpt lat="43.2625167" lon="11.3828333"><ele>169.0</ele><time>2026-03-22T11:46:11.356Z</time></trkpt><trkpt lat="43.2625283" lon="11.3826783"><ele>168.25</ele><time>2026-03-22T11:46:12.356Z</time></trkpt><trkpt lat="43.2625333" lon="11.3825183"><ele>167.5</ele><time>2026-03-22T11:46:13.355Z</time></trkpt><trkpt lat="43.2625367" lon="11.3823633"><ele>166.75</ele><time>2026-03-22T11:46:14.356Z</time></trkpt><trkpt lat="43.2625383" lon="11.382215"><ele>166.0</ele><time>2026-03-22T11:46:15.356Z</time></trkpt><trkpt lat="43.2625517" lon="11.3820483"><ele>166.0</ele><time>2026-03-22T11:46:16.356Z</time></trkpt><trkpt lat="43.2625633" lon="11.3818533"><ele>166.0</ele><time>2026-03-22T11:46:17.356Z</time></trkpt><trkpt lat="43.262565" lon="11.3816483"><ele>166.0</ele><time>2026-03-22T11:46:18.355Z</time></trkpt><trkpt lat="43.2625667" lon="11.38145"><ele>166.0</ele><time>2026-03-22T11:46:19.355Z</time></trkpt><trkpt lat="43.26254" lon="11.3812667"><ele>166.0</ele><time>2026-03-22T11:46:20.356Z</time></trkpt><trkpt lat="43.2624967" lon="11.3810717"><ele>166.0</ele><time>2026-03-22T11:46:21.355Z</time></trkpt><trkpt lat="43.262435" lon="11.380885"><ele>166.0</ele><time>2026-03-22T11:46:22.355Z</time></trkpt><trkpt lat="43.26236" lon="11.38068"><ele>166.0</ele><time>2026-03-22T11:46:23.356Z</time></trkpt><trkpt lat="43.2622983" lon="11.38051"><ele>166.0</ele><time>2026-03-22T11:46:24.356Z</time></trkpt><trkpt lat="43.26223" lon="11.3803367"><ele>166.0</ele><time>2026-03-22T11:46:25.356Z</time></trkpt><trkpt lat="43.2621767" lon="11.3801617"><ele>166.0</ele><time>2026-03-22T11:46:26.355Z</time></trkpt><trkpt lat="43.2621333" lon="11.3800017"><ele>166.8</ele><time>2026-03-22T11:46:27.356Z</time></trkpt><trkpt lat="43.262105" lon="11.3798517"><ele>167.60000000000002</ele><time>2026-03-22T11:46:28.355Z</time></trkpt><trkpt lat="43.2620783" lon="11.3797167"><ele>168.4</ele><time>2026-03-22T11:46:29.356Z</time></trkpt><trkpt lat="43.2620517" lon="11.37962"><ele>169.2</ele><time>2026-03-22T11:46:30.356Z</time></trkpt><trkpt lat="43.2619867" lon="11.37951"><ele>170.0</ele><time>2026-03-22T11:46:32.355Z</time></trkpt><trkpt lat="43.261855" lon="11.3794933"><ele>170.0</ele><time>2026-03-22T11:46:34.355Z</time></trkpt><trkpt lat="43.26177" lon="11.379515"><ele>170.0</ele><time>2026-03-22T11:46:35.356Z</time></trkpt><trkpt lat="43.26169" lon="11.3795383"><ele>170.0</ele><time>2026-03-22T11:46:36.356Z</time></trkpt><trkpt lat="43.2616017" lon="11.37955"><ele>170.0</ele><time>2026-03-22T11:46:37.356Z</time></trkpt><trkpt lat="43.2615117" lon="11.3795633"><ele>170.0</ele><time>2026-03-22T11:46:38.355Z</time></trkpt><trkpt lat="43.2614183" lon="11.3795783"><ele>170.0</ele><time>2026-03-22T11:46:39.355Z</time></trkpt><trkpt lat="43.26134" lon="11.3796083"><ele>170.33333333333331</ele><time>2026-03-22T11:46:40.356Z</time></trkpt><trkpt lat="43.2612633" lon="11.3796417"><ele>170.66666666666666</ele><time>2026-03-22T11:46:41.356Z</time></trkpt><trkpt lat="43.2611917" lon="11.3796717"><ele>171.0</ele><time>2026-03-22T11:46:42.356Z</time></trkpt><trkpt lat="43.261115" lon="11.3797033"><ele>171.33333333333334</ele><time>2026-03-22T11:46:43.355Z</time></trkpt><trkpt lat="43.2610317" lon="11.379735"><ele>171.66666666666669</ele><time>2026-03-22T11:46:44.355Z</time></trkpt><trkpt lat="43.2609417" lon="11.379765"><ele>172.0</ele><time>2026-03-22T11:46:45.356Z</time></trkpt><trkpt lat="43.2608417" lon="11.379805"><ele>172.0</ele><time>2026-03-22T11:46:46.356Z</time></trkpt><trkpt lat="43.2607267" lon="11.3798383"><ele>172.0</ele><time>2026-03-22T11:46:47.356Z</time></trkpt><trkpt lat="43.2606233" lon="11.37986"><ele>172.0</ele><time>2026-03-22T11:46:48.355Z</time></trkpt><trkpt lat="43.2605317" lon="11.3798717"><ele>172.0</ele><time>2026-03-22T11:46:49.356Z</time></trkpt><trkpt lat="43.2604383" lon="11.3798583"><ele>172.0</ele><time>2026-03-22T11:46:50.356Z</time></trkpt><trkpt lat="43.2603467" lon="11.3798183"><ele>172.0</ele><time>2026-03-22T11:46:51.356Z</time></trkpt><trkpt lat="43.26026" lon="11.3797683"><ele>172.0</ele><time>2026-03-22T11:46:52.355Z</time></trkpt><trkpt lat="43.2601683" lon="11.3797217"><ele>172.0</ele><time>2026-03-22T11:46:53.356Z</time></trkpt><trkpt lat="43.2600867" lon="11.3796817"><ele>172.0</ele><time>2026-03-22T11:46:54.356Z</time></trkpt><trkpt lat="43.2600017" lon="11.3796417"><ele>172.0</ele><time>2026-03-22T11:46:55.356Z</time></trkpt><trkpt lat="43.25992" lon="11.379615"><ele>172.00000000000003</ele><time>2026-03-22T11:46:56.356Z</time></trkpt><trkpt lat="43.2598567" lon="11.379605"><ele>172.0</ele><time>2026-03-22T11:46:57.356Z</time></trkpt><trkpt lat="43.2597867" lon="11.3795733"><ele>172.0</ele><time>2026-03-22T11:46:59.356Z</time></trkpt><trkpt lat="43.259735" lon="11.3794733"><ele>172.0</ele><time>2026-03-22T11:47:01.356Z</time></trkpt><trkpt lat="43.259705" lon="11.3793917"><ele>172.0</ele><time>2026-03-22T11:47:02.356Z</time></trkpt><trkpt lat="43.25967" lon="11.3793"><ele>172.00000000000003</ele><time>2026-03-22T11:47:03.355Z</time></trkpt><trkpt lat="43.2596383" lon="11.3792033"><ele>172.0</ele><time>2026-03-22T11:47:04.356Z</time></trkpt><trkpt lat="43.259605" lon="11.3791083"><ele>172.2</ele><time>2026-03-22T11:47:05.356Z</time></trkpt><trkpt lat="43.2595767" lon="11.3790233"><ele>172.39999999999998</ele><time>2026-03-22T11:47:06.356Z</time></trkpt><trkpt lat="43.2595267" lon="11.3789183"><ele>172.60000000000002</ele><time>2026-03-22T11:47:08.356Z</time></trkpt><trkpt lat="43.2594767" lon="11.3788617"><ele>172.8</ele><time>2026-03-22T11:47:22.356Z</time></trkpt><trkpt lat="43.2593883" lon="11.378715"><ele>173.0</ele><time>2026-03-22T11:47:24.356Z</time></trkpt><trkpt lat="43.2593167" lon="11.3786167"><ele>173.2</ele><time>2026-03-22T11:47:25.356Z</time></trkpt><trkpt lat="43.2592467" lon="11.3785283"><ele>173.4</ele><time>2026-03-22T11:47:26.356Z</time></trkpt><trkpt lat="43.2591767" lon="11.37846"><ele>173.6</ele><time>2026-03-22T11:47:27.356Z</time></trkpt><trkpt lat="43.2591167" lon="11.3784283"><ele>173.79999999999998</ele><time>2026-03-22T11:47:28.356Z</time></trkpt><trkpt lat="43.2589933" lon="11.37846"><ele>174.0</ele><time>2026-03-22T11:47:30.356Z</time></trkpt><trkpt lat="43.25892" lon="11.3785333"><ele>174.0</ele><time>2026-03-22T11:47:31.356Z</time></trkpt><trkpt lat="43.258825" lon="11.37863"><ele>174.0</ele><time>2026-03-22T11:47:32.356Z</time></trkpt><trkpt lat="43.2587117" lon="11.3787433"><ele>174.0</ele><time>2026-03-22T11:47:33.356Z</time></trkpt><trkpt lat="43.2586" lon="11.37884"><ele>174.0</ele><time>2026-03-22T11:47:34.356Z</time></trkpt><trkpt lat="43.258505" lon="11.3789283"><ele>174.0</ele><time>2026-03-22T11:47:35.355Z</time></trkpt><trkpt lat="43.2584233" lon="11.37899"><ele>174.0</ele><time>2026-03-22T11:47:36.355Z</time></trkpt><trkpt lat="43.2583483" lon="11.3790417"><ele>174.0</ele><time>2026-03-22T11:47:37.356Z</time></trkpt><trkpt lat="43.2582617" lon="11.37911"><ele>174.0</ele><time>2026-03-22T11:47:39.355Z</time></trkpt><trkpt lat="43.2581967" lon="11.3791683"><ele>174.0</ele><time>2026-03-22T11:47:41.356Z</time></trkpt><trkpt lat="43.2581533" lon="11.3792333"><ele>174.0</ele><time>2026-03-22T11:47:44.355Z</time></trkpt><trkpt lat="43.2582433" lon="11.3791583"><ele>174.0</ele><time>2026-03-22T11:47:47.356Z</time></trkpt><trkpt lat="43.2583067" lon="11.3790867"><ele>174.0</ele><time>2026-03-22T11:47:48.356Z</time></trkpt><trkpt lat="43.258385" lon="11.3789983"><ele>174.0</ele><time>2026-03-22T11:47:49.356Z</time></trkpt><trkpt lat="43.25847" lon="11.378915"><ele>174.0</ele><time>2026-03-22T11:47:50.356Z</time></trkpt><trkpt lat="43.258515" lon="11.3788517"><ele>174.0</ele><time>2026-03-22T11:47:51.356Z</time></trkpt><trkpt lat="43.258505" lon="11.378725"><ele>174.0</ele><time>2026-03-22T11:47:53.356Z</time></trkpt><trkpt lat="43.2584283" lon="11.3785567"><ele>174.0</ele><time>2026-03-22T11:47:55.356Z</time></trkpt><trkpt lat="43.2583817" lon="11.378475"><ele>174.0</ele><time>2026-03-22T11:47:56.356Z</time></trkpt><trkpt lat="43.2583017" lon="11.37837"><ele>174.0</ele><time>2026-03-22T11:47:58.356Z</time></trkpt><trkpt lat="43.25826" lon="11.3782983"><ele>174.0</ele><time>2026-03-22T11:47:59.356Z</time></trkpt><trkpt lat="43.2582167" lon="11.3782283"><ele>174.0</ele><time>2026-03-22T11:48:00.356Z</time></trkpt><trkpt lat="43.2581683" lon="11.3781533"><ele>174.0</ele><time>2026-03-22T11:48:01.356Z</time></trkpt><trkpt lat="43.25811" lon="11.37807"><ele>173.66666666666666</ele><time>2026-03-22T11:48:02.356Z</time></trkpt><trkpt lat="43.2580433" lon="11.3779933"><ele>173.33333333333334</ele><time>2026-03-22T11:48:03.356Z</time></trkpt><trkpt lat="43.2579917" lon="11.3779233"><ele>173.0</ele><time>2026-03-22T11:48:04.355Z</time></trkpt><trkpt lat="43.2579333" lon="11.37785"><ele>172.66666666666669</ele><time>2026-03-22T11:48:05.356Z</time></trkpt><trkpt lat="43.2578833" lon="11.3777933"><ele>172.33333333333334</ele><time>2026-03-22T11:48:06.356Z</time></trkpt><trkpt lat="43.25783" lon="11.3777467"><ele>172.0</ele><time>2026-03-22T11:48:07.356Z</time></trkpt><trkpt lat="43.2577617" lon="11.3776517"><ele>172.0</ele><time>2026-03-22T11:48:09.356Z</time></trkpt><trkpt lat="43.2577" lon="11.3776067"><ele>172.0</ele><time>2026-03-22T11:48:11.356Z</time></trkpt><trkpt lat="43.2576767" lon="11.3777183"><ele>172.0</ele><time>2026-03-22T11:48:14.356Z</time></trkpt><trkpt lat="43.2576917" lon="11.3778033"><ele>172.0</ele><time>2026-03-22T11:48:15.356Z</time></trkpt><trkpt lat="43.2577133" lon="11.3778983"><ele>172.0</ele><time>2026-03-22T11:48:16.356Z</time></trkpt><trkpt lat="43.2577267" lon="11.37801"><ele>172.0</ele><time>2026-03-22T11:48:17.356Z</time></trkpt><trkpt lat="43.25772" lon="11.3781417"><ele>172.2</ele><time>2026-03-22T11:48:18.355Z</time></trkpt><trkpt lat="43.257695" lon="11.3782733"><ele>172.39999999999998</ele><time>2026-03-22T11:48:19.356Z</time></trkpt><trkpt lat="43.2576467" lon="11.3783883"><ele>172.60000000000002</ele><time>2026-03-22T11:48:20.356Z</time></trkpt><trkpt lat="43.2575683" lon="11.3784833"><ele>172.8</ele><time>2026-03-22T11:48:21.356Z</time></trkpt><trkpt lat="43.257465" lon="11.37857"><ele>173.0</ele><time>2026-03-22T11:48:22.356Z</time></trkpt><trkpt lat="43.25735" lon="11.37867"><ele>173.0</ele><time>2026-03-22T11:48:23.355Z</time></trkpt><trkpt lat="43.2572267" lon="11.3787783"><ele>173.0</ele><time>2026-03-22T11:48:24.355Z</time></trkpt><trkpt lat="43.257105" lon="11.3788883"><ele>173.0</ele><time>2026-03-22T11:48:25.356Z</time></trkpt><trkpt lat="43.2569783" lon="11.3790233"><ele>173.33333333333331</ele><time>2026-03-22T11:48:26.356Z</time></trkpt><trkpt lat="43.2568583" lon="11.3791667"><ele>173.66666666666666</ele><time>2026-03-22T11:48:27.356Z</time></trkpt><trkpt lat="43.256755" lon="11.37932"><ele>174.0</ele><time>2026-03-22T11:48:28.356Z</time></trkpt><trkpt lat="43.2566483" lon="11.3794967"><ele>174.0</ele><time>2026-03-22T11:48:29.355Z</time></trkpt><trkpt lat="43.2565417" lon="11.3796667"><ele>174.0</ele><time>2026-03-22T11:48:30.356Z</time></trkpt><trkpt lat="43.2564333" lon="11.37985"><ele>174.0</ele><time>2026-03-22T11:48:31.356Z</time></trkpt><trkpt lat="43.2563333" lon="11.38003"><ele>173.75</ele><time>2026-03-22T11:48:32.355Z</time></trkpt><trkpt lat="43.25625" lon="11.3802117"><ele>173.5</ele><time>2026-03-22T11:48:33.356Z</time></trkpt><trkpt lat="43.2561767" lon="11.3803833"><ele>173.25</ele><time>2026-03-22T11:48:34.355Z</time></trkpt><trkpt lat="43.2561167" lon="11.380555"><ele>173.0</ele><time>2026-03-22T11:48:35.355Z</time></trkpt><trkpt lat="43.2560617" lon="11.380725"><ele>173.0</ele><time>2026-03-22T11:48:36.356Z</time></trkpt><trkpt lat="43.2560083" lon="11.3808917"><ele>173.0</ele><time>2026-03-22T11:48:37.355Z</time></trkpt><trkpt lat="43.2559767" lon="11.3810683"><ele>173.0</ele><time>2026-03-22T11:48:38.357Z</time></trkpt><trkpt lat="43.255925" lon="11.3812333"><ele>173.0</ele><time>2026-03-22T11:48:39.357Z</time></trkpt><trkpt lat="43.2558633" lon="11.3813667"><ele>173.0</ele><time>2026-03-22T11:48:40.357Z</time></trkpt><trkpt lat="43.2558017" lon="11.381485"><ele>173.0</ele><time>2026-03-22T11:48:41.356Z</time></trkpt><trkpt lat="43.255715" lon="11.3815733"><ele>173.0</ele><time>2026-03-22T11:48:42.357Z</time></trkpt><trkpt lat="43.2556117" lon="11.381645"><ele>173.0</ele><time>2026-03-22T11:48:43.357Z</time></trkpt><trkpt lat="43.2554933" lon="11.3817067"><ele>172.60000000000002</ele><time>2026-03-22T11:48:44.357Z</time></trkpt><trkpt lat="43.2553817" lon="11.3817867"><ele>172.20000000000002</ele><time>2026-03-22T11:48:45.357Z</time></trkpt><trkpt lat="43.255275" lon="11.3818683"><ele>171.8</ele><time>2026-03-22T11:48:46.356Z</time></trkpt><trkpt lat="43.2551983" lon="11.38195"><ele>171.4</ele><time>2026-03-22T11:48:47.357Z</time></trkpt><trkpt lat="43.2551383" lon="11.3820333"><ele>171.0</ele><time>2026-03-22T11:48:48.357Z</time></trkpt><trkpt lat="43.255095" lon="11.3821167"><ele>171.0</ele><time>2026-03-22T11:48:49.357Z</time></trkpt><trkpt lat="43.2550167" lon="11.3822333"><ele>171.0</ele><time>2026-03-22T11:48:51.357Z</time></trkpt><trkpt lat="43.254955" lon="11.3822833"><ele>171.0</ele><time>2026-03-22T11:48:52.356Z</time></trkpt><trkpt lat="43.25486" lon="11.3823217"><ele>171.0</ele><time>2026-03-22T11:48:53.356Z</time></trkpt><trkpt lat="43.2547383" lon="11.38236"><ele>171.0</ele><time>2026-03-22T11:48:54.357Z</time></trkpt><trkpt lat="43.254595" lon="11.3824083"><ele>170.66666666666666</ele><time>2026-03-22T11:48:55.357Z</time></trkpt><trkpt lat="43.2544467" lon="11.38246"><ele>170.33333333333331</ele><time>2026-03-22T11:48:56.357Z</time></trkpt><trkpt lat="43.2542867" lon="11.382525"><ele>170.0</ele><time>2026-03-22T11:48:57.357Z</time></trkpt><trkpt lat="43.2541367" lon="11.38258"><ele>170.0</ele><time>2026-03-22T11:48:58.356Z</time></trkpt><trkpt lat="43.254" lon="11.38263"><ele>170.0</ele><time>2026-03-22T11:48:59.357Z</time></trkpt><trkpt lat="43.25387" lon="11.3826733"><ele>170.0</ele><time>2026-03-22T11:49:00.357Z</time></trkpt><trkpt lat="43.2537417" lon="11.3826867"><ele>170.0</ele><time>2026-03-22T11:49:01.357Z</time></trkpt><trkpt lat="43.25362" lon="11.3826617"><ele>170.25</ele><time>2026-03-22T11:49:02.357Z</time></trkpt><trkpt lat="43.2534933" lon="11.382625"><ele>170.5</ele><time>2026-03-22T11:49:03.356Z</time></trkpt><trkpt lat="43.2533733" lon="11.3825817"><ele>170.75</ele><time>2026-03-22T11:49:04.357Z</time></trkpt><trkpt lat="43.2532517" lon="11.3825117"><ele>171.0</ele><time>2026-03-22T11:49:05.357Z</time></trkpt><trkpt lat="43.25315" lon="11.3824267"><ele>171.8</ele><time>2026-03-22T11:49:06.357Z</time></trkpt><trkpt lat="43.25306" lon="11.3823417"><ele>172.60000000000002</ele><time>2026-03-22T11:49:07.357Z</time></trkpt><trkpt lat="43.2529867" lon="11.3822633"><ele>173.4</ele><time>2026-03-22T11:49:08.356Z</time></trkpt><trkpt lat="43.2529233" lon="11.3821983"><ele>174.2</ele><time>2026-03-22T11:49:09.357Z</time></trkpt><trkpt lat="43.2528033" lon="11.382175"><ele>175.0</ele><time>2026-03-22T11:49:11.357Z</time></trkpt><trkpt lat="43.2527417" lon="11.3822117"><ele>175.0</ele><time>2026-03-22T11:49:12.357Z</time></trkpt><trkpt lat="43.2526783" lon="11.3822667"><ele>175.0</ele><time>2026-03-22T11:49:13.357Z</time></trkpt><trkpt lat="43.2526133" lon="11.382365"><ele>175.0</ele><time>2026-03-22T11:49:14.357Z</time></trkpt><trkpt lat="43.2525317" lon="11.3824867"><ele>175.0</ele><time>2026-03-22T11:49:15.356Z</time></trkpt><trkpt lat="43.2524633" lon="11.3826167"><ele>175.0</ele><time>2026-03-22T11:49:16.357Z</time></trkpt><trkpt lat="43.2523733" lon="11.3827183"><ele>176.0</ele><time>2026-03-22T11:49:17.357Z</time></trkpt><trkpt lat="43.2522883" lon="11.3827817"><ele>177.0</ele><time>2026-03-22T11:49:18.357Z</time></trkpt><trkpt lat="43.2522017" lon="11.3828117"><ele>178.0</ele><time>2026-03-22T11:49:19.357Z</time></trkpt><trkpt lat="43.2521217" lon="11.3827933"><ele>179.0</ele><time>2026-03-22T11:49:20.357Z</time></trkpt><trkpt lat="43.2520533" lon="11.3827683"><ele>180.0</ele><time>2026-03-22T11:49:21.357Z</time></trkpt><trkpt lat="43.2519883" lon="11.3826833"><ele>181.0</ele><time>2026-03-22T11:49:22.357Z</time></trkpt><trkpt lat="43.2519167" lon="11.3825817"><ele>181.0</ele><time>2026-03-22T11:49:23.356Z</time></trkpt><trkpt lat="43.2518333" lon="11.38244"><ele>181.0</ele><time>2026-03-22T11:49:24.357Z</time></trkpt><trkpt lat="43.25175" lon="11.38229"><ele>181.0</ele><time>2026-03-22T11:49:25.357Z</time></trkpt><trkpt lat="43.2516517" lon="11.3821433"><ele>181.0</ele><time>2026-03-22T11:49:26.357Z</time></trkpt><trkpt lat="43.2515483" lon="11.3820083"><ele>184.33333333333334</ele><time>2026-03-22T11:49:27.357Z</time></trkpt><trkpt lat="43.25143" lon="11.3818783"><ele>187.66666666666666</ele><time>2026-03-22T11:49:28.357Z</time></trkpt><trkpt lat="43.2513183" lon="11.381705"><ele>191.0</ele><time>2026-03-22T11:49:29.356Z</time></trkpt><trkpt lat="43.2512167" lon="11.3815383"><ele>191.0</ele><time>2026-03-22T11:49:30.356Z</time></trkpt><trkpt lat="43.2511083" lon="11.3813583"><ele>191.0</ele><time>2026-03-22T11:49:31.356Z</time></trkpt><trkpt lat="43.251005" lon="11.38118"><ele>191.0</ele><time>2026-03-22T11:49:32.356Z</time></trkpt><trkpt lat="43.2509" lon="11.38102"><ele>193.0</ele><time>2026-03-22T11:49:33.357Z</time></trkpt><trkpt lat="43.2507783" lon="11.380865"><ele>195.0</ele><time>2026-03-22T11:49:34.357Z</time></trkpt><trkpt lat="43.2506583" lon="11.3807283"><ele>197.0</ele><time>2026-03-22T11:49:35.356Z</time></trkpt><trkpt lat="43.2505533" lon="11.3805817"><ele>200.5</ele><time>2026-03-22T11:49:36.356Z</time></trkpt><trkpt lat="43.25046" lon="11.3804233"><ele>204.0</ele><time>2026-03-22T11:49:37.357Z</time></trkpt><trkpt lat="43.2503833" lon="11.380265"><ele>207.5</ele><time>2026-03-22T11:49:38.357Z</time></trkpt><trkpt lat="43.25033" lon="11.3801"><ele>211.0</ele><time>2026-03-22T11:49:39.356Z</time></trkpt><trkpt lat="43.2502917" lon="11.3799217"><ele>211.0</ele><time>2026-03-22T11:49:40.356Z</time></trkpt><trkpt lat="43.250265" lon="11.3797467"><ele>211.0</ele><time>2026-03-22T11:49:41.356Z</time></trkpt><trkpt lat="43.2502467" lon="11.3795967"><ele>211.0</ele><time>2026-03-22T11:49:42.357Z</time></trkpt><trkpt lat="43.2502433" lon="11.3794517"><ele>211.0</ele><time>2026-03-22T11:49:43.356Z</time></trkpt><trkpt lat="43.25025" lon="11.3792983"><ele>211.75</ele><time>2026-03-22T11:49:44.357Z</time></trkpt><trkpt lat="43.250265" lon="11.3791383"><ele>212.5</ele><time>2026-03-22T11:49:45.357Z</time></trkpt><trkpt lat="43.2502967" lon="11.3789867"><ele>213.25</ele><time>2026-03-22T11:49:46.357Z</time></trkpt><trkpt lat="43.25035" lon="11.3788433"><ele>214.0</ele><time>2026-03-22T11:49:47.357Z</time></trkpt><trkpt lat="43.2504033" lon="11.37868"><ele>214.0</ele><time>2026-03-22T11:49:48.357Z</time></trkpt><trkpt lat="43.2504583" lon="11.378515"><ele>214.0</ele><time>2026-03-22T11:49:49.357Z</time></trkpt><trkpt lat="43.2505067" lon="11.3783483"><ele>214.0</ele><time>2026-03-22T11:49:50.357Z</time></trkpt><trkpt lat="43.2505517" lon="11.3781683"><ele>214.0</ele><time>2026-03-22T11:49:51.357Z</time></trkpt><trkpt lat="43.2505983" lon="11.3779883"><ele>214.75</ele><time>2026-03-22T11:49:52.357Z</time></trkpt><trkpt lat="43.2506383" lon="11.377805"><ele>215.5</ele><time>2026-03-22T11:49:53.356Z</time></trkpt><trkpt lat="43.2506683" lon="11.3776233"><ele>216.25</ele><time>2026-03-22T11:49:54.357Z</time></trkpt><trkpt lat="43.2506867" lon="11.377445"><ele>217.0</ele><time>2026-03-22T11:49:55.357Z</time></trkpt><trkpt lat="43.250685" lon="11.3772917"><ele>218.6</ele><time>2026-03-22T11:49:56.357Z</time></trkpt><trkpt lat="43.2506633" lon="11.3771317"><ele>220.2</ele><time>2026-03-22T11:49:57.357Z</time></trkpt><trkpt lat="43.2506267" lon="11.37699"><ele>221.8</ele><time>2026-03-22T11:49:58.357Z</time></trkpt><trkpt lat="43.2505783" lon="11.3768833"><ele>223.4</ele><time>2026-03-22T11:49:59.357Z</time></trkpt><trkpt lat="43.2505217" lon="11.3767883"><ele>225.0</ele><time>2026-03-22T11:50:00.357Z</time></trkpt><trkpt lat="43.2504533" lon="11.3767217"><ele>226.2</ele><time>2026-03-22T11:50:01.357Z</time></trkpt><trkpt lat="43.2503833" lon="11.3766917"><ele>227.4</ele><time>2026-03-22T11:50:02.356Z</time></trkpt><trkpt lat="43.2503017" lon="11.3766767"><ele>228.60000000000002</ele><time>2026-03-22T11:50:03.356Z</time></trkpt><trkpt lat="43.2502117" lon="11.3766617"><ele>229.8</ele><time>2026-03-22T11:50:04.356Z</time></trkpt><trkpt lat="43.2500883" lon="11.3766317"><ele>231.0</ele><time>2026-03-22T11:50:05.357Z</time></trkpt><trkpt lat="43.249955" lon="11.3766117"><ele>231.0</ele><time>2026-03-22T11:50:06.356Z</time></trkpt><trkpt lat="43.2498183" lon="11.376615"><ele>231.00000000000003</ele><time>2026-03-22T11:50:07.357Z</time></trkpt><trkpt lat="43.2497017" lon="11.3766117"><ele>231.00000000000003</ele><time>2026-03-22T11:50:08.357Z</time></trkpt><trkpt lat="43.2496217" lon="11.3766083"><ele>231.0</ele><time>2026-03-22T11:50:09.357Z</time></trkpt><trkpt lat="43.2495367" lon="11.3765817"><ele>231.0</ele><time>2026-03-22T11:50:11.357Z</time></trkpt><trkpt lat="43.2494683" lon="11.3765433"><ele>231.16666666666666</ele><time>2026-03-22T11:50:13.356Z</time></trkpt><trkpt lat="43.2494133" lon="11.37647"><ele>231.33333333333331</ele><time>2026-03-22T11:50:16.357Z</time></trkpt><trkpt lat="43.249345" lon="11.3763867"><ele>231.5</ele><time>2026-03-22T11:50:19.357Z</time></trkpt><trkpt lat="43.2492817" lon="11.37633"><ele>231.66666666666666</ele><time>2026-03-22T11:50:22.357Z</time></trkpt><trkpt lat="43.2492183" lon="11.3763517"><ele>231.83333333333331</ele><time>2026-03-22T11:50:26.357Z</time></trkpt><trkpt lat="43.2492117" lon="11.3764467"><ele>232.0</ele><time>2026-03-22T11:50:30.357Z</time></trkpt><trkpt lat="43.2492917" lon="11.3764683"><ele>230.99999999999997</ele><time>2026-03-22T11:50:33.357Z</time></trkpt><trkpt lat="43.24935" lon="11.3765483"><ele>230.0</ele><time>2026-03-22T11:50:35.357Z</time></trkpt><trkpt lat="43.2494083" lon="11.376605"><ele>229.0</ele><time>2026-03-22T11:50:37.357Z</time></trkpt><trkpt lat="43.2494867" lon="11.3766533"><ele>228.0</ele><time>2026-03-22T11:50:39.357Z</time></trkpt><trkpt lat="43.2495583" lon="11.376695"><ele>226.99999999999997</ele><time>2026-03-22T11:50:41.357Z</time></trkpt><trkpt lat="43.2496417" lon="11.3766467"><ele>226.0</ele><time>2026-03-22T11:50:44.356Z</time></trkpt><trkpt lat="43.24975" lon="11.3766267"><ele>227.0</ele><time>2026-03-22T11:50:46.357Z</time></trkpt><trkpt lat="43.249835" lon="11.37663"><ele>228.00000000000003</ele><time>2026-03-22T11:50:47.357Z</time></trkpt><trkpt lat="43.2499317" lon="11.3766417"><ele>229.00000000000003</ele><time>2026-03-22T11:50:48.357Z</time></trkpt><trkpt lat="43.2500317" lon="11.376645"><ele>230.0</ele><time>2026-03-22T11:50:49.357Z</time></trkpt><trkpt lat="43.2501233" lon="11.376665"><ele>231.0</ele><time>2026-03-22T11:50:50.356Z</time></trkpt><trkpt lat="43.25021" lon="11.37669"><ele>231.0</ele><time>2026-03-22T11:50:51.357Z</time></trkpt><trkpt lat="43.2502883" lon="11.3767183"><ele>231.0</ele><time>2026-03-22T11:50:52.357Z</time></trkpt><trkpt lat="43.250375" lon="11.3767467"><ele>231.0</ele><time>2026-03-22T11:50:53.357Z</time></trkpt><trkpt lat="43.2504417" lon="11.3767717"><ele>231.0</ele><time>2026-03-22T11:50:54.357Z</time></trkpt><trkpt lat="43.250515" lon="11.37683"><ele>231.0</ele><time>2026-03-22T11:50:56.357Z</time></trkpt><trkpt lat="43.2505833" lon="11.3769217"><ele>231.0</ele><time>2026-03-22T11:50:58.357Z</time></trkpt><trkpt lat="43.2506117" lon="11.377005"><ele>230.0</ele><time>2026-03-22T11:50:59.356Z</time></trkpt><trkpt lat="43.2506317" lon="11.3770933"><ele>229.0</ele><time>2026-03-22T11:51:00.357Z</time></trkpt><trkpt lat="43.2506433" lon="11.3771967"><ele>228.0</ele><time>2026-03-22T11:51:01.357Z</time></trkpt><trkpt lat="43.250665" lon="11.3773067"><ele>227.0</ele><time>2026-03-22T11:51:02.357Z</time></trkpt><trkpt lat="43.2506717" lon="11.3774133"><ele>226.0</ele><time>2026-03-22T11:51:03.357Z</time></trkpt><trkpt lat="43.2506767" lon="11.3775167"><ele>225.0</ele><time>2026-03-22T11:51:04.357Z</time></trkpt><trkpt lat="43.250675" lon="11.3776483"><ele>225.0</ele><time>2026-03-22T11:51:06.356Z</time></trkpt><trkpt lat="43.25073" lon="11.3775667"><ele>225.0</ele><time>2026-03-22T11:51:11.357Z</time></trkpt><trkpt lat="43.2507417" lon="11.3774267"><ele>225.0</ele><time>2026-03-22T11:51:13.357Z</time></trkpt><trkpt lat="43.2507417" lon="11.377335"><ele>225.0</ele><time>2026-03-22T11:51:14.357Z</time></trkpt><trkpt lat="43.2507383" lon="11.3772233"><ele>225.0</ele><time>2026-03-22T11:51:15.357Z</time></trkpt><trkpt lat="43.250725" lon="11.3771067"><ele>225.0</ele><time>2026-03-22T11:51:16.357Z</time></trkpt><trkpt lat="43.250715" lon="11.3769933"><ele>225.0</ele><time>2026-03-22T11:51:17.357Z</time></trkpt><trkpt lat="43.2506883" lon="11.37689"><ele>225.0</ele><time>2026-03-22T11:51:18.357Z</time></trkpt><trkpt lat="43.25065" lon="11.3768"><ele>225.0</ele><time>2026-03-22T11:51:19.357Z</time></trkpt><trkpt lat="43.2506117" lon="11.3766967"><ele>225.0</ele><time>2026-03-22T11:51:20.356Z</time></trkpt><trkpt lat="43.2505883" lon="11.376595"><ele>225.0</ele><time>2026-03-22T11:51:21.357Z</time></trkpt><trkpt lat="43.2506033" lon="11.3764133"><ele>225.8</ele><time>2026-03-22T11:51:23.357Z</time></trkpt><trkpt lat="43.2506333" lon="11.3763"><ele>226.6</ele><time>2026-03-22T11:51:24.356Z</time></trkpt><trkpt lat="43.2506667" lon="11.376175"><ele>227.39999999999998</ele><time>2026-03-22T11:51:25.357Z</time></trkpt><trkpt lat="43.2507017" lon="11.3760533"><ele>228.2</ele><time>2026-03-22T11:51:26.356Z</time></trkpt><trkpt lat="43.2507333" lon="11.37594"><ele>229.0</ele><time>2026-03-22T11:51:27.356Z</time></trkpt><trkpt lat="43.250765" lon="11.3758083"><ele>228.99999999999997</ele><time>2026-03-22T11:51:28.356Z</time></trkpt><trkpt lat="43.2507917" lon="11.3757033"><ele>229.0</ele><time>2026-03-22T11:51:29.357Z</time></trkpt><trkpt lat="43.2508183" lon="11.37561"><ele>229.0</ele><time>2026-03-22T11:51:30.357Z</time></trkpt><trkpt lat="43.2508483" lon="11.3755217"><ele>229.0</ele><time>2026-03-22T11:51:31.357Z</time></trkpt><trkpt lat="43.25088" lon="11.3754267"><ele>228.99999999999997</ele><time>2026-03-22T11:51:32.356Z</time></trkpt><trkpt lat="43.2509183" lon="11.375325"><ele>229.0</ele><time>2026-03-22T11:51:33.357Z</time></trkpt><trkpt lat="43.2509533" lon="11.3752267"><ele>228.83333333333331</ele><time>2026-03-22T11:51:34.357Z</time></trkpt><trkpt lat="43.2509833" lon="11.3751467"><ele>228.66666666666666</ele><time>2026-03-22T11:51:35.357Z</time></trkpt><trkpt lat="43.2510333" lon="11.3750883"><ele>228.5</ele><time>2026-03-22T11:51:36.357Z</time></trkpt><trkpt lat="43.2511067" lon="11.37505"><ele>228.33333333333331</ele><time>2026-03-22T11:51:37.357Z</time></trkpt><trkpt lat="43.2511983" lon="11.375035"><ele>228.16666666666666</ele><time>2026-03-22T11:51:38.356Z</time></trkpt><trkpt lat="43.25129" lon="11.3750117"><ele>228.0</ele><time>2026-03-22T11:51:39.356Z</time></trkpt><trkpt lat="43.2513883" lon="11.3749883"><ele>226.85714285714283</ele><time>2026-03-22T11:51:40.356Z</time></trkpt><trkpt lat="43.2514633" lon="11.3749617"><ele>225.7142857142857</ele><time>2026-03-22T11:51:41.356Z</time></trkpt><trkpt lat="43.2515417" lon="11.3749217"><ele>224.57142857142856</ele><time>2026-03-22T11:51:42.357Z</time></trkpt><trkpt lat="43.2516" lon="11.3748783"><ele>223.42857142857142</ele><time>2026-03-22T11:51:43.356Z</time></trkpt><trkpt lat="43.2516567" lon="11.3748367"><ele>222.28571428571428</ele><time>2026-03-22T11:51:44.357Z</time></trkpt><trkpt lat="43.2517083" lon="11.3747817"><ele>221.1428571428571</ele><time>2026-03-22T11:51:45.356Z</time></trkpt><trkpt lat="43.25177" lon="11.3747267"><ele>220.0</ele><time>2026-03-22T11:51:46.357Z</time></trkpt><trkpt lat="43.2518233" lon="11.3746583"><ele>220.0</ele><time>2026-03-22T11:51:47.357Z</time></trkpt><trkpt lat="43.2518733" lon="11.3745617"><ele>220.0</ele><time>2026-03-22T11:51:48.357Z</time></trkpt><trkpt lat="43.2519267" lon="11.3744717"><ele>220.0</ele><time>2026-03-22T11:51:49.357Z</time></trkpt><trkpt lat="43.25197" lon="11.3743683"><ele>220.0</ele><time>2026-03-22T11:51:50.357Z</time></trkpt><trkpt lat="43.2520017" lon="11.3742383"><ele>220.0</ele><time>2026-03-22T11:51:51.356Z</time></trkpt><trkpt lat="43.25203" lon="11.3741117"><ele>220.0</ele><time>2026-03-22T11:51:52.356Z</time></trkpt><trkpt lat="43.2520467" lon="11.3739717"><ele>220.0</ele><time>2026-03-22T11:51:53.356Z</time></trkpt><trkpt lat="43.2520583" lon="11.37382"><ele>220.0</ele><time>2026-03-22T11:51:54.357Z</time></trkpt><trkpt lat="43.2520767" lon="11.373675"><ele>220.0</ele><time>2026-03-22T11:51:55.357Z</time></trkpt><trkpt lat="43.2520983" lon="11.3735233"><ele>220.0</ele><time>2026-03-22T11:51:56.356Z</time></trkpt><trkpt lat="43.252125" lon="11.3733667"><ele>219.0</ele><time>2026-03-22T11:51:57.357Z</time></trkpt><trkpt lat="43.2521617" lon="11.3731967"><ele>218.0</ele><time>2026-03-22T11:51:58.356Z</time></trkpt><trkpt lat="43.252195" lon="11.37306"><ele>217.0</ele><time>2026-03-22T11:51:59.357Z</time></trkpt><trkpt lat="43.2522267" lon="11.37294"><ele>216.0</ele><time>2026-03-22T11:52:00.357Z</time></trkpt><trkpt lat="43.2522717" lon="11.3728433"><ele>215.0</ele><time>2026-03-22T11:52:01.356Z</time></trkpt><trkpt lat="43.252325" lon="11.37274"><ele>214.4</ele><time>2026-03-22T11:52:02.356Z</time></trkpt><trkpt lat="43.25238" lon="11.3726367"><ele>213.8</ele><time>2026-03-22T11:52:03.356Z</time></trkpt><trkpt lat="43.2524383" lon="11.372525"><ele>213.2</ele><time>2026-03-22T11:52:04.357Z</time></trkpt><trkpt lat="43.252475" lon="11.372415"><ele>212.6</ele><time>2026-03-22T11:52:05.357Z</time></trkpt><trkpt lat="43.2525117" lon="11.372315"><ele>212.0</ele><time>2026-03-22T11:52:06.357Z</time></trkpt><trkpt lat="43.252535" lon="11.3721983"><ele>212.66666666666669</ele><time>2026-03-22T11:52:07.357Z</time></trkpt><trkpt lat="43.2525517" lon="11.372105"><ele>213.33333333333334</ele><time>2026-03-22T11:52:08.357Z</time></trkpt><trkpt lat="43.2525617" lon="11.372"><ele>214.0</ele><time>2026-03-22T11:52:09.356Z</time></trkpt><trkpt lat="43.2525667" lon="11.3718983"><ele>214.66666666666669</ele><time>2026-03-22T11:52:10.357Z</time></trkpt><trkpt lat="43.2525733" lon="11.3718117"><ele>215.33333333333334</ele><time>2026-03-22T11:52:11.357Z</time></trkpt><trkpt lat="43.2526033" lon="11.37168"><ele>216.0</ele><time>2026-03-22T11:52:13.357Z</time></trkpt><trkpt lat="43.2526333" lon="11.3715883"><ele>216.0</ele><time>2026-03-22T11:52:14.357Z</time></trkpt><trkpt lat="43.2526883" lon="11.3714817"><ele>216.0</ele><time>2026-03-22T11:52:15.357Z</time></trkpt><trkpt lat="43.252745" lon="11.3713733"><ele>216.0</ele><time>2026-03-22T11:52:16.356Z</time></trkpt><trkpt lat="43.2528033" lon="11.371275"><ele>216.0</ele><time>2026-03-22T11:52:17.357Z</time></trkpt><trkpt lat="43.2528533" lon="11.3712083"><ele>216.0</ele><time>2026-03-22T11:52:18.357Z</time></trkpt><trkpt lat="43.25292" lon="11.3711383"><ele>216.0</ele><time>2026-03-22T11:52:20.356Z</time></trkpt><trkpt lat="43.2529833" lon="11.3710283"><ele>216.20000000000002</ele><time>2026-03-22T11:52:22.357Z</time></trkpt><trkpt lat="43.2530283" lon="11.37094"><ele>216.40000000000003</ele><time>2026-03-22T11:52:23.357Z</time></trkpt><trkpt lat="43.2530717" lon="11.3708367"><ele>216.6</ele><time>2026-03-22T11:52:24.357Z</time></trkpt><trkpt lat="43.25311" lon="11.3707183"><ele>216.8</ele><time>2026-03-22T11:52:25.357Z</time></trkpt><trkpt lat="43.2531433" lon="11.3705833"><ele>217.0</ele><time>2026-03-22T11:52:26.357Z</time></trkpt><trkpt lat="43.253175" lon="11.370465"><ele>216.99999999999997</ele><time>2026-03-22T11:52:27.357Z</time></trkpt><trkpt lat="43.2532067" lon="11.370365"><ele>217.0</ele><time>2026-03-22T11:52:28.357Z</time></trkpt><trkpt lat="43.2532467" lon="11.3702617"><ele>217.0</ele><time>2026-03-22T11:52:29.357Z</time></trkpt><trkpt lat="43.2533033" lon="11.3701917"><ele>217.0</ele><time>2026-03-22T11:52:30.356Z</time></trkpt><trkpt lat="43.2533733" lon="11.3701167"><ele>216.99999999999997</ele><time>2026-03-22T11:52:31.357Z</time></trkpt><trkpt lat="43.2534617" lon="11.3700533"><ele>217.0</ele><time>2026-03-22T11:52:32.357Z</time></trkpt><trkpt lat="43.2535567" lon="11.3699717"><ele>217.0</ele><time>2026-03-22T11:52:33.357Z</time></trkpt><trkpt lat="43.253655" lon="11.3699033"><ele>217.0</ele><time>2026-03-22T11:52:34.357Z</time></trkpt><trkpt lat="43.2537617" lon="11.3698583"><ele>217.0</ele><time>2026-03-22T11:52:35.357Z</time></trkpt><trkpt lat="43.2538533" lon="11.3698483"><ele>217.0</ele><time>2026-03-22T11:52:36.357Z</time></trkpt><trkpt lat="43.253945" lon="11.369865"><ele>217.0</ele><time>2026-03-22T11:52:37.357Z</time></trkpt><trkpt lat="43.2540483" lon="11.36992"><ele>218.0</ele><time>2026-03-22T11:52:38.357Z</time></trkpt><trkpt lat="43.2541533" lon="11.369975"><ele>219.0</ele><time>2026-03-22T11:52:39.356Z</time></trkpt><trkpt lat="43.2542683" lon="11.370015"><ele>220.0</ele><time>2026-03-22T11:52:40.357Z</time></trkpt><trkpt lat="43.2544" lon="11.3700217"><ele>221.0</ele><time>2026-03-22T11:52:41.356Z</time></trkpt><trkpt lat="43.254535" lon="11.3700283"><ele>221.0</ele><time>2026-03-22T11:52:42.357Z</time></trkpt><trkpt lat="43.2546667" lon="11.3700383"><ele>221.0</ele><time>2026-03-22T11:52:43.357Z</time></trkpt><trkpt lat="43.2547983" lon="11.3700383"><ele>221.0</ele><time>2026-03-22T11:52:44.357Z</time></trkpt><trkpt lat="43.2549" lon="11.3700283"><ele>221.0</ele><time>2026-03-22T11:52:45.357Z</time></trkpt><trkpt lat="43.254985" lon="11.37002"><ele>220.50000000000003</ele><time>2026-03-22T11:52:46.357Z</time></trkpt><trkpt lat="43.2550667" lon="11.3699883"><ele>220.0</ele><time>2026-03-22T11:52:47.357Z</time></trkpt><trkpt lat="43.2551583" lon="11.36995"><ele>219.5</ele><time>2026-03-22T11:52:48.356Z</time></trkpt><trkpt lat="43.2552433" lon="11.369905"><ele>219.0</ele><time>2026-03-22T11:52:49.357Z</time></trkpt><trkpt lat="43.255325" lon="11.369865"><ele>218.50000000000003</ele><time>2026-03-22T11:52:50.357Z</time></trkpt><trkpt lat="43.2554083" lon="11.3698283"><ele>218.0</ele><time>2026-03-22T11:52:52.357Z</time></trkpt><trkpt lat="43.255365" lon="11.3696867"><ele>217.8</ele><time>2026-03-22T11:52:55.357Z</time></trkpt><trkpt lat="43.2552917" lon="11.3695533"><ele>217.60000000000002</ele><time>2026-03-22T11:52:57.356Z</time></trkpt><trkpt lat="43.25524" lon="11.3694617"><ele>217.39999999999998</ele><time>2026-03-22T11:52:58.357Z</time></trkpt><trkpt lat="43.2551767" lon="11.3693633"><ele>217.2</ele><time>2026-03-22T11:52:59.357Z</time></trkpt><trkpt lat="43.2551067" lon="11.3692567"><ele>217.0</ele><time>2026-03-22T11:53:00.357Z</time></trkpt><trkpt lat="43.2550383" lon="11.3691533"><ele>217.0</ele><time>2026-03-22T11:53:01.356Z</time></trkpt><trkpt lat="43.2549617" lon="11.3690483"><ele>217.0</ele><time>2026-03-22T11:53:02.357Z</time></trkpt><trkpt lat="43.2548833" lon="11.3689233"><ele>217.0</ele><time>2026-03-22T11:53:03.357Z</time></trkpt><trkpt lat="43.2548133" lon="11.36881"><ele>217.0</ele><time>2026-03-22T11:53:04.357Z</time></trkpt><trkpt lat="43.25476" lon="11.368675"><ele>217.0</ele><time>2026-03-22T11:53:05.357Z</time></trkpt><trkpt lat="43.254735" lon="11.36852"><ele>216.8</ele><time>2026-03-22T11:53:06.357Z</time></trkpt><trkpt lat="43.2547033" lon="11.3683717"><ele>216.6</ele><time>2026-03-22T11:53:07.357Z</time></trkpt><trkpt lat="43.2546733" lon="11.3682233"><ele>216.40000000000003</ele><time>2026-03-22T11:53:08.356Z</time></trkpt><trkpt lat="43.2546417" lon="11.36809"><ele>216.20000000000002</ele><time>2026-03-22T11:53:09.357Z</time></trkpt><trkpt lat="43.2546017" lon="11.3679533"><ele>216.0</ele><time>2026-03-22T11:53:10.357Z</time></trkpt><trkpt lat="43.254555" lon="11.36781"><ele>215.75</ele><time>2026-03-22T11:53:11.357Z</time></trkpt><trkpt lat="43.254525" lon="11.367665"><ele>215.5</ele><time>2026-03-22T11:53:12.357Z</time></trkpt><trkpt lat="43.2545017" lon="11.3675017"><ele>215.25</ele><time>2026-03-22T11:53:13.357Z</time></trkpt><trkpt lat="43.2544833" lon="11.3673233"><ele>215.0</ele><time>2026-03-22T11:53:14.357Z</time></trkpt><trkpt lat="43.254485" lon="11.3671683"><ele>215.0</ele><time>2026-03-22T11:53:15.356Z</time></trkpt><trkpt lat="43.2544833" lon="11.3670167"><ele>215.0</ele><time>2026-03-22T11:53:16.357Z</time></trkpt><trkpt lat="43.2544833" lon="11.366895"><ele>215.0</ele><time>2026-03-22T11:53:17.357Z</time></trkpt><trkpt lat="43.2544833" lon="11.366775"><ele>215.0</ele><time>2026-03-22T11:53:18.357Z</time></trkpt><trkpt lat="43.2544883" lon="11.3666517"><ele>215.0</ele><time>2026-03-22T11:53:19.357Z</time></trkpt><trkpt lat="43.2544883" lon="11.3664917"><ele>215.25</ele><time>2026-03-22T11:53:20.357Z</time></trkpt><trkpt lat="43.2544717" lon="11.366335"><ele>215.5</ele><time>2026-03-22T11:53:21.357Z</time></trkpt><trkpt lat="43.254455" lon="11.3661467"><ele>215.75</ele><time>2026-03-22T11:53:22.357Z</time></trkpt><trkpt lat="43.2544183" lon="11.365965"><ele>216.0</ele><time>2026-03-22T11:53:23.357Z</time></trkpt><trkpt lat="43.2543783" lon="11.365805"><ele>216.0</ele><time>2026-03-22T11:53:24.357Z</time></trkpt><trkpt lat="43.2543333" lon="11.36566"><ele>216.0</ele><time>2026-03-22T11:53:25.357Z</time></trkpt><trkpt lat="43.2542717" lon="11.3655217"><ele>216.0</ele><time>2026-03-22T11:53:26.357Z</time></trkpt><trkpt lat="43.254205" lon="11.3653783"><ele>216.0</ele><time>2026-03-22T11:53:27.356Z</time></trkpt><trkpt lat="43.2541317" lon="11.3652433"><ele>216.25</ele><time>2026-03-22T11:53:28.356Z</time></trkpt><trkpt lat="43.2540483" lon="11.3651167"><ele>216.5</ele><time>2026-03-22T11:53:29.357Z</time></trkpt><trkpt lat="43.2539667" lon="11.365"><ele>216.75</ele><time>2026-03-22T11:53:30.357Z</time></trkpt><trkpt lat="43.2538833" lon="11.3648783"><ele>217.0</ele><time>2026-03-22T11:53:31.357Z</time></trkpt><trkpt lat="43.2538133" lon="11.36476"><ele>219.39999999999998</ele><time>2026-03-22T11:53:32.357Z</time></trkpt><trkpt lat="43.2537667" lon="11.36465"><ele>221.79999999999998</ele><time>2026-03-22T11:53:33.357Z</time></trkpt><trkpt lat="43.2537217" lon="11.3645517"><ele>224.2</ele><time>2026-03-22T11:53:34.357Z</time></trkpt><trkpt lat="43.2536583" lon="11.3644317"><ele>226.6</ele><time>2026-03-22T11:53:36.357Z</time></trkpt><trkpt lat="43.2535933" lon="11.3643133"><ele>229.0</ele><time>2026-03-22T11:53:38.357Z</time></trkpt><trkpt lat="43.253555" lon="11.3642367"><ele>229.0</ele><time>2026-03-22T11:53:39.357Z</time></trkpt><trkpt lat="43.25352" lon="11.3641483"><ele>228.99999999999997</ele><time>2026-03-22T11:53:40.357Z</time></trkpt><trkpt lat="43.2534933" lon="11.3640483"><ele>228.99999999999997</ele><time>2026-03-22T11:53:41.357Z</time></trkpt><trkpt lat="43.2534967" lon="11.36391"><ele>229.0</ele><time>2026-03-22T11:53:43.356Z</time></trkpt><trkpt lat="43.2535733" lon="11.3637683"><ele>229.0</ele><time>2026-03-22T11:53:45.357Z</time></trkpt><trkpt lat="43.253625" lon="11.3636867"><ele>228.99999999999997</ele><time>2026-03-22T11:53:46.357Z</time></trkpt><trkpt lat="43.2536733" lon="11.3635933"><ele>229.0</ele><time>2026-03-22T11:53:47.357Z</time></trkpt><trkpt lat="43.2537033" lon="11.36349"><ele>229.0</ele><time>2026-03-22T11:53:48.357Z</time></trkpt><trkpt lat="43.2537217" lon="11.3633933"><ele>229.0</ele><time>2026-03-22T11:53:49.357Z</time></trkpt><trkpt lat="43.253745" lon="11.3632683"><ele>228.99999999999997</ele><time>2026-03-22T11:53:50.357Z</time></trkpt><trkpt lat="43.2537583" lon="11.3631317"><ele>229.0</ele><time>2026-03-22T11:53:51.357Z</time></trkpt><trkpt lat="43.2537917" lon="11.362985"><ele>228.2</ele><time>2026-03-22T11:53:52.357Z</time></trkpt><trkpt lat="43.2538417" lon="11.36286"><ele>227.39999999999998</ele><time>2026-03-22T11:53:53.356Z</time></trkpt><trkpt lat="43.2538983" lon="11.3627517"><ele>226.6</ele><time>2026-03-22T11:53:54.357Z</time></trkpt><trkpt lat="43.2539567" lon="11.3626517"><ele>225.8</ele><time>2026-03-22T11:53:55.357Z</time></trkpt><trkpt lat="43.2540067" lon="11.362565"><ele>225.0</ele><time>2026-03-22T11:53:56.357Z</time></trkpt><trkpt lat="43.2540483" lon="11.362435"><ele>225.0</ele><time>2026-03-22T11:53:58.357Z</time></trkpt><trkpt lat="43.254" lon="11.3623733"><ele>225.0</ele><time>2026-03-22T11:54:02.357Z</time></trkpt><trkpt lat="43.2538683" lon="11.362415"><ele>225.0</ele><time>2026-03-22T11:54:04.357Z</time></trkpt><trkpt lat="43.2537917" lon="11.362435"><ele>225.0</ele><time>2026-03-22T11:54:05.357Z</time></trkpt><trkpt lat="43.2537017" lon="11.3624483"><ele>225.0</ele><time>2026-03-22T11:54:06.357Z</time></trkpt><trkpt lat="43.2536067" lon="11.3624733"><ele>225.0</ele><time>2026-03-22T11:54:07.357Z</time></trkpt><trkpt lat="43.2534967" lon="11.3625"><ele>225.0</ele><time>2026-03-22T11:54:08.357Z</time></trkpt><trkpt lat="43.25338" lon="11.362525"><ele>225.0</ele><time>2026-03-22T11:54:09.357Z</time></trkpt><trkpt lat="43.2532667" lon="11.36256"><ele>225.0</ele><time>2026-03-22T11:54:10.357Z</time></trkpt><trkpt lat="43.25316" lon="11.3625967"><ele>225.6</ele><time>2026-03-22T11:54:11.356Z</time></trkpt><trkpt lat="43.2530617" lon="11.3626417"><ele>226.2</ele><time>2026-03-22T11:54:12.357Z</time></trkpt><trkpt lat="43.252965" lon="11.362675"><ele>226.8</ele><time>2026-03-22T11:54:13.357Z</time></trkpt><trkpt lat="43.2528967" lon="11.3626917"><ele>227.4</ele><time>2026-03-22T11:54:14.357Z</time></trkpt><trkpt lat="43.2527933" lon="11.3626217"><ele>228.0</ele><time>2026-03-22T11:54:16.357Z</time></trkpt><trkpt lat="43.2527383" lon="11.3625317"><ele>228.0</ele><time>2026-03-22T11:54:17.356Z</time></trkpt><trkpt lat="43.2526733" lon="11.3624167"><ele>228.0</ele><time>2026-03-22T11:54:18.356Z</time></trkpt><trkpt lat="43.2525967" lon="11.362255"><ele>228.0</ele><time>2026-03-22T11:54:19.357Z</time></trkpt><trkpt lat="43.2525117" lon="11.362115"><ele>228.0</ele><time>2026-03-22T11:54:20.357Z</time></trkpt><trkpt lat="43.25243" lon="11.3619833"><ele>227.0</ele><time>2026-03-22T11:54:21.356Z</time></trkpt><trkpt lat="43.2523467" lon="11.3618433"><ele>226.0</ele><time>2026-03-22T11:54:22.357Z</time></trkpt><trkpt lat="43.252255" lon="11.3617"><ele>225.0</ele><time>2026-03-22T11:54:23.357Z</time></trkpt><trkpt lat="43.2521683" lon="11.36158"><ele>224.0</ele><time>2026-03-22T11:54:24.357Z</time></trkpt><trkpt lat="43.252065" lon="11.36148"><ele>223.0</ele><time>2026-03-22T11:54:25.357Z</time></trkpt><trkpt lat="43.2519517" lon="11.361365"><ele>222.0</ele><time>2026-03-22T11:54:26.356Z</time></trkpt><trkpt lat="43.2518367" lon="11.3612467"><ele>221.0</ele><time>2026-03-22T11:54:27.357Z</time></trkpt><trkpt lat="43.2517233" lon="11.3611133"><ele>220.0</ele><time>2026-03-22T11:54:28.357Z</time></trkpt><trkpt lat="43.2516183" lon="11.3609733"><ele>220.0</ele><time>2026-03-22T11:54:29.357Z</time></trkpt><trkpt lat="43.2515183" lon="11.36082"><ele>220.0</ele><time>2026-03-22T11:54:30.357Z</time></trkpt><trkpt lat="43.2514183" lon="11.3606633"><ele>220.0</ele><time>2026-03-22T11:54:31.357Z</time></trkpt><trkpt lat="43.2513167" lon="11.3605083"><ele>219.0</ele><time>2026-03-22T11:54:32.356Z</time></trkpt><trkpt lat="43.2512233" lon="11.36037"><ele>218.0</ele><time>2026-03-22T11:54:33.357Z</time></trkpt><trkpt lat="43.2511317" lon="11.3602283"><ele>217.0</ele><time>2026-03-22T11:54:34.357Z</time></trkpt><trkpt lat="43.2510383" lon="11.3600933"><ele>216.0</ele><time>2026-03-22T11:54:35.357Z</time></trkpt><trkpt lat="43.2509617" lon="11.3599767"><ele>216.0</ele><time>2026-03-22T11:54:36.357Z</time></trkpt><trkpt lat="43.2508833" lon="11.3598517"><ele>216.00000000000003</ele><time>2026-03-22T11:54:37.357Z</time></trkpt><trkpt lat="43.2508067" lon="11.3597317"><ele>216.00000000000003</ele><time>2026-03-22T11:54:38.357Z</time></trkpt><trkpt lat="43.2507517" lon="11.3596283"><ele>216.0</ele><time>2026-03-22T11:54:39.356Z</time></trkpt><trkpt lat="43.250695" lon="11.3595383"><ele>216.0</ele><time>2026-03-22T11:54:40.357Z</time></trkpt><trkpt lat="43.2506667" lon="11.35944"><ele>216.0</ele><time>2026-03-22T11:54:41.357Z</time></trkpt><trkpt lat="43.25064" lon="11.3593433"><ele>216.0</ele><time>2026-03-22T11:54:42.357Z</time></trkpt><trkpt lat="43.2506083" lon="11.35924"><ele>216.0</ele><time>2026-03-22T11:54:43.356Z</time></trkpt><trkpt lat="43.2505717" lon="11.3591167"><ele>216.0</ele><time>2026-03-22T11:54:44.357Z</time></trkpt><trkpt lat="43.25054" lon="11.3590083"><ele>216.0</ele><time>2026-03-22T11:54:45.357Z</time></trkpt><trkpt lat="43.2505017" lon="11.3589117"><ele>216.0</ele><time>2026-03-22T11:54:46.357Z</time></trkpt><trkpt lat="43.250435" lon="11.3587967"><ele>216.8</ele><time>2026-03-22T11:54:48.357Z</time></trkpt><trkpt lat="43.2503017" lon="11.3587567"><ele>217.60000000000002</ele><time>2026-03-22T11:54:50.356Z</time></trkpt><trkpt lat="43.2502333" lon="11.35875"><ele>218.4</ele><time>2026-03-22T11:54:51.356Z</time></trkpt><trkpt lat="43.2501083" lon="11.3587333"><ele>219.2</ele><time>2026-03-22T11:54:53.357Z</time></trkpt><trkpt lat="43.2500433" lon="11.3587183"><ele>220.0</ele><time>2026-03-22T11:54:54.357Z</time></trkpt><trkpt lat="43.2499783" lon="11.3586817"><ele>220.0</ele><time>2026-03-22T11:54:55.357Z</time></trkpt><trkpt lat="43.249875" lon="11.3586167"><ele>220.0</ele><time>2026-03-22T11:54:57.357Z</time></trkpt><trkpt lat="43.249775" lon="11.358535"><ele>220.0</ele><time>2026-03-22T11:54:59.357Z</time></trkpt><trkpt lat="43.2496833" lon="11.3584167"><ele>220.0</ele><time>2026-03-22T11:55:01.357Z</time></trkpt><trkpt lat="43.2496317" lon="11.3583483"><ele>220.0</ele><time>2026-03-22T11:55:02.356Z</time></trkpt><trkpt lat="43.2495717" lon="11.3582733"><ele>217.33333333333331</ele><time>2026-03-22T11:55:03.357Z</time></trkpt><trkpt lat="43.2495117" lon="11.3582017"><ele>214.66666666666666</ele><time>2026-03-22T11:55:04.356Z</time></trkpt><trkpt lat="43.249445" lon="11.35812"><ele>212.0</ele><time>2026-03-22T11:55:05.357Z</time></trkpt><trkpt lat="43.2493867" lon="11.3580433"><ele>209.33333333333331</ele><time>2026-03-22T11:55:06.357Z</time></trkpt><trkpt lat="43.249335" lon="11.3579683"><ele>206.66666666666666</ele><time>2026-03-22T11:55:07.357Z</time></trkpt><trkpt lat="43.2492933" lon="11.35787"><ele>204.0</ele><time>2026-03-22T11:55:08.356Z</time></trkpt><trkpt lat="43.249265" lon="11.357755"><ele>204.0</ele><time>2026-03-22T11:55:09.357Z</time></trkpt><trkpt lat="43.2492517" lon="11.35762"><ele>204.0</ele><time>2026-03-22T11:55:10.357Z</time></trkpt><trkpt lat="43.2492533" lon="11.3574817"><ele>204.0</ele><time>2026-03-22T11:55:11.356Z</time></trkpt><trkpt lat="43.2492583" lon="11.357335"><ele>204.0</ele><time>2026-03-22T11:55:12.356Z</time></trkpt><trkpt lat="43.2492667" lon="11.3571833"><ele>204.0</ele><time>2026-03-22T11:55:13.357Z</time></trkpt><trkpt lat="43.2492883" lon="11.35702"><ele>203.5</ele><time>2026-03-22T11:55:14.356Z</time></trkpt><trkpt lat="43.2492967" lon="11.3568383"><ele>203.0</ele><time>2026-03-22T11:55:15.356Z</time></trkpt><trkpt lat="43.2493083" lon="11.3566733"><ele>202.5</ele><time>2026-03-22T11:55:16.357Z</time></trkpt><trkpt lat="43.2493183" lon="11.3565217"><ele>202.0</ele><time>2026-03-22T11:55:17.357Z</time></trkpt><trkpt lat="43.2493217" lon="11.3563867"><ele>201.16666666666666</ele><time>2026-03-22T11:55:18.357Z</time></trkpt><trkpt lat="43.2493317" lon="11.35627"><ele>200.33333333333331</ele><time>2026-03-22T11:55:19.356Z</time></trkpt><trkpt lat="43.2493367" lon="11.3561533"><ele>199.5</ele><time>2026-03-22T11:55:20.357Z</time></trkpt><trkpt lat="43.2493383" lon="11.3560317"><ele>198.66666666666669</ele><time>2026-03-22T11:55:21.356Z</time></trkpt><trkpt lat="43.2493483" lon="11.355915"><ele>197.83333333333334</ele><time>2026-03-22T11:55:22.357Z</time></trkpt><trkpt lat="43.2493567" lon="11.3557817"><ele>197.0</ele><time>2026-03-22T11:55:23.357Z</time></trkpt><trkpt lat="43.24937" lon="11.3556433"><ele>195.25</ele><time>2026-03-22T11:55:24.356Z</time></trkpt><trkpt lat="43.2493817" lon="11.3554833"><ele>193.5</ele><time>2026-03-22T11:55:25.357Z</time></trkpt><trkpt lat="43.2493833" lon="11.35531"><ele>191.75</ele><time>2026-03-22T11:55:26.357Z</time></trkpt><trkpt lat="43.2493933" lon="11.3551467"><ele>190.0</ele><time>2026-03-22T11:55:27.357Z</time></trkpt><trkpt lat="43.2494217" lon="11.3549983"><ele>190.0</ele><time>2026-03-22T11:55:28.357Z</time></trkpt><trkpt lat="43.2494317" lon="11.3548733"><ele>190.0</ele><time>2026-03-22T11:55:29.357Z</time></trkpt><trkpt lat="43.2494567" lon="11.354755"><ele>190.0</ele><time>2026-03-22T11:55:30.357Z</time></trkpt><trkpt lat="43.24948" lon="11.3546683"><ele>190.0</ele><time>2026-03-22T11:55:31.357Z</time></trkpt><trkpt lat="43.249515" lon="11.3545433"><ele>190.0</ele><time>2026-03-22T11:55:33.357Z</time></trkpt><trkpt lat="43.24953" lon="11.3544533"><ele>190.0</ele><time>2026-03-22T11:55:34.357Z</time></trkpt><trkpt lat="43.249545" lon="11.3543367"><ele>190.0</ele><time>2026-03-22T11:55:35.357Z</time></trkpt><trkpt lat="43.2495633" lon="11.3542067"><ele>190.0</ele><time>2026-03-22T11:55:36.357Z</time></trkpt><trkpt lat="43.2495817" lon="11.3540667"><ele>190.0</ele><time>2026-03-22T11:55:37.357Z</time></trkpt><trkpt lat="43.2496" lon="11.3539367"><ele>190.0</ele><time>2026-03-22T11:55:38.357Z</time></trkpt><trkpt lat="43.2496167" lon="11.3538133"><ele>190.0</ele><time>2026-03-22T11:55:39.357Z</time></trkpt><trkpt lat="43.2496233" lon="11.353705"><ele>191.2</ele><time>2026-03-22T11:55:40.357Z</time></trkpt><trkpt lat="43.2496283" lon="11.3536067"><ele>192.4</ele><time>2026-03-22T11:55:41.356Z</time></trkpt><trkpt lat="43.2496283" lon="11.3534833"><ele>193.60000000000002</ele><time>2026-03-22T11:55:42.357Z</time></trkpt><trkpt lat="43.249635" lon="11.3533583"><ele>194.8</ele><time>2026-03-22T11:55:43.357Z</time></trkpt><trkpt lat="43.2496383" lon="11.353225"><ele>196.0</ele><time>2026-03-22T11:55:44.357Z</time></trkpt><trkpt lat="43.249645" lon="11.3530783"><ele>197.0</ele><time>2026-03-22T11:55:45.357Z</time></trkpt><trkpt lat="43.2496617" lon="11.3529317"><ele>198.0</ele><time>2026-03-22T11:55:46.357Z</time></trkpt><trkpt lat="43.2496867" lon="11.352785"><ele>199.0</ele><time>2026-03-22T11:55:47.357Z</time></trkpt><trkpt lat="43.24972" lon="11.352635"><ele>200.0</ele><time>2026-03-22T11:55:48.356Z</time></trkpt><trkpt lat="43.2497583" lon="11.3525"><ele>201.0</ele><time>2026-03-22T11:55:49.357Z</time></trkpt><trkpt lat="43.249815" lon="11.3523833"><ele>200.8</ele><time>2026-03-22T11:55:50.357Z</time></trkpt><trkpt lat="43.2498817" lon="11.3522683"><ele>200.60000000000002</ele><time>2026-03-22T11:55:51.358Z</time></trkpt><trkpt lat="43.2499467" lon="11.3521683"><ele>200.4</ele><time>2026-03-22T11:55:52.358Z</time></trkpt><trkpt lat="43.2499983" lon="11.352055"><ele>200.2</ele><time>2026-03-22T11:55:53.358Z</time></trkpt><trkpt lat="43.250035" lon="11.3519533"><ele>200.0</ele><time>2026-03-22T11:55:54.358Z</time></trkpt><trkpt lat="43.2500633" lon="11.35186"><ele>200.00000000000003</ele><time>2026-03-22T11:55:55.358Z</time></trkpt><trkpt lat="43.25009" lon="11.35175"><ele>200.0</ele><time>2026-03-22T11:55:56.358Z</time></trkpt><trkpt lat="43.2501217" lon="11.3516317"><ele>200.0</ele><time>2026-03-22T11:55:57.358Z</time></trkpt><trkpt lat="43.25016" lon="11.3515117"><ele>200.0</ele><time>2026-03-22T11:55:58.358Z</time></trkpt><trkpt lat="43.2501983" lon="11.35139"><ele>200.00000000000003</ele><time>2026-03-22T11:55:59.357Z</time></trkpt><trkpt lat="43.2502283" lon="11.3512917"><ele>200.0</ele><time>2026-03-22T11:56:00.358Z</time></trkpt><trkpt lat="43.2502667" lon="11.35122"><ele>200.16666666666669</ele><time>2026-03-22T11:56:01.357Z</time></trkpt><trkpt lat="43.250325" lon="11.35113"><ele>200.33333333333334</ele><time>2026-03-22T11:56:03.358Z</time></trkpt><trkpt lat="43.2504017" lon="11.3510933"><ele>200.5</ele><time>2026-03-22T11:56:10.357Z</time></trkpt><trkpt lat="43.25048" lon="11.3510267"><ele>200.66666666666669</ele><time>2026-03-22T11:56:12.358Z</time></trkpt><trkpt lat="43.2505317" lon="11.3509717"><ele>200.83333333333334</ele><time>2026-03-22T11:56:13.357Z</time></trkpt><trkpt lat="43.250585" lon="11.3509217"><ele>201.0</ele><time>2026-03-22T11:56:14.357Z</time></trkpt><trkpt lat="43.2506733" lon="11.350815"><ele>201.0</ele><time>2026-03-22T11:56:16.358Z</time></trkpt><trkpt lat="43.250715" lon="11.35075"><ele>201.0</ele><time>2026-03-22T11:56:17.358Z</time></trkpt><trkpt lat="43.2507867" lon="11.3506083"><ele>201.0</ele><time>2026-03-22T11:56:19.358Z</time></trkpt><trkpt lat="43.2508383" lon="11.3505267"><ele>201.0</ele><time>2026-03-22T11:56:20.357Z</time></trkpt><trkpt lat="43.2508867" lon="11.3504533"><ele>201.0</ele><time>2026-03-22T11:56:21.357Z</time></trkpt><trkpt lat="43.2509383" lon="11.3503883"><ele>201.0</ele><time>2026-03-22T11:56:22.357Z</time></trkpt><trkpt lat="43.2509967" lon="11.3503283"><ele>199.7142857142857</ele><time>2026-03-22T11:56:23.358Z</time></trkpt><trkpt lat="43.2510617" lon="11.350275"><ele>198.42857142857144</ele><time>2026-03-22T11:56:24.358Z</time></trkpt><trkpt lat="43.25113" lon="11.3502283"><ele>197.14285714285714</ele><time>2026-03-22T11:56:25.358Z</time></trkpt><trkpt lat="43.2511867" lon="11.3501867"><ele>195.85714285714283</ele><time>2026-03-22T11:56:26.358Z</time></trkpt><trkpt lat="43.2512633" lon="11.350105"><ele>194.57142857142856</ele><time>2026-03-22T11:56:28.357Z</time></trkpt><trkpt lat="43.2512767" lon="11.35002"><ele>193.28571428571428</ele><time>2026-03-22T11:56:30.357Z</time></trkpt><trkpt lat="43.2512917" lon="11.3499233"><ele>192.0</ele><time>2026-03-22T11:56:33.358Z</time></trkpt><trkpt lat="43.25132" lon="11.3498367"><ele>191.5</ele><time>2026-03-22T11:56:36.358Z</time></trkpt><trkpt lat="43.2513433" lon="11.349695"><ele>191.0</ele><time>2026-03-22T11:56:38.357Z</time></trkpt><trkpt lat="43.2513433" lon="11.3496017"><ele>190.5</ele><time>2026-03-22T11:56:39.358Z</time></trkpt><trkpt lat="43.2513333" lon="11.3494917"><ele>190.0</ele><time>2026-03-22T11:56:40.358Z</time></trkpt><trkpt lat="43.25131" lon="11.349385"><ele>189.5</ele><time>2026-03-22T11:56:41.358Z</time></trkpt><trkpt lat="43.2512733" lon="11.3492717"><ele>189.0</ele><time>2026-03-22T11:56:42.358Z</time></trkpt><trkpt lat="43.2512483" lon="11.34917"><ele>189.0</ele><time>2026-03-22T11:56:43.358Z</time></trkpt><trkpt lat="43.2512217" lon="11.3490533"><ele>189.0</ele><time>2026-03-22T11:56:45.358Z</time></trkpt><trkpt lat="43.251225" lon="11.3489467"><ele>189.0</ele><time>2026-03-22T11:56:48.358Z</time></trkpt><trkpt lat="43.2512017" lon="11.3488183"><ele>189.0</ele><time>2026-03-22T11:56:52.358Z</time></trkpt><trkpt lat="43.251205" lon="11.3486483"><ele>189.0</ele><time>2026-03-22T11:56:54.358Z</time></trkpt><trkpt lat="43.25121" lon="11.3485433"><ele>189.2</ele><time>2026-03-22T11:56:55.357Z</time></trkpt><trkpt lat="43.2512233" lon="11.3484233"><ele>189.39999999999998</ele><time>2026-03-22T11:56:56.357Z</time></trkpt><trkpt lat="43.25124" lon="11.3483017"><ele>189.6</ele><time>2026-03-22T11:56:57.357Z</time></trkpt><trkpt lat="43.2512533" lon="11.3481583"><ele>189.8</ele><time>2026-03-22T11:56:58.358Z</time></trkpt><trkpt lat="43.2512583" lon="11.34801"><ele>190.0</ele><time>2026-03-22T11:56:59.358Z</time></trkpt><trkpt lat="43.2512617" lon="11.34787"><ele>191.75</ele><time>2026-03-22T11:57:00.357Z</time></trkpt><trkpt lat="43.2512517" lon="11.347715"><ele>193.5</ele><time>2026-03-22T11:57:01.357Z</time></trkpt><trkpt lat="43.251235" lon="11.3475617"><ele>195.25</ele><time>2026-03-22T11:57:02.357Z</time></trkpt><trkpt lat="43.2512167" lon="11.3474083"><ele>197.0</ele><time>2026-03-22T11:57:03.357Z</time></trkpt><trkpt lat="43.2512067" lon="11.347255"><ele>199.0</ele><time>2026-03-22T11:57:04.358Z</time></trkpt><trkpt lat="43.2511867" lon="11.3471"><ele>201.0</ele><time>2026-03-22T11:57:05.358Z</time></trkpt><trkpt lat="43.2511583" lon="11.3469483"><ele>203.0</ele><time>2026-03-22T11:57:06.357Z</time></trkpt><trkpt lat="43.25113" lon="11.3467967"><ele>205.0</ele><time>2026-03-22T11:57:07.358Z</time></trkpt><trkpt lat="43.251105" lon="11.3466417"><ele>205.0</ele><time>2026-03-22T11:57:08.358Z</time></trkpt><trkpt lat="43.251075" lon="11.3465017"><ele>205.0</ele><time>2026-03-22T11:57:09.358Z</time></trkpt><trkpt lat="43.2510467" lon="11.3463583"><ele>205.0</ele><time>2026-03-22T11:57:10.358Z</time></trkpt><trkpt lat="43.2510067" lon="11.3462133"><ele>205.0</ele><time>2026-03-22T11:57:11.358Z</time></trkpt><trkpt lat="43.2509583" lon="11.3460583"><ele>206.5</ele><time>2026-03-22T11:57:12.358Z</time></trkpt><trkpt lat="43.2509183" lon="11.3459067"><ele>208.0</ele><time>2026-03-22T11:57:13.357Z</time></trkpt><trkpt lat="43.2508867" lon="11.3457617"><ele>209.5</ele><time>2026-03-22T11:57:14.358Z</time></trkpt><trkpt lat="43.2508433" lon="11.345595"><ele>211.0</ele><time>2026-03-22T11:57:15.358Z</time></trkpt><trkpt lat="43.2508" lon="11.34544"><ele>212.4</ele><time>2026-03-22T11:57:16.358Z</time></trkpt><trkpt lat="43.2507717" lon="11.345295"><ele>213.8</ele><time>2026-03-22T11:57:17.357Z</time></trkpt><trkpt lat="43.2507617" lon="11.3451417"><ele>215.20000000000002</ele><time>2026-03-22T11:57:18.358Z</time></trkpt><trkpt lat="43.2507633" lon="11.3449783"><ele>216.60000000000002</ele><time>2026-03-22T11:57:19.357Z</time></trkpt><trkpt lat="43.2507717" lon="11.3448433"><ele>218.0</ele><time>2026-03-22T11:57:20.357Z</time></trkpt><trkpt lat="43.250765" lon="11.34473"><ele>218.83333333333334</ele><time>2026-03-22T11:57:21.357Z</time></trkpt><trkpt lat="43.2507467" lon="11.3446333"><ele>219.66666666666669</ele><time>2026-03-22T11:57:22.357Z</time></trkpt><trkpt lat="43.25071" lon="11.3445433"><ele>220.5</ele><time>2026-03-22T11:57:23.358Z</time></trkpt><trkpt lat="43.2506633" lon="11.3444683"><ele>221.33333333333331</ele><time>2026-03-22T11:57:24.358Z</time></trkpt><trkpt lat="43.250625" lon="11.3443367"><ele>222.16666666666666</ele><time>2026-03-22T11:57:26.358Z</time></trkpt><trkpt lat="43.250635" lon="11.344225"><ele>223.0</ele><time>2026-03-22T11:57:28.358Z</time></trkpt><trkpt lat="43.2505983" lon="11.3441033"><ele>223.0</ele><time>2026-03-22T11:57:30.358Z</time></trkpt><trkpt lat="43.2505933" lon="11.3440083"><ele>223.0</ele><time>2026-03-22T11:57:32.357Z</time></trkpt><trkpt lat="43.2506467" lon="11.34392"><ele>223.0</ele><time>2026-03-22T11:57:34.358Z</time></trkpt><trkpt lat="43.25071" lon="11.343845"><ele>223.0</ele><time>2026-03-22T11:57:35.357Z</time></trkpt><trkpt lat="43.2507817" lon="11.3437617"><ele>223.0</ele><time>2026-03-22T11:57:36.358Z</time></trkpt><trkpt lat="43.250885" lon="11.3436617"><ele>221.75</ele><time>2026-03-22T11:57:37.358Z</time></trkpt><trkpt lat="43.25099" lon="11.34355"><ele>220.5</ele><time>2026-03-22T11:57:38.358Z</time></trkpt><trkpt lat="43.251095" lon="11.3434517"><ele>219.25</ele><time>2026-03-22T11:57:39.358Z</time></trkpt><trkpt lat="43.2511967" lon="11.3433367"><ele>218.0</ele><time>2026-03-22T11:57:40.358Z</time></trkpt><trkpt lat="43.2512933" lon="11.3432083"><ele>218.0</ele><time>2026-03-22T11:57:41.358Z</time></trkpt><trkpt lat="43.2513633" lon="11.3430667"><ele>218.0</ele><time>2026-03-22T11:57:42.358Z</time></trkpt><trkpt lat="43.2514167" lon="11.34292"><ele>218.0</ele><time>2026-03-22T11:57:43.358Z</time></trkpt><trkpt lat="43.25147" lon="11.34275"><ele>218.0</ele><time>2026-03-22T11:57:44.358Z</time></trkpt><trkpt lat="43.2515283" lon="11.342595"><ele>217.5</ele><time>2026-03-22T11:57:45.358Z</time></trkpt><trkpt lat="43.2515933" lon="11.342425"><ele>217.0</ele><time>2026-03-22T11:57:46.357Z</time></trkpt><trkpt lat="43.251635" lon="11.342255"><ele>216.5</ele><time>2026-03-22T11:57:47.358Z</time></trkpt><trkpt lat="43.2516767" lon="11.3421217"><ele>216.0</ele><time>2026-03-22T11:57:48.357Z</time></trkpt><trkpt lat="43.25169" lon="11.3419883"><ele>215.8</ele><time>2026-03-22T11:57:49.358Z</time></trkpt><trkpt lat="43.2516883" lon="11.3418283"><ele>215.60000000000002</ele><time>2026-03-22T11:57:50.358Z</time></trkpt><trkpt lat="43.2516817" lon="11.34168"><ele>215.4</ele><time>2026-03-22T11:57:51.358Z</time></trkpt><trkpt lat="43.2516867" lon="11.3415333"><ele>215.2</ele><time>2026-03-22T11:57:52.357Z</time></trkpt><trkpt lat="43.2516767" lon="11.3413933"><ele>215.0</ele><time>2026-03-22T11:57:53.358Z</time></trkpt><trkpt lat="43.2516583" lon="11.3412633"><ele>215.0</ele><time>2026-03-22T11:57:54.358Z</time></trkpt><trkpt lat="43.251635" lon="11.3411333"><ele>215.0</ele><time>2026-03-22T11:57:55.358Z</time></trkpt><trkpt lat="43.2516" lon="11.3410117"><ele>215.0</ele><time>2026-03-22T11:57:56.358Z</time></trkpt><trkpt lat="43.25158" lon="11.3409"><ele>215.0</ele><time>2026-03-22T11:57:57.357Z</time></trkpt><trkpt lat="43.2515817" lon="11.34078"><ele>215.0</ele><time>2026-03-22T11:57:58.358Z</time></trkpt><trkpt lat="43.2515933" lon="11.3406617"><ele>214.66666666666669</ele><time>2026-03-22T11:57:59.358Z</time></trkpt><trkpt lat="43.2516117" lon="11.3405417"><ele>214.33333333333334</ele><time>2026-03-22T11:58:00.358Z</time></trkpt><trkpt lat="43.25164" lon="11.3404183"><ele>214.0</ele><time>2026-03-22T11:58:01.358Z</time></trkpt><trkpt lat="43.2516617" lon="11.34031"><ele>213.66666666666669</ele><time>2026-03-22T11:58:02.358Z</time></trkpt><trkpt lat="43.2516717" lon="11.340205"><ele>213.33333333333334</ele><time>2026-03-22T11:58:03.358Z</time></trkpt><trkpt lat="43.2516567" lon="11.3400983"><ele>213.0</ele><time>2026-03-22T11:58:04.358Z</time></trkpt><trkpt lat="43.2516217" lon="11.33998"><ele>213.0</ele><time>2026-03-22T11:58:05.357Z</time></trkpt><trkpt lat="43.251545" lon="11.3398433"><ele>213.0</ele><time>2026-03-22T11:58:06.357Z</time></trkpt><trkpt lat="43.2514483" lon="11.3396917"><ele>213.0</ele><time>2026-03-22T11:58:07.358Z</time></trkpt><trkpt lat="43.2513583" lon="11.3395517"><ele>213.0</ele><time>2026-03-22T11:58:08.357Z</time></trkpt><trkpt lat="43.25128" lon="11.339425"><ele>211.0</ele><time>2026-03-22T11:58:09.358Z</time></trkpt><trkpt lat="43.2512167" lon="11.3393"><ele>209.0</ele><time>2026-03-22T11:58:10.358Z</time></trkpt><trkpt lat="43.2511767" lon="11.3391883"><ele>207.0</ele><time>2026-03-22T11:58:11.357Z</time></trkpt><trkpt lat="43.2511517" lon="11.339065"><ele>205.0</ele><time>2026-03-22T11:58:12.358Z</time></trkpt><trkpt lat="43.2511317" lon="11.3389517"><ele>203.0</ele><time>2026-03-22T11:58:13.358Z</time></trkpt><trkpt lat="43.2511167" lon="11.338845"><ele>203.00000000000003</ele><time>2026-03-22T11:58:14.358Z</time></trkpt><trkpt lat="43.2510983" lon="11.338755"><ele>203.0</ele><time>2026-03-22T11:58:15.358Z</time></trkpt><trkpt lat="43.2510767" lon="11.33866"><ele>203.0</ele><time>2026-03-22T11:58:16.358Z</time></trkpt><trkpt lat="43.2510567" lon="11.3385517"><ele>203.0</ele><time>2026-03-22T11:58:17.357Z</time></trkpt><trkpt lat="43.2510383" lon="11.3384417"><ele>203.00000000000003</ele><time>2026-03-22T11:58:18.358Z</time></trkpt><trkpt lat="43.2510217" lon="11.3383317"><ele>203.0</ele><time>2026-03-22T11:58:19.357Z</time></trkpt><trkpt lat="43.2509983" lon="11.33821"><ele>203.0</ele><time>2026-03-22T11:58:20.358Z</time></trkpt><trkpt lat="43.25097" lon="11.3380767"><ele>203.0</ele><time>2026-03-22T11:58:21.358Z</time></trkpt><trkpt lat="43.2509433" lon="11.337935"><ele>203.0</ele><time>2026-03-22T11:58:22.358Z</time></trkpt><trkpt lat="43.2509117" lon="11.33777"><ele>203.0</ele><time>2026-03-22T11:58:23.357Z</time></trkpt><trkpt lat="43.2508933" lon="11.33757"><ele>203.66666666666669</ele><time>2026-03-22T11:58:24.357Z</time></trkpt><trkpt lat="43.2509" lon="11.3373667"><ele>204.33333333333331</ele><time>2026-03-22T11:58:25.358Z</time></trkpt><trkpt lat="43.2509283" lon="11.337165"><ele>205.0</ele><time>2026-03-22T11:58:26.357Z</time></trkpt><trkpt lat="43.2509833" lon="11.3369667"><ele>205.0</ele><time>2026-03-22T11:58:27.358Z</time></trkpt><trkpt lat="43.251065" lon="11.336785"><ele>205.0</ele><time>2026-03-22T11:58:28.357Z</time></trkpt><trkpt lat="43.2511783" lon="11.3366217"><ele>205.0</ele><time>2026-03-22T11:58:29.358Z</time></trkpt><trkpt lat="43.2513083" lon="11.336485"><ele>206.33333333333331</ele><time>2026-03-22T11:58:30.357Z</time></trkpt><trkpt lat="43.2514583" lon="11.336345"><ele>207.66666666666669</ele><time>2026-03-22T11:58:31.358Z</time></trkpt><trkpt lat="43.2516117" lon="11.3362083"><ele>209.0</ele><time>2026-03-22T11:58:32.358Z</time></trkpt><trkpt lat="43.25176" lon="11.3360717"><ele>209.0</ele><time>2026-03-22T11:58:33.358Z</time></trkpt><trkpt lat="43.2519083" lon="11.3359533"><ele>209.0</ele><time>2026-03-22T11:58:34.358Z</time></trkpt><trkpt lat="43.2520617" lon="11.3358683"><ele>209.0</ele><time>2026-03-22T11:58:35.358Z</time></trkpt><trkpt lat="43.252235" lon="11.335825"><ele>210.33333333333334</ele><time>2026-03-22T11:58:36.358Z</time></trkpt><trkpt lat="43.2524" lon="11.3358317"><ele>211.66666666666669</ele><time>2026-03-22T11:58:37.358Z</time></trkpt><trkpt lat="43.2525733" lon="11.3358467"><ele>213.0</ele><time>2026-03-22T11:58:38.357Z</time></trkpt><trkpt lat="43.2527183" lon="11.33591"><ele>213.0</ele><time>2026-03-22T11:58:39.358Z</time></trkpt><trkpt lat="43.2528717" lon="11.3359983"><ele>213.0</ele><time>2026-03-22T11:58:40.357Z</time></trkpt><trkpt lat="43.2530283" lon="11.3360817"><ele>213.0</ele><time>2026-03-22T11:58:41.358Z</time></trkpt><trkpt lat="43.25317" lon="11.3361433"><ele>213.5</ele><time>2026-03-22T11:58:42.358Z</time></trkpt><trkpt lat="43.2533033" lon="11.3361817"><ele>214.0</ele><time>2026-03-22T11:58:43.358Z</time></trkpt><trkpt lat="43.253425" lon="11.3361867"><ele>214.5</ele><time>2026-03-22T11:58:44.358Z</time></trkpt><trkpt lat="43.253545" lon="11.336145"><ele>215.0</ele><time>2026-03-22T11:58:45.358Z</time></trkpt><trkpt lat="43.2536417" lon="11.3360533"><ele>215.0</ele><time>2026-03-22T11:58:46.358Z</time></trkpt><trkpt lat="43.2537317" lon="11.335915"><ele>215.0</ele><time>2026-03-22T11:58:47.358Z</time></trkpt><trkpt lat="43.2537983" lon="11.3357533"><ele>215.0</ele><time>2026-03-22T11:58:48.358Z</time></trkpt><trkpt lat="43.25381" lon="11.3355767"><ele>215.0</ele><time>2026-03-22T11:58:49.358Z</time></trkpt><trkpt lat="43.2538167" lon="11.3354067"><ele>214.0</ele><time>2026-03-22T11:58:50.357Z</time></trkpt><trkpt lat="43.2538" lon="11.3352517"><ele>213.0</ele><time>2026-03-22T11:58:51.358Z</time></trkpt><trkpt lat="43.253775" lon="11.3351033"><ele>212.0</ele><time>2026-03-22T11:58:52.357Z</time></trkpt><trkpt lat="43.2537533" lon="11.3349733"><ele>211.0</ele><time>2026-03-22T11:58:53.358Z</time></trkpt><trkpt lat="43.2537217" lon="11.3348733"><ele>210.0</ele><time>2026-03-22T11:58:54.358Z</time></trkpt><trkpt lat="43.2536633" lon="11.334735"><ele>210.0</ele><time>2026-03-22T11:58:56.358Z</time></trkpt><trkpt lat="43.2536317" lon="11.33459"><ele>210.0</ele><time>2026-03-22T11:58:58.357Z</time></trkpt><trkpt lat="43.2535883" lon="11.3345083"><ele>210.0</ele><time>2026-03-22T11:59:00.358Z</time></trkpt><trkpt lat="43.2535183" lon="11.33453"><ele>210.0</ele><time>2026-03-22T11:59:02.357Z</time></trkpt><trkpt lat="43.2534617" lon="11.3346567"><ele>210.0</ele><time>2026-03-22T11:59:04.358Z</time></trkpt><trkpt lat="43.2533883" lon="11.3347367"><ele>209.83333333333334</ele><time>2026-03-22T11:59:06.358Z</time></trkpt><trkpt lat="43.2533133" lon="11.33468"><ele>209.66666666666669</ele><time>2026-03-22T11:59:08.357Z</time></trkpt><trkpt lat="43.253285" lon="11.3345933"><ele>209.5</ele><time>2026-03-22T11:59:09.358Z</time></trkpt><trkpt lat="43.2532617" lon="11.3344833"><ele>209.33333333333334</ele><time>2026-03-22T11:59:10.358Z</time></trkpt><trkpt lat="43.2532417" lon="11.3343567"><ele>209.16666666666669</ele><time>2026-03-22T11:59:11.358Z</time></trkpt><trkpt lat="43.2532283" lon="11.33421"><ele>209.0</ele><time>2026-03-22T11:59:12.358Z</time></trkpt><trkpt lat="43.2532183" lon="11.334045"><ele>206.75</ele><time>2026-03-22T11:59:13.358Z</time></trkpt><trkpt lat="43.2532333" lon="11.33386"><ele>204.5</ele><time>2026-03-22T11:59:14.358Z</time></trkpt><trkpt lat="43.2532633" lon="11.3337033"><ele>202.25</ele><time>2026-03-22T11:59:15.358Z</time></trkpt><trkpt lat="43.2533033" lon="11.3335633"><ele>200.0</ele><time>2026-03-22T11:59:16.358Z</time></trkpt><trkpt lat="43.2533467" lon="11.3334367"><ele>200.00000000000003</ele><time>2026-03-22T11:59:17.357Z</time></trkpt><trkpt lat="43.253385" lon="11.33331"><ele>200.0</ele><time>2026-03-22T11:59:18.358Z</time></trkpt><trkpt lat="43.2534367" lon="11.3331983"><ele>200.0</ele><time>2026-03-22T11:59:19.358Z</time></trkpt><trkpt lat="43.2534617" lon="11.3330883"><ele>200.0</ele><time>2026-03-22T11:59:20.358Z</time></trkpt><trkpt lat="43.2534683" lon="11.333"><ele>200.00000000000003</ele><time>2026-03-22T11:59:21.358Z</time></trkpt><trkpt lat="43.2534133" lon="11.3328783"><ele>200.0</ele><time>2026-03-22T11:59:23.357Z</time></trkpt><trkpt lat="43.2533517" lon="11.3328583"><ele>198.83333333333334</ele><time>2026-03-22T11:59:24.358Z</time></trkpt><trkpt lat="43.2532683" lon="11.3328783"><ele>197.66666666666669</ele><time>2026-03-22T11:59:25.358Z</time></trkpt><trkpt lat="43.2531717" lon="11.33291"><ele>196.5</ele><time>2026-03-22T11:59:26.358Z</time></trkpt><trkpt lat="43.2530867" lon="11.3329283"><ele>195.33333333333331</ele><time>2026-03-22T11:59:27.358Z</time></trkpt><trkpt lat="43.2530167" lon="11.3328933"><ele>194.16666666666666</ele><time>2026-03-22T11:59:28.358Z</time></trkpt><trkpt lat="43.2529617" lon="11.3328217"><ele>193.0</ele><time>2026-03-22T11:59:29.358Z</time></trkpt><trkpt lat="43.2529133" lon="11.3327083"><ele>192.75</ele><time>2026-03-22T11:59:30.358Z</time></trkpt><trkpt lat="43.2528667" lon="11.332545"><ele>192.5</ele><time>2026-03-22T11:59:31.358Z</time></trkpt><trkpt lat="43.2528283" lon="11.33238"><ele>192.25</ele><time>2026-03-22T11:59:32.358Z</time></trkpt><trkpt lat="43.252775" lon="11.332175"><ele>192.0</ele><time>2026-03-22T11:59:33.358Z</time></trkpt><trkpt lat="43.252705" lon="11.331985"><ele>192.0</ele><time>2026-03-22T11:59:34.358Z</time></trkpt><trkpt lat="43.2526383" lon="11.331785"><ele>192.0</ele><time>2026-03-22T11:59:35.358Z</time></trkpt><trkpt lat="43.2525833" lon="11.3315833"><ele>192.0</ele><time>2026-03-22T11:59:36.358Z</time></trkpt><trkpt lat="43.2525117" lon="11.3313717"><ele>193.0</ele><time>2026-03-22T11:59:37.358Z</time></trkpt><trkpt lat="43.25244" lon="11.33117"><ele>194.0</ele><time>2026-03-22T11:59:38.358Z</time></trkpt><trkpt lat="43.2523683" lon="11.33096"><ele>195.0</ele><time>2026-03-22T11:59:39.358Z</time></trkpt><trkpt lat="43.2523017" lon="11.33076"><ele>197.0</ele><time>2026-03-22T11:59:40.358Z</time></trkpt><trkpt lat="43.25224" lon="11.330545"><ele>199.0</ele><time>2026-03-22T11:59:41.358Z</time></trkpt><trkpt lat="43.25217" lon="11.330325"><ele>201.0</ele><time>2026-03-22T11:59:42.357Z</time></trkpt><trkpt lat="43.2521067" lon="11.330135"><ele>201.0</ele><time>2026-03-22T11:59:43.357Z</time></trkpt><trkpt lat="43.2520433" lon="11.3299317"><ele>201.0</ele><time>2026-03-22T11:59:44.357Z</time></trkpt><trkpt lat="43.2519733" lon="11.329725"><ele>201.0</ele><time>2026-03-22T11:59:45.358Z</time></trkpt><trkpt lat="43.2519117" lon="11.329525"><ele>203.33333333333331</ele><time>2026-03-22T11:59:46.358Z</time></trkpt><trkpt lat="43.251845" lon="11.3293283"><ele>205.66666666666666</ele><time>2026-03-22T11:59:47.358Z</time></trkpt><trkpt lat="43.2517767" lon="11.3291367"><ele>208.0</ele><time>2026-03-22T11:59:48.358Z</time></trkpt><trkpt lat="43.2517067" lon="11.328935"><ele>210.66666666666666</ele><time>2026-03-22T11:59:49.358Z</time></trkpt><trkpt lat="43.2516233" lon="11.3287217"><ele>213.33333333333331</ele><time>2026-03-22T11:59:50.357Z</time></trkpt><trkpt lat="43.2515533" lon="11.328505"><ele>216.0</ele><time>2026-03-22T11:59:51.358Z</time></trkpt><trkpt lat="43.251485" lon="11.3283"><ele>215.25</ele><time>2026-03-22T11:59:52.358Z</time></trkpt><trkpt lat="43.2514217" lon="11.328115"><ele>214.5</ele><time>2026-03-22T11:59:53.358Z</time></trkpt><trkpt lat="43.2513683" lon="11.327935"><ele>213.75</ele><time>2026-03-22T11:59:54.357Z</time></trkpt><trkpt lat="43.2512867" lon="11.327795"><ele>213.0</ele><time>2026-03-22T11:59:55.358Z</time></trkpt><trkpt lat="43.2511883" lon="11.32767"><ele>215.25</ele><time>2026-03-22T11:59:56.358Z</time></trkpt><trkpt lat="43.251085" lon="11.3275633"><ele>217.5</ele><time>2026-03-22T11:59:57.358Z</time></trkpt><trkpt lat="43.2509583" lon="11.327455"><ele>219.75</ele><time>2026-03-22T11:59:58.357Z</time></trkpt><trkpt lat="43.250815" lon="11.3273467"><ele>222.0</ele><time>2026-03-22T11:59:59.357Z</time></trkpt><trkpt lat="43.250685" lon="11.3272217"><ele>225.0</ele><time>2026-03-22T12:00:00.358Z</time></trkpt><trkpt lat="43.25058" lon="11.327075"><ele>228.0</ele><time>2026-03-22T12:00:01.358Z</time></trkpt><trkpt lat="43.2504767" lon="11.3269033"><ele>231.0</ele><time>2026-03-22T12:00:02.357Z</time></trkpt><trkpt lat="43.2503717" lon="11.3267417"><ele>231.0</ele><time>2026-03-22T12:00:03.358Z</time></trkpt><trkpt lat="43.250265" lon="11.3266083"><ele>231.0</ele><time>2026-03-22T12:00:04.358Z</time></trkpt><trkpt lat="43.2501733" lon="11.3265283"><ele>231.0</ele><time>2026-03-22T12:00:05.358Z</time></trkpt><trkpt lat="43.2500717" lon="11.326495"><ele>231.0</ele><time>2026-03-22T12:00:06.357Z</time></trkpt><trkpt lat="43.249955" lon="11.3265"><ele>231.0</ele><time>2026-03-22T12:00:07.357Z</time></trkpt><trkpt lat="43.2498367" lon="11.32653"><ele>231.0</ele><time>2026-03-22T12:00:08.358Z</time></trkpt><trkpt lat="43.2497533" lon="11.32655"><ele>231.0</ele><time>2026-03-22T12:00:09.358Z</time></trkpt><trkpt lat="43.2496867" lon="11.3265333"><ele>231.0</ele><time>2026-03-22T12:00:10.358Z</time></trkpt><trkpt lat="43.2496317" lon="11.326475"><ele>231.0</ele><time>2026-03-22T12:00:11.358Z</time></trkpt><trkpt lat="43.2495933" lon="11.3263967"><ele>231.0</ele><time>2026-03-22T12:00:12.358Z</time></trkpt><trkpt lat="43.2495967" lon="11.3262533"><ele>231.75</ele><time>2026-03-22T12:00:13.358Z</time></trkpt><trkpt lat="43.2496183" lon="11.3261033"><ele>232.5</ele><time>2026-03-22T12:00:14.358Z</time></trkpt><trkpt lat="43.249645" lon="11.3259433"><ele>233.25</ele><time>2026-03-22T12:00:15.358Z</time></trkpt><trkpt lat="43.24966" lon="11.32576"><ele>234.0</ele><time>2026-03-22T12:00:16.358Z</time></trkpt><trkpt lat="43.2496467" lon="11.3255567"><ele>235.5</ele><time>2026-03-22T12:00:17.358Z</time></trkpt><trkpt lat="43.2496117" lon="11.3253683"><ele>237.0</ele><time>2026-03-22T12:00:18.358Z</time></trkpt><trkpt lat="43.24956" lon="11.32518"><ele>238.5</ele><time>2026-03-22T12:00:19.358Z</time></trkpt><trkpt lat="43.2495033" lon="11.324995"><ele>240.0</ele><time>2026-03-22T12:00:20.357Z</time></trkpt><trkpt lat="43.2494567" lon="11.3248017"><ele>239.75</ele><time>2026-03-22T12:00:21.357Z</time></trkpt><trkpt lat="43.2494017" lon="11.32461"><ele>239.5</ele><time>2026-03-22T12:00:22.358Z</time></trkpt><trkpt lat="43.2493583" lon="11.3244217"><ele>239.25</ele><time>2026-03-22T12:00:23.358Z</time></trkpt><trkpt lat="43.249335" lon="11.32423"><ele>239.0</ele><time>2026-03-22T12:00:24.357Z</time></trkpt><trkpt lat="43.2493283" lon="11.3240217"><ele>238.66666666666669</ele><time>2026-03-22T12:00:25.358Z</time></trkpt><trkpt lat="43.2493333" lon="11.3238017"><ele>238.33333333333331</ele><time>2026-03-22T12:00:26.357Z</time></trkpt><trkpt lat="43.2493167" lon="11.3235667"><ele>238.0</ele><time>2026-03-22T12:00:27.357Z</time></trkpt><trkpt lat="43.2493117" lon="11.323365"><ele>238.0</ele><time>2026-03-22T12:00:28.358Z</time></trkpt><trkpt lat="43.249295" lon="11.32316"><ele>238.0</ele><time>2026-03-22T12:00:29.358Z</time></trkpt><trkpt lat="43.2492333" lon="11.3229667"><ele>238.0</ele><time>2026-03-22T12:00:30.358Z</time></trkpt><trkpt lat="43.2491733" lon="11.3227667"><ele>238.0</ele><time>2026-03-22T12:00:31.358Z</time></trkpt><trkpt lat="43.2491317" lon="11.3225717"><ele>238.0</ele><time>2026-03-22T12:00:32.358Z</time></trkpt><trkpt lat="43.2491267" lon="11.3223883"><ele>238.0</ele><time>2026-03-22T12:00:33.358Z</time></trkpt><trkpt lat="43.2491483" lon="11.3221817"><ele>238.0</ele><time>2026-03-22T12:00:34.358Z</time></trkpt><trkpt lat="43.249215" lon="11.32201"><ele>238.66666666666666</ele><time>2026-03-22T12:00:35.358Z</time></trkpt><trkpt lat="43.2492933" lon="11.3218367"><ele>239.33333333333331</ele><time>2026-03-22T12:00:36.358Z</time></trkpt><trkpt lat="43.2493967" lon="11.3216417"><ele>240.0</ele><time>2026-03-22T12:00:37.358Z</time></trkpt><trkpt lat="43.2495117" lon="11.321415"><ele>239.33333333333331</ele><time>2026-03-22T12:00:38.358Z</time></trkpt><trkpt lat="43.2496233" lon="11.3211833"><ele>238.66666666666666</ele><time>2026-03-22T12:00:39.358Z</time></trkpt><trkpt lat="43.2497283" lon="11.3209567"><ele>238.0</ele><time>2026-03-22T12:00:40.358Z</time></trkpt><trkpt lat="43.249835" lon="11.320745"><ele>240.5</ele><time>2026-03-22T12:00:41.357Z</time></trkpt><trkpt lat="43.2499167" lon="11.3205417"><ele>243.0</ele><time>2026-03-22T12:00:42.358Z</time></trkpt><trkpt lat="43.2499733" lon="11.3203783"><ele>245.5</ele><time>2026-03-22T12:00:43.358Z</time></trkpt><trkpt lat="43.2500033" lon="11.3202333"><ele>248.0</ele><time>2026-03-22T12:00:44.358Z</time></trkpt><trkpt lat="43.2499967" lon="11.320085"><ele>248.0</ele><time>2026-03-22T12:00:45.358Z</time></trkpt><trkpt lat="43.2499583" lon="11.3199317"><ele>248.0</ele><time>2026-03-22T12:00:46.357Z</time></trkpt><trkpt lat="43.2498967" lon="11.3197617"><ele>248.0</ele><time>2026-03-22T12:00:47.357Z</time></trkpt><trkpt lat="43.24982" lon="11.3195833"><ele>248.0</ele><time>2026-03-22T12:00:48.358Z</time></trkpt><trkpt lat="43.2497417" lon="11.31941"><ele>247.66666666666669</ele><time>2026-03-22T12:00:49.358Z</time></trkpt><trkpt lat="43.2496733" lon="11.3192183"><ele>247.33333333333331</ele><time>2026-03-22T12:00:50.358Z</time></trkpt><trkpt lat="43.249605" lon="11.3190083"><ele>247.0</ele><time>2026-03-22T12:00:51.358Z</time></trkpt><trkpt lat="43.249545" lon="11.3187983"><ele>247.0</ele><time>2026-03-22T12:00:52.357Z</time></trkpt><trkpt lat="43.249475" lon="11.3185983"><ele>247.0</ele><time>2026-03-22T12:00:53.358Z</time></trkpt><trkpt lat="43.2493783" lon="11.318385"><ele>247.0</ele><time>2026-03-22T12:00:54.357Z</time></trkpt><trkpt lat="43.2492867" lon="11.31818"><ele>248.33333333333331</ele><time>2026-03-22T12:00:55.358Z</time></trkpt><trkpt lat="43.2491817" lon="11.3179733"><ele>249.66666666666669</ele><time>2026-03-22T12:00:56.358Z</time></trkpt><trkpt lat="43.2490767" lon="11.3177767"><ele>251.0</ele><time>2026-03-22T12:00:57.357Z</time></trkpt><trkpt lat="43.2489783" lon="11.3175667"><ele>251.0</ele><time>2026-03-22T12:00:58.358Z</time></trkpt><trkpt lat="43.2488667" lon="11.3173467"><ele>251.0</ele><time>2026-03-22T12:00:59.358Z</time></trkpt><trkpt lat="43.2487633" lon="11.3171267"><ele>251.0</ele><time>2026-03-22T12:01:00.358Z</time></trkpt><trkpt lat="43.248665" lon="11.3169117"><ele>251.0</ele><time>2026-03-22T12:01:01.358Z</time></trkpt><trkpt lat="43.2485633" lon="11.3167083"><ele>251.0</ele><time>2026-03-22T12:01:02.357Z</time></trkpt><trkpt lat="43.2484817" lon="11.3165233"><ele>251.0</ele><time>2026-03-22T12:01:03.358Z</time></trkpt><trkpt lat="43.2484017" lon="11.31634"><ele>251.25</ele><time>2026-03-22T12:01:04.357Z</time></trkpt><trkpt lat="43.2483433" lon="11.3161533"><ele>251.5</ele><time>2026-03-22T12:01:05.358Z</time></trkpt><trkpt lat="43.2482917" lon="11.315955"><ele>251.75</ele><time>2026-03-22T12:01:06.358Z</time></trkpt><trkpt lat="43.2482617" lon="11.31577"><ele>252.0</ele><time>2026-03-22T12:01:07.357Z</time></trkpt><trkpt lat="43.2482267" lon="11.3156133"><ele>251.0</ele><time>2026-03-22T12:01:08.358Z</time></trkpt><trkpt lat="43.248175" lon="11.3154583"><ele>250.0</ele><time>2026-03-22T12:01:09.358Z</time></trkpt><trkpt lat="43.2480967" lon="11.3152833"><ele>249.0</ele><time>2026-03-22T12:01:10.358Z</time></trkpt><trkpt lat="43.2480117" lon="11.315095"><ele>248.0</ele><time>2026-03-22T12:01:11.357Z</time></trkpt><trkpt lat="43.2479183" lon="11.3149083"><ele>248.0</ele><time>2026-03-22T12:01:12.358Z</time></trkpt><trkpt lat="43.24784" lon="11.3147183"><ele>248.0</ele><time>2026-03-22T12:01:13.357Z</time></trkpt><trkpt lat="43.24778" lon="11.314515"><ele>248.0</ele><time>2026-03-22T12:01:14.358Z</time></trkpt><trkpt lat="43.2477233" lon="11.31431"><ele>248.0</ele><time>2026-03-22T12:01:15.358Z</time></trkpt><trkpt lat="43.247675" lon="11.314105"><ele>248.0</ele><time>2026-03-22T12:01:16.358Z</time></trkpt><trkpt lat="43.247625" lon="11.3138983"><ele>248.0</ele><time>2026-03-22T12:01:17.357Z</time></trkpt><trkpt lat="43.2475733" lon="11.313695"><ele>247.8</ele><time>2026-03-22T12:01:18.358Z</time></trkpt><trkpt lat="43.247525" lon="11.3135183"><ele>247.60000000000002</ele><time>2026-03-22T12:01:19.358Z</time></trkpt><trkpt lat="43.2474883" lon="11.3133767"><ele>247.39999999999998</ele><time>2026-03-22T12:01:20.358Z</time></trkpt><trkpt lat="43.2474583" lon="11.31326"><ele>247.2</ele><time>2026-03-22T12:01:21.357Z</time></trkpt><trkpt lat="43.24743" lon="11.3131667"><ele>247.0</ele><time>2026-03-22T12:01:22.358Z</time></trkpt><trkpt lat="43.2473683" lon="11.31305"><ele>247.75</ele><time>2026-03-22T12:01:24.358Z</time></trkpt><trkpt lat="43.2472417" lon="11.3130217"><ele>248.5</ele><time>2026-03-22T12:01:26.358Z</time></trkpt><trkpt lat="43.2471433" lon="11.3129917"><ele>249.25</ele><time>2026-03-22T12:01:27.358Z</time></trkpt><trkpt lat="43.2470283" lon="11.31295"><ele>250.0</ele><time>2026-03-22T12:01:28.357Z</time></trkpt><trkpt lat="43.2469083" lon="11.3128983"><ele>250.0</ele><time>2026-03-22T12:01:29.357Z</time></trkpt><trkpt lat="43.2467917" lon="11.3128333"><ele>250.0</ele><time>2026-03-22T12:01:30.357Z</time></trkpt><trkpt lat="43.246685" lon="11.3127533"><ele>250.0</ele><time>2026-03-22T12:01:31.357Z</time></trkpt><trkpt lat="43.246575" lon="11.3126617"><ele>250.0</ele><time>2026-03-22T12:01:32.358Z</time></trkpt><trkpt lat="43.2464767" lon="11.3125517"><ele>249.0</ele><time>2026-03-22T12:01:33.357Z</time></trkpt><trkpt lat="43.2463767" lon="11.3124533"><ele>248.0</ele><time>2026-03-22T12:01:34.358Z</time></trkpt><trkpt lat="43.2462933" lon="11.3123733"><ele>247.0</ele><time>2026-03-22T12:01:35.358Z</time></trkpt><trkpt lat="43.2462067" lon="11.3122933"><ele>246.0</ele><time>2026-03-22T12:01:36.358Z</time></trkpt><trkpt lat="43.2461167" lon="11.3122233"><ele>245.0</ele><time>2026-03-22T12:01:37.358Z</time></trkpt><trkpt lat="43.246015" lon="11.3121767"><ele>245.0</ele><time>2026-03-22T12:01:38.358Z</time></trkpt><trkpt lat="43.2458917" lon="11.31215"><ele>245.0</ele><time>2026-03-22T12:01:39.358Z</time></trkpt><trkpt lat="43.2457783" lon="11.312165"><ele>245.0</ele><time>2026-03-22T12:01:40.358Z</time></trkpt><trkpt lat="43.245665" lon="11.3121417"><ele>245.0</ele><time>2026-03-22T12:01:41.358Z</time></trkpt><trkpt lat="43.2455267" lon="11.3121067"><ele>244.5</ele><time>2026-03-22T12:01:42.357Z</time></trkpt><trkpt lat="43.2453983" lon="11.31205"><ele>244.0</ele><time>2026-03-22T12:01:43.357Z</time></trkpt><trkpt lat="43.2452817" lon="11.3119817"><ele>243.5</ele><time>2026-03-22T12:01:44.358Z</time></trkpt><trkpt lat="43.2451883" lon="11.311905"><ele>243.0</ele><time>2026-03-22T12:01:45.357Z</time></trkpt><trkpt lat="43.2451133" lon="11.31182"><ele>243.0</ele><time>2026-03-22T12:01:46.358Z</time></trkpt><trkpt lat="43.2450317" lon="11.3117017"><ele>243.0</ele><time>2026-03-22T12:01:47.357Z</time></trkpt><trkpt lat="43.2449317" lon="11.3115617"><ele>243.0</ele><time>2026-03-22T12:01:48.358Z</time></trkpt><trkpt lat="43.2448167" lon="11.3114167"><ele>243.0</ele><time>2026-03-22T12:01:49.357Z</time></trkpt><trkpt lat="43.2447" lon="11.3112733"><ele>242.66666666666669</ele><time>2026-03-22T12:01:50.358Z</time></trkpt><trkpt lat="43.24458" lon="11.3111283"><ele>242.33333333333334</ele><time>2026-03-22T12:01:51.357Z</time></trkpt><trkpt lat="43.24446" lon="11.311"><ele>242.0</ele><time>2026-03-22T12:01:52.357Z</time></trkpt><trkpt lat="43.2443533" lon="11.310875"><ele>242.0</ele><time>2026-03-22T12:01:53.358Z</time></trkpt><trkpt lat="43.2442633" lon="11.310735"><ele>242.0</ele><time>2026-03-22T12:01:54.358Z</time></trkpt><trkpt lat="43.244175" lon="11.3105733"><ele>242.0</ele><time>2026-03-22T12:01:55.358Z</time></trkpt><trkpt lat="43.2440933" lon="11.3104117"><ele>242.0</ele><time>2026-03-22T12:01:56.357Z</time></trkpt><trkpt lat="43.2440067" lon="11.3102333"><ele>241.75</ele><time>2026-03-22T12:01:57.357Z</time></trkpt><trkpt lat="43.243925" lon="11.3100567"><ele>241.5</ele><time>2026-03-22T12:01:58.358Z</time></trkpt><trkpt lat="43.2438467" lon="11.3098767"><ele>241.25</ele><time>2026-03-22T12:01:59.358Z</time></trkpt><trkpt lat="43.2437717" lon="11.30971"><ele>241.0</ele><time>2026-03-22T12:02:00.358Z</time></trkpt><trkpt lat="43.2437167" lon="11.309565"><ele>241.60000000000002</ele><time>2026-03-22T12:02:01.358Z</time></trkpt><trkpt lat="43.24367" lon="11.3094433"><ele>242.20000000000002</ele><time>2026-03-22T12:02:02.358Z</time></trkpt><trkpt lat="43.24365" lon="11.3093333"><ele>242.79999999999998</ele><time>2026-03-22T12:02:03.358Z</time></trkpt><trkpt lat="43.2436417" lon="11.3092033"><ele>243.39999999999998</ele><time>2026-03-22T12:02:04.357Z</time></trkpt><trkpt lat="43.2436383" lon="11.3090483"><ele>244.0</ele><time>2026-03-22T12:02:05.357Z</time></trkpt><trkpt lat="43.243635" lon="11.3088867"><ele>244.39999999999998</ele><time>2026-03-22T12:02:06.358Z</time></trkpt><trkpt lat="43.2436333" lon="11.3087083"><ele>244.79999999999998</ele><time>2026-03-22T12:02:07.358Z</time></trkpt><trkpt lat="43.243635" lon="11.308555"><ele>245.20000000000002</ele><time>2026-03-22T12:02:08.357Z</time></trkpt><trkpt lat="43.2436267" lon="11.3084133"><ele>245.60000000000002</ele><time>2026-03-22T12:02:09.358Z</time></trkpt><trkpt lat="43.2436183" lon="11.3082867"><ele>246.0</ele><time>2026-03-22T12:02:10.358Z</time></trkpt><trkpt lat="43.24361" lon="11.3081833"><ele>245.16666666666666</ele><time>2026-03-22T12:02:11.358Z</time></trkpt><trkpt lat="43.2436017" lon="11.3080367"><ele>244.33333333333331</ele><time>2026-03-22T12:02:13.357Z</time></trkpt><trkpt lat="43.2436117" lon="11.3079233"><ele>243.5</ele><time>2026-03-22T12:02:15.358Z</time></trkpt><trkpt lat="43.243615" lon="11.3078217"><ele>242.66666666666666</ele><time>2026-03-22T12:02:17.357Z</time></trkpt><trkpt lat="43.243615" lon="11.3077317"><ele>241.83333333333331</ele><time>2026-03-22T12:02:20.358Z</time></trkpt><trkpt lat="43.2435583" lon="11.3076917"><ele>241.0</ele><time>2026-03-22T12:02:22.358Z</time></trkpt><trkpt lat="43.2434667" lon="11.3077083"><ele>241.0</ele><time>2026-03-22T12:02:24.358Z</time></trkpt><trkpt lat="43.2433783" lon="11.307755"><ele>241.00000000000003</ele><time>2026-03-22T12:02:26.358Z</time></trkpt><trkpt lat="43.2432817" lon="11.3077817"><ele>241.00000000000003</ele><time>2026-03-22T12:02:28.358Z</time></trkpt><trkpt lat="43.24322" lon="11.3078417"><ele>241.0</ele><time>2026-03-22T12:02:30.358Z</time></trkpt><trkpt lat="43.24314" lon="11.3079517"><ele>241.0</ele><time>2026-03-22T12:02:32.358Z</time></trkpt><trkpt lat="43.24309" lon="11.3080217"><ele>241.66666666666666</ele><time>2026-03-22T12:02:33.358Z</time></trkpt><trkpt lat="43.24304" lon="11.3080983"><ele>242.33333333333331</ele><time>2026-03-22T12:02:34.357Z</time></trkpt><trkpt lat="43.2429917" lon="11.3081767"><ele>243.0</ele><time>2026-03-22T12:02:35.358Z</time></trkpt><trkpt lat="43.2429467" lon="11.3082583"><ele>243.66666666666669</ele><time>2026-03-22T12:02:36.358Z</time></trkpt><trkpt lat="43.24288" lon="11.3083583"><ele>244.33333333333334</ele><time>2026-03-22T12:02:38.358Z</time></trkpt><trkpt lat="43.24282" lon="11.3083133"><ele>245.0</ele><time>2026-03-22T12:03:00.359Z</time></trkpt><trkpt lat="43.2428567" lon="11.30823"><ele>245.00000000000003</ele><time>2026-03-22T12:03:03.359Z</time></trkpt><trkpt lat="43.2429283" lon="11.3081817"><ele>245.0</ele><time>2026-03-22T12:03:06.359Z</time></trkpt><trkpt lat="43.243" lon="11.3081"><ele>245.0</ele><time>2026-03-22T12:03:09.359Z</time></trkpt><trkpt lat="43.2430617" lon="11.308045"><ele>245.0</ele><time>2026-03-22T12:03:11.359Z</time></trkpt><trkpt lat="43.2431233" lon="11.3079833"><ele>245.00000000000003</ele><time>2026-03-22T12:03:13.359Z</time></trkpt><trkpt lat="43.2431817" lon="11.3079283"><ele>245.0</ele><time>2026-03-22T12:03:15.358Z</time></trkpt><trkpt lat="43.24324" lon="11.3078817"><ele>244.42857142857144</ele><time>2026-03-22T12:03:17.359Z</time></trkpt><trkpt lat="43.2433017" lon="11.3077933"><ele>243.85714285714286</ele><time>2026-03-22T12:03:20.359Z</time></trkpt><trkpt lat="43.2433617" lon="11.3077633"><ele>243.28571428571428</ele><time>2026-03-22T12:03:22.358Z</time></trkpt><trkpt lat="43.2434433" lon="11.3077583"><ele>242.71428571428572</ele><time>2026-03-22T12:03:24.359Z</time></trkpt><trkpt lat="43.2435133" lon="11.30775"><ele>242.14285714285717</ele><time>2026-03-22T12:03:26.359Z</time></trkpt><trkpt lat="43.2435717" lon="11.3077933"><ele>241.57142857142858</ele><time>2026-03-22T12:03:28.359Z</time></trkpt><trkpt lat="43.2436033" lon="11.30787"><ele>241.0</ele><time>2026-03-22T12:03:30.359Z</time></trkpt><trkpt lat="43.2436033" lon="11.3079833"><ele>242.0</ele><time>2026-03-22T12:03:32.359Z</time></trkpt><trkpt lat="43.2436083" lon="11.3081417"><ele>243.00000000000003</ele><time>2026-03-22T12:03:34.359Z</time></trkpt><trkpt lat="43.24362" lon="11.3082967"><ele>244.00000000000003</ele><time>2026-03-22T12:03:36.359Z</time></trkpt><trkpt lat="43.243615" lon="11.3084433"><ele>245.0</ele><time>2026-03-22T12:03:38.358Z</time></trkpt><trkpt lat="43.243625" lon="11.3085783"><ele>246.0</ele><time>2026-03-22T12:03:40.359Z</time></trkpt><trkpt lat="43.243635" lon="11.3087167"><ele>246.0</ele><time>2026-03-22T12:03:42.358Z</time></trkpt><trkpt lat="43.2436383" lon="11.3088133"><ele>246.00000000000003</ele><time>2026-03-22T12:03:43.359Z</time></trkpt><trkpt lat="43.2436467" lon="11.3089383"><ele>246.00000000000003</ele><time>2026-03-22T12:03:44.359Z</time></trkpt><trkpt lat="43.243655" lon="11.3090717"><ele>246.0</ele><time>2026-03-22T12:03:45.359Z</time></trkpt><trkpt lat="43.24366" lon="11.3092117"><ele>246.0</ele><time>2026-03-22T12:03:46.359Z</time></trkpt><trkpt lat="43.243665" lon="11.3093517"><ele>245.60000000000002</ele><time>2026-03-22T12:03:47.359Z</time></trkpt><trkpt lat="43.2436767" lon="11.3094783"><ele>245.20000000000002</ele><time>2026-03-22T12:03:48.358Z</time></trkpt><trkpt lat="43.24371" lon="11.3096083"><ele>244.79999999999998</ele><time>2026-03-22T12:03:49.358Z</time></trkpt><trkpt lat="43.2437567" lon="11.3097467"><ele>244.39999999999998</ele><time>2026-03-22T12:03:50.359Z</time></trkpt><trkpt lat="43.2438167" lon="11.30989"><ele>244.0</ele><time>2026-03-22T12:03:51.359Z</time></trkpt><trkpt lat="43.2438817" lon="11.3100283"><ele>243.5</ele><time>2026-03-22T12:03:52.358Z</time></trkpt><trkpt lat="43.2439483" lon="11.31017"><ele>243.0</ele><time>2026-03-22T12:03:53.359Z</time></trkpt><trkpt lat="43.24403" lon="11.310315"><ele>242.5</ele><time>2026-03-22T12:03:54.359Z</time></trkpt><trkpt lat="43.24412" lon="11.3104517"><ele>242.0</ele><time>2026-03-22T12:03:55.359Z</time></trkpt><trkpt lat="43.24421" lon="11.310615"><ele>242.0</ele><time>2026-03-22T12:03:56.359Z</time></trkpt><trkpt lat="43.24429" lon="11.3107683"><ele>242.0</ele><time>2026-03-22T12:03:57.358Z</time></trkpt><trkpt lat="43.2443667" lon="11.3109117"><ele>242.0</ele><time>2026-03-22T12:03:58.359Z</time></trkpt><trkpt lat="43.244455" lon="11.3110317"><ele>242.0</ele><time>2026-03-22T12:03:59.359Z</time></trkpt><trkpt lat="43.2445433" lon="11.311135"><ele>242.0</ele><time>2026-03-22T12:04:00.359Z</time></trkpt><trkpt lat="43.24464" lon="11.3112383"><ele>242.0</ele><time>2026-03-22T12:04:01.358Z</time></trkpt><trkpt lat="43.2447483" lon="11.3113483"><ele>242.0</ele><time>2026-03-22T12:04:02.358Z</time></trkpt><trkpt lat="43.2448567" lon="11.3114633"><ele>242.0</ele><time>2026-03-22T12:04:03.358Z</time></trkpt><trkpt lat="43.2449533" lon="11.3115867"><ele>242.2</ele><time>2026-03-22T12:04:04.359Z</time></trkpt><trkpt lat="43.245035" lon="11.3117083"><ele>242.39999999999998</ele><time>2026-03-22T12:04:05.359Z</time></trkpt><trkpt lat="43.245105" lon="11.3118317"><ele>242.60000000000002</ele><time>2026-03-22T12:04:06.359Z</time></trkpt><trkpt lat="43.245165" lon="11.311925"><ele>242.8</ele><time>2026-03-22T12:04:07.359Z</time></trkpt><trkpt lat="43.2452367" lon="11.3120033"><ele>243.0</ele><time>2026-03-22T12:04:08.359Z</time></trkpt><trkpt lat="43.24531" lon="11.3120583"><ele>243.0</ele><time>2026-03-22T12:04:09.359Z</time></trkpt><trkpt lat="43.24541" lon="11.312115"><ele>243.0</ele><time>2026-03-22T12:04:10.359Z</time></trkpt><trkpt lat="43.245515" lon="11.3121583"><ele>243.0</ele><time>2026-03-22T12:04:11.358Z</time></trkpt><trkpt lat="43.245645" lon="11.3121933"><ele>243.0</ele><time>2026-03-22T12:04:12.358Z</time></trkpt><trkpt lat="43.2457833" lon="11.3122183"><ele>242.8</ele><time>2026-03-22T12:04:13.359Z</time></trkpt><trkpt lat="43.24591" lon="11.3122333"><ele>242.60000000000002</ele><time>2026-03-22T12:04:14.359Z</time></trkpt><trkpt lat="43.246015" lon="11.3122333"><ele>242.39999999999998</ele><time>2026-03-22T12:04:15.359Z</time></trkpt><trkpt lat="43.2461117" lon="11.3122367"><ele>242.2</ele><time>2026-03-22T12:04:16.359Z</time></trkpt><trkpt lat="43.2462" lon="11.3122717"><ele>242.0</ele><time>2026-03-22T12:04:17.359Z</time></trkpt><trkpt lat="43.2462883" lon="11.3123383"><ele>242.0</ele><time>2026-03-22T12:04:18.359Z</time></trkpt><trkpt lat="43.2463733" lon="11.3124267"><ele>242.0</ele><time>2026-03-22T12:04:19.359Z</time></trkpt><trkpt lat="43.2464533" lon="11.3125267"><ele>242.0</ele><time>2026-03-22T12:04:20.359Z</time></trkpt><trkpt lat="43.246535" lon="11.3126383"><ele>242.0</ele><time>2026-03-22T12:04:21.358Z</time></trkpt><trkpt lat="43.24663" lon="11.3127217"><ele>242.0</ele><time>2026-03-22T12:04:22.358Z</time></trkpt><trkpt lat="43.246725" lon="11.312815"><ele>241.6</ele><time>2026-03-22T12:04:23.359Z</time></trkpt><trkpt lat="43.2468267" lon="11.3128883"><ele>241.2</ele><time>2026-03-22T12:04:24.359Z</time></trkpt><trkpt lat="43.2469333" lon="11.3129583"><ele>240.8</ele><time>2026-03-22T12:04:25.358Z</time></trkpt><trkpt lat="43.2470333" lon="11.3129967"><ele>240.4</ele><time>2026-03-22T12:04:26.359Z</time></trkpt><trkpt lat="43.2471283" lon="11.31305"><ele>240.0</ele><time>2026-03-22T12:04:27.358Z</time></trkpt><trkpt lat="43.2472083" lon="11.3131033"><ele>240.0</ele><time>2026-03-22T12:04:28.359Z</time></trkpt><trkpt lat="43.247285" lon="11.3131317"><ele>240.0</ele><time>2026-03-22T12:04:29.359Z</time></trkpt><trkpt lat="43.2473483" lon="11.3131433"><ele>240.0</ele><time>2026-03-22T12:04:30.359Z</time></trkpt><trkpt lat="43.2474267" lon="11.3131367"><ele>240.0</ele><time>2026-03-22T12:04:32.358Z</time></trkpt><trkpt lat="43.2474367" lon="11.3130433"><ele>240.0</ele><time>2026-03-22T12:06:28.359Z</time></trkpt><trkpt lat="43.247465" lon="11.3128617"><ele>240.0</ele><time>2026-03-22T12:06:30.358Z</time></trkpt><trkpt lat="43.247485" lon="11.312745"><ele>241.4</ele><time>2026-03-22T12:06:31.359Z</time></trkpt><trkpt lat="43.2475133" lon="11.3126283"><ele>242.8</ele><time>2026-03-22T12:06:32.358Z</time></trkpt><trkpt lat="43.2475517" lon="11.3125067"><ele>244.2</ele><time>2026-03-22T12:06:33.359Z</time></trkpt><trkpt lat="43.2475917" lon="11.31239"><ele>245.6</ele><time>2026-03-22T12:06:34.359Z</time></trkpt><trkpt lat="43.2476417" lon="11.3122783"><ele>247.0</ele><time>2026-03-22T12:06:35.359Z</time></trkpt><trkpt lat="43.2477067" lon="11.312165"><ele>247.0</ele><time>2026-03-22T12:06:36.359Z</time></trkpt><trkpt lat="43.247775" lon="11.312045"><ele>247.0</ele><time>2026-03-22T12:06:37.359Z</time></trkpt><trkpt lat="43.247845" lon="11.3119583"><ele>247.0</ele><time>2026-03-22T12:06:38.359Z</time></trkpt><trkpt lat="43.247925" lon="11.31186"><ele>247.0</ele><time>2026-03-22T12:06:39.358Z</time></trkpt><trkpt lat="43.2480033" lon="11.31176"><ele>247.0</ele><time>2026-03-22T12:06:40.359Z</time></trkpt><trkpt lat="43.24807" lon="11.3116567"><ele>245.39999999999998</ele><time>2026-03-22T12:06:41.358Z</time></trkpt><trkpt lat="43.2481417" lon="11.3115267"><ele>243.79999999999998</ele><time>2026-03-22T12:06:42.359Z</time></trkpt><trkpt lat="43.2481917" lon="11.31138"><ele>242.2</ele><time>2026-03-22T12:06:43.359Z</time></trkpt><trkpt lat="43.248225" lon="11.3112333"><ele>240.6</ele><time>2026-03-22T12:06:44.358Z</time></trkpt><trkpt lat="43.2482267" lon="11.3111"><ele>239.0</ele><time>2026-03-22T12:06:45.359Z</time></trkpt><trkpt lat="43.248225" lon="11.3109767"><ele>239.00000000000003</ele><time>2026-03-22T12:06:46.358Z</time></trkpt><trkpt lat="43.248225" lon="11.3108567"><ele>239.0</ele><time>2026-03-22T12:06:47.359Z</time></trkpt><trkpt lat="43.2482317" lon="11.31075"><ele>239.0</ele><time>2026-03-22T12:06:48.359Z</time></trkpt><trkpt lat="43.2482617" lon="11.3106617"><ele>239.0</ele><time>2026-03-22T12:06:49.358Z</time></trkpt><trkpt lat="43.2483017" lon="11.310575"><ele>239.00000000000003</ele><time>2026-03-22T12:06:50.359Z</time></trkpt><trkpt lat="43.2483517" lon="11.31049"><ele>239.0</ele><time>2026-03-22T12:06:51.359Z</time></trkpt><trkpt lat="43.24841" lon="11.31043"><ele>239.25</ele><time>2026-03-22T12:06:52.359Z</time></trkpt><trkpt lat="43.248505" lon="11.310385"><ele>239.5</ele><time>2026-03-22T12:06:53.359Z</time></trkpt><trkpt lat="43.2486283" lon="11.3103467"><ele>239.75</ele><time>2026-03-22T12:06:54.358Z</time></trkpt><trkpt lat="43.2487583" lon="11.3103017"><ele>240.0</ele><time>2026-03-22T12:06:55.359Z</time></trkpt><trkpt lat="43.24889" lon="11.310255"><ele>237.5</ele><time>2026-03-22T12:06:56.359Z</time></trkpt><trkpt lat="43.249025" lon="11.310195"><ele>235.0</ele><time>2026-03-22T12:06:57.359Z</time></trkpt><trkpt lat="43.2491633" lon="11.3101317"><ele>232.5</ele><time>2026-03-22T12:06:58.359Z</time></trkpt><trkpt lat="43.2492967" lon="11.3100717"><ele>230.0</ele><time>2026-03-22T12:06:59.359Z</time></trkpt><trkpt lat="43.249435" lon="11.3100083"><ele>230.0</ele><time>2026-03-22T12:07:00.359Z</time></trkpt><trkpt lat="43.2495617" lon="11.309945"><ele>230.0</ele><time>2026-03-22T12:07:01.359Z</time></trkpt><trkpt lat="43.2496717" lon="11.3098833"><ele>230.0</ele><time>2026-03-22T12:07:02.359Z</time></trkpt><trkpt lat="43.2497667" lon="11.309825"><ele>230.0</ele><time>2026-03-22T12:07:03.359Z</time></trkpt><trkpt lat="43.2498433" lon="11.3097533"><ele>228.0</ele><time>2026-03-22T12:07:04.359Z</time></trkpt><trkpt lat="43.2499083" lon="11.3096683"><ele>226.0</ele><time>2026-03-22T12:07:05.359Z</time></trkpt><trkpt lat="43.249945" lon="11.30955"><ele>224.0</ele><time>2026-03-22T12:07:06.359Z</time></trkpt><trkpt lat="43.24995" lon="11.3094033"><ele>222.0</ele><time>2026-03-22T12:07:07.359Z</time></trkpt><trkpt lat="43.2499217" lon="11.30925"><ele>220.0</ele><time>2026-03-22T12:07:08.359Z</time></trkpt><trkpt lat="43.24988" lon="11.3091117"><ele>219.5</ele><time>2026-03-22T12:07:09.358Z</time></trkpt><trkpt lat="43.2497917" lon="11.3089767"><ele>219.0</ele><time>2026-03-22T12:07:10.359Z</time></trkpt><trkpt lat="43.2496883" lon="11.3088433"><ele>218.5</ele><time>2026-03-22T12:07:11.359Z</time></trkpt><trkpt lat="43.24958" lon="11.3086983"><ele>218.0</ele><time>2026-03-22T12:07:12.359Z</time></trkpt><trkpt lat="43.2494717" lon="11.3085667"><ele>218.0</ele><time>2026-03-22T12:07:13.359Z</time></trkpt><trkpt lat="43.2493717" lon="11.308445"><ele>218.0</ele><time>2026-03-22T12:07:14.358Z</time></trkpt><trkpt lat="43.2492717" lon="11.3083417"><ele>218.0</ele><time>2026-03-22T12:07:15.359Z</time></trkpt><trkpt lat="43.24916" lon="11.3082433"><ele>218.0</ele><time>2026-03-22T12:07:16.359Z</time></trkpt><trkpt lat="43.24905" lon="11.308145"><ele>219.25</ele><time>2026-03-22T12:07:17.359Z</time></trkpt><trkpt lat="43.24895" lon="11.308045"><ele>220.5</ele><time>2026-03-22T12:07:18.358Z</time></trkpt><trkpt lat="43.2488617" lon="11.30794"><ele>221.75</ele><time>2026-03-22T12:07:19.359Z</time></trkpt><trkpt lat="43.2488033" lon="11.3078133"><ele>223.0</ele><time>2026-03-22T12:07:20.359Z</time></trkpt><trkpt lat="43.2487517" lon="11.307675"><ele>223.0</ele><time>2026-03-22T12:07:21.358Z</time></trkpt><trkpt lat="43.2487267" lon="11.30753"><ele>223.0</ele><time>2026-03-22T12:07:22.359Z</time></trkpt><trkpt lat="43.248725" lon="11.30738"><ele>223.0</ele><time>2026-03-22T12:07:23.358Z</time></trkpt><trkpt lat="43.24876" lon="11.307225"><ele>223.0</ele><time>2026-03-22T12:07:24.359Z</time></trkpt><trkpt lat="43.24881" lon="11.3070733"><ele>221.75</ele><time>2026-03-22T12:07:25.359Z</time></trkpt><trkpt lat="43.2488783" lon="11.3069117"><ele>220.5</ele><time>2026-03-22T12:07:26.359Z</time></trkpt><trkpt lat="43.2489667" lon="11.3067667"><ele>219.25</ele><time>2026-03-22T12:07:27.359Z</time></trkpt><trkpt lat="43.2490517" lon="11.3066267"><ele>218.0</ele><time>2026-03-22T12:07:28.358Z</time></trkpt><trkpt lat="43.249145" lon="11.3065"><ele>214.5</ele><time>2026-03-22T12:07:29.359Z</time></trkpt><trkpt lat="43.24924" lon="11.3063767"><ele>211.0</ele><time>2026-03-22T12:07:30.359Z</time></trkpt><trkpt lat="43.249335" lon="11.3062733"><ele>207.5</ele><time>2026-03-22T12:07:31.358Z</time></trkpt><trkpt lat="43.2494183" lon="11.3061917"><ele>204.0</ele><time>2026-03-22T12:07:32.358Z</time></trkpt><trkpt lat="43.2495117" lon="11.306105"><ele>204.0</ele><time>2026-03-22T12:07:33.359Z</time></trkpt><trkpt lat="43.2496217" lon="11.3060083"><ele>204.0</ele><time>2026-03-22T12:07:34.359Z</time></trkpt><trkpt lat="43.24974" lon="11.3059033"><ele>204.0</ele><time>2026-03-22T12:07:35.358Z</time></trkpt><trkpt lat="43.2498617" lon="11.3058083"><ele>204.0</ele><time>2026-03-22T12:07:36.359Z</time></trkpt><trkpt lat="43.2499783" lon="11.305715"><ele>203.79999999999998</ele><time>2026-03-22T12:07:37.359Z</time></trkpt><trkpt lat="43.2500883" lon="11.3056317"><ele>203.6</ele><time>2026-03-22T12:07:38.359Z</time></trkpt><trkpt lat="43.250195" lon="11.3055633"><ele>203.4</ele><time>2026-03-22T12:07:39.359Z</time></trkpt><trkpt lat="43.2502783" lon="11.3055117"><ele>203.2</ele><time>2026-03-22T12:07:40.359Z</time></trkpt><trkpt lat="43.250365" lon="11.3054967"><ele>203.0</ele><time>2026-03-22T12:07:41.359Z</time></trkpt><trkpt lat="43.2504317" lon="11.3054933"><ele>203.00000000000003</ele><time>2026-03-22T12:07:42.359Z</time></trkpt><trkpt lat="43.25052" lon="11.305555"><ele>203.0</ele><time>2026-03-22T12:07:44.358Z</time></trkpt><trkpt lat="43.2505833" lon="11.3056383"><ele>203.0</ele><time>2026-03-22T12:07:46.359Z</time></trkpt><trkpt lat="43.250645" lon="11.3056083"><ele>203.0</ele><time>2026-03-22T12:07:56.359Z</time></trkpt><trkpt lat="43.25064" lon="11.305465"><ele>203.00000000000003</ele><time>2026-03-22T12:07:58.359Z</time></trkpt><trkpt lat="43.25061" lon="11.3053667"><ele>203.0</ele><time>2026-03-22T12:07:59.359Z</time></trkpt><trkpt lat="43.2505783" lon="11.3052517"><ele>203.0</ele><time>2026-03-22T12:08:00.358Z</time></trkpt><trkpt lat="43.250555" lon="11.3051133"><ele>203.0</ele><time>2026-03-22T12:08:01.359Z</time></trkpt><trkpt lat="43.2505283" lon="11.30496"><ele>203.0</ele><time>2026-03-22T12:08:02.359Z</time></trkpt><trkpt lat="43.2505033" lon="11.304805"><ele>203.0</ele><time>2026-03-22T12:08:03.359Z</time></trkpt><trkpt lat="43.2504783" lon="11.3046383"><ele>203.2</ele><time>2026-03-22T12:08:04.358Z</time></trkpt><trkpt lat="43.250445" lon="11.3044667"><ele>203.4</ele><time>2026-03-22T12:08:05.358Z</time></trkpt><trkpt lat="43.2504133" lon="11.3043183"><ele>203.6</ele><time>2026-03-22T12:08:06.359Z</time></trkpt><trkpt lat="43.2503917" lon="11.30419"><ele>203.79999999999998</ele><time>2026-03-22T12:08:07.358Z</time></trkpt><trkpt lat="43.2503733" lon="11.30408"><ele>204.0</ele><time>2026-03-22T12:08:08.359Z</time></trkpt><trkpt lat="43.2503483" lon="11.3039733"><ele>204.0</ele><time>2026-03-22T12:08:10.359Z</time></trkpt><trkpt lat="43.2503833" lon="11.3040767"><ele>204.0</ele><time>2026-03-22T12:09:35.359Z</time></trkpt><trkpt lat="43.250365" lon="11.3042483"><ele>204.0</ele><time>2026-03-22T12:09:37.359Z</time></trkpt><trkpt lat="43.2503633" lon="11.3043633"><ele>204.0</ele><time>2026-03-22T12:09:38.359Z</time></trkpt><trkpt lat="43.25038" lon="11.3044833"><ele>204.0</ele><time>2026-03-22T12:09:39.359Z</time></trkpt><trkpt lat="43.2504083" lon="11.30462"><ele>203.79999999999998</ele><time>2026-03-22T12:09:40.359Z</time></trkpt><trkpt lat="43.2504433" lon="11.30476"><ele>203.6</ele><time>2026-03-22T12:09:41.359Z</time></trkpt><trkpt lat="43.2504817" lon="11.3048917"><ele>203.4</ele><time>2026-03-22T12:09:42.359Z</time></trkpt><trkpt lat="43.2505133" lon="11.3050317"><ele>203.2</ele><time>2026-03-22T12:09:43.359Z</time></trkpt><trkpt lat="43.2505483" lon="11.305175"><ele>203.0</ele><time>2026-03-22T12:09:44.359Z</time></trkpt><trkpt lat="43.2505767" lon="11.3053217"><ele>203.0</ele><time>2026-03-22T12:09:45.359Z</time></trkpt><trkpt lat="43.2505983" lon="11.30545"><ele>203.0</ele><time>2026-03-22T12:09:46.359Z</time></trkpt><trkpt lat="43.2506033" lon="11.3055517"><ele>203.0</ele><time>2026-03-22T12:09:47.358Z</time></trkpt><trkpt lat="43.2506217" lon="11.3056967"><ele>203.0</ele><time>2026-03-22T12:09:49.359Z</time></trkpt><trkpt lat="43.250725" lon="11.3058317"><ele>203.0</ele><time>2026-03-22T12:09:51.359Z</time></trkpt><trkpt lat="43.2508033" lon="11.305875"><ele>203.2</ele><time>2026-03-22T12:09:52.359Z</time></trkpt><trkpt lat="43.2508867" lon="11.3058967"><ele>203.4</ele><time>2026-03-22T12:09:53.358Z</time></trkpt><trkpt lat="43.2509667" lon="11.3058883"><ele>203.6</ele><time>2026-03-22T12:09:54.359Z</time></trkpt><trkpt lat="43.2510567" lon="11.30585"><ele>203.79999999999998</ele><time>2026-03-22T12:09:55.359Z</time></trkpt><trkpt lat="43.2511567" lon="11.30579"><ele>204.0</ele><time>2026-03-22T12:09:56.358Z</time></trkpt><trkpt lat="43.2512617" lon="11.3057267"><ele>204.0</ele><time>2026-03-22T12:09:57.359Z</time></trkpt><trkpt lat="43.251365" lon="11.3056783"><ele>204.0</ele><time>2026-03-22T12:09:58.359Z</time></trkpt><trkpt lat="43.2514483" lon="11.3056367"><ele>204.0</ele><time>2026-03-22T12:09:59.359Z</time></trkpt><trkpt lat="43.2515433" lon="11.3055533"><ele>204.0</ele><time>2026-03-22T12:10:01.358Z</time></trkpt><trkpt lat="43.251525" lon="11.3054183"><ele>204.0</ele><time>2026-03-22T12:10:03.359Z</time></trkpt><trkpt lat="43.2514933" lon="11.3053283"><ele>204.75</ele><time>2026-03-22T12:10:04.359Z</time></trkpt><trkpt lat="43.2514617" lon="11.3052083"><ele>205.5</ele><time>2026-03-22T12:10:05.359Z</time></trkpt><trkpt lat="43.2514317" lon="11.3050567"><ele>206.25</ele><time>2026-03-22T12:10:06.359Z</time></trkpt><trkpt lat="43.2513983" lon="11.3048867"><ele>207.0</ele><time>2026-03-22T12:10:07.359Z</time></trkpt><trkpt lat="43.2513633" lon="11.3046967"><ele>207.33333333333331</ele><time>2026-03-22T12:10:08.359Z</time></trkpt><trkpt lat="43.2513417" lon="11.3045017"><ele>207.66666666666666</ele><time>2026-03-22T12:10:09.358Z</time></trkpt><trkpt lat="43.251325" lon="11.30429"><ele>208.0</ele><time>2026-03-22T12:10:10.358Z</time></trkpt><trkpt lat="43.2513167" lon="11.304075"><ele>207.60000000000002</ele><time>2026-03-22T12:10:11.358Z</time></trkpt><trkpt lat="43.2513067" lon="11.3038683"><ele>207.20000000000002</ele><time>2026-03-22T12:10:12.358Z</time></trkpt><trkpt lat="43.2512917" lon="11.3036983"><ele>206.8</ele><time>2026-03-22T12:10:13.359Z</time></trkpt><trkpt lat="43.251275" lon="11.3035833"><ele>206.4</ele><time>2026-03-22T12:10:14.359Z</time></trkpt><trkpt lat="43.2512433" lon="11.303505"><ele>206.0</ele><time>2026-03-22T12:10:16.359Z</time></trkpt><trkpt lat="43.25122" lon="11.3035867"><ele>206.0</ele><time>2026-03-22T12:11:42.36Z</time></trkpt><trkpt lat="43.2512567" lon="11.3037517"><ele>206.0</ele><time>2026-03-22T12:11:45.359Z</time></trkpt><trkpt lat="43.2512817" lon="11.3038633"><ele>206.0</ele><time>2026-03-22T12:11:46.359Z</time></trkpt><trkpt lat="43.251305" lon="11.3040117"><ele>206.0</ele><time>2026-03-22T12:11:47.359Z</time></trkpt><trkpt lat="43.251315" lon="11.3041917"><ele>206.33333333333334</ele><time>2026-03-22T12:11:48.36Z</time></trkpt><trkpt lat="43.2513017" lon="11.3044117"><ele>206.66666666666669</ele><time>2026-03-22T12:11:49.359Z</time></trkpt><trkpt lat="43.2512983" lon="11.3046317"><ele>207.0</ele><time>2026-03-22T12:11:50.36Z</time></trkpt><trkpt lat="43.2513133" lon="11.3048633"><ele>207.0</ele><time>2026-03-22T12:11:51.36Z</time></trkpt><trkpt lat="43.2513333" lon="11.3050767"><ele>207.0</ele><time>2026-03-22T12:11:52.36Z</time></trkpt><trkpt lat="43.2513833" lon="11.3052667"><ele>207.0</ele><time>2026-03-22T12:11:53.36Z</time></trkpt><trkpt lat="43.2514433" lon="11.30543"><ele>207.0</ele><time>2026-03-22T12:11:54.36Z</time></trkpt><trkpt lat="43.2514983" lon="11.305545"><ele>208.6</ele><time>2026-03-22T12:11:55.359Z</time></trkpt><trkpt lat="43.251555" lon="11.3056233"><ele>210.2</ele><time>2026-03-22T12:11:56.36Z</time></trkpt><trkpt lat="43.2516267" lon="11.3056917"><ele>211.8</ele><time>2026-03-22T12:11:57.36Z</time></trkpt><trkpt lat="43.2517117" lon="11.3057633"><ele>213.4</ele><time>2026-03-22T12:11:58.36Z</time></trkpt><trkpt lat="43.2518067" lon="11.30585"><ele>215.0</ele><time>2026-03-22T12:11:59.36Z</time></trkpt><trkpt lat="43.2519033" lon="11.3059383"><ele>215.0</ele><time>2026-03-22T12:12:00.36Z</time></trkpt><trkpt lat="43.2519783" lon="11.306015"><ele>215.0</ele><time>2026-03-22T12:12:01.36Z</time></trkpt><trkpt lat="43.2520567" lon="11.3060883"><ele>215.0</ele><time>2026-03-22T12:12:02.36Z</time></trkpt><trkpt lat="43.2521317" lon="11.306165"><ele>215.0</ele><time>2026-03-22T12:12:03.36Z</time></trkpt><trkpt lat="43.2522133" lon="11.3062567"><ele>215.0</ele><time>2026-03-22T12:12:04.359Z</time></trkpt><trkpt lat="43.2523133" lon="11.3063683"><ele>216.5</ele><time>2026-03-22T12:12:05.36Z</time></trkpt><trkpt lat="43.252415" lon="11.3064833"><ele>218.0</ele><time>2026-03-22T12:12:06.36Z</time></trkpt><trkpt lat="43.2525333" lon="11.3065933"><ele>219.5</ele><time>2026-03-22T12:12:07.359Z</time></trkpt><trkpt lat="43.2526433" lon="11.3067217"><ele>221.0</ele><time>2026-03-22T12:12:08.36Z</time></trkpt><trkpt lat="43.2527583" lon="11.3068383"><ele>221.0</ele><time>2026-03-22T12:12:09.36Z</time></trkpt><trkpt lat="43.2528617" lon="11.3069567"><ele>221.0</ele><time>2026-03-22T12:12:10.36Z</time></trkpt><trkpt lat="43.2529483" lon="11.30705"><ele>221.0</ele><time>2026-03-22T12:12:11.36Z</time></trkpt><trkpt lat="43.253045" lon="11.3071483"><ele>221.0</ele><time>2026-03-22T12:12:12.36Z</time></trkpt><trkpt lat="43.253145" lon="11.3072433"><ele>222.4</ele><time>2026-03-22T12:12:13.359Z</time></trkpt><trkpt lat="43.253235" lon="11.307335"><ele>223.8</ele><time>2026-03-22T12:12:14.36Z</time></trkpt><trkpt lat="43.2533267" lon="11.30738"><ele>225.20000000000002</ele><time>2026-03-22T12:12:15.36Z</time></trkpt><trkpt lat="43.2534167" lon="11.307405"><ele>226.60000000000002</ele><time>2026-03-22T12:12:16.36Z</time></trkpt><trkpt lat="43.2535083" lon="11.3074017"><ele>228.0</ele><time>2026-03-22T12:12:17.36Z</time></trkpt><trkpt lat="43.2535933" lon="11.30738"><ele>228.0</ele><time>2026-03-22T12:12:18.36Z</time></trkpt><trkpt lat="43.2536833" lon="11.3073117"><ele>228.0</ele><time>2026-03-22T12:12:19.359Z</time></trkpt><trkpt lat="43.2537683" lon="11.30722"><ele>228.0</ele><time>2026-03-22T12:12:20.359Z</time></trkpt><trkpt lat="43.2538517" lon="11.3071"><ele>228.0</ele><time>2026-03-22T12:12:21.36Z</time></trkpt><trkpt lat="43.2539383" lon="11.306985"><ele>229.8</ele><time>2026-03-22T12:12:22.36Z</time></trkpt><trkpt lat="43.2540233" lon="11.3068983"><ele>231.60000000000002</ele><time>2026-03-22T12:12:23.36Z</time></trkpt><trkpt lat="43.254115" lon="11.3068433"><ele>233.39999999999998</ele><time>2026-03-22T12:12:24.36Z</time></trkpt><trkpt lat="43.254215" lon="11.3068267"><ele>235.2</ele><time>2026-03-22T12:12:25.36Z</time></trkpt><trkpt lat="43.25431" lon="11.306825"><ele>237.0</ele><time>2026-03-22T12:12:26.36Z</time></trkpt><trkpt lat="43.2544183" lon="11.3068417"><ele>237.0</ele><time>2026-03-22T12:12:27.359Z</time></trkpt><trkpt lat="43.2545433" lon="11.3068867"><ele>237.0</ele><time>2026-03-22T12:12:28.36Z</time></trkpt><trkpt lat="43.2546683" lon="11.3069533"><ele>237.0</ele><time>2026-03-22T12:12:29.36Z</time></trkpt><trkpt lat="43.2548017" lon="11.3070383"><ele>237.0</ele><time>2026-03-22T12:12:30.36Z</time></trkpt><trkpt lat="43.2549217" lon="11.3071283"><ele>236.75</ele><time>2026-03-22T12:12:31.359Z</time></trkpt><trkpt lat="43.255035" lon="11.3072367"><ele>236.5</ele><time>2026-03-22T12:12:32.36Z</time></trkpt><trkpt lat="43.255145" lon="11.30732"><ele>236.25</ele><time>2026-03-22T12:12:33.36Z</time></trkpt><trkpt lat="43.2552633" lon="11.307415"><ele>236.0</ele><time>2026-03-22T12:12:34.36Z</time></trkpt><trkpt lat="43.2553617" lon="11.307505"><ele>236.4</ele><time>2026-03-22T12:12:35.359Z</time></trkpt><trkpt lat="43.25545" lon="11.3075933"><ele>236.8</ele><time>2026-03-22T12:12:36.36Z</time></trkpt><trkpt lat="43.2555333" lon="11.3076567"><ele>237.20000000000002</ele><time>2026-03-22T12:12:37.359Z</time></trkpt><trkpt lat="43.2556133" lon="11.3077117"><ele>237.60000000000002</ele><time>2026-03-22T12:12:38.359Z</time></trkpt><trkpt lat="43.255685" lon="11.3077383"><ele>238.0</ele><time>2026-03-22T12:12:39.36Z</time></trkpt><trkpt lat="43.255775" lon="11.3077433"><ele>238.0</ele><time>2026-03-22T12:12:40.36Z</time></trkpt><trkpt lat="43.25588" lon="11.3076967"><ele>238.0</ele><time>2026-03-22T12:12:41.36Z</time></trkpt><trkpt lat="43.2559833" lon="11.3076367"><ele>238.0</ele><time>2026-03-22T12:12:42.36Z</time></trkpt><trkpt lat="43.2560917" lon="11.3075667"><ele>238.0</ele><time>2026-03-22T12:12:43.359Z</time></trkpt><trkpt lat="43.2562067" lon="11.30749"><ele>238.0</ele><time>2026-03-22T12:12:44.359Z</time></trkpt><trkpt lat="43.2563333" lon="11.3074133"><ele>238.0</ele><time>2026-03-22T12:12:45.36Z</time></trkpt><trkpt lat="43.2564733" lon="11.3073333"><ele>238.0</ele><time>2026-03-22T12:12:46.36Z</time></trkpt><trkpt lat="43.2566117" lon="11.3072667"><ele>238.0</ele><time>2026-03-22T12:12:47.36Z</time></trkpt><trkpt lat="43.256765" lon="11.307185"><ele>238.33333333333331</ele><time>2026-03-22T12:12:48.36Z</time></trkpt><trkpt lat="43.2569167" lon="11.3071067"><ele>238.66666666666669</ele><time>2026-03-22T12:12:49.36Z</time></trkpt><trkpt lat="43.257055" lon="11.3070367"><ele>239.0</ele><time>2026-03-22T12:12:50.36Z</time></trkpt><trkpt lat="43.2571983" lon="11.3069683"><ele>239.0</ele><time>2026-03-22T12:12:51.36Z</time></trkpt><trkpt lat="43.2573483" lon="11.3069"><ele>239.0</ele><time>2026-03-22T12:12:52.36Z</time></trkpt><trkpt lat="43.2575117" lon="11.3068333"><ele>239.0</ele><time>2026-03-22T12:12:53.36Z</time></trkpt><trkpt lat="43.2576633" lon="11.3067433"><ele>239.0</ele><time>2026-03-22T12:12:54.36Z</time></trkpt><trkpt lat="43.2578183" lon="11.3066683"><ele>239.0</ele><time>2026-03-22T12:12:55.36Z</time></trkpt><trkpt lat="43.2579617" lon="11.3065967"><ele>239.0</ele><time>2026-03-22T12:12:56.36Z</time></trkpt><trkpt lat="43.2581233" lon="11.3065117"><ele>238.33333333333334</ele><time>2026-03-22T12:12:57.36Z</time></trkpt><trkpt lat="43.2582867" lon="11.3064417"><ele>237.66666666666669</ele><time>2026-03-22T12:12:58.36Z</time></trkpt><trkpt lat="43.258455" lon="11.3063617"><ele>237.0</ele><time>2026-03-22T12:12:59.36Z</time></trkpt><trkpt lat="43.2586083" lon="11.3062783"><ele>237.0</ele><time>2026-03-22T12:13:00.359Z</time></trkpt><trkpt lat="43.2587483" lon="11.3062133"><ele>237.0</ele><time>2026-03-22T12:13:01.359Z</time></trkpt><trkpt lat="43.2588917" lon="11.30614"><ele>237.0</ele><time>2026-03-22T12:13:02.36Z</time></trkpt><trkpt lat="43.2590317" lon="11.3060733"><ele>237.0</ele><time>2026-03-22T12:13:03.36Z</time></trkpt><trkpt lat="43.2591833" lon="11.3060017"><ele>237.0</ele><time>2026-03-22T12:13:04.36Z</time></trkpt><trkpt lat="43.2593417" lon="11.3059267"><ele>237.0</ele><time>2026-03-22T12:13:05.36Z</time></trkpt><trkpt lat="43.2595" lon="11.3058517"><ele>237.0</ele><time>2026-03-22T12:13:06.36Z</time></trkpt><trkpt lat="43.2596683" lon="11.305785"><ele>238.33333333333331</ele><time>2026-03-22T12:13:07.36Z</time></trkpt><trkpt lat="43.2598333" lon="11.3057083"><ele>239.66666666666666</ele><time>2026-03-22T12:13:08.359Z</time></trkpt><trkpt lat="43.25998" lon="11.3056367"><ele>241.0</ele><time>2026-03-22T12:13:09.359Z</time></trkpt><trkpt lat="43.2601317" lon="11.30557"><ele>241.0</ele><time>2026-03-22T12:13:10.36Z</time></trkpt><trkpt lat="43.2602783" lon="11.3055017"><ele>241.0</ele><time>2026-03-22T12:13:11.36Z</time></trkpt><trkpt lat="43.26043" lon="11.3054367"><ele>241.0</ele><time>2026-03-22T12:13:12.36Z</time></trkpt><trkpt lat="43.2605817" lon="11.3053833"><ele>242.0</ele><time>2026-03-22T12:13:13.36Z</time></trkpt><trkpt lat="43.2607517" lon="11.3053267"><ele>243.0</ele><time>2026-03-22T12:13:14.36Z</time></trkpt><trkpt lat="43.2609233" lon="11.3052967"><ele>244.0</ele><time>2026-03-22T12:13:15.359Z</time></trkpt><trkpt lat="43.2610983" lon="11.305275"><ele>244.0</ele><time>2026-03-22T12:13:16.36Z</time></trkpt><trkpt lat="43.2612783" lon="11.30524"><ele>244.0</ele><time>2026-03-22T12:13:17.36Z</time></trkpt><trkpt lat="43.2614667" lon="11.3052"><ele>244.0</ele><time>2026-03-22T12:13:18.36Z</time></trkpt><trkpt lat="43.261645" lon="11.3051617"><ele>245.66666666666666</ele><time>2026-03-22T12:13:19.36Z</time></trkpt><trkpt lat="43.261805" lon="11.3051333"><ele>247.33333333333331</ele><time>2026-03-22T12:13:20.359Z</time></trkpt><trkpt lat="43.2619617" lon="11.3051167"><ele>249.0</ele><time>2026-03-22T12:13:21.36Z</time></trkpt><trkpt lat="43.2621183" lon="11.305105"><ele>249.0</ele><time>2026-03-22T12:13:22.36Z</time></trkpt><trkpt lat="43.26227" lon="11.3050933"><ele>249.0</ele><time>2026-03-22T12:13:23.36Z</time></trkpt><trkpt lat="43.2624133" lon="11.3050917"><ele>249.0</ele><time>2026-03-22T12:13:24.36Z</time></trkpt><trkpt lat="43.2625783" lon="11.305085"><ele>247.33333333333331</ele><time>2026-03-22T12:13:25.359Z</time></trkpt><trkpt lat="43.2627383" lon="11.3050817"><ele>245.66666666666666</ele><time>2026-03-22T12:13:26.36Z</time></trkpt><trkpt lat="43.2629217" lon="11.3050583"><ele>244.0</ele><time>2026-03-22T12:13:27.359Z</time></trkpt><trkpt lat="43.2631033" lon="11.3050567"><ele>245.66666666666666</ele><time>2026-03-22T12:13:28.36Z</time></trkpt><trkpt lat="43.26329" lon="11.3050433"><ele>247.33333333333331</ele><time>2026-03-22T12:13:29.36Z</time></trkpt><trkpt lat="43.26347" lon="11.3050283"><ele>249.0</ele><time>2026-03-22T12:13:30.36Z</time></trkpt><trkpt lat="43.2636517" lon="11.3050183"><ele>249.0</ele><time>2026-03-22T12:13:31.359Z</time></trkpt><trkpt lat="43.2638217" lon="11.30501"><ele>249.0</ele><time>2026-03-22T12:13:32.36Z</time></trkpt><trkpt lat="43.263955" lon="11.3050167"><ele>249.0</ele><time>2026-03-22T12:13:33.36Z</time></trkpt><trkpt lat="43.2640717" lon="11.3050383"><ele>249.0</ele><time>2026-03-22T12:13:34.36Z</time></trkpt><trkpt lat="43.2642083" lon="11.3050383"><ele>250.33333333333331</ele><time>2026-03-22T12:13:35.36Z</time></trkpt><trkpt lat="43.2643583" lon="11.3050217"><ele>251.66666666666666</ele><time>2026-03-22T12:13:36.36Z</time></trkpt><trkpt lat="43.2645217" lon="11.3049917"><ele>253.0</ele><time>2026-03-22T12:13:37.36Z</time></trkpt><trkpt lat="43.26468" lon="11.30492"><ele>252.33333333333331</ele><time>2026-03-22T12:13:38.36Z</time></trkpt><trkpt lat="43.2648367" lon="11.3048383"><ele>251.66666666666669</ele><time>2026-03-22T12:13:39.36Z</time></trkpt><trkpt lat="43.265" lon="11.3047467"><ele>251.0</ele><time>2026-03-22T12:13:40.36Z</time></trkpt><trkpt lat="43.2651683" lon="11.3046633"><ele>251.0</ele><time>2026-03-22T12:13:41.36Z</time></trkpt><trkpt lat="43.26534" lon="11.3045833"><ele>251.0</ele><time>2026-03-22T12:13:42.359Z</time></trkpt><trkpt lat="43.265505" lon="11.3045"><ele>251.0</ele><time>2026-03-22T12:13:43.36Z</time></trkpt><trkpt lat="43.2656617" lon="11.30441"><ele>251.66666666666669</ele><time>2026-03-22T12:13:44.36Z</time></trkpt><trkpt lat="43.2658117" lon="11.3043067"><ele>252.33333333333331</ele><time>2026-03-22T12:13:45.359Z</time></trkpt><trkpt lat="43.2659567" lon="11.3041983"><ele>253.0</ele><time>2026-03-22T12:13:46.36Z</time></trkpt><trkpt lat="43.266085" lon="11.3040933"><ele>253.0</ele><time>2026-03-22T12:13:47.36Z</time></trkpt><trkpt lat="43.266215" lon="11.3039867"><ele>253.0</ele><time>2026-03-22T12:13:48.36Z</time></trkpt><trkpt lat="43.2663467" lon="11.3039017"><ele>253.0</ele><time>2026-03-22T12:13:49.36Z</time></trkpt><trkpt lat="43.26648" lon="11.3038383"><ele>253.0</ele><time>2026-03-22T12:13:50.36Z</time></trkpt><trkpt lat="43.2666183" lon="11.3038267"><ele>249.33333333333331</ele><time>2026-03-22T12:13:51.36Z</time></trkpt><trkpt lat="43.2667733" lon="11.303825"><ele>245.66666666666669</ele><time>2026-03-22T12:13:52.359Z</time></trkpt><trkpt lat="43.2669267" lon="11.3038217"><ele>242.0</ele><time>2026-03-22T12:13:53.36Z</time></trkpt><trkpt lat="43.267095" lon="11.303805"><ele>242.0</ele><time>2026-03-22T12:13:54.36Z</time></trkpt><trkpt lat="43.2672583" lon="11.3037583"><ele>242.0</ele><time>2026-03-22T12:13:55.359Z</time></trkpt><trkpt lat="43.2674133" lon="11.3036883"><ele>242.0</ele><time>2026-03-22T12:13:56.36Z</time></trkpt><trkpt lat="43.267565" lon="11.3035883"><ele>244.0</ele><time>2026-03-22T12:13:57.359Z</time></trkpt><trkpt lat="43.2677183" lon="11.3034633"><ele>246.0</ele><time>2026-03-22T12:13:58.36Z</time></trkpt><trkpt lat="43.2678567" lon="11.3033267"><ele>248.0</ele><time>2026-03-22T12:13:59.36Z</time></trkpt><trkpt lat="43.2679867" lon="11.30319"><ele>249.33333333333334</ele><time>2026-03-22T12:14:00.36Z</time></trkpt><trkpt lat="43.2681267" lon="11.3030467"><ele>250.66666666666669</ele><time>2026-03-22T12:14:01.36Z</time></trkpt><trkpt lat="43.2682633" lon="11.3029017"><ele>252.0</ele><time>2026-03-22T12:14:02.36Z</time></trkpt><trkpt lat="43.2684017" lon="11.3027533"><ele>252.0</ele><time>2026-03-22T12:14:03.36Z</time></trkpt><trkpt lat="43.2685417" lon="11.3026017"><ele>252.0</ele><time>2026-03-22T12:14:04.359Z</time></trkpt><trkpt lat="43.26868" lon="11.3024483"><ele>252.0</ele><time>2026-03-22T12:14:05.36Z</time></trkpt><trkpt lat="43.2688233" lon="11.3023333"><ele>249.66666666666669</ele><time>2026-03-22T12:14:06.36Z</time></trkpt><trkpt lat="43.2689767" lon="11.3022283"><ele>247.33333333333334</ele><time>2026-03-22T12:14:07.36Z</time></trkpt><trkpt lat="43.26915" lon="11.30213"><ele>245.0</ele><time>2026-03-22T12:14:08.36Z</time></trkpt><trkpt lat="43.2693283" lon="11.30204"><ele>245.0</ele><time>2026-03-22T12:14:09.36Z</time></trkpt><trkpt lat="43.26951" lon="11.3019517"><ele>245.0</ele><time>2026-03-22T12:14:10.36Z</time></trkpt><trkpt lat="43.2697017" lon="11.3018583"><ele>245.0</ele><time>2026-03-22T12:14:11.36Z</time></trkpt><trkpt lat="43.2698833" lon="11.3017683"><ele>246.66666666666669</ele><time>2026-03-22T12:14:12.36Z</time></trkpt><trkpt lat="43.270065" lon="11.30168"><ele>248.33333333333331</ele><time>2026-03-22T12:14:13.36Z</time></trkpt><trkpt lat="43.2702417" lon="11.3015883"><ele>250.0</ele><time>2026-03-22T12:14:14.36Z</time></trkpt><trkpt lat="43.2704117" lon="11.3015033"><ele>249.0</ele><time>2026-03-22T12:14:15.36Z</time></trkpt><trkpt lat="43.27059" lon="11.3013867"><ele>248.0</ele><time>2026-03-22T12:14:16.36Z</time></trkpt><trkpt lat="43.2707667" lon="11.3012867"><ele>247.0</ele><time>2026-03-22T12:14:17.359Z</time></trkpt><trkpt lat="43.2709333" lon="11.3011617"><ele>246.33333333333331</ele><time>2026-03-22T12:14:18.36Z</time></trkpt><trkpt lat="43.271095" lon="11.301025"><ele>245.66666666666669</ele><time>2026-03-22T12:14:19.359Z</time></trkpt><trkpt lat="43.2712267" lon="11.3009017"><ele>245.0</ele><time>2026-03-22T12:14:20.359Z</time></trkpt><trkpt lat="43.2713467" lon="11.3007817"><ele>245.0</ele><time>2026-03-22T12:14:21.36Z</time></trkpt><trkpt lat="43.2714067" lon="11.3006233"><ele>245.0</ele><time>2026-03-22T12:14:22.36Z</time></trkpt><trkpt lat="43.2714567" lon="11.300435"><ele>245.0</ele><time>2026-03-22T12:14:23.36Z</time></trkpt><trkpt lat="43.2714833" lon="11.3002117"><ele>245.0</ele><time>2026-03-22T12:14:24.359Z</time></trkpt><trkpt lat="43.2715133" lon="11.2999917"><ele>245.66666666666669</ele><time>2026-03-22T12:14:25.359Z</time></trkpt><trkpt lat="43.2715333" lon="11.299775"><ele>246.33333333333331</ele><time>2026-03-22T12:14:26.36Z</time></trkpt><trkpt lat="43.27156" lon="11.2995733"><ele>247.0</ele><time>2026-03-22T12:14:27.36Z</time></trkpt><trkpt lat="43.2715667" lon="11.2993667"><ele>247.0</ele><time>2026-03-22T12:14:28.36Z</time></trkpt><trkpt lat="43.2715567" lon="11.2991533"><ele>247.0</ele><time>2026-03-22T12:14:29.36Z</time></trkpt><trkpt lat="43.2715533" lon="11.298935"><ele>247.0</ele><time>2026-03-22T12:14:30.359Z</time></trkpt><trkpt lat="43.2715517" lon="11.298725"><ele>248.0</ele><time>2026-03-22T12:14:31.36Z</time></trkpt><trkpt lat="43.2715533" lon="11.2985117"><ele>249.0</ele><time>2026-03-22T12:14:32.36Z</time></trkpt><trkpt lat="43.2715733" lon="11.2983233"><ele>250.0</ele><time>2026-03-22T12:14:33.359Z</time></trkpt><trkpt lat="43.27159" lon="11.298155"><ele>251.0</ele><time>2026-03-22T12:14:34.36Z</time></trkpt><trkpt lat="43.2716267" lon="11.298015"><ele>251.25</ele><time>2026-03-22T12:14:35.36Z</time></trkpt><trkpt lat="43.2716567" lon="11.2978967"><ele>251.5</ele><time>2026-03-22T12:14:36.36Z</time></trkpt><trkpt lat="43.271725" lon="11.2977767"><ele>251.75</ele><time>2026-03-22T12:14:37.36Z</time></trkpt><trkpt lat="43.27182" lon="11.2976617"><ele>252.0</ele><time>2026-03-22T12:14:38.36Z</time></trkpt><trkpt lat="43.2719267" lon="11.2975467"><ele>252.0</ele><time>2026-03-22T12:14:39.359Z</time></trkpt><trkpt lat="43.2720367" lon="11.297415"><ele>252.0</ele><time>2026-03-22T12:14:40.359Z</time></trkpt><trkpt lat="43.2721517" lon="11.2972617"><ele>252.0</ele><time>2026-03-22T12:14:41.36Z</time></trkpt><trkpt lat="43.2722567" lon="11.297115"><ele>253.0</ele><time>2026-03-22T12:14:42.36Z</time></trkpt><trkpt lat="43.272355" lon="11.2969683"><ele>254.0</ele><time>2026-03-22T12:14:43.36Z</time></trkpt><trkpt lat="43.2724533" lon="11.2968317"><ele>255.0</ele><time>2026-03-22T12:14:44.359Z</time></trkpt><trkpt lat="43.27256" lon="11.2967083"><ele>256.0</ele><time>2026-03-22T12:14:45.36Z</time></trkpt><trkpt lat="43.27267" lon="11.2965917"><ele>256.0</ele><time>2026-03-22T12:14:46.359Z</time></trkpt><trkpt lat="43.2727933" lon="11.296485"><ele>256.0</ele><time>2026-03-22T12:14:47.36Z</time></trkpt><trkpt lat="43.2729233" lon="11.29638"><ele>256.0</ele><time>2026-03-22T12:14:48.359Z</time></trkpt><trkpt lat="43.27306" lon="11.29629"><ele>256.0</ele><time>2026-03-22T12:14:49.36Z</time></trkpt><trkpt lat="43.273185" lon="11.2961917"><ele>256.6</ele><time>2026-03-22T12:14:50.36Z</time></trkpt><trkpt lat="43.2732933" lon="11.2961033"><ele>257.20000000000005</ele><time>2026-03-22T12:14:51.36Z</time></trkpt><trkpt lat="43.273385" lon="11.29604"><ele>257.79999999999995</ele><time>2026-03-22T12:14:52.36Z</time></trkpt><trkpt lat="43.27346" lon="11.29601"><ele>258.4</ele><time>2026-03-22T12:14:53.36Z</time></trkpt><trkpt lat="43.27342" lon="11.2960983"><ele>259.0</ele><time>2026-03-22T12:15:23.36Z</time></trkpt><trkpt lat="43.2734283" lon="11.2962033"><ele>259.0</ele><time>2026-03-22T12:15:25.36Z</time></trkpt><trkpt lat="43.2734617" lon="11.2963867"><ele>259.0</ele><time>2026-03-22T12:15:27.359Z</time></trkpt><trkpt lat="43.2734817" lon="11.2964983"><ele>259.0</ele><time>2026-03-22T12:15:28.36Z</time></trkpt><trkpt lat="43.2734983" lon="11.2966183"><ele>259.0</ele><time>2026-03-22T12:15:29.36Z</time></trkpt><trkpt lat="43.2735117" lon="11.2967317"><ele>259.0</ele><time>2026-03-22T12:15:30.36Z</time></trkpt><trkpt lat="43.2735367" lon="11.29684"><ele>259.0</ele><time>2026-03-22T12:15:31.36Z</time></trkpt><trkpt lat="43.2735683" lon="11.29694"><ele>259.0</ele><time>2026-03-22T12:15:32.36Z</time></trkpt><trkpt lat="43.2736167" lon="11.2970267"><ele>259.0</ele><time>2026-03-22T12:15:33.36Z</time></trkpt><trkpt lat="43.2736767" lon="11.2970883"><ele>259.0</ele><time>2026-03-22T12:15:34.359Z</time></trkpt><trkpt lat="43.2737717" lon="11.2971883"><ele>259.0</ele><time>2026-03-22T12:15:36.359Z</time></trkpt><trkpt lat="43.2738733" lon="11.2972667"><ele>258.66666666666663</ele><time>2026-03-22T12:15:38.359Z</time></trkpt><trkpt lat="43.2739333" lon="11.2973167"><ele>258.3333333333333</ele><time>2026-03-22T12:15:40.359Z</time></trkpt><trkpt lat="43.2740117" lon="11.2973633"><ele>258.0</ele><time>2026-03-22T12:15:42.36Z</time></trkpt><trkpt lat="43.2741117" lon="11.2974283"><ele>257.6666666666667</ele><time>2026-03-22T12:15:44.36Z</time></trkpt><trkpt lat="43.27417" lon="11.2974667"><ele>257.33333333333337</ele><time>2026-03-22T12:15:45.36Z</time></trkpt><trkpt lat="43.2742233" lon="11.2975183"><ele>257.0</ele><time>2026-03-22T12:15:46.359Z</time></trkpt><trkpt lat="43.274265" lon="11.2976"><ele>256.5</ele><time>2026-03-22T12:15:47.36Z</time></trkpt><trkpt lat="43.2742983" lon="11.2976967"><ele>256.0</ele><time>2026-03-22T12:15:48.36Z</time></trkpt><trkpt lat="43.2743333" lon="11.2978017"><ele>255.5</ele><time>2026-03-22T12:15:49.36Z</time></trkpt><trkpt lat="43.2743717" lon="11.2979067"><ele>255.0</ele><time>2026-03-22T12:15:50.36Z</time></trkpt><trkpt lat="43.2744183" lon="11.29799"><ele>254.50000000000003</ele><time>2026-03-22T12:15:51.36Z</time></trkpt><trkpt lat="43.274505" lon="11.2980933"><ele>254.0</ele><time>2026-03-22T12:15:53.359Z</time></trkpt><trkpt lat="43.2746217" lon="11.29813"><ele>253.71428571428572</ele><time>2026-03-22T12:15:55.36Z</time></trkpt><trkpt lat="43.274685" lon="11.2981433"><ele>253.42857142857142</ele><time>2026-03-22T12:15:56.36Z</time></trkpt><trkpt lat="43.27475" lon="11.2981533"><ele>253.14285714285714</ele><time>2026-03-22T12:15:57.36Z</time></trkpt><trkpt lat="43.27482" lon="11.2981583"><ele>252.85714285714286</ele><time>2026-03-22T12:15:58.36Z</time></trkpt><trkpt lat="43.2748933" lon="11.29818"><ele>252.57142857142856</ele><time>2026-03-22T12:15:59.36Z</time></trkpt><trkpt lat="43.2749717" lon="11.2981983"><ele>252.28571428571428</ele><time>2026-03-22T12:16:00.359Z</time></trkpt><trkpt lat="43.2750483" lon="11.2982217"><ele>252.0</ele><time>2026-03-22T12:16:01.36Z</time></trkpt><trkpt lat="43.27513" lon="11.2982483"><ele>251.66666666666666</ele><time>2026-03-22T12:16:02.36Z</time></trkpt><trkpt lat="43.2751933" lon="11.2982783"><ele>251.33333333333331</ele><time>2026-03-22T12:16:03.36Z</time></trkpt><trkpt lat="43.2752983" lon="11.2983733"><ele>251.0</ele><time>2026-03-22T12:16:05.359Z</time></trkpt><trkpt lat="43.2753467" lon="11.2984417"><ele>250.66666666666666</ele><time>2026-03-22T12:16:06.359Z</time></trkpt><trkpt lat="43.2754067" lon="11.2985183"><ele>250.33333333333331</ele><time>2026-03-22T12:16:07.36Z</time></trkpt><trkpt lat="43.27548" lon="11.2986067"><ele>250.0</ele><time>2026-03-22T12:16:08.36Z</time></trkpt><trkpt lat="43.27555" lon="11.2987033"><ele>249.4</ele><time>2026-03-22T12:16:09.36Z</time></trkpt><trkpt lat="43.2756233" lon="11.2988"><ele>248.8</ele><time>2026-03-22T12:16:10.36Z</time></trkpt><trkpt lat="43.275705" lon="11.298895"><ele>248.2</ele><time>2026-03-22T12:16:11.36Z</time></trkpt><trkpt lat="43.275795" lon="11.298985"><ele>247.6</ele><time>2026-03-22T12:16:12.359Z</time></trkpt><trkpt lat="43.2758833" lon="11.299075"><ele>247.0</ele><time>2026-03-22T12:16:13.36Z</time></trkpt><trkpt lat="43.27597" lon="11.29916"><ele>246.8</ele><time>2026-03-22T12:16:14.36Z</time></trkpt><trkpt lat="43.2760583" lon="11.29924"><ele>246.6</ele><time>2026-03-22T12:16:15.359Z</time></trkpt><trkpt lat="43.2761367" lon="11.29933"><ele>246.40000000000003</ele><time>2026-03-22T12:16:16.36Z</time></trkpt><trkpt lat="43.2762117" lon="11.2994017"><ele>246.20000000000002</ele><time>2026-03-22T12:16:17.36Z</time></trkpt><trkpt lat="43.2762783" lon="11.2994767"><ele>246.0</ele><time>2026-03-22T12:16:18.359Z</time></trkpt><trkpt lat="43.2763433" lon="11.299545"><ele>246.0</ele><time>2026-03-22T12:16:19.36Z</time></trkpt><trkpt lat="43.2764083" lon="11.29961"><ele>246.0</ele><time>2026-03-22T12:16:20.359Z</time></trkpt><trkpt lat="43.276465" lon="11.2996617"><ele>246.0</ele><time>2026-03-22T12:16:21.36Z</time></trkpt><trkpt lat="43.276535" lon="11.29973"><ele>246.0</ele><time>2026-03-22T12:16:23.36Z</time></trkpt><trkpt lat="43.2766133" lon="11.2997817"><ele>246.0</ele><time>2026-03-22T12:16:26.359Z</time></trkpt><trkpt lat="43.2766867" lon="11.2997667"><ele>246.0</ele><time>2026-03-22T12:16:29.36Z</time></trkpt><trkpt lat="43.2767517" lon="11.2997117"><ele>245.5714285714286</ele><time>2026-03-22T12:16:32.36Z</time></trkpt><trkpt lat="43.2767933" lon="11.2996467"><ele>245.14285714285717</ele><time>2026-03-22T12:16:34.36Z</time></trkpt><trkpt lat="43.2768433" lon="11.29956"><ele>244.71428571428572</ele><time>2026-03-22T12:16:36.36Z</time></trkpt><trkpt lat="43.2768917" lon="11.2994917"><ele>244.2857142857143</ele><time>2026-03-22T12:16:38.36Z</time></trkpt><trkpt lat="43.2769417" lon="11.2994"><ele>243.8571428571429</ele><time>2026-03-22T12:16:41.36Z</time></trkpt><trkpt lat="43.2769867" lon="11.29932"><ele>243.42857142857142</ele><time>2026-03-22T12:16:44.36Z</time></trkpt><trkpt lat="43.2770233" lon="11.2992383"><ele>243.0</ele><time>2026-03-22T12:16:47.36Z</time></trkpt><trkpt lat="43.2769817" lon="11.299315"><ele>243.0</ele><time>2026-03-22T12:16:52.359Z</time></trkpt><trkpt lat="43.2769383" lon="11.2994183"><ele>243.0</ele><time>2026-03-22T12:16:54.36Z</time></trkpt><trkpt lat="43.2768817" lon="11.29954"><ele>243.0</ele><time>2026-03-22T12:16:56.36Z</time></trkpt><trkpt lat="43.2768433" lon="11.29961"><ele>243.0</ele><time>2026-03-22T12:16:57.36Z</time></trkpt><trkpt lat="43.27676" lon="11.299715"><ele>243.0</ele><time>2026-03-22T12:16:59.36Z</time></trkpt><trkpt lat="43.2766583" lon="11.2997733"><ele>243.0</ele><time>2026-03-22T12:17:01.36Z</time></trkpt><trkpt lat="43.27655" lon="11.29974"><ele>243.0</ele><time>2026-03-22T12:17:03.359Z</time></trkpt><trkpt lat="43.2764617" lon="11.2996467"><ele>243.0</ele><time>2026-03-22T12:17:05.36Z</time></trkpt><trkpt lat="43.2764067" lon="11.2995967"><ele>243.0</ele><time>2026-03-22T12:17:06.36Z</time></trkpt><trkpt lat="43.27635" lon="11.299535"><ele>243.0</ele><time>2026-03-22T12:17:07.359Z</time></trkpt><trkpt lat="43.27626" lon="11.2994617"><ele>243.60000000000002</ele><time>2026-03-22T12:17:09.36Z</time></trkpt><trkpt lat="43.276195" lon="11.2993817"><ele>244.20000000000002</ele><time>2026-03-22T12:17:11.359Z</time></trkpt><trkpt lat="43.2761217" lon="11.29929"><ele>244.8</ele><time>2026-03-22T12:17:13.36Z</time></trkpt><trkpt lat="43.2760383" lon="11.2992033"><ele>245.4</ele><time>2026-03-22T12:17:15.36Z</time></trkpt><trkpt lat="43.2759367" lon="11.2991017"><ele>246.0</ele><time>2026-03-22T12:17:17.36Z</time></trkpt><trkpt lat="43.27588" lon="11.2990467"><ele>246.0</ele><time>2026-03-22T12:17:18.359Z</time></trkpt><trkpt lat="43.27582" lon="11.2989917"><ele>246.0</ele><time>2026-03-22T12:17:19.359Z</time></trkpt><trkpt lat="43.2757583" lon="11.2989267"><ele>246.0</ele><time>2026-03-22T12:17:20.36Z</time></trkpt><trkpt lat="43.2756933" lon="11.2988667"><ele>246.0</ele><time>2026-03-22T12:17:21.359Z</time></trkpt><trkpt lat="43.2756383" lon="11.298805"><ele>246.0</ele><time>2026-03-22T12:17:22.359Z</time></trkpt><trkpt lat="43.2755617" lon="11.29872"><ele>246.0</ele><time>2026-03-22T12:17:24.36Z</time></trkpt><trkpt lat="43.2755083" lon="11.29866"><ele>246.8</ele><time>2026-03-22T12:17:27.36Z</time></trkpt><trkpt lat="43.275465" lon="11.2985583"><ele>247.60000000000002</ele><time>2026-03-22T12:17:30.36Z</time></trkpt><trkpt lat="43.275405" lon="11.29847"><ele>248.4</ele><time>2026-03-22T12:17:32.359Z</time></trkpt><trkpt lat="43.275325" lon="11.298375"><ele>249.2</ele><time>2026-03-22T12:17:34.36Z</time></trkpt><trkpt lat="43.2752367" lon="11.2982883"><ele>250.0</ele><time>2026-03-22T12:17:36.36Z</time></trkpt><trkpt lat="43.2751283" lon="11.2982167"><ele>250.0</ele><time>2026-03-22T12:17:38.359Z</time></trkpt><trkpt lat="43.2750117" lon="11.2981733"><ele>250.0</ele><time>2026-03-22T12:17:40.36Z</time></trkpt><trkpt lat="43.274895" lon="11.298145"><ele>250.0</ele><time>2026-03-22T12:17:42.36Z</time></trkpt><trkpt lat="43.2748267" lon="11.2981333"><ele>250.0</ele><time>2026-03-22T12:17:43.36Z</time></trkpt><trkpt lat="43.27475" lon="11.298115"><ele>250.0</ele><time>2026-03-22T12:17:44.359Z</time></trkpt><trkpt lat="43.274665" lon="11.2981033"><ele>250.66666666666666</ele><time>2026-03-22T12:17:45.359Z</time></trkpt><trkpt lat="43.274585" lon="11.2980833"><ele>251.33333333333331</ele><time>2026-03-22T12:17:46.36Z</time></trkpt><trkpt lat="43.27451" lon="11.2980617"><ele>252.0</ele><time>2026-03-22T12:17:47.359Z</time></trkpt><trkpt lat="43.2744483" lon="11.2980233"><ele>252.66666666666669</ele><time>2026-03-22T12:17:48.36Z</time></trkpt><trkpt lat="43.2743517" lon="11.29791"><ele>253.33333333333334</ele><time>2026-03-22T12:17:50.36Z</time></trkpt><trkpt lat="43.2743167" lon="11.297835"><ele>254.0</ele><time>2026-03-22T12:17:51.359Z</time></trkpt><trkpt lat="43.27428" lon="11.2977483"><ele>254.00000000000003</ele><time>2026-03-22T12:17:52.359Z</time></trkpt><trkpt lat="43.27424" lon="11.297655"><ele>254.0</ele><time>2026-03-22T12:17:53.36Z</time></trkpt><trkpt lat="43.2741967" lon="11.2975683"><ele>254.0</ele><time>2026-03-22T12:17:54.36Z</time></trkpt><trkpt lat="43.27415" lon="11.2974967"><ele>254.0</ele><time>2026-03-22T12:17:55.36Z</time></trkpt><trkpt lat="43.2741" lon="11.2974433"><ele>254.00000000000003</ele><time>2026-03-22T12:17:56.359Z</time></trkpt><trkpt lat="43.273995" lon="11.2973483"><ele>254.0</ele><time>2026-03-22T12:17:58.36Z</time></trkpt><trkpt lat="43.2739283" lon="11.2972883"><ele>254.83333333333334</ele><time>2026-03-22T12:17:59.36Z</time></trkpt><trkpt lat="43.2738583" lon="11.2972383"><ele>255.66666666666669</ele><time>2026-03-22T12:18:00.36Z</time></trkpt><trkpt lat="43.2737917" lon="11.297175"><ele>256.5</ele><time>2026-03-22T12:18:01.36Z</time></trkpt><trkpt lat="43.2737283" lon="11.2971183"><ele>257.3333333333333</ele><time>2026-03-22T12:18:02.36Z</time></trkpt><trkpt lat="43.2736667" lon="11.2970667"><ele>258.16666666666663</ele><time>2026-03-22T12:18:03.36Z</time></trkpt><trkpt lat="43.2735717" lon="11.29696"><ele>259.0</ele><time>2026-03-22T12:18:05.36Z</time></trkpt><trkpt lat="43.2735433" lon="11.2968783"><ele>259.0</ele><time>2026-03-22T12:18:06.36Z</time></trkpt><trkpt lat="43.2735233" lon="11.29679"><ele>259.0</ele><time>2026-03-22T12:18:07.36Z</time></trkpt><trkpt lat="43.2735083" lon="11.2966967"><ele>259.0</ele><time>2026-03-22T12:18:08.36Z</time></trkpt><trkpt lat="43.273495" lon="11.296595"><ele>259.0</ele><time>2026-03-22T12:18:09.36Z</time></trkpt><trkpt lat="43.2734717" lon="11.2964833"><ele>259.0</ele><time>2026-03-22T12:18:10.36Z</time></trkpt><trkpt lat="43.2734433" lon="11.2963667"><ele>259.0</ele><time>2026-03-22T12:18:11.36Z</time></trkpt><trkpt lat="43.273425" lon="11.2962567"><ele>259.0</ele><time>2026-03-22T12:18:12.36Z</time></trkpt><trkpt lat="43.2734017" lon="11.296155"><ele>259.0</ele><time>2026-03-22T12:18:13.36Z</time></trkpt><trkpt lat="43.2734017" lon="11.2960417"><ele>259.0</ele><time>2026-03-22T12:18:15.36Z</time></trkpt><trkpt lat="43.273475" lon="11.2959417"><ele>259.0</ele><time>2026-03-22T12:18:17.36Z</time></trkpt><trkpt lat="43.2735333" lon="11.2958817"><ele>259.0</ele><time>2026-03-22T12:18:18.359Z</time></trkpt><trkpt lat="43.2735983" lon="11.2958117"><ele>259.0</ele><time>2026-03-22T12:18:19.36Z</time></trkpt><trkpt lat="43.2736733" lon="11.29574"><ele>259.0</ele><time>2026-03-22T12:18:20.36Z</time></trkpt><trkpt lat="43.273755" lon="11.29567"><ele>259.0</ele><time>2026-03-22T12:18:21.36Z</time></trkpt><trkpt lat="43.2738383" lon="11.2955867"><ele>259.0</ele><time>2026-03-22T12:18:22.36Z</time></trkpt><trkpt lat="43.273905" lon="11.2955183"><ele>259.0</ele><time>2026-03-22T12:18:23.36Z</time></trkpt><trkpt lat="43.273995" lon="11.2954383"><ele>259.0</ele><time>2026-03-22T12:18:24.359Z</time></trkpt><trkpt lat="43.2740917" lon="11.2953717"><ele>259.0</ele><time>2026-03-22T12:18:25.36Z</time></trkpt><trkpt lat="43.2741967" lon="11.2953017"><ele>259.0</ele><time>2026-03-22T12:18:26.36Z</time></trkpt><trkpt lat="43.2742933" lon="11.295235"><ele>259.0</ele><time>2026-03-22T12:18:27.36Z</time></trkpt><trkpt lat="43.274385" lon="11.29517"><ele>259.0</ele><time>2026-03-22T12:18:28.36Z</time></trkpt><trkpt lat="43.2744783" lon="11.295105"><ele>259.0</ele><time>2026-03-22T12:18:29.36Z</time></trkpt><trkpt lat="43.274575" lon="11.2950283"><ele>259.0</ele><time>2026-03-22T12:18:30.359Z</time></trkpt><trkpt lat="43.27464" lon="11.2949633"><ele>259.0</ele><time>2026-03-22T12:18:31.36Z</time></trkpt><trkpt lat="43.2746967" lon="11.2949233"><ele>259.0</ele><time>2026-03-22T12:18:32.36Z</time></trkpt><trkpt lat="43.2747667" lon="11.29483"><ele>259.0</ele><time>2026-03-22T12:18:34.36Z</time></trkpt><trkpt lat="43.2746833" lon="11.294755"><ele>259.0</ele><time>2026-03-22T12:18:38.359Z</time></trkpt><trkpt lat="43.2745217" lon="11.294755"><ele>259.0</ele><time>2026-03-22T12:18:40.36Z</time></trkpt><trkpt lat="43.274385" lon="11.2947633"><ele>259.0</ele><time>2026-03-22T12:18:41.359Z</time></trkpt><trkpt lat="43.2742167" lon="11.2947733"><ele>259.0</ele><time>2026-03-22T12:18:42.36Z</time></trkpt><trkpt lat="43.274045" lon="11.29476"><ele>255.66666666666666</ele><time>2026-03-22T12:18:43.36Z</time></trkpt><trkpt lat="43.2738683" lon="11.294745"><ele>252.33333333333331</ele><time>2026-03-22T12:18:44.359Z</time></trkpt><trkpt lat="43.2736883" lon="11.2947267"><ele>249.0</ele><time>2026-03-22T12:18:45.359Z</time></trkpt><trkpt lat="43.2735067" lon="11.2946933"><ele>249.0</ele><time>2026-03-22T12:18:46.359Z</time></trkpt><trkpt lat="43.2733117" lon="11.2946367"><ele>249.0</ele><time>2026-03-22T12:18:47.36Z</time></trkpt><trkpt lat="43.273125" lon="11.2945633"><ele>249.0</ele><time>2026-03-22T12:18:48.359Z</time></trkpt><trkpt lat="43.2729667" lon="11.29448"><ele>250.66666666666669</ele><time>2026-03-22T12:18:49.36Z</time></trkpt><trkpt lat="43.2728267" lon="11.294395"><ele>252.33333333333334</ele><time>2026-03-22T12:18:50.36Z</time></trkpt><trkpt lat="43.27268" lon="11.2943117"><ele>254.0</ele><time>2026-03-22T12:18:51.36Z</time></trkpt><trkpt lat="43.2725167" lon="11.2942217"><ele>254.0</ele><time>2026-03-22T12:18:52.36Z</time></trkpt><trkpt lat="43.2723617" lon="11.294115"><ele>254.0</ele><time>2026-03-22T12:18:53.36Z</time></trkpt><trkpt lat="43.2722317" lon="11.2940233"><ele>254.0</ele><time>2026-03-22T12:18:54.359Z</time></trkpt><trkpt lat="43.272105" lon="11.2939333"><ele>255.33333333333334</ele><time>2026-03-22T12:18:55.359Z</time></trkpt><trkpt lat="43.271965" lon="11.293855"><ele>256.6666666666667</ele><time>2026-03-22T12:18:56.36Z</time></trkpt><trkpt lat="43.2717983" lon="11.2938017"><ele>258.0</ele><time>2026-03-22T12:18:57.36Z</time></trkpt><trkpt lat="43.271645" lon="11.2937433"><ele>258.0</ele><time>2026-03-22T12:18:58.36Z</time></trkpt><trkpt lat="43.2715" lon="11.293685"><ele>258.0</ele><time>2026-03-22T12:18:59.359Z</time></trkpt><trkpt lat="43.2713767" lon="11.2936167"><ele>258.0</ele><time>2026-03-22T12:19:00.36Z</time></trkpt><trkpt lat="43.2712483" lon="11.2935233"><ele>258.0</ele><time>2026-03-22T12:19:01.359Z</time></trkpt><trkpt lat="43.2711567" lon="11.2933933"><ele>255.33333333333331</ele><time>2026-03-22T12:19:02.36Z</time></trkpt><trkpt lat="43.2710983" lon="11.2932217"><ele>252.66666666666666</ele><time>2026-03-22T12:19:03.36Z</time></trkpt><trkpt lat="43.27105" lon="11.2930233"><ele>250.0</ele><time>2026-03-22T12:19:04.36Z</time></trkpt><trkpt lat="43.27101" lon="11.2928"><ele>249.66666666666666</ele><time>2026-03-22T12:19:05.36Z</time></trkpt><trkpt lat="43.2709483" lon="11.2925767"><ele>249.33333333333331</ele><time>2026-03-22T12:19:06.36Z</time></trkpt><trkpt lat="43.2708767" lon="11.29237"><ele>249.0</ele><time>2026-03-22T12:19:07.36Z</time></trkpt><trkpt lat="43.2708033" lon="11.2921817"><ele>249.5</ele><time>2026-03-22T12:19:08.36Z</time></trkpt><trkpt lat="43.2707267" lon="11.2920133"><ele>250.0</ele><time>2026-03-22T12:19:09.36Z</time></trkpt><trkpt lat="43.2706467" lon="11.2918483"><ele>250.5</ele><time>2026-03-22T12:19:10.36Z</time></trkpt><trkpt lat="43.2705317" lon="11.2916967"><ele>251.0</ele><time>2026-03-22T12:19:11.36Z</time></trkpt><trkpt lat="43.2703783" lon="11.2915967"><ele>251.0</ele><time>2026-03-22T12:19:12.36Z</time></trkpt><trkpt lat="43.2702183" lon="11.2915067"><ele>251.0</ele><time>2026-03-22T12:19:13.36Z</time></trkpt><trkpt lat="43.2700483" lon="11.2914067"><ele>251.0</ele><time>2026-03-22T12:19:14.36Z</time></trkpt><trkpt lat="43.2698683" lon="11.2913133"><ele>252.0</ele><time>2026-03-22T12:19:15.359Z</time></trkpt><trkpt lat="43.2697117" lon="11.291215"><ele>253.0</ele><time>2026-03-22T12:19:16.36Z</time></trkpt><trkpt lat="43.2695433" lon="11.2911183"><ele>254.0</ele><time>2026-03-22T12:19:17.36Z</time></trkpt><trkpt lat="43.2693783" lon="11.2910367"><ele>254.0</ele><time>2026-03-22T12:19:18.36Z</time></trkpt><trkpt lat="43.2692033" lon="11.2909717"><ele>254.0</ele><time>2026-03-22T12:19:19.359Z</time></trkpt><trkpt lat="43.2690417" lon="11.2909033"><ele>254.0</ele><time>2026-03-22T12:19:20.36Z</time></trkpt><trkpt lat="43.26888" lon="11.29086"><ele>252.33333333333334</ele><time>2026-03-22T12:19:21.36Z</time></trkpt><trkpt lat="43.2687283" lon="11.2908067"><ele>250.66666666666669</ele><time>2026-03-22T12:19:22.359Z</time></trkpt><trkpt lat="43.2685833" lon="11.2907283"><ele>249.0</ele><time>2026-03-22T12:19:23.359Z</time></trkpt><trkpt lat="43.2684433" lon="11.2906233"><ele>249.66666666666669</ele><time>2026-03-22T12:19:24.359Z</time></trkpt><trkpt lat="43.2683017" lon="11.290485"><ele>250.33333333333334</ele><time>2026-03-22T12:19:25.359Z</time></trkpt><trkpt lat="43.2681533" lon="11.2903317"><ele>251.0</ele><time>2026-03-22T12:19:26.36Z</time></trkpt><trkpt lat="43.268025" lon="11.2901667"><ele>252.33333333333334</ele><time>2026-03-22T12:19:27.36Z</time></trkpt><trkpt lat="43.2678983" lon="11.2900183"><ele>253.66666666666669</ele><time>2026-03-22T12:19:28.36Z</time></trkpt><trkpt lat="43.2677617" lon="11.2898867"><ele>255.0</ele><time>2026-03-22T12:19:29.359Z</time></trkpt><trkpt lat="43.267615" lon="11.289765"><ele>252.33333333333331</ele><time>2026-03-22T12:19:30.36Z</time></trkpt><trkpt lat="43.2674583" lon="11.2896783"><ele>249.66666666666666</ele><time>2026-03-22T12:19:31.36Z</time></trkpt><trkpt lat="43.267285" lon="11.289595"><ele>247.0</ele><time>2026-03-22T12:19:32.36Z</time></trkpt><trkpt lat="43.2671" lon="11.2894917"><ele>247.0</ele><time>2026-03-22T12:19:33.359Z</time></trkpt><trkpt lat="43.2669217" lon="11.2893767"><ele>247.0</ele><time>2026-03-22T12:19:34.359Z</time></trkpt><trkpt lat="43.2667117" lon="11.2892567"><ele>247.0</ele><time>2026-03-22T12:19:35.36Z</time></trkpt><trkpt lat="43.2665117" lon="11.28915"><ele>246.66666666666666</ele><time>2026-03-22T12:19:36.36Z</time></trkpt><trkpt lat="43.2663117" lon="11.2890433"><ele>246.33333333333331</ele><time>2026-03-22T12:19:37.36Z</time></trkpt><trkpt lat="43.2661017" lon="11.2889483"><ele>246.0</ele><time>2026-03-22T12:19:38.36Z</time></trkpt><trkpt lat="43.2658983" lon="11.2888717"><ele>246.0</ele><time>2026-03-22T12:19:39.36Z</time></trkpt><trkpt lat="43.2656867" lon="11.2888033"><ele>246.0</ele><time>2026-03-22T12:19:40.359Z</time></trkpt><trkpt lat="43.2655117" lon="11.2887317"><ele>246.0</ele><time>2026-03-22T12:19:41.36Z</time></trkpt><trkpt lat="43.2653283" lon="11.2886783"><ele>246.33333333333331</ele><time>2026-03-22T12:19:42.36Z</time></trkpt><trkpt lat="43.26518" lon="11.2886167"><ele>246.66666666666666</ele><time>2026-03-22T12:19:43.36Z</time></trkpt><trkpt lat="43.265015" lon="11.28853"><ele>247.0</ele><time>2026-03-22T12:19:44.359Z</time></trkpt><trkpt lat="43.264865" lon="11.2884267"><ele>246.66666666666666</ele><time>2026-03-22T12:19:45.359Z</time></trkpt><trkpt lat="43.2647" lon="11.2883383"><ele>246.33333333333331</ele><time>2026-03-22T12:19:46.36Z</time></trkpt><trkpt lat="43.264525" lon="11.2882467"><ele>246.0</ele><time>2026-03-22T12:19:47.36Z</time></trkpt><trkpt lat="43.2643533" lon="11.288165"><ele>246.0</ele><time>2026-03-22T12:19:48.359Z</time></trkpt><trkpt lat="43.264185" lon="11.2880883"><ele>246.0</ele><time>2026-03-22T12:19:49.36Z</time></trkpt><trkpt lat="43.2640333" lon="11.2880183"><ele>246.0</ele><time>2026-03-22T12:19:50.36Z</time></trkpt><trkpt lat="43.2638633" lon="11.287955"><ele>246.0</ele><time>2026-03-22T12:19:51.359Z</time></trkpt><trkpt lat="43.2637" lon="11.2878883"><ele>246.0</ele><time>2026-03-22T12:19:52.36Z</time></trkpt><trkpt lat="43.2635383" lon="11.2878183"><ele>246.0</ele><time>2026-03-22T12:19:53.36Z</time></trkpt><trkpt lat="43.2633817" lon="11.28774"><ele>246.0</ele><time>2026-03-22T12:19:54.359Z</time></trkpt><trkpt lat="43.26323" lon="11.28763"><ele>246.0</ele><time>2026-03-22T12:19:55.36Z</time></trkpt><trkpt lat="43.2630733" lon="11.2875067"><ele>246.0</ele><time>2026-03-22T12:19:56.36Z</time></trkpt><trkpt lat="43.2629067" lon="11.287365"><ele>244.66666666666669</ele><time>2026-03-22T12:19:57.36Z</time></trkpt><trkpt lat="43.262745" lon="11.2872367"><ele>243.33333333333334</ele><time>2026-03-22T12:19:58.36Z</time></trkpt><trkpt lat="43.262575" lon="11.2871167"><ele>242.0</ele><time>2026-03-22T12:19:59.359Z</time></trkpt><trkpt lat="43.2624133" lon="11.2869933"><ele>243.0</ele><time>2026-03-22T12:20:00.36Z</time></trkpt><trkpt lat="43.26224" lon="11.2869217"><ele>244.0</ele><time>2026-03-22T12:20:01.36Z</time></trkpt><trkpt lat="43.262075" lon="11.28687"><ele>245.0</ele><time>2026-03-22T12:20:02.359Z</time></trkpt><trkpt lat="43.2619267" lon="11.286835"><ele>245.0</ele><time>2026-03-22T12:20:03.36Z</time></trkpt><trkpt lat="43.2618" lon="11.28682"><ele>245.0</ele><time>2026-03-22T12:20:04.361Z</time></trkpt><trkpt lat="43.26167" lon="11.2868183"><ele>245.0</ele><time>2026-03-22T12:20:05.36Z</time></trkpt><trkpt lat="43.261535" lon="11.2868067"><ele>245.0</ele><time>2026-03-22T12:20:06.36Z</time></trkpt><trkpt lat="43.2613967" lon="11.2867867"><ele>244.5</ele><time>2026-03-22T12:20:07.361Z</time></trkpt><trkpt lat="43.2612533" lon="11.28678"><ele>244.0</ele><time>2026-03-22T12:20:08.361Z</time></trkpt><trkpt lat="43.261105" lon="11.2867783"><ele>243.5</ele><time>2026-03-22T12:20:09.361Z</time></trkpt><trkpt lat="43.2609633" lon="11.2867883"><ele>243.0</ele><time>2026-03-22T12:20:10.36Z</time></trkpt><trkpt lat="43.2608417" lon="11.2868183"><ele>243.0</ele><time>2026-03-22T12:20:11.361Z</time></trkpt><trkpt lat="43.2607283" lon="11.28685"><ele>243.0</ele><time>2026-03-22T12:20:12.361Z</time></trkpt><trkpt lat="43.26062" lon="11.286865"><ele>243.0</ele><time>2026-03-22T12:20:13.361Z</time></trkpt><trkpt lat="43.260535" lon="11.2868633"><ele>243.0</ele><time>2026-03-22T12:20:14.361Z</time></trkpt><trkpt lat="43.2604467" lon="11.2868233"><ele>243.0</ele><time>2026-03-22T12:20:16.361Z</time></trkpt><trkpt lat="43.2604067" lon="11.2867167"><ele>243.0</ele><time>2026-03-22T12:20:48.361Z</time></trkpt><trkpt lat="43.2603167" lon="11.2866233"><ele>243.0</ele><time>2026-03-22T12:20:50.361Z</time></trkpt><trkpt lat="43.2601983" lon="11.286655"><ele>243.0</ele><time>2026-03-22T12:20:52.361Z</time></trkpt><trkpt lat="43.26014" lon="11.2867067"><ele>243.0</ele><time>2026-03-22T12:20:53.361Z</time></trkpt><trkpt lat="43.26009" lon="11.2867617"><ele>243.0</ele><time>2026-03-22T12:20:54.361Z</time></trkpt><trkpt lat="43.260005" lon="11.2868233"><ele>243.0</ele><time>2026-03-22T12:20:56.361Z</time></trkpt><trkpt lat="43.2598833" lon="11.2868283"><ele>243.0</ele><time>2026-03-22T12:20:58.36Z</time></trkpt><trkpt lat="43.259785" lon="11.2868117"><ele>243.0</ele><time>2026-03-22T12:20:59.36Z</time></trkpt><trkpt lat="43.2596667" lon="11.2868217"><ele>243.0</ele><time>2026-03-22T12:21:00.36Z</time></trkpt><trkpt lat="43.2595533" lon="11.2868533"><ele>245.25</ele><time>2026-03-22T12:21:01.361Z</time></trkpt><trkpt lat="43.259445" lon="11.2869067"><ele>247.5</ele><time>2026-03-22T12:21:02.361Z</time></trkpt><trkpt lat="43.2593433" lon="11.28699"><ele>249.75</ele><time>2026-03-22T12:21:03.36Z</time></trkpt><trkpt lat="43.2592533" lon="11.2870933"><ele>252.0</ele><time>2026-03-22T12:21:04.361Z</time></trkpt><trkpt lat="43.2591733" lon="11.2871817"><ele>251.8</ele><time>2026-03-22T12:21:05.36Z</time></trkpt><trkpt lat="43.2590883" lon="11.2872683"><ele>251.6</ele><time>2026-03-22T12:21:06.36Z</time></trkpt><trkpt lat="43.2589983" lon="11.2873483"><ele>251.40000000000003</ele><time>2026-03-22T12:21:07.361Z</time></trkpt><trkpt lat="43.2589383" lon="11.2874"><ele>251.20000000000002</ele><time>2026-03-22T12:21:08.36Z</time></trkpt><trkpt lat="43.2588617" lon="11.2874633"><ele>251.0</ele><time>2026-03-22T12:21:11.361Z</time></trkpt><trkpt lat="43.2587883" lon="11.2875667"><ele>250.8</ele><time>2026-03-22T12:21:13.361Z</time></trkpt><trkpt lat="43.25867" lon="11.2876283"><ele>250.60000000000002</ele><time>2026-03-22T12:21:15.36Z</time></trkpt><trkpt lat="43.2585883" lon="11.2876267"><ele>250.4</ele><time>2026-03-22T12:21:16.361Z</time></trkpt><trkpt lat="43.25849" lon="11.2876133"><ele>250.2</ele><time>2026-03-22T12:21:17.36Z</time></trkpt><trkpt lat="43.25838" lon="11.287575"><ele>250.0</ele><time>2026-03-22T12:21:18.36Z</time></trkpt><trkpt lat="43.25826" lon="11.2875233"><ele>250.0</ele><time>2026-03-22T12:21:19.361Z</time></trkpt><trkpt lat="43.2581567" lon="11.2874883"><ele>250.0</ele><time>2026-03-22T12:21:20.361Z</time></trkpt><trkpt lat="43.25806" lon="11.287465"><ele>250.0</ele><time>2026-03-22T12:21:21.361Z</time></trkpt><trkpt lat="43.2579617" lon="11.28744"><ele>250.0</ele><time>2026-03-22T12:21:22.361Z</time></trkpt><trkpt lat="43.2578733" lon="11.2874167"><ele>250.0</ele><time>2026-03-22T12:21:23.361Z</time></trkpt><trkpt lat="43.2577867" lon="11.287405"><ele>249.16666666666666</ele><time>2026-03-22T12:21:24.361Z</time></trkpt><trkpt lat="43.2577017" lon="11.2873967"><ele>248.33333333333331</ele><time>2026-03-22T12:21:25.36Z</time></trkpt><trkpt lat="43.257615" lon="11.2873933"><ele>247.5</ele><time>2026-03-22T12:21:26.361Z</time></trkpt><trkpt lat="43.25753" lon="11.2873867"><ele>246.66666666666669</ele><time>2026-03-22T12:21:27.361Z</time></trkpt><trkpt lat="43.2574417" lon="11.28738"><ele>245.83333333333334</ele><time>2026-03-22T12:21:28.361Z</time></trkpt><trkpt lat="43.2573567" lon="11.2873833"><ele>245.0</ele><time>2026-03-22T12:21:29.361Z</time></trkpt><trkpt lat="43.2572733" lon="11.2873817"><ele>243.83333333333334</ele><time>2026-03-22T12:21:30.361Z</time></trkpt><trkpt lat="43.2572067" lon="11.2873767"><ele>242.66666666666669</ele><time>2026-03-22T12:21:31.361Z</time></trkpt><trkpt lat="43.25711" lon="11.2873567"><ele>241.5</ele><time>2026-03-22T12:21:33.361Z</time></trkpt><trkpt lat="43.256995" lon="11.2873483"><ele>240.33333333333331</ele><time>2026-03-22T12:21:35.361Z</time></trkpt><trkpt lat="43.2569233" lon="11.2873333"><ele>239.16666666666666</ele><time>2026-03-22T12:21:38.361Z</time></trkpt><trkpt lat="43.25699" lon="11.2874133"><ele>238.0</ele><time>2026-03-22T12:21:50.361Z</time></trkpt><trkpt lat="43.2571" lon="11.28741"><ele>238.0</ele><time>2026-03-22T12:21:52.36Z</time></trkpt><trkpt lat="43.2571833" lon="11.2873967"><ele>238.0</ele><time>2026-03-22T12:21:53.361Z</time></trkpt><trkpt lat="43.2572767" lon="11.2873867"><ele>238.0</ele><time>2026-03-22T12:21:54.36Z</time></trkpt><trkpt lat="43.257385" lon="11.28738"><ele>238.0</ele><time>2026-03-22T12:21:55.361Z</time></trkpt><trkpt lat="43.2575033" lon="11.28738"><ele>238.0</ele><time>2026-03-22T12:21:56.36Z</time></trkpt><trkpt lat="43.2576233" lon="11.28737"><ele>239.75</ele><time>2026-03-22T12:21:57.36Z</time></trkpt><trkpt lat="43.2577317" lon="11.2873667"><ele>241.5</ele><time>2026-03-22T12:21:58.361Z</time></trkpt><trkpt lat="43.2578433" lon="11.2873767"><ele>243.25</ele><time>2026-03-22T12:21:59.361Z</time></trkpt><trkpt lat="43.257965" lon="11.2874167"><ele>245.0</ele><time>2026-03-22T12:22:00.36Z</time></trkpt><trkpt lat="43.2580817" lon="11.2874533"><ele>246.25</ele><time>2026-03-22T12:22:01.361Z</time></trkpt><trkpt lat="43.2582" lon="11.2874867"><ele>247.5</ele><time>2026-03-22T12:22:02.36Z</time></trkpt><trkpt lat="43.2583233" lon="11.287525"><ele>248.75</ele><time>2026-03-22T12:22:03.361Z</time></trkpt><trkpt lat="43.2584433" lon="11.2875667"><ele>250.0</ele><time>2026-03-22T12:22:04.36Z</time></trkpt><trkpt lat="43.258545" lon="11.287595"><ele>250.0</ele><time>2026-03-22T12:22:05.361Z</time></trkpt><trkpt lat="43.2586283" lon="11.28763"><ele>250.0</ele><time>2026-03-22T12:22:06.361Z</time></trkpt><trkpt lat="43.2587017" lon="11.2876633"><ele>250.0</ele><time>2026-03-22T12:22:07.36Z</time></trkpt><trkpt lat="43.258765" lon="11.2876983"><ele>250.0</ele><time>2026-03-22T12:22:08.361Z</time></trkpt><trkpt lat="43.2588283" lon="11.2878033"><ele>250.0</ele><time>2026-03-22T12:22:10.361Z</time></trkpt><trkpt lat="43.2588567" lon="11.2879683"><ele>251.0</ele><time>2026-03-22T12:22:12.361Z</time></trkpt><trkpt lat="43.2587883" lon="11.2880933"><ele>252.0</ele><time>2026-03-22T12:22:14.361Z</time></trkpt><trkpt lat="43.2587" lon="11.2881567"><ele>253.0</ele><time>2026-03-22T12:22:15.361Z</time></trkpt><trkpt lat="43.258575" lon="11.2882217"><ele>254.0</ele><time>2026-03-22T12:22:16.361Z</time></trkpt><trkpt lat="43.2584117" lon="11.2883217"><ele>254.0</ele><time>2026-03-22T12:22:17.361Z</time></trkpt><trkpt lat="43.2583067" lon="11.288415"><ele>254.0</ele><time>2026-03-22T12:22:18.361Z</time></trkpt><trkpt lat="43.258205" lon="11.2885233"><ele>254.0</ele><time>2026-03-22T12:22:19.361Z</time></trkpt><trkpt lat="43.2581117" lon="11.28864"><ele>254.0</ele><time>2026-03-22T12:22:20.36Z</time></trkpt><trkpt lat="43.2580217" lon="11.2887533"><ele>254.25</ele><time>2026-03-22T12:22:21.361Z</time></trkpt><trkpt lat="43.2579383" lon="11.2888783"><ele>254.5</ele><time>2026-03-22T12:22:22.361Z</time></trkpt><trkpt lat="43.2578783" lon="11.2890017"><ele>254.75</ele><time>2026-03-22T12:22:23.361Z</time></trkpt><trkpt lat="43.2578233" lon="11.289135"><ele>255.0</ele><time>2026-03-22T12:22:24.361Z</time></trkpt><trkpt lat="43.2577683" lon="11.2892717"><ele>255.0</ele><time>2026-03-22T12:22:25.361Z</time></trkpt><trkpt lat="43.2577183" lon="11.2894233"><ele>255.0</ele><time>2026-03-22T12:22:26.361Z</time></trkpt><trkpt lat="43.2576767" lon="11.289575"><ele>255.0</ele><time>2026-03-22T12:22:27.361Z</time></trkpt><trkpt lat="43.2576383" lon="11.289725"><ele>255.0</ele><time>2026-03-22T12:22:28.36Z</time></trkpt><trkpt lat="43.2575817" lon="11.2898683"><ele>254.75</ele><time>2026-03-22T12:22:29.361Z</time></trkpt><trkpt lat="43.257515" lon="11.29003"><ele>254.5</ele><time>2026-03-22T12:22:30.361Z</time></trkpt><trkpt lat="43.2574367" lon="11.290155"><ele>254.25</ele><time>2026-03-22T12:22:31.361Z</time></trkpt><trkpt lat="43.2573417" lon="11.2902967"><ele>254.0</ele><time>2026-03-22T12:22:32.361Z</time></trkpt><trkpt lat="43.2572417" lon="11.2904467"><ele>251.33333333333334</ele><time>2026-03-22T12:22:33.361Z</time></trkpt><trkpt lat="43.2571383" lon="11.2905933"><ele>248.66666666666669</ele><time>2026-03-22T12:22:34.36Z</time></trkpt><trkpt lat="43.257025" lon="11.2907333"><ele>246.0</ele><time>2026-03-22T12:22:35.361Z</time></trkpt><trkpt lat="43.2569167" lon="11.2908917"><ele>246.0</ele><time>2026-03-22T12:22:36.361Z</time></trkpt><trkpt lat="43.2568" lon="11.291045"><ele>246.0</ele><time>2026-03-22T12:22:37.361Z</time></trkpt><trkpt lat="43.2566733" lon="11.2911967"><ele>246.0</ele><time>2026-03-22T12:22:38.361Z</time></trkpt><trkpt lat="43.2565567" lon="11.2913517"><ele>246.5</ele><time>2026-03-22T12:22:39.361Z</time></trkpt><trkpt lat="43.2564467" lon="11.2914917"><ele>247.0</ele><time>2026-03-22T12:22:40.36Z</time></trkpt><trkpt lat="43.2563467" lon="11.2916367"><ele>247.5</ele><time>2026-03-22T12:22:41.361Z</time></trkpt><trkpt lat="43.2562417" lon="11.2917617"><ele>248.0</ele><time>2026-03-22T12:22:42.361Z</time></trkpt><trkpt lat="43.2561533" lon="11.2918783"><ele>248.0</ele><time>2026-03-22T12:22:43.361Z</time></trkpt><trkpt lat="43.256065" lon="11.2919683"><ele>248.0</ele><time>2026-03-22T12:22:44.361Z</time></trkpt><trkpt lat="43.255965" lon="11.2920233"><ele>248.0</ele><time>2026-03-22T12:22:45.361Z</time></trkpt><trkpt lat="43.255875" lon="11.2920383"><ele>248.0</ele><time>2026-03-22T12:22:46.361Z</time></trkpt><trkpt lat="43.255755" lon="11.29201"><ele>248.0</ele><time>2026-03-22T12:22:47.36Z</time></trkpt><trkpt lat="43.2556133" lon="11.29198"><ele>246.33333333333334</ele><time>2026-03-22T12:22:48.36Z</time></trkpt><trkpt lat="43.255465" lon="11.2919217"><ele>244.66666666666669</ele><time>2026-03-22T12:22:49.361Z</time></trkpt><trkpt lat="43.2553067" lon="11.2918367"><ele>243.0</ele><time>2026-03-22T12:22:50.361Z</time></trkpt><trkpt lat="43.2551483" lon="11.2917583"><ele>243.0</ele><time>2026-03-22T12:22:51.361Z</time></trkpt><trkpt lat="43.2549967" lon="11.2916933"><ele>243.0</ele><time>2026-03-22T12:22:52.361Z</time></trkpt><trkpt lat="43.2548583" lon="11.291635"><ele>243.0</ele><time>2026-03-22T12:22:53.361Z</time></trkpt><trkpt lat="43.2547217" lon="11.2915917"><ele>243.0</ele><time>2026-03-22T12:22:54.361Z</time></trkpt><trkpt lat="43.2545883" lon="11.291595"><ele>241.66666666666669</ele><time>2026-03-22T12:22:55.36Z</time></trkpt><trkpt lat="43.2544533" lon="11.2916267"><ele>240.33333333333334</ele><time>2026-03-22T12:22:56.361Z</time></trkpt><trkpt lat="43.2543" lon="11.291675"><ele>239.0</ele><time>2026-03-22T12:22:57.361Z</time></trkpt><trkpt lat="43.2541333" lon="11.29174"><ele>239.0</ele><time>2026-03-22T12:22:58.361Z</time></trkpt><trkpt lat="43.2539717" lon="11.2918"><ele>239.0</ele><time>2026-03-22T12:22:59.361Z</time></trkpt><trkpt lat="43.25383" lon="11.2918583"><ele>239.0</ele><time>2026-03-22T12:23:00.361Z</time></trkpt><trkpt lat="43.2536667" lon="11.2919233"><ele>239.0</ele><time>2026-03-22T12:23:01.361Z</time></trkpt><trkpt lat="43.2535033" lon="11.291945"><ele>239.0</ele><time>2026-03-22T12:23:02.361Z</time></trkpt><trkpt lat="43.25333" lon="11.2919667"><ele>239.0</ele><time>2026-03-22T12:23:03.361Z</time></trkpt><trkpt lat="43.2531633" lon="11.2919883"><ele>239.25</ele><time>2026-03-22T12:23:04.361Z</time></trkpt><trkpt lat="43.2529983" lon="11.292015"><ele>239.5</ele><time>2026-03-22T12:23:05.361Z</time></trkpt><trkpt lat="43.25286" lon="11.29204"><ele>239.75</ele><time>2026-03-22T12:23:06.361Z</time></trkpt><trkpt lat="43.252745" lon="11.2920783"><ele>240.0</ele><time>2026-03-22T12:23:07.361Z</time></trkpt><trkpt lat="43.2526633" lon="11.2921083"><ele>240.0</ele><time>2026-03-22T12:23:08.361Z</time></trkpt><trkpt lat="43.2526083" lon="11.2921617"><ele>240.0</ele><time>2026-03-22T12:23:11.361Z</time></trkpt><trkpt lat="43.2526767" lon="11.29221"><ele>240.0</ele><time>2026-03-22T12:23:13.361Z</time></trkpt><trkpt lat="43.2527283" lon="11.2921533"><ele>240.0</ele><time>2026-03-22T12:23:29.361Z</time></trkpt><trkpt lat="43.252795" lon="11.29212"><ele>240.0</ele><time>2026-03-22T12:23:33.361Z</time></trkpt><trkpt lat="43.2528433" lon="11.29221"><ele>240.0</ele><time>2026-03-22T12:23:35.361Z</time></trkpt><trkpt lat="43.25291" lon="11.2923467"><ele>240.0</ele><time>2026-03-22T12:23:37.361Z</time></trkpt><trkpt lat="43.2529433" lon="11.2924333"><ele>240.0</ele><time>2026-03-22T12:23:38.361Z</time></trkpt><trkpt lat="43.252975" lon="11.2925283"><ele>240.0</ele><time>2026-03-22T12:23:39.361Z</time></trkpt><trkpt lat="43.253" lon="11.29261"><ele>240.0</ele><time>2026-03-22T12:23:40.361Z</time></trkpt><trkpt lat="43.2530267" lon="11.2926933"><ele>240.0</ele><time>2026-03-22T12:23:41.36Z</time></trkpt><trkpt lat="43.2530383" lon="11.2928567"><ele>240.0</ele><time>2026-03-22T12:23:43.361Z</time></trkpt><trkpt lat="43.25304" lon="11.2929433"><ele>238.83333333333334</ele><time>2026-03-22T12:23:44.361Z</time></trkpt><trkpt lat="43.2530417" lon="11.2931133"><ele>237.66666666666669</ele><time>2026-03-22T12:23:46.361Z</time></trkpt><trkpt lat="43.25305" lon="11.2932133"><ele>236.5</ele><time>2026-03-22T12:23:47.361Z</time></trkpt><trkpt lat="43.2530617" lon="11.2933183"><ele>235.33333333333334</ele><time>2026-03-22T12:23:48.36Z</time></trkpt><trkpt lat="43.2530717" lon="11.293405"><ele>234.16666666666669</ele><time>2026-03-22T12:23:49.361Z</time></trkpt><trkpt lat="43.2530783" lon="11.29352"><ele>233.0</ele><time>2026-03-22T12:23:50.361Z</time></trkpt><trkpt lat="43.25308" lon="11.2936467"><ele>233.0</ele><time>2026-03-22T12:23:51.361Z</time></trkpt><trkpt lat="43.253085" lon="11.2937683"><ele>233.0</ele><time>2026-03-22T12:23:52.36Z</time></trkpt><trkpt lat="43.25309" lon="11.293905"><ele>233.0</ele><time>2026-03-22T12:23:53.36Z</time></trkpt><trkpt lat="43.2530883" lon="11.2940383"><ele>233.0</ele><time>2026-03-22T12:23:54.361Z</time></trkpt><trkpt lat="43.2530733" lon="11.2941683"><ele>233.0</ele><time>2026-03-22T12:23:55.36Z</time></trkpt><trkpt lat="43.25306" lon="11.2942917"><ele>232.66666666666669</ele><time>2026-03-22T12:23:56.361Z</time></trkpt><trkpt lat="43.2530383" lon="11.2944083"><ele>232.33333333333334</ele><time>2026-03-22T12:23:57.361Z</time></trkpt><trkpt lat="43.25302" lon="11.29451"><ele>232.0</ele><time>2026-03-22T12:23:58.361Z</time></trkpt><trkpt lat="43.2529917" lon="11.294635"><ele>231.66666666666669</ele><time>2026-03-22T12:23:59.361Z</time></trkpt><trkpt lat="43.2529767" lon="11.2947633"><ele>231.33333333333334</ele><time>2026-03-22T12:24:00.361Z</time></trkpt><trkpt lat="43.2529733" lon="11.2948933"><ele>231.0</ele><time>2026-03-22T12:24:01.36Z</time></trkpt><trkpt lat="43.2529683" lon="11.2950383"><ele>231.0</ele><time>2026-03-22T12:24:02.361Z</time></trkpt><trkpt lat="43.2529667" lon="11.2951917"><ele>231.00000000000003</ele><time>2026-03-22T12:24:03.361Z</time></trkpt><trkpt lat="43.252975" lon="11.295345"><ele>231.00000000000003</ele><time>2026-03-22T12:24:04.361Z</time></trkpt><trkpt lat="43.25299" lon="11.2954867"><ele>231.0</ele><time>2026-03-22T12:24:05.361Z</time></trkpt><trkpt lat="43.25301" lon="11.2956083"><ele>231.0</ele><time>2026-03-22T12:24:06.361Z</time></trkpt><trkpt lat="43.2530217" lon="11.295735"><ele>230.60000000000002</ele><time>2026-03-22T12:24:07.361Z</time></trkpt><trkpt lat="43.253025" lon="11.2958567"><ele>230.20000000000002</ele><time>2026-03-22T12:24:08.361Z</time></trkpt><trkpt lat="43.2530267" lon="11.2959867"><ele>229.79999999999998</ele><time>2026-03-22T12:24:09.361Z</time></trkpt><trkpt lat="43.253035" lon="11.296125"><ele>229.39999999999998</ele><time>2026-03-22T12:24:10.361Z</time></trkpt><trkpt lat="43.2530333" lon="11.29627"><ele>229.0</ele><time>2026-03-22T12:24:11.361Z</time></trkpt><trkpt lat="43.2530333" lon="11.2964117"><ele>229.39999999999998</ele><time>2026-03-22T12:24:12.361Z</time></trkpt><trkpt lat="43.2530533" lon="11.29656"><ele>229.79999999999998</ele><time>2026-03-22T12:24:13.361Z</time></trkpt><trkpt lat="43.2530617" lon="11.2967233"><ele>230.20000000000002</ele><time>2026-03-22T12:24:14.36Z</time></trkpt><trkpt lat="43.2530683" lon="11.2968833"><ele>230.60000000000002</ele><time>2026-03-22T12:24:15.361Z</time></trkpt><trkpt lat="43.25308" lon="11.2970217"><ele>231.0</ele><time>2026-03-22T12:24:16.36Z</time></trkpt><trkpt lat="43.2530767" lon="11.2971433"><ele>231.20000000000002</ele><time>2026-03-22T12:24:17.361Z</time></trkpt><trkpt lat="43.2530733" lon="11.2972733"><ele>231.40000000000003</ele><time>2026-03-22T12:24:18.36Z</time></trkpt><trkpt lat="43.253065" lon="11.2974033"><ele>231.6</ele><time>2026-03-22T12:24:19.361Z</time></trkpt><trkpt lat="43.2530517" lon="11.2975383"><ele>231.8</ele><time>2026-03-22T12:24:20.361Z</time></trkpt><trkpt lat="43.2530233" lon="11.2976817"><ele>232.0</ele><time>2026-03-22T12:24:21.361Z</time></trkpt><trkpt lat="43.2529817" lon="11.297825"><ele>232.0</ele><time>2026-03-22T12:24:22.361Z</time></trkpt><trkpt lat="43.2529467" lon="11.2979683"><ele>232.0</ele><time>2026-03-22T12:24:23.361Z</time></trkpt><trkpt lat="43.2529067" lon="11.29811"><ele>232.0</ele><time>2026-03-22T12:24:24.361Z</time></trkpt><trkpt lat="43.2528883" lon="11.29823"><ele>232.0</ele><time>2026-03-22T12:24:25.361Z</time></trkpt><trkpt lat="43.252855" lon="11.2983217"><ele>232.0</ele><time>2026-03-22T12:24:26.36Z</time></trkpt><trkpt lat="43.2528333" lon="11.298435"><ele>232.39999999999998</ele><time>2026-03-22T12:24:28.36Z</time></trkpt><trkpt lat="43.2527267" lon="11.2984817"><ele>232.79999999999998</ele><time>2026-03-22T12:24:31.361Z</time></trkpt><trkpt lat="43.2526233" lon="11.2985083"><ele>233.2</ele><time>2026-03-22T12:24:33.36Z</time></trkpt><trkpt lat="43.2525617" lon="11.2985933"><ele>233.6</ele><time>2026-03-22T12:24:35.36Z</time></trkpt><trkpt lat="43.2525483" lon="11.2987467"><ele>234.0</ele><time>2026-03-22T12:24:37.361Z</time></trkpt><trkpt lat="43.2525483" lon="11.298835"><ele>233.5</ele><time>2026-03-22T12:24:38.361Z</time></trkpt><trkpt lat="43.252545" lon="11.2989417"><ele>233.0</ele><time>2026-03-22T12:24:39.361Z</time></trkpt><trkpt lat="43.25254" lon="11.2990583"><ele>232.5</ele><time>2026-03-22T12:24:40.36Z</time></trkpt><trkpt lat="43.2525333" lon="11.299165"><ele>232.0</ele><time>2026-03-22T12:24:41.361Z</time></trkpt><trkpt lat="43.2525217" lon="11.2992833"><ele>231.5</ele><time>2026-03-22T12:24:42.36Z</time></trkpt><trkpt lat="43.2525083" lon="11.2994067"><ele>231.0</ele><time>2026-03-22T12:24:43.361Z</time></trkpt><trkpt lat="43.2524983" lon="11.2995117"><ele>231.0</ele><time>2026-03-22T12:24:44.361Z</time></trkpt><trkpt lat="43.2525067" lon="11.2996117"><ele>231.0</ele><time>2026-03-22T12:24:45.36Z</time></trkpt><trkpt lat="43.2525033" lon="11.2997033"><ele>231.0</ele><time>2026-03-22T12:24:46.361Z</time></trkpt><trkpt lat="43.25249" lon="11.2997983"><ele>231.0</ele><time>2026-03-22T12:24:47.361Z</time></trkpt><trkpt lat="43.2524683" lon="11.29989"><ele>231.0</ele><time>2026-03-22T12:24:48.36Z</time></trkpt><trkpt lat="43.252435" lon="11.299985"><ele>231.0</ele><time>2026-03-22T12:24:49.361Z</time></trkpt><trkpt lat="43.2524017" lon="11.3000917"><ele>231.0</ele><time>2026-03-22T12:24:50.361Z</time></trkpt><trkpt lat="43.2523567" lon="11.3002083"><ele>229.20000000000002</ele><time>2026-03-22T12:24:51.361Z</time></trkpt><trkpt lat="43.2523067" lon="11.3003267"><ele>227.40000000000003</ele><time>2026-03-22T12:24:52.361Z</time></trkpt><trkpt lat="43.2522517" lon="11.3004467"><ele>225.6</ele><time>2026-03-22T12:24:53.361Z</time></trkpt><trkpt lat="43.2521983" lon="11.3005417"><ele>223.8</ele><time>2026-03-22T12:24:54.36Z</time></trkpt><trkpt lat="43.25214" lon="11.3006367"><ele>222.0</ele><time>2026-03-22T12:24:55.361Z</time></trkpt><trkpt lat="43.2520817" lon="11.3007167"><ele>220.85714285714286</ele><time>2026-03-22T12:24:56.36Z</time></trkpt><trkpt lat="43.252035" lon="11.300785"><ele>219.71428571428572</ele><time>2026-03-22T12:24:57.361Z</time></trkpt><trkpt lat="43.25198" lon="11.3008517"><ele>218.57142857142858</ele><time>2026-03-22T12:24:58.361Z</time></trkpt><trkpt lat="43.2519233" lon="11.3009133"><ele>217.42857142857144</ele><time>2026-03-22T12:24:59.361Z</time></trkpt><trkpt lat="43.2518667" lon="11.3009733"><ele>216.28571428571428</ele><time>2026-03-22T12:25:00.361Z</time></trkpt><trkpt lat="43.2518033" lon="11.3010317"><ele>215.14285714285717</ele><time>2026-03-22T12:25:01.361Z</time></trkpt><trkpt lat="43.2517367" lon="11.3011017"><ele>214.0</ele><time>2026-03-22T12:25:02.361Z</time></trkpt><trkpt lat="43.251675" lon="11.3011667"><ele>214.00000000000003</ele><time>2026-03-22T12:25:03.361Z</time></trkpt><trkpt lat="43.2516183" lon="11.3012367"><ele>214.0</ele><time>2026-03-22T12:25:04.361Z</time></trkpt><trkpt lat="43.25157" lon="11.30131"><ele>214.0</ele><time>2026-03-22T12:25:05.361Z</time></trkpt><trkpt lat="43.2515233" lon="11.3013733"><ele>214.0</ele><time>2026-03-22T12:25:06.361Z</time></trkpt><trkpt lat="43.2514817" lon="11.3014467"><ele>214.0</ele><time>2026-03-22T12:25:07.36Z</time></trkpt><trkpt lat="43.2514383" lon="11.30151"><ele>214.00000000000003</ele><time>2026-03-22T12:25:08.361Z</time></trkpt><trkpt lat="43.2513967" lon="11.30158"><ele>214.0</ele><time>2026-03-22T12:25:09.361Z</time></trkpt><trkpt lat="43.2513533" lon="11.3016583"><ele>212.79999999999998</ele><time>2026-03-22T12:25:10.361Z</time></trkpt><trkpt lat="43.251285" lon="11.3017783"><ele>211.59999999999997</ele><time>2026-03-22T12:25:12.36Z</time></trkpt><trkpt lat="43.2512333" lon="11.3018533"><ele>210.4</ele><time>2026-03-22T12:25:14.361Z</time></trkpt><trkpt lat="43.2511367" lon="11.3019"><ele>209.2</ele><time>2026-03-22T12:25:16.36Z</time></trkpt><trkpt lat="43.2510267" lon="11.30194"><ele>208.0</ele><time>2026-03-22T12:25:18.361Z</time></trkpt><trkpt lat="43.250985" lon="11.3020067"><ele>208.0</ele><time>2026-03-22T12:25:20.36Z</time></trkpt><trkpt lat="43.2509717" lon="11.3021017"><ele>208.0</ele><time>2026-03-22T12:25:22.361Z</time></trkpt><trkpt lat="43.2509517" lon="11.30224"><ele>208.0</ele><time>2026-03-22T12:25:24.36Z</time></trkpt><trkpt lat="43.2509567" lon="11.30242"><ele>208.0</ele><time>2026-03-22T12:25:26.36Z</time></trkpt><trkpt lat="43.2509817" lon="11.3025333"><ele>208.0</ele><time>2026-03-22T12:25:27.361Z</time></trkpt><trkpt lat="43.2510033" lon="11.3026367"><ele>207.99999999999997</ele><time>2026-03-22T12:25:28.36Z</time></trkpt><trkpt lat="43.2510317" lon="11.3027367"><ele>208.0</ele><time>2026-03-22T12:25:29.361Z</time></trkpt><trkpt lat="43.251045" lon="11.30283"><ele>208.0</ele><time>2026-03-22T12:25:30.36Z</time></trkpt><trkpt lat="43.25106" lon="11.302925"><ele>208.0</ele><time>2026-03-22T12:25:31.36Z</time></trkpt><trkpt lat="43.25108" lon="11.3030183"><ele>207.99999999999997</ele><time>2026-03-22T12:25:32.361Z</time></trkpt><trkpt lat="43.2511067" lon="11.30312"><ele>208.0</ele><time>2026-03-22T12:25:33.361Z</time></trkpt><trkpt lat="43.2511433" lon="11.3032217"><ele>207.60000000000002</ele><time>2026-03-22T12:25:34.361Z</time></trkpt><trkpt lat="43.2511717" lon="11.3033117"><ele>207.20000000000002</ele><time>2026-03-22T12:25:35.361Z</time></trkpt><trkpt lat="43.25121" lon="11.30344"><ele>206.8</ele><time>2026-03-22T12:25:37.361Z</time></trkpt><trkpt lat="43.2511667" lon="11.3035217"><ele>206.4</ele><time>2026-03-22T12:26:13.361Z</time></trkpt><trkpt lat="43.2510417" lon="11.3035"><ele>206.0</ele><time>2026-03-22T12:26:15.361Z</time></trkpt><trkpt lat="43.2509467" lon="11.303475"><ele>206.00000000000003</ele><time>2026-03-22T12:26:16.361Z</time></trkpt><trkpt lat="43.2508567" lon="11.3034317"><ele>206.0</ele><time>2026-03-22T12:26:17.361Z</time></trkpt><trkpt lat="43.2507883" lon="11.3033633"><ele>206.0</ele><time>2026-03-22T12:26:18.36Z</time></trkpt><trkpt lat="43.2507333" lon="11.3033033"><ele>206.0</ele><time>2026-03-22T12:26:19.361Z</time></trkpt><trkpt lat="43.2506967" lon="11.303225"><ele>206.00000000000003</ele><time>2026-03-22T12:26:20.36Z</time></trkpt><trkpt lat="43.2506683" lon="11.303115"><ele>206.0</ele><time>2026-03-22T12:26:21.36Z</time></trkpt><trkpt lat="43.2506467" lon="11.3029783"><ele>207.25</ele><time>2026-03-22T12:26:22.361Z</time></trkpt><trkpt lat="43.2506167" lon="11.3028083"><ele>208.5</ele><time>2026-03-22T12:26:23.361Z</time></trkpt><trkpt lat="43.250575" lon="11.3026317"><ele>209.75</ele><time>2026-03-22T12:26:24.36Z</time></trkpt><trkpt lat="43.25053" lon="11.30242"><ele>211.0</ele><time>2026-03-22T12:26:25.361Z</time></trkpt><trkpt lat="43.25048" lon="11.3021933"><ele>211.0</ele><time>2026-03-22T12:26:26.361Z</time></trkpt><trkpt lat="43.250435" lon="11.30194"><ele>211.0</ele><time>2026-03-22T12:26:27.361Z</time></trkpt><trkpt lat="43.2503817" lon="11.3016717"><ele>211.0</ele><time>2026-03-22T12:26:28.361Z</time></trkpt><trkpt lat="43.2503217" lon="11.3013983"><ele>211.0</ele><time>2026-03-22T12:26:29.36Z</time></trkpt><trkpt lat="43.2502583" lon="11.3011067"><ele>211.0</ele><time>2026-03-22T12:26:30.361Z</time></trkpt><trkpt lat="43.2501867" lon="11.3008167"><ele>211.0</ele><time>2026-03-22T12:26:31.361Z</time></trkpt><trkpt lat="43.250115" lon="11.3005083"><ele>210.0</ele><time>2026-03-22T12:26:32.361Z</time></trkpt><trkpt lat="43.25004" lon="11.30018"><ele>209.0</ele><time>2026-03-22T12:26:33.36Z</time></trkpt><trkpt lat="43.2499617" lon="11.299865"><ele>210.0</ele><time>2026-03-22T12:26:34.361Z</time></trkpt><trkpt lat="43.249885" lon="11.29953"><ele>211.0</ele><time>2026-03-22T12:26:35.36Z</time></trkpt><trkpt lat="43.249805" lon="11.2992067"><ele>212.0</ele><time>2026-03-22T12:26:36.36Z</time></trkpt><trkpt lat="43.249715" lon="11.2988833"><ele>213.0</ele><time>2026-03-22T12:26:37.361Z</time></trkpt><trkpt lat="43.249615" lon="11.29857"><ele>213.0</ele><time>2026-03-22T12:26:38.361Z</time></trkpt><trkpt lat="43.2495133" lon="11.29826"><ele>213.0</ele><time>2026-03-22T12:26:39.361Z</time></trkpt><trkpt lat="43.249415" lon="11.2979467"><ele>212.0</ele><time>2026-03-22T12:26:40.361Z</time></trkpt><trkpt lat="43.2493167" lon="11.297625"><ele>211.0</ele><time>2026-03-22T12:26:41.361Z</time></trkpt><trkpt lat="43.24922" lon="11.2973083"><ele>211.5</ele><time>2026-03-22T12:26:42.361Z</time></trkpt><trkpt lat="43.249115" lon="11.2969883"><ele>212.0</ele><time>2026-03-22T12:26:43.36Z</time></trkpt><trkpt lat="43.2490117" lon="11.2966533"><ele>214.0</ele><time>2026-03-22T12:26:44.361Z</time></trkpt><trkpt lat="43.2489" lon="11.29632"><ele>216.0</ele><time>2026-03-22T12:26:45.361Z</time></trkpt><trkpt lat="43.248795" lon="11.2960067"><ele>216.0</ele><time>2026-03-22T12:26:46.361Z</time></trkpt><trkpt lat="43.24869" lon="11.2956817"><ele>216.0</ele><time>2026-03-22T12:26:47.361Z</time></trkpt><trkpt lat="43.24859" lon="11.29538"><ele>217.5</ele><time>2026-03-22T12:26:48.361Z</time></trkpt><trkpt lat="43.2484967" lon="11.2950667"><ele>219.0</ele><time>2026-03-22T12:26:49.361Z</time></trkpt><trkpt lat="43.2484067" lon="11.2947417"><ele>224.0</ele><time>2026-03-22T12:26:50.361Z</time></trkpt><trkpt lat="43.2483033" lon="11.2944233"><ele>229.0</ele><time>2026-03-22T12:26:51.36Z</time></trkpt><trkpt lat="43.248205" lon="11.294115"><ele>234.0</ele><time>2026-03-22T12:26:52.361Z</time></trkpt><trkpt lat="43.2480817" lon="11.2938083"><ele>239.0</ele><time>2026-03-22T12:26:53.36Z</time></trkpt><trkpt lat="43.2479717" lon="11.2934933"><ele>239.0</ele><time>2026-03-22T12:26:54.361Z</time></trkpt><trkpt lat="43.2478717" lon="11.29317"><ele>239.0</ele><time>2026-03-22T12:26:55.361Z</time></trkpt><trkpt lat="43.24776" lon="11.29287"><ele>239.5</ele><time>2026-03-22T12:26:56.361Z</time></trkpt><trkpt lat="43.2476083" lon="11.2926217"><ele>240.0</ele><time>2026-03-22T12:26:57.36Z</time></trkpt><trkpt lat="43.2474883" lon="11.29233"><ele>237.0</ele><time>2026-03-22T12:26:58.361Z</time></trkpt><trkpt lat="43.2473617" lon="11.2920483"><ele>234.0</ele><time>2026-03-22T12:26:59.361Z</time></trkpt><trkpt lat="43.24723" lon="11.291775"><ele>233.0</ele><time>2026-03-22T12:27:00.36Z</time></trkpt><trkpt lat="43.247095" lon="11.291495"><ele>232.0</ele><time>2026-03-22T12:27:01.361Z</time></trkpt><trkpt lat="43.246955" lon="11.2912183"><ele>228.5</ele><time>2026-03-22T12:27:02.361Z</time></trkpt><trkpt lat="43.24682" lon="11.29093"><ele>225.0</ele><time>2026-03-22T12:27:03.36Z</time></trkpt><trkpt lat="43.246685" lon="11.290645"><ele>222.5</ele><time>2026-03-22T12:27:04.361Z</time></trkpt><trkpt lat="43.246505" lon="11.2904083"><ele>220.0</ele><time>2026-03-22T12:27:05.36Z</time></trkpt><trkpt lat="43.2462417" lon="11.2902633"><ele>218.5</ele><time>2026-03-22T12:27:06.36Z</time></trkpt><trkpt lat="43.246045" lon="11.2900367"><ele>217.0</ele><time>2026-03-22T12:27:07.36Z</time></trkpt><trkpt lat="43.2458883" lon="11.289775"><ele>220.0</ele><time>2026-03-22T12:27:08.361Z</time></trkpt><trkpt lat="43.2456983" lon="11.289505"><ele>223.0</ele><time>2026-03-22T12:27:09.361Z</time></trkpt><trkpt lat="43.245535" lon="11.2892467"><ele>226.0</ele><time>2026-03-22T12:27:10.361Z</time></trkpt><trkpt lat="43.2453733" lon="11.2889833"><ele>229.0</ele><time>2026-03-22T12:27:11.36Z</time></trkpt><trkpt lat="43.2452267" lon="11.2887283"><ele>232.0</ele><time>2026-03-22T12:27:12.361Z</time></trkpt><trkpt lat="43.245085" lon="11.28847"><ele>235.0</ele><time>2026-03-22T12:27:13.361Z</time></trkpt><trkpt lat="43.244945" lon="11.28821"><ele>235.0</ele><time>2026-03-22T12:27:14.36Z</time></trkpt><trkpt lat="43.244805" lon="11.28795"><ele>235.0</ele><time>2026-03-22T12:27:15.361Z</time></trkpt><trkpt lat="43.24466" lon="11.287685"><ele>232.0</ele><time>2026-03-22T12:27:16.361Z</time></trkpt><trkpt lat="43.244515" lon="11.2874183"><ele>229.0</ele><time>2026-03-22T12:27:17.361Z</time></trkpt><trkpt lat="43.243765" lon="11.2861783"><ele>220.0</ele><time>2026-03-22T12:27:22.344Z</time></trkpt><trkpt lat="43.2435917" lon="11.2858517"><ele>211.0</ele><time>2026-03-22T12:27:23.345Z</time></trkpt><trkpt lat="43.2434667" lon="11.2855233"><ele>209.5</ele><time>2026-03-22T12:27:24.344Z</time></trkpt><trkpt lat="43.2433417" lon="11.285245"><ele>208.0</ele><time>2026-03-22T12:27:25.345Z</time></trkpt><trkpt lat="43.2431983" lon="11.284975"><ele>204.5</ele><time>2026-03-22T12:27:26.345Z</time></trkpt><trkpt lat="43.2430483" lon="11.2847033"><ele>201.0</ele><time>2026-03-22T12:27:27.345Z</time></trkpt><trkpt lat="43.2428967" lon="11.2844367"><ele>201.0</ele><time>2026-03-22T12:27:28.345Z</time></trkpt><trkpt lat="43.24274" lon="11.28417"><ele>201.0</ele><time>2026-03-22T12:27:29.345Z</time></trkpt><trkpt lat="43.2425883" lon="11.2838983"><ele>200.5</ele><time>2026-03-22T12:27:30.345Z</time></trkpt><trkpt lat="43.24245" lon="11.283625"><ele>200.0</ele><time>2026-03-22T12:27:31.345Z</time></trkpt><trkpt lat="43.242305" lon="11.28335"><ele>199.0</ele><time>2026-03-22T12:27:32.345Z</time></trkpt><trkpt lat="43.2421517" lon="11.2831017"><ele>198.0</ele><time>2026-03-22T12:27:33.345Z</time></trkpt><trkpt lat="43.242005" lon="11.2828633"><ele>196.5</ele><time>2026-03-22T12:27:34.345Z</time></trkpt><trkpt lat="43.241845" lon="11.2826167"><ele>195.0</ele><time>2026-03-22T12:27:35.345Z</time></trkpt><trkpt lat="43.2416767" lon="11.2823817"><ele>194.5</ele><time>2026-03-22T12:27:36.344Z</time></trkpt><trkpt lat="43.2414967" lon="11.2821567"><ele>194.0</ele><time>2026-03-22T12:27:37.344Z</time></trkpt><trkpt lat="43.2413233" lon="11.281925"><ele>193.0</ele><time>2026-03-22T12:27:38.344Z</time></trkpt><trkpt lat="43.241155" lon="11.2816833"><ele>192.0</ele><time>2026-03-22T12:27:39.345Z</time></trkpt><trkpt lat="43.2409567" lon="11.28147"><ele>191.5</ele><time>2026-03-22T12:27:40.345Z</time></trkpt><trkpt lat="43.2407517" lon="11.2812833"><ele>191.0</ele><time>2026-03-22T12:27:41.345Z</time></trkpt><trkpt lat="43.24054" lon="11.281085"><ele>190.5</ele><time>2026-03-22T12:27:42.345Z</time></trkpt><trkpt lat="43.240335" lon="11.2809083"><ele>190.0</ele><time>2026-03-22T12:27:43.345Z</time></trkpt><trkpt lat="43.2401217" lon="11.28073"><ele>189.5</ele><time>2026-03-22T12:27:44.345Z</time></trkpt><trkpt lat="43.2399033" lon="11.2805633"><ele>189.0</ele><time>2026-03-22T12:27:45.345Z</time></trkpt><trkpt lat="43.2396783" lon="11.280405"><ele>188.5</ele><time>2026-03-22T12:27:46.345Z</time></trkpt><trkpt lat="43.2394483" lon="11.2802533"><ele>188.0</ele><time>2026-03-22T12:27:47.344Z</time></trkpt><trkpt lat="43.2392183" lon="11.2801133"><ele>188.0</ele><time>2026-03-22T12:27:48.345Z</time></trkpt><trkpt lat="43.2389867" lon="11.2799817"><ele>188.0</ele><time>2026-03-22T12:27:49.345Z</time></trkpt><trkpt lat="43.2387667" lon="11.2798533"><ele>187.0</ele><time>2026-03-22T12:27:50.345Z</time></trkpt><trkpt lat="43.23853" lon="11.2797333"><ele>186.0</ele><time>2026-03-22T12:27:51.345Z</time></trkpt><trkpt lat="43.238295" lon="11.27961"><ele>186.5</ele><time>2026-03-22T12:27:52.344Z</time></trkpt><trkpt lat="43.2380717" lon="11.27948"><ele>187.0</ele><time>2026-03-22T12:27:53.345Z</time></trkpt><trkpt lat="43.237845" lon="11.279365"><ele>187.0</ele><time>2026-03-22T12:27:54.344Z</time></trkpt><trkpt lat="43.23762" lon="11.2792317"><ele>187.0</ele><time>2026-03-22T12:27:55.345Z</time></trkpt><trkpt lat="43.23739" lon="11.27909"><ele>187.0</ele><time>2026-03-22T12:27:56.344Z</time></trkpt><trkpt lat="43.2371733" lon="11.2789633"><ele>187.0</ele><time>2026-03-22T12:27:57.344Z</time></trkpt><trkpt lat="43.236965" lon="11.278835"><ele>187.0</ele><time>2026-03-22T12:27:58.345Z</time></trkpt><trkpt lat="43.2367567" lon="11.2787083"><ele>187.0</ele><time>2026-03-22T12:27:59.345Z</time></trkpt><trkpt lat="43.2365383" lon="11.27859"><ele>188.5</ele><time>2026-03-22T12:28:00.344Z</time></trkpt><trkpt lat="43.236325" lon="11.2784617"><ele>190.0</ele><time>2026-03-22T12:28:01.345Z</time></trkpt><trkpt lat="43.236105" lon="11.2783467"><ele>190.0</ele><time>2026-03-22T12:28:02.345Z</time></trkpt><trkpt lat="43.2358967" lon="11.2782267"><ele>190.0</ele><time>2026-03-22T12:28:03.345Z</time></trkpt><trkpt lat="43.2356833" lon="11.2781067"><ele>189.5</ele><time>2026-03-22T12:28:04.345Z</time></trkpt><trkpt lat="43.235465" lon="11.2779883"><ele>189.0</ele><time>2026-03-22T12:28:05.345Z</time></trkpt><trkpt lat="43.2352517" lon="11.2778683"><ele>189.0</ele><time>2026-03-22T12:28:06.345Z</time></trkpt><trkpt lat="43.2350467" lon="11.2777433"><ele>189.0</ele><time>2026-03-22T12:28:07.344Z</time></trkpt><trkpt lat="43.23484" lon="11.2776267"><ele>189.0</ele><time>2026-03-22T12:28:08.344Z</time></trkpt><trkpt lat="43.2346267" lon="11.27751"><ele>189.0</ele><time>2026-03-22T12:28:09.346Z</time></trkpt><trkpt lat="43.2344117" lon="11.27741"><ele>189.0</ele><time>2026-03-22T12:28:10.346Z</time></trkpt><trkpt lat="43.23419" lon="11.2772967"><ele>187.5</ele><time>2026-03-22T12:28:11.346Z</time></trkpt><trkpt lat="43.2339683" lon="11.2772033"><ele>186.0</ele><time>2026-03-22T12:28:12.346Z</time></trkpt><trkpt lat="43.23375" lon="11.2771033"><ele>186.0</ele><time>2026-03-22T12:28:13.346Z</time></trkpt><trkpt lat="43.23353" lon="11.27701"><ele>186.0</ele><time>2026-03-22T12:28:14.346Z</time></trkpt><trkpt lat="43.2333133" lon="11.27692"><ele>186.66666666666666</ele><time>2026-03-22T12:28:15.346Z</time></trkpt><trkpt lat="43.2330983" lon="11.2768417"><ele>187.33333333333331</ele><time>2026-03-22T12:28:16.345Z</time></trkpt><trkpt lat="43.2328783" lon="11.276765"><ele>188.0</ele><time>2026-03-22T12:28:17.346Z</time></trkpt><trkpt lat="43.2326617" lon="11.2766967"><ele>188.0</ele><time>2026-03-22T12:28:18.346Z</time></trkpt><trkpt lat="43.2324467" lon="11.276625"><ele>188.0</ele><time>2026-03-22T12:28:19.346Z</time></trkpt><trkpt lat="43.2322333" lon="11.27656"><ele>188.0</ele><time>2026-03-22T12:28:20.346Z</time></trkpt><trkpt lat="43.232015" lon="11.2764817"><ele>188.33333333333331</ele><time>2026-03-22T12:28:21.346Z</time></trkpt><trkpt lat="43.2318033" lon="11.276405"><ele>188.66666666666666</ele><time>2026-03-22T12:28:22.345Z</time></trkpt><trkpt lat="43.2316083" lon="11.2763467"><ele>189.0</ele><time>2026-03-22T12:28:23.345Z</time></trkpt><trkpt lat="43.2314267" lon="11.276285"><ele>189.66666666666666</ele><time>2026-03-22T12:28:24.346Z</time></trkpt><trkpt lat="43.2312267" lon="11.2762217"><ele>190.33333333333331</ele><time>2026-03-22T12:28:25.346Z</time></trkpt><trkpt lat="43.2310233" lon="11.2761617"><ele>191.0</ele><time>2026-03-22T12:28:26.346Z</time></trkpt><trkpt lat="43.230815" lon="11.2760917"><ele>191.0</ele><time>2026-03-22T12:28:27.346Z</time></trkpt><trkpt lat="43.230605" lon="11.276015"><ele>191.0</ele><time>2026-03-22T12:28:28.345Z</time></trkpt><trkpt lat="43.2304017" lon="11.27594"><ele>191.0</ele><time>2026-03-22T12:28:29.346Z</time></trkpt><trkpt lat="43.2301933" lon="11.2758667"><ele>191.0</ele><time>2026-03-22T12:28:30.346Z</time></trkpt><trkpt lat="43.22999" lon="11.2757933"><ele>191.0</ele><time>2026-03-22T12:28:31.346Z</time></trkpt><trkpt lat="43.22979" lon="11.2757233"><ele>191.0</ele><time>2026-03-22T12:28:32.346Z</time></trkpt><trkpt lat="43.2295917" lon="11.27566"><ele>191.0</ele><time>2026-03-22T12:28:33.345Z</time></trkpt><trkpt lat="43.2294017" lon="11.2756067"><ele>191.0</ele><time>2026-03-22T12:28:34.346Z</time></trkpt><trkpt lat="43.229215" lon="11.27555"><ele>191.0</ele><time>2026-03-22T12:28:35.346Z</time></trkpt><trkpt lat="43.2290367" lon="11.275495"><ele>191.66666666666666</ele><time>2026-03-22T12:28:36.346Z</time></trkpt><trkpt lat="43.22886" lon="11.275425"><ele>192.33333333333331</ele><time>2026-03-22T12:28:37.346Z</time></trkpt><trkpt lat="43.22867" lon="11.2753567"><ele>193.0</ele><time>2026-03-22T12:28:38.346Z</time></trkpt><trkpt lat="43.2284867" lon="11.27528"><ele>193.0</ele><time>2026-03-22T12:28:39.345Z</time></trkpt><trkpt lat="43.2282933" lon="11.27522"><ele>193.0</ele><time>2026-03-22T12:28:40.346Z</time></trkpt><trkpt lat="43.2281" lon="11.2751617"><ele>193.0</ele><time>2026-03-22T12:28:41.346Z</time></trkpt><trkpt lat="43.22791" lon="11.2751"><ele>192.33333333333331</ele><time>2026-03-22T12:28:42.346Z</time></trkpt><trkpt lat="43.2277117" lon="11.275035"><ele>191.66666666666666</ele><time>2026-03-22T12:28:43.346Z</time></trkpt><trkpt lat="43.2275167" lon="11.274965"><ele>191.0</ele><time>2026-03-22T12:28:44.345Z</time></trkpt><trkpt lat="43.2273267" lon="11.274905"><ele>191.0</ele><time>2026-03-22T12:28:45.346Z</time></trkpt><trkpt lat="43.2271267" lon="11.2748433"><ele>191.0</ele><time>2026-03-22T12:28:46.346Z</time></trkpt><trkpt lat="43.226935" lon="11.27478"><ele>191.0</ele><time>2026-03-22T12:28:47.346Z</time></trkpt><trkpt lat="43.2267417" lon="11.2746983"><ele>191.0</ele><time>2026-03-22T12:28:48.345Z</time></trkpt><trkpt lat="43.2265417" lon="11.27462"><ele>191.0</ele><time>2026-03-22T12:28:49.346Z</time></trkpt><trkpt lat="43.2263467" lon="11.2745467"><ele>191.0</ele><time>2026-03-22T12:28:50.346Z</time></trkpt><trkpt lat="43.2261417" lon="11.2744833"><ele>191.0</ele><time>2026-03-22T12:28:51.345Z</time></trkpt><trkpt lat="43.2259367" lon="11.2744167"><ele>191.0</ele><time>2026-03-22T12:28:52.346Z</time></trkpt><trkpt lat="43.225735" lon="11.2743467"><ele>191.0</ele><time>2026-03-22T12:28:53.346Z</time></trkpt><trkpt lat="43.2255383" lon="11.2742667"><ele>191.66666666666666</ele><time>2026-03-22T12:28:54.346Z</time></trkpt><trkpt lat="43.2253417" lon="11.2742017"><ele>192.33333333333331</ele><time>2026-03-22T12:28:55.345Z</time></trkpt><trkpt lat="43.2251567" lon="11.2741333"><ele>193.0</ele><time>2026-03-22T12:28:56.346Z</time></trkpt><trkpt lat="43.2249767" lon="11.2740667"><ele>193.66666666666666</ele><time>2026-03-22T12:28:57.346Z</time></trkpt><trkpt lat="43.2247967" lon="11.2739917"><ele>194.33333333333331</ele><time>2026-03-22T12:28:58.345Z</time></trkpt><trkpt lat="43.2246017" lon="11.2739417"><ele>195.0</ele><time>2026-03-22T12:28:59.346Z</time></trkpt><trkpt lat="43.2244233" lon="11.2738817"><ele>193.33333333333334</ele><time>2026-03-22T12:29:00.346Z</time></trkpt><trkpt lat="43.22425" lon="11.27383"><ele>191.66666666666669</ele><time>2026-03-22T12:29:01.346Z</time></trkpt><trkpt lat="43.2240583" lon="11.2737667"><ele>190.0</ele><time>2026-03-22T12:29:02.345Z</time></trkpt><trkpt lat="43.2238683" lon="11.2737217"><ele>190.0</ele><time>2026-03-22T12:29:03.346Z</time></trkpt><trkpt lat="43.2236867" lon="11.2736817"><ele>190.0</ele><time>2026-03-22T12:29:04.346Z</time></trkpt><trkpt lat="43.2234983" lon="11.273645"><ele>190.0</ele><time>2026-03-22T12:29:05.346Z</time></trkpt><trkpt lat="43.2233217" lon="11.2736117"><ele>189.33333333333334</ele><time>2026-03-22T12:29:06.345Z</time></trkpt><trkpt lat="43.223145" lon="11.2735817"><ele>188.66666666666666</ele><time>2026-03-22T12:29:07.345Z</time></trkpt><trkpt lat="43.222975" lon="11.2735783"><ele>188.0</ele><time>2026-03-22T12:29:08.346Z</time></trkpt><trkpt lat="43.2227967" lon="11.2735833"><ele>188.0</ele><time>2026-03-22T12:29:09.346Z</time></trkpt><trkpt lat="43.2226267" lon="11.2736"><ele>188.0</ele><time>2026-03-22T12:29:10.345Z</time></trkpt><trkpt lat="43.2224483" lon="11.27364"><ele>188.0</ele><time>2026-03-22T12:29:11.346Z</time></trkpt><trkpt lat="43.2222733" lon="11.2736883"><ele>187.66666666666666</ele><time>2026-03-22T12:29:12.346Z</time></trkpt><trkpt lat="43.222115" lon="11.2737567"><ele>187.33333333333334</ele><time>2026-03-22T12:29:13.346Z</time></trkpt><trkpt lat="43.2219533" lon="11.2738217"><ele>187.0</ele><time>2026-03-22T12:29:14.346Z</time></trkpt><trkpt lat="43.22179" lon="11.2738883"><ele>187.33333333333334</ele><time>2026-03-22T12:29:15.346Z</time></trkpt><trkpt lat="43.2216433" lon="11.2739517"><ele>187.66666666666666</ele><time>2026-03-22T12:29:16.346Z</time></trkpt><trkpt lat="43.2214917" lon="11.2740183"><ele>188.0</ele><time>2026-03-22T12:29:17.346Z</time></trkpt><trkpt lat="43.221345" lon="11.274085"><ele>188.0</ele><time>2026-03-22T12:29:18.346Z</time></trkpt><trkpt lat="43.2212" lon="11.2741517"><ele>188.0</ele><time>2026-03-22T12:29:19.345Z</time></trkpt><trkpt lat="43.221055" lon="11.2742233"><ele>188.0</ele><time>2026-03-22T12:29:20.346Z</time></trkpt><trkpt lat="43.22092" lon="11.2742783"><ele>188.0</ele><time>2026-03-22T12:29:21.346Z</time></trkpt><trkpt lat="43.2207917" lon="11.27434"><ele>188.0</ele><time>2026-03-22T12:29:22.346Z</time></trkpt><trkpt lat="43.2206667" lon="11.27439"><ele>188.0</ele><time>2026-03-22T12:29:23.346Z</time></trkpt><trkpt lat="43.2205467" lon="11.274435"><ele>188.0</ele><time>2026-03-22T12:29:24.346Z</time></trkpt><trkpt lat="43.2204483" lon="11.2744733"><ele>188.0</ele><time>2026-03-22T12:29:25.346Z</time></trkpt><trkpt lat="43.2203667" lon="11.274505"><ele>188.0</ele><time>2026-03-22T12:29:26.346Z</time></trkpt><trkpt lat="43.22029" lon="11.2745367"><ele>187.4</ele><time>2026-03-22T12:29:27.346Z</time></trkpt><trkpt lat="43.2202083" lon="11.2745467"><ele>186.8</ele><time>2026-03-22T12:29:28.346Z</time></trkpt><trkpt lat="43.2201233" lon="11.27454"><ele>186.2</ele><time>2026-03-22T12:29:29.346Z</time></trkpt><trkpt lat="43.2200383" lon="11.2745033"><ele>185.6</ele><time>2026-03-22T12:29:30.346Z</time></trkpt><trkpt lat="43.2199583" lon="11.2744433"><ele>185.0</ele><time>2026-03-22T12:29:31.345Z</time></trkpt><trkpt lat="43.2198767" lon="11.2743567"><ele>184.33333333333331</ele><time>2026-03-22T12:29:32.346Z</time></trkpt><trkpt lat="43.2198017" lon="11.2742017"><ele>183.66666666666666</ele><time>2026-03-22T12:29:33.346Z</time></trkpt><trkpt lat="43.21974" lon="11.274005"><ele>183.0</ele><time>2026-03-22T12:29:34.346Z</time></trkpt><trkpt lat="43.2196783" lon="11.2738033"><ele>182.66666666666666</ele><time>2026-03-22T12:29:35.346Z</time></trkpt><trkpt lat="43.2196033" lon="11.2736167"><ele>182.33333333333331</ele><time>2026-03-22T12:29:36.345Z</time></trkpt><trkpt lat="43.2195233" lon="11.2734067"><ele>182.0</ele><time>2026-03-22T12:29:37.345Z</time></trkpt><trkpt lat="43.21944" lon="11.2731983"><ele>181.66666666666666</ele><time>2026-03-22T12:29:38.346Z</time></trkpt><trkpt lat="43.219345" lon="11.2729717"><ele>181.33333333333334</ele><time>2026-03-22T12:29:39.345Z</time></trkpt><trkpt lat="43.21926" lon="11.2727483"><ele>181.0</ele><time>2026-03-22T12:29:40.346Z</time></trkpt><trkpt lat="43.2191683" lon="11.2725133"><ele>181.0</ele><time>2026-03-22T12:29:41.346Z</time></trkpt><trkpt lat="43.219085" lon="11.2722817"><ele>181.0</ele><time>2026-03-22T12:29:42.346Z</time></trkpt><trkpt lat="43.218995" lon="11.272045"><ele>181.0</ele><time>2026-03-22T12:29:43.345Z</time></trkpt><trkpt lat="43.2188967" lon="11.2717983"><ele>180.66666666666669</ele><time>2026-03-22T12:29:44.345Z</time></trkpt><trkpt lat="43.2188033" lon="11.2715517"><ele>180.33333333333334</ele><time>2026-03-22T12:29:45.346Z</time></trkpt><trkpt lat="43.218715" lon="11.2713067"><ele>180.0</ele><time>2026-03-22T12:29:46.345Z</time></trkpt><trkpt lat="43.21862" lon="11.2710583"><ele>179.66666666666666</ele><time>2026-03-22T12:29:47.345Z</time></trkpt><trkpt lat="43.2185217" lon="11.27081"><ele>179.33333333333331</ele><time>2026-03-22T12:29:48.346Z</time></trkpt><trkpt lat="43.2184233" lon="11.27055"><ele>179.0</ele><time>2026-03-22T12:29:49.346Z</time></trkpt><trkpt lat="43.2183267" lon="11.2703017"><ele>179.0</ele><time>2026-03-22T12:29:50.346Z</time></trkpt><trkpt lat="43.21823" lon="11.270055"><ele>179.0</ele><time>2026-03-22T12:29:51.346Z</time></trkpt><trkpt lat="43.218135" lon="11.269815"><ele>179.0</ele><time>2026-03-22T12:29:52.346Z</time></trkpt><trkpt lat="43.2180533" lon="11.2695783"><ele>179.0</ele><time>2026-03-22T12:29:53.345Z</time></trkpt><trkpt lat="43.21798" lon="11.2693383"><ele>179.0</ele><time>2026-03-22T12:29:54.346Z</time></trkpt><trkpt lat="43.2179167" lon="11.269125"><ele>179.0</ele><time>2026-03-22T12:29:55.346Z</time></trkpt><trkpt lat="43.2178567" lon="11.268945"><ele>179.39999999999998</ele><time>2026-03-22T12:29:56.346Z</time></trkpt><trkpt lat="43.217805" lon="11.2687933"><ele>179.8</ele><time>2026-03-22T12:29:57.346Z</time></trkpt><trkpt lat="43.2177617" lon="11.2686517"><ele>180.2</ele><time>2026-03-22T12:29:58.346Z</time></trkpt><trkpt lat="43.2177367" lon="11.26853"><ele>180.60000000000002</ele><time>2026-03-22T12:29:59.345Z</time></trkpt><trkpt lat="43.2177367" lon="11.2684033"><ele>181.0</ele><time>2026-03-22T12:30:00.346Z</time></trkpt><trkpt lat="43.21775" lon="11.2683033"><ele>181.0</ele><time>2026-03-22T12:30:01.346Z</time></trkpt><trkpt lat="43.2177983" lon="11.2681917"><ele>181.0</ele><time>2026-03-22T12:30:02.345Z</time></trkpt><trkpt lat="43.217885" lon="11.268075"><ele>181.0</ele><time>2026-03-22T12:30:03.346Z</time></trkpt><trkpt lat="43.2179833" lon="11.2679433"><ele>181.0</ele><time>2026-03-22T12:30:04.345Z</time></trkpt><trkpt lat="43.2180833" lon="11.2678067"><ele>181.0</ele><time>2026-03-22T12:30:05.346Z</time></trkpt><trkpt lat="43.2181733" lon="11.2676633"><ele>181.0</ele><time>2026-03-22T12:30:06.345Z</time></trkpt><trkpt lat="43.2182683" lon="11.2675217"><ele>181.0</ele><time>2026-03-22T12:30:07.346Z</time></trkpt><trkpt lat="43.2183617" lon="11.2673733"><ele>181.0</ele><time>2026-03-22T12:30:08.345Z</time></trkpt><trkpt lat="43.21845" lon="11.26724"><ele>181.25</ele><time>2026-03-22T12:30:09.345Z</time></trkpt><trkpt lat="43.2185467" lon="11.2670917"><ele>181.5</ele><time>2026-03-22T12:30:10.346Z</time></trkpt><trkpt lat="43.2186383" lon="11.266955"><ele>181.75</ele><time>2026-03-22T12:30:11.346Z</time></trkpt><trkpt lat="43.2187567" lon="11.2667983"><ele>182.0</ele><time>2026-03-22T12:30:12.345Z</time></trkpt><trkpt lat="43.2188633" lon="11.2666367"><ele>182.0</ele><time>2026-03-22T12:30:13.345Z</time></trkpt><trkpt lat="43.2189683" lon="11.266465"><ele>182.0</ele><time>2026-03-22T12:30:14.346Z</time></trkpt><trkpt lat="43.2190833" lon="11.26628"><ele>182.0</ele><time>2026-03-22T12:30:15.346Z</time></trkpt><trkpt lat="43.2191983" lon="11.2661017"><ele>181.66666666666666</ele><time>2026-03-22T12:30:16.346Z</time></trkpt><trkpt lat="43.2193083" lon="11.2659133"><ele>181.33333333333334</ele><time>2026-03-22T12:30:17.346Z</time></trkpt><trkpt lat="43.2194233" lon="11.2657233"><ele>181.0</ele><time>2026-03-22T12:30:18.346Z</time></trkpt><trkpt lat="43.2195367" lon="11.26552"><ele>180.66666666666669</ele><time>2026-03-22T12:30:19.346Z</time></trkpt><trkpt lat="43.2196417" lon="11.265315"><ele>180.33333333333334</ele><time>2026-03-22T12:30:20.346Z</time></trkpt><trkpt lat="43.2197483" lon="11.2651083"><ele>180.0</ele><time>2026-03-22T12:30:21.345Z</time></trkpt><trkpt lat="43.2198617" lon="11.26489"><ele>180.0</ele><time>2026-03-22T12:30:22.346Z</time></trkpt><trkpt lat="43.219975" lon="11.2646567"><ele>180.0</ele><time>2026-03-22T12:30:23.346Z</time></trkpt><trkpt lat="43.2200833" lon="11.2644233"><ele>180.0</ele><time>2026-03-22T12:30:24.346Z</time></trkpt><trkpt lat="43.220185" lon="11.2641933"><ele>180.0</ele><time>2026-03-22T12:30:25.346Z</time></trkpt><trkpt lat="43.220295" lon="11.2639633"><ele>180.0</ele><time>2026-03-22T12:30:26.345Z</time></trkpt><trkpt lat="43.2204033" lon="11.263725"><ele>180.0</ele><time>2026-03-22T12:30:27.346Z</time></trkpt><trkpt lat="43.22051" lon="11.2635017"><ele>180.33333333333334</ele><time>2026-03-22T12:30:28.346Z</time></trkpt><trkpt lat="43.22062" lon="11.2632633"><ele>180.66666666666669</ele><time>2026-03-22T12:30:29.345Z</time></trkpt><trkpt lat="43.2207283" lon="11.2630433"><ele>181.0</ele><time>2026-03-22T12:30:30.346Z</time></trkpt><trkpt lat="43.22083" lon="11.2628233"><ele>181.0</ele><time>2026-03-22T12:30:31.345Z</time></trkpt><trkpt lat="43.2209533" lon="11.2626283"><ele>181.0</ele><time>2026-03-22T12:30:32.345Z</time></trkpt><trkpt lat="43.2210967" lon="11.26242"><ele>181.0</ele><time>2026-03-22T12:30:33.346Z</time></trkpt><trkpt lat="43.2212733" lon="11.262255"><ele>181.0</ele><time>2026-03-22T12:30:34.346Z</time></trkpt><trkpt lat="43.2214367" lon="11.2620683"><ele>181.0</ele><time>2026-03-22T12:30:35.346Z</time></trkpt><trkpt lat="43.221605" lon="11.2618933"><ele>181.0</ele><time>2026-03-22T12:30:36.346Z</time></trkpt><trkpt lat="43.2217783" lon="11.2617217"><ele>181.0</ele><time>2026-03-22T12:30:37.345Z</time></trkpt><trkpt lat="43.2219467" lon="11.26156"><ele>181.0</ele><time>2026-03-22T12:30:38.346Z</time></trkpt><trkpt lat="43.2221083" lon="11.261395"><ele>181.0</ele><time>2026-03-22T12:30:39.346Z</time></trkpt><trkpt lat="43.222285" lon="11.2612333"><ele>181.33333333333334</ele><time>2026-03-22T12:30:40.346Z</time></trkpt><trkpt lat="43.222455" lon="11.2610667"><ele>181.66666666666666</ele><time>2026-03-22T12:30:41.346Z</time></trkpt><trkpt lat="43.2226333" lon="11.2609033"><ele>182.0</ele><time>2026-03-22T12:30:42.345Z</time></trkpt><trkpt lat="43.2228067" lon="11.2607433"><ele>182.0</ele><time>2026-03-22T12:30:43.346Z</time></trkpt><trkpt lat="43.2229883" lon="11.260585"><ele>182.0</ele><time>2026-03-22T12:30:44.345Z</time></trkpt><trkpt lat="43.22317" lon="11.2604117"><ele>182.0</ele><time>2026-03-22T12:30:45.346Z</time></trkpt><trkpt lat="43.22334" lon="11.260245"><ele>182.0</ele><time>2026-03-22T12:30:46.346Z</time></trkpt><trkpt lat="43.22351" lon="11.2600883"><ele>182.0</ele><time>2026-03-22T12:30:47.346Z</time></trkpt><trkpt lat="43.2236833" lon="11.2599233"><ele>182.0</ele><time>2026-03-22T12:30:48.346Z</time></trkpt><trkpt lat="43.2238483" lon="11.2597633"><ele>182.0</ele><time>2026-03-22T12:30:49.345Z</time></trkpt><trkpt lat="43.22401" lon="11.2595933"><ele>182.0</ele><time>2026-03-22T12:30:50.346Z</time></trkpt><trkpt lat="43.2241733" lon="11.2594383"><ele>182.0</ele><time>2026-03-22T12:30:51.346Z</time></trkpt><trkpt lat="43.2243367" lon="11.2592983"><ele>182.0</ele><time>2026-03-22T12:30:52.345Z</time></trkpt><trkpt lat="43.2244967" lon="11.25916"><ele>182.0</ele><time>2026-03-22T12:30:53.346Z</time></trkpt><trkpt lat="43.224665" lon="11.259"><ele>182.0</ele><time>2026-03-22T12:30:54.346Z</time></trkpt><trkpt lat="43.2248417" lon="11.2588317"><ele>182.0</ele><time>2026-03-22T12:30:55.346Z</time></trkpt><trkpt lat="43.22502" lon="11.2586683"><ele>182.0</ele><time>2026-03-22T12:30:56.346Z</time></trkpt><trkpt lat="43.2251817" lon="11.25851"><ele>182.0</ele><time>2026-03-22T12:30:57.346Z</time></trkpt><trkpt lat="43.2253433" lon="11.2583417"><ele>182.0</ele><time>2026-03-22T12:30:58.345Z</time></trkpt><trkpt lat="43.2255183" lon="11.2581733"><ele>182.0</ele><time>2026-03-22T12:30:59.346Z</time></trkpt><trkpt lat="43.2256917" lon="11.2580033"><ele>182.0</ele><time>2026-03-22T12:31:00.345Z</time></trkpt><trkpt lat="43.2258733" lon="11.2578317"><ele>182.0</ele><time>2026-03-22T12:31:01.346Z</time></trkpt><trkpt lat="43.226045" lon="11.2576633"><ele>182.0</ele><time>2026-03-22T12:31:02.345Z</time></trkpt><trkpt lat="43.2262217" lon="11.2574867"><ele>182.0</ele><time>2026-03-22T12:31:03.345Z</time></trkpt><trkpt lat="43.2263933" lon="11.2573183"><ele>182.0</ele><time>2026-03-22T12:31:04.346Z</time></trkpt><trkpt lat="43.2265483" lon="11.2571667"><ele>182.0</ele><time>2026-03-22T12:31:05.346Z</time></trkpt><trkpt lat="43.2266867" lon="11.25703"><ele>182.0</ele><time>2026-03-22T12:31:06.346Z</time></trkpt><trkpt lat="43.2268317" lon="11.25689"><ele>182.0</ele><time>2026-03-22T12:31:07.346Z</time></trkpt><trkpt lat="43.22698" lon="11.25674"><ele>182.0</ele><time>2026-03-22T12:31:08.346Z</time></trkpt><trkpt lat="43.2271283" lon="11.2565983"><ele>182.0</ele><time>2026-03-22T12:31:09.346Z</time></trkpt><trkpt lat="43.2272683" lon="11.2564617"><ele>182.0</ele><time>2026-03-22T12:31:10.345Z</time></trkpt><trkpt lat="43.227395" lon="11.256335"><ele>182.0</ele><time>2026-03-22T12:31:11.346Z</time></trkpt><trkpt lat="43.2275167" lon="11.25622"><ele>182.0</ele><time>2026-03-22T12:31:12.346Z</time></trkpt><trkpt lat="43.2276217" lon="11.256115"><ele>182.0</ele><time>2026-03-22T12:31:13.346Z</time></trkpt><trkpt lat="43.227735" lon="11.2560117"><ele>182.0</ele><time>2026-03-22T12:31:14.346Z</time></trkpt><trkpt lat="43.2278317" lon="11.2559167"><ele>182.0</ele><time>2026-03-22T12:31:15.345Z</time></trkpt><trkpt lat="43.2279133" lon="11.2558433"><ele>182.0</ele><time>2026-03-22T12:31:16.346Z</time></trkpt><trkpt lat="43.22799" lon="11.2557783"><ele>182.0</ele><time>2026-03-22T12:31:17.345Z</time></trkpt><trkpt lat="43.2280433" lon="11.2557217"><ele>182.0</ele><time>2026-03-22T12:31:18.346Z</time></trkpt><trkpt lat="43.2280683" lon="11.2556217"><ele>181.8</ele><time>2026-03-22T12:31:20.346Z</time></trkpt><trkpt lat="43.2280167" lon="11.2555467"><ele>181.6</ele><time>2026-03-22T12:31:22.346Z</time></trkpt><trkpt lat="43.2279533" lon="11.2555133"><ele>181.4</ele><time>2026-03-22T12:31:23.345Z</time></trkpt><trkpt lat="43.227845" lon="11.2554833"><ele>181.20000000000002</ele><time>2026-03-22T12:31:24.346Z</time></trkpt><trkpt lat="43.2277133" lon="11.2554633"><ele>181.0</ele><time>2026-03-22T12:31:25.346Z</time></trkpt><trkpt lat="43.22757" lon="11.2554567"><ele>181.0</ele><time>2026-03-22T12:31:26.346Z</time></trkpt><trkpt lat="43.2274283" lon="11.25545"><ele>181.0</ele><time>2026-03-22T12:31:27.346Z</time></trkpt><trkpt lat="43.2272733" lon="11.2554367"><ele>181.0</ele><time>2026-03-22T12:31:28.346Z</time></trkpt><trkpt lat="43.227095" lon="11.2554183"><ele>181.33333333333334</ele><time>2026-03-22T12:31:29.345Z</time></trkpt><trkpt lat="43.2269317" lon="11.2554033"><ele>181.66666666666666</ele><time>2026-03-22T12:31:30.346Z</time></trkpt><trkpt lat="43.22677" lon="11.25539"><ele>182.0</ele><time>2026-03-22T12:31:31.346Z</time></trkpt><trkpt lat="43.22661" lon="11.25538"><ele>181.66666666666666</ele><time>2026-03-22T12:31:32.345Z</time></trkpt><trkpt lat="43.2264467" lon="11.2553683"><ele>181.33333333333334</ele><time>2026-03-22T12:31:33.345Z</time></trkpt><trkpt lat="43.2262767" lon="11.2553633"><ele>181.0</ele><time>2026-03-22T12:31:34.346Z</time></trkpt><trkpt lat="43.22611" lon="11.2553633"><ele>181.0</ele><time>2026-03-22T12:31:35.346Z</time></trkpt><trkpt lat="43.2259417" lon="11.25536"><ele>181.0</ele><time>2026-03-22T12:31:36.346Z</time></trkpt><trkpt lat="43.2257767" lon="11.2553583"><ele>181.0</ele><time>2026-03-22T12:31:37.346Z</time></trkpt><trkpt lat="43.22562" lon="11.2553583"><ele>181.25</ele><time>2026-03-22T12:31:38.345Z</time></trkpt><trkpt lat="43.2254767" lon="11.2553517"><ele>181.5</ele><time>2026-03-22T12:31:39.346Z</time></trkpt><trkpt lat="43.225345" lon="11.2553467"><ele>181.75</ele><time>2026-03-22T12:31:40.345Z</time></trkpt><trkpt lat="43.2252183" lon="11.2553483"><ele>182.0</ele><time>2026-03-22T12:31:41.346Z</time></trkpt><trkpt lat="43.2250983" lon="11.2553483"><ele>182.0</ele><time>2026-03-22T12:31:42.346Z</time></trkpt><trkpt lat="43.2249867" lon="11.2553517"><ele>182.0</ele><time>2026-03-22T12:31:43.345Z</time></trkpt><trkpt lat="43.2248717" lon="11.2553783"><ele>182.0</ele><time>2026-03-22T12:31:44.345Z</time></trkpt><trkpt lat="43.2247583" lon="11.2554133"><ele>182.0</ele><time>2026-03-22T12:31:45.346Z</time></trkpt><trkpt lat="43.224645" lon="11.25547"><ele>182.0</ele><time>2026-03-22T12:31:46.346Z</time></trkpt><trkpt lat="43.22454" lon="11.2555233"><ele>182.0</ele><time>2026-03-22T12:31:47.346Z</time></trkpt><trkpt lat="43.2244383" lon="11.255575"><ele>182.0</ele><time>2026-03-22T12:31:48.346Z</time></trkpt><trkpt lat="43.22435" lon="11.2556067"><ele>182.0</ele><time>2026-03-22T12:31:49.346Z</time></trkpt><trkpt lat="43.224265" lon="11.255635"><ele>182.0</ele><time>2026-03-22T12:31:50.345Z</time></trkpt><trkpt lat="43.22417" lon="11.25564"><ele>182.2</ele><time>2026-03-22T12:31:51.346Z</time></trkpt><trkpt lat="43.2240833" lon="11.2556133"><ele>182.39999999999998</ele><time>2026-03-22T12:31:52.346Z</time></trkpt><trkpt lat="43.2239967" lon="11.25555"><ele>182.60000000000002</ele><time>2026-03-22T12:31:53.346Z</time></trkpt><trkpt lat="43.2239083" lon="11.2554867"><ele>182.8</ele><time>2026-03-22T12:31:54.345Z</time></trkpt><trkpt lat="43.22382" lon="11.255415"><ele>183.0</ele><time>2026-03-22T12:31:55.346Z</time></trkpt><trkpt lat="43.22371" lon="11.255345"><ele>183.0</ele><time>2026-03-22T12:31:56.346Z</time></trkpt><trkpt lat="43.2235933" lon="11.2552733"><ele>183.0</ele><time>2026-03-22T12:31:57.346Z</time></trkpt><trkpt lat="43.2234867" lon="11.255185"><ele>183.0</ele><time>2026-03-22T12:31:58.346Z</time></trkpt><trkpt lat="43.22339" lon="11.2550767"><ele>183.0</ele><time>2026-03-22T12:31:59.346Z</time></trkpt><trkpt lat="43.2233117" lon="11.2549533"><ele>183.0</ele><time>2026-03-22T12:32:00.346Z</time></trkpt><trkpt lat="43.223245" lon="11.254795"><ele>183.0</ele><time>2026-03-22T12:32:01.346Z</time></trkpt><trkpt lat="43.2231967" lon="11.2546333"><ele>183.0</ele><time>2026-03-22T12:32:02.346Z</time></trkpt><trkpt lat="43.2231383" lon="11.2544533"><ele>183.0</ele><time>2026-03-22T12:32:03.346Z</time></trkpt><trkpt lat="43.2230767" lon="11.2542583"><ele>183.0</ele><time>2026-03-22T12:32:04.346Z</time></trkpt><trkpt lat="43.2230267" lon="11.2540783"><ele>183.0</ele><time>2026-03-22T12:32:05.346Z</time></trkpt><trkpt lat="43.22297" lon="11.253905"><ele>183.0</ele><time>2026-03-22T12:32:06.345Z</time></trkpt><trkpt lat="43.2229167" lon="11.2537233"><ele>183.0</ele><time>2026-03-22T12:32:07.346Z</time></trkpt><trkpt lat="43.22285" lon="11.2535467"><ele>183.0</ele><time>2026-03-22T12:32:08.345Z</time></trkpt><trkpt lat="43.2227817" lon="11.2533583"><ele>183.0</ele><time>2026-03-22T12:32:09.346Z</time></trkpt><trkpt lat="43.2227167" lon="11.253165"><ele>183.0</ele><time>2026-03-22T12:32:10.345Z</time></trkpt><trkpt lat="43.2226567" lon="11.2529767"><ele>183.0</ele><time>2026-03-22T12:32:11.346Z</time></trkpt><trkpt lat="43.2225917" lon="11.2527967"><ele>183.0</ele><time>2026-03-22T12:32:12.345Z</time></trkpt><trkpt lat="43.222545" lon="11.2526133"><ele>183.0</ele><time>2026-03-22T12:32:13.346Z</time></trkpt><trkpt lat="43.2224967" lon="11.2524367"><ele>183.0</ele><time>2026-03-22T12:32:14.346Z</time></trkpt><trkpt lat="43.22246" lon="11.2522383"><ele>183.0</ele><time>2026-03-22T12:32:15.346Z</time></trkpt><trkpt lat="43.2224183" lon="11.25205"><ele>183.0</ele><time>2026-03-22T12:32:16.346Z</time></trkpt><trkpt lat="43.2223583" lon="11.251865"><ele>183.0</ele><time>2026-03-22T12:32:17.346Z</time></trkpt><trkpt lat="43.2222867" lon="11.2516883"><ele>183.0</ele><time>2026-03-22T12:32:18.345Z</time></trkpt><trkpt lat="43.2222083" lon="11.2515017"><ele>183.0</ele><time>2026-03-22T12:32:19.346Z</time></trkpt><trkpt lat="43.2221367" lon="11.25133"><ele>183.0</ele><time>2026-03-22T12:32:20.346Z</time></trkpt><trkpt lat="43.2220783" lon="11.25119"><ele>183.0</ele><time>2026-03-22T12:32:21.346Z</time></trkpt><trkpt lat="43.2220117" lon="11.251075"><ele>183.0</ele><time>2026-03-22T12:32:22.346Z</time></trkpt><trkpt lat="43.2219333" lon="11.2509767"><ele>183.0</ele><time>2026-03-22T12:32:23.346Z</time></trkpt><trkpt lat="43.2218333" lon="11.250885"><ele>183.0</ele><time>2026-03-22T12:32:24.346Z</time></trkpt><trkpt lat="43.2217233" lon="11.2507983"><ele>183.0</ele><time>2026-03-22T12:32:25.346Z</time></trkpt><trkpt lat="43.2216033" lon="11.2507233"><ele>183.0</ele><time>2026-03-22T12:32:26.346Z</time></trkpt><trkpt lat="43.22147" lon="11.2506733"><ele>183.0</ele><time>2026-03-22T12:32:27.346Z</time></trkpt><trkpt lat="43.22134" lon="11.2506283"><ele>183.0</ele><time>2026-03-22T12:32:28.346Z</time></trkpt><trkpt lat="43.2212167" lon="11.2505867"><ele>183.0</ele><time>2026-03-22T12:32:29.346Z</time></trkpt><trkpt lat="43.2211033" lon="11.2505467"><ele>183.0</ele><time>2026-03-22T12:32:30.346Z</time></trkpt><trkpt lat="43.22099" lon="11.25049"><ele>183.0</ele><time>2026-03-22T12:32:31.346Z</time></trkpt><trkpt lat="43.2208917" lon="11.2504017"><ele>183.0</ele><time>2026-03-22T12:32:32.346Z</time></trkpt><trkpt lat="43.2207867" lon="11.25028"><ele>183.0</ele><time>2026-03-22T12:32:33.346Z</time></trkpt><trkpt lat="43.220695" lon="11.2501483"><ele>183.0</ele><time>2026-03-22T12:32:34.346Z</time></trkpt><trkpt lat="43.2206067" lon="11.2500033"><ele>183.0</ele><time>2026-03-22T12:32:35.346Z</time></trkpt><trkpt lat="43.2205283" lon="11.2498567"><ele>183.0</ele><time>2026-03-22T12:32:36.346Z</time></trkpt><trkpt lat="43.2204483" lon="11.2497067"><ele>183.0</ele><time>2026-03-22T12:32:37.346Z</time></trkpt><trkpt lat="43.2203667" lon="11.24955"><ele>183.0</ele><time>2026-03-22T12:32:38.346Z</time></trkpt><trkpt lat="43.220305" lon="11.2493783"><ele>183.75</ele><time>2026-03-22T12:32:39.345Z</time></trkpt><trkpt lat="43.2202433" lon="11.249205"><ele>184.5</ele><time>2026-03-22T12:32:40.345Z</time></trkpt><trkpt lat="43.2201983" lon="11.2490517"><ele>185.25</ele><time>2026-03-22T12:32:41.346Z</time></trkpt><trkpt lat="43.2201583" lon="11.24891"><ele>186.0</ele><time>2026-03-22T12:32:42.346Z</time></trkpt><trkpt lat="43.22011" lon="11.248785"><ele>186.60000000000002</ele><time>2026-03-22T12:32:43.346Z</time></trkpt><trkpt lat="43.22006" lon="11.2486833"><ele>187.2</ele><time>2026-03-22T12:32:44.346Z</time></trkpt><trkpt lat="43.2199917" lon="11.24861"><ele>187.8</ele><time>2026-03-22T12:32:45.346Z</time></trkpt><trkpt lat="43.2199233" lon="11.2485683"><ele>188.39999999999998</ele><time>2026-03-22T12:32:46.345Z</time></trkpt><trkpt lat="43.2198083" lon="11.248535"><ele>189.0</ele><time>2026-03-22T12:32:48.346Z</time></trkpt><trkpt lat="43.21971" lon="11.2485117"><ele>189.0</ele><time>2026-03-22T12:32:50.345Z</time></trkpt><trkpt lat="43.219575" lon="11.2484933"><ele>189.0</ele><time>2026-03-22T12:32:52.345Z</time></trkpt><trkpt lat="43.2194767" lon="11.2484833"><ele>189.0</ele><time>2026-03-22T12:32:53.346Z</time></trkpt><trkpt lat="43.2193467" lon="11.2484567"><ele>189.0</ele><time>2026-03-22T12:32:54.346Z</time></trkpt><trkpt lat="43.2192117" lon="11.2484283"><ele>189.0</ele><time>2026-03-22T12:32:55.346Z</time></trkpt><trkpt lat="43.21905" lon="11.2484"><ele>189.0</ele><time>2026-03-22T12:32:56.346Z</time></trkpt><trkpt lat="43.218895" lon="11.248355"><ele>189.0</ele><time>2026-03-22T12:32:57.346Z</time></trkpt><trkpt lat="43.218745" lon="11.24827"><ele>188.5</ele><time>2026-03-22T12:32:58.346Z</time></trkpt><trkpt lat="43.2186067" lon="11.2481867"><ele>188.0</ele><time>2026-03-22T12:32:59.346Z</time></trkpt><trkpt lat="43.218495" lon="11.2481283"><ele>187.5</ele><time>2026-03-22T12:33:00.346Z</time></trkpt><trkpt lat="43.2184217" lon="11.248075"><ele>187.0</ele><time>2026-03-22T12:33:01.346Z</time></trkpt><trkpt lat="43.218335" lon="11.2479967"><ele>187.39999999999998</ele><time>2026-03-22T12:33:03.346Z</time></trkpt><trkpt lat="43.218245" lon="11.2479"><ele>187.79999999999998</ele><time>2026-03-22T12:33:05.346Z</time></trkpt><trkpt lat="43.2181733" lon="11.2478433"><ele>188.2</ele><time>2026-03-22T12:33:06.346Z</time></trkpt><trkpt lat="43.2180783" lon="11.2477817"><ele>188.6</ele><time>2026-03-22T12:33:07.346Z</time></trkpt><trkpt lat="43.2179533" lon="11.2477017"><ele>189.0</ele><time>2026-03-22T12:33:08.346Z</time></trkpt><trkpt lat="43.217815" lon="11.2476217"><ele>189.0</ele><time>2026-03-22T12:33:09.346Z</time></trkpt><trkpt lat="43.217675" lon="11.2475383"><ele>189.0</ele><time>2026-03-22T12:33:10.346Z</time></trkpt><trkpt lat="43.2175133" lon="11.2474483"><ele>189.0</ele><time>2026-03-22T12:33:11.346Z</time></trkpt><trkpt lat="43.217345" lon="11.2473467"><ele>189.0</ele><time>2026-03-22T12:33:12.346Z</time></trkpt><trkpt lat="43.2171683" lon="11.24723"><ele>189.0</ele><time>2026-03-22T12:33:13.346Z</time></trkpt><trkpt lat="43.21699" lon="11.24712"><ele>189.0</ele><time>2026-03-22T12:33:14.345Z</time></trkpt><trkpt lat="43.2168167" lon="11.2470033"><ele>189.0</ele><time>2026-03-22T12:33:15.346Z</time></trkpt><trkpt lat="43.2166433" lon="11.24689"><ele>189.0</ele><time>2026-03-22T12:33:16.346Z</time></trkpt><trkpt lat="43.2164767" lon="11.2467683"><ele>189.0</ele><time>2026-03-22T12:33:17.346Z</time></trkpt><trkpt lat="43.2163217" lon="11.2466617"><ele>189.0</ele><time>2026-03-22T12:33:18.346Z</time></trkpt><trkpt lat="43.21617" lon="11.2465683"><ele>189.0</ele><time>2026-03-22T12:33:19.345Z</time></trkpt><trkpt lat="43.2160267" lon="11.2464767"><ele>189.0</ele><time>2026-03-22T12:33:20.346Z</time></trkpt><trkpt lat="43.215885" lon="11.2463833"><ele>189.0</ele><time>2026-03-22T12:33:21.346Z</time></trkpt><trkpt lat="43.2157417" lon="11.2462983"><ele>189.0</ele><time>2026-03-22T12:33:22.345Z</time></trkpt><trkpt lat="43.2155733" lon="11.246225"><ele>189.0</ele><time>2026-03-22T12:33:23.346Z</time></trkpt><trkpt lat="43.21541" lon="11.2461683"><ele>189.33333333333334</ele><time>2026-03-22T12:33:24.345Z</time></trkpt><trkpt lat="43.21522" lon="11.2460933"><ele>189.66666666666669</ele><time>2026-03-22T12:33:25.346Z</time></trkpt><trkpt lat="43.2150267" lon="11.2460433"><ele>190.0</ele><time>2026-03-22T12:33:26.345Z</time></trkpt><trkpt lat="43.2148533" lon="11.2459967"><ele>191.33333333333334</ele><time>2026-03-22T12:33:27.346Z</time></trkpt><trkpt lat="43.2146867" lon="11.2459433"><ele>192.66666666666669</ele><time>2026-03-22T12:33:28.346Z</time></trkpt><trkpt lat="43.214515" lon="11.2458917"><ele>194.0</ele><time>2026-03-22T12:33:29.346Z</time></trkpt><trkpt lat="43.2143667" lon="11.2458767"><ele>194.0</ele><time>2026-03-22T12:33:30.346Z</time></trkpt><trkpt lat="43.2142" lon="11.2458883"><ele>194.0</ele><time>2026-03-22T12:33:31.346Z</time></trkpt><trkpt lat="43.214025" lon="11.2458767"><ele>194.0</ele><time>2026-03-22T12:33:32.346Z</time></trkpt><trkpt lat="43.2138667" lon="11.245845"><ele>194.0</ele><time>2026-03-22T12:33:33.346Z</time></trkpt><trkpt lat="43.2136917" lon="11.2458317"><ele>194.0</ele><time>2026-03-22T12:33:34.345Z</time></trkpt><trkpt lat="43.2135267" lon="11.245805"><ele>194.0</ele><time>2026-03-22T12:33:35.345Z</time></trkpt><trkpt lat="43.2133633" lon="11.2457433"><ele>194.0</ele><time>2026-03-22T12:33:36.345Z</time></trkpt><trkpt lat="43.2131867" lon="11.2456967"><ele>194.0</ele><time>2026-03-22T12:33:37.346Z</time></trkpt><trkpt lat="43.21301" lon="11.24561"><ele>194.0</ele><time>2026-03-22T12:33:38.346Z</time></trkpt><trkpt lat="43.2128467" lon="11.2455133"><ele>197.33333333333334</ele><time>2026-03-22T12:33:39.346Z</time></trkpt><trkpt lat="43.2126783" lon="11.2454067"><ele>200.66666666666669</ele><time>2026-03-22T12:33:40.346Z</time></trkpt><trkpt lat="43.2125117" lon="11.2452667"><ele>204.0</ele><time>2026-03-22T12:33:41.345Z</time></trkpt><trkpt lat="43.2123433" lon="11.2450983"><ele>205.33333333333331</ele><time>2026-03-22T12:33:42.346Z</time></trkpt><trkpt lat="43.2121633" lon="11.2449333"><ele>206.66666666666666</ele><time>2026-03-22T12:33:43.346Z</time></trkpt><trkpt lat="43.2120083" lon="11.2447617"><ele>208.0</ele><time>2026-03-22T12:33:44.346Z</time></trkpt><trkpt lat="43.2118633" lon="11.2445683"><ele>208.0</ele><time>2026-03-22T12:33:45.346Z</time></trkpt><trkpt lat="43.2117067" lon="11.2443667"><ele>208.0</ele><time>2026-03-22T12:33:46.346Z</time></trkpt><trkpt lat="43.2115517" lon="11.2441783"><ele>208.0</ele><time>2026-03-22T12:33:47.345Z</time></trkpt><trkpt lat="43.2114067" lon="11.24397"><ele>204.66666666666666</ele><time>2026-03-22T12:33:48.346Z</time></trkpt><trkpt lat="43.2112517" lon="11.2437833"><ele>201.33333333333331</ele><time>2026-03-22T12:33:49.345Z</time></trkpt><trkpt lat="43.211105" lon="11.2435817"><ele>198.0</ele><time>2026-03-22T12:33:50.345Z</time></trkpt><trkpt lat="43.2109567" lon="11.2433933"><ele>198.0</ele><time>2026-03-22T12:33:51.346Z</time></trkpt><trkpt lat="43.210805" lon="11.2432367"><ele>198.0</ele><time>2026-03-22T12:33:52.346Z</time></trkpt><trkpt lat="43.2106533" lon="11.24305"><ele>198.0</ele><time>2026-03-22T12:33:53.346Z</time></trkpt><trkpt lat="43.2105033" lon="11.2428583"><ele>196.66666666666669</ele><time>2026-03-22T12:33:54.345Z</time></trkpt><trkpt lat="43.21036" lon="11.2426517"><ele>195.33333333333334</ele><time>2026-03-22T12:33:55.346Z</time></trkpt><trkpt lat="43.2102167" lon="11.2424217"><ele>194.0</ele><time>2026-03-22T12:33:56.346Z</time></trkpt><trkpt lat="43.2100967" lon="11.2421983"><ele>192.33333333333334</ele><time>2026-03-22T12:33:57.346Z</time></trkpt><trkpt lat="43.2099633" lon="11.241975"><ele>190.66666666666669</ele><time>2026-03-22T12:33:58.346Z</time></trkpt><trkpt lat="43.2098317" lon="11.2417683"><ele>189.0</ele><time>2026-03-22T12:33:59.346Z</time></trkpt><trkpt lat="43.20969" lon="11.2415583"><ele>193.33333333333331</ele><time>2026-03-22T12:34:00.345Z</time></trkpt><trkpt lat="43.2095633" lon="11.2413367"><ele>197.66666666666666</ele><time>2026-03-22T12:34:01.346Z</time></trkpt><trkpt lat="43.20945" lon="11.2411183"><ele>202.0</ele><time>2026-03-22T12:34:02.345Z</time></trkpt><trkpt lat="43.2093117" lon="11.240925"><ele>202.0</ele><time>2026-03-22T12:34:03.346Z</time></trkpt><trkpt lat="43.2091583" lon="11.2407567"><ele>202.0</ele><time>2026-03-22T12:34:04.346Z</time></trkpt><trkpt lat="43.20897" lon="11.2406383"><ele>202.0</ele><time>2026-03-22T12:34:05.346Z</time></trkpt><trkpt lat="43.2088017" lon="11.2405283"><ele>205.0</ele><time>2026-03-22T12:34:06.346Z</time></trkpt><trkpt lat="43.2086133" lon="11.2404383"><ele>208.0</ele><time>2026-03-22T12:34:07.345Z</time></trkpt><trkpt lat="43.2084283" lon="11.240375"><ele>211.0</ele><time>2026-03-22T12:34:08.346Z</time></trkpt><trkpt lat="43.2082317" lon="11.2403417"><ele>207.33333333333331</ele><time>2026-03-22T12:34:09.346Z</time></trkpt><trkpt lat="43.2080383" lon="11.2403017"><ele>203.66666666666669</ele><time>2026-03-22T12:34:10.346Z</time></trkpt><trkpt lat="43.2078467" lon="11.24023"><ele>200.0</ele><time>2026-03-22T12:34:11.345Z</time></trkpt><trkpt lat="43.2076533" lon="11.2401333"><ele>200.0</ele><time>2026-03-22T12:34:12.345Z</time></trkpt><trkpt lat="43.2074617" lon="11.24003"><ele>200.0</ele><time>2026-03-22T12:34:13.346Z</time></trkpt><trkpt lat="43.207285" lon="11.2399083"><ele>200.0</ele><time>2026-03-22T12:34:14.346Z</time></trkpt><trkpt lat="43.2071283" lon="11.2397533"><ele>199.66666666666669</ele><time>2026-03-22T12:34:15.345Z</time></trkpt><trkpt lat="43.2069867" lon="11.239585"><ele>199.33333333333331</ele><time>2026-03-22T12:34:16.346Z</time></trkpt><trkpt lat="43.2068467" lon="11.2393783"><ele>199.0</ele><time>2026-03-22T12:34:17.346Z</time></trkpt><trkpt lat="43.2067183" lon="11.239185"><ele>199.0</ele><time>2026-03-22T12:34:18.346Z</time></trkpt><trkpt lat="43.206595" lon="11.2389983"><ele>199.0</ele><time>2026-03-22T12:34:19.346Z</time></trkpt><trkpt lat="43.20649" lon="11.2388217"><ele>199.0</ele><time>2026-03-22T12:34:20.346Z</time></trkpt><trkpt lat="43.2063967" lon="11.2386767"><ele>199.25</ele><time>2026-03-22T12:34:21.345Z</time></trkpt><trkpt lat="43.20629" lon="11.2385533"><ele>199.5</ele><time>2026-03-22T12:34:22.345Z</time></trkpt><trkpt lat="43.2061683" lon="11.2384333"><ele>199.75</ele><time>2026-03-22T12:34:23.346Z</time></trkpt><trkpt lat="43.2060583" lon="11.238325"><ele>200.0</ele><time>2026-03-22T12:34:24.346Z</time></trkpt><trkpt lat="43.2059567" lon="11.238235"><ele>200.0</ele><time>2026-03-22T12:34:25.346Z</time></trkpt><trkpt lat="43.2058583" lon="11.2381383"><ele>200.0</ele><time>2026-03-22T12:34:26.345Z</time></trkpt><trkpt lat="43.2057633" lon="11.23803"><ele>200.0</ele><time>2026-03-22T12:34:27.346Z</time></trkpt><trkpt lat="43.2056767" lon="11.237915"><ele>200.0</ele><time>2026-03-22T12:34:28.346Z</time></trkpt><trkpt lat="43.2055967" lon="11.2378"><ele>199.6</ele><time>2026-03-22T12:34:29.346Z</time></trkpt><trkpt lat="43.2055233" lon="11.23769"><ele>199.2</ele><time>2026-03-22T12:34:30.346Z</time></trkpt><trkpt lat="43.20545" lon="11.2375717"><ele>198.8</ele><time>2026-03-22T12:34:31.346Z</time></trkpt><trkpt lat="43.205375" lon="11.237455"><ele>198.4</ele><time>2026-03-22T12:34:32.346Z</time></trkpt><trkpt lat="43.2053017" lon="11.2373533"><ele>198.0</ele><time>2026-03-22T12:34:33.346Z</time></trkpt><trkpt lat="43.2052433" lon="11.237255"><ele>198.0</ele><time>2026-03-22T12:34:34.346Z</time></trkpt><trkpt lat="43.2051783" lon="11.2371783"><ele>198.0</ele><time>2026-03-22T12:34:35.346Z</time></trkpt><trkpt lat="43.2051183" lon="11.2371333"><ele>198.0</ele><time>2026-03-22T12:34:36.346Z</time></trkpt><trkpt lat="43.2050367" lon="11.2371017"><ele>198.0</ele><time>2026-03-22T12:34:37.345Z</time></trkpt><trkpt lat="43.2049417" lon="11.2370733"><ele>198.0</ele><time>2026-03-22T12:34:38.346Z</time></trkpt><trkpt lat="43.2048267" lon="11.2370317"><ele>198.0</ele><time>2026-03-22T12:34:39.346Z</time></trkpt><trkpt lat="43.2047133" lon="11.2369667"><ele>198.0</ele><time>2026-03-22T12:34:40.346Z</time></trkpt><trkpt lat="43.2046017" lon="11.236885"><ele>198.0</ele><time>2026-03-22T12:34:41.346Z</time></trkpt><trkpt lat="43.204485" lon="11.2367617"><ele>198.0</ele><time>2026-03-22T12:34:42.346Z</time></trkpt><trkpt lat="43.2043783" lon="11.2366067"><ele>201.33333333333331</ele><time>2026-03-22T12:34:43.346Z</time></trkpt><trkpt lat="43.2042667" lon="11.2364633"><ele>204.66666666666666</ele><time>2026-03-22T12:34:44.345Z</time></trkpt><trkpt lat="43.2041533" lon="11.2363167"><ele>208.0</ele><time>2026-03-22T12:34:45.345Z</time></trkpt><trkpt lat="43.20404" lon="11.2361683"><ele>203.66666666666666</ele><time>2026-03-22T12:34:46.346Z</time></trkpt><trkpt lat="43.20393" lon="11.2360233"><ele>199.33333333333331</ele><time>2026-03-22T12:34:47.346Z</time></trkpt><trkpt lat="43.2038217" lon="11.2358733"><ele>195.0</ele><time>2026-03-22T12:34:48.346Z</time></trkpt><trkpt lat="43.2037117" lon="11.235745"><ele>197.5</ele><time>2026-03-22T12:34:49.345Z</time></trkpt><trkpt lat="43.2036117" lon="11.2356183"><ele>200.0</ele><time>2026-03-22T12:34:50.346Z</time></trkpt><trkpt lat="43.2035333" lon="11.2354883"><ele>202.5</ele><time>2026-03-22T12:34:51.346Z</time></trkpt><trkpt lat="43.2034417" lon="11.2353517"><ele>205.0</ele><time>2026-03-22T12:34:52.345Z</time></trkpt><trkpt lat="43.20336" lon="11.2352017"><ele>205.0</ele><time>2026-03-22T12:34:53.345Z</time></trkpt><trkpt lat="43.2032783" lon="11.2350267"><ele>205.0</ele><time>2026-03-22T12:34:54.346Z</time></trkpt><trkpt lat="43.2032033" lon="11.234855"><ele>205.0</ele><time>2026-03-22T12:34:55.346Z</time></trkpt><trkpt lat="43.20312" lon="11.23467"><ele>201.0</ele><time>2026-03-22T12:34:56.346Z</time></trkpt><trkpt lat="43.20304" lon="11.234485"><ele>197.0</ele><time>2026-03-22T12:34:57.346Z</time></trkpt><trkpt lat="43.2029683" lon="11.2342917"><ele>193.0</ele><time>2026-03-22T12:34:58.346Z</time></trkpt><trkpt lat="43.2028833" lon="11.2341033"><ele>195.0</ele><time>2026-03-22T12:34:59.346Z</time></trkpt><trkpt lat="43.2027983" lon="11.2338967"><ele>197.0</ele><time>2026-03-22T12:35:00.345Z</time></trkpt><trkpt lat="43.2027083" lon="11.23368"><ele>199.0</ele><time>2026-03-22T12:35:01.346Z</time></trkpt><trkpt lat="43.2026217" lon="11.2334717"><ele>199.0</ele><time>2026-03-22T12:35:02.346Z</time></trkpt><trkpt lat="43.2025433" lon="11.2332833"><ele>199.0</ele><time>2026-03-22T12:35:03.346Z</time></trkpt><trkpt lat="43.202475" lon="11.2331"><ele>199.0</ele><time>2026-03-22T12:35:04.346Z</time></trkpt><trkpt lat="43.20243" lon="11.2329367"><ele>199.0</ele><time>2026-03-22T12:35:05.346Z</time></trkpt><trkpt lat="43.2024167" lon="11.23281"><ele>198.83333333333331</ele><time>2026-03-22T12:35:06.346Z</time></trkpt><trkpt lat="43.202405" lon="11.232705"><ele>198.66666666666666</ele><time>2026-03-22T12:35:07.345Z</time></trkpt><trkpt lat="43.2024283" lon="11.2325783"><ele>198.5</ele><time>2026-03-22T12:35:08.346Z</time></trkpt><trkpt lat="43.2024433" lon="11.232465"><ele>198.33333333333331</ele><time>2026-03-22T12:35:09.345Z</time></trkpt><trkpt lat="43.202455" lon="11.2323783"><ele>198.16666666666666</ele><time>2026-03-22T12:35:10.346Z</time></trkpt><trkpt lat="43.2024617" lon="11.232285"><ele>198.0</ele><time>2026-03-22T12:35:13.346Z</time></trkpt><trkpt lat="43.20241" lon="11.2322283"><ele>198.0</ele><time>2026-03-22T12:35:16.345Z</time></trkpt><trkpt lat="43.202415" lon="11.232095"><ele>198.0</ele><time>2026-03-22T12:35:25.346Z</time></trkpt><trkpt lat="43.2024583" lon="11.231935"><ele>198.0</ele><time>2026-03-22T12:35:27.345Z</time></trkpt><trkpt lat="43.2024867" lon="11.2318383"><ele>198.0</ele><time>2026-03-22T12:35:28.346Z</time></trkpt><trkpt lat="43.202525" lon="11.2317333"><ele>198.0</ele><time>2026-03-22T12:35:29.345Z</time></trkpt><trkpt lat="43.2025667" lon="11.2316233"><ele>198.0</ele><time>2026-03-22T12:35:30.346Z</time></trkpt><trkpt lat="43.2026067" lon="11.2315167"><ele>198.0</ele><time>2026-03-22T12:35:31.346Z</time></trkpt><trkpt lat="43.2026567" lon="11.23141"><ele>198.0</ele><time>2026-03-22T12:35:32.345Z</time></trkpt><trkpt lat="43.202695" lon="11.2313133"><ele>198.0</ele><time>2026-03-22T12:35:33.346Z</time></trkpt><trkpt lat="43.2027333" lon="11.2312283"><ele>198.0</ele><time>2026-03-22T12:35:34.346Z</time></trkpt><trkpt lat="43.20276" lon="11.231145"><ele>198.0</ele><time>2026-03-22T12:35:35.346Z</time></trkpt><trkpt lat="43.202805" lon="11.2309933"><ele>197.5</ele><time>2026-03-22T12:35:37.346Z</time></trkpt><trkpt lat="43.2028483" lon="11.2308467"><ele>197.0</ele><time>2026-03-22T12:35:39.346Z</time></trkpt><trkpt lat="43.2028733" lon="11.2307667"><ele>196.5</ele><time>2026-03-22T12:35:40.345Z</time></trkpt><trkpt lat="43.20291" lon="11.2306733"><ele>196.0</ele><time>2026-03-22T12:35:41.347Z</time></trkpt><trkpt lat="43.20295" lon="11.230575"><ele>195.5</ele><time>2026-03-22T12:35:42.347Z</time></trkpt><trkpt lat="43.20299" lon="11.23047"><ele>195.0</ele><time>2026-03-22T12:35:43.347Z</time></trkpt><trkpt lat="43.20303" lon="11.23038"><ele>195.0</ele><time>2026-03-22T12:35:44.346Z</time></trkpt><trkpt lat="43.2030667" lon="11.2302983"><ele>195.0</ele><time>2026-03-22T12:35:45.347Z</time></trkpt><trkpt lat="43.2031" lon="11.2302233"><ele>195.0</ele><time>2026-03-22T12:35:46.346Z</time></trkpt><trkpt lat="43.2031583" lon="11.230085"><ele>195.0</ele><time>2026-03-22T12:35:48.347Z</time></trkpt><trkpt lat="43.2031883" lon="11.229955"><ele>195.0</ele><time>2026-03-22T12:35:50.347Z</time></trkpt><trkpt lat="43.2031667" lon="11.230055"><ele>195.0</ele><time>2026-03-22T12:48:48.348Z</time></trkpt><trkpt lat="43.2032067" lon="11.22992"><ele>195.2</ele><time>2026-03-22T12:48:50.347Z</time></trkpt><trkpt lat="43.2032533" lon="11.22984"><ele>195.4</ele><time>2026-03-22T12:48:51.348Z</time></trkpt><trkpt lat="43.2033167" lon="11.2297317"><ele>195.60000000000002</ele><time>2026-03-22T12:48:53.348Z</time></trkpt><trkpt lat="43.2033667" lon="11.2296017"><ele>195.8</ele><time>2026-03-22T12:48:55.347Z</time></trkpt><trkpt lat="43.2033683" lon="11.2294217"><ele>196.0</ele><time>2026-03-22T12:48:57.348Z</time></trkpt><trkpt lat="43.2033583" lon="11.2293183"><ele>195.99999999999997</ele><time>2026-03-22T12:48:58.348Z</time></trkpt><trkpt lat="43.2033417" lon="11.2292083"><ele>196.0</ele><time>2026-03-22T12:48:59.347Z</time></trkpt><trkpt lat="43.20333" lon="11.2290917"><ele>196.0</ele><time>2026-03-22T12:49:00.348Z</time></trkpt><trkpt lat="43.2033167" lon="11.22898"><ele>196.0</ele><time>2026-03-22T12:49:01.348Z</time></trkpt><trkpt lat="43.2033033" lon="11.2288717"><ele>195.99999999999997</ele><time>2026-03-22T12:49:02.348Z</time></trkpt><trkpt lat="43.2032833" lon="11.2287733"><ele>196.0</ele><time>2026-03-22T12:49:03.348Z</time></trkpt><trkpt lat="43.2032533" lon="11.2286917"><ele>197.33333333333331</ele><time>2026-03-22T12:49:04.347Z</time></trkpt><trkpt lat="43.2032067" lon="11.2286217"><ele>198.66666666666666</ele><time>2026-03-22T12:49:05.347Z</time></trkpt><trkpt lat="43.2031467" lon="11.2285633"><ele>200.0</ele><time>2026-03-22T12:49:06.347Z</time></trkpt><trkpt lat="43.2030867" lon="11.2285033"><ele>201.33333333333331</ele><time>2026-03-22T12:49:07.347Z</time></trkpt><trkpt lat="43.2030183" lon="11.228445"><ele>202.66666666666666</ele><time>2026-03-22T12:49:08.347Z</time></trkpt><trkpt lat="43.2029417" lon="11.2283833"><ele>204.0</ele><time>2026-03-22T12:49:09.347Z</time></trkpt><trkpt lat="43.202855" lon="11.228325"><ele>204.2</ele><time>2026-03-22T12:49:10.346Z</time></trkpt><trkpt lat="43.2027683" lon="11.2282583"><ele>204.39999999999998</ele><time>2026-03-22T12:49:11.346Z</time></trkpt><trkpt lat="43.2026783" lon="11.2281983"><ele>204.6</ele><time>2026-03-22T12:49:12.346Z</time></trkpt><trkpt lat="43.2025817" lon="11.2281467"><ele>204.8</ele><time>2026-03-22T12:49:13.347Z</time></trkpt><trkpt lat="43.2024767" lon="11.228105"><ele>205.0</ele><time>2026-03-22T12:49:14.347Z</time></trkpt><trkpt lat="43.20237" lon="11.2280833"><ele>209.2</ele><time>2026-03-22T12:49:15.347Z</time></trkpt><trkpt lat="43.2022633" lon="11.2280683"><ele>213.4</ele><time>2026-03-22T12:49:16.347Z</time></trkpt><trkpt lat="43.202155" lon="11.228055"><ele>217.60000000000002</ele><time>2026-03-22T12:49:17.347Z</time></trkpt><trkpt lat="43.2020483" lon="11.2280467"><ele>221.8</ele><time>2026-03-22T12:49:18.347Z</time></trkpt><trkpt lat="43.2019533" lon="11.228045"><ele>226.0</ele><time>2026-03-22T12:49:19.347Z</time></trkpt><trkpt lat="43.2018483" lon="11.2280667"><ele>226.0</ele><time>2026-03-22T12:49:20.347Z</time></trkpt><trkpt lat="43.201745" lon="11.2280983"><ele>226.0</ele><time>2026-03-22T12:49:21.347Z</time></trkpt><trkpt lat="43.2016317" lon="11.2281217"><ele>226.0</ele><time>2026-03-22T12:49:22.347Z</time></trkpt><trkpt lat="43.201515" lon="11.22815"><ele>226.0</ele><time>2026-03-22T12:49:23.347Z</time></trkpt><trkpt lat="43.2014033" lon="11.228155"><ele>226.0</ele><time>2026-03-22T12:49:24.347Z</time></trkpt><trkpt lat="43.201295" lon="11.228145"><ele>226.00000000000003</ele><time>2026-03-22T12:49:25.347Z</time></trkpt><trkpt lat="43.2011883" lon="11.22814"><ele>226.00000000000003</ele><time>2026-03-22T12:49:26.347Z</time></trkpt><trkpt lat="43.2011033" lon="11.2281367"><ele>226.0</ele><time>2026-03-22T12:49:27.346Z</time></trkpt><trkpt lat="43.201035" lon="11.2281133"><ele>226.0</ele><time>2026-03-22T12:49:28.347Z</time></trkpt><trkpt lat="43.20094" lon="11.2279967"><ele>226.0</ele><time>2026-03-22T12:49:30.347Z</time></trkpt><trkpt lat="43.20089" lon="11.2278933"><ele>226.00000000000003</ele><time>2026-03-22T12:49:31.347Z</time></trkpt><trkpt lat="43.2008467" lon="11.2277717"><ele>226.00000000000003</ele><time>2026-03-22T12:49:32.347Z</time></trkpt><trkpt lat="43.2007933" lon="11.22765"><ele>226.0</ele><time>2026-03-22T12:49:33.347Z</time></trkpt><trkpt lat="43.2007333" lon="11.2275167"><ele>226.0</ele><time>2026-03-22T12:49:34.347Z</time></trkpt><trkpt lat="43.2006633" lon="11.2273733"><ele>226.5</ele><time>2026-03-22T12:49:35.347Z</time></trkpt><trkpt lat="43.2005833" lon="11.2272167"><ele>227.0</ele><time>2026-03-22T12:49:36.347Z</time></trkpt><trkpt lat="43.2005067" lon="11.2270633"><ele>227.5</ele><time>2026-03-22T12:49:37.347Z</time></trkpt><trkpt lat="43.200435" lon="11.226915"><ele>228.0</ele><time>2026-03-22T12:49:38.347Z</time></trkpt><trkpt lat="43.200365" lon="11.2267667"><ele>228.0</ele><time>2026-03-22T12:49:39.347Z</time></trkpt><trkpt lat="43.20031" lon="11.22662"><ele>228.0</ele><time>2026-03-22T12:49:40.346Z</time></trkpt><trkpt lat="43.20027" lon="11.2264783"><ele>228.0</ele><time>2026-03-22T12:49:41.347Z</time></trkpt><trkpt lat="43.2002367" lon="11.2263217"><ele>228.0</ele><time>2026-03-22T12:49:42.347Z</time></trkpt><trkpt lat="43.2002017" lon="11.2261583"><ele>228.25</ele><time>2026-03-22T12:49:43.346Z</time></trkpt><trkpt lat="43.2001517" lon="11.2259783"><ele>228.5</ele><time>2026-03-22T12:49:44.346Z</time></trkpt><trkpt lat="43.2001033" lon="11.225795"><ele>228.75</ele><time>2026-03-22T12:49:45.346Z</time></trkpt><trkpt lat="43.2000583" lon="11.22561"><ele>229.0</ele><time>2026-03-22T12:49:46.347Z</time></trkpt><trkpt lat="43.2000167" lon="11.2254183"><ele>229.5</ele><time>2026-03-22T12:49:47.346Z</time></trkpt><trkpt lat="43.1999683" lon="11.22524"><ele>230.0</ele><time>2026-03-22T12:49:48.347Z</time></trkpt><trkpt lat="43.1999083" lon="11.2250983"><ele>230.5</ele><time>2026-03-22T12:49:49.347Z</time></trkpt><trkpt lat="43.1998433" lon="11.2249583"><ele>231.0</ele><time>2026-03-22T12:49:50.347Z</time></trkpt><trkpt lat="43.1997683" lon="11.2248417"><ele>231.0</ele><time>2026-03-22T12:49:51.347Z</time></trkpt><trkpt lat="43.1996867" lon="11.2247533"><ele>231.00000000000003</ele><time>2026-03-22T12:49:52.347Z</time></trkpt><trkpt lat="43.1995967" lon="11.2246767"><ele>231.00000000000003</ele><time>2026-03-22T12:49:53.347Z</time></trkpt><trkpt lat="43.1995017" lon="11.2246117"><ele>231.0</ele><time>2026-03-22T12:49:54.346Z</time></trkpt><trkpt lat="43.1993933" lon="11.2245517"><ele>231.0</ele><time>2026-03-22T12:49:55.347Z</time></trkpt><trkpt lat="43.1992783" lon="11.2244883"><ele>231.0</ele><time>2026-03-22T12:49:56.346Z</time></trkpt><trkpt lat="43.19916" lon="11.2244033"><ele>231.0</ele><time>2026-03-22T12:49:57.346Z</time></trkpt><trkpt lat="43.1990467" lon="11.2242967"><ele>231.0</ele><time>2026-03-22T12:49:58.347Z</time></trkpt><trkpt lat="43.19894" lon="11.224165"><ele>231.0</ele><time>2026-03-22T12:49:59.346Z</time></trkpt><trkpt lat="43.1988383" lon="11.2240333"><ele>229.60000000000002</ele><time>2026-03-22T12:50:00.346Z</time></trkpt><trkpt lat="43.1987383" lon="11.2239067"><ele>228.20000000000002</ele><time>2026-03-22T12:50:01.347Z</time></trkpt><trkpt lat="43.1986333" lon="11.22381"><ele>226.79999999999998</ele><time>2026-03-22T12:50:02.346Z</time></trkpt><trkpt lat="43.1985483" lon="11.2237567"><ele>225.39999999999998</ele><time>2026-03-22T12:50:03.346Z</time></trkpt><trkpt lat="43.1984567" lon="11.2237333"><ele>224.0</ele><time>2026-03-22T12:50:04.347Z</time></trkpt><trkpt lat="43.19835" lon="11.2237517"><ele>224.0</ele><time>2026-03-22T12:50:05.347Z</time></trkpt><trkpt lat="43.1982383" lon="11.22378"><ele>223.99999999999997</ele><time>2026-03-22T12:50:06.347Z</time></trkpt><trkpt lat="43.1981333" lon="11.2237767"><ele>223.99999999999997</ele><time>2026-03-22T12:50:07.347Z</time></trkpt><trkpt lat="43.1980283" lon="11.2237483"><ele>224.0</ele><time>2026-03-22T12:50:08.347Z</time></trkpt><trkpt lat="43.1979333" lon="11.2236817"><ele>224.0</ele><time>2026-03-22T12:50:09.347Z</time></trkpt><trkpt lat="43.197845" lon="11.2235767"><ele>228.25</ele><time>2026-03-22T12:50:10.347Z</time></trkpt><trkpt lat="43.19776" lon="11.2234533"><ele>232.5</ele><time>2026-03-22T12:50:11.347Z</time></trkpt><trkpt lat="43.19768" lon="11.2233233"><ele>236.75</ele><time>2026-03-22T12:50:12.347Z</time></trkpt><trkpt lat="43.1975767" lon="11.2232433"><ele>241.0</ele><time>2026-03-22T12:50:13.346Z</time></trkpt><trkpt lat="43.1974783" lon="11.2231833"><ele>242.5</ele><time>2026-03-22T12:50:14.347Z</time></trkpt><trkpt lat="43.197365" lon="11.2231417"><ele>244.0</ele><time>2026-03-22T12:50:15.347Z</time></trkpt><trkpt lat="43.1972483" lon="11.2231033"><ele>245.5</ele><time>2026-03-22T12:50:16.346Z</time></trkpt><trkpt lat="43.1971333" lon="11.2230483"><ele>247.0</ele><time>2026-03-22T12:50:17.347Z</time></trkpt><trkpt lat="43.1970233" lon="11.2229533"><ele>247.0</ele><time>2026-03-22T12:50:18.346Z</time></trkpt><trkpt lat="43.196925" lon="11.2228267"><ele>247.0</ele><time>2026-03-22T12:50:19.347Z</time></trkpt><trkpt lat="43.1968417" lon="11.2226817"><ele>247.0</ele><time>2026-03-22T12:50:20.347Z</time></trkpt><trkpt lat="43.1967517" lon="11.2225183"><ele>247.0</ele><time>2026-03-22T12:50:21.346Z</time></trkpt><trkpt lat="43.1966617" lon="11.222345"><ele>248.33333333333331</ele><time>2026-03-22T12:50:22.347Z</time></trkpt><trkpt lat="43.19656" lon="11.2221733"><ele>249.66666666666669</ele><time>2026-03-22T12:50:23.347Z</time></trkpt><trkpt lat="43.1964567" lon="11.2219967"><ele>251.0</ele><time>2026-03-22T12:50:24.347Z</time></trkpt><trkpt lat="43.19635" lon="11.22181"><ele>251.0</ele><time>2026-03-22T12:50:25.346Z</time></trkpt><trkpt lat="43.1962217" lon="11.2216333"><ele>251.0</ele><time>2026-03-22T12:50:26.347Z</time></trkpt><trkpt lat="43.1961133" lon="11.2214833"><ele>251.0</ele><time>2026-03-22T12:50:27.347Z</time></trkpt><trkpt lat="43.1959917" lon="11.2213583"><ele>249.0</ele><time>2026-03-22T12:50:28.346Z</time></trkpt><trkpt lat="43.1958767" lon="11.221245"><ele>247.0</ele><time>2026-03-22T12:50:29.347Z</time></trkpt><trkpt lat="43.1957433" lon="11.2211667"><ele>245.0</ele><time>2026-03-22T12:50:30.347Z</time></trkpt><trkpt lat="43.1955967" lon="11.2211217"><ele>243.0</ele><time>2026-03-22T12:50:31.347Z</time></trkpt><trkpt lat="43.195445" lon="11.2210833"><ele>243.0</ele><time>2026-03-22T12:50:32.346Z</time></trkpt><trkpt lat="43.19529" lon="11.22104"><ele>243.0</ele><time>2026-03-22T12:50:33.347Z</time></trkpt><trkpt lat="43.1951317" lon="11.2209917"><ele>243.0</ele><time>2026-03-22T12:50:34.346Z</time></trkpt><trkpt lat="43.1949633" lon="11.2209233"><ele>244.66666666666669</ele><time>2026-03-22T12:50:35.347Z</time></trkpt><trkpt lat="43.1948117" lon="11.2208467"><ele>246.33333333333334</ele><time>2026-03-22T12:50:36.347Z</time></trkpt><trkpt lat="43.194645" lon="11.2207783"><ele>248.0</ele><time>2026-03-22T12:50:37.347Z</time></trkpt><trkpt lat="43.1944783" lon="11.2207217"><ele>248.0</ele><time>2026-03-22T12:50:38.347Z</time></trkpt><trkpt lat="43.19432" lon="11.2206833"><ele>248.0</ele><time>2026-03-22T12:50:39.347Z</time></trkpt><trkpt lat="43.194155" lon="11.2206783"><ele>248.0</ele><time>2026-03-22T12:50:40.346Z</time></trkpt><trkpt lat="43.19398" lon="11.2206983"><ele>248.33333333333334</ele><time>2026-03-22T12:50:41.347Z</time></trkpt><trkpt lat="43.1937883" lon="11.2207233"><ele>248.66666666666669</ele><time>2026-03-22T12:50:42.346Z</time></trkpt><trkpt lat="43.1936" lon="11.2207483"><ele>249.0</ele><time>2026-03-22T12:50:43.347Z</time></trkpt><trkpt lat="43.193415" lon="11.2207683"><ele>249.0</ele><time>2026-03-22T12:50:44.347Z</time></trkpt><trkpt lat="43.1932167" lon="11.2207933"><ele>249.0</ele><time>2026-03-22T12:50:45.347Z</time></trkpt><trkpt lat="43.19303" lon="11.220825"><ele>249.0</ele><time>2026-03-22T12:50:46.347Z</time></trkpt><trkpt lat="43.1928417" lon="11.2208533"><ele>248.66666666666669</ele><time>2026-03-22T12:50:47.347Z</time></trkpt><trkpt lat="43.19266" lon="11.22087"><ele>248.33333333333334</ele><time>2026-03-22T12:50:48.347Z</time></trkpt><trkpt lat="43.1924733" lon="11.2208867"><ele>248.0</ele><time>2026-03-22T12:50:49.347Z</time></trkpt><trkpt lat="43.1922767" lon="11.2209133"><ele>245.66666666666669</ele><time>2026-03-22T12:50:50.347Z</time></trkpt><trkpt lat="43.1920883" lon="11.2209483"><ele>243.33333333333331</ele><time>2026-03-22T12:50:51.347Z</time></trkpt><trkpt lat="43.1918867" lon="11.2210033"><ele>241.0</ele><time>2026-03-22T12:50:52.347Z</time></trkpt><trkpt lat="43.1917" lon="11.2210567"><ele>241.0</ele><time>2026-03-22T12:50:53.347Z</time></trkpt><trkpt lat="43.1915267" lon="11.2211117"><ele>241.0</ele><time>2026-03-22T12:50:54.347Z</time></trkpt><trkpt lat="43.1913667" lon="11.2211617"><ele>241.0</ele><time>2026-03-22T12:50:55.346Z</time></trkpt><trkpt lat="43.191215" lon="11.22123"><ele>238.66666666666666</ele><time>2026-03-22T12:50:56.346Z</time></trkpt><trkpt lat="43.1910683" lon="11.22133"><ele>236.33333333333331</ele><time>2026-03-22T12:50:57.347Z</time></trkpt><trkpt lat="43.1909233" lon="11.221455"><ele>234.0</ele><time>2026-03-22T12:50:58.347Z</time></trkpt><trkpt lat="43.1907967" lon="11.221575"><ele>236.79999999999998</ele><time>2026-03-22T12:50:59.346Z</time></trkpt><trkpt lat="43.19069" lon="11.2216817"><ele>239.59999999999997</ele><time>2026-03-22T12:51:00.346Z</time></trkpt><trkpt lat="43.1905867" lon="11.22174"><ele>242.4</ele><time>2026-03-22T12:51:01.346Z</time></trkpt><trkpt lat="43.19049" lon="11.221755"><ele>245.2</ele><time>2026-03-22T12:51:02.347Z</time></trkpt><trkpt lat="43.1904017" lon="11.22172"><ele>248.0</ele><time>2026-03-22T12:51:03.347Z</time></trkpt><trkpt lat="43.1903067" lon="11.2216617"><ele>248.0</ele><time>2026-03-22T12:51:04.347Z</time></trkpt><trkpt lat="43.1902" lon="11.221575"><ele>248.0</ele><time>2026-03-22T12:51:05.347Z</time></trkpt><trkpt lat="43.1900817" lon="11.2215217"><ele>248.0</ele><time>2026-03-22T12:51:06.346Z</time></trkpt><trkpt lat="43.189955" lon="11.2215067"><ele>248.0</ele><time>2026-03-22T12:51:07.347Z</time></trkpt><trkpt lat="43.1898133" lon="11.2215433"><ele>244.66666666666669</ele><time>2026-03-22T12:51:08.347Z</time></trkpt><trkpt lat="43.1896583" lon="11.221595"><ele>241.33333333333331</ele><time>2026-03-22T12:51:09.347Z</time></trkpt><trkpt lat="43.189505" lon="11.2216717"><ele>238.0</ele><time>2026-03-22T12:51:10.347Z</time></trkpt><trkpt lat="43.189355" lon="11.2217783"><ele>238.0</ele><time>2026-03-22T12:51:11.347Z</time></trkpt><trkpt lat="43.1892117" lon="11.2219017"><ele>238.0</ele><time>2026-03-22T12:51:12.347Z</time></trkpt><trkpt lat="43.1890667" lon="11.2220233"><ele>238.0</ele><time>2026-03-22T12:51:13.347Z</time></trkpt><trkpt lat="43.18892" lon="11.22211"><ele>241.0</ele><time>2026-03-22T12:51:14.347Z</time></trkpt><trkpt lat="43.18877" lon="11.222185"><ele>244.0</ele><time>2026-03-22T12:51:15.347Z</time></trkpt><trkpt lat="43.1886117" lon="11.22226"><ele>247.0</ele><time>2026-03-22T12:51:16.347Z</time></trkpt><trkpt lat="43.1884583" lon="11.2223783"><ele>247.0</ele><time>2026-03-22T12:51:17.347Z</time></trkpt><trkpt lat="43.1883133" lon="11.2225133"><ele>247.0</ele><time>2026-03-22T12:51:18.347Z</time></trkpt><trkpt lat="43.188185" lon="11.222655"><ele>247.0</ele><time>2026-03-22T12:51:19.347Z</time></trkpt><trkpt lat="43.1880583" lon="11.2228133"><ele>247.0</ele><time>2026-03-22T12:51:20.346Z</time></trkpt><trkpt lat="43.18795" lon="11.2229683"><ele>247.0</ele><time>2026-03-22T12:51:21.346Z</time></trkpt><trkpt lat="43.187855" lon="11.2231383"><ele>247.0</ele><time>2026-03-22T12:51:22.347Z</time></trkpt><trkpt lat="43.1877733" lon="11.2232983"><ele>247.0</ele><time>2026-03-22T12:51:23.347Z</time></trkpt><trkpt lat="43.1876817" lon="11.22344"><ele>247.0</ele><time>2026-03-22T12:51:24.347Z</time></trkpt><trkpt lat="43.1875717" lon="11.2235717"><ele>247.0</ele><time>2026-03-22T12:51:25.347Z</time></trkpt><trkpt lat="43.1874417" lon="11.2236817"><ele>247.0</ele><time>2026-03-22T12:51:26.347Z</time></trkpt><trkpt lat="43.18731" lon="11.2237783"><ele>245.0</ele><time>2026-03-22T12:51:27.347Z</time></trkpt><trkpt lat="43.18716" lon="11.2238567"><ele>243.0</ele><time>2026-03-22T12:51:28.346Z</time></trkpt><trkpt lat="43.1870133" lon="11.2239133"><ele>241.0</ele><time>2026-03-22T12:51:29.347Z</time></trkpt><trkpt lat="43.1868583" lon="11.2239483"><ele>241.0</ele><time>2026-03-22T12:51:30.347Z</time></trkpt><trkpt lat="43.186685" lon="11.2239667"><ele>241.0</ele><time>2026-03-22T12:51:31.346Z</time></trkpt><trkpt lat="43.1865033" lon="11.2239733"><ele>241.0</ele><time>2026-03-22T12:51:32.347Z</time></trkpt><trkpt lat="43.186315" lon="11.2239617"><ele>241.0</ele><time>2026-03-22T12:51:33.346Z</time></trkpt><trkpt lat="43.1861417" lon="11.223955"><ele>241.0</ele><time>2026-03-22T12:51:34.346Z</time></trkpt><trkpt lat="43.1859467" lon="11.2239533"><ele>241.0</ele><time>2026-03-22T12:51:35.347Z</time></trkpt><trkpt lat="43.1857533" lon="11.22396"><ele>241.33333333333331</ele><time>2026-03-22T12:51:36.347Z</time></trkpt><trkpt lat="43.185575" lon="11.2239617"><ele>241.66666666666669</ele><time>2026-03-22T12:51:37.347Z</time></trkpt><trkpt lat="43.18539" lon="11.2239583"><ele>242.0</ele><time>2026-03-22T12:51:38.347Z</time></trkpt><trkpt lat="43.1852117" lon="11.2239383"><ele>242.0</ele><time>2026-03-22T12:51:39.347Z</time></trkpt><trkpt lat="43.185055" lon="11.22391"><ele>242.0</ele><time>2026-03-22T12:51:40.347Z</time></trkpt><trkpt lat="43.18491" lon="11.2238683"><ele>242.0</ele><time>2026-03-22T12:51:41.346Z</time></trkpt><trkpt lat="43.1847817" lon="11.223815"><ele>242.0</ele><time>2026-03-22T12:51:42.347Z</time></trkpt><trkpt lat="43.1846633" lon="11.2237717"><ele>242.39999999999998</ele><time>2026-03-22T12:51:43.347Z</time></trkpt><trkpt lat="43.1845517" lon="11.2237633"><ele>242.79999999999998</ele><time>2026-03-22T12:51:44.347Z</time></trkpt><trkpt lat="43.184465" lon="11.2237817"><ele>243.2</ele><time>2026-03-22T12:51:45.347Z</time></trkpt><trkpt lat="43.18438" lon="11.2238317"><ele>243.6</ele><time>2026-03-22T12:51:46.346Z</time></trkpt><trkpt lat="43.1843017" lon="11.2239133"><ele>244.0</ele><time>2026-03-22T12:51:47.346Z</time></trkpt><trkpt lat="43.1842417" lon="11.2240333"><ele>247.75</ele><time>2026-03-22T12:51:48.347Z</time></trkpt><trkpt lat="43.1842017" lon="11.224185"><ele>251.5</ele><time>2026-03-22T12:51:49.347Z</time></trkpt><trkpt lat="43.1841733" lon="11.2243683"><ele>255.25</ele><time>2026-03-22T12:51:50.347Z</time></trkpt><trkpt lat="43.1841533" lon="11.224545"><ele>259.0</ele><time>2026-03-22T12:51:51.347Z</time></trkpt><trkpt lat="43.1841283" lon="11.2247"><ele>261.5</ele><time>2026-03-22T12:51:52.347Z</time></trkpt><trkpt lat="43.1841033" lon="11.2248183"><ele>264.0</ele><time>2026-03-22T12:51:53.347Z</time></trkpt><trkpt lat="43.1840683" lon="11.2249033"><ele>266.5</ele><time>2026-03-22T12:51:54.346Z</time></trkpt><trkpt lat="43.1840183" lon="11.2249683"><ele>269.0</ele><time>2026-03-22T12:51:55.347Z</time></trkpt><trkpt lat="43.1839483" lon="11.2250117"><ele>271.5</ele><time>2026-03-22T12:51:56.347Z</time></trkpt><trkpt lat="43.1838667" lon="11.22504"><ele>274.0</ele><time>2026-03-22T12:51:57.347Z</time></trkpt><trkpt lat="43.1837767" lon="11.2250133"><ele>275.8</ele><time>2026-03-22T12:51:58.346Z</time></trkpt><trkpt lat="43.1836967" lon="11.22495"><ele>277.59999999999997</ele><time>2026-03-22T12:51:59.347Z</time></trkpt><trkpt lat="43.1836217" lon="11.224835"><ele>279.4</ele><time>2026-03-22T12:52:00.347Z</time></trkpt><trkpt lat="43.18354" lon="11.2247067"><ele>281.2</ele><time>2026-03-22T12:52:01.346Z</time></trkpt><trkpt lat="43.1834733" lon="11.2245767"><ele>283.0</ele><time>2026-03-22T12:52:02.346Z</time></trkpt><trkpt lat="43.1834167" lon="11.2244717"><ele>281.0</ele><time>2026-03-22T12:52:03.346Z</time></trkpt><trkpt lat="43.183355" lon="11.22438"><ele>279.0</ele><time>2026-03-22T12:52:04.346Z</time></trkpt><trkpt lat="43.1832817" lon="11.2243017"><ele>277.0</ele><time>2026-03-22T12:52:05.347Z</time></trkpt><trkpt lat="43.1831967" lon="11.2242317"><ele>275.0</ele><time>2026-03-22T12:52:06.347Z</time></trkpt><trkpt lat="43.183115" lon="11.2241483"><ele>273.0</ele><time>2026-03-22T12:52:07.347Z</time></trkpt><trkpt lat="43.183025" lon="11.224085"><ele>273.0</ele><time>2026-03-22T12:52:08.347Z</time></trkpt><trkpt lat="43.18294" lon="11.22404"><ele>273.0</ele><time>2026-03-22T12:52:09.347Z</time></trkpt><trkpt lat="43.1828533" lon="11.22399"><ele>273.0</ele><time>2026-03-22T12:52:10.347Z</time></trkpt><trkpt lat="43.1827617" lon="11.2239567"><ele>273.0</ele><time>2026-03-22T12:52:11.346Z</time></trkpt><trkpt lat="43.18264" lon="11.22394"><ele>273.0</ele><time>2026-03-22T12:52:12.347Z</time></trkpt><trkpt lat="43.1825167" lon="11.2239217"><ele>272.25</ele><time>2026-03-22T12:52:13.346Z</time></trkpt><trkpt lat="43.1824083" lon="11.2238817"><ele>271.5</ele><time>2026-03-22T12:52:14.346Z</time></trkpt><trkpt lat="43.1823083" lon="11.2238033"><ele>270.75</ele><time>2026-03-22T12:52:15.347Z</time></trkpt><trkpt lat="43.18222" lon="11.2236867"><ele>270.0</ele><time>2026-03-22T12:52:16.347Z</time></trkpt><trkpt lat="43.1821317" lon="11.2235567"><ele>270.0</ele><time>2026-03-22T12:52:17.348Z</time></trkpt><trkpt lat="43.1820333" lon="11.223425"><ele>270.0</ele><time>2026-03-22T12:52:18.348Z</time></trkpt><trkpt lat="43.1819233" lon="11.2233183"><ele>270.0</ele><time>2026-03-22T12:52:19.347Z</time></trkpt><trkpt lat="43.181785" lon="11.223245"><ele>270.0</ele><time>2026-03-22T12:52:20.348Z</time></trkpt><trkpt lat="43.18164" lon="11.22319"><ele>270.25</ele><time>2026-03-22T12:52:21.347Z</time></trkpt><trkpt lat="43.1815017" lon="11.2231483"><ele>270.5</ele><time>2026-03-22T12:52:22.348Z</time></trkpt><trkpt lat="43.1813567" lon="11.22314"><ele>270.75</ele><time>2026-03-22T12:52:23.348Z</time></trkpt><trkpt lat="43.1811983" lon="11.2231683"><ele>271.0</ele><time>2026-03-22T12:52:24.348Z</time></trkpt><trkpt lat="43.1810417" lon="11.2231967"><ele>271.0</ele><time>2026-03-22T12:52:25.348Z</time></trkpt><trkpt lat="43.1808517" lon="11.223265"><ele>271.0</ele><time>2026-03-22T12:52:26.347Z</time></trkpt><trkpt lat="43.1806583" lon="11.22332"><ele>271.0</ele><time>2026-03-22T12:52:27.348Z</time></trkpt><trkpt lat="43.180475" lon="11.223385"><ele>268.0</ele><time>2026-03-22T12:52:28.348Z</time></trkpt><trkpt lat="43.1802983" lon="11.2234417"><ele>265.0</ele><time>2026-03-22T12:52:29.348Z</time></trkpt><trkpt lat="43.1801233" lon="11.2234967"><ele>262.0</ele><time>2026-03-22T12:52:30.348Z</time></trkpt><trkpt lat="43.179935" lon="11.223575"><ele>259.0</ele><time>2026-03-22T12:52:31.348Z</time></trkpt><trkpt lat="43.1797417" lon="11.2237017"><ele>256.0</ele><time>2026-03-22T12:52:32.348Z</time></trkpt><trkpt lat="43.1795383" lon="11.2238617"><ele>253.0</ele><time>2026-03-22T12:52:33.348Z</time></trkpt><trkpt lat="43.1793333" lon="11.2240283"><ele>258.3333333333333</ele><time>2026-03-22T12:52:34.347Z</time></trkpt><trkpt lat="43.1791283" lon="11.2241717"><ele>263.6666666666667</ele><time>2026-03-22T12:52:35.348Z</time></trkpt><trkpt lat="43.1789583" lon="11.2242883"><ele>269.0</ele><time>2026-03-22T12:52:36.348Z</time></trkpt><trkpt lat="43.1788017" lon="11.224395"><ele>269.0</ele><time>2026-03-22T12:52:37.348Z</time></trkpt><trkpt lat="43.1786583" lon="11.2245067"><ele>269.0</ele><time>2026-03-22T12:52:38.347Z</time></trkpt><trkpt lat="43.1785283" lon="11.224605"><ele>269.0</ele><time>2026-03-22T12:52:39.347Z</time></trkpt><trkpt lat="43.17839" lon="11.224685"><ele>269.0</ele><time>2026-03-22T12:52:40.348Z</time></trkpt><trkpt lat="43.1782583" lon="11.2247517"><ele>269.0</ele><time>2026-03-22T12:52:41.347Z</time></trkpt><trkpt lat="43.1781317" lon="11.2247767"><ele>269.0</ele><time>2026-03-22T12:52:42.348Z</time></trkpt><trkpt lat="43.1780033" lon="11.224765"><ele>269.0</ele><time>2026-03-22T12:52:43.348Z</time></trkpt><trkpt lat="43.177865" lon="11.2247283"><ele>267.25</ele><time>2026-03-22T12:52:44.348Z</time></trkpt><trkpt lat="43.1777233" lon="11.2246833"><ele>265.5</ele><time>2026-03-22T12:52:45.347Z</time></trkpt><trkpt lat="43.1775833" lon="11.2246433"><ele>263.75</ele><time>2026-03-22T12:52:46.348Z</time></trkpt><trkpt lat="43.177445" lon="11.2246383"><ele>262.0</ele><time>2026-03-22T12:52:47.348Z</time></trkpt><trkpt lat="43.177315" lon="11.2246517"><ele>258.75</ele><time>2026-03-22T12:52:48.348Z</time></trkpt><trkpt lat="43.1771917" lon="11.2247033"><ele>255.5</ele><time>2026-03-22T12:52:49.348Z</time></trkpt><trkpt lat="43.17708" lon="11.2247917"><ele>252.25</ele><time>2026-03-22T12:52:50.347Z</time></trkpt><trkpt lat="43.1769683" lon="11.2248917"><ele>249.0</ele><time>2026-03-22T12:52:51.348Z</time></trkpt><trkpt lat="43.1768517" lon="11.2249567"><ele>257.0</ele><time>2026-03-22T12:52:52.348Z</time></trkpt><trkpt lat="43.1767483" lon="11.2249833"><ele>265.0</ele><time>2026-03-22T12:52:53.348Z</time></trkpt><trkpt lat="43.1766333" lon="11.2249733"><ele>273.0</ele><time>2026-03-22T12:52:54.348Z</time></trkpt><trkpt lat="43.1765183" lon="11.2249783"><ele>281.0</ele><time>2026-03-22T12:52:55.347Z</time></trkpt><trkpt lat="43.176405" lon="11.225025"><ele>281.5</ele><time>2026-03-22T12:52:56.348Z</time></trkpt><trkpt lat="43.1762767" lon="11.2251133"><ele>282.0</ele><time>2026-03-22T12:52:57.348Z</time></trkpt><trkpt lat="43.17616" lon="11.2251867"><ele>282.5</ele><time>2026-03-22T12:52:58.348Z</time></trkpt><trkpt lat="43.1760317" lon="11.2252133"><ele>283.0</ele><time>2026-03-22T12:52:59.347Z</time></trkpt><trkpt lat="43.175885" lon="11.2251883"><ele>283.0</ele><time>2026-03-22T12:53:00.348Z</time></trkpt><trkpt lat="43.1757383" lon="11.22513"><ele>283.0</ele><time>2026-03-22T12:53:01.348Z</time></trkpt><trkpt lat="43.17561" lon="11.2250767"><ele>283.0</ele><time>2026-03-22T12:53:02.348Z</time></trkpt><trkpt lat="43.175485" lon="11.225065"><ele>283.0</ele><time>2026-03-22T12:53:03.348Z</time></trkpt><trkpt lat="43.1753567" lon="11.2250967"><ele>281.0</ele><time>2026-03-22T12:53:04.348Z</time></trkpt><trkpt lat="43.1752217" lon="11.22517"><ele>279.0</ele><time>2026-03-22T12:53:05.348Z</time></trkpt><trkpt lat="43.17508" lon="11.2252583"><ele>277.0</ele><time>2026-03-22T12:53:06.347Z</time></trkpt><trkpt lat="43.174955" lon="11.22533"><ele>275.0</ele><time>2026-03-22T12:53:07.347Z</time></trkpt><trkpt lat="43.1748533" lon="11.2254183"><ele>279.0</ele><time>2026-03-22T12:53:08.348Z</time></trkpt><trkpt lat="43.1747717" lon="11.2255317"><ele>283.0</ele><time>2026-03-22T12:53:09.347Z</time></trkpt><trkpt lat="43.174695" lon="11.2256717"><ele>287.0</ele><time>2026-03-22T12:53:10.348Z</time></trkpt><trkpt lat="43.174605" lon="11.22581"><ele>291.0</ele><time>2026-03-22T12:53:11.348Z</time></trkpt><trkpt lat="43.1745067" lon="11.2259033"><ele>291.0</ele><time>2026-03-22T12:53:12.348Z</time></trkpt><trkpt lat="43.1744267" lon="11.225935"><ele>291.0</ele><time>2026-03-22T12:53:13.348Z</time></trkpt><trkpt lat="43.1743433" lon="11.22593"><ele>291.0</ele><time>2026-03-22T12:53:14.347Z</time></trkpt><trkpt lat="43.1742767" lon="11.2258817"><ele>291.0</ele><time>2026-03-22T12:53:15.348Z</time></trkpt><trkpt lat="43.17424" lon="11.2257583"><ele>291.0</ele><time>2026-03-22T12:53:16.347Z</time></trkpt><trkpt lat="43.1741717" lon="11.2256017"><ele>291.0</ele><time>2026-03-22T12:53:17.348Z</time></trkpt><trkpt lat="43.17411" lon="11.2254167"><ele>291.0</ele><time>2026-03-22T12:53:18.348Z</time></trkpt><trkpt lat="43.1740533" lon="11.2251917"><ele>291.0</ele><time>2026-03-22T12:53:19.348Z</time></trkpt><trkpt lat="43.1740083" lon="11.2249783"><ele>288.2</ele><time>2026-03-22T12:53:20.348Z</time></trkpt><trkpt lat="43.1739817" lon="11.2247917"><ele>285.40000000000003</ele><time>2026-03-22T12:53:21.348Z</time></trkpt><trkpt lat="43.1739483" lon="11.2246633"><ele>282.6</ele><time>2026-03-22T12:53:22.347Z</time></trkpt><trkpt lat="43.1738983" lon="11.224585"><ele>279.8</ele><time>2026-03-22T12:53:23.348Z</time></trkpt><trkpt lat="43.1738417" lon="11.2245383"><ele>277.0</ele><time>2026-03-22T12:53:24.347Z</time></trkpt><trkpt lat="43.17377" lon="11.2245083"><ele>277.0</ele><time>2026-03-22T12:53:25.348Z</time></trkpt><trkpt lat="43.1737" lon="11.2244917"><ele>277.0</ele><time>2026-03-22T12:53:26.348Z</time></trkpt><trkpt lat="43.1736017" lon="11.22453"><ele>277.0</ele><time>2026-03-22T12:53:27.348Z</time></trkpt><trkpt lat="43.1734633" lon="11.2246117"><ele>277.0</ele><time>2026-03-22T12:53:28.348Z</time></trkpt><trkpt lat="43.17327" lon="11.22475"><ele>285.3333333333333</ele><time>2026-03-22T12:53:29.348Z</time></trkpt><trkpt lat="43.1730667" lon="11.22489"><ele>293.6666666666667</ele><time>2026-03-22T12:53:30.348Z</time></trkpt><trkpt lat="43.17288" lon="11.225015"><ele>302.0</ele><time>2026-03-22T12:53:31.348Z</time></trkpt><trkpt lat="43.1727283" lon="11.2250667"><ele>302.0</ele><time>2026-03-22T12:53:32.348Z</time></trkpt><trkpt lat="43.1725933" lon="11.2250833"><ele>302.0</ele><time>2026-03-22T12:53:33.348Z</time></trkpt><trkpt lat="43.1724933" lon="11.225055"><ele>302.0</ele><time>2026-03-22T12:53:34.348Z</time></trkpt><trkpt lat="43.1724267" lon="11.2249867"><ele>302.0</ele><time>2026-03-22T12:53:35.348Z</time></trkpt><trkpt lat="43.17236" lon="11.2248583"><ele>302.0</ele><time>2026-03-22T12:53:36.348Z</time></trkpt><trkpt lat="43.1722883" lon="11.2247117"><ele>301.0</ele><time>2026-03-22T12:53:37.347Z</time></trkpt><trkpt lat="43.1722133" lon="11.2245883"><ele>300.0</ele><time>2026-03-22T12:53:38.348Z</time></trkpt><trkpt lat="43.17211" lon="11.2244917"><ele>299.0</ele><time>2026-03-22T12:53:39.348Z</time></trkpt><trkpt lat="43.1720083" lon="11.2244383"><ele>298.0</ele><time>2026-03-22T12:53:40.347Z</time></trkpt><trkpt lat="43.1718883" lon="11.2244117"><ele>298.0</ele><time>2026-03-22T12:53:41.348Z</time></trkpt><trkpt lat="43.171745" lon="11.2243983"><ele>298.0</ele><time>2026-03-22T12:53:42.348Z</time></trkpt><trkpt lat="43.1716117" lon="11.2243667"><ele>298.0</ele><time>2026-03-22T12:53:43.347Z</time></trkpt><trkpt lat="43.171495" lon="11.22429"><ele>298.0</ele><time>2026-03-22T12:53:44.348Z</time></trkpt><trkpt lat="43.17138" lon="11.2241733"><ele>302.66666666666663</ele><time>2026-03-22T12:53:45.348Z</time></trkpt><trkpt lat="43.1712483" lon="11.22406"><ele>307.3333333333333</ele><time>2026-03-22T12:53:46.347Z</time></trkpt><trkpt lat="43.1710933" lon="11.223965"><ele>312.0</ele><time>2026-03-22T12:53:47.348Z</time></trkpt><trkpt lat="43.1709283" lon="11.2238933"><ele>310.0</ele><time>2026-03-22T12:53:48.347Z</time></trkpt><trkpt lat="43.17077" lon="11.22386"><ele>308.0</ele><time>2026-03-22T12:53:49.348Z</time></trkpt><trkpt lat="43.170605" lon="11.2238583"><ele>306.0</ele><time>2026-03-22T12:53:50.347Z</time></trkpt><trkpt lat="43.1704633" lon="11.2238683"><ele>306.0</ele><time>2026-03-22T12:53:51.348Z</time></trkpt><trkpt lat="43.1703567" lon="11.2238567"><ele>306.0</ele><time>2026-03-22T12:53:52.348Z</time></trkpt><trkpt lat="43.17027" lon="11.2238217"><ele>306.0</ele><time>2026-03-22T12:53:53.348Z</time></trkpt><trkpt lat="43.1702117" lon="11.2237233"><ele>306.0</ele><time>2026-03-22T12:53:54.348Z</time></trkpt><trkpt lat="43.170155" lon="11.2236"><ele>306.0</ele><time>2026-03-22T12:53:55.347Z</time></trkpt><trkpt lat="43.1700883" lon="11.2234383"><ele>306.0</ele><time>2026-03-22T12:53:56.348Z</time></trkpt><trkpt lat="43.169995" lon="11.223275"><ele>306.0</ele><time>2026-03-22T12:53:57.348Z</time></trkpt><trkpt lat="43.1698983" lon="11.2231067"><ele>306.0</ele><time>2026-03-22T12:53:58.348Z</time></trkpt><trkpt lat="43.1698083" lon="11.2229583"><ele>306.0</ele><time>2026-03-22T12:53:59.348Z</time></trkpt><trkpt lat="43.169725" lon="11.22285"><ele>304.5</ele><time>2026-03-22T12:54:00.348Z</time></trkpt><trkpt lat="43.1696167" lon="11.2227967"><ele>303.0</ele><time>2026-03-22T12:54:01.348Z</time></trkpt><trkpt lat="43.16951" lon="11.22277"><ele>301.5</ele><time>2026-03-22T12:54:02.348Z</time></trkpt><trkpt lat="43.169395" lon="11.22278"><ele>300.0</ele><time>2026-03-22T12:54:03.347Z</time></trkpt><trkpt lat="43.1692817" lon="11.2228317"><ele>300.0</ele><time>2026-03-22T12:54:04.348Z</time></trkpt><trkpt lat="43.1691817" lon="11.2229333"><ele>300.0</ele><time>2026-03-22T12:54:05.348Z</time></trkpt><trkpt lat="43.1690883" lon="11.2230783"><ele>300.0</ele><time>2026-03-22T12:54:06.347Z</time></trkpt><trkpt lat="43.16901" lon="11.22325"><ele>300.0</ele><time>2026-03-22T12:54:07.348Z</time></trkpt><trkpt lat="43.168955" lon="11.2234383"><ele>303.0</ele><time>2026-03-22T12:54:08.348Z</time></trkpt><trkpt lat="43.168895" lon="11.22357"><ele>306.0</ele><time>2026-03-22T12:54:09.348Z</time></trkpt><trkpt lat="43.1688267" lon="11.2236367"><ele>309.0</ele><time>2026-03-22T12:54:10.348Z</time></trkpt><trkpt lat="43.1687467" lon="11.223655"><ele>312.0</ele><time>2026-03-22T12:54:11.348Z</time></trkpt><trkpt lat="43.16867" lon="11.2236367"><ele>315.0</ele><time>2026-03-22T12:54:12.348Z</time></trkpt><trkpt lat="43.1685983" lon="11.2235783"><ele>318.0</ele><time>2026-03-22T12:54:13.348Z</time></trkpt><trkpt lat="43.1685283" lon="11.2234783"><ele>318.0</ele><time>2026-03-22T12:54:14.348Z</time></trkpt><trkpt lat="43.1684433" lon="11.223355"><ele>318.0</ele><time>2026-03-22T12:54:15.348Z</time></trkpt><trkpt lat="43.168345" lon="11.2231967"><ele>318.0</ele><time>2026-03-22T12:54:16.347Z</time></trkpt><trkpt lat="43.1682267" lon="11.2230033"><ele>317.0</ele><time>2026-03-22T12:54:17.347Z</time></trkpt><trkpt lat="43.1681267" lon="11.2228183"><ele>316.0</ele><time>2026-03-22T12:54:18.348Z</time></trkpt><trkpt lat="43.1680183" lon="11.2226783"><ele>315.0</ele><time>2026-03-22T12:54:19.347Z</time></trkpt><trkpt lat="43.16794" lon="11.2225767"><ele>314.0</ele><time>2026-03-22T12:54:20.348Z</time></trkpt><trkpt lat="43.16785" lon="11.22251"><ele>314.0</ele><time>2026-03-22T12:54:21.347Z</time></trkpt><trkpt lat="43.1677533" lon="11.222495"><ele>314.0</ele><time>2026-03-22T12:54:22.347Z</time></trkpt><trkpt lat="43.167645" lon="11.2225033"><ele>314.0</ele><time>2026-03-22T12:54:23.348Z</time></trkpt><trkpt lat="43.1675167" lon="11.222535"><ele>314.0</ele><time>2026-03-22T12:54:24.348Z</time></trkpt><trkpt lat="43.167365" lon="11.2226017"><ele>314.33333333333337</ele><time>2026-03-22T12:54:25.348Z</time></trkpt><trkpt lat="43.1672017" lon="11.22266"><ele>314.6666666666667</ele><time>2026-03-22T12:54:26.348Z</time></trkpt><trkpt lat="43.167025" lon="11.2227183"><ele>315.0</ele><time>2026-03-22T12:54:27.347Z</time></trkpt><trkpt lat="43.16688" lon="11.2227333"><ele>315.0</ele><time>2026-03-22T12:54:28.348Z</time></trkpt><trkpt lat="43.1667467" lon="11.222695"><ele>315.0</ele><time>2026-03-22T12:54:29.348Z</time></trkpt><trkpt lat="43.1666067" lon="11.2226267"><ele>315.0</ele><time>2026-03-22T12:54:30.348Z</time></trkpt><trkpt lat="43.1664583" lon="11.2225433"><ele>315.0</ele><time>2026-03-22T12:54:31.348Z</time></trkpt><trkpt lat="43.1663217" lon="11.22247"><ele>314.75</ele><time>2026-03-22T12:54:32.347Z</time></trkpt><trkpt lat="43.1661983" lon="11.222415"><ele>314.5</ele><time>2026-03-22T12:54:33.348Z</time></trkpt><trkpt lat="43.1660767" lon="11.2223833"><ele>314.25</ele><time>2026-03-22T12:54:34.347Z</time></trkpt><trkpt lat="43.1659433" lon="11.2223617"><ele>314.0</ele><time>2026-03-22T12:54:35.347Z</time></trkpt><trkpt lat="43.1657867" lon="11.222355"><ele>314.0</ele><time>2026-03-22T12:54:36.348Z</time></trkpt><trkpt lat="43.1656" lon="11.2223417"><ele>314.0</ele><time>2026-03-22T12:54:37.348Z</time></trkpt><trkpt lat="43.165415" lon="11.2223183"><ele>314.0</ele><time>2026-03-22T12:54:38.348Z</time></trkpt><trkpt lat="43.1652383" lon="11.222285"><ele>307.6666666666667</ele><time>2026-03-22T12:54:39.348Z</time></trkpt><trkpt lat="43.1650733" lon="11.2222517"><ele>301.3333333333333</ele><time>2026-03-22T12:54:40.347Z</time></trkpt><trkpt lat="43.1649083" lon="11.2222317"><ele>295.0</ele><time>2026-03-22T12:54:41.347Z</time></trkpt><trkpt lat="43.1647367" lon="11.2222233"><ele>294.0</ele><time>2026-03-22T12:54:42.348Z</time></trkpt><trkpt lat="43.16456" lon="11.2222383"><ele>293.0</ele><time>2026-03-22T12:54:43.347Z</time></trkpt><trkpt lat="43.16441" lon="11.2222417"><ele>292.0</ele><time>2026-03-22T12:54:44.348Z</time></trkpt><trkpt lat="43.1642567" lon="11.222255"><ele>292.0</ele><time>2026-03-22T12:54:45.348Z</time></trkpt><trkpt lat="43.164115" lon="11.2223"><ele>292.0</ele><time>2026-03-22T12:54:46.348Z</time></trkpt><trkpt lat="43.163975" lon="11.2223733"><ele>292.0</ele><time>2026-03-22T12:54:47.347Z</time></trkpt><trkpt lat="43.1638283" lon="11.222475"><ele>295.25</ele><time>2026-03-22T12:54:48.348Z</time></trkpt><trkpt lat="43.1636967" lon="11.22256"><ele>298.5</ele><time>2026-03-22T12:54:49.347Z</time></trkpt><trkpt lat="43.1635617" lon="11.2226017"><ele>301.75</ele><time>2026-03-22T12:54:50.347Z</time></trkpt><trkpt lat="43.1634233" lon="11.2225933"><ele>305.0</ele><time>2026-03-22T12:54:51.348Z</time></trkpt><trkpt lat="43.1632833" lon="11.2225417"><ele>304.5</ele><time>2026-03-22T12:54:52.347Z</time></trkpt><trkpt lat="43.163145" lon="11.222475"><ele>304.0</ele><time>2026-03-22T12:54:53.348Z</time></trkpt><trkpt lat="43.1630067" lon="11.2224333"><ele>303.5</ele><time>2026-03-22T12:54:54.348Z</time></trkpt><trkpt lat="43.16288" lon="11.22243"><ele>303.0</ele><time>2026-03-22T12:54:55.348Z</time></trkpt><trkpt lat="43.1627533" lon="11.2224717"><ele>303.0</ele><time>2026-03-22T12:54:56.348Z</time></trkpt><trkpt lat="43.1626133" lon="11.22255"><ele>303.0</ele><time>2026-03-22T12:54:57.348Z</time></trkpt><trkpt lat="43.1624833" lon="11.2226283"><ele>303.0</ele><time>2026-03-22T12:54:58.348Z</time></trkpt><trkpt lat="43.1623183" lon="11.2226667"><ele>300.0</ele><time>2026-03-22T12:54:59.348Z</time></trkpt><trkpt lat="43.16214" lon="11.222655"><ele>297.0</ele><time>2026-03-22T12:55:00.347Z</time></trkpt><trkpt lat="43.1619267" lon="11.2226233"><ele>294.0</ele><time>2026-03-22T12:55:01.348Z</time></trkpt><trkpt lat="43.1616983" lon="11.22259"><ele>292.6666666666667</ele><time>2026-03-22T12:55:02.348Z</time></trkpt><trkpt lat="43.1614967" lon="11.2225417"><ele>291.33333333333337</ele><time>2026-03-22T12:55:03.348Z</time></trkpt><trkpt lat="43.1612933" lon="11.2224933"><ele>290.0</ele><time>2026-03-22T12:55:04.348Z</time></trkpt><trkpt lat="43.1610733" lon="11.222465"><ele>290.0</ele><time>2026-03-22T12:55:05.348Z</time></trkpt><trkpt lat="43.16084" lon="11.2224633"><ele>290.0</ele><time>2026-03-22T12:55:06.348Z</time></trkpt><trkpt lat="43.1606167" lon="11.2224783"><ele>288.33333333333337</ele><time>2026-03-22T12:55:07.348Z</time></trkpt><trkpt lat="43.1604017" lon="11.2224917"><ele>286.6666666666667</ele><time>2026-03-22T12:55:08.348Z</time></trkpt><trkpt lat="43.1601933" lon="11.22252"><ele>285.0</ele><time>2026-03-22T12:55:09.348Z</time></trkpt><trkpt lat="43.1600133" lon="11.2225567"><ele>282.0</ele><time>2026-03-22T12:55:10.347Z</time></trkpt><trkpt lat="43.15985" lon="11.2225983"><ele>279.0</ele><time>2026-03-22T12:55:11.348Z</time></trkpt><trkpt lat="43.15968" lon="11.2226733"><ele>276.0</ele><time>2026-03-22T12:55:12.348Z</time></trkpt><trkpt lat="43.159515" lon="11.222755"><ele>276.0</ele><time>2026-03-22T12:55:13.348Z</time></trkpt><trkpt lat="43.15934" lon="11.2228017"><ele>276.0</ele><time>2026-03-22T12:55:14.348Z</time></trkpt><trkpt lat="43.15917" lon="11.2228167"><ele>276.0</ele><time>2026-03-22T12:55:15.348Z</time></trkpt><trkpt lat="43.1590017" lon="11.2228183"><ele>274.0</ele><time>2026-03-22T12:55:16.348Z</time></trkpt><trkpt lat="43.15885" lon="11.222835"><ele>272.0</ele><time>2026-03-22T12:55:17.348Z</time></trkpt><trkpt lat="43.15871" lon="11.22287"><ele>270.0</ele><time>2026-03-22T12:55:18.348Z</time></trkpt><trkpt lat="43.1586017" lon="11.2229283"><ele>268.0</ele><time>2026-03-22T12:55:19.348Z</time></trkpt><trkpt lat="43.1584967" lon="11.2230217"><ele>270.75</ele><time>2026-03-22T12:55:20.348Z</time></trkpt><trkpt lat="43.1584017" lon="11.223165"><ele>273.5</ele><time>2026-03-22T12:55:21.348Z</time></trkpt><trkpt lat="43.1583117" lon="11.223295"><ele>276.25</ele><time>2026-03-22T12:55:22.348Z</time></trkpt><trkpt lat="43.1582267" lon="11.2233767"><ele>279.0</ele><time>2026-03-22T12:55:23.348Z</time></trkpt><trkpt lat="43.158145" lon="11.223415"><ele>279.0</ele><time>2026-03-22T12:55:24.348Z</time></trkpt><trkpt lat="43.158045" lon="11.2234167"><ele>279.0</ele><time>2026-03-22T12:55:25.348Z</time></trkpt><trkpt lat="43.1579467" lon="11.223385"><ele>279.0</ele><time>2026-03-22T12:55:26.347Z</time></trkpt><trkpt lat="43.1578333" lon="11.2233117"><ele>279.0</ele><time>2026-03-22T12:55:27.347Z</time></trkpt><trkpt lat="43.15772" lon="11.223245"><ele>279.0</ele><time>2026-03-22T12:55:28.348Z</time></trkpt><trkpt lat="43.1575917" lon="11.2231833"><ele>279.0</ele><time>2026-03-22T12:55:29.348Z</time></trkpt><trkpt lat="43.1574617" lon="11.2231383"><ele>279.0</ele><time>2026-03-22T12:55:30.348Z</time></trkpt><trkpt lat="43.157335" lon="11.223125"><ele>279.0</ele><time>2026-03-22T12:55:31.348Z</time></trkpt><trkpt lat="43.1572333" lon="11.2231433"><ele>276.75</ele><time>2026-03-22T12:55:32.347Z</time></trkpt><trkpt lat="43.157135" lon="11.2231983"><ele>274.5</ele><time>2026-03-22T12:55:33.348Z</time></trkpt><trkpt lat="43.15703" lon="11.223285"><ele>272.25</ele><time>2026-03-22T12:55:34.347Z</time></trkpt><trkpt lat="43.1569333" lon="11.2233883"><ele>270.0</ele><time>2026-03-22T12:55:35.348Z</time></trkpt><trkpt lat="43.1568483" lon="11.2234867"><ele>270.0</ele><time>2026-03-22T12:55:36.347Z</time></trkpt><trkpt lat="43.15676" lon="11.22359"><ele>270.0</ele><time>2026-03-22T12:55:37.348Z</time></trkpt><trkpt lat="43.156675" lon="11.2236767"><ele>270.0</ele><time>2026-03-22T12:55:38.348Z</time></trkpt><trkpt lat="43.1566" lon="11.223735"><ele>270.0</ele><time>2026-03-22T12:55:39.348Z</time></trkpt><trkpt lat="43.1565417" lon="11.22379"><ele>270.0</ele><time>2026-03-22T12:55:40.348Z</time></trkpt><trkpt lat="43.1564717" lon="11.2238283"><ele>267.8333333333333</ele><time>2026-03-22T12:55:42.348Z</time></trkpt><trkpt lat="43.1564033" lon="11.22385"><ele>265.6666666666667</ele><time>2026-03-22T12:55:45.348Z</time></trkpt><trkpt lat="43.156325" lon="11.22388"><ele>263.5</ele><time>2026-03-22T12:55:47.348Z</time></trkpt><trkpt lat="43.1562533" lon="11.2239083"><ele>261.33333333333337</ele><time>2026-03-22T12:55:49.348Z</time></trkpt><trkpt lat="43.1561767" lon="11.22394"><ele>259.1666666666667</ele><time>2026-03-22T12:55:52.348Z</time></trkpt><trkpt lat="43.1562483" lon="11.223945"><ele>257.0</ele><time>2026-03-22T12:56:02.347Z</time></trkpt><trkpt lat="43.1563367" lon="11.22388"><ele>257.0</ele><time>2026-03-22T12:56:04.348Z</time></trkpt><trkpt lat="43.1563983" lon="11.2238417"><ele>257.0</ele><time>2026-03-22T12:56:05.348Z</time></trkpt><trkpt lat="43.1564733" lon="11.2237883"><ele>257.0</ele><time>2026-03-22T12:56:06.348Z</time></trkpt><trkpt lat="43.1565533" lon="11.2237267"><ele>257.0</ele><time>2026-03-22T12:56:07.348Z</time></trkpt><trkpt lat="43.156645" lon="11.2236583"><ele>257.0</ele><time>2026-03-22T12:56:08.348Z</time></trkpt><trkpt lat="43.156735" lon="11.2235733"><ele>255.83333333333334</ele><time>2026-03-22T12:56:09.348Z</time></trkpt><trkpt lat="43.156815" lon="11.2234867"><ele>254.66666666666669</ele><time>2026-03-22T12:56:10.347Z</time></trkpt><trkpt lat="43.156895" lon="11.2233917"><ele>253.5</ele><time>2026-03-22T12:56:11.348Z</time></trkpt><trkpt lat="43.1569633" lon="11.2233117"><ele>252.33333333333331</ele><time>2026-03-22T12:56:12.348Z</time></trkpt><trkpt lat="43.1570117" lon="11.2232517"><ele>251.16666666666666</ele><time>2026-03-22T12:56:13.347Z</time></trkpt><trkpt lat="43.1570683" lon="11.2232083"><ele>250.0</ele><time>2026-03-22T12:56:14.347Z</time></trkpt><trkpt lat="43.15717" lon="11.223125"><ele>250.0</ele><time>2026-03-22T12:56:16.347Z</time></trkpt><trkpt lat="43.1572533" lon="11.22307"><ele>250.0</ele><time>2026-03-22T12:56:18.348Z</time></trkpt><trkpt lat="43.1573467" lon="11.22305"><ele>250.0</ele><time>2026-03-22T12:56:20.348Z</time></trkpt><trkpt lat="43.1574483" lon="11.2230533"><ele>250.0</ele><time>2026-03-22T12:56:22.348Z</time></trkpt><trkpt lat="43.1575367" lon="11.2230983"><ele>250.0</ele><time>2026-03-22T12:56:24.348Z</time></trkpt><trkpt lat="43.1576217" lon="11.223155"><ele>254.83333333333331</ele><time>2026-03-22T12:56:26.347Z</time></trkpt><trkpt lat="43.1576917" lon="11.223205"><ele>259.66666666666663</ele><time>2026-03-22T12:56:28.347Z</time></trkpt><trkpt lat="43.1577667" lon="11.2232617"><ele>264.5</ele><time>2026-03-22T12:56:30.348Z</time></trkpt><trkpt lat="43.1578483" lon="11.22333"><ele>269.3333333333333</ele><time>2026-03-22T12:56:32.348Z</time></trkpt><trkpt lat="43.1579167" lon="11.2233733"><ele>274.1666666666667</ele><time>2026-03-22T12:56:34.348Z</time></trkpt><trkpt lat="43.1579767" lon="11.2234033"><ele>279.0</ele><time>2026-03-22T12:56:36.347Z</time></trkpt><trkpt lat="43.1579167" lon="11.22333"><ele>279.0</ele><time>2026-03-22T12:56:44.348Z</time></trkpt><trkpt lat="43.1578467" lon="11.2232967"><ele>279.0</ele><time>2026-03-22T12:56:46.348Z</time></trkpt><trkpt lat="43.1577533" lon="11.22326"><ele>279.0</ele><time>2026-03-22T12:56:49.348Z</time></trkpt><trkpt lat="43.1576683" lon="11.2232317"><ele>279.0</ele><time>2026-03-22T12:56:52.347Z</time></trkpt><trkpt lat="43.157575" lon="11.22318"><ele>279.0</ele><time>2026-03-22T12:56:55.348Z</time></trkpt><trkpt lat="43.1575067" lon="11.2231567"><ele>279.0</ele><time>2026-03-22T12:56:57.348Z</time></trkpt><trkpt lat="43.15744" lon="11.2231483"><ele>277.5</ele><time>2026-03-22T12:56:59.348Z</time></trkpt><trkpt lat="43.1573717" lon="11.2231417"><ele>276.0</ele><time>2026-03-22T12:57:01.348Z</time></trkpt><trkpt lat="43.1572917" lon="11.2231467"><ele>274.5</ele><time>2026-03-22T12:57:03.348Z</time></trkpt><trkpt lat="43.1572167" lon="11.223175"><ele>273.0</ele><time>2026-03-22T12:57:05.348Z</time></trkpt><trkpt lat="43.1571517" lon="11.2232267"><ele>271.5</ele><time>2026-03-22T12:57:35.348Z</time></trkpt><trkpt lat="43.1570833" lon="11.223295"><ele>270.0</ele><time>2026-03-22T12:57:37.348Z</time></trkpt><trkpt lat="43.1569967" lon="11.2233767"><ele>270.0</ele><time>2026-03-22T12:57:39.347Z</time></trkpt><trkpt lat="43.1569083" lon="11.2234883"><ele>270.0</ele><time>2026-03-22T12:57:41.348Z</time></trkpt><trkpt lat="43.15685" lon="11.2235483"><ele>270.0</ele><time>2026-03-22T12:57:42.348Z</time></trkpt><trkpt lat="43.1567883" lon="11.2236117"><ele>270.0</ele><time>2026-03-22T12:57:43.348Z</time></trkpt><trkpt lat="43.15672" lon="11.2236883"><ele>270.0</ele><time>2026-03-22T12:57:44.348Z</time></trkpt><trkpt lat="43.156635" lon="11.22376"><ele>270.0</ele><time>2026-03-22T12:57:45.347Z</time></trkpt><trkpt lat="43.1565383" lon="11.223825"><ele>270.0</ele><time>2026-03-22T12:57:46.348Z</time></trkpt><trkpt lat="43.1564333" lon="11.2238733"><ele>270.0</ele><time>2026-03-22T12:57:47.348Z</time></trkpt><trkpt lat="43.1563267" lon="11.2239183"><ele>270.0</ele><time>2026-03-22T12:57:48.348Z</time></trkpt><trkpt lat="43.1562133" lon="11.22397"><ele>270.0</ele><time>2026-03-22T12:57:49.347Z</time></trkpt><trkpt lat="43.156105" lon="11.2240117"><ele>273.8</ele><time>2026-03-22T12:57:50.348Z</time></trkpt><trkpt lat="43.1559933" lon="11.224045"><ele>277.6</ele><time>2026-03-22T12:57:51.348Z</time></trkpt><trkpt lat="43.1558883" lon="11.224065"><ele>281.4</ele><time>2026-03-22T12:57:52.348Z</time></trkpt><trkpt lat="43.155785" lon="11.2240867"><ele>285.2</ele><time>2026-03-22T12:57:53.348Z</time></trkpt><trkpt lat="43.1556767" lon="11.224105"><ele>289.0</ele><time>2026-03-22T12:57:54.347Z</time></trkpt><trkpt lat="43.1555683" lon="11.22412"><ele>289.4</ele><time>2026-03-22T12:57:55.348Z</time></trkpt><trkpt lat="43.155455" lon="11.2241117"><ele>289.79999999999995</ele><time>2026-03-22T12:57:56.348Z</time></trkpt><trkpt lat="43.1553533" lon="11.22409"><ele>290.20000000000005</ele><time>2026-03-22T12:57:57.348Z</time></trkpt><trkpt lat="43.15525" lon="11.224055"><ele>290.6</ele><time>2026-03-22T12:57:58.348Z</time></trkpt><trkpt lat="43.1551517" lon="11.224005"><ele>291.0</ele><time>2026-03-22T12:57:59.348Z</time></trkpt><trkpt lat="43.1550683" lon="11.2239333"><ele>285.8</ele><time>2026-03-22T12:58:00.348Z</time></trkpt><trkpt lat="43.15498" lon="11.2238717"><ele>280.6</ele><time>2026-03-22T12:58:01.348Z</time></trkpt><trkpt lat="43.1548967" lon="11.2238183"><ele>275.4</ele><time>2026-03-22T12:58:02.348Z</time></trkpt><trkpt lat="43.1548017" lon="11.2237833"><ele>270.2</ele><time>2026-03-22T12:58:03.347Z</time></trkpt><trkpt lat="43.15471" lon="11.223765"><ele>265.0</ele><time>2026-03-22T12:58:04.348Z</time></trkpt><trkpt lat="43.1546133" lon="11.22377"><ele>265.0</ele><time>2026-03-22T12:58:05.348Z</time></trkpt><trkpt lat="43.154515" lon="11.2237983"><ele>265.0</ele><time>2026-03-22T12:58:06.348Z</time></trkpt><trkpt lat="43.1544167" lon="11.22386"><ele>265.0</ele><time>2026-03-22T12:58:07.348Z</time></trkpt><trkpt lat="43.154325" lon="11.2239567"><ele>265.0</ele><time>2026-03-22T12:58:08.348Z</time></trkpt><trkpt lat="43.154245" lon="11.2240583"><ele>265.0</ele><time>2026-03-22T12:58:09.347Z</time></trkpt><trkpt lat="43.154165" lon="11.2241717"><ele>268.0</ele><time>2026-03-22T12:58:10.348Z</time></trkpt><trkpt lat="43.1540717" lon="11.224285"><ele>271.0</ele><time>2026-03-22T12:58:11.348Z</time></trkpt><trkpt lat="43.1539683" lon="11.2243867"><ele>274.0</ele><time>2026-03-22T12:58:12.348Z</time></trkpt><trkpt lat="43.15386" lon="11.2244667"><ele>277.0</ele><time>2026-03-22T12:58:13.348Z</time></trkpt><trkpt lat="43.1537483" lon="11.224525"><ele>277.0</ele><time>2026-03-22T12:58:14.348Z</time></trkpt><trkpt lat="43.1536317" lon="11.2245617"><ele>277.0</ele><time>2026-03-22T12:58:15.348Z</time></trkpt><trkpt lat="43.153505" lon="11.2245883"><ele>277.0</ele><time>2026-03-22T12:58:16.347Z</time></trkpt><trkpt lat="43.153375" lon="11.2245967"><ele>277.0</ele><time>2026-03-22T12:58:17.348Z</time></trkpt><trkpt lat="43.1532683" lon="11.2245767"><ele>276.75</ele><time>2026-03-22T12:58:18.347Z</time></trkpt><trkpt lat="43.15315" lon="11.22455"><ele>276.5</ele><time>2026-03-22T12:58:19.348Z</time></trkpt><trkpt lat="43.1530417" lon="11.2245083"><ele>276.25</ele><time>2026-03-22T12:58:20.348Z</time></trkpt><trkpt lat="43.1529317" lon="11.2244667"><ele>276.0</ele><time>2026-03-22T12:58:21.347Z</time></trkpt><trkpt lat="43.15282" lon="11.2244317"><ele>276.0</ele><time>2026-03-22T12:58:22.347Z</time></trkpt><trkpt lat="43.1526967" lon="11.2243967"><ele>276.0</ele><time>2026-03-22T12:58:23.347Z</time></trkpt><trkpt lat="43.152575" lon="11.224385"><ele>276.0</ele><time>2026-03-22T12:58:24.348Z</time></trkpt><trkpt lat="43.152445" lon="11.2243783"><ele>276.0</ele><time>2026-03-22T12:58:25.348Z</time></trkpt><trkpt lat="43.1523117" lon="11.2243667"><ele>274.5</ele><time>2026-03-22T12:58:26.348Z</time></trkpt><trkpt lat="43.1521783" lon="11.2243717"><ele>273.0</ele><time>2026-03-22T12:58:27.348Z</time></trkpt><trkpt lat="43.1520433" lon="11.2243783"><ele>271.5</ele><time>2026-03-22T12:58:28.348Z</time></trkpt><trkpt lat="43.15191" lon="11.2244083"><ele>270.0</ele><time>2026-03-22T12:58:29.348Z</time></trkpt><trkpt lat="43.151775" lon="11.2244517"><ele>270.0</ele><time>2026-03-22T12:58:30.348Z</time></trkpt><trkpt lat="43.1516433" lon="11.2245017"><ele>270.0</ele><time>2026-03-22T12:58:31.348Z</time></trkpt><trkpt lat="43.15151" lon="11.2245617"><ele>270.0</ele><time>2026-03-22T12:58:32.348Z</time></trkpt><trkpt lat="43.1513733" lon="11.22462"><ele>270.0</ele><time>2026-03-22T12:58:33.348Z</time></trkpt><trkpt lat="43.1512417" lon="11.2246883"><ele>268.75</ele><time>2026-03-22T12:58:34.348Z</time></trkpt><trkpt lat="43.15111" lon="11.224785"><ele>267.5</ele><time>2026-03-22T12:58:35.348Z</time></trkpt><trkpt lat="43.151" lon="11.224885"><ele>266.25</ele><time>2026-03-22T12:58:36.348Z</time></trkpt><trkpt lat="43.1508883" lon="11.2250017"><ele>265.0</ele><time>2026-03-22T12:58:37.348Z</time></trkpt><trkpt lat="43.1507783" lon="11.2251017"><ele>266.75</ele><time>2026-03-22T12:58:38.347Z</time></trkpt><trkpt lat="43.15068" lon="11.2252"><ele>268.5</ele><time>2026-03-22T12:58:39.348Z</time></trkpt><trkpt lat="43.1505783" lon="11.225305"><ele>270.25</ele><time>2026-03-22T12:58:40.348Z</time></trkpt><trkpt lat="43.1504817" lon="11.2254067"><ele>272.0</ele><time>2026-03-22T12:58:41.348Z</time></trkpt><trkpt lat="43.15038" lon="11.2254967"><ele>272.0</ele><time>2026-03-22T12:58:42.348Z</time></trkpt><trkpt lat="43.1502733" lon="11.2255667"><ele>272.0</ele><time>2026-03-22T12:58:43.348Z</time></trkpt><trkpt lat="43.150155" lon="11.225635"><ele>272.0</ele><time>2026-03-22T12:58:44.348Z</time></trkpt><trkpt lat="43.1500333" lon="11.2256917"><ele>272.0</ele><time>2026-03-22T12:58:45.348Z</time></trkpt><trkpt lat="43.1499167" lon="11.2257217"><ele>273.0</ele><time>2026-03-22T12:58:46.348Z</time></trkpt><trkpt lat="43.1497883" lon="11.2257467"><ele>274.0</ele><time>2026-03-22T12:58:47.348Z</time></trkpt><trkpt lat="43.1496617" lon="11.2257683"><ele>275.0</ele><time>2026-03-22T12:58:48.348Z</time></trkpt><trkpt lat="43.1495167" lon="11.2257883"><ele>276.0</ele><time>2026-03-22T12:58:49.347Z</time></trkpt><trkpt lat="43.149375" lon="11.2258167"><ele>276.0</ele><time>2026-03-22T12:58:50.348Z</time></trkpt><trkpt lat="43.1492333" lon="11.2258533"><ele>276.0</ele><time>2026-03-22T12:58:51.348Z</time></trkpt><trkpt lat="43.1490867" lon="11.225885"><ele>276.0</ele><time>2026-03-22T12:58:52.348Z</time></trkpt><trkpt lat="43.1489367" lon="11.2259117"><ele>276.0</ele><time>2026-03-22T12:58:53.348Z</time></trkpt><trkpt lat="43.1487933" lon="11.2259417"><ele>274.75</ele><time>2026-03-22T12:58:54.348Z</time></trkpt><trkpt lat="43.148645" lon="11.2259717"><ele>273.5</ele><time>2026-03-22T12:58:55.347Z</time></trkpt><trkpt lat="43.1484933" lon="11.2260133"><ele>272.25</ele><time>2026-03-22T12:58:56.348Z</time></trkpt><trkpt lat="43.1483667" lon="11.2260483"><ele>271.0</ele><time>2026-03-22T12:58:57.348Z</time></trkpt><trkpt lat="43.1482683" lon="11.2260683"><ele>270.8333333333333</ele><time>2026-03-22T12:58:58.348Z</time></trkpt><trkpt lat="43.1481967" lon="11.2260767"><ele>270.66666666666663</ele><time>2026-03-22T12:58:59.347Z</time></trkpt><trkpt lat="43.148105" lon="11.22604"><ele>270.5</ele><time>2026-03-22T12:59:01.347Z</time></trkpt><trkpt lat="43.1481" lon="11.22588"><ele>270.3333333333333</ele><time>2026-03-22T12:59:03.348Z</time></trkpt><trkpt lat="43.148125" lon="11.2257833"><ele>270.1666666666667</ele><time>2026-03-22T12:59:04.347Z</time></trkpt><trkpt lat="43.1481633" lon="11.22568"><ele>270.0</ele><time>2026-03-22T12:59:05.348Z</time></trkpt><trkpt lat="43.1482117" lon="11.2255433"><ele>268.75</ele><time>2026-03-22T12:59:06.348Z</time></trkpt><trkpt lat="43.1482583" lon="11.225395"><ele>267.5</ele><time>2026-03-22T12:59:07.348Z</time></trkpt><trkpt lat="43.148305" lon="11.225225"><ele>266.25</ele><time>2026-03-22T12:59:08.348Z</time></trkpt><trkpt lat="43.148355" lon="11.2250533"><ele>265.0</ele><time>2026-03-22T12:59:09.348Z</time></trkpt><trkpt lat="43.1483933" lon="11.224875"><ele>264.0</ele><time>2026-03-22T12:59:10.348Z</time></trkpt><trkpt lat="43.14844" lon="11.2246917"><ele>263.0</ele><time>2026-03-22T12:59:11.348Z</time></trkpt><trkpt lat="43.1484833" lon="11.2245"><ele>262.0</ele><time>2026-03-22T12:59:12.347Z</time></trkpt><trkpt lat="43.1485317" lon="11.2243033"><ele>261.0</ele><time>2026-03-22T12:59:13.347Z</time></trkpt><trkpt lat="43.1485833" lon="11.2240967"><ele>259.6666666666667</ele><time>2026-03-22T12:59:14.348Z</time></trkpt><trkpt lat="43.1486433" lon="11.2238767"><ele>258.33333333333337</ele><time>2026-03-22T12:59:15.348Z</time></trkpt><trkpt lat="43.1487067" lon="11.2236567"><ele>257.0</ele><time>2026-03-22T12:59:16.348Z</time></trkpt><trkpt lat="43.148765" lon="11.2234267"><ele>257.0</ele><time>2026-03-22T12:59:17.348Z</time></trkpt><trkpt lat="43.1488233" lon="11.2232"><ele>257.0</ele><time>2026-03-22T12:59:18.348Z</time></trkpt><trkpt lat="43.1488817" lon="11.222985"><ele>257.0</ele><time>2026-03-22T12:59:19.348Z</time></trkpt><trkpt lat="43.1489233" lon="11.2227717"><ele>257.25</ele><time>2026-03-22T12:59:20.348Z</time></trkpt><trkpt lat="43.148965" lon="11.2225683"><ele>257.5</ele><time>2026-03-22T12:59:21.348Z</time></trkpt><trkpt lat="43.14901" lon="11.2223867"><ele>257.75</ele><time>2026-03-22T12:59:22.348Z</time></trkpt><trkpt lat="43.1490467" lon="11.2222283"><ele>258.0</ele><time>2026-03-22T12:59:23.348Z</time></trkpt><trkpt lat="43.1490717" lon="11.2220983"><ele>258.2</ele><time>2026-03-22T12:59:24.347Z</time></trkpt><trkpt lat="43.1490917" lon="11.2219667"><ele>258.4</ele><time>2026-03-22T12:59:25.348Z</time></trkpt><trkpt lat="43.1491017" lon="11.22183"><ele>258.59999999999997</ele><time>2026-03-22T12:59:26.348Z</time></trkpt><trkpt lat="43.14911" lon="11.2216833"><ele>258.8</ele><time>2026-03-22T12:59:27.348Z</time></trkpt><trkpt lat="43.1491233" lon="11.22154"><ele>259.0</ele><time>2026-03-22T12:59:28.348Z</time></trkpt><trkpt lat="43.1491417" lon="11.2214033"><ele>259.59999999999997</ele><time>2026-03-22T12:59:29.347Z</time></trkpt><trkpt lat="43.149155" lon="11.221295"><ele>260.2</ele><time>2026-03-22T12:59:30.348Z</time></trkpt><trkpt lat="43.1491533" lon="11.2211883"><ele>260.79999999999995</ele><time>2026-03-22T12:59:31.347Z</time></trkpt><trkpt lat="43.1491433" lon="11.2210517"><ele>261.4</ele><time>2026-03-22T12:59:33.348Z</time></trkpt><trkpt lat="43.14908" lon="11.220935"><ele>262.0</ele><time>2026-03-22T12:59:35.348Z</time></trkpt><trkpt lat="43.1490217" lon="11.2208483"><ele>261.0</ele><time>2026-03-22T12:59:36.348Z</time></trkpt><trkpt lat="43.1489417" lon="11.220745"><ele>260.0</ele><time>2026-03-22T12:59:37.348Z</time></trkpt><trkpt lat="43.1488683" lon="11.2206183"><ele>259.0</ele><time>2026-03-22T12:59:38.348Z</time></trkpt><trkpt lat="43.1487867" lon="11.2204817"><ele>258.0</ele><time>2026-03-22T12:59:39.348Z</time></trkpt><trkpt lat="43.1487183" lon="11.2203283"><ele>258.0</ele><time>2026-03-22T12:59:40.348Z</time></trkpt><trkpt lat="43.1486467" lon="11.2201583"><ele>258.0</ele><time>2026-03-22T12:59:41.347Z</time></trkpt><trkpt lat="43.1485667" lon="11.219985"><ele>258.0</ele><time>2026-03-22T12:59:42.347Z</time></trkpt><trkpt lat="43.14849" lon="11.21981"><ele>258.0</ele><time>2026-03-22T12:59:43.347Z</time></trkpt><trkpt lat="43.1484067" lon="11.2196233"><ele>258.6666666666667</ele><time>2026-03-22T12:59:44.348Z</time></trkpt><trkpt lat="43.1483383" lon="11.2194383"><ele>259.33333333333337</ele><time>2026-03-22T12:59:45.347Z</time></trkpt><trkpt lat="43.1482517" lon="11.2192517"><ele>260.0</ele><time>2026-03-22T12:59:46.348Z</time></trkpt><trkpt lat="43.148175" lon="11.2190683"><ele>258.75</ele><time>2026-03-22T12:59:47.348Z</time></trkpt><trkpt lat="43.1480967" lon="11.2189033"><ele>257.5</ele><time>2026-03-22T12:59:48.347Z</time></trkpt><trkpt lat="43.1480083" lon="11.2187567"><ele>256.25</ele><time>2026-03-22T12:59:49.348Z</time></trkpt><trkpt lat="43.1479333" lon="11.2186383"><ele>255.0</ele><time>2026-03-22T12:59:50.348Z</time></trkpt><trkpt lat="43.147865" lon="11.21854"><ele>255.0</ele><time>2026-03-22T12:59:51.348Z</time></trkpt><trkpt lat="43.147785" lon="11.21847"><ele>255.0</ele><time>2026-03-22T12:59:52.348Z</time></trkpt><trkpt lat="43.1477217" lon="11.2183917"><ele>255.0</ele><time>2026-03-22T12:59:53.348Z</time></trkpt><trkpt lat="43.14768" lon="11.2183"><ele>255.0</ele><time>2026-03-22T12:59:54.348Z</time></trkpt><trkpt lat="43.1476483" lon="11.2182067"><ele>255.0</ele><time>2026-03-22T12:59:55.348Z</time></trkpt><trkpt lat="43.1476217" lon="11.218075"><ele>255.0</ele><time>2026-03-22T12:59:56.348Z</time></trkpt><trkpt lat="43.1476033" lon="11.2179017"><ele>254.75</ele><time>2026-03-22T12:59:57.348Z</time></trkpt><trkpt lat="43.1475767" lon="11.2177317"><ele>254.5</ele><time>2026-03-22T12:59:58.348Z</time></trkpt><trkpt lat="43.1475283" lon="11.2175917"><ele>254.25</ele><time>2026-03-22T12:59:59.348Z</time></trkpt><trkpt lat="43.147465" lon="11.2174517"><ele>254.0</ele><time>2026-03-22T13:00:00.348Z</time></trkpt><trkpt lat="43.14739" lon="11.2173217"><ele>258.8</ele><time>2026-03-22T13:00:01.347Z</time></trkpt><trkpt lat="43.147315" lon="11.2171883"><ele>263.59999999999997</ele><time>2026-03-22T13:00:02.347Z</time></trkpt><trkpt lat="43.1472417" lon="11.2170783"><ele>268.4</ele><time>2026-03-22T13:00:03.348Z</time></trkpt><trkpt lat="43.14718" lon="11.2169717"><ele>273.2</ele><time>2026-03-22T13:00:04.348Z</time></trkpt><trkpt lat="43.1471267" lon="11.2168683"><ele>278.0</ele><time>2026-03-22T13:00:05.347Z</time></trkpt><trkpt lat="43.1470833" lon="11.21676"><ele>278.0</ele><time>2026-03-22T13:00:06.348Z</time></trkpt><trkpt lat="43.1470633" lon="11.21666"><ele>278.0</ele><time>2026-03-22T13:00:07.348Z</time></trkpt><trkpt lat="43.1470717" lon="11.21655"><ele>278.0</ele><time>2026-03-22T13:00:08.348Z</time></trkpt><trkpt lat="43.1470933" lon="11.2164367"><ele>278.0</ele><time>2026-03-22T13:00:09.348Z</time></trkpt><trkpt lat="43.147135" lon="11.2163"><ele>278.0</ele><time>2026-03-22T13:00:10.348Z</time></trkpt><trkpt lat="43.1471783" lon="11.2161433"><ele>279.75</ele><time>2026-03-22T13:00:11.348Z</time></trkpt><trkpt lat="43.147225" lon="11.2159783"><ele>281.5</ele><time>2026-03-22T13:00:12.348Z</time></trkpt><trkpt lat="43.14727" lon="11.2158117"><ele>283.25</ele><time>2026-03-22T13:00:13.348Z</time></trkpt><trkpt lat="43.1473083" lon="11.215645"><ele>285.0</ele><time>2026-03-22T13:00:14.348Z</time></trkpt><trkpt lat="43.1473067" lon="11.2154833"><ele>285.0</ele><time>2026-03-22T13:00:15.348Z</time></trkpt><trkpt lat="43.1473" lon="11.2153267"><ele>285.0</ele><time>2026-03-22T13:00:16.347Z</time></trkpt><trkpt lat="43.14727" lon="11.2151767"><ele>285.0</ele><time>2026-03-22T13:00:17.347Z</time></trkpt><trkpt lat="43.1472083" lon="11.2150317"><ele>285.0</ele><time>2026-03-22T13:00:18.348Z</time></trkpt><trkpt lat="43.1471267" lon="11.214925"><ele>282.5</ele><time>2026-03-22T13:00:19.347Z</time></trkpt><trkpt lat="43.1470317" lon="11.2148067"><ele>280.0</ele><time>2026-03-22T13:00:20.348Z</time></trkpt><trkpt lat="43.1469217" lon="11.21468"><ele>277.5</ele><time>2026-03-22T13:00:21.348Z</time></trkpt><trkpt lat="43.146815" lon="11.2145667"><ele>275.0</ele><time>2026-03-22T13:00:22.348Z</time></trkpt><trkpt lat="43.1467167" lon="11.214435"><ele>275.0</ele><time>2026-03-22T13:00:23.347Z</time></trkpt><trkpt lat="43.1466017" lon="11.2143"><ele>275.0</ele><time>2026-03-22T13:00:24.348Z</time></trkpt><trkpt lat="43.146485" lon="11.21417"><ele>275.0</ele><time>2026-03-22T13:00:25.347Z</time></trkpt><trkpt lat="43.14637" lon="11.2140467"><ele>275.0</ele><time>2026-03-22T13:00:26.348Z</time></trkpt><trkpt lat="43.1462283" lon="11.213945"><ele>275.25</ele><time>2026-03-22T13:00:27.348Z</time></trkpt><trkpt lat="43.1460933" lon="11.2138467"><ele>275.5</ele><time>2026-03-22T13:00:28.347Z</time></trkpt><trkpt lat="43.1459667" lon="11.2137667"><ele>275.75</ele><time>2026-03-22T13:00:29.348Z</time></trkpt><trkpt lat="43.1458367" lon="11.2136967"><ele>276.0</ele><time>2026-03-22T13:00:30.348Z</time></trkpt><trkpt lat="43.1457033" lon="11.21364"><ele>276.5</ele><time>2026-03-22T13:00:31.347Z</time></trkpt><trkpt lat="43.145575" lon="11.2135883"><ele>277.0</ele><time>2026-03-22T13:00:32.347Z</time></trkpt><trkpt lat="43.1454517" lon="11.2135417"><ele>277.5</ele><time>2026-03-22T13:00:33.348Z</time></trkpt><trkpt lat="43.145335" lon="11.2134967"><ele>278.0</ele><time>2026-03-22T13:00:34.347Z</time></trkpt><trkpt lat="43.1452117" lon="11.2134667"><ele>278.0</ele><time>2026-03-22T13:00:35.348Z</time></trkpt><trkpt lat="43.14508" lon="11.21347"><ele>278.0</ele><time>2026-03-22T13:00:36.347Z</time></trkpt><trkpt lat="43.1449333" lon="11.2134933"><ele>278.0</ele><time>2026-03-22T13:00:37.347Z</time></trkpt><trkpt lat="43.1447817" lon="11.2135333"><ele>278.0</ele><time>2026-03-22T13:00:38.347Z</time></trkpt><trkpt lat="43.1446317" lon="11.2135817"><ele>277.6666666666667</ele><time>2026-03-22T13:00:39.348Z</time></trkpt><trkpt lat="43.1444767" lon="11.2136367"><ele>277.3333333333333</ele><time>2026-03-22T13:00:40.348Z</time></trkpt><trkpt lat="43.144335" lon="11.21369"><ele>277.0</ele><time>2026-03-22T13:00:41.348Z</time></trkpt><trkpt lat="43.1441883" lon="11.2137533"><ele>277.0</ele><time>2026-03-22T13:00:42.348Z</time></trkpt><trkpt lat="43.1440483" lon="11.2137867"><ele>277.0</ele><time>2026-03-22T13:00:43.347Z</time></trkpt><trkpt lat="43.1439033" lon="11.2138017"><ele>277.0</ele><time>2026-03-22T13:00:44.348Z</time></trkpt><trkpt lat="43.1437583" lon="11.2137867"><ele>277.0</ele><time>2026-03-22T13:00:45.348Z</time></trkpt><trkpt lat="43.1436233" lon="11.21373"><ele>277.5</ele><time>2026-03-22T13:00:46.348Z</time></trkpt><trkpt lat="43.1435117" lon="11.213635"><ele>278.0</ele><time>2026-03-22T13:00:47.348Z</time></trkpt><trkpt lat="43.1434083" lon="11.2135183"><ele>278.5</ele><time>2026-03-22T13:00:48.348Z</time></trkpt><trkpt lat="43.1433167" lon="11.21339"><ele>279.0</ele><time>2026-03-22T13:00:49.348Z</time></trkpt><trkpt lat="43.1432317" lon="11.2132417"><ele>277.75</ele><time>2026-03-22T13:00:50.348Z</time></trkpt><trkpt lat="43.14316" lon="11.21308"><ele>276.5</ele><time>2026-03-22T13:00:51.348Z</time></trkpt><trkpt lat="43.1431033" lon="11.212935"><ele>275.25</ele><time>2026-03-22T13:00:52.348Z</time></trkpt><trkpt lat="43.143055" lon="11.2127533"><ele>274.0</ele><time>2026-03-22T13:00:53.348Z</time></trkpt><trkpt lat="43.14302" lon="11.212595"><ele>274.0</ele><time>2026-03-22T13:00:54.348Z</time></trkpt><trkpt lat="43.1429683" lon="11.2124583"><ele>274.0</ele><time>2026-03-22T13:00:55.348Z</time></trkpt><trkpt lat="43.1428983" lon="11.212335"><ele>274.0</ele><time>2026-03-22T13:00:56.348Z</time></trkpt><trkpt lat="43.142825" lon="11.2122417"><ele>274.0</ele><time>2026-03-22T13:00:57.348Z</time></trkpt><trkpt lat="43.14274" lon="11.21217"><ele>274.0</ele><time>2026-03-22T13:00:58.348Z</time></trkpt><trkpt lat="43.1426367" lon="11.2121283"><ele>273.0</ele><time>2026-03-22T13:00:59.348Z</time></trkpt><trkpt lat="43.1425417" lon="11.2121217"><ele>272.0</ele><time>2026-03-22T13:01:00.347Z</time></trkpt><trkpt lat="43.14245" lon="11.212145"><ele>271.0</ele><time>2026-03-22T13:01:01.348Z</time></trkpt><trkpt lat="43.1423617" lon="11.212185"><ele>270.0</ele><time>2026-03-22T13:01:02.347Z</time></trkpt><trkpt lat="43.142285" lon="11.2122267"><ele>269.0</ele><time>2026-03-22T13:01:03.348Z</time></trkpt><trkpt lat="43.1422183" lon="11.2122633"><ele>268.0</ele><time>2026-03-22T13:01:04.348Z</time></trkpt><trkpt lat="43.14213" lon="11.2122717"><ele>268.0</ele><time>2026-03-22T13:01:06.348Z</time></trkpt><trkpt lat="43.1421733" lon="11.212165"><ele>268.0</ele><time>2026-03-22T13:01:09.348Z</time></trkpt><trkpt lat="43.1422383" lon="11.2121183"><ele>268.0</ele><time>2026-03-22T13:01:10.348Z</time></trkpt><trkpt lat="43.1423333" lon="11.2120583"><ele>268.0</ele><time>2026-03-22T13:01:11.348Z</time></trkpt><trkpt lat="43.142455" lon="11.21198"><ele>268.0</ele><time>2026-03-22T13:01:12.348Z</time></trkpt><trkpt lat="43.1426" lon="11.211925"><ele>267.0</ele><time>2026-03-22T13:01:13.347Z</time></trkpt><trkpt lat="43.1427817" lon="11.2119"><ele>266.0</ele><time>2026-03-22T13:01:14.347Z</time></trkpt><trkpt lat="43.14295" lon="11.2119083"><ele>265.0</ele><time>2026-03-22T13:01:15.347Z</time></trkpt><trkpt lat="43.1431333" lon="11.2119067"><ele>264.3333333333333</ele><time>2026-03-22T13:01:16.347Z</time></trkpt><trkpt lat="43.1433083" lon="11.2118667"><ele>263.6666666666667</ele><time>2026-03-22T13:01:17.347Z</time></trkpt><trkpt lat="43.1434733" lon="11.211775"><ele>263.0</ele><time>2026-03-22T13:01:18.348Z</time></trkpt><trkpt lat="43.143645" lon="11.21165"><ele>263.0</ele><time>2026-03-22T13:01:19.348Z</time></trkpt><trkpt lat="43.1437917" lon="11.211515"><ele>263.0</ele><time>2026-03-22T13:01:20.348Z</time></trkpt><trkpt lat="43.1439217" lon="11.2113767"><ele>263.0</ele><time>2026-03-22T13:01:21.348Z</time></trkpt><trkpt lat="43.1440183" lon="11.2112267"><ele>263.33333333333337</ele><time>2026-03-22T13:01:22.348Z</time></trkpt><trkpt lat="43.1440717" lon="11.21106"><ele>263.6666666666667</ele><time>2026-03-22T13:01:23.348Z</time></trkpt><trkpt lat="43.14409" lon="11.2108417"><ele>264.0</ele><time>2026-03-22T13:01:24.348Z</time></trkpt><trkpt lat="43.14409" lon="11.2106083"><ele>264.0</ele><time>2026-03-22T13:01:25.348Z</time></trkpt><trkpt lat="43.1440833" lon="11.21037"><ele>264.0</ele><time>2026-03-22T13:01:26.348Z</time></trkpt><trkpt lat="43.1440933" lon="11.2101483"><ele>264.0</ele><time>2026-03-22T13:01:27.348Z</time></trkpt><trkpt lat="43.1441117" lon="11.20993"><ele>263.0</ele><time>2026-03-22T13:01:28.347Z</time></trkpt><trkpt lat="43.1441783" lon="11.2097067"><ele>262.0</ele><time>2026-03-22T13:01:29.347Z</time></trkpt><trkpt lat="43.1442917" lon="11.209505"><ele>261.0</ele><time>2026-03-22T13:01:30.348Z</time></trkpt><trkpt lat="43.1444217" lon="11.2093067"><ele>261.0</ele><time>2026-03-22T13:01:31.347Z</time></trkpt><trkpt lat="43.1445517" lon="11.20909"><ele>261.0</ele><time>2026-03-22T13:01:32.347Z</time></trkpt><trkpt lat="43.144685" lon="11.2088917"><ele>261.0</ele><time>2026-03-22T13:01:33.348Z</time></trkpt><trkpt lat="43.144805" lon="11.208695"><ele>264.0</ele><time>2026-03-22T13:01:34.348Z</time></trkpt><trkpt lat="43.1449183" lon="11.2085183"><ele>267.0</ele><time>2026-03-22T13:01:35.348Z</time></trkpt><trkpt lat="43.1449767" lon="11.20835"><ele>270.0</ele><time>2026-03-22T13:01:36.348Z</time></trkpt><trkpt lat="43.14498" lon="11.2080933"><ele>270.3333333333333</ele><time>2026-03-22T13:01:37.348Z</time></trkpt><trkpt lat="43.1449767" lon="11.2078217"><ele>270.66666666666663</ele><time>2026-03-22T13:01:38.348Z</time></trkpt><trkpt lat="43.1449367" lon="11.2075583"><ele>271.0</ele><time>2026-03-22T13:01:39.348Z</time></trkpt><trkpt lat="43.1448583" lon="11.2073183"><ele>272.0</ele><time>2026-03-22T13:01:40.347Z</time></trkpt><trkpt lat="43.14478" lon="11.2070633"><ele>273.0</ele><time>2026-03-22T13:01:41.348Z</time></trkpt><trkpt lat="43.144675" lon="11.2068017"><ele>274.0</ele><time>2026-03-22T13:01:42.347Z</time></trkpt><trkpt lat="43.1445717" lon="11.2065467"><ele>274.0</ele><time>2026-03-22T13:01:43.348Z</time></trkpt><trkpt lat="43.1444767" lon="11.2062933"><ele>274.0</ele><time>2026-03-22T13:01:44.348Z</time></trkpt><trkpt lat="43.14439" lon="11.206035"><ele>274.0</ele><time>2026-03-22T13:01:45.348Z</time></trkpt><trkpt lat="43.1442967" lon="11.2057683"><ele>275.0</ele><time>2026-03-22T13:01:46.348Z</time></trkpt><trkpt lat="43.1442" lon="11.2054967"><ele>276.0</ele><time>2026-03-22T13:01:47.348Z</time></trkpt><trkpt lat="43.144115" lon="11.2052167"><ele>277.0</ele><time>2026-03-22T13:01:48.348Z</time></trkpt><trkpt lat="43.1440367" lon="11.2049233"><ele>273.66666666666663</ele><time>2026-03-22T13:01:49.348Z</time></trkpt><trkpt lat="43.14399" lon="11.2046483"><ele>270.3333333333333</ele><time>2026-03-22T13:01:50.347Z</time></trkpt><trkpt lat="43.143955" lon="11.20439"><ele>267.0</ele><time>2026-03-22T13:01:51.348Z</time></trkpt><trkpt lat="43.1439483" lon="11.2041533"><ele>266.3333333333333</ele><time>2026-03-22T13:01:52.348Z</time></trkpt><trkpt lat="43.1439783" lon="11.2039267"><ele>265.66666666666663</ele><time>2026-03-22T13:01:53.348Z</time></trkpt><trkpt lat="43.1440483" lon="11.203715"><ele>265.0</ele><time>2026-03-22T13:01:54.347Z</time></trkpt><trkpt lat="43.1441367" lon="11.20351"><ele>266.66666666666663</ele><time>2026-03-22T13:01:55.348Z</time></trkpt><trkpt lat="43.144245" lon="11.2032967"><ele>268.3333333333333</ele><time>2026-03-22T13:01:56.347Z</time></trkpt><trkpt lat="43.1443417" lon="11.203095"><ele>270.0</ele><time>2026-03-22T13:01:57.348Z</time></trkpt><trkpt lat="43.144385" lon="11.2028617"><ele>270.0</ele><time>2026-03-22T13:01:58.348Z</time></trkpt><trkpt lat="43.14444" lon="11.2026733"><ele>270.0</ele><time>2026-03-22T13:01:59.348Z</time></trkpt><trkpt lat="43.1444617" lon="11.2024517"><ele>270.0</ele><time>2026-03-22T13:02:00.348Z</time></trkpt><trkpt lat="43.14451" lon="11.2022633"><ele>269.6666666666667</ele><time>2026-03-22T13:02:01.347Z</time></trkpt><trkpt lat="43.1445867" lon="11.2020983"><ele>269.33333333333337</ele><time>2026-03-22T13:02:02.348Z</time></trkpt><trkpt lat="43.1446817" lon="11.2019283"><ele>269.0</ele><time>2026-03-22T13:02:03.347Z</time></trkpt><trkpt lat="43.1447867" lon="11.2017433"><ele>269.0</ele><time>2026-03-22T13:02:04.348Z</time></trkpt><trkpt lat="43.14487" lon="11.2015433"><ele>269.0</ele><time>2026-03-22T13:02:05.348Z</time></trkpt><trkpt lat="43.1449267" lon="11.2013733"><ele>269.0</ele><time>2026-03-22T13:02:06.347Z</time></trkpt><trkpt lat="43.1449567" lon="11.201245"><ele>269.0</ele><time>2026-03-22T13:02:07.348Z</time></trkpt><trkpt lat="43.1449617" lon="11.20115"><ele>269.0</ele><time>2026-03-22T13:02:08.348Z</time></trkpt><trkpt lat="43.1449833" lon="11.2010283"><ele>269.0</ele><time>2026-03-22T13:02:10.348Z</time></trkpt><trkpt lat="43.1449933" lon="11.2009417"><ele>269.0</ele><time>2026-03-22T13:02:12.348Z</time></trkpt><trkpt lat="43.1450017" lon="11.2008367"><ele>269.0</ele><time>2026-03-22T13:02:18.348Z</time></trkpt><trkpt lat="43.1450533" lon="11.2006517"><ele>269.0</ele><time>2026-03-22T13:02:20.348Z</time></trkpt><trkpt lat="43.14509" lon="11.2005033"><ele>269.0</ele><time>2026-03-22T13:02:21.347Z</time></trkpt><trkpt lat="43.14512" lon="11.2003467"><ele>269.0</ele><time>2026-03-22T13:02:22.347Z</time></trkpt><trkpt lat="43.1451533" lon="11.200195"><ele>269.0</ele><time>2026-03-22T13:02:23.348Z</time></trkpt><trkpt lat="43.14518" lon="11.20006"><ele>269.0</ele><time>2026-03-22T13:02:24.348Z</time></trkpt><trkpt lat="43.145195" lon="11.1999433"><ele>269.0</ele><time>2026-03-22T13:02:25.348Z</time></trkpt><trkpt lat="43.1452017" lon="11.1998517"><ele>268.6666666666667</ele><time>2026-03-22T13:02:26.347Z</time></trkpt><trkpt lat="43.1451767" lon="11.1997717"><ele>268.33333333333337</ele><time>2026-03-22T13:02:28.348Z</time></trkpt><trkpt lat="43.145105" lon="11.19979"><ele>268.0</ele><time>2026-03-22T13:02:32.347Z</time></trkpt><trkpt lat="43.14502" lon="11.1998"><ele>267.6666666666667</ele><time>2026-03-22T13:02:35.347Z</time></trkpt><trkpt lat="43.1449317" lon="11.1998267"><ele>267.3333333333333</ele><time>2026-03-22T13:02:37.348Z</time></trkpt><trkpt lat="43.1448733" lon="11.19986"><ele>267.0</ele><time>2026-03-22T13:02:38.348Z</time></trkpt><trkpt lat="43.14481" lon="11.1999267"><ele>267.0</ele><time>2026-03-22T13:02:39.348Z</time></trkpt><trkpt lat="43.14475" lon="11.2000017"><ele>267.0</ele><time>2026-03-22T13:02:40.348Z</time></trkpt><trkpt lat="43.144695" lon="11.2000517"><ele>267.0</ele><time>2026-03-22T13:02:41.347Z</time></trkpt><trkpt lat="43.1445817" lon="11.2000533"><ele>267.0</ele><time>2026-03-22T13:02:43.348Z</time></trkpt><trkpt lat="43.1445133" lon="11.2000117"><ele>267.0</ele><time>2026-03-22T13:02:44.348Z</time></trkpt><trkpt lat="43.1444433" lon="11.1999683"><ele>267.0</ele><time>2026-03-22T13:02:45.348Z</time></trkpt><trkpt lat="43.1443733" lon="11.1999067"><ele>267.0</ele><time>2026-03-22T13:02:46.347Z</time></trkpt><trkpt lat="43.144305" lon="11.1998367"><ele>267.0</ele><time>2026-03-22T13:02:47.348Z</time></trkpt><trkpt lat="43.1442417" lon="11.1997483"><ele>267.0</ele><time>2026-03-22T13:02:48.347Z</time></trkpt><trkpt lat="43.144185" lon="11.1996433"><ele>267.0</ele><time>2026-03-22T13:02:49.347Z</time></trkpt><trkpt lat="43.144125" lon="11.199555"><ele>267.0</ele><time>2026-03-22T13:02:50.348Z</time></trkpt><trkpt lat="43.1440733" lon="11.1994583"><ele>267.0</ele><time>2026-03-22T13:02:51.348Z</time></trkpt><trkpt lat="43.1440367" lon="11.1993633"><ele>267.3333333333333</ele><time>2026-03-22T13:02:52.348Z</time></trkpt><trkpt lat="43.144005" lon="11.1992767"><ele>267.6666666666667</ele><time>2026-03-22T13:02:53.348Z</time></trkpt><trkpt lat="43.1439767" lon="11.1991967"><ele>268.0</ele><time>2026-03-22T13:02:54.348Z</time></trkpt><trkpt lat="43.14391" lon="11.1991083"><ele>268.33333333333337</ele><time>2026-03-22T13:02:56.348Z</time></trkpt><trkpt lat="43.1438017" lon="11.1990733"><ele>268.6666666666667</ele><time>2026-03-22T13:02:59.348Z</time></trkpt><trkpt lat="43.1437333" lon="11.1990567"><ele>269.0</ele><time>2026-03-22T13:03:00.348Z</time></trkpt><trkpt lat="43.1436583" lon="11.19902"><ele>270.0</ele><time>2026-03-22T13:03:01.348Z</time></trkpt><trkpt lat="43.1435633" lon="11.1989667"><ele>271.0</ele><time>2026-03-22T13:03:02.348Z</time></trkpt><trkpt lat="43.143455" lon="11.198885"><ele>272.0</ele><time>2026-03-22T13:03:03.348Z</time></trkpt><trkpt lat="43.1433517" lon="11.1988117"><ele>273.0</ele><time>2026-03-22T13:03:04.347Z</time></trkpt><trkpt lat="43.1432433" lon="11.19875"><ele>273.25</ele><time>2026-03-22T13:03:05.347Z</time></trkpt><trkpt lat="43.1431367" lon="11.1987133"><ele>273.5</ele><time>2026-03-22T13:03:06.347Z</time></trkpt><trkpt lat="43.143025" lon="11.198685"><ele>273.75</ele><time>2026-03-22T13:03:07.348Z</time></trkpt><trkpt lat="43.1429" lon="11.1986567"><ele>274.0</ele><time>2026-03-22T13:03:08.348Z</time></trkpt><trkpt lat="43.1427717" lon="11.198625"><ele>274.0</ele><time>2026-03-22T13:03:09.348Z</time></trkpt><trkpt lat="43.1426617" lon="11.1985967"><ele>274.0</ele><time>2026-03-22T13:03:10.348Z</time></trkpt><trkpt lat="43.1425617" lon="11.1985633"><ele>274.0</ele><time>2026-03-22T13:03:11.348Z</time></trkpt><trkpt lat="43.1424533" lon="11.1985317"><ele>274.0</ele><time>2026-03-22T13:03:12.348Z</time></trkpt><trkpt lat="43.1423533" lon="11.1984933"><ele>274.0</ele><time>2026-03-22T13:03:13.348Z</time></trkpt><trkpt lat="43.1422567" lon="11.19849"><ele>274.2</ele><time>2026-03-22T13:03:14.348Z</time></trkpt><trkpt lat="43.1421667" lon="11.1985017"><ele>274.4</ele><time>2026-03-22T13:03:15.348Z</time></trkpt><trkpt lat="43.142075" lon="11.19853"><ele>274.6</ele><time>2026-03-22T13:03:16.348Z</time></trkpt><trkpt lat="43.1419783" lon="11.1985617"><ele>274.8</ele><time>2026-03-22T13:03:17.347Z</time></trkpt><trkpt lat="43.1418817" lon="11.1985933"><ele>275.0</ele><time>2026-03-22T13:03:18.348Z</time></trkpt><trkpt lat="43.14178" lon="11.1986133"><ele>275.0</ele><time>2026-03-22T13:03:19.347Z</time></trkpt><trkpt lat="43.141695" lon="11.1986267"><ele>275.0</ele><time>2026-03-22T13:03:20.348Z</time></trkpt><trkpt lat="43.14159" lon="11.1986267"><ele>275.0</ele><time>2026-03-22T13:03:22.348Z</time></trkpt><trkpt lat="43.14171" lon="11.19861"><ele>275.0</ele><time>2026-03-22T13:03:48.348Z</time></trkpt><trkpt lat="43.1417917" lon="11.1985917"><ele>275.0</ele><time>2026-03-22T13:03:49.347Z</time></trkpt><trkpt lat="43.14186" lon="11.1985817"><ele>275.0</ele><time>2026-03-22T13:03:50.348Z</time></trkpt><trkpt lat="43.1419333" lon="11.1985633"><ele>275.0</ele><time>2026-03-22T13:03:51.348Z</time></trkpt><trkpt lat="43.142015" lon="11.19854"><ele>275.0</ele><time>2026-03-22T13:03:52.348Z</time></trkpt><trkpt lat="43.142085" lon="11.1985167"><ele>275.0</ele><time>2026-03-22T13:03:53.348Z</time></trkpt><trkpt lat="43.14219" lon="11.1984783"><ele>275.0</ele><time>2026-03-22T13:03:55.348Z</time></trkpt><trkpt lat="43.142095" lon="11.1984367"><ele>275.0</ele><time>2026-03-22T13:04:00.348Z</time></trkpt><trkpt lat="43.1420283" lon="11.1984317"><ele>275.0</ele><time>2026-03-22T13:04:01.347Z</time></trkpt><trkpt lat="43.1419017" lon="11.1983967"><ele>275.0</ele><time>2026-03-22T13:04:03.348Z</time></trkpt><trkpt lat="43.141835" lon="11.1983733"><ele>275.0</ele><time>2026-03-22T13:04:04.348Z</time></trkpt><trkpt lat="43.1417517" lon="11.1983517"><ele>275.0</ele><time>2026-03-22T13:04:06.347Z</time></trkpt><trkpt lat="43.14165" lon="11.1983083"><ele>275.0</ele><time>2026-03-22T13:04:08.347Z</time></trkpt><trkpt lat="43.1415883" lon="11.1982733"><ele>275.1666666666667</ele><time>2026-03-22T13:04:09.348Z</time></trkpt><trkpt lat="43.1415283" lon="11.19823"><ele>275.33333333333337</ele><time>2026-03-22T13:04:10.348Z</time></trkpt><trkpt lat="43.1414717" lon="11.1981867"><ele>275.5</ele><time>2026-03-22T13:04:11.348Z</time></trkpt><trkpt lat="43.141425" lon="11.1981283"><ele>275.6666666666667</ele><time>2026-03-22T13:04:12.347Z</time></trkpt><trkpt lat="43.14138" lon="11.198065"><ele>275.8333333333333</ele><time>2026-03-22T13:04:13.348Z</time></trkpt><trkpt lat="43.14133" lon="11.1979367"><ele>276.0</ele><time>2026-03-22T13:04:15.348Z</time></trkpt><trkpt lat="43.14131" lon="11.197785"><ele>276.3333333333333</ele><time>2026-03-22T13:04:17.347Z</time></trkpt><trkpt lat="43.14131" lon="11.1976483"><ele>276.6666666666667</ele><time>2026-03-22T13:04:19.348Z</time></trkpt><trkpt lat="43.1413133" lon="11.1975433"><ele>277.0</ele><time>2026-03-22T13:04:21.347Z</time></trkpt><trkpt lat="43.141345" lon="11.1974533"><ele>277.33333333333337</ele><time>2026-03-22T13:04:23.347Z</time></trkpt><trkpt lat="43.1414083" lon="11.1974033"><ele>277.6666666666667</ele><time>2026-03-22T13:04:25.348Z</time></trkpt><trkpt lat="43.141485" lon="11.19736"><ele>278.0</ele><time>2026-03-22T13:04:27.348Z</time></trkpt><trkpt lat="43.141595" lon="11.19731"><ele>279.0</ele><time>2026-03-22T13:04:29.348Z</time></trkpt><trkpt lat="43.1416583" lon="11.1972433"><ele>280.0</ele><time>2026-03-22T13:04:32.348Z</time></trkpt><trkpt lat="43.1416467" lon="11.1971467"><ele>281.0</ele><time>2026-03-22T13:04:35.348Z</time></trkpt><trkpt lat="43.1416217" lon="11.1970417"><ele>282.0</ele><time>2026-03-22T13:04:37.348Z</time></trkpt><trkpt lat="43.1415983" lon="11.1969183"><ele>283.0</ele><time>2026-03-22T13:04:39.347Z</time></trkpt><trkpt lat="43.1415917" lon="11.1967833"><ele>284.0</ele><time>2026-03-22T13:04:41.348Z</time></trkpt><trkpt lat="43.1416133" lon="11.1966617"><ele>284.0</ele><time>2026-03-22T13:04:43.348Z</time></trkpt><trkpt lat="43.141655" lon="11.1965417"><ele>284.0</ele><time>2026-03-22T13:04:45.347Z</time></trkpt><trkpt lat="43.141695" lon="11.1964083"><ele>284.0</ele><time>2026-03-22T13:04:47.348Z</time></trkpt><trkpt lat="43.1417217" lon="11.1962567"><ele>284.0</ele><time>2026-03-22T13:04:49.347Z</time></trkpt><trkpt lat="43.1417433" lon="11.1961717"><ele>284.0</ele><time>2026-03-22T13:04:50.347Z</time></trkpt><trkpt lat="43.1417617" lon="11.1960783"><ele>285.1666666666667</ele><time>2026-03-22T13:04:51.347Z</time></trkpt><trkpt lat="43.141785" lon="11.1959867"><ele>286.33333333333337</ele><time>2026-03-22T13:04:52.348Z</time></trkpt><trkpt lat="43.1418083" lon="11.1958967"><ele>287.5</ele><time>2026-03-22T13:04:53.348Z</time></trkpt><trkpt lat="43.1418383" lon="11.1958"><ele>288.6666666666667</ele><time>2026-03-22T13:04:54.348Z</time></trkpt><trkpt lat="43.1418683" lon="11.1957"><ele>289.8333333333333</ele><time>2026-03-22T13:04:55.348Z</time></trkpt><trkpt lat="43.1418933" lon="11.1955917"><ele>291.0</ele><time>2026-03-22T13:04:56.348Z</time></trkpt><trkpt lat="43.14193" lon="11.1954833"><ele>292.1666666666667</ele><time>2026-03-22T13:04:57.348Z</time></trkpt><trkpt lat="43.141975" lon="11.19539"><ele>293.3333333333333</ele><time>2026-03-22T13:04:58.348Z</time></trkpt><trkpt lat="43.1420317" lon="11.1953117"><ele>294.5</ele><time>2026-03-22T13:04:59.347Z</time></trkpt><trkpt lat="43.142085" lon="11.1952483"><ele>295.66666666666663</ele><time>2026-03-22T13:05:00.348Z</time></trkpt><trkpt lat="43.142145" lon="11.1951783"><ele>296.8333333333333</ele><time>2026-03-22T13:05:01.347Z</time></trkpt><trkpt lat="43.1422067" lon="11.1951"><ele>298.0</ele><time>2026-03-22T13:05:02.348Z</time></trkpt><trkpt lat="43.1422583" lon="11.1950033"><ele>298.0</ele><time>2026-03-22T13:05:03.348Z</time></trkpt><trkpt lat="43.1423017" lon="11.1949117"><ele>298.0</ele><time>2026-03-22T13:05:04.348Z</time></trkpt><trkpt lat="43.1423433" lon="11.1948217"><ele>298.0</ele><time>2026-03-22T13:05:05.348Z</time></trkpt><trkpt lat="43.142385" lon="11.1947417"><ele>298.0</ele><time>2026-03-22T13:05:06.348Z</time></trkpt><trkpt lat="43.142415" lon="11.1946583"><ele>298.0</ele><time>2026-03-22T13:05:07.348Z</time></trkpt><trkpt lat="43.14244" lon="11.1945617"><ele>298.0</ele><time>2026-03-22T13:05:08.348Z</time></trkpt><trkpt lat="43.1424683" lon="11.194445"><ele>303.6</ele><time>2026-03-22T13:05:09.348Z</time></trkpt><trkpt lat="43.1424983" lon="11.19433"><ele>309.20000000000005</ele><time>2026-03-22T13:05:10.348Z</time></trkpt><trkpt lat="43.1425467" lon="11.1942067"><ele>314.8</ele><time>2026-03-22T13:05:11.347Z</time></trkpt><trkpt lat="43.142605" lon="11.19409"><ele>320.40000000000003</ele><time>2026-03-22T13:05:12.347Z</time></trkpt><trkpt lat="43.142665" lon="11.1939783"><ele>326.0</ele><time>2026-03-22T13:05:13.348Z</time></trkpt><trkpt lat="43.1427283" lon="11.1938733"><ele>327.6</ele><time>2026-03-22T13:05:14.348Z</time></trkpt><trkpt lat="43.1427933" lon="11.1937467"><ele>329.20000000000005</ele><time>2026-03-22T13:05:15.348Z</time></trkpt><trkpt lat="43.14286" lon="11.19363"><ele>330.79999999999995</ele><time>2026-03-22T13:05:16.348Z</time></trkpt><trkpt lat="43.1429267" lon="11.1935167"><ele>332.4</ele><time>2026-03-22T13:05:17.347Z</time></trkpt><trkpt lat="43.1429817" lon="11.1934033"><ele>334.0</ele><time>2026-03-22T13:05:18.348Z</time></trkpt><trkpt lat="43.14303" lon="11.1932967"><ele>334.0</ele><time>2026-03-22T13:05:19.348Z</time></trkpt><trkpt lat="43.1430833" lon="11.1932"><ele>334.0</ele><time>2026-03-22T13:05:20.348Z</time></trkpt><trkpt lat="43.1431283" lon="11.1931"><ele>334.0</ele><time>2026-03-22T13:05:21.348Z</time></trkpt><trkpt lat="43.1431617" lon="11.1929983"><ele>334.0</ele><time>2026-03-22T13:05:22.348Z</time></trkpt><trkpt lat="43.143205" lon="11.192895"><ele>334.0</ele><time>2026-03-22T13:05:23.348Z</time></trkpt><trkpt lat="43.1432483" lon="11.1927767"><ele>334.0</ele><time>2026-03-22T13:05:24.348Z</time></trkpt><trkpt lat="43.143285" lon="11.19266"><ele>337.6</ele><time>2026-03-22T13:05:25.348Z</time></trkpt><trkpt lat="43.1433167" lon="11.1925583"><ele>341.2</ele><time>2026-03-22T13:05:26.348Z</time></trkpt><trkpt lat="43.1433517" lon="11.1924483"><ele>344.8</ele><time>2026-03-22T13:05:27.348Z</time></trkpt><trkpt lat="43.1433967" lon="11.1923167"><ele>348.40000000000003</ele><time>2026-03-22T13:05:28.348Z</time></trkpt><trkpt lat="43.14344" lon="11.1921917"><ele>352.0</ele><time>2026-03-22T13:05:29.347Z</time></trkpt><trkpt lat="43.143475" lon="11.1920683"><ele>351.66666666666663</ele><time>2026-03-22T13:05:30.348Z</time></trkpt><trkpt lat="43.1435117" lon="11.1919417"><ele>351.3333333333333</ele><time>2026-03-22T13:05:31.347Z</time></trkpt><trkpt lat="43.1435333" lon="11.1918317"><ele>351.0</ele><time>2026-03-22T13:05:32.348Z</time></trkpt><trkpt lat="43.1435383" lon="11.1917133"><ele>350.6666666666667</ele><time>2026-03-22T13:05:33.347Z</time></trkpt><trkpt lat="43.1435417" lon="11.19161"><ele>350.33333333333337</ele><time>2026-03-22T13:05:34.348Z</time></trkpt><trkpt lat="43.1435517" lon="11.191495"><ele>350.0</ele><time>2026-03-22T13:05:35.347Z</time></trkpt><trkpt lat="43.1435817" lon="11.191385"><ele>350.0</ele><time>2026-03-22T13:05:36.348Z</time></trkpt><trkpt lat="43.1436133" lon="11.1912567"><ele>350.0</ele><time>2026-03-22T13:05:37.348Z</time></trkpt><trkpt lat="43.14364" lon="11.19115"><ele>350.0</ele><time>2026-03-22T13:05:38.348Z</time></trkpt><trkpt lat="43.1436767" lon="11.1910633"><ele>350.0</ele><time>2026-03-22T13:05:39.348Z</time></trkpt><trkpt lat="43.1437117" lon="11.1909883"><ele>350.0</ele><time>2026-03-22T13:05:40.348Z</time></trkpt><trkpt lat="43.1437367" lon="11.1907833"><ele>350.0</ele><time>2026-03-22T13:06:55.347Z</time></trkpt><trkpt lat="43.1437317" lon="11.1906767"><ele>350.0</ele><time>2026-03-22T13:06:57.348Z</time></trkpt><trkpt lat="43.1436983" lon="11.1905117"><ele>350.0</ele><time>2026-03-22T13:06:59.347Z</time></trkpt><trkpt lat="43.14364" lon="11.1903517"><ele>350.0</ele><time>2026-03-22T13:07:01.348Z</time></trkpt><trkpt lat="43.1436117" lon="11.1902633"><ele>350.0</ele><time>2026-03-22T13:07:02.348Z</time></trkpt><trkpt lat="43.143585" lon="11.1901617"><ele>350.6</ele><time>2026-03-22T13:07:03.348Z</time></trkpt><trkpt lat="43.1435483" lon="11.1900533"><ele>351.2</ele><time>2026-03-22T13:07:04.348Z</time></trkpt><trkpt lat="43.1435117" lon="11.189945"><ele>351.79999999999995</ele><time>2026-03-22T13:07:05.348Z</time></trkpt><trkpt lat="43.1434633" lon="11.1898183"><ele>352.4</ele><time>2026-03-22T13:07:06.348Z</time></trkpt><trkpt lat="43.14341" lon="11.1897017"><ele>353.0</ele><time>2026-03-22T13:07:07.348Z</time></trkpt><trkpt lat="43.14336" lon="11.1895917"><ele>352.83333333333337</ele><time>2026-03-22T13:07:08.347Z</time></trkpt><trkpt lat="43.1433133" lon="11.1894983"><ele>352.6666666666667</ele><time>2026-03-22T13:07:09.348Z</time></trkpt><trkpt lat="43.1432667" lon="11.189415"><ele>352.5</ele><time>2026-03-22T13:07:10.347Z</time></trkpt><trkpt lat="43.14322" lon="11.1893333"><ele>352.3333333333333</ele><time>2026-03-22T13:07:11.348Z</time></trkpt><trkpt lat="43.143185" lon="11.18926"><ele>352.16666666666663</ele><time>2026-03-22T13:07:12.348Z</time></trkpt><trkpt lat="43.143125" lon="11.1891383"><ele>352.0</ele><time>2026-03-22T13:07:14.348Z</time></trkpt><trkpt lat="43.14312" lon="11.1890183"><ele>353.8</ele><time>2026-03-22T13:07:16.348Z</time></trkpt><trkpt lat="43.14317" lon="11.1889033"><ele>355.6</ele><time>2026-03-22T13:07:18.348Z</time></trkpt><trkpt lat="43.1432117" lon="11.1888367"><ele>357.40000000000003</ele><time>2026-03-22T13:07:19.348Z</time></trkpt><trkpt lat="43.1432567" lon="11.18876"><ele>359.20000000000005</ele><time>2026-03-22T13:07:20.348Z</time></trkpt><trkpt lat="43.1433133" lon="11.188625"><ele>361.0</ele><time>2026-03-22T13:07:22.348Z</time></trkpt><trkpt lat="43.1433733" lon="11.1884883"><ele>361.0</ele><time>2026-03-22T13:07:24.348Z</time></trkpt><trkpt lat="43.1434133" lon="11.1883433"><ele>361.0</ele><time>2026-03-22T13:07:26.348Z</time></trkpt><trkpt lat="43.1434267" lon="11.18825"><ele>361.0</ele><time>2026-03-22T13:07:27.347Z</time></trkpt><trkpt lat="43.1434383" lon="11.188145"><ele>361.0</ele><time>2026-03-22T13:07:28.347Z</time></trkpt><trkpt lat="43.14344" lon="11.1880417"><ele>361.0</ele><time>2026-03-22T13:07:29.348Z</time></trkpt><trkpt lat="43.14342" lon="11.187945"><ele>361.0</ele><time>2026-03-22T13:07:30.348Z</time></trkpt><trkpt lat="43.1434" lon="11.1878367"><ele>359.7142857142857</ele><time>2026-03-22T13:07:31.348Z</time></trkpt><trkpt lat="43.1433717" lon="11.187745"><ele>358.4285714285714</ele><time>2026-03-22T13:07:32.347Z</time></trkpt><trkpt lat="43.1433417" lon="11.1876467"><ele>357.1428571428571</ele><time>2026-03-22T13:07:33.348Z</time></trkpt><trkpt lat="43.1433167" lon="11.187555"><ele>355.8571428571429</ele><time>2026-03-22T13:07:34.348Z</time></trkpt><trkpt lat="43.143295" lon="11.1874583"><ele>354.57142857142856</ele><time>2026-03-22T13:07:35.347Z</time></trkpt><trkpt lat="43.143285" lon="11.1873717"><ele>353.2857142857143</ele><time>2026-03-22T13:07:36.348Z</time></trkpt><trkpt lat="43.1432717" lon="11.187275"><ele>352.0</ele><time>2026-03-22T13:07:37.348Z</time></trkpt><trkpt lat="43.14326" lon="11.1871867"><ele>352.0</ele><time>2026-03-22T13:07:38.348Z</time></trkpt><trkpt lat="43.143245" lon="11.18709"><ele>352.0</ele><time>2026-03-22T13:07:39.348Z</time></trkpt><trkpt lat="43.1432183" lon="11.1869833"><ele>352.0</ele><time>2026-03-22T13:07:40.348Z</time></trkpt><trkpt lat="43.1431867" lon="11.18688"><ele>352.0</ele><time>2026-03-22T13:07:41.348Z</time></trkpt><trkpt lat="43.1431683" lon="11.186775"><ele>352.0</ele><time>2026-03-22T13:07:42.348Z</time></trkpt><trkpt lat="43.1431567" lon="11.1866717"><ele>352.0</ele><time>2026-03-22T13:07:43.347Z</time></trkpt><trkpt lat="43.1431567" lon="11.1865517"><ele>354.40000000000003</ele><time>2026-03-22T13:07:44.348Z</time></trkpt><trkpt lat="43.14316" lon="11.1864367"><ele>356.8</ele><time>2026-03-22T13:07:45.348Z</time></trkpt><trkpt lat="43.1431633" lon="11.1863017"><ele>359.2</ele><time>2026-03-22T13:07:46.347Z</time></trkpt><trkpt lat="43.1431783" lon="11.1861583"><ele>361.6</ele><time>2026-03-22T13:07:47.348Z</time></trkpt><trkpt lat="43.1431867" lon="11.1860367"><ele>364.0</ele><time>2026-03-22T13:07:48.347Z</time></trkpt><trkpt lat="43.1431933" lon="11.18593"><ele>364.0</ele><time>2026-03-22T13:07:49.348Z</time></trkpt><trkpt lat="43.1431983" lon="11.1858233"><ele>364.0</ele><time>2026-03-22T13:07:50.348Z</time></trkpt><trkpt lat="43.1432017" lon="11.1857217"><ele>364.0</ele><time>2026-03-22T13:07:51.348Z</time></trkpt><trkpt lat="43.1431767" lon="11.1856367"><ele>364.0</ele><time>2026-03-22T13:07:52.348Z</time></trkpt><trkpt lat="43.1431633" lon="11.1855483"><ele>364.0</ele><time>2026-03-22T13:07:53.347Z</time></trkpt><trkpt lat="43.1431417" lon="11.1854667"><ele>364.0</ele><time>2026-03-22T13:07:54.348Z</time></trkpt><trkpt lat="43.1430983" lon="11.1853217"><ele>364.2</ele><time>2026-03-22T13:07:56.348Z</time></trkpt><trkpt lat="43.1430733" lon="11.1852"><ele>364.4</ele><time>2026-03-22T13:07:58.348Z</time></trkpt><trkpt lat="43.1430617" lon="11.1850233"><ele>364.6</ele><time>2026-03-22T13:09:08.348Z</time></trkpt><trkpt lat="43.143055" lon="11.1848867"><ele>364.8</ele><time>2026-03-22T13:09:09.348Z</time></trkpt><trkpt lat="43.1430467" lon="11.184725"><ele>365.0</ele><time>2026-03-22T13:09:10.347Z</time></trkpt><trkpt lat="43.143045" lon="11.184545"><ele>365.0</ele><time>2026-03-22T13:09:11.348Z</time></trkpt><trkpt lat="43.1430617" lon="11.1843683"><ele>365.0</ele><time>2026-03-22T13:09:12.347Z</time></trkpt><trkpt lat="43.1430683" lon="11.1841833"><ele>365.0</ele><time>2026-03-22T13:09:13.348Z</time></trkpt><trkpt lat="43.1430683" lon="11.1840033"><ele>365.0</ele><time>2026-03-22T13:09:14.348Z</time></trkpt><trkpt lat="43.1430583" lon="11.1838283"><ele>364.75</ele><time>2026-03-22T13:09:15.348Z</time></trkpt><trkpt lat="43.1430433" lon="11.18366"><ele>364.5</ele><time>2026-03-22T13:09:16.348Z</time></trkpt><trkpt lat="43.143015" lon="11.183495"><ele>364.25</ele><time>2026-03-22T13:09:17.348Z</time></trkpt><trkpt lat="43.1429633" lon="11.1833383"><ele>364.0</ele><time>2026-03-22T13:09:18.347Z</time></trkpt><trkpt lat="43.1428867" lon="11.1831867"><ele>362.0</ele><time>2026-03-22T13:09:19.348Z</time></trkpt><trkpt lat="43.1428083" lon="11.1830433"><ele>360.0</ele><time>2026-03-22T13:09:20.348Z</time></trkpt><trkpt lat="43.14272" lon="11.1829033"><ele>358.0</ele><time>2026-03-22T13:09:21.347Z</time></trkpt><trkpt lat="43.1426367" lon="11.1827717"><ele>356.0</ele><time>2026-03-22T13:09:22.348Z</time></trkpt><trkpt lat="43.1425533" lon="11.1826233"><ele>356.0</ele><time>2026-03-22T13:09:23.348Z</time></trkpt><trkpt lat="43.1424583" lon="11.1824867"><ele>356.0</ele><time>2026-03-22T13:09:24.347Z</time></trkpt><trkpt lat="43.142365" lon="11.1823433"><ele>356.0</ele><time>2026-03-22T13:09:25.348Z</time></trkpt><trkpt lat="43.14228" lon="11.1822067"><ele>356.0</ele><time>2026-03-22T13:09:26.347Z</time></trkpt><trkpt lat="43.14219" lon="11.1820767"><ele>355.75</ele><time>2026-03-22T13:09:27.348Z</time></trkpt><trkpt lat="43.1420967" lon="11.1819483"><ele>355.5</ele><time>2026-03-22T13:09:28.347Z</time></trkpt><trkpt lat="43.1420167" lon="11.1818283"><ele>355.25</ele><time>2026-03-22T13:09:29.347Z</time></trkpt><trkpt lat="43.14194" lon="11.1817217"><ele>355.0</ele><time>2026-03-22T13:09:30.348Z</time></trkpt><trkpt lat="43.14188" lon="11.1816117"><ele>355.2</ele><time>2026-03-22T13:09:31.348Z</time></trkpt><trkpt lat="43.141835" lon="11.1815033"><ele>355.4</ele><time>2026-03-22T13:09:32.348Z</time></trkpt><trkpt lat="43.14181" lon="11.1813833"><ele>355.6</ele><time>2026-03-22T13:09:33.348Z</time></trkpt><trkpt lat="43.141805" lon="11.1812533"><ele>355.8</ele><time>2026-03-22T13:09:34.348Z</time></trkpt><trkpt lat="43.1418083" lon="11.18112"><ele>356.0</ele><time>2026-03-22T13:09:35.348Z</time></trkpt><trkpt lat="43.1418367" lon="11.180995"><ele>356.0</ele><time>2026-03-22T13:09:36.348Z</time></trkpt><trkpt lat="43.14187" lon="11.18087"><ele>356.0</ele><time>2026-03-22T13:09:37.348Z</time></trkpt><trkpt lat="43.141905" lon="11.1807733"><ele>356.0</ele><time>2026-03-22T13:09:38.348Z</time></trkpt><trkpt lat="43.141965" lon="11.180655"><ele>356.0</ele><time>2026-03-22T13:09:40.347Z</time></trkpt><trkpt lat="43.1420167" lon="11.1805617"><ele>356.0</ele><time>2026-03-22T13:09:42.348Z</time></trkpt><trkpt lat="43.1420433" lon="11.1804767"><ele>356.0</ele><time>2026-03-22T13:09:44.348Z</time></trkpt><trkpt lat="43.1420183" lon="11.1803783"><ele>357.20000000000005</ele><time>2026-03-22T13:09:47.348Z</time></trkpt><trkpt lat="43.141925" lon="11.1802917"><ele>358.40000000000003</ele><time>2026-03-22T13:09:50.348Z</time></trkpt><trkpt lat="43.1418517" lon="11.180255"><ele>359.6</ele><time>2026-03-22T13:09:51.347Z</time></trkpt><trkpt lat="43.141765" lon="11.1802233"><ele>360.8</ele><time>2026-03-22T13:09:52.347Z</time></trkpt><trkpt lat="43.1416817" lon="11.18018"><ele>362.0</ele><time>2026-03-22T13:09:53.348Z</time></trkpt><trkpt lat="43.1415917" lon="11.1801533"><ele>362.20000000000005</ele><time>2026-03-22T13:09:54.347Z</time></trkpt><trkpt lat="43.1414967" lon="11.1801183"><ele>362.4</ele><time>2026-03-22T13:09:55.347Z</time></trkpt><trkpt lat="43.1414033" lon="11.180065"><ele>362.6</ele><time>2026-03-22T13:09:56.348Z</time></trkpt><trkpt lat="43.141295" lon="11.18003"><ele>362.79999999999995</ele><time>2026-03-22T13:09:57.348Z</time></trkpt><trkpt lat="43.14119" lon="11.1800067"><ele>363.0</ele><time>2026-03-22T13:09:58.348Z</time></trkpt><trkpt lat="43.1410867" lon="11.1800017"><ele>363.0</ele><time>2026-03-22T13:09:59.348Z</time></trkpt><trkpt lat="43.1409917" lon="11.1799933"><ele>363.0</ele><time>2026-03-22T13:10:00.348Z</time></trkpt><trkpt lat="43.1409083" lon="11.1799833"><ele>363.0</ele><time>2026-03-22T13:10:01.348Z</time></trkpt><trkpt lat="43.1408067" lon="11.17997"><ele>363.0</ele><time>2026-03-22T13:10:02.348Z</time></trkpt><trkpt lat="43.1406983" lon="11.1799567"><ele>363.0</ele><time>2026-03-22T13:10:03.347Z</time></trkpt><trkpt lat="43.140575" lon="11.1799717"><ele>363.79999999999995</ele><time>2026-03-22T13:10:04.347Z</time></trkpt><trkpt lat="43.140475" lon="11.179985"><ele>364.6</ele><time>2026-03-22T13:10:05.347Z</time></trkpt><trkpt lat="43.14037" lon="11.1800033"><ele>365.4</ele><time>2026-03-22T13:10:06.348Z</time></trkpt><trkpt lat="43.1402717" lon="11.1800133"><ele>366.20000000000005</ele><time>2026-03-22T13:10:07.348Z</time></trkpt><trkpt lat="43.1401783" lon="11.1800183"><ele>367.0</ele><time>2026-03-22T13:10:08.347Z</time></trkpt><trkpt lat="43.14008" lon="11.1800233"><ele>367.0</ele><time>2026-03-22T13:10:09.347Z</time></trkpt><trkpt lat="43.140005" lon="11.180025"><ele>367.0</ele><time>2026-03-22T13:10:10.347Z</time></trkpt><trkpt lat="43.1399217" lon="11.1800267"><ele>367.0</ele><time>2026-03-22T13:10:11.348Z</time></trkpt><trkpt lat="43.1398433" lon="11.1800383"><ele>367.0</ele><time>2026-03-22T13:10:12.348Z</time></trkpt><trkpt lat="43.139765" lon="11.18005"><ele>367.0</ele><time>2026-03-22T13:10:13.347Z</time></trkpt><trkpt lat="43.139695" lon="11.18006"><ele>367.0</ele><time>2026-03-22T13:10:14.348Z</time></trkpt><trkpt lat="43.1396183" lon="11.1800583"><ele>367.16666666666663</ele><time>2026-03-22T13:10:15.348Z</time></trkpt><trkpt lat="43.1395133" lon="11.1800333"><ele>367.3333333333333</ele><time>2026-03-22T13:10:17.347Z</time></trkpt><trkpt lat="43.1394667" lon="11.1799467"><ele>367.5</ele><time>2026-03-22T13:10:19.348Z</time></trkpt><trkpt lat="43.1394533" lon="11.1798617"><ele>367.6666666666667</ele><time>2026-03-22T13:10:21.348Z</time></trkpt><trkpt lat="43.139465" lon="11.179765"><ele>367.83333333333337</ele><time>2026-03-22T13:10:23.348Z</time></trkpt><trkpt lat="43.1395033" lon="11.179625"><ele>368.0</ele><time>2026-03-22T13:10:25.348Z</time></trkpt><trkpt lat="43.1395267" lon="11.1794683"><ele>367.33333333333337</ele><time>2026-03-22T13:10:27.348Z</time></trkpt><trkpt lat="43.13956" lon="11.1793867"><ele>366.6666666666667</ele><time>2026-03-22T13:10:28.348Z</time></trkpt><trkpt lat="43.1395917" lon="11.1792983"><ele>366.0</ele><time>2026-03-22T13:10:29.348Z</time></trkpt><trkpt lat="43.1396417" lon="11.17919"><ele>365.3333333333333</ele><time>2026-03-22T13:10:30.348Z</time></trkpt><trkpt lat="43.1396867" lon="11.17909"><ele>364.66666666666663</ele><time>2026-03-22T13:10:31.348Z</time></trkpt><trkpt lat="43.1397183" lon="11.1789867"><ele>364.0</ele><time>2026-03-22T13:10:32.348Z</time></trkpt><trkpt lat="43.1397467" lon="11.1788817"><ele>362.66666666666663</ele><time>2026-03-22T13:10:33.348Z</time></trkpt><trkpt lat="43.139765" lon="11.17877"><ele>361.3333333333333</ele><time>2026-03-22T13:10:34.348Z</time></trkpt><trkpt lat="43.139765" lon="11.178675"><ele>360.0</ele><time>2026-03-22T13:10:35.347Z</time></trkpt><trkpt lat="43.13973" lon="11.1785333"><ele>358.6666666666667</ele><time>2026-03-22T13:10:37.347Z</time></trkpt><trkpt lat="43.139685" lon="11.1784583"><ele>357.33333333333337</ele><time>2026-03-22T13:11:22.348Z</time></trkpt><trkpt lat="43.13969" lon="11.1785533"><ele>356.0</ele><time>2026-03-22T13:11:25.348Z</time></trkpt><trkpt lat="43.13973" lon="11.1787233"><ele>356.0</ele><time>2026-03-22T13:11:27.347Z</time></trkpt><trkpt lat="43.1397333" lon="11.1788267"><ele>356.0</ele><time>2026-03-22T13:11:28.347Z</time></trkpt><trkpt lat="43.1397217" lon="11.178955"><ele>356.0</ele><time>2026-03-22T13:11:29.347Z</time></trkpt><trkpt lat="43.139685" lon="11.1790883"><ele>356.0</ele><time>2026-03-22T13:11:30.348Z</time></trkpt><trkpt lat="43.13964" lon="11.1792367"><ele>356.0</ele><time>2026-03-22T13:11:31.348Z</time></trkpt><trkpt lat="43.1395917" lon="11.1793833"><ele>357.6</ele><time>2026-03-22T13:11:32.348Z</time></trkpt><trkpt lat="43.1395383" lon="11.179525"><ele>359.20000000000005</ele><time>2026-03-22T13:11:33.348Z</time></trkpt><trkpt lat="43.1395" lon="11.17966"><ele>360.79999999999995</ele><time>2026-03-22T13:11:34.348Z</time></trkpt><trkpt lat="43.1394617" lon="11.17976"><ele>362.4</ele><time>2026-03-22T13:11:35.348Z</time></trkpt><trkpt lat="43.13941" lon="11.1798483"><ele>364.0</ele><time>2026-03-22T13:11:36.348Z</time></trkpt><trkpt lat="43.1393567" lon="11.1799183"><ele>364.66666666666663</ele><time>2026-03-22T13:11:38.348Z</time></trkpt><trkpt lat="43.1392683" lon="11.179945"><ele>365.3333333333333</ele><time>2026-03-22T13:11:41.348Z</time></trkpt><trkpt lat="43.13921" lon="11.18001"><ele>366.0</ele><time>2026-03-22T13:11:45.348Z</time></trkpt><trkpt lat="43.1391233" lon="11.179975"><ele>366.6666666666667</ele><time>2026-03-22T13:11:48.348Z</time></trkpt><trkpt lat="43.1390317" lon="11.1799267"><ele>367.33333333333337</ele><time>2026-03-22T13:11:50.347Z</time></trkpt><trkpt lat="43.1389683" lon="11.1798833"><ele>368.0</ele><time>2026-03-22T13:11:51.348Z</time></trkpt><trkpt lat="43.1388917" lon="11.1798533"><ele>368.83333333333337</ele><time>2026-03-22T13:11:52.348Z</time></trkpt><trkpt lat="43.13881" lon="11.17981"><ele>369.6666666666667</ele><time>2026-03-22T13:11:53.347Z</time></trkpt><trkpt lat="43.138725" lon="11.1797733"><ele>370.5</ele><time>2026-03-22T13:11:54.348Z</time></trkpt><trkpt lat="43.1386467" lon="11.1797317"><ele>371.3333333333333</ele><time>2026-03-22T13:11:55.348Z</time></trkpt><trkpt lat="43.1385633" lon="11.1796867"><ele>372.16666666666663</ele><time>2026-03-22T13:11:56.347Z</time></trkpt><trkpt lat="43.138495" lon="11.1796533"><ele>373.0</ele><time>2026-03-22T13:11:57.348Z</time></trkpt><trkpt lat="43.1383917" lon="11.1795833"><ele>373.0</ele><time>2026-03-22T13:11:59.348Z</time></trkpt><trkpt lat="43.1383417" lon="11.1795017"><ele>373.0</ele><time>2026-03-22T13:12:01.348Z</time></trkpt><trkpt lat="43.1384117" lon="11.1795867"><ele>373.0</ele><time>2026-03-22T13:12:20.348Z</time></trkpt><trkpt lat="43.1385133" lon="11.179625"><ele>373.0</ele><time>2026-03-22T13:12:22.348Z</time></trkpt><trkpt lat="43.138595" lon="11.17966"><ele>373.0</ele><time>2026-03-22T13:12:24.348Z</time></trkpt><trkpt lat="43.138695" lon="11.1796967"><ele>373.0</ele><time>2026-03-22T13:12:26.348Z</time></trkpt><trkpt lat="43.1387617" lon="11.17973"><ele>373.0</ele><time>2026-03-22T13:12:27.348Z</time></trkpt><trkpt lat="43.1388383" lon="11.179775"><ele>373.0</ele><time>2026-03-22T13:12:28.347Z</time></trkpt><trkpt lat="43.1389117" lon="11.1798117"><ele>373.0</ele><time>2026-03-22T13:12:29.347Z</time></trkpt><trkpt lat="43.138995" lon="11.1798567"><ele>373.0</ele><time>2026-03-22T13:12:30.348Z</time></trkpt><trkpt lat="43.1390883" lon="11.1799"><ele>373.0</ele><time>2026-03-22T13:12:31.348Z</time></trkpt><trkpt lat="43.1391667" lon="11.1799367"><ele>372.16666666666663</ele><time>2026-03-22T13:12:32.348Z</time></trkpt><trkpt lat="43.1392467" lon="11.180035"><ele>371.3333333333333</ele><time>2026-03-22T13:12:34.348Z</time></trkpt><trkpt lat="43.13927" lon="11.1801667"><ele>370.5</ele><time>2026-03-22T13:12:36.348Z</time></trkpt><trkpt lat="43.1393167" lon="11.18023"><ele>369.6666666666667</ele><time>2026-03-22T13:12:38.348Z</time></trkpt><trkpt lat="43.1393833" lon="11.1802333"><ele>368.83333333333337</ele><time>2026-03-22T13:12:41.348Z</time></trkpt><trkpt lat="43.139435" lon="11.18018"><ele>368.0</ele><time>2026-03-22T13:12:43.348Z</time></trkpt><trkpt lat="43.1395217" lon="11.1800633"><ele>368.0</ele><time>2026-03-22T13:12:45.348Z</time></trkpt><trkpt lat="43.139665" lon="11.18001"><ele>368.0</ele><time>2026-03-22T13:12:47.347Z</time></trkpt><trkpt lat="43.1397667" lon="11.1800117"><ele>368.0</ele><time>2026-03-22T13:12:48.348Z</time></trkpt><trkpt lat="43.1398817" lon="11.1800017"><ele>368.0</ele><time>2026-03-22T13:12:49.348Z</time></trkpt><trkpt lat="43.1400067" lon="11.179995"><ele>367.75</ele><time>2026-03-22T13:12:50.348Z</time></trkpt><trkpt lat="43.1401383" lon="11.1799883"><ele>367.5</ele><time>2026-03-22T13:12:51.348Z</time></trkpt><trkpt lat="43.1402683" lon="11.1799833"><ele>367.25</ele><time>2026-03-22T13:12:52.348Z</time></trkpt><trkpt lat="43.1404" lon="11.1799733"><ele>367.0</ele><time>2026-03-22T13:12:53.348Z</time></trkpt><trkpt lat="43.1405283" lon="11.179965"><ele>367.0</ele><time>2026-03-22T13:12:54.347Z</time></trkpt><trkpt lat="43.140665" lon="11.179965"><ele>367.0</ele><time>2026-03-22T13:12:55.348Z</time></trkpt><trkpt lat="43.1408183" lon="11.179975"><ele>367.0</ele><time>2026-03-22T13:12:56.347Z</time></trkpt><trkpt lat="43.1409717" lon="11.1799883"><ele>367.0</ele><time>2026-03-22T13:12:57.347Z</time></trkpt><trkpt lat="43.1411217" lon="11.18001"><ele>365.66666666666663</ele><time>2026-03-22T13:12:58.347Z</time></trkpt><trkpt lat="43.141295" lon="11.18005"><ele>364.3333333333333</ele><time>2026-03-22T13:12:59.347Z</time></trkpt><trkpt lat="43.1414667" lon="11.1800933"><ele>363.0</ele><time>2026-03-22T13:13:00.348Z</time></trkpt><trkpt lat="43.1416333" lon="11.18015"><ele>362.6666666666667</ele><time>2026-03-22T13:13:01.348Z</time></trkpt><trkpt lat="43.1417817" lon="11.1802267"><ele>362.33333333333337</ele><time>2026-03-22T13:13:02.348Z</time></trkpt><trkpt lat="43.1419517" lon="11.1803017"><ele>362.0</ele><time>2026-03-22T13:13:03.348Z</time></trkpt><trkpt lat="43.1421283" lon="11.1803733"><ele>362.0</ele><time>2026-03-22T13:13:04.348Z</time></trkpt><trkpt lat="43.1422983" lon="11.18043"><ele>362.0</ele><time>2026-03-22T13:13:05.348Z</time></trkpt><trkpt lat="43.14247" lon="11.1804633"><ele>362.0</ele><time>2026-03-22T13:13:06.347Z</time></trkpt><trkpt lat="43.1426483" lon="11.1804967"><ele>362.6666666666667</ele><time>2026-03-22T13:13:07.348Z</time></trkpt><trkpt lat="43.1428283" lon="11.18051"><ele>363.3333333333333</ele><time>2026-03-22T13:13:08.348Z</time></trkpt><trkpt lat="43.1430133" lon="11.18051"><ele>364.0</ele><time>2026-03-22T13:13:09.347Z</time></trkpt><trkpt lat="43.143195" lon="11.1805"><ele>364.0</ele><time>2026-03-22T13:13:10.348Z</time></trkpt><trkpt lat="43.143385" lon="11.1804833"><ele>364.0</ele><time>2026-03-22T13:13:11.347Z</time></trkpt><trkpt lat="43.1435767" lon="11.1804533"><ele>364.0</ele><time>2026-03-22T13:13:12.348Z</time></trkpt><trkpt lat="43.1437683" lon="11.1804367"><ele>364.0</ele><time>2026-03-22T13:13:13.348Z</time></trkpt><trkpt lat="43.1439433" lon="11.1804067"><ele>364.0</ele><time>2026-03-22T13:13:14.348Z</time></trkpt><trkpt lat="43.1441267" lon="11.180355"><ele>364.0</ele><time>2026-03-22T13:13:15.348Z</time></trkpt><trkpt lat="43.1443033" lon="11.18029"><ele>361.0</ele><time>2026-03-22T13:13:16.347Z</time></trkpt><trkpt lat="43.144475" lon="11.1802017"><ele>358.0</ele><time>2026-03-22T13:13:17.348Z</time></trkpt><trkpt lat="43.1446483" lon="11.1800733"><ele>355.0</ele><time>2026-03-22T13:13:18.348Z</time></trkpt><trkpt lat="43.14481" lon="11.1799317"><ele>352.66666666666663</ele><time>2026-03-22T13:13:19.348Z</time></trkpt><trkpt lat="43.14496" lon="11.1797683"><ele>350.3333333333333</ele><time>2026-03-22T13:13:20.348Z</time></trkpt><trkpt lat="43.1450983" lon="11.1795833"><ele>348.0</ele><time>2026-03-22T13:13:21.347Z</time></trkpt><trkpt lat="43.1452217" lon="11.179405"><ele>348.0</ele><time>2026-03-22T13:13:22.348Z</time></trkpt><trkpt lat="43.145345" lon="11.17924"><ele>348.0</ele><time>2026-03-22T13:13:23.348Z</time></trkpt><trkpt lat="43.1454817" lon="11.1790967"><ele>348.0</ele><time>2026-03-22T13:13:24.347Z</time></trkpt><trkpt lat="43.1456133" lon="11.1790117"><ele>347.0</ele><time>2026-03-22T13:13:25.348Z</time></trkpt><trkpt lat="43.1457583" lon="11.178985"><ele>346.0</ele><time>2026-03-22T13:13:26.348Z</time></trkpt><trkpt lat="43.14591" lon="11.1790317"><ele>345.0</ele><time>2026-03-22T13:13:27.347Z</time></trkpt><trkpt lat="43.1460833" lon="11.1791117"><ele>342.6666666666667</ele><time>2026-03-22T13:13:28.348Z</time></trkpt><trkpt lat="43.14628" lon="11.1791817"><ele>340.33333333333337</ele><time>2026-03-22T13:13:29.347Z</time></trkpt><trkpt lat="43.146485" lon="11.1792367"><ele>338.0</ele><time>2026-03-22T13:13:30.348Z</time></trkpt><trkpt lat="43.146685" lon="11.1792533"><ele>336.6666666666667</ele><time>2026-03-22T13:13:31.348Z</time></trkpt><trkpt lat="43.1468733" lon="11.1792617"><ele>335.3333333333333</ele><time>2026-03-22T13:13:32.348Z</time></trkpt><trkpt lat="43.1470633" lon="11.1792733"><ele>334.0</ele><time>2026-03-22T13:13:33.347Z</time></trkpt><trkpt lat="43.1472433" lon="11.1792817"><ele>333.0</ele><time>2026-03-22T13:13:34.348Z</time></trkpt><trkpt lat="43.147425" lon="11.1792917"><ele>332.0</ele><time>2026-03-22T13:13:35.347Z</time></trkpt><trkpt lat="43.1476083" lon="11.1792883"><ele>331.0</ele><time>2026-03-22T13:13:36.348Z</time></trkpt><trkpt lat="43.1477917" lon="11.17928"><ele>331.0</ele><time>2026-03-22T13:13:37.347Z</time></trkpt><trkpt lat="43.1479683" lon="11.1792683"><ele>331.0</ele><time>2026-03-22T13:13:38.348Z</time></trkpt><trkpt lat="43.1481383" lon="11.1792383"><ele>331.0</ele><time>2026-03-22T13:13:39.348Z</time></trkpt><trkpt lat="43.14829" lon="11.179195"><ele>330.3333333333333</ele><time>2026-03-22T13:13:40.348Z</time></trkpt><trkpt lat="43.1484233" lon="11.1791033"><ele>329.6666666666667</ele><time>2026-03-22T13:13:41.348Z</time></trkpt><trkpt lat="43.148565" lon="11.17897"><ele>329.0</ele><time>2026-03-22T13:13:42.348Z</time></trkpt><trkpt lat="43.1486983" lon="11.1788233"><ele>327.6666666666667</ele><time>2026-03-22T13:13:43.348Z</time></trkpt><trkpt lat="43.1488267" lon="11.178685"><ele>326.3333333333333</ele><time>2026-03-22T13:13:44.348Z</time></trkpt><trkpt lat="43.1489733" lon="11.17857"><ele>325.0</ele><time>2026-03-22T13:13:45.348Z</time></trkpt><trkpt lat="43.1491283" lon="11.1784917"><ele>324.0</ele><time>2026-03-22T13:13:46.348Z</time></trkpt><trkpt lat="43.1493" lon="11.1784267"><ele>323.0</ele><time>2026-03-22T13:13:47.348Z</time></trkpt><trkpt lat="43.1494817" lon="11.1783333"><ele>322.0</ele><time>2026-03-22T13:13:48.347Z</time></trkpt><trkpt lat="43.1496533" lon="11.1781933"><ele>318.66666666666663</ele><time>2026-03-22T13:13:49.348Z</time></trkpt><trkpt lat="43.1498033" lon="11.1780483"><ele>315.3333333333333</ele><time>2026-03-22T13:13:50.348Z</time></trkpt><trkpt lat="43.1499617" lon="11.1779367"><ele>312.0</ele><time>2026-03-22T13:13:51.348Z</time></trkpt><trkpt lat="43.1501417" lon="11.177845"><ele>312.0</ele><time>2026-03-22T13:13:52.348Z</time></trkpt><trkpt lat="43.1503217" lon="11.1778017"><ele>312.0</ele><time>2026-03-22T13:13:53.347Z</time></trkpt><trkpt lat="43.1505133" lon="11.1777833"><ele>312.0</ele><time>2026-03-22T13:13:54.348Z</time></trkpt><trkpt lat="43.1506817" lon="11.1777767"><ele>312.0</ele><time>2026-03-22T13:13:55.348Z</time></trkpt><trkpt lat="43.15084" lon="11.1777983"><ele>312.0</ele><time>2026-03-22T13:13:56.348Z</time></trkpt><trkpt lat="43.1509833" lon="11.1777983"><ele>312.0</ele><time>2026-03-22T13:13:57.348Z</time></trkpt><trkpt lat="43.1511033" lon="11.1777317"><ele>312.0</ele><time>2026-03-22T13:13:58.347Z</time></trkpt><trkpt lat="43.1511783" lon="11.17762"><ele>312.0</ele><time>2026-03-22T13:13:59.348Z</time></trkpt><trkpt lat="43.1511967" lon="11.1774733"><ele>312.0</ele><time>2026-03-22T13:14:00.348Z</time></trkpt><trkpt lat="43.15115" lon="11.177295"><ele>312.0</ele><time>2026-03-22T13:14:01.347Z</time></trkpt><trkpt lat="43.1510983" lon="11.177105"><ele>312.0</ele><time>2026-03-22T13:14:02.348Z</time></trkpt><trkpt lat="43.15105" lon="11.1769133"><ele>309.75</ele><time>2026-03-22T13:14:03.347Z</time></trkpt><trkpt lat="43.1510283" lon="11.1767417"><ele>307.5</ele><time>2026-03-22T13:14:04.348Z</time></trkpt><trkpt lat="43.1510633" lon="11.176595"><ele>305.25</ele><time>2026-03-22T13:14:05.347Z</time></trkpt><trkpt lat="43.15117" lon="11.1764633"><ele>303.0</ele><time>2026-03-22T13:14:06.347Z</time></trkpt><trkpt lat="43.1513117" lon="11.176335"><ele>301.6666666666667</ele><time>2026-03-22T13:14:07.347Z</time></trkpt><trkpt lat="43.1514733" lon="11.17623"><ele>300.33333333333337</ele><time>2026-03-22T13:14:08.348Z</time></trkpt><trkpt lat="43.151645" lon="11.17613"><ele>299.0</ele><time>2026-03-22T13:14:09.348Z</time></trkpt><trkpt lat="43.1518183" lon="11.1760367"><ele>299.0</ele><time>2026-03-22T13:14:10.348Z</time></trkpt><trkpt lat="43.15202" lon="11.1759383"><ele>299.0</ele><time>2026-03-22T13:14:11.348Z</time></trkpt><trkpt lat="43.1522183" lon="11.175825"><ele>299.0</ele><time>2026-03-22T13:14:12.348Z</time></trkpt><trkpt lat="43.1523933" lon="11.175695"><ele>297.0</ele><time>2026-03-22T13:14:13.348Z</time></trkpt><trkpt lat="43.15256" lon="11.1755317"><ele>295.0</ele><time>2026-03-22T13:14:14.348Z</time></trkpt><trkpt lat="43.1527283" lon="11.1753433"><ele>293.0</ele><time>2026-03-22T13:14:15.347Z</time></trkpt><trkpt lat="43.15289" lon="11.1751433"><ele>293.0</ele><time>2026-03-22T13:14:16.348Z</time></trkpt><trkpt lat="43.1530567" lon="11.174955"><ele>293.0</ele><time>2026-03-22T13:14:17.347Z</time></trkpt><trkpt lat="43.1532283" lon="11.1747567"><ele>293.0</ele><time>2026-03-22T13:14:18.348Z</time></trkpt><trkpt lat="43.1533983" lon="11.174555"><ele>293.0</ele><time>2026-03-22T13:14:19.348Z</time></trkpt><trkpt lat="43.1535783" lon="11.1743567"><ele>293.0</ele><time>2026-03-22T13:14:20.348Z</time></trkpt><trkpt lat="43.1537533" lon="11.1741583"><ele>292.33333333333337</ele><time>2026-03-22T13:14:21.348Z</time></trkpt><trkpt lat="43.15393" lon="11.1739783"><ele>291.6666666666667</ele><time>2026-03-22T13:14:22.348Z</time></trkpt><trkpt lat="43.1541067" lon="11.1738033"><ele>291.0</ele><time>2026-03-22T13:14:23.348Z</time></trkpt><trkpt lat="43.15429" lon="11.1736317"><ele>289.0</ele><time>2026-03-22T13:14:24.347Z</time></trkpt><trkpt lat="43.15448" lon="11.1734633"><ele>287.0</ele><time>2026-03-22T13:14:25.348Z</time></trkpt><trkpt lat="43.1546717" lon="11.1733"><ele>286.0</ele><time>2026-03-22T13:14:26.347Z</time></trkpt><trkpt lat="43.15486" lon="11.1731267"><ele>285.0</ele><time>2026-03-22T13:14:27.348Z</time></trkpt><trkpt lat="43.155055" lon="11.172955"><ele>284.6666666666667</ele><time>2026-03-22T13:14:28.348Z</time></trkpt><trkpt lat="43.1552433" lon="11.1728117"><ele>284.33333333333337</ele><time>2026-03-22T13:14:29.348Z</time></trkpt><trkpt lat="43.1554383" lon="11.1726967"><ele>284.0</ele><time>2026-03-22T13:14:30.348Z</time></trkpt><trkpt lat="43.1556433" lon="11.1726033"><ele>282.6666666666667</ele><time>2026-03-22T13:14:31.347Z</time></trkpt><trkpt lat="43.1558583" lon="11.1725117"><ele>281.3333333333333</ele><time>2026-03-22T13:14:32.347Z</time></trkpt><trkpt lat="43.1560617" lon="11.17242"><ele>280.0</ele><time>2026-03-22T13:14:33.348Z</time></trkpt><trkpt lat="43.1562767" lon="11.1723233"><ele>280.0</ele><time>2026-03-22T13:14:34.348Z</time></trkpt><trkpt lat="43.1564967" lon="11.1722217"><ele>280.0</ele><time>2026-03-22T13:14:35.348Z</time></trkpt><trkpt lat="43.156715" lon="11.1721133"><ele>279.5</ele><time>2026-03-22T13:14:36.348Z</time></trkpt><trkpt lat="43.15693" lon="11.172015"><ele>279.0</ele><time>2026-03-22T13:14:37.348Z</time></trkpt><trkpt lat="43.1571417" lon="11.1719117"><ele>279.0</ele><time>2026-03-22T13:14:38.347Z</time></trkpt><trkpt lat="43.157355" lon="11.1717967"><ele>279.0</ele><time>2026-03-22T13:14:39.347Z</time></trkpt><trkpt lat="43.157565" lon="11.1716883"><ele>278.3333333333333</ele><time>2026-03-22T13:14:40.348Z</time></trkpt><trkpt lat="43.157775" lon="11.1715833"><ele>277.66666666666663</ele><time>2026-03-22T13:14:41.348Z</time></trkpt><trkpt lat="43.15798" lon="11.1714717"><ele>277.0</ele><time>2026-03-22T13:14:42.348Z</time></trkpt><trkpt lat="43.1581967" lon="11.17136"><ele>276.5</ele><time>2026-03-22T13:14:43.347Z</time></trkpt><trkpt lat="43.1584033" lon="11.1712467"><ele>276.0</ele><time>2026-03-22T13:14:44.347Z</time></trkpt><trkpt lat="43.1586167" lon="11.1711367"><ele>276.0</ele><time>2026-03-22T13:14:45.348Z</time></trkpt><trkpt lat="43.1588217" lon="11.1710283"><ele>276.0</ele><time>2026-03-22T13:14:46.348Z</time></trkpt><trkpt lat="43.1590217" lon="11.170925"><ele>276.0</ele><time>2026-03-22T13:14:47.348Z</time></trkpt><trkpt lat="43.15921" lon="11.170825"><ele>275.3333333333333</ele><time>2026-03-22T13:14:48.348Z</time></trkpt><trkpt lat="43.1593917" lon="11.1707333"><ele>274.66666666666663</ele><time>2026-03-22T13:14:49.348Z</time></trkpt><trkpt lat="43.1595633" lon="11.1706567"><ele>274.0</ele><time>2026-03-22T13:14:50.348Z</time></trkpt><trkpt lat="43.1597267" lon="11.1706133"><ele>273.3333333333333</ele><time>2026-03-22T13:14:51.348Z</time></trkpt><trkpt lat="43.1598867" lon="11.1706317"><ele>272.6666666666667</ele><time>2026-03-22T13:14:52.348Z</time></trkpt><trkpt lat="43.1600433" lon="11.1707167"><ele>272.0</ele><time>2026-03-22T13:14:53.347Z</time></trkpt><trkpt lat="43.1601917" lon="11.1708517"><ele>272.0</ele><time>2026-03-22T13:14:54.347Z</time></trkpt><trkpt lat="43.16034" lon="11.17099"><ele>272.0</ele><time>2026-03-22T13:14:55.347Z</time></trkpt><trkpt lat="43.16052" lon="11.1710983"><ele>272.0</ele><time>2026-03-22T13:14:56.348Z</time></trkpt><trkpt lat="43.1607133" lon="11.17114"><ele>271.0</ele><time>2026-03-22T13:14:57.347Z</time></trkpt><trkpt lat="43.1609083" lon="11.1711133"><ele>270.0</ele><time>2026-03-22T13:14:58.347Z</time></trkpt><trkpt lat="43.1611117" lon="11.17104"><ele>269.0</ele><time>2026-03-22T13:14:59.348Z</time></trkpt><trkpt lat="43.1613217" lon="11.1709583"><ele>269.0</ele><time>2026-03-22T13:15:00.347Z</time></trkpt><trkpt lat="43.1615283" lon="11.170885"><ele>269.0</ele><time>2026-03-22T13:15:01.348Z</time></trkpt><trkpt lat="43.1617517" lon="11.1708133"><ele>269.0</ele><time>2026-03-22T13:15:02.347Z</time></trkpt><trkpt lat="43.1619667" lon="11.1707517"><ele>269.0</ele><time>2026-03-22T13:15:03.348Z</time></trkpt><trkpt lat="43.1621833" lon="11.1706917"><ele>269.0</ele><time>2026-03-22T13:15:04.348Z</time></trkpt><trkpt lat="43.16239" lon="11.1706233"><ele>269.0</ele><time>2026-03-22T13:15:05.348Z</time></trkpt><trkpt lat="43.1625833" lon="11.1705633"><ele>267.33333333333337</ele><time>2026-03-22T13:15:06.347Z</time></trkpt><trkpt lat="43.16277" lon="11.1704483"><ele>265.6666666666667</ele><time>2026-03-22T13:15:07.348Z</time></trkpt><trkpt lat="43.1629283" lon="11.1703017"><ele>264.0</ele><time>2026-03-22T13:15:08.347Z</time></trkpt><trkpt lat="43.1630767" lon="11.170115"><ele>263.6666666666667</ele><time>2026-03-22T13:15:09.348Z</time></trkpt><trkpt lat="43.1632" lon="11.169895"><ele>263.33333333333337</ele><time>2026-03-22T13:15:10.347Z</time></trkpt><trkpt lat="43.1633083" lon="11.1696567"><ele>263.0</ele><time>2026-03-22T13:15:11.347Z</time></trkpt><trkpt lat="43.1634167" lon="11.169405"><ele>263.0</ele><time>2026-03-22T13:15:12.348Z</time></trkpt><trkpt lat="43.1635333" lon="11.1691517"><ele>263.0</ele><time>2026-03-22T13:15:13.348Z</time></trkpt><trkpt lat="43.163665" lon="11.1688767"><ele>262.0</ele><time>2026-03-22T13:15:14.348Z</time></trkpt><trkpt lat="43.1637917" lon="11.1686017"><ele>261.0</ele><time>2026-03-22T13:15:15.348Z</time></trkpt><trkpt lat="43.163925" lon="11.168335"><ele>261.5</ele><time>2026-03-22T13:15:16.347Z</time></trkpt><trkpt lat="43.16406" lon="11.1680633"><ele>262.0</ele><time>2026-03-22T13:15:17.347Z</time></trkpt><trkpt lat="43.1642" lon="11.1677767"><ele>262.0</ele><time>2026-03-22T13:15:18.347Z</time></trkpt><trkpt lat="43.1643417" lon="11.1674867"><ele>262.0</ele><time>2026-03-22T13:15:19.347Z</time></trkpt><trkpt lat="43.164475" lon="11.1672067"><ele>261.5</ele><time>2026-03-22T13:15:20.348Z</time></trkpt><trkpt lat="43.1646083" lon="11.166935"><ele>261.0</ele><time>2026-03-22T13:15:21.347Z</time></trkpt><trkpt lat="43.164745" lon="11.1666633"><ele>262.0</ele><time>2026-03-22T13:15:22.348Z</time></trkpt><trkpt lat="43.16487" lon="11.1663917"><ele>263.0</ele><time>2026-03-22T13:15:23.348Z</time></trkpt><trkpt lat="43.1649983" lon="11.1661183"><ele>263.0</ele><time>2026-03-22T13:15:24.347Z</time></trkpt><trkpt lat="43.165135" lon="11.1658567"><ele>263.0</ele><time>2026-03-22T13:15:25.347Z</time></trkpt><trkpt lat="43.1652733" lon="11.1656"><ele>262.0</ele><time>2026-03-22T13:15:26.348Z</time></trkpt><trkpt lat="43.1653917" lon="11.1653383"><ele>261.0</ele><time>2026-03-22T13:15:27.347Z</time></trkpt><trkpt lat="43.165515" lon="11.1650967"><ele>260.0</ele><time>2026-03-22T13:15:28.348Z</time></trkpt><trkpt lat="43.1656283" lon="11.164865"><ele>260.6666666666667</ele><time>2026-03-22T13:15:29.348Z</time></trkpt><trkpt lat="43.1657533" lon="11.16463"><ele>261.3333333333333</ele><time>2026-03-22T13:15:30.348Z</time></trkpt><trkpt lat="43.1658633" lon="11.1644017"><ele>262.0</ele><time>2026-03-22T13:15:31.348Z</time></trkpt><trkpt lat="43.16598" lon="11.1641917"><ele>262.3333333333333</ele><time>2026-03-22T13:15:32.348Z</time></trkpt><trkpt lat="43.16609" lon="11.1640033"><ele>262.6666666666667</ele><time>2026-03-22T13:15:33.347Z</time></trkpt><trkpt lat="43.166195" lon="11.1638033"><ele>263.0</ele><time>2026-03-22T13:15:34.348Z</time></trkpt><trkpt lat="43.1663017" lon="11.163605"><ele>263.0</ele><time>2026-03-22T13:15:35.348Z</time></trkpt><trkpt lat="43.1664283" lon="11.1633967"><ele>263.0</ele><time>2026-03-22T13:15:36.348Z</time></trkpt><trkpt lat="43.16654" lon="11.1631933"><ele>263.0</ele><time>2026-03-22T13:15:37.348Z</time></trkpt><trkpt lat="43.1666383" lon="11.1630133"><ele>264.33333333333337</ele><time>2026-03-22T13:15:38.348Z</time></trkpt><trkpt lat="43.1667367" lon="11.16283"><ele>265.6666666666667</ele><time>2026-03-22T13:15:39.348Z</time></trkpt><trkpt lat="43.1668317" lon="11.1626533"><ele>267.0</ele><time>2026-03-22T13:15:40.348Z</time></trkpt><trkpt lat="43.1669383" lon="11.162445"><ele>266.0</ele><time>2026-03-22T13:15:41.348Z</time></trkpt><trkpt lat="43.1670567" lon="11.162215"><ele>265.0</ele><time>2026-03-22T13:15:42.348Z</time></trkpt><trkpt lat="43.16719" lon="11.1619667"><ele>264.0</ele><time>2026-03-22T13:15:43.347Z</time></trkpt><trkpt lat="43.1673433" lon="11.1617"><ele>262.5</ele><time>2026-03-22T13:15:44.348Z</time></trkpt><trkpt lat="43.1674933" lon="11.1614233"><ele>261.0</ele><time>2026-03-22T13:15:45.348Z</time></trkpt><trkpt lat="43.1676533" lon="11.1611533"><ele>261.0</ele><time>2026-03-22T13:15:46.348Z</time></trkpt><trkpt lat="43.1678033" lon="11.16088"><ele>261.0</ele><time>2026-03-22T13:15:47.348Z</time></trkpt><trkpt lat="43.167945" lon="11.1606167"><ele>261.0</ele><time>2026-03-22T13:15:48.348Z</time></trkpt><trkpt lat="43.1680817" lon="11.160355"><ele>261.0</ele><time>2026-03-22T13:15:49.348Z</time></trkpt><trkpt lat="43.168215" lon="11.1600883"><ele>262.0</ele><time>2026-03-22T13:15:50.348Z</time></trkpt><trkpt lat="43.1683517" lon="11.1598317"><ele>263.0</ele><time>2026-03-22T13:15:51.348Z</time></trkpt><trkpt lat="43.168485" lon="11.1595783"><ele>263.0</ele><time>2026-03-22T13:15:52.348Z</time></trkpt><trkpt lat="43.1686167" lon="11.159325"><ele>263.0</ele><time>2026-03-22T13:15:53.348Z</time></trkpt><trkpt lat="43.1687467" lon="11.1590767"><ele>262.6666666666667</ele><time>2026-03-22T13:15:54.348Z</time></trkpt><trkpt lat="43.16888" lon="11.158835"><ele>262.3333333333333</ele><time>2026-03-22T13:15:55.348Z</time></trkpt><trkpt lat="43.1689967" lon="11.1586167"><ele>262.0</ele><time>2026-03-22T13:15:56.347Z</time></trkpt><trkpt lat="43.16911" lon="11.15839"><ele>262.5</ele><time>2026-03-22T13:15:57.348Z</time></trkpt><trkpt lat="43.1692083" lon="11.1581967"><ele>263.0</ele><time>2026-03-22T13:15:58.348Z</time></trkpt><trkpt lat="43.1692933" lon="11.1580417"><ele>263.5</ele><time>2026-03-22T13:15:59.347Z</time></trkpt><trkpt lat="43.1693433" lon="11.157925"><ele>264.0</ele><time>2026-03-22T13:16:00.348Z</time></trkpt><trkpt lat="43.1693633" lon="11.1578067"><ele>264.0</ele><time>2026-03-22T13:16:01.348Z</time></trkpt><trkpt lat="43.1693733" lon="11.157695"><ele>264.0</ele><time>2026-03-22T13:16:02.348Z</time></trkpt><trkpt lat="43.169385" lon="11.157595"><ele>264.0</ele><time>2026-03-22T13:16:03.348Z</time></trkpt><trkpt lat="43.169415" lon="11.1575133"><ele>264.0</ele><time>2026-03-22T13:16:04.348Z</time></trkpt><trkpt lat="43.1694333" lon="11.1574033"><ele>264.0</ele><time>2026-03-22T13:16:06.348Z</time></trkpt><trkpt lat="43.1693583" lon="11.1574067"><ele>264.0</ele><time>2026-03-22T13:16:10.348Z</time></trkpt><trkpt lat="43.169315" lon="11.15755"><ele>264.0</ele><time>2026-03-22T13:22:17.349Z</time></trkpt><trkpt lat="43.169305" lon="11.157665"><ele>264.0</ele><time>2026-03-22T13:22:20.349Z</time></trkpt><trkpt lat="43.1693117" lon="11.1577617"><ele>264.0</ele><time>2026-03-22T13:22:22.349Z</time></trkpt><trkpt lat="43.169315" lon="11.1578933"><ele>264.0</ele><time>2026-03-22T13:22:24.349Z</time></trkpt><trkpt lat="43.1693017" lon="11.1579917"><ele>264.0</ele><time>2026-03-22T13:22:25.349Z</time></trkpt><trkpt lat="43.1692533" lon="11.1581167"><ele>264.0</ele><time>2026-03-22T13:22:26.349Z</time></trkpt><trkpt lat="43.16917" lon="11.1582667"><ele>263.3333333333333</ele><time>2026-03-22T13:22:27.349Z</time></trkpt><trkpt lat="43.1690717" lon="11.1584267"><ele>262.66666666666663</ele><time>2026-03-22T13:22:28.348Z</time></trkpt><trkpt lat="43.1689667" lon="11.158615"><ele>262.0</ele><time>2026-03-22T13:22:29.349Z</time></trkpt><trkpt lat="43.168865" lon="11.1588167"><ele>262.0</ele><time>2026-03-22T13:22:30.349Z</time></trkpt><trkpt lat="43.16876" lon="11.1590117"><ele>262.0</ele><time>2026-03-22T13:22:31.349Z</time></trkpt><trkpt lat="43.1686533" lon="11.1592183"><ele>262.0</ele><time>2026-03-22T13:22:32.348Z</time></trkpt><trkpt lat="43.16854" lon="11.1594267"><ele>262.0</ele><time>2026-03-22T13:22:33.349Z</time></trkpt><trkpt lat="43.1684317" lon="11.1596367"><ele>262.0</ele><time>2026-03-22T13:22:34.349Z</time></trkpt><trkpt lat="43.1683133" lon="11.1598617"><ele>262.0</ele><time>2026-03-22T13:22:35.349Z</time></trkpt><trkpt lat="43.1681933" lon="11.1601"><ele>261.5</ele><time>2026-03-22T13:22:36.349Z</time></trkpt><trkpt lat="43.168065" lon="11.1603483"><ele>261.0</ele><time>2026-03-22T13:22:37.349Z</time></trkpt><trkpt lat="43.1679267" lon="11.1605983"><ele>261.0</ele><time>2026-03-22T13:22:38.348Z</time></trkpt><trkpt lat="43.1677883" lon="11.1608583"><ele>261.0</ele><time>2026-03-22T13:22:39.349Z</time></trkpt><trkpt lat="43.1676433" lon="11.161135"><ele>261.0</ele><time>2026-03-22T13:22:40.349Z</time></trkpt><trkpt lat="43.1674933" lon="11.1614133"><ele>261.0</ele><time>2026-03-22T13:22:41.349Z</time></trkpt><trkpt lat="43.1673467" lon="11.1616883"><ele>262.5</ele><time>2026-03-22T13:22:42.349Z</time></trkpt><trkpt lat="43.1672017" lon="11.1619667"><ele>264.0</ele><time>2026-03-22T13:22:43.348Z</time></trkpt><trkpt lat="43.16706" lon="11.1622367"><ele>265.5</ele><time>2026-03-22T13:22:44.348Z</time></trkpt><trkpt lat="43.1669033" lon="11.1625083"><ele>267.0</ele><time>2026-03-22T13:22:45.349Z</time></trkpt><trkpt lat="43.1667533" lon="11.1627783"><ele>267.0</ele><time>2026-03-22T13:22:46.348Z</time></trkpt><trkpt lat="43.1666" lon="11.1630433"><ele>267.0</ele><time>2026-03-22T13:22:47.349Z</time></trkpt><trkpt lat="43.1664433" lon="11.1633167"><ele>265.0</ele><time>2026-03-22T13:22:48.348Z</time></trkpt><trkpt lat="43.1662917" lon="11.1635817"><ele>263.0</ele><time>2026-03-22T13:22:49.349Z</time></trkpt><trkpt lat="43.166135" lon="11.1638367"><ele>262.5</ele><time>2026-03-22T13:22:50.349Z</time></trkpt><trkpt lat="43.1659733" lon="11.1641083"><ele>262.0</ele><time>2026-03-22T13:22:51.348Z</time></trkpt><trkpt lat="43.165825" lon="11.164375"><ele>261.0</ele><time>2026-03-22T13:22:52.349Z</time></trkpt><trkpt lat="43.16568" lon="11.1646367"><ele>260.0</ele><time>2026-03-22T13:22:53.349Z</time></trkpt><trkpt lat="43.1655417" lon="11.1649033"><ele>260.0</ele><time>2026-03-22T13:22:54.349Z</time></trkpt><trkpt lat="43.165415" lon="11.165175"><ele>260.0</ele><time>2026-03-22T13:22:55.349Z</time></trkpt><trkpt lat="43.1652833" lon="11.1654467"><ele>261.5</ele><time>2026-03-22T13:22:56.349Z</time></trkpt><trkpt lat="43.1651483" lon="11.165715"><ele>263.0</ele><time>2026-03-22T13:22:57.348Z</time></trkpt><trkpt lat="43.1650133" lon="11.16599"><ele>263.0</ele><time>2026-03-22T13:22:58.349Z</time></trkpt><trkpt lat="43.1648917" lon="11.1662533"><ele>263.0</ele><time>2026-03-22T13:22:59.349Z</time></trkpt><trkpt lat="43.1647667" lon="11.16652"><ele>262.33333333333337</ele><time>2026-03-22T13:23:00.349Z</time></trkpt><trkpt lat="43.16464" lon="11.1667817"><ele>261.6666666666667</ele><time>2026-03-22T13:23:01.349Z</time></trkpt><trkpt lat="43.164515" lon="11.1670283"><ele>261.0</ele><time>2026-03-22T13:23:02.349Z</time></trkpt><trkpt lat="43.1644033" lon="11.1672567"><ele>261.3333333333333</ele><time>2026-03-22T13:23:03.348Z</time></trkpt><trkpt lat="43.1642917" lon="11.167485"><ele>261.66666666666663</ele><time>2026-03-22T13:23:04.349Z</time></trkpt><trkpt lat="43.1641917" lon="11.1677017"><ele>262.0</ele><time>2026-03-22T13:23:05.349Z</time></trkpt><trkpt lat="43.1640933" lon="11.1679133"><ele>261.66666666666663</ele><time>2026-03-22T13:23:06.349Z</time></trkpt><trkpt lat="43.1639967" lon="11.1681267"><ele>261.3333333333333</ele><time>2026-03-22T13:23:07.349Z</time></trkpt><trkpt lat="43.1638983" lon="11.1683317"><ele>261.0</ele><time>2026-03-22T13:23:08.349Z</time></trkpt><trkpt lat="43.1638117" lon="11.1685283"><ele>261.0</ele><time>2026-03-22T13:23:09.349Z</time></trkpt><trkpt lat="43.1637233" lon="11.1687183"><ele>261.0</ele><time>2026-03-22T13:23:10.349Z</time></trkpt><trkpt lat="43.1636367" lon="11.1689017"><ele>261.0</ele><time>2026-03-22T13:23:11.349Z</time></trkpt><trkpt lat="43.1635483" lon="11.1690783"><ele>261.5</ele><time>2026-03-22T13:23:12.348Z</time></trkpt><trkpt lat="43.1634767" lon="11.169235"><ele>262.0</ele><time>2026-03-22T13:23:13.349Z</time></trkpt><trkpt lat="43.1634033" lon="11.1693817"><ele>262.5</ele><time>2026-03-22T13:23:14.348Z</time></trkpt><trkpt lat="43.16335" lon="11.1695033"><ele>263.0</ele><time>2026-03-22T13:23:15.349Z</time></trkpt><trkpt lat="43.1633017" lon="11.1695983"><ele>263.0</ele><time>2026-03-22T13:23:16.349Z</time></trkpt><trkpt lat="43.16323" lon="11.16967"><ele>263.0</ele><time>2026-03-22T13:23:18.348Z</time></trkpt><trkpt lat="43.1631517" lon="11.16959"><ele>263.0</ele><time>2026-03-22T13:23:21.348Z</time></trkpt><trkpt lat="43.1630667" lon="11.1694917"><ele>263.0</ele><time>2026-03-22T13:23:23.349Z</time></trkpt><trkpt lat="43.163015" lon="11.169435"><ele>263.0</ele><time>2026-03-22T13:23:24.349Z</time></trkpt><trkpt lat="43.1629533" lon="11.169365"><ele>263.0</ele><time>2026-03-22T13:23:25.349Z</time></trkpt><trkpt lat="43.1628783" lon="11.1692833"><ele>263.0</ele><time>2026-03-22T13:23:26.349Z</time></trkpt><trkpt lat="43.162795" lon="11.1692067"><ele>263.0</ele><time>2026-03-22T13:23:27.349Z</time></trkpt><trkpt lat="43.1627017" lon="11.1691267"><ele>263.0</ele><time>2026-03-22T13:23:28.349Z</time></trkpt><trkpt lat="43.1626017" lon="11.1690367"><ele>263.0</ele><time>2026-03-22T13:23:29.348Z</time></trkpt><trkpt lat="43.1624933" lon="11.1689467"><ele>263.0</ele><time>2026-03-22T13:23:30.349Z</time></trkpt><trkpt lat="43.16238" lon="11.1688533"><ele>263.0</ele><time>2026-03-22T13:23:31.349Z</time></trkpt><trkpt lat="43.1622783" lon="11.1687617"><ele>263.0</ele><time>2026-03-22T13:23:32.349Z</time></trkpt><trkpt lat="43.1621767" lon="11.1686733"><ele>263.0</ele><time>2026-03-22T13:23:33.349Z</time></trkpt><trkpt lat="43.16207" lon="11.1685817"><ele>263.0</ele><time>2026-03-22T13:23:34.348Z</time></trkpt><trkpt lat="43.161955" lon="11.16848"><ele>263.0</ele><time>2026-03-22T13:23:35.349Z</time></trkpt><trkpt lat="43.1618417" lon="11.168375"><ele>263.0</ele><time>2026-03-22T13:23:36.348Z</time></trkpt><trkpt lat="43.1617267" lon="11.1682833"><ele>263.0</ele><time>2026-03-22T13:23:37.349Z</time></trkpt><trkpt lat="43.1616267" lon="11.1682083"><ele>263.0</ele><time>2026-03-22T13:23:38.349Z</time></trkpt><trkpt lat="43.1615417" lon="11.16815"><ele>263.0</ele><time>2026-03-22T13:23:39.349Z</time></trkpt><trkpt lat="43.1614867" lon="11.1680967"><ele>263.0</ele><time>2026-03-22T13:23:40.348Z</time></trkpt><trkpt lat="43.1614133" lon="11.168005"><ele>263.0</ele><time>2026-03-22T13:23:42.349Z</time></trkpt><trkpt lat="43.161335" lon="11.1678883"><ele>263.0</ele><time>2026-03-22T13:23:44.349Z</time></trkpt><trkpt lat="43.1612917" lon="11.16782"><ele>263.0</ele><time>2026-03-22T13:23:45.349Z</time></trkpt><trkpt lat="43.16123" lon="11.1677267"><ele>263.8</ele><time>2026-03-22T13:23:47.349Z</time></trkpt><trkpt lat="43.161185" lon="11.1676233"><ele>264.6</ele><time>2026-03-22T13:23:49.349Z</time></trkpt><trkpt lat="43.161125" lon="11.1674983"><ele>265.4</ele><time>2026-03-22T13:23:51.349Z</time></trkpt><trkpt lat="43.1610733" lon="11.1674283"><ele>266.2</ele><time>2026-03-22T13:24:27.348Z</time></trkpt><trkpt lat="43.1611367" lon="11.1675333"><ele>267.0</ele><time>2026-03-22T13:24:29.349Z</time></trkpt><trkpt lat="43.1612" lon="11.1676667"><ele>267.0</ele><time>2026-03-22T13:24:31.348Z</time></trkpt><trkpt lat="43.1612433" lon="11.1677433"><ele>267.0</ele><time>2026-03-22T13:24:33.348Z</time></trkpt><trkpt lat="43.1612833" lon="11.1678117"><ele>267.0</ele><time>2026-03-22T13:24:35.348Z</time></trkpt><trkpt lat="43.1613567" lon="11.167915"><ele>267.0</ele><time>2026-03-22T13:24:37.348Z</time></trkpt><trkpt lat="43.1614267" lon="11.1680217"><ele>267.0</ele><time>2026-03-22T13:24:39.349Z</time></trkpt><trkpt lat="43.1614683" lon="11.1681083"><ele>267.0</ele><time>2026-03-22T13:24:42.349Z</time></trkpt><trkpt lat="43.1613933" lon="11.1681833"><ele>267.0</ele><time>2026-03-22T13:24:45.349Z</time></trkpt><trkpt lat="43.1613067" lon="11.16825"><ele>267.0</ele><time>2026-03-22T13:24:47.349Z</time></trkpt><trkpt lat="43.1612167" lon="11.168295"><ele>267.0</ele><time>2026-03-22T13:24:49.348Z</time></trkpt><trkpt lat="43.161135" lon="11.1682767"><ele>267.0</ele><time>2026-03-22T13:24:51.349Z</time></trkpt><trkpt lat="43.1610417" lon="11.1682333"><ele>267.0</ele><time>2026-03-22T13:24:53.349Z</time></trkpt><trkpt lat="43.1609433" lon="11.168165"><ele>267.00000000000006</ele><time>2026-03-22T13:24:55.348Z</time></trkpt><trkpt lat="43.160875" lon="11.1681433"><ele>267.0</ele><time>2026-03-22T13:24:56.348Z</time></trkpt><trkpt lat="43.1608067" lon="11.1681217"><ele>267.0</ele><time>2026-03-22T13:24:57.348Z</time></trkpt><trkpt lat="43.160735" lon="11.16809"><ele>267.0</ele><time>2026-03-22T13:24:58.349Z</time></trkpt><trkpt lat="43.1606567" lon="11.1680517"><ele>267.0</ele><time>2026-03-22T13:24:59.349Z</time></trkpt><trkpt lat="43.1605883" lon="11.1680183"><ele>267.00000000000006</ele><time>2026-03-22T13:25:00.348Z</time></trkpt><trkpt lat="43.160525" lon="11.1679833"><ele>267.0</ele><time>2026-03-22T13:25:01.349Z</time></trkpt><trkpt lat="43.160465" lon="11.1679483"><ele>267.1666666666667</ele><time>2026-03-22T13:25:02.348Z</time></trkpt><trkpt lat="43.1603967" lon="11.1679083"><ele>267.3333333333333</ele><time>2026-03-22T13:25:03.349Z</time></trkpt><trkpt lat="43.16033" lon="11.1678633"><ele>267.5</ele><time>2026-03-22T13:25:04.349Z</time></trkpt><trkpt lat="43.160255" lon="11.167825"><ele>267.66666666666663</ele><time>2026-03-22T13:25:05.349Z</time></trkpt><trkpt lat="43.160175" lon="11.1677783"><ele>267.8333333333333</ele><time>2026-03-22T13:25:06.349Z</time></trkpt><trkpt lat="43.160095" lon="11.1677333"><ele>268.0</ele><time>2026-03-22T13:25:07.349Z</time></trkpt><trkpt lat="43.16001" lon="11.1676917"><ele>268.0</ele><time>2026-03-22T13:25:08.348Z</time></trkpt><trkpt lat="43.15993" lon="11.16764"><ele>268.0</ele><time>2026-03-22T13:25:09.349Z</time></trkpt><trkpt lat="43.1598483" lon="11.1675967"><ele>268.0</ele><time>2026-03-22T13:25:10.349Z</time></trkpt><trkpt lat="43.15977" lon="11.1675617"><ele>268.0</ele><time>2026-03-22T13:25:11.348Z</time></trkpt><trkpt lat="43.1597067" lon="11.1675283"><ele>268.0</ele><time>2026-03-22T13:25:12.349Z</time></trkpt><trkpt lat="43.1596433" lon="11.1674917"><ele>268.0</ele><time>2026-03-22T13:25:13.349Z</time></trkpt><trkpt lat="43.1595767" lon="11.1674467"><ele>267.8333333333333</ele><time>2026-03-22T13:25:14.349Z</time></trkpt><trkpt lat="43.159515" lon="11.167395"><ele>267.66666666666663</ele><time>2026-03-22T13:25:15.349Z</time></trkpt><trkpt lat="43.159445" lon="11.167355"><ele>267.5</ele><time>2026-03-22T13:25:16.349Z</time></trkpt><trkpt lat="43.159375" lon="11.16731"><ele>267.3333333333333</ele><time>2026-03-22T13:25:17.348Z</time></trkpt><trkpt lat="43.1593" lon="11.16726"><ele>267.1666666666667</ele><time>2026-03-22T13:25:18.349Z</time></trkpt><trkpt lat="43.1592083" lon="11.1671933"><ele>267.0</ele><time>2026-03-22T13:25:19.349Z</time></trkpt><trkpt lat="43.15913" lon="11.16713"><ele>267.0</ele><time>2026-03-22T13:25:20.349Z</time></trkpt><trkpt lat="43.15906" lon="11.16706"><ele>267.0</ele><time>2026-03-22T13:25:21.348Z</time></trkpt><trkpt lat="43.1589883" lon="11.1669817"><ele>267.0</ele><time>2026-03-22T13:25:22.349Z</time></trkpt><trkpt lat="43.158915" lon="11.166905"><ele>267.0</ele><time>2026-03-22T13:25:23.349Z</time></trkpt><trkpt lat="43.1588533" lon="11.1668283"><ele>267.0</ele><time>2026-03-22T13:25:24.349Z</time></trkpt><trkpt lat="43.1588" lon="11.1667533"><ele>267.0</ele><time>2026-03-22T13:25:25.349Z</time></trkpt><trkpt lat="43.158755" lon="11.166675"><ele>267.0</ele><time>2026-03-22T13:25:26.349Z</time></trkpt><trkpt lat="43.1587" lon="11.1666017"><ele>267.0</ele><time>2026-03-22T13:25:27.349Z</time></trkpt><trkpt lat="43.1586267" lon="11.1665283"><ele>267.0</ele><time>2026-03-22T13:25:28.349Z</time></trkpt><trkpt lat="43.1585433" lon="11.16646"><ele>267.0</ele><time>2026-03-22T13:25:29.349Z</time></trkpt><trkpt lat="43.158455" lon="11.166395"><ele>267.0</ele><time>2026-03-22T13:25:30.349Z</time></trkpt><trkpt lat="43.1583633" lon="11.1663383"><ele>267.0</ele><time>2026-03-22T13:25:31.349Z</time></trkpt><trkpt lat="43.1582933" lon="11.166305"><ele>267.0</ele><time>2026-03-22T13:25:32.349Z</time></trkpt><trkpt lat="43.1582267" lon="11.1663017"><ele>267.0</ele><time>2026-03-22T13:25:33.349Z</time></trkpt><trkpt lat="43.1581517" lon="11.166325"><ele>267.0</ele><time>2026-03-22T13:25:34.349Z</time></trkpt><trkpt lat="43.1580617" lon="11.1663517"><ele>267.0</ele><time>2026-03-22T13:25:35.349Z</time></trkpt><trkpt lat="43.1579683" lon="11.1663717"><ele>267.0</ele><time>2026-03-22T13:25:36.349Z</time></trkpt><trkpt lat="43.1578683" lon="11.1663667"><ele>267.0</ele><time>2026-03-22T13:25:37.349Z</time></trkpt><trkpt lat="43.15777" lon="11.1663533"><ele>267.0</ele><time>2026-03-22T13:25:38.349Z</time></trkpt><trkpt lat="43.15767" lon="11.1663283"><ele>267.0</ele><time>2026-03-22T13:25:39.349Z</time></trkpt><trkpt lat="43.157565" lon="11.16631"><ele>267.0</ele><time>2026-03-22T13:25:40.349Z</time></trkpt><trkpt lat="43.1574633" lon="11.1663017"><ele>267.0</ele><time>2026-03-22T13:25:41.348Z</time></trkpt><trkpt lat="43.1573717" lon="11.1663183"><ele>266.8</ele><time>2026-03-22T13:25:42.348Z</time></trkpt><trkpt lat="43.1572733" lon="11.1663617"><ele>266.6</ele><time>2026-03-22T13:25:43.349Z</time></trkpt><trkpt lat="43.1571817" lon="11.1664317"><ele>266.40000000000003</ele><time>2026-03-22T13:25:44.348Z</time></trkpt><trkpt lat="43.157095" lon="11.1665167"><ele>266.2</ele><time>2026-03-22T13:25:45.348Z</time></trkpt><trkpt lat="43.15702" lon="11.1666133"><ele>266.0</ele><time>2026-03-22T13:25:46.348Z</time></trkpt><trkpt lat="43.1569517" lon="11.1666867"><ele>266.0</ele><time>2026-03-22T13:25:47.349Z</time></trkpt><trkpt lat="43.156895" lon="11.1667317"><ele>266.0</ele><time>2026-03-22T13:25:48.349Z</time></trkpt><trkpt lat="43.1568383" lon="11.16677"><ele>266.0</ele><time>2026-03-22T13:25:49.348Z</time></trkpt><trkpt lat="43.1567417" lon="11.1668583"><ele>266.0</ele><time>2026-03-22T13:25:51.348Z</time></trkpt><trkpt lat="43.15669" lon="11.1669217"><ele>266.0</ele><time>2026-03-22T13:25:52.349Z</time></trkpt><trkpt lat="43.15662" lon="11.1669983"><ele>266.0</ele><time>2026-03-22T13:25:53.349Z</time></trkpt><trkpt lat="43.1565533" lon="11.16709"><ele>266.33333333333337</ele><time>2026-03-22T13:25:54.349Z</time></trkpt><trkpt lat="43.1565083" lon="11.1671783"><ele>266.6666666666667</ele><time>2026-03-22T13:25:55.348Z</time></trkpt><trkpt lat="43.156505" lon="11.1673367"><ele>267.0</ele><time>2026-03-22T13:25:57.348Z</time></trkpt><trkpt lat="43.1565217" lon="11.16743"><ele>267.3333333333333</ele><time>2026-03-22T13:25:58.349Z</time></trkpt><trkpt lat="43.1565717" lon="11.1675333"><ele>267.66666666666663</ele><time>2026-03-22T13:25:59.349Z</time></trkpt><trkpt lat="43.1566267" lon="11.1676333"><ele>268.0</ele><time>2026-03-22T13:26:00.349Z</time></trkpt><trkpt lat="43.156665" lon="11.1677467"><ele>268.0</ele><time>2026-03-22T13:26:01.349Z</time></trkpt><trkpt lat="43.1566933" lon="11.1678567"><ele>268.0</ele><time>2026-03-22T13:26:02.348Z</time></trkpt><trkpt lat="43.1567017" lon="11.1679783"><ele>268.0</ele><time>2026-03-22T13:26:03.349Z</time></trkpt><trkpt lat="43.1567067" lon="11.1680983"><ele>268.0</ele><time>2026-03-22T13:26:04.349Z</time></trkpt><trkpt lat="43.156705" lon="11.1682317"><ele>268.0</ele><time>2026-03-22T13:26:05.349Z</time></trkpt><trkpt lat="43.1567033" lon="11.1683483"><ele>268.0</ele><time>2026-03-22T13:26:06.348Z</time></trkpt><trkpt lat="43.1566983" lon="11.16846"><ele>268.5</ele><time>2026-03-22T13:26:07.349Z</time></trkpt><trkpt lat="43.156685" lon="11.168545"><ele>269.0</ele><time>2026-03-22T13:26:08.349Z</time></trkpt><trkpt lat="43.1565883" lon="11.1686383"><ele>269.5</ele><time>2026-03-22T13:26:10.348Z</time></trkpt><trkpt lat="43.1565117" lon="11.1686767"><ele>270.0</ele><time>2026-03-22T13:26:11.349Z</time></trkpt><trkpt lat="43.1564483" lon="11.1687217"><ele>270.5</ele><time>2026-03-22T13:26:12.348Z</time></trkpt><trkpt lat="43.1563967" lon="11.1687883"><ele>271.0</ele><time>2026-03-22T13:26:13.349Z</time></trkpt><trkpt lat="43.1563517" lon="11.1688517"><ele>271.0</ele><time>2026-03-22T13:26:14.349Z</time></trkpt><trkpt lat="43.156305" lon="11.1689333"><ele>271.0</ele><time>2026-03-22T13:26:15.349Z</time></trkpt><trkpt lat="43.1562483" lon="11.1690333"><ele>271.0</ele><time>2026-03-22T13:26:16.349Z</time></trkpt><trkpt lat="43.1561833" lon="11.1691417"><ele>271.0</ele><time>2026-03-22T13:26:17.349Z</time></trkpt><trkpt lat="43.1561167" lon="11.169255"><ele>271.0</ele><time>2026-03-22T13:26:18.349Z</time></trkpt><trkpt lat="43.1560583" lon="11.16935"><ele>272.16666666666663</ele><time>2026-03-22T13:26:19.349Z</time></trkpt><trkpt lat="43.1560117" lon="11.1694183"><ele>273.3333333333333</ele><time>2026-03-22T13:26:20.348Z</time></trkpt><trkpt lat="43.1559433" lon="11.1694383"><ele>274.5</ele><time>2026-03-22T13:26:26.349Z</time></trkpt><trkpt lat="43.15588" lon="11.1694217"><ele>275.6666666666667</ele><time>2026-03-22T13:26:28.349Z</time></trkpt><trkpt lat="43.1557683" lon="11.1693783"><ele>276.83333333333337</ele><time>2026-03-22T13:26:30.349Z</time></trkpt><trkpt lat="43.1556983" lon="11.169365"><ele>278.0</ele><time>2026-03-22T13:26:31.349Z</time></trkpt><trkpt lat="43.155615" lon="11.16936"><ele>278.1666666666667</ele><time>2026-03-22T13:26:32.349Z</time></trkpt><trkpt lat="43.1555183" lon="11.169355"><ele>278.33333333333337</ele><time>2026-03-22T13:26:33.349Z</time></trkpt><trkpt lat="43.15543" lon="11.169365"><ele>278.5</ele><time>2026-03-22T13:26:34.349Z</time></trkpt><trkpt lat="43.1553517" lon="11.1693767"><ele>278.6666666666667</ele><time>2026-03-22T13:26:35.349Z</time></trkpt><trkpt lat="43.1552883" lon="11.16939"><ele>278.8333333333333</ele><time>2026-03-22T13:26:36.349Z</time></trkpt><trkpt lat="43.155205" lon="11.1694133"><ele>279.0</ele><time>2026-03-22T13:26:38.349Z</time></trkpt><trkpt lat="43.1551233" lon="11.169425"><ele>279.0</ele><time>2026-03-22T13:26:42.349Z</time></trkpt><trkpt lat="43.15505" lon="11.1694317"><ele>279.0</ele><time>2026-03-22T13:26:44.349Z</time></trkpt><trkpt lat="43.154965" lon="11.16943"><ele>279.0</ele><time>2026-03-22T13:26:46.349Z</time></trkpt><trkpt lat="43.154905" lon="11.169485"><ele>279.0</ele><time>2026-03-22T13:26:49.349Z</time></trkpt><trkpt lat="43.154925" lon="11.1695783"><ele>279.0</ele><time>2026-03-22T13:26:53.349Z</time></trkpt><trkpt lat="43.1550033" lon="11.1695917"><ele>279.0</ele><time>2026-03-22T13:26:56.348Z</time></trkpt><trkpt lat="43.1550717" lon="11.1696117"><ele>278.99999999999994</ele><time>2026-03-22T13:26:59.349Z</time></trkpt><trkpt lat="43.1551533" lon="11.1695717"><ele>279.0</ele><time>2026-03-22T13:27:14.349Z</time></trkpt><trkpt lat="43.1552" lon="11.1695083"><ele>279.0</ele><time>2026-03-22T13:27:16.348Z</time></trkpt><trkpt lat="43.15527" lon="11.169465"><ele>279.0</ele><time>2026-03-22T13:27:19.349Z</time></trkpt><trkpt lat="43.1553433" lon="11.16944"><ele>279.0</ele><time>2026-03-22T13:27:21.349Z</time></trkpt><trkpt lat="43.1554183" lon="11.1694317"><ele>278.99999999999994</ele><time>2026-03-22T13:27:24.348Z</time></trkpt><trkpt lat="43.1554817" lon="11.16944"><ele>279.0</ele><time>2026-03-22T13:27:26.349Z</time></trkpt><trkpt lat="43.155555" lon="11.1694533"><ele>279.0</ele><time>2026-03-22T13:27:28.349Z</time></trkpt><trkpt lat="43.1556217" lon="11.1694717"><ele>279.0</ele><time>2026-03-22T13:27:30.348Z</time></trkpt><trkpt lat="43.1557017" lon="11.1694917"><ele>279.0</ele><time>2026-03-22T13:27:32.348Z</time></trkpt><trkpt lat="43.1557867" lon="11.1694933"><ele>279.0</ele><time>2026-03-22T13:27:35.349Z</time></trkpt><trkpt lat="43.1558483" lon="11.1694583"><ele>279.0</ele><time>2026-03-22T13:27:38.349Z</time></trkpt><trkpt lat="43.1559333" lon="11.1694333"><ele>279.0</ele><time>2026-03-22T13:27:41.348Z</time></trkpt><trkpt lat="43.1559817" lon="11.16951"><ele>278.8333333333333</ele><time>2026-03-22T13:27:44.349Z</time></trkpt><trkpt lat="43.1559967" lon="11.1696"><ele>278.6666666666667</ele><time>2026-03-22T13:27:46.349Z</time></trkpt><trkpt lat="43.1560017" lon="11.1697283"><ele>278.5</ele><time>2026-03-22T13:27:48.348Z</time></trkpt><trkpt lat="43.1559967" lon="11.1698183"><ele>278.33333333333337</ele><time>2026-03-22T13:27:49.349Z</time></trkpt><trkpt lat="43.15598" lon="11.1699217"><ele>278.1666666666667</ele><time>2026-03-22T13:27:50.349Z</time></trkpt><trkpt lat="43.155945" lon="11.170045"><ele>278.0</ele><time>2026-03-22T13:27:51.348Z</time></trkpt><trkpt lat="43.1559017" lon="11.1701533"><ele>278.6666666666667</ele><time>2026-03-22T13:27:52.349Z</time></trkpt><trkpt lat="43.155865" lon="11.170245"><ele>279.33333333333337</ele><time>2026-03-22T13:27:53.349Z</time></trkpt><trkpt lat="43.1558317" lon="11.17034"><ele>280.0</ele><time>2026-03-22T13:27:54.349Z</time></trkpt><trkpt lat="43.1558033" lon="11.1704467"><ele>280.6666666666667</ele><time>2026-03-22T13:27:55.349Z</time></trkpt><trkpt lat="43.1557717" lon="11.17055"><ele>281.3333333333333</ele><time>2026-03-22T13:27:56.349Z</time></trkpt><trkpt lat="43.1557383" lon="11.1706283"><ele>282.0</ele><time>2026-03-22T13:27:57.349Z</time></trkpt><trkpt lat="43.1556833" lon="11.1707217"><ele>282.0</ele><time>2026-03-22T13:27:59.349Z</time></trkpt><trkpt lat="43.1556383" lon="11.1708167"><ele>282.0</ele><time>2026-03-22T13:28:03.349Z</time></trkpt><trkpt lat="43.1555717" lon="11.170885"><ele>282.0</ele><time>2026-03-22T13:28:05.349Z</time></trkpt><trkpt lat="43.1554783" lon="11.1710083"><ele>282.0</ele><time>2026-03-22T13:28:07.348Z</time></trkpt><trkpt lat="43.15542" lon="11.171085"><ele>282.0</ele><time>2026-03-22T13:28:08.349Z</time></trkpt><trkpt lat="43.155355" lon="11.1711667"><ele>282.0</ele><time>2026-03-22T13:28:09.348Z</time></trkpt><trkpt lat="43.1552883" lon="11.1712433"><ele>282.0</ele><time>2026-03-22T13:28:10.349Z</time></trkpt><trkpt lat="43.1552267" lon="11.1713117"><ele>282.0</ele><time>2026-03-22T13:28:11.349Z</time></trkpt><trkpt lat="43.1551583" lon="11.1713617"><ele>282.0</ele><time>2026-03-22T13:28:12.348Z</time></trkpt><trkpt lat="43.155095" lon="11.1714083"><ele>282.0</ele><time>2026-03-22T13:28:13.349Z</time></trkpt><trkpt lat="43.1549933" lon="11.1715083"><ele>282.0</ele><time>2026-03-22T13:28:15.349Z</time></trkpt><trkpt lat="43.1549333" lon="11.1715483"><ele>282.1666666666667</ele><time>2026-03-22T13:28:16.349Z</time></trkpt><trkpt lat="43.1548733" lon="11.1715883"><ele>282.3333333333333</ele><time>2026-03-22T13:28:17.349Z</time></trkpt><trkpt lat="43.154775" lon="11.171675"><ele>282.5</ele><time>2026-03-22T13:28:19.349Z</time></trkpt><trkpt lat="43.15472" lon="11.171735"><ele>282.66666666666663</ele><time>2026-03-22T13:28:20.348Z</time></trkpt><trkpt lat="43.1546467" lon="11.171795"><ele>282.8333333333333</ele><time>2026-03-22T13:28:21.349Z</time></trkpt><trkpt lat="43.1545683" lon="11.1718533"><ele>283.0</ele><time>2026-03-22T13:28:22.348Z</time></trkpt><trkpt lat="43.1544883" lon="11.1719167"><ele>283.0</ele><time>2026-03-22T13:28:23.349Z</time></trkpt><trkpt lat="43.1544183" lon="11.1719717"><ele>283.0</ele><time>2026-03-22T13:28:24.349Z</time></trkpt><trkpt lat="43.1543333" lon="11.17203"><ele>283.0</ele><time>2026-03-22T13:28:25.349Z</time></trkpt><trkpt lat="43.1542433" lon="11.1721017"><ele>283.0</ele><time>2026-03-22T13:28:26.348Z</time></trkpt><trkpt lat="43.1541567" lon="11.1721583"><ele>283.0</ele><time>2026-03-22T13:28:27.349Z</time></trkpt><trkpt lat="43.154045" lon="11.1722267"><ele>283.75</ele><time>2026-03-22T13:28:28.349Z</time></trkpt><trkpt lat="43.1539333" lon="11.1722983"><ele>284.5</ele><time>2026-03-22T13:28:29.348Z</time></trkpt><trkpt lat="43.1538333" lon="11.1723633"><ele>285.25</ele><time>2026-03-22T13:28:30.349Z</time></trkpt><trkpt lat="43.15373" lon="11.1724383"><ele>286.0</ele><time>2026-03-22T13:28:31.349Z</time></trkpt><trkpt lat="43.15362" lon="11.17252"><ele>286.0</ele><time>2026-03-22T13:28:32.349Z</time></trkpt><trkpt lat="43.1535133" lon="11.1725783"><ele>286.0</ele><time>2026-03-22T13:28:33.349Z</time></trkpt><trkpt lat="43.153425" lon="11.1726283"><ele>286.0</ele><time>2026-03-22T13:28:34.349Z</time></trkpt><trkpt lat="43.1533433" lon="11.1726867"><ele>286.0</ele><time>2026-03-22T13:28:35.349Z</time></trkpt><trkpt lat="43.1532867" lon="11.1727383"><ele>286.0</ele><time>2026-03-22T13:28:36.349Z</time></trkpt><trkpt lat="43.153195" lon="11.1727767"><ele>286.0</ele><time>2026-03-22T13:28:38.349Z</time></trkpt><trkpt lat="43.153075" lon="11.1727217"><ele>286.0</ele><time>2026-03-22T13:28:40.348Z</time></trkpt><trkpt lat="43.152985" lon="11.172615"><ele>286.0</ele><time>2026-03-22T13:28:42.348Z</time></trkpt><trkpt lat="43.1529467" lon="11.17246"><ele>286.0</ele><time>2026-03-22T13:28:44.349Z</time></trkpt><trkpt lat="43.15293" lon="11.1723517"><ele>286.0</ele><time>2026-03-22T13:28:45.349Z</time></trkpt><trkpt lat="43.152905" lon="11.1722517"><ele>286.0</ele><time>2026-03-22T13:28:46.349Z</time></trkpt><trkpt lat="43.1528767" lon="11.1721717"><ele>286.0</ele><time>2026-03-22T13:28:47.349Z</time></trkpt><trkpt lat="43.15283" lon="11.1721033"><ele>286.0</ele><time>2026-03-22T13:28:49.348Z</time></trkpt><trkpt lat="43.1527467" lon="11.1721"><ele>286.0</ele><time>2026-03-22T13:28:52.349Z</time></trkpt><trkpt lat="43.1526783" lon="11.1720967"><ele>286.0</ele><time>2026-03-22T13:28:53.349Z</time></trkpt><trkpt lat="43.1525817" lon="11.1721017"><ele>286.0</ele><time>2026-03-22T13:28:54.349Z</time></trkpt><trkpt lat="43.1524833" lon="11.17212"><ele>286.0</ele><time>2026-03-22T13:28:55.349Z</time></trkpt><trkpt lat="43.15238" lon="11.17215"><ele>286.0</ele><time>2026-03-22T13:28:56.349Z</time></trkpt><trkpt lat="43.1522617" lon="11.1721933"><ele>286.0</ele><time>2026-03-22T13:28:57.349Z</time></trkpt><trkpt lat="43.15215" lon="11.1722433"><ele>286.0</ele><time>2026-03-22T13:28:58.349Z</time></trkpt><trkpt lat="43.1520517" lon="11.1722783"><ele>286.0</ele><time>2026-03-22T13:28:59.349Z</time></trkpt><trkpt lat="43.1519717" lon="11.1722917"><ele>286.16666666666663</ele><time>2026-03-22T13:29:00.349Z</time></trkpt><trkpt lat="43.1519033" lon="11.1722633"><ele>286.3333333333333</ele><time>2026-03-22T13:29:01.349Z</time></trkpt><trkpt lat="43.151845" lon="11.1722217"><ele>286.5</ele><time>2026-03-22T13:29:02.349Z</time></trkpt><trkpt lat="43.1517783" lon="11.172165"><ele>286.6666666666667</ele><time>2026-03-22T13:29:03.348Z</time></trkpt><trkpt lat="43.15171" lon="11.1721"><ele>286.83333333333337</ele><time>2026-03-22T13:29:04.349Z</time></trkpt><trkpt lat="43.1516183" lon="11.1720167"><ele>287.0</ele><time>2026-03-22T13:29:05.349Z</time></trkpt><trkpt lat="43.1515167" lon="11.1719483"><ele>288.6</ele><time>2026-03-22T13:29:06.349Z</time></trkpt><trkpt lat="43.1514033" lon="11.1718983"><ele>290.2</ele><time>2026-03-22T13:29:07.349Z</time></trkpt><trkpt lat="43.1513" lon="11.1718533"><ele>291.8</ele><time>2026-03-22T13:29:08.348Z</time></trkpt><trkpt lat="43.1511983" lon="11.171815"><ele>293.4</ele><time>2026-03-22T13:29:09.348Z</time></trkpt><trkpt lat="43.151115" lon="11.1718067"><ele>295.0</ele><time>2026-03-22T13:29:10.349Z</time></trkpt><trkpt lat="43.1510417" lon="11.1718317"><ele>295.0</ele><time>2026-03-22T13:29:11.349Z</time></trkpt><trkpt lat="43.1509533" lon="11.1718783"><ele>295.0</ele><time>2026-03-22T13:29:12.349Z</time></trkpt><trkpt lat="43.1508617" lon="11.1719283"><ele>295.0</ele><time>2026-03-22T13:29:13.349Z</time></trkpt><trkpt lat="43.15077" lon="11.1719517"><ele>295.0</ele><time>2026-03-22T13:29:14.349Z</time></trkpt><trkpt lat="43.15069" lon="11.1719417"><ele>295.0</ele><time>2026-03-22T13:29:15.349Z</time></trkpt><trkpt lat="43.1505933" lon="11.1719233"><ele>297.0</ele><time>2026-03-22T13:29:16.349Z</time></trkpt><trkpt lat="43.1505" lon="11.171885"><ele>299.0</ele><time>2026-03-22T13:29:17.348Z</time></trkpt><trkpt lat="43.1503833" lon="11.171835"><ele>301.0</ele><time>2026-03-22T13:29:18.348Z</time></trkpt><trkpt lat="43.1502533" lon="11.171785"><ele>303.0</ele><time>2026-03-22T13:29:19.349Z</time></trkpt><trkpt lat="43.1501217" lon="11.171735"><ele>303.0</ele><time>2026-03-22T13:29:20.349Z</time></trkpt><trkpt lat="43.1499883" lon="11.1716767"><ele>303.0</ele><time>2026-03-22T13:29:21.349Z</time></trkpt><trkpt lat="43.1498533" lon="11.1716183"><ele>303.0</ele><time>2026-03-22T13:29:22.348Z</time></trkpt><trkpt lat="43.1497217" lon="11.1715683"><ele>303.0</ele><time>2026-03-22T13:29:23.349Z</time></trkpt><trkpt lat="43.1495967" lon="11.1715283"><ele>304.8</ele><time>2026-03-22T13:29:24.348Z</time></trkpt><trkpt lat="43.1494867" lon="11.1715033"><ele>306.6</ele><time>2026-03-22T13:29:25.349Z</time></trkpt><trkpt lat="43.1494067" lon="11.171485"><ele>308.4</ele><time>2026-03-22T13:29:26.348Z</time></trkpt><trkpt lat="43.1493267" lon="11.1714817"><ele>310.2</ele><time>2026-03-22T13:29:28.349Z</time></trkpt><trkpt lat="43.1492667" lon="11.1715767"><ele>312.0</ele><time>2026-03-22T13:29:31.349Z</time></trkpt><trkpt lat="43.14917" lon="11.1716533"><ele>312.0</ele><time>2026-03-22T13:29:33.348Z</time></trkpt><trkpt lat="43.1491167" lon="11.1717"><ele>312.0</ele><time>2026-03-22T13:29:34.349Z</time></trkpt><trkpt lat="43.14901" lon="11.1717833"><ele>312.0</ele><time>2026-03-22T13:29:36.349Z</time></trkpt><trkpt lat="43.1489267" lon="11.1718517"><ele>312.0</ele><time>2026-03-22T13:29:38.349Z</time></trkpt><trkpt lat="43.1488033" lon="11.17192"><ele>312.0</ele><time>2026-03-22T13:29:40.349Z</time></trkpt><trkpt lat="43.1487333" lon="11.1719633"><ele>315.2</ele><time>2026-03-22T13:29:41.349Z</time></trkpt><trkpt lat="43.1486767" lon="11.1720067"><ele>318.4</ele><time>2026-03-22T13:29:42.349Z</time></trkpt><trkpt lat="43.1485883" lon="11.17209"><ele>321.59999999999997</ele><time>2026-03-22T13:29:44.349Z</time></trkpt><trkpt lat="43.1485033" lon="11.1721683"><ele>324.79999999999995</ele><time>2026-03-22T13:29:46.349Z</time></trkpt><trkpt lat="43.1484017" lon="11.1722533"><ele>328.0</ele><time>2026-03-22T13:29:48.349Z</time></trkpt><trkpt lat="43.1483483" lon="11.172315"><ele>327.3333333333333</ele><time>2026-03-22T13:29:49.349Z</time></trkpt><trkpt lat="43.1482917" lon="11.1723867"><ele>326.66666666666663</ele><time>2026-03-22T13:29:50.349Z</time></trkpt><trkpt lat="43.1482317" lon="11.1724517"><ele>326.0</ele><time>2026-03-22T13:29:51.349Z</time></trkpt><trkpt lat="43.1481767" lon="11.1725083"><ele>325.3333333333333</ele><time>2026-03-22T13:29:52.349Z</time></trkpt><trkpt lat="43.1481" lon="11.17258"><ele>324.6666666666667</ele><time>2026-03-22T13:29:54.349Z</time></trkpt><trkpt lat="43.148025" lon="11.172655"><ele>324.0</ele><time>2026-03-22T13:30:04.349Z</time></trkpt><trkpt lat="43.1479783" lon="11.1727417"><ele>326.4</ele><time>2026-03-22T13:30:06.349Z</time></trkpt><trkpt lat="43.1479217" lon="11.1728467"><ele>328.79999999999995</ele><time>2026-03-22T13:30:08.349Z</time></trkpt><trkpt lat="43.1478717" lon="11.1729517"><ele>331.20000000000005</ele><time>2026-03-22T13:30:10.349Z</time></trkpt><trkpt lat="43.14783" lon="11.173085"><ele>333.6</ele><time>2026-03-22T13:30:12.349Z</time></trkpt><trkpt lat="43.1478017" lon="11.1731933"><ele>336.0</ele><time>2026-03-22T13:30:14.349Z</time></trkpt><trkpt lat="43.1477833" lon="11.17333"><ele>336.0</ele><time>2026-03-22T13:30:16.349Z</time></trkpt><trkpt lat="43.14776" lon="11.17347"><ele>336.0</ele><time>2026-03-22T13:30:18.349Z</time></trkpt><trkpt lat="43.1477267" lon="11.1736167"><ele>336.0</ele><time>2026-03-22T13:30:20.349Z</time></trkpt><trkpt lat="43.1476967" lon="11.1737383"><ele>336.0</ele><time>2026-03-22T13:30:22.349Z</time></trkpt><trkpt lat="43.1476483" lon="11.1738583"><ele>336.0</ele><time>2026-03-22T13:30:24.349Z</time></trkpt><trkpt lat="43.1475967" lon="11.1739933"><ele>335.5</ele><time>2026-03-22T13:30:26.348Z</time></trkpt><trkpt lat="43.1475717" lon="11.1740733"><ele>335.0</ele><time>2026-03-22T13:30:27.349Z</time></trkpt><trkpt lat="43.1475517" lon="11.17416"><ele>334.5</ele><time>2026-03-22T13:30:28.349Z</time></trkpt><trkpt lat="43.1475367" lon="11.1742483"><ele>334.0</ele><time>2026-03-22T13:30:29.349Z</time></trkpt><trkpt lat="43.1475183" lon="11.1743617"><ele>333.5</ele><time>2026-03-22T13:30:31.349Z</time></trkpt><trkpt lat="43.147455" lon="11.17439"><ele>333.0</ele><time>2026-03-22T13:30:35.349Z</time></trkpt><trkpt lat="43.1474083" lon="11.1742617"><ele>333.0</ele><time>2026-03-22T13:30:38.349Z</time></trkpt><trkpt lat="43.14739" lon="11.17416"><ele>333.0</ele><time>2026-03-22T13:30:40.348Z</time></trkpt><trkpt lat="43.147385" lon="11.1740267"><ele>333.0</ele><time>2026-03-22T13:30:42.349Z</time></trkpt><trkpt lat="43.1473683" lon="11.1739017"><ele>333.0</ele><time>2026-03-22T13:30:44.349Z</time></trkpt><trkpt lat="43.14733" lon="11.17374"><ele>333.0</ele><time>2026-03-22T13:30:46.348Z</time></trkpt><trkpt lat="43.147295" lon="11.1735817"><ele>336.59999999999997</ele><time>2026-03-22T13:30:48.349Z</time></trkpt><trkpt lat="43.1472417" lon="11.173455"><ele>340.2</ele><time>2026-03-22T13:30:50.349Z</time></trkpt><trkpt lat="43.1471567" lon="11.17337"><ele>343.8</ele><time>2026-03-22T13:30:52.349Z</time></trkpt><trkpt lat="43.1470333" lon="11.173325"><ele>347.4</ele><time>2026-03-22T13:30:54.349Z</time></trkpt><trkpt lat="43.1469483" lon="11.1733267"><ele>351.0</ele><time>2026-03-22T13:30:55.349Z</time></trkpt><trkpt lat="43.1468767" lon="11.1733217"><ele>351.0</ele><time>2026-03-22T13:30:56.349Z</time></trkpt><trkpt lat="43.1468067" lon="11.1733133"><ele>351.0</ele><time>2026-03-22T13:30:57.349Z</time></trkpt><trkpt lat="43.1467167" lon="11.173265"><ele>351.0</ele><time>2026-03-22T13:30:59.349Z</time></trkpt><trkpt lat="43.14666" lon="11.17315"><ele>351.0</ele><time>2026-03-22T13:31:01.349Z</time></trkpt><trkpt lat="43.14658" lon="11.173065"><ele>351.0</ele><time>2026-03-22T13:31:03.349Z</time></trkpt><trkpt lat="43.1464567" lon="11.1730967"><ele>352.3333333333333</ele><time>2026-03-22T13:31:05.349Z</time></trkpt><trkpt lat="43.1463933" lon="11.1731167"><ele>353.6666666666667</ele><time>2026-03-22T13:31:06.349Z</time></trkpt><trkpt lat="43.146325" lon="11.1731217"><ele>355.0</ele><time>2026-03-22T13:31:07.349Z</time></trkpt><trkpt lat="43.146245" lon="11.1731233"><ele>356.33333333333337</ele><time>2026-03-22T13:31:08.349Z</time></trkpt><trkpt lat="43.1461633" lon="11.1731217"><ele>357.6666666666667</ele><time>2026-03-22T13:31:09.348Z</time></trkpt><trkpt lat="43.14608" lon="11.1731183"><ele>359.0</ele><time>2026-03-22T13:31:10.349Z</time></trkpt><trkpt lat="43.1460033" lon="11.1731067"><ele>359.0</ele><time>2026-03-22T13:31:11.349Z</time></trkpt><trkpt lat="43.14593" lon="11.1730867"><ele>359.0</ele><time>2026-03-22T13:31:12.348Z</time></trkpt><trkpt lat="43.1458567" lon="11.1730583"><ele>359.0</ele><time>2026-03-22T13:31:13.349Z</time></trkpt><trkpt lat="43.14577" lon="11.1730167"><ele>359.0</ele><time>2026-03-22T13:31:14.349Z</time></trkpt><trkpt lat="43.1456817" lon="11.1729683"><ele>359.0</ele><time>2026-03-22T13:31:15.349Z</time></trkpt><trkpt lat="43.14558" lon="11.1729183"><ele>359.0</ele><time>2026-03-22T13:31:16.349Z</time></trkpt><trkpt lat="43.1454767" lon="11.1728733"><ele>358.6666666666667</ele><time>2026-03-22T13:31:17.349Z</time></trkpt><trkpt lat="43.1453917" lon="11.17284"><ele>358.33333333333337</ele><time>2026-03-22T13:31:18.349Z</time></trkpt><trkpt lat="43.1453117" lon="11.1728467"><ele>358.0</ele><time>2026-03-22T13:31:20.349Z</time></trkpt><trkpt lat="43.1452333" lon="11.1727967"><ele>357.6666666666667</ele><time>2026-03-22T13:31:44.349Z</time></trkpt><trkpt lat="43.1451733" lon="11.1727533"><ele>357.3333333333333</ele><time>2026-03-22T13:31:45.348Z</time></trkpt><trkpt lat="43.1451067" lon="11.172705"><ele>357.0</ele><time>2026-03-22T13:31:46.348Z</time></trkpt><trkpt lat="43.1450317" lon="11.17264"><ele>357.0</ele><time>2026-03-22T13:31:47.349Z</time></trkpt><trkpt lat="43.1449383" lon="11.1725783"><ele>357.0</ele><time>2026-03-22T13:31:48.349Z</time></trkpt><trkpt lat="43.1448433" lon="11.1725133"><ele>357.0</ele><time>2026-03-22T13:31:49.349Z</time></trkpt><trkpt lat="43.14476" lon="11.1724517"><ele>357.0</ele><time>2026-03-22T13:31:50.349Z</time></trkpt><trkpt lat="43.1446783" lon="11.1723917"><ele>357.0</ele><time>2026-03-22T13:31:51.349Z</time></trkpt><trkpt lat="43.1445933" lon="11.172345"><ele>357.40000000000003</ele><time>2026-03-22T13:31:52.348Z</time></trkpt><trkpt lat="43.144505" lon="11.1722933"><ele>357.8</ele><time>2026-03-22T13:31:53.349Z</time></trkpt><trkpt lat="43.1444083" lon="11.1722567"><ele>358.2</ele><time>2026-03-22T13:31:54.349Z</time></trkpt><trkpt lat="43.1443117" lon="11.1722217"><ele>358.6</ele><time>2026-03-22T13:31:55.349Z</time></trkpt><trkpt lat="43.1442083" lon="11.172185"><ele>359.0</ele><time>2026-03-22T13:31:56.349Z</time></trkpt><trkpt lat="43.1441033" lon="11.1721517"><ele>360.0</ele><time>2026-03-22T13:31:57.349Z</time></trkpt><trkpt lat="43.1439983" lon="11.1721167"><ele>361.0</ele><time>2026-03-22T13:31:58.348Z</time></trkpt><trkpt lat="43.1438933" lon="11.17208"><ele>362.0</ele><time>2026-03-22T13:31:59.349Z</time></trkpt><trkpt lat="43.143775" lon="11.17205"><ele>363.0</ele><time>2026-03-22T13:32:00.349Z</time></trkpt><trkpt lat="43.14366" lon="11.1720167"><ele>363.0</ele><time>2026-03-22T13:32:01.348Z</time></trkpt><trkpt lat="43.14354" lon="11.17198"><ele>363.0</ele><time>2026-03-22T13:32:02.349Z</time></trkpt><trkpt lat="43.1434317" lon="11.17195"><ele>363.0</ele><time>2026-03-22T13:32:03.349Z</time></trkpt><trkpt lat="43.14333" lon="11.1719333"><ele>363.0</ele><time>2026-03-22T13:32:04.348Z</time></trkpt><trkpt lat="43.14322" lon="11.171915"><ele>363.0</ele><time>2026-03-22T13:32:05.349Z</time></trkpt><trkpt lat="43.1431267" lon="11.171905"><ele>363.2</ele><time>2026-03-22T13:32:06.348Z</time></trkpt><trkpt lat="43.1430417" lon="11.17191"><ele>363.4</ele><time>2026-03-22T13:32:07.348Z</time></trkpt><trkpt lat="43.142945" lon="11.1719183"><ele>363.59999999999997</ele><time>2026-03-22T13:32:08.349Z</time></trkpt><trkpt lat="43.142835" lon="11.1719267"><ele>363.79999999999995</ele><time>2026-03-22T13:32:09.349Z</time></trkpt><trkpt lat="43.142725" lon="11.1719217"><ele>364.0</ele><time>2026-03-22T13:32:10.349Z</time></trkpt><trkpt lat="43.1426133" lon="11.1719133"><ele>364.0</ele><time>2026-03-22T13:32:11.349Z</time></trkpt><trkpt lat="43.1425" lon="11.1718917"><ele>364.0</ele><time>2026-03-22T13:32:12.349Z</time></trkpt><trkpt lat="43.1423933" lon="11.1718617"><ele>364.0</ele><time>2026-03-22T13:32:13.349Z</time></trkpt><trkpt lat="43.14229" lon="11.1718267"><ele>364.0</ele><time>2026-03-22T13:32:14.349Z</time></trkpt><trkpt lat="43.1421917" lon="11.1717833"><ele>364.0</ele><time>2026-03-22T13:32:15.349Z</time></trkpt><trkpt lat="43.1421" lon="11.171735"><ele>364.16666666666663</ele><time>2026-03-22T13:32:16.349Z</time></trkpt><trkpt lat="43.1420117" lon="11.17168"><ele>364.3333333333333</ele><time>2026-03-22T13:32:17.349Z</time></trkpt><trkpt lat="43.1419333" lon="11.1716433"><ele>364.5</ele><time>2026-03-22T13:32:18.349Z</time></trkpt><trkpt lat="43.1418533" lon="11.1716383"><ele>364.6666666666667</ele><time>2026-03-22T13:32:19.348Z</time></trkpt><trkpt lat="43.1417667" lon="11.1716617"><ele>364.83333333333337</ele><time>2026-03-22T13:32:20.349Z</time></trkpt><trkpt lat="43.141675" lon="11.17172"><ele>365.0</ele><time>2026-03-22T13:32:21.349Z</time></trkpt><trkpt lat="43.1415717" lon="11.17182"><ele>365.75</ele><time>2026-03-22T13:32:22.349Z</time></trkpt><trkpt lat="43.1414717" lon="11.17193"><ele>366.5</ele><time>2026-03-22T13:32:23.349Z</time></trkpt><trkpt lat="43.1413733" lon="11.1720233"><ele>367.25</ele><time>2026-03-22T13:32:24.349Z</time></trkpt><trkpt lat="43.14128" lon="11.172095"><ele>368.0</ele><time>2026-03-22T13:32:25.349Z</time></trkpt><trkpt lat="43.141185" lon="11.1721667"><ele>368.0</ele><time>2026-03-22T13:32:26.349Z</time></trkpt><trkpt lat="43.141075" lon="11.1722233"><ele>368.0</ele><time>2026-03-22T13:32:27.349Z</time></trkpt><trkpt lat="43.1409633" lon="11.17228"><ele>368.0</ele><time>2026-03-22T13:32:28.349Z</time></trkpt><trkpt lat="43.1408533" lon="11.1723583"><ele>368.0</ele><time>2026-03-22T13:32:29.348Z</time></trkpt><trkpt lat="43.1407517" lon="11.17245"><ele>367.6666666666667</ele><time>2026-03-22T13:32:30.349Z</time></trkpt><trkpt lat="43.14066" lon="11.1725483"><ele>367.33333333333337</ele><time>2026-03-22T13:32:31.349Z</time></trkpt><trkpt lat="43.1406" lon="11.1726433"><ele>367.0</ele><time>2026-03-22T13:32:32.349Z</time></trkpt><trkpt lat="43.1405533" lon="11.1727333"><ele>366.6666666666667</ele><time>2026-03-22T13:32:33.349Z</time></trkpt><trkpt lat="43.1405183" lon="11.17281"><ele>366.3333333333333</ele><time>2026-03-22T13:32:34.349Z</time></trkpt><trkpt lat="43.1404817" lon="11.1729133"><ele>366.0</ele><time>2026-03-22T13:32:35.349Z</time></trkpt><trkpt lat="43.1404583" lon="11.1730117"><ele>366.0</ele><time>2026-03-22T13:32:36.349Z</time></trkpt><trkpt lat="43.1404533" lon="11.1731217"><ele>366.0</ele><time>2026-03-22T13:32:37.349Z</time></trkpt><trkpt lat="43.1404617" lon="11.1732683"><ele>366.0</ele><time>2026-03-22T13:32:38.349Z</time></trkpt><trkpt lat="43.1404683" lon="11.173425"><ele>366.0</ele><time>2026-03-22T13:32:39.348Z</time></trkpt><trkpt lat="43.1404783" lon="11.1736033"><ele>366.0</ele><time>2026-03-22T13:32:40.349Z</time></trkpt><trkpt lat="43.14048" lon="11.1737783"><ele>365.20000000000005</ele><time>2026-03-22T13:32:41.349Z</time></trkpt><trkpt lat="43.1404783" lon="11.17395"><ele>364.40000000000003</ele><time>2026-03-22T13:32:42.349Z</time></trkpt><trkpt lat="43.1404733" lon="11.1740767"><ele>363.6</ele><time>2026-03-22T13:32:43.349Z</time></trkpt><trkpt lat="43.1404683" lon="11.1741767"><ele>362.8</ele><time>2026-03-22T13:32:44.348Z</time></trkpt><trkpt lat="43.1403983" lon="11.1742183"><ele>362.0</ele><time>2026-03-22T13:32:47.349Z</time></trkpt><trkpt lat="43.1402983" lon="11.1741683"><ele>362.0</ele><time>2026-03-22T13:32:49.349Z</time></trkpt><trkpt lat="43.1402433" lon="11.1741217"><ele>362.0</ele><time>2026-03-22T13:32:50.349Z</time></trkpt><trkpt lat="43.1401933" lon="11.174065"><ele>362.0</ele><time>2026-03-22T13:32:51.349Z</time></trkpt><trkpt lat="43.1401533" lon="11.173985"><ele>362.0</ele><time>2026-03-22T13:32:52.348Z</time></trkpt><trkpt lat="43.1401267" lon="11.1738833"><ele>362.0</ele><time>2026-03-22T13:32:53.348Z</time></trkpt><trkpt lat="43.1401083" lon="11.173755"><ele>362.0</ele><time>2026-03-22T13:32:54.349Z</time></trkpt><trkpt lat="43.14011" lon="11.1735933"><ele>362.0</ele><time>2026-03-22T13:32:55.349Z</time></trkpt><trkpt lat="43.1401083" lon="11.1734217"><ele>362.0</ele><time>2026-03-22T13:32:56.349Z</time></trkpt><trkpt lat="43.1401" lon="11.173245"><ele>362.0</ele><time>2026-03-22T13:32:57.348Z</time></trkpt><trkpt lat="43.1400867" lon="11.1730517"><ele>362.0</ele><time>2026-03-22T13:32:58.349Z</time></trkpt><trkpt lat="43.1400633" lon="11.1728567"><ele>362.75</ele><time>2026-03-22T13:32:59.349Z</time></trkpt><trkpt lat="43.1400233" lon="11.1726717"><ele>363.5</ele><time>2026-03-22T13:33:00.349Z</time></trkpt><trkpt lat="43.13997" lon="11.172525"><ele>364.25</ele><time>2026-03-22T13:33:01.348Z</time></trkpt><trkpt lat="43.1398783" lon="11.1724233"><ele>365.0</ele><time>2026-03-22T13:33:02.349Z</time></trkpt><trkpt lat="43.1397733" lon="11.17238"><ele>365.0</ele><time>2026-03-22T13:33:03.349Z</time></trkpt><trkpt lat="43.1396567" lon="11.1723717"><ele>365.0</ele><time>2026-03-22T13:33:04.349Z</time></trkpt><trkpt lat="43.1395083" lon="11.1723783"><ele>365.0</ele><time>2026-03-22T13:33:05.349Z</time></trkpt><trkpt lat="43.13936" lon="11.1723967"><ele>365.0</ele><time>2026-03-22T13:33:06.349Z</time></trkpt><trkpt lat="43.1392083" lon="11.172425"><ele>365.0</ele><time>2026-03-22T13:33:07.349Z</time></trkpt><trkpt lat="43.13906" lon="11.1724517"><ele>365.0</ele><time>2026-03-22T13:33:08.349Z</time></trkpt><trkpt lat="43.1389183" lon="11.17247"><ele>365.0</ele><time>2026-03-22T13:33:09.349Z</time></trkpt><trkpt lat="43.1387783" lon="11.1724867"><ele>365.0</ele><time>2026-03-22T13:33:10.349Z</time></trkpt><trkpt lat="43.1386367" lon="11.1725033"><ele>364.0</ele><time>2026-03-22T13:33:11.348Z</time></trkpt><trkpt lat="43.13849" lon="11.1725283"><ele>363.0</ele><time>2026-03-22T13:33:12.348Z</time></trkpt><trkpt lat="43.1383317" lon="11.17255"><ele>362.0</ele><time>2026-03-22T13:33:13.349Z</time></trkpt><trkpt lat="43.1381733" lon="11.17257"><ele>362.0</ele><time>2026-03-22T13:33:14.349Z</time></trkpt><trkpt lat="43.1380117" lon="11.1725917"><ele>362.0</ele><time>2026-03-22T13:33:15.349Z</time></trkpt><trkpt lat="43.1378483" lon="11.1726117"><ele>362.0</ele><time>2026-03-22T13:33:16.348Z</time></trkpt><trkpt lat="43.137695" lon="11.1726183"><ele>362.0</ele><time>2026-03-22T13:33:17.349Z</time></trkpt><trkpt lat="43.1375533" lon="11.17262"><ele>362.0</ele><time>2026-03-22T13:33:18.349Z</time></trkpt><trkpt lat="43.13742" lon="11.1726183"><ele>362.0</ele><time>2026-03-22T13:33:19.349Z</time></trkpt><trkpt lat="43.1372933" lon="11.172585"><ele>362.0</ele><time>2026-03-22T13:33:20.349Z</time></trkpt><trkpt lat="43.13718" lon="11.1725167"><ele>362.75</ele><time>2026-03-22T13:33:21.349Z</time></trkpt><trkpt lat="43.1370683" lon="11.172425"><ele>363.5</ele><time>2026-03-22T13:33:22.349Z</time></trkpt><trkpt lat="43.1369617" lon="11.1723217"><ele>364.25</ele><time>2026-03-22T13:33:23.348Z</time></trkpt><trkpt lat="43.136855" lon="11.1722033"><ele>365.0</ele><time>2026-03-22T13:33:24.348Z</time></trkpt><trkpt lat="43.1367417" lon="11.17208"><ele>365.0</ele><time>2026-03-22T13:33:25.349Z</time></trkpt><trkpt lat="43.136625" lon="11.1719517"><ele>365.0</ele><time>2026-03-22T13:33:26.349Z</time></trkpt><trkpt lat="43.1364933" lon="11.1718333"><ele>365.0</ele><time>2026-03-22T13:33:27.349Z</time></trkpt><trkpt lat="43.1363583" lon="11.17174"><ele>363.6666666666667</ele><time>2026-03-22T13:33:28.349Z</time></trkpt><trkpt lat="43.13622" lon="11.171655"><ele>362.3333333333333</ele><time>2026-03-22T13:33:29.348Z</time></trkpt><trkpt lat="43.1360733" lon="11.1715583"><ele>361.0</ele><time>2026-03-22T13:33:30.349Z</time></trkpt><trkpt lat="43.1359217" lon="11.17145"><ele>361.0</ele><time>2026-03-22T13:33:31.348Z</time></trkpt><trkpt lat="43.13579" lon="11.1713333"><ele>361.0</ele><time>2026-03-22T13:33:32.349Z</time></trkpt><trkpt lat="43.1356733" lon="11.1711983"><ele>361.0</ele><time>2026-03-22T13:33:33.349Z</time></trkpt><trkpt lat="43.1355817" lon="11.1710317"><ele>359.75</ele><time>2026-03-22T13:33:34.349Z</time></trkpt><trkpt lat="43.1355233" lon="11.1708583"><ele>358.5</ele><time>2026-03-22T13:33:35.348Z</time></trkpt><trkpt lat="43.1354767" lon="11.1706883"><ele>357.25</ele><time>2026-03-22T13:33:36.348Z</time></trkpt><trkpt lat="43.13544" lon="11.170495"><ele>356.0</ele><time>2026-03-22T13:33:37.348Z</time></trkpt><trkpt lat="43.1354067" lon="11.1702917"><ele>355.6666666666667</ele><time>2026-03-22T13:33:38.349Z</time></trkpt><trkpt lat="43.1353767" lon="11.1700667"><ele>355.3333333333333</ele><time>2026-03-22T13:33:39.349Z</time></trkpt><trkpt lat="43.1353417" lon="11.1698367"><ele>355.0</ele><time>2026-03-22T13:33:40.348Z</time></trkpt><trkpt lat="43.1352917" lon="11.169615"><ele>355.0</ele><time>2026-03-22T13:33:41.348Z</time></trkpt><trkpt lat="43.1352367" lon="11.1694183"><ele>355.0</ele><time>2026-03-22T13:33:42.349Z</time></trkpt><trkpt lat="43.135175" lon="11.1692833"><ele>355.0</ele><time>2026-03-22T13:33:43.349Z</time></trkpt><trkpt lat="43.135115" lon="11.1691833"><ele>355.0</ele><time>2026-03-22T13:33:44.349Z</time></trkpt><trkpt lat="43.1350533" lon="11.169085"><ele>354.2</ele><time>2026-03-22T13:33:45.349Z</time></trkpt><trkpt lat="43.134985" lon="11.16901"><ele>353.4</ele><time>2026-03-22T13:33:46.349Z</time></trkpt><trkpt lat="43.1349033" lon="11.1689483"><ele>352.6</ele><time>2026-03-22T13:33:47.348Z</time></trkpt><trkpt lat="43.13482" lon="11.1689017"><ele>351.8</ele><time>2026-03-22T13:33:48.349Z</time></trkpt><trkpt lat="43.1347217" lon="11.1688717"><ele>351.0</ele><time>2026-03-22T13:33:49.349Z</time></trkpt><trkpt lat="43.13461" lon="11.1688583"><ele>351.0</ele><time>2026-03-22T13:33:50.349Z</time></trkpt><trkpt lat="43.1344967" lon="11.1688467"><ele>351.0</ele><time>2026-03-22T13:33:51.349Z</time></trkpt><trkpt lat="43.134395" lon="11.16884"><ele>351.0</ele><time>2026-03-22T13:33:52.348Z</time></trkpt><trkpt lat="43.1343" lon="11.1688167"><ele>351.0</ele><time>2026-03-22T13:33:53.348Z</time></trkpt><trkpt lat="43.1342117" lon="11.1687883"><ele>351.0</ele><time>2026-03-22T13:33:54.348Z</time></trkpt><trkpt lat="43.1341233" lon="11.1687483"><ele>350.4</ele><time>2026-03-22T13:33:55.348Z</time></trkpt><trkpt lat="43.13403" lon="11.1686883"><ele>349.8</ele><time>2026-03-22T13:33:56.349Z</time></trkpt><trkpt lat="43.1339367" lon="11.1686167"><ele>349.2</ele><time>2026-03-22T13:33:57.349Z</time></trkpt><trkpt lat="43.1338483" lon="11.1685417"><ele>348.59999999999997</ele><time>2026-03-22T13:33:58.349Z</time></trkpt><trkpt lat="43.1337667" lon="11.1684683"><ele>348.0</ele><time>2026-03-22T13:33:59.349Z</time></trkpt><trkpt lat="43.1336967" lon="11.1684083"><ele>348.0</ele><time>2026-03-22T13:34:00.348Z</time></trkpt><trkpt lat="43.13364" lon="11.16835"><ele>348.0</ele><time>2026-03-22T13:34:01.349Z</time></trkpt><trkpt lat="43.1336" lon="11.16826"><ele>348.0</ele><time>2026-03-22T13:34:03.349Z</time></trkpt><trkpt lat="43.133625" lon="11.1681717"><ele>348.0</ele><time>2026-03-22T13:34:05.348Z</time></trkpt><trkpt lat="43.13367" lon="11.168105"><ele>348.0</ele><time>2026-03-22T13:34:06.349Z</time></trkpt><trkpt lat="43.1337083" lon="11.1680283"><ele>348.0</ele><time>2026-03-22T13:34:07.349Z</time></trkpt><trkpt lat="43.1337583" lon="11.1679467"><ele>348.0</ele><time>2026-03-22T13:34:08.349Z</time></trkpt><trkpt lat="43.1338233" lon="11.1678517"><ele>347.0</ele><time>2026-03-22T13:34:09.349Z</time></trkpt><trkpt lat="43.1338983" lon="11.1677567"><ele>346.0</ele><time>2026-03-22T13:34:10.349Z</time></trkpt><trkpt lat="43.1339767" lon="11.167655"><ele>345.0</ele><time>2026-03-22T13:34:11.348Z</time></trkpt><trkpt lat="43.1340617" lon="11.16756"><ele>344.0</ele><time>2026-03-22T13:34:12.349Z</time></trkpt><trkpt lat="43.1341433" lon="11.1674767"><ele>343.0</ele><time>2026-03-22T13:34:13.349Z</time></trkpt><trkpt lat="43.134235" lon="11.1673817"><ele>341.59999999999997</ele><time>2026-03-22T13:34:14.349Z</time></trkpt><trkpt lat="43.1343133" lon="11.1672767"><ele>340.2</ele><time>2026-03-22T13:34:15.349Z</time></trkpt><trkpt lat="43.1343833" lon="11.1671883"><ele>338.8</ele><time>2026-03-22T13:34:16.349Z</time></trkpt><trkpt lat="43.1344417" lon="11.16711"><ele>337.4</ele><time>2026-03-22T13:34:17.349Z</time></trkpt><trkpt lat="43.1345033" lon="11.16702"><ele>336.0</ele><time>2026-03-22T13:34:18.349Z</time></trkpt><trkpt lat="43.1345667" lon="11.1669017"><ele>336.0</ele><time>2026-03-22T13:34:19.349Z</time></trkpt><trkpt lat="43.13462" lon="11.166765"><ele>336.0</ele><time>2026-03-22T13:34:20.349Z</time></trkpt><trkpt lat="43.1346783" lon="11.1666333"><ele>336.0</ele><time>2026-03-22T13:34:21.349Z</time></trkpt><trkpt lat="43.13472" lon="11.1665083"><ele>336.0</ele><time>2026-03-22T13:34:22.349Z</time></trkpt><trkpt lat="43.134745" lon="11.1663717"><ele>336.0</ele><time>2026-03-22T13:34:23.349Z</time></trkpt><trkpt lat="43.134755" lon="11.1662217"><ele>334.4</ele><time>2026-03-22T13:34:24.349Z</time></trkpt><trkpt lat="43.1347433" lon="11.16607"><ele>332.8</ele><time>2026-03-22T13:34:25.349Z</time></trkpt><trkpt lat="43.1347367" lon="11.1659133"><ele>331.2</ele><time>2026-03-22T13:34:26.349Z</time></trkpt><trkpt lat="43.1347483" lon="11.1657683"><ele>329.59999999999997</ele><time>2026-03-22T13:34:27.349Z</time></trkpt><trkpt lat="43.1347633" lon="11.1656183"><ele>328.0</ele><time>2026-03-22T13:34:28.349Z</time></trkpt><trkpt lat="43.134775" lon="11.1654817"><ele>328.0</ele><time>2026-03-22T13:34:29.349Z</time></trkpt><trkpt lat="43.134785" lon="11.1653517"><ele>328.0</ele><time>2026-03-22T13:34:30.348Z</time></trkpt><trkpt lat="43.1347833" lon="11.1652367"><ele>328.0</ele><time>2026-03-22T13:34:31.349Z</time></trkpt><trkpt lat="43.1347967" lon="11.1651467"><ele>328.0</ele><time>2026-03-22T13:34:32.349Z</time></trkpt><trkpt lat="43.1348167" lon="11.1650633"><ele>328.0</ele><time>2026-03-22T13:34:33.348Z</time></trkpt><trkpt lat="43.1348567" lon="11.1649833"><ele>328.0</ele><time>2026-03-22T13:34:34.349Z</time></trkpt><trkpt lat="43.134925" lon="11.164915"><ele>326.2</ele><time>2026-03-22T13:34:35.348Z</time></trkpt><trkpt lat="43.135015" lon="11.1648367"><ele>324.4</ele><time>2026-03-22T13:34:36.349Z</time></trkpt><trkpt lat="43.1351217" lon="11.1647783"><ele>322.59999999999997</ele><time>2026-03-22T13:34:37.349Z</time></trkpt><trkpt lat="43.1352083" lon="11.1647333"><ele>320.79999999999995</ele><time>2026-03-22T13:34:38.349Z</time></trkpt><trkpt lat="43.1352767" lon="11.164665"><ele>319.0</ele><time>2026-03-22T13:34:39.349Z</time></trkpt><trkpt lat="43.1353283" lon="11.1645967"><ele>319.0</ele><time>2026-03-22T13:34:40.348Z</time></trkpt><trkpt lat="43.13539" lon="11.16451"><ele>319.0</ele><time>2026-03-22T13:34:41.349Z</time></trkpt><trkpt lat="43.135455" lon="11.1644017"><ele>319.0</ele><time>2026-03-22T13:34:42.349Z</time></trkpt><trkpt lat="43.1355167" lon="11.1643033"><ele>319.0</ele><time>2026-03-22T13:34:43.349Z</time></trkpt><trkpt lat="43.1355617" lon="11.1642217"><ele>319.0</ele><time>2026-03-22T13:34:44.349Z</time></trkpt><trkpt lat="43.135585" lon="11.1640817"><ele>317.5</ele><time>2026-03-22T13:34:46.349Z</time></trkpt><trkpt lat="43.1355067" lon="11.16393"><ele>316.0</ele><time>2026-03-22T13:34:48.349Z</time></trkpt><trkpt lat="43.1354333" lon="11.1638067"><ele>314.5</ele><time>2026-03-22T13:34:49.348Z</time></trkpt><trkpt lat="43.135355" lon="11.1636583"><ele>313.0</ele><time>2026-03-22T13:34:50.349Z</time></trkpt><trkpt lat="43.1352783" lon="11.1635017"><ele>313.0</ele><time>2026-03-22T13:34:51.349Z</time></trkpt><trkpt lat="43.1352167" lon="11.1633533"><ele>313.0</ele><time>2026-03-22T13:34:52.349Z</time></trkpt><trkpt lat="43.13516" lon="11.1631967"><ele>313.0</ele><time>2026-03-22T13:34:53.349Z</time></trkpt><trkpt lat="43.1350983" lon="11.163045"><ele>313.0</ele><time>2026-03-22T13:34:54.349Z</time></trkpt><trkpt lat="43.13503" lon="11.1628933"><ele>312.8</ele><time>2026-03-22T13:34:55.349Z</time></trkpt><trkpt lat="43.134955" lon="11.1627617"><ele>312.6</ele><time>2026-03-22T13:34:56.349Z</time></trkpt><trkpt lat="43.1348867" lon="11.1626333"><ele>312.4</ele><time>2026-03-22T13:34:57.349Z</time></trkpt><trkpt lat="43.134845" lon="11.1625283"><ele>312.2</ele><time>2026-03-22T13:34:58.349Z</time></trkpt><trkpt lat="43.1348217" lon="11.162425"><ele>312.0</ele><time>2026-03-22T13:34:59.348Z</time></trkpt><trkpt lat="43.1348017" lon="11.162285"><ele>311.1666666666667</ele><time>2026-03-22T13:35:00.348Z</time></trkpt><trkpt lat="43.1347883" lon="11.1621567"><ele>310.3333333333333</ele><time>2026-03-22T13:35:01.349Z</time></trkpt><trkpt lat="43.1347883" lon="11.1620533"><ele>309.5</ele><time>2026-03-22T13:35:02.349Z</time></trkpt><trkpt lat="43.1347917" lon="11.1619483"><ele>308.66666666666663</ele><time>2026-03-22T13:35:03.349Z</time></trkpt><trkpt lat="43.134815" lon="11.161855"><ele>307.8333333333333</ele><time>2026-03-22T13:35:04.349Z</time></trkpt><trkpt lat="43.13485" lon="11.16177"><ele>307.0</ele><time>2026-03-22T13:35:05.349Z</time></trkpt><trkpt lat="43.13489" lon="11.1616817"><ele>306.6</ele><time>2026-03-22T13:35:06.348Z</time></trkpt><trkpt lat="43.1349267" lon="11.1615783"><ele>306.2</ele><time>2026-03-22T13:35:07.348Z</time></trkpt><trkpt lat="43.134955" lon="11.16146"><ele>305.8</ele><time>2026-03-22T13:35:08.348Z</time></trkpt><trkpt lat="43.1349783" lon="11.1613217"><ele>305.4</ele><time>2026-03-22T13:35:09.349Z</time></trkpt><trkpt lat="43.1349833" lon="11.1611833"><ele>305.0</ele><time>2026-03-22T13:35:10.349Z</time></trkpt><trkpt lat="43.1349783" lon="11.161045"><ele>304.0</ele><time>2026-03-22T13:35:11.349Z</time></trkpt><trkpt lat="43.1349917" lon="11.160895"><ele>303.0</ele><time>2026-03-22T13:35:12.349Z</time></trkpt><trkpt lat="43.13501" lon="11.160745"><ele>302.0</ele><time>2026-03-22T13:35:13.348Z</time></trkpt><trkpt lat="43.1350317" lon="11.160595"><ele>301.0</ele><time>2026-03-22T13:35:14.349Z</time></trkpt><trkpt lat="43.1350467" lon="11.1604717"><ele>300.0</ele><time>2026-03-22T13:35:15.348Z</time></trkpt><trkpt lat="43.1350467" lon="11.1603617"><ele>299.6666666666667</ele><time>2026-03-22T13:35:16.349Z</time></trkpt><trkpt lat="43.1350433" lon="11.1602533"><ele>299.3333333333333</ele><time>2026-03-22T13:35:17.348Z</time></trkpt><trkpt lat="43.1350417" lon="11.1601367"><ele>299.0</ele><time>2026-03-22T13:35:18.349Z</time></trkpt><trkpt lat="43.1350417" lon="11.1600267"><ele>298.66666666666663</ele><time>2026-03-22T13:35:19.348Z</time></trkpt><trkpt lat="43.1350533" lon="11.1599117"><ele>298.3333333333333</ele><time>2026-03-22T13:35:20.349Z</time></trkpt><trkpt lat="43.1350733" lon="11.159795"><ele>298.0</ele><time>2026-03-22T13:35:21.348Z</time></trkpt><trkpt lat="43.1351" lon="11.1596517"><ele>296.8</ele><time>2026-03-22T13:35:22.349Z</time></trkpt><trkpt lat="43.135125" lon="11.159505"><ele>295.6</ele><time>2026-03-22T13:35:23.349Z</time></trkpt><trkpt lat="43.1351367" lon="11.1593783"><ele>294.4</ele><time>2026-03-22T13:35:24.349Z</time></trkpt><trkpt lat="43.1351367" lon="11.1592717"><ele>293.2</ele><time>2026-03-22T13:35:25.349Z</time></trkpt><trkpt lat="43.13514" lon="11.15918"><ele>292.0</ele><time>2026-03-22T13:35:26.349Z</time></trkpt><trkpt lat="43.1351667" lon="11.1589967"><ele>291.0</ele><time>2026-03-22T13:35:28.349Z</time></trkpt><trkpt lat="43.1352183" lon="11.1589033"><ele>290.0</ele><time>2026-03-22T13:35:29.348Z</time></trkpt><trkpt lat="43.1352817" lon="11.1588283"><ele>289.0</ele><time>2026-03-22T13:35:30.349Z</time></trkpt><trkpt lat="43.1353467" lon="11.158775"><ele>288.0</ele><time>2026-03-22T13:35:31.349Z</time></trkpt><trkpt lat="43.1354333" lon="11.1587417"><ele>287.0</ele><time>2026-03-22T13:35:32.348Z</time></trkpt><trkpt lat="43.1355233" lon="11.1587117"><ele>286.0</ele><time>2026-03-22T13:35:33.349Z</time></trkpt><trkpt lat="43.1356033" lon="11.1586917"><ele>285.99999999999994</ele><time>2026-03-22T13:35:34.349Z</time></trkpt><trkpt lat="43.1356667" lon="11.1586617"><ele>286.0</ele><time>2026-03-22T13:35:35.349Z</time></trkpt><trkpt lat="43.135725" lon="11.1586133"><ele>286.0</ele><time>2026-03-22T13:35:36.349Z</time></trkpt><trkpt lat="43.135765" lon="11.1585167"><ele>286.0</ele><time>2026-03-22T13:35:38.349Z</time></trkpt><trkpt lat="43.1357767" lon="11.1584233"><ele>286.0</ele><time>2026-03-22T13:35:40.349Z</time></trkpt><trkpt lat="43.1357867" lon="11.1583217"><ele>285.99999999999994</ele><time>2026-03-22T13:35:42.349Z</time></trkpt><trkpt lat="43.1357883" lon="11.1582133"><ele>286.0</ele><time>2026-03-22T13:35:44.349Z</time></trkpt><trkpt lat="43.1357967" lon="11.15809"><ele>285.8</ele><time>2026-03-22T13:35:46.349Z</time></trkpt><trkpt lat="43.1358067" lon="11.1580017"><ele>285.6</ele><time>2026-03-22T13:35:47.349Z</time></trkpt><trkpt lat="43.1358233" lon="11.1578833"><ele>285.4</ele><time>2026-03-22T13:35:48.349Z</time></trkpt><trkpt lat="43.135845" lon="11.1577283"><ele>285.2</ele><time>2026-03-22T13:35:49.348Z</time></trkpt><trkpt lat="43.13588" lon="11.1575467"><ele>285.0</ele><time>2026-03-22T13:35:50.349Z</time></trkpt><trkpt lat="43.1359183" lon="11.1573617"><ele>285.0</ele><time>2026-03-22T13:35:51.348Z</time></trkpt><trkpt lat="43.1359567" lon="11.1571783"><ele>285.0</ele><time>2026-03-22T13:35:52.349Z</time></trkpt><trkpt lat="43.136" lon="11.1569883"><ele>285.0</ele><time>2026-03-22T13:35:53.349Z</time></trkpt><trkpt lat="43.1360233" lon="11.156805"><ele>285.0</ele><time>2026-03-22T13:35:54.348Z</time></trkpt><trkpt lat="43.136035" lon="11.156635"><ele>285.75</ele><time>2026-03-22T13:35:55.349Z</time></trkpt><trkpt lat="43.1360283" lon="11.1564683"><ele>286.5</ele><time>2026-03-22T13:35:56.349Z</time></trkpt><trkpt lat="43.1360317" lon="11.1562783"><ele>287.25</ele><time>2026-03-22T13:35:57.348Z</time></trkpt><trkpt lat="43.136035" lon="11.1560833"><ele>288.0</ele><time>2026-03-22T13:35:58.349Z</time></trkpt><trkpt lat="43.1360433" lon="11.155905"><ele>288.0</ele><time>2026-03-22T13:35:59.349Z</time></trkpt><trkpt lat="43.1360633" lon="11.1557617"><ele>288.0</ele><time>2026-03-22T13:36:00.348Z</time></trkpt><trkpt lat="43.1360867" lon="11.155655"><ele>288.0</ele><time>2026-03-22T13:36:01.349Z</time></trkpt><trkpt lat="43.136125" lon="11.1555717"><ele>288.0</ele><time>2026-03-22T13:36:02.349Z</time></trkpt><trkpt lat="43.13618" lon="11.155485"><ele>288.0</ele><time>2026-03-22T13:36:03.348Z</time></trkpt><trkpt lat="43.1362467" lon="11.1553967"><ele>288.0</ele><time>2026-03-22T13:36:04.349Z</time></trkpt><trkpt lat="43.13631" lon="11.155305"><ele>288.1666666666667</ele><time>2026-03-22T13:36:05.349Z</time></trkpt><trkpt lat="43.1363717" lon="11.155215"><ele>288.3333333333333</ele><time>2026-03-22T13:36:06.349Z</time></trkpt><trkpt lat="43.1364217" lon="11.1551"><ele>288.5</ele><time>2026-03-22T13:36:07.349Z</time></trkpt><trkpt lat="43.1364583" lon="11.1549883"><ele>288.66666666666663</ele><time>2026-03-22T13:36:08.349Z</time></trkpt><trkpt lat="43.1364817" lon="11.1548917"><ele>288.8333333333333</ele><time>2026-03-22T13:36:09.349Z</time></trkpt><trkpt lat="43.1364883" lon="11.1547583"><ele>289.0</ele><time>2026-03-22T13:36:11.349Z</time></trkpt><trkpt lat="43.1364183" lon="11.1545867"><ele>289.0</ele><time>2026-03-22T13:36:13.348Z</time></trkpt><trkpt lat="43.1363633" lon="11.1544483"><ele>289.0</ele><time>2026-03-22T13:36:14.349Z</time></trkpt><trkpt lat="43.1363117" lon="11.1543033"><ele>289.0</ele><time>2026-03-22T13:36:15.349Z</time></trkpt><trkpt lat="43.1362417" lon="11.1541267"><ele>289.0</ele><time>2026-03-22T13:36:16.349Z</time></trkpt><trkpt lat="43.13617" lon="11.1539467"><ele>288.75</ele><time>2026-03-22T13:36:17.349Z</time></trkpt><trkpt lat="43.1361217" lon="11.1537783"><ele>288.5</ele><time>2026-03-22T13:36:18.349Z</time></trkpt><trkpt lat="43.136075" lon="11.153615"><ele>288.25</ele><time>2026-03-22T13:36:19.349Z</time></trkpt><trkpt lat="43.1360267" lon="11.1534583"><ele>288.0</ele><time>2026-03-22T13:36:20.349Z</time></trkpt><trkpt lat="43.1359767" lon="11.153315"><ele>288.0</ele><time>2026-03-22T13:36:21.349Z</time></trkpt><trkpt lat="43.1359333" lon="11.1531783"><ele>288.0</ele><time>2026-03-22T13:36:22.349Z</time></trkpt><trkpt lat="43.13588" lon="11.1530367"><ele>288.0</ele><time>2026-03-22T13:36:23.349Z</time></trkpt><trkpt lat="43.1358183" lon="11.1529"><ele>288.0</ele><time>2026-03-22T13:36:24.349Z</time></trkpt><trkpt lat="43.1357467" lon="11.152765"><ele>288.4</ele><time>2026-03-22T13:36:25.349Z</time></trkpt><trkpt lat="43.1356883" lon="11.1526417"><ele>288.8</ele><time>2026-03-22T13:36:26.349Z</time></trkpt><trkpt lat="43.1356283" lon="11.1525183"><ele>289.2</ele><time>2026-03-22T13:36:27.348Z</time></trkpt><trkpt lat="43.135565" lon="11.1523883"><ele>289.6</ele><time>2026-03-22T13:36:28.349Z</time></trkpt><trkpt lat="43.1355017" lon="11.15225"><ele>290.0</ele><time>2026-03-22T13:36:29.349Z</time></trkpt><trkpt lat="43.1354433" lon="11.1520983"><ele>290.0</ele><time>2026-03-22T13:36:30.348Z</time></trkpt><trkpt lat="43.1353917" lon="11.1519333"><ele>290.0</ele><time>2026-03-22T13:36:31.348Z</time></trkpt><trkpt lat="43.1353433" lon="11.1517617"><ele>290.0</ele><time>2026-03-22T13:36:32.349Z</time></trkpt><trkpt lat="43.135305" lon="11.1515917"><ele>290.0</ele><time>2026-03-22T13:36:33.349Z</time></trkpt><trkpt lat="43.1352667" lon="11.1514183"><ele>289.75</ele><time>2026-03-22T13:36:34.349Z</time></trkpt><trkpt lat="43.1352233" lon="11.1512367"><ele>289.5</ele><time>2026-03-22T13:36:35.349Z</time></trkpt><trkpt lat="43.1351683" lon="11.1510617"><ele>289.25</ele><time>2026-03-22T13:36:36.348Z</time></trkpt><trkpt lat="43.135115" lon="11.1508883"><ele>289.0</ele><time>2026-03-22T13:36:37.348Z</time></trkpt><trkpt lat="43.13507" lon="11.1507183"><ele>289.0</ele><time>2026-03-22T13:36:38.348Z</time></trkpt><trkpt lat="43.1350217" lon="11.1505383"><ele>289.0</ele><time>2026-03-22T13:36:39.348Z</time></trkpt><trkpt lat="43.134975" lon="11.1503717"><ele>289.0</ele><time>2026-03-22T13:36:40.349Z</time></trkpt><trkpt lat="43.1349333" lon="11.1502"><ele>289.0</ele><time>2026-03-22T13:36:41.348Z</time></trkpt><trkpt lat="43.1348833" lon="11.1500083"><ele>289.75</ele><time>2026-03-22T13:36:42.348Z</time></trkpt><trkpt lat="43.1348367" lon="11.1498317"><ele>290.5</ele><time>2026-03-22T13:36:43.349Z</time></trkpt><trkpt lat="43.13478" lon="11.1496367"><ele>291.25</ele><time>2026-03-22T13:36:44.349Z</time></trkpt><trkpt lat="43.1347317" lon="11.1494517"><ele>292.0</ele><time>2026-03-22T13:36:45.349Z</time></trkpt><trkpt lat="43.1346783" lon="11.1492483"><ele>292.0</ele><time>2026-03-22T13:36:46.349Z</time></trkpt><trkpt lat="43.134635" lon="11.1490367"><ele>292.0</ele><time>2026-03-22T13:36:47.349Z</time></trkpt><trkpt lat="43.1345883" lon="11.1488283"><ele>292.0</ele><time>2026-03-22T13:36:48.348Z</time></trkpt><trkpt lat="43.134545" lon="11.1486133"><ele>292.0</ele><time>2026-03-22T13:36:49.349Z</time></trkpt><trkpt lat="43.134495" lon="11.148415"><ele>292.0</ele><time>2026-03-22T13:36:50.349Z</time></trkpt><trkpt lat="43.1344433" lon="11.1482217"><ele>292.0</ele><time>2026-03-22T13:36:51.349Z</time></trkpt><trkpt lat="43.134395" lon="11.1480617"><ele>292.0</ele><time>2026-03-22T13:36:52.349Z</time></trkpt><trkpt lat="43.1343633" lon="11.1479367"><ele>292.75</ele><time>2026-03-22T13:36:53.349Z</time></trkpt><trkpt lat="43.13428" lon="11.1478067"><ele>293.5</ele><time>2026-03-22T13:36:55.349Z</time></trkpt><trkpt lat="43.134155" lon="11.1478183"><ele>294.25</ele><time>2026-03-22T13:36:57.349Z</time></trkpt><trkpt lat="43.134065" lon="11.147885"><ele>295.0</ele><time>2026-03-22T13:36:58.349Z</time></trkpt><trkpt lat="43.133955" lon="11.1479567"><ele>296.25</ele><time>2026-03-22T13:36:59.349Z</time></trkpt><trkpt lat="43.133845" lon="11.1480417"><ele>297.5</ele><time>2026-03-22T13:37:00.349Z</time></trkpt><trkpt lat="43.1337283" lon="11.14814"><ele>298.75</ele><time>2026-03-22T13:37:01.349Z</time></trkpt><trkpt lat="43.1336133" lon="11.1482383"><ele>300.0</ele><time>2026-03-22T13:37:02.348Z</time></trkpt><trkpt lat="43.1335117" lon="11.1483317"><ele>300.0</ele><time>2026-03-22T13:37:03.349Z</time></trkpt><trkpt lat="43.133405" lon="11.1484233"><ele>300.0</ele><time>2026-03-22T13:37:04.349Z</time></trkpt><trkpt lat="43.133305" lon="11.1485133"><ele>300.0</ele><time>2026-03-22T13:37:05.348Z</time></trkpt><trkpt lat="43.1332133" lon="11.148595"><ele>300.0</ele><time>2026-03-22T13:37:06.348Z</time></trkpt><trkpt lat="43.133135" lon="11.148675"><ele>303.2</ele><time>2026-03-22T13:37:07.349Z</time></trkpt><trkpt lat="43.1330517" lon="11.1487533"><ele>306.4</ele><time>2026-03-22T13:37:08.349Z</time></trkpt><trkpt lat="43.1329733" lon="11.1488333"><ele>309.6</ele><time>2026-03-22T13:37:09.349Z</time></trkpt><trkpt lat="43.1328933" lon="11.1489033"><ele>312.8</ele><time>2026-03-22T13:37:10.349Z</time></trkpt><trkpt lat="43.1328183" lon="11.14897"><ele>316.0</ele><time>2026-03-22T13:37:11.349Z</time></trkpt><trkpt lat="43.132755" lon="11.1490233"><ele>317.3333333333333</ele><time>2026-03-22T13:37:12.349Z</time></trkpt><trkpt lat="43.1326967" lon="11.1490583"><ele>318.66666666666663</ele><time>2026-03-22T13:37:13.348Z</time></trkpt><trkpt lat="43.1326333" lon="11.149075"><ele>320.0</ele><time>2026-03-22T13:37:14.349Z</time></trkpt><trkpt lat="43.1325033" lon="11.149065"><ele>321.3333333333333</ele><time>2026-03-22T13:37:16.349Z</time></trkpt><trkpt lat="43.132435" lon="11.149045"><ele>322.6666666666667</ele><time>2026-03-22T13:37:17.349Z</time></trkpt><trkpt lat="43.132355" lon="11.1490367"><ele>324.0</ele><time>2026-03-22T13:37:18.349Z</time></trkpt><trkpt lat="43.132275" lon="11.1490333"><ele>321.2</ele><time>2026-03-22T13:37:19.349Z</time></trkpt><trkpt lat="43.1321867" lon="11.149045"><ele>318.4</ele><time>2026-03-22T13:37:20.349Z</time></trkpt><trkpt lat="43.1320817" lon="11.14907"><ele>315.6</ele><time>2026-03-22T13:37:21.349Z</time></trkpt><trkpt lat="43.1319667" lon="11.14909"><ele>312.8</ele><time>2026-03-22T13:37:22.349Z</time></trkpt><trkpt lat="43.1318533" lon="11.149105"><ele>310.0</ele><time>2026-03-22T13:37:23.349Z</time></trkpt><trkpt lat="43.131735" lon="11.1491183"><ele>310.0</ele><time>2026-03-22T13:37:24.348Z</time></trkpt><trkpt lat="43.131615" lon="11.149125"><ele>310.0</ele><time>2026-03-22T13:37:25.349Z</time></trkpt><trkpt lat="43.1315083" lon="11.1491367"><ele>310.0</ele><time>2026-03-22T13:37:26.348Z</time></trkpt><trkpt lat="43.1313983" lon="11.1491283"><ele>310.0</ele><time>2026-03-22T13:37:27.349Z</time></trkpt><trkpt lat="43.1312883" lon="11.1490983"><ele>310.0</ele><time>2026-03-22T13:37:28.349Z</time></trkpt><trkpt lat="43.1311783" lon="11.1490383"><ele>311.25</ele><time>2026-03-22T13:37:29.349Z</time></trkpt><trkpt lat="43.1310817" lon="11.1489633"><ele>312.5</ele><time>2026-03-22T13:37:30.348Z</time></trkpt><trkpt lat="43.1309833" lon="11.14888"><ele>313.75</ele><time>2026-03-22T13:37:31.349Z</time></trkpt><trkpt lat="43.1308917" lon="11.1487783"><ele>315.0</ele><time>2026-03-22T13:37:32.349Z</time></trkpt><trkpt lat="43.1308067" lon="11.1486633"><ele>312.75</ele><time>2026-03-22T13:37:33.349Z</time></trkpt><trkpt lat="43.1307183" lon="11.148535"><ele>310.5</ele><time>2026-03-22T13:37:34.349Z</time></trkpt><trkpt lat="43.1306233" lon="11.1483783"><ele>308.25</ele><time>2026-03-22T13:37:35.349Z</time></trkpt><trkpt lat="43.13053" lon="11.1482383"><ele>306.0</ele><time>2026-03-22T13:37:36.349Z</time></trkpt><trkpt lat="43.1304433" lon="11.14811"><ele>306.0</ele><time>2026-03-22T13:37:37.349Z</time></trkpt><trkpt lat="43.1303683" lon="11.1480033"><ele>306.0</ele><time>2026-03-22T13:37:38.349Z</time></trkpt><trkpt lat="43.130305" lon="11.1479233"><ele>306.0</ele><time>2026-03-22T13:37:39.349Z</time></trkpt><trkpt lat="43.1302" lon="11.1478933"><ele>306.0</ele><time>2026-03-22T13:37:41.349Z</time></trkpt><trkpt lat="43.1301433" lon="11.1479333"><ele>306.0</ele><time>2026-03-22T13:37:42.349Z</time></trkpt><trkpt lat="43.1300617" lon="11.1480017"><ele>306.0</ele><time>2026-03-22T13:37:43.349Z</time></trkpt><trkpt lat="43.129975" lon="11.1480683"><ele>306.0</ele><time>2026-03-22T13:37:44.349Z</time></trkpt><trkpt lat="43.1298967" lon="11.14811"><ele>306.0</ele><time>2026-03-22T13:37:45.349Z</time></trkpt><trkpt lat="43.1298233" lon="11.148175"><ele>306.0</ele><time>2026-03-22T13:37:46.349Z</time></trkpt><trkpt lat="43.129765" lon="11.1482483"><ele>306.0</ele><time>2026-03-22T13:37:47.349Z</time></trkpt><trkpt lat="43.1297083" lon="11.1483267"><ele>306.0</ele><time>2026-03-22T13:37:48.349Z</time></trkpt><trkpt lat="43.1296467" lon="11.14839"><ele>304.3333333333333</ele><time>2026-03-22T13:37:49.348Z</time></trkpt><trkpt lat="43.12957" lon="11.14843"><ele>302.6666666666667</ele><time>2026-03-22T13:37:50.349Z</time></trkpt><trkpt lat="43.1294967" lon="11.1484317"><ele>301.0</ele><time>2026-03-22T13:37:51.349Z</time></trkpt><trkpt lat="43.1294217" lon="11.1483967"><ele>299.33333333333337</ele><time>2026-03-22T13:37:52.349Z</time></trkpt><trkpt lat="43.1293533" lon="11.1483417"><ele>297.6666666666667</ele><time>2026-03-22T13:37:53.349Z</time></trkpt><trkpt lat="43.129285" lon="11.1482617"><ele>296.0</ele><time>2026-03-22T13:37:54.348Z</time></trkpt><trkpt lat="43.1292217" lon="11.1481767"><ele>296.0</ele><time>2026-03-22T13:37:55.349Z</time></trkpt><trkpt lat="43.1291617" lon="11.1481017"><ele>296.0</ele><time>2026-03-22T13:37:56.349Z</time></trkpt><trkpt lat="43.1290983" lon="11.1480417"><ele>296.0</ele><time>2026-03-22T13:37:57.349Z</time></trkpt><trkpt lat="43.129035" lon="11.14799"><ele>296.0</ele><time>2026-03-22T13:37:58.349Z</time></trkpt><trkpt lat="43.1289633" lon="11.1479433"><ele>296.0</ele><time>2026-03-22T13:37:59.349Z</time></trkpt><trkpt lat="43.128885" lon="11.1479083"><ele>296.0</ele><time>2026-03-22T13:38:00.349Z</time></trkpt><trkpt lat="43.1288183" lon="11.1478767"><ele>296.33333333333337</ele><time>2026-03-22T13:38:01.349Z</time></trkpt><trkpt lat="43.128765" lon="11.1478267"><ele>296.6666666666667</ele><time>2026-03-22T13:38:02.348Z</time></trkpt><trkpt lat="43.1286967" lon="11.1477317"><ele>297.0</ele><time>2026-03-22T13:38:04.349Z</time></trkpt><trkpt lat="43.1286233" lon="11.1476667"><ele>297.3333333333333</ele><time>2026-03-22T13:38:07.348Z</time></trkpt><trkpt lat="43.1285283" lon="11.147625"><ele>297.66666666666663</ele><time>2026-03-22T13:38:10.349Z</time></trkpt><trkpt lat="43.1284633" lon="11.1475833"><ele>298.0</ele><time>2026-03-22T13:38:13.349Z</time></trkpt><trkpt lat="43.1284017" lon="11.1475317"><ele>298.0</ele><time>2026-03-22T13:38:16.349Z</time></trkpt><trkpt lat="43.128355" lon="11.1474333"><ele>298.0</ele><time>2026-03-22T13:38:18.349Z</time></trkpt><trkpt lat="43.12833" lon="11.1473533"><ele>298.0</ele><time>2026-03-22T13:38:19.349Z</time></trkpt><trkpt lat="43.128305" lon="11.147265"><ele>298.0</ele><time>2026-03-22T13:38:20.348Z</time></trkpt><trkpt lat="43.1282617" lon="11.1471733"><ele>298.0</ele><time>2026-03-22T13:38:21.348Z</time></trkpt><trkpt lat="43.1282267" lon="11.14708"><ele>298.0</ele><time>2026-03-22T13:38:22.348Z</time></trkpt><trkpt lat="43.1282" lon="11.146995"><ele>298.0</ele><time>2026-03-22T13:38:23.349Z</time></trkpt><trkpt lat="43.128185" lon="11.146845"><ele>298.0</ele><time>2026-03-22T13:38:25.349Z</time></trkpt><trkpt lat="43.1281733" lon="11.1467533"><ele>298.0</ele><time>2026-03-22T13:38:27.349Z</time></trkpt><trkpt lat="43.1281667" lon="11.1466633"><ele>298.0</ele><time>2026-03-22T13:38:29.349Z</time></trkpt><trkpt lat="43.1281083" lon="11.1465317"><ele>298.0</ele><time>2026-03-22T13:38:31.349Z</time></trkpt><trkpt lat="43.12807" lon="11.1464467"><ele>298.0</ele><time>2026-03-22T13:38:32.349Z</time></trkpt><trkpt lat="43.1280367" lon="11.1463533"><ele>298.0</ele><time>2026-03-22T13:38:33.348Z</time></trkpt><trkpt lat="43.1280017" lon="11.146225"><ele>298.2</ele><time>2026-03-22T13:38:34.348Z</time></trkpt><trkpt lat="43.12796" lon="11.146085"><ele>298.4</ele><time>2026-03-22T13:38:35.349Z</time></trkpt><trkpt lat="43.1279083" lon="11.1459417"><ele>298.59999999999997</ele><time>2026-03-22T13:38:36.349Z</time></trkpt><trkpt lat="43.1278583" lon="11.1458133"><ele>298.8</ele><time>2026-03-22T13:38:37.349Z</time></trkpt><trkpt lat="43.127805" lon="11.1456917"><ele>299.0</ele><time>2026-03-22T13:38:38.349Z</time></trkpt><trkpt lat="43.1277633" lon="11.1455883"><ele>299.59999999999997</ele><time>2026-03-22T13:38:39.349Z</time></trkpt><trkpt lat="43.1277317" lon="11.1454867"><ele>300.2</ele><time>2026-03-22T13:38:40.349Z</time></trkpt><trkpt lat="43.1276933" lon="11.1453767"><ele>300.79999999999995</ele><time>2026-03-22T13:38:41.349Z</time></trkpt><trkpt lat="43.1276433" lon="11.1452517"><ele>301.4</ele><time>2026-03-22T13:38:42.349Z</time></trkpt><trkpt lat="43.127575" lon="11.14511"><ele>302.0</ele><time>2026-03-22T13:38:43.348Z</time></trkpt><trkpt lat="43.1275033" lon="11.1449417"><ele>302.0</ele><time>2026-03-22T13:38:44.349Z</time></trkpt><trkpt lat="43.1274283" lon="11.1447417"><ele>302.0</ele><time>2026-03-22T13:38:45.349Z</time></trkpt><trkpt lat="43.1273567" lon="11.1445483"><ele>302.0</ele><time>2026-03-22T13:38:46.348Z</time></trkpt><trkpt lat="43.127295" lon="11.1443767"><ele>302.0</ele><time>2026-03-22T13:38:47.348Z</time></trkpt><trkpt lat="43.127235" lon="11.1442383"><ele>302.0</ele><time>2026-03-22T13:38:48.349Z</time></trkpt><trkpt lat="43.1271783" lon="11.1441217"><ele>302.0</ele><time>2026-03-22T13:38:49.348Z</time></trkpt><trkpt lat="43.1271267" lon="11.1440233"><ele>302.0</ele><time>2026-03-22T13:38:50.349Z</time></trkpt><trkpt lat="43.1270833" lon="11.1439283"><ele>302.0</ele><time>2026-03-22T13:38:51.349Z</time></trkpt><trkpt lat="43.127035" lon="11.14384"><ele>301.5714285714286</ele><time>2026-03-22T13:38:52.349Z</time></trkpt><trkpt lat="43.126985" lon="11.14377"><ele>301.14285714285717</ele><time>2026-03-22T13:38:53.349Z</time></trkpt><trkpt lat="43.1269367" lon="11.1437133"><ele>300.7142857142857</ele><time>2026-03-22T13:38:54.349Z</time></trkpt><trkpt lat="43.126895" lon="11.1436467"><ele>300.28571428571433</ele><time>2026-03-22T13:38:55.349Z</time></trkpt><trkpt lat="43.1268517" lon="11.1435733"><ele>299.8571428571429</ele><time>2026-03-22T13:38:56.349Z</time></trkpt><trkpt lat="43.1267983" lon="11.1434767"><ele>299.42857142857144</ele><time>2026-03-22T13:38:57.349Z</time></trkpt><trkpt lat="43.1267517" lon="11.1433683"><ele>299.0</ele><time>2026-03-22T13:38:58.348Z</time></trkpt><trkpt lat="43.12672" lon="11.1432833"><ele>299.0</ele><time>2026-03-22T13:38:59.349Z</time></trkpt><trkpt lat="43.1267" lon="11.14317"><ele>299.0</ele><time>2026-03-22T13:39:01.349Z</time></trkpt><trkpt lat="43.1267083" lon="11.143045"><ele>299.0</ele><time>2026-03-22T13:39:31.349Z</time></trkpt><trkpt lat="43.1267017" lon="11.1429217"><ele>299.0</ele><time>2026-03-22T13:39:34.349Z</time></trkpt><trkpt lat="43.1267017" lon="11.143025"><ele>299.0</ele><time>2026-03-22T13:41:32.349Z</time></trkpt><trkpt lat="43.1267117" lon="11.143125"><ele>299.0</ele><time>2026-03-22T13:41:35.349Z</time></trkpt><trkpt lat="43.1267233" lon="11.143255"><ele>299.0</ele><time>2026-03-22T13:41:40.349Z</time></trkpt><trkpt lat="43.1267617" lon="11.143385"><ele>299.0</ele><time>2026-03-22T13:41:42.349Z</time></trkpt><trkpt lat="43.1268117" lon="11.143505"><ele>299.0</ele><time>2026-03-22T13:41:44.349Z</time></trkpt><trkpt lat="43.12687" lon="11.1436283"><ele>299.0</ele><time>2026-03-22T13:41:46.349Z</time></trkpt><trkpt lat="43.12686" lon="11.143715"><ele>299.0</ele><time>2026-03-22T13:41:48.349Z</time></trkpt><trkpt lat="43.12677" lon="11.1437467"><ele>299.0</ele><time>2026-03-22T13:41:51.349Z</time></trkpt><trkpt lat="43.1266933" lon="11.1437633"><ele>299.0</ele><time>2026-03-22T13:42:51.349Z</time></trkpt><trkpt lat="43.12663" lon="11.143785"><ele>299.0</ele><time>2026-03-22T13:42:52.349Z</time></trkpt><trkpt lat="43.1265533" lon="11.1438183"><ele>299.0</ele><time>2026-03-22T13:42:53.349Z</time></trkpt><trkpt lat="43.12646" lon="11.1438517"><ele>299.0</ele><time>2026-03-22T13:42:54.349Z</time></trkpt><trkpt lat="43.1263633" lon="11.1438767"><ele>299.0</ele><time>2026-03-22T13:42:55.349Z</time></trkpt><trkpt lat="43.1262617" lon="11.1439117"><ele>299.0</ele><time>2026-03-22T13:42:56.348Z</time></trkpt><trkpt lat="43.12615" lon="11.143955"><ele>299.0</ele><time>2026-03-22T13:42:57.349Z</time></trkpt><trkpt lat="43.1260567" lon="11.1439933"><ele>299.0</ele><time>2026-03-22T13:42:58.349Z</time></trkpt><trkpt lat="43.12598" lon="11.1440233"><ele>299.0</ele><time>2026-03-22T13:42:59.348Z</time></trkpt><trkpt lat="43.1259067" lon="11.1440417"><ele>299.0</ele><time>2026-03-22T13:43:00.348Z</time></trkpt><trkpt lat="43.1258217" lon="11.1440683"><ele>299.8</ele><time>2026-03-22T13:43:01.348Z</time></trkpt><trkpt lat="43.1257383" lon="11.1441083"><ele>300.59999999999997</ele><time>2026-03-22T13:43:02.349Z</time></trkpt><trkpt lat="43.12567" lon="11.144135"><ele>301.4</ele><time>2026-03-22T13:43:03.349Z</time></trkpt><trkpt lat="43.12557" lon="11.144185"><ele>302.2</ele><time>2026-03-22T13:43:05.348Z</time></trkpt><trkpt lat="43.12545" lon="11.1442417"><ele>303.0</ele><time>2026-03-22T13:43:07.349Z</time></trkpt><trkpt lat="43.125375" lon="11.14426"><ele>303.3333333333333</ele><time>2026-03-22T13:43:08.348Z</time></trkpt><trkpt lat="43.1252867" lon="11.1442617"><ele>303.6666666666667</ele><time>2026-03-22T13:43:09.349Z</time></trkpt><trkpt lat="43.1252" lon="11.1442633"><ele>304.0</ele><time>2026-03-22T13:43:10.349Z</time></trkpt><trkpt lat="43.1251167" lon="11.1442567"><ele>304.33333333333337</ele><time>2026-03-22T13:43:11.349Z</time></trkpt><trkpt lat="43.1250433" lon="11.144245"><ele>304.6666666666667</ele><time>2026-03-22T13:43:12.35Z</time></trkpt><trkpt lat="43.12493" lon="11.1442067"><ele>305.0</ele><time>2026-03-22T13:43:14.35Z</time></trkpt><trkpt lat="43.1248733" lon="11.1441633"><ele>305.5</ele><time>2026-03-22T13:43:15.349Z</time></trkpt><trkpt lat="43.1247667" lon="11.1440717"><ele>306.0</ele><time>2026-03-22T13:43:17.35Z</time></trkpt><trkpt lat="43.124705" lon="11.14403"><ele>306.5</ele><time>2026-03-22T13:43:18.35Z</time></trkpt><trkpt lat="43.1246383" lon="11.14399"><ele>307.0</ele><time>2026-03-22T13:43:19.35Z</time></trkpt><trkpt lat="43.1245783" lon="11.1439533"><ele>307.5</ele><time>2026-03-22T13:43:20.35Z</time></trkpt><trkpt lat="43.12452" lon="11.1439183"><ele>308.0</ele><time>2026-03-22T13:43:21.35Z</time></trkpt><trkpt lat="43.1244117" lon="11.1438483"><ele>308.1666666666667</ele><time>2026-03-22T13:43:23.35Z</time></trkpt><trkpt lat="43.1243133" lon="11.14383"><ele>308.33333333333337</ele><time>2026-03-22T13:43:25.349Z</time></trkpt><trkpt lat="43.12425" lon="11.1438267"><ele>308.5</ele><time>2026-03-22T13:43:26.35Z</time></trkpt><trkpt lat="43.1241617" lon="11.14383"><ele>308.6666666666667</ele><time>2026-03-22T13:43:27.349Z</time></trkpt><trkpt lat="43.124065" lon="11.1438333"><ele>308.8333333333333</ele><time>2026-03-22T13:43:28.35Z</time></trkpt><trkpt lat="43.1239683" lon="11.14383"><ele>309.0</ele><time>2026-03-22T13:43:29.35Z</time></trkpt><trkpt lat="43.1238817" lon="11.1438117"><ele>309.59999999999997</ele><time>2026-03-22T13:43:30.35Z</time></trkpt><trkpt lat="43.1238017" lon="11.1437933"><ele>310.2</ele><time>2026-03-22T13:43:31.35Z</time></trkpt><trkpt lat="43.1237183" lon="11.143755"><ele>310.79999999999995</ele><time>2026-03-22T13:43:32.35Z</time></trkpt><trkpt lat="43.1236333" lon="11.143705"><ele>311.4</ele><time>2026-03-22T13:43:33.35Z</time></trkpt><trkpt lat="43.12355" lon="11.1436533"><ele>312.0</ele><time>2026-03-22T13:43:34.35Z</time></trkpt><trkpt lat="43.12346" lon="11.1436033"><ele>312.0</ele><time>2026-03-22T13:43:35.35Z</time></trkpt><trkpt lat="43.1233867" lon="11.143575"><ele>312.0</ele><time>2026-03-22T13:43:36.349Z</time></trkpt><trkpt lat="43.1233183" lon="11.143555"><ele>312.0</ele><time>2026-03-22T13:43:37.35Z</time></trkpt><trkpt lat="43.12325" lon="11.1435433"><ele>312.0</ele><time>2026-03-22T13:43:38.35Z</time></trkpt><trkpt lat="43.1231783" lon="11.1435217"><ele>312.0</ele><time>2026-03-22T13:43:39.35Z</time></trkpt><trkpt lat="43.1231167" lon="11.14349"><ele>312.0</ele><time>2026-03-22T13:43:40.35Z</time></trkpt><trkpt lat="43.1230183" lon="11.1434417"><ele>311.8333333333333</ele><time>2026-03-22T13:43:42.35Z</time></trkpt><trkpt lat="43.1229433" lon="11.1434517"><ele>311.6666666666667</ele><time>2026-03-22T13:43:44.349Z</time></trkpt><trkpt lat="43.12283" lon="11.143465"><ele>311.5</ele><time>2026-03-22T13:43:46.35Z</time></trkpt><trkpt lat="43.122755" lon="11.1434667"><ele>311.33333333333337</ele><time>2026-03-22T13:43:47.349Z</time></trkpt><trkpt lat="43.1226717" lon="11.1434767"><ele>311.1666666666667</ele><time>2026-03-22T13:43:48.35Z</time></trkpt><trkpt lat="43.1226" lon="11.1434817"><ele>311.0</ele><time>2026-03-22T13:43:49.349Z</time></trkpt><trkpt lat="43.1224883" lon="11.14348"><ele>312.6</ele><time>2026-03-22T13:43:51.349Z</time></trkpt><trkpt lat="43.1223833" lon="11.1434833"><ele>314.20000000000005</ele><time>2026-03-22T13:43:53.35Z</time></trkpt><trkpt lat="43.122265" lon="11.143505"><ele>315.79999999999995</ele><time>2026-03-22T13:43:55.349Z</time></trkpt><trkpt lat="43.1222033" lon="11.1435367"><ele>317.4</ele><time>2026-03-22T13:43:56.35Z</time></trkpt><trkpt lat="43.1221433" lon="11.1435767"><ele>319.0</ele><time>2026-03-22T13:43:57.349Z</time></trkpt><trkpt lat="43.1220633" lon="11.1436467"><ele>319.0</ele><time>2026-03-22T13:43:59.35Z</time></trkpt><trkpt lat="43.1220067" lon="11.1437167"><ele>319.0</ele><time>2026-03-22T13:44:02.35Z</time></trkpt><trkpt lat="43.12194" lon="11.143775"><ele>319.0</ele><time>2026-03-22T13:44:04.35Z</time></trkpt><trkpt lat="43.1218633" lon="11.14378"><ele>319.0</ele><time>2026-03-22T13:44:07.35Z</time></trkpt><trkpt lat="43.121855" lon="11.143685"><ele>319.0</ele><time>2026-03-22T13:44:09.349Z</time></trkpt><trkpt lat="43.12188" lon="11.1435767"><ele>319.0</ele><time>2026-03-22T13:44:11.35Z</time></trkpt><trkpt lat="43.121835" lon="11.1434917"><ele>319.0</ele><time>2026-03-22T13:44:15.35Z</time></trkpt><trkpt lat="43.1217717" lon="11.1434333"><ele>319.0</ele><time>2026-03-22T13:44:18.349Z</time></trkpt><trkpt lat="43.1217033" lon="11.1433117"><ele>319.0</ele><time>2026-03-22T13:44:21.35Z</time></trkpt><trkpt lat="43.121645" lon="11.1432017"><ele>319.0</ele><time>2026-03-22T13:44:23.349Z</time></trkpt><trkpt lat="43.1215683" lon="11.14311"><ele>319.0</ele><time>2026-03-22T13:44:25.349Z</time></trkpt><trkpt lat="43.121515" lon="11.1430583"><ele>324.4</ele><time>2026-03-22T13:44:26.35Z</time></trkpt><trkpt lat="43.12146" lon="11.1429583"><ele>329.79999999999995</ele><time>2026-03-22T13:44:28.35Z</time></trkpt><trkpt lat="43.12144" lon="11.142825"><ele>335.20000000000005</ele><time>2026-03-22T13:44:30.35Z</time></trkpt><trkpt lat="43.1214217" lon="11.1426933"><ele>340.6</ele><time>2026-03-22T13:44:32.349Z</time></trkpt><trkpt lat="43.121425" lon="11.1425467"><ele>346.0</ele><time>2026-03-22T13:44:34.35Z</time></trkpt><trkpt lat="43.1214317" lon="11.1424383"><ele>346.5</ele><time>2026-03-22T13:44:36.35Z</time></trkpt><trkpt lat="43.1214333" lon="11.1423467"><ele>347.0</ele><time>2026-03-22T13:44:38.35Z</time></trkpt><trkpt lat="43.12142" lon="11.1422417"><ele>347.5</ele><time>2026-03-22T13:44:40.35Z</time></trkpt><trkpt lat="43.1214083" lon="11.1421433"><ele>348.0</ele><time>2026-03-22T13:44:42.35Z</time></trkpt><trkpt lat="43.12139" lon="11.142035"><ele>348.5</ele><time>2026-03-22T13:44:44.35Z</time></trkpt><trkpt lat="43.1213667" lon="11.1418867"><ele>349.0</ele><time>2026-03-22T13:44:46.35Z</time></trkpt><trkpt lat="43.1213417" lon="11.1417467"><ele>349.0</ele><time>2026-03-22T13:44:48.35Z</time></trkpt><trkpt lat="43.1213267" lon="11.1416417"><ele>349.0</ele><time>2026-03-22T13:44:50.35Z</time></trkpt><trkpt lat="43.1213183" lon="11.1415517"><ele>349.0</ele><time>2026-03-22T13:44:52.35Z</time></trkpt><trkpt lat="43.1212983" lon="11.14146"><ele>349.0</ele><time>2026-03-22T13:44:54.35Z</time></trkpt><trkpt lat="43.1212717" lon="11.1413517"><ele>349.0</ele><time>2026-03-22T13:44:56.349Z</time></trkpt><trkpt lat="43.1212517" lon="11.14123"><ele>349.0</ele><time>2026-03-22T13:44:58.35Z</time></trkpt><trkpt lat="43.12123" lon="11.141105"><ele>348.6</ele><time>2026-03-22T13:45:01.35Z</time></trkpt><trkpt lat="43.1212167" lon="11.1409733"><ele>348.2</ele><time>2026-03-22T13:45:03.35Z</time></trkpt><trkpt lat="43.1212317" lon="11.1407967"><ele>347.8</ele><time>2026-03-22T13:45:05.35Z</time></trkpt><trkpt lat="43.121235" lon="11.1406883"><ele>347.40000000000003</ele><time>2026-03-22T13:45:06.35Z</time></trkpt><trkpt lat="43.1212433" lon="11.1405467"><ele>347.0</ele><time>2026-03-22T13:45:08.35Z</time></trkpt><trkpt lat="43.12124" lon="11.14044"><ele>346.33333333333337</ele><time>2026-03-22T13:45:10.35Z</time></trkpt><trkpt lat="43.12123" lon="11.1403367"><ele>345.6666666666667</ele><time>2026-03-22T13:45:12.35Z</time></trkpt><trkpt lat="43.1212083" lon="11.1402417"><ele>345.0</ele><time>2026-03-22T13:45:14.35Z</time></trkpt><trkpt lat="43.1211817" lon="11.1401217"><ele>344.3333333333333</ele><time>2026-03-22T13:45:17.35Z</time></trkpt><trkpt lat="43.1211617" lon="11.1400067"><ele>343.66666666666663</ele><time>2026-03-22T13:45:20.35Z</time></trkpt><trkpt lat="43.121155" lon="11.1398867"><ele>343.0</ele><time>2026-03-22T13:45:23.349Z</time></trkpt><trkpt lat="43.121175" lon="11.1397917"><ele>343.0</ele><time>2026-03-22T13:45:26.349Z</time></trkpt><trkpt lat="43.12119" lon="11.1396983"><ele>343.0</ele><time>2026-03-22T13:45:28.35Z</time></trkpt><trkpt lat="43.1212167" lon="11.1395817"><ele>343.0</ele><time>2026-03-22T13:45:30.349Z</time></trkpt><trkpt lat="43.12123" lon="11.1394767"><ele>343.0</ele><time>2026-03-22T13:45:32.35Z</time></trkpt><trkpt lat="43.1212033" lon="11.139365"><ele>343.0</ele><time>2026-03-22T13:45:35.35Z</time></trkpt><trkpt lat="43.1211533" lon="11.13928"><ele>343.0</ele><time>2026-03-22T13:45:38.35Z</time></trkpt><trkpt lat="43.12109" lon="11.1391783"><ele>343.0</ele><time>2026-03-22T13:45:41.35Z</time></trkpt><trkpt lat="43.121065" lon="11.1390817"><ele>343.0</ele><time>2026-03-22T13:45:43.35Z</time></trkpt><trkpt lat="43.12105" lon="11.1389517"><ele>343.0</ele><time>2026-03-22T13:45:45.35Z</time></trkpt><trkpt lat="43.1210383" lon="11.1388317"><ele>343.0</ele><time>2026-03-22T13:45:47.35Z</time></trkpt><trkpt lat="43.12104" lon="11.13874"><ele>343.0</ele><time>2026-03-22T13:45:49.349Z</time></trkpt><trkpt lat="43.1210583" lon="11.1386483"><ele>343.0</ele><time>2026-03-22T13:45:51.35Z</time></trkpt><trkpt lat="43.1210733" lon="11.13855"><ele>342.7142857142857</ele><time>2026-03-22T13:45:53.35Z</time></trkpt><trkpt lat="43.1211117" lon="11.1384783"><ele>342.42857142857144</ele><time>2026-03-22T13:46:35.35Z</time></trkpt><trkpt lat="43.1211833" lon="11.138455"><ele>342.1428571428571</ele><time>2026-03-22T13:46:39.35Z</time></trkpt><trkpt lat="43.121265" lon="11.13846"><ele>341.8571428571429</ele><time>2026-03-22T13:46:43.35Z</time></trkpt><trkpt lat="43.12133" lon="11.1384617"><ele>341.57142857142856</ele><time>2026-03-22T13:46:45.35Z</time></trkpt><trkpt lat="43.1214033" lon="11.1384733"><ele>341.2857142857143</ele><time>2026-03-22T13:46:47.35Z</time></trkpt><trkpt lat="43.1214717" lon="11.1384933"><ele>341.0</ele><time>2026-03-22T13:46:50.35Z</time></trkpt><trkpt lat="43.121535" lon="11.1384817"><ele>341.0</ele><time>2026-03-22T13:47:05.35Z</time></trkpt><trkpt lat="43.12161" lon="11.138475"><ele>341.0</ele><time>2026-03-22T13:47:08.35Z</time></trkpt><trkpt lat="43.121695" lon="11.1384767"><ele>341.0</ele><time>2026-03-22T13:47:11.35Z</time></trkpt><trkpt lat="43.1217883" lon="11.1384867"><ele>341.0</ele><time>2026-03-22T13:47:14.35Z</time></trkpt><trkpt lat="43.1218633" lon="11.1385033"><ele>341.0</ele><time>2026-03-22T13:47:16.35Z</time></trkpt><trkpt lat="43.121945" lon="11.1385417"><ele>341.0</ele><time>2026-03-22T13:47:18.35Z</time></trkpt><trkpt lat="43.1220417" lon="11.13857"><ele>341.0</ele><time>2026-03-22T13:47:20.35Z</time></trkpt><trkpt lat="43.1221367" lon="11.13857"><ele>341.0</ele><time>2026-03-22T13:47:22.35Z</time></trkpt><trkpt lat="43.1222133" lon="11.1385267"><ele>341.0</ele><time>2026-03-22T13:47:25.349Z</time></trkpt><trkpt lat="43.1222917" lon="11.13848"><ele>341.0</ele><time>2026-03-22T13:47:28.35Z</time></trkpt><trkpt lat="43.122375" lon="11.138455"><ele>341.0</ele><time>2026-03-22T13:47:31.35Z</time></trkpt><trkpt lat="43.1224733" lon="11.1384183"><ele>341.1666666666667</ele><time>2026-03-22T13:47:34.35Z</time></trkpt><trkpt lat="43.1225367" lon="11.1383833"><ele>341.33333333333337</ele><time>2026-03-22T13:47:36.35Z</time></trkpt><trkpt lat="43.122595" lon="11.1383"><ele>341.5</ele><time>2026-03-22T13:47:41.35Z</time></trkpt><trkpt lat="43.12265" lon="11.1382117"><ele>341.6666666666667</ele><time>2026-03-22T13:47:44.35Z</time></trkpt><trkpt lat="43.1227083" lon="11.1381267"><ele>341.8333333333333</ele><time>2026-03-22T13:47:47.35Z</time></trkpt><trkpt lat="43.12277" lon="11.1380567"><ele>342.0</ele><time>2026-03-22T13:47:50.349Z</time></trkpt><trkpt lat="43.1228217" lon="11.138005"><ele>339.0</ele><time>2026-03-22T13:47:53.35Z</time></trkpt><trkpt lat="43.1228633" lon="11.1379383"><ele>336.0</ele><time>2026-03-22T13:47:56.35Z</time></trkpt><trkpt lat="43.1228983" lon="11.1378333"><ele>333.0</ele><time>2026-03-22T13:47:59.35Z</time></trkpt><trkpt lat="43.1229333" lon="11.137715"><ele>330.0</ele><time>2026-03-22T13:48:15.349Z</time></trkpt><trkpt lat="43.1229483" lon="11.137605"><ele>327.0</ele><time>2026-03-22T13:48:19.35Z</time></trkpt><trkpt lat="43.1229783" lon="11.1375017"><ele>324.0</ele><time>2026-03-22T13:49:28.35Z</time></trkpt><trkpt lat="43.1230667" lon="11.1374317"><ele>323.8333333333333</ele><time>2026-03-22T13:49:36.35Z</time></trkpt><trkpt lat="43.1231217" lon="11.1373817"><ele>323.6666666666667</ele><time>2026-03-22T13:49:39.35Z</time></trkpt><trkpt lat="43.1232017" lon="11.1373383"><ele>323.5</ele><time>2026-03-22T13:49:42.349Z</time></trkpt><trkpt lat="43.123235" lon="11.1372483"><ele>323.33333333333337</ele><time>2026-03-22T13:49:55.349Z</time></trkpt><trkpt lat="43.123235" lon="11.137145"><ele>323.1666666666667</ele><time>2026-03-22T13:50:00.35Z</time></trkpt><trkpt lat="43.1232267" lon="11.13703"><ele>323.0</ele><time>2026-03-22T13:50:03.35Z</time></trkpt><trkpt lat="43.1232433" lon="11.13693"><ele>323.0</ele><time>2026-03-22T13:50:06.35Z</time></trkpt><trkpt lat="43.12315" lon="11.1369133"><ele>323.0</ele><time>2026-03-22T13:50:48.35Z</time></trkpt><trkpt lat="43.1230833" lon="11.13694"><ele>323.0</ele><time>2026-03-22T13:50:50.35Z</time></trkpt><trkpt lat="43.1230067" lon="11.1369767"><ele>323.0</ele><time>2026-03-22T13:50:53.35Z</time></trkpt><trkpt lat="43.122945" lon="11.1370017"><ele>323.0</ele><time>2026-03-22T13:50:55.35Z</time></trkpt><trkpt lat="43.1228683" lon="11.1370383"><ele>323.0</ele><time>2026-03-22T13:50:58.35Z</time></trkpt><trkpt lat="43.1228033" lon="11.137065"><ele>323.0</ele><time>2026-03-22T13:51:02.35Z</time></trkpt><trkpt lat="43.1227417" lon="11.13709"><ele>323.0</ele><time>2026-03-22T13:51:08.35Z</time></trkpt><trkpt lat="43.122665" lon="11.1371167"><ele>323.0</ele><time>2026-03-22T13:51:13.349Z</time></trkpt><trkpt lat="43.1226033" lon="11.1371517"><ele>323.0</ele><time>2026-03-22T13:51:17.35Z</time></trkpt><trkpt lat="43.1225267" lon="11.13717"><ele>323.0</ele><time>2026-03-22T13:51:21.349Z</time></trkpt><trkpt lat="43.1224483" lon="11.1372033"><ele>323.0</ele><time>2026-03-22T13:51:25.349Z</time></trkpt><trkpt lat="43.122365" lon="11.1372383"><ele>323.4</ele><time>2026-03-22T13:51:28.35Z</time></trkpt><trkpt lat="43.12229" lon="11.1372567"><ele>323.79999999999995</ele><time>2026-03-22T13:51:30.349Z</time></trkpt><trkpt lat="43.1222" lon="11.13729"><ele>324.2</ele><time>2026-03-22T13:51:32.35Z</time></trkpt><trkpt lat="43.1221" lon="11.1373217"><ele>324.6</ele><time>2026-03-22T13:51:34.35Z</time></trkpt><trkpt lat="43.1219917" lon="11.1373483"><ele>325.0</ele><time>2026-03-22T13:51:36.349Z</time></trkpt><trkpt lat="43.121885" lon="11.137375"><ele>325.0</ele><time>2026-03-22T13:51:38.35Z</time></trkpt><trkpt lat="43.1217967" lon="11.1373667"><ele>325.0</ele><time>2026-03-22T13:51:40.349Z</time></trkpt><trkpt lat="43.1217067" lon="11.1373383"><ele>325.0</ele><time>2026-03-22T13:51:42.35Z</time></trkpt><trkpt lat="43.1215933" lon="11.1372667"><ele>325.0</ele><time>2026-03-22T13:51:44.35Z</time></trkpt><trkpt lat="43.1215317" lon="11.1372317"><ele>325.0</ele><time>2026-03-22T13:51:45.349Z</time></trkpt><trkpt lat="43.12143" lon="11.13719"><ele>325.66666666666663</ele><time>2026-03-22T13:51:47.35Z</time></trkpt><trkpt lat="43.1213333" lon="11.137185"><ele>326.3333333333333</ele><time>2026-03-22T13:51:49.349Z</time></trkpt><trkpt lat="43.1212667" lon="11.1372467"><ele>327.0</ele><time>2026-03-22T13:51:51.35Z</time></trkpt><trkpt lat="43.1212233" lon="11.137315"><ele>327.6666666666667</ele><time>2026-03-22T13:51:53.35Z</time></trkpt><trkpt lat="43.1212217" lon="11.1372067"><ele>328.33333333333337</ele><time>2026-03-22T13:52:51.35Z</time></trkpt><trkpt lat="43.1211967" lon="11.1371033"><ele>329.0</ele><time>2026-03-22T13:52:53.35Z</time></trkpt><trkpt lat="43.1211567" lon="11.1370133"><ele>329.0</ele><time>2026-03-22T13:52:55.349Z</time></trkpt><trkpt lat="43.1211267" lon="11.13692"><ele>329.0</ele><time>2026-03-22T13:52:57.35Z</time></trkpt><trkpt lat="43.12109" lon="11.1368367"><ele>329.0</ele><time>2026-03-22T13:52:59.349Z</time></trkpt><trkpt lat="43.121045" lon="11.1367433"><ele>329.0</ele><time>2026-03-22T13:53:01.35Z</time></trkpt><trkpt lat="43.1210033" lon="11.1366333"><ele>329.0</ele><time>2026-03-22T13:53:03.349Z</time></trkpt><trkpt lat="43.120965" lon="11.1365317"><ele>329.0</ele><time>2026-03-22T13:53:05.349Z</time></trkpt><trkpt lat="43.1209983" lon="11.1366367"><ele>329.0</ele><time>2026-03-22T13:53:57.349Z</time></trkpt><trkpt lat="43.121045" lon="11.13676"><ele>329.0</ele><time>2026-03-22T13:53:59.35Z</time></trkpt><trkpt lat="43.1210867" lon="11.13685"><ele>329.0</ele><time>2026-03-22T13:54:00.35Z</time></trkpt><trkpt lat="43.121135" lon="11.13695"><ele>329.0</ele><time>2026-03-22T13:54:01.35Z</time></trkpt><trkpt lat="43.121185" lon="11.1370567"><ele>329.0</ele><time>2026-03-22T13:54:02.349Z</time></trkpt><trkpt lat="43.12123" lon="11.1371517"><ele>329.0</ele><time>2026-03-22T13:54:03.349Z</time></trkpt><trkpt lat="43.1212617" lon="11.1372267"><ele>329.0</ele><time>2026-03-22T13:54:04.35Z</time></trkpt><trkpt lat="43.1212383" lon="11.137335"><ele>329.0</ele><time>2026-03-22T13:54:07.35Z</time></trkpt><trkpt lat="43.12116" lon="11.1373933"><ele>329.0</ele><time>2026-03-22T13:54:10.35Z</time></trkpt><trkpt lat="43.1211167" lon="11.13749"><ele>329.0</ele><time>2026-03-22T13:54:12.35Z</time></trkpt><trkpt lat="43.121065" lon="11.1376317"><ele>329.0</ele><time>2026-03-22T13:54:14.35Z</time></trkpt><trkpt lat="43.121005" lon="11.1377317"><ele>330.0</ele><time>2026-03-22T13:54:16.349Z</time></trkpt><trkpt lat="43.1209533" lon="11.1377833"><ele>331.0</ele><time>2026-03-22T13:54:18.35Z</time></trkpt><trkpt lat="43.1208617" lon="11.1378417"><ele>332.0</ele><time>2026-03-22T13:54:20.35Z</time></trkpt><trkpt lat="43.12077" lon="11.13792"><ele>333.0</ele><time>2026-03-22T13:54:22.349Z</time></trkpt><trkpt lat="43.120705" lon="11.1380433"><ele>334.0</ele><time>2026-03-22T13:54:24.35Z</time></trkpt><trkpt lat="43.1206617" lon="11.1381817"><ele>335.5</ele><time>2026-03-22T13:54:26.35Z</time></trkpt><trkpt lat="43.1206317" lon="11.138265"><ele>337.0</ele><time>2026-03-22T13:54:27.35Z</time></trkpt><trkpt lat="43.1205933" lon="11.1383933"><ele>338.5</ele><time>2026-03-22T13:54:29.35Z</time></trkpt><trkpt lat="43.1205717" lon="11.13849"><ele>340.0</ele><time>2026-03-22T13:55:20.35Z</time></trkpt><trkpt lat="43.120505" lon="11.13854"><ele>341.5</ele><time>2026-03-22T13:55:23.349Z</time></trkpt><trkpt lat="43.120395" lon="11.1386083"><ele>343.0</ele><time>2026-03-22T13:55:25.35Z</time></trkpt><trkpt lat="43.1203167" lon="11.1386467"><ele>343.0</ele><time>2026-03-22T13:55:26.349Z</time></trkpt><trkpt lat="43.120235" lon="11.1386783"><ele>343.0</ele><time>2026-03-22T13:55:27.35Z</time></trkpt><trkpt lat="43.1201433" lon="11.1387183"><ele>343.0</ele><time>2026-03-22T13:55:28.349Z</time></trkpt><trkpt lat="43.120055" lon="11.1387583"><ele>343.0</ele><time>2026-03-22T13:55:29.35Z</time></trkpt><trkpt lat="43.1199667" lon="11.1388067"><ele>343.0</ele><time>2026-03-22T13:55:30.349Z</time></trkpt><trkpt lat="43.11988" lon="11.1388483"><ele>344.0</ele><time>2026-03-22T13:55:31.35Z</time></trkpt><trkpt lat="43.1197933" lon="11.1388817"><ele>345.0</ele><time>2026-03-22T13:55:32.35Z</time></trkpt><trkpt lat="43.1197083" lon="11.1389117"><ele>346.0</ele><time>2026-03-22T13:55:33.35Z</time></trkpt><trkpt lat="43.11964" lon="11.138935"><ele>347.0</ele><time>2026-03-22T13:55:34.349Z</time></trkpt><trkpt lat="43.1195713" lon="11.1389547"><ele>348.0</ele><time>2026-03-22T13:55:35.35Z</time></trkpt><trkpt lat="43.119466" lon="11.1390063"><ele>349.0</ele><time>2026-03-22T13:55:37.349Z</time></trkpt><trkpt lat="43.1193752" lon="11.1391062"><ele>349.5</ele><time>2026-03-22T13:55:39.35Z</time></trkpt><trkpt lat="43.1193167" lon="11.139165"><ele>350.0</ele><time>2026-03-22T13:55:40.35Z</time></trkpt><trkpt lat="43.1192505" lon="11.1392129"><ele>350.5</ele><time>2026-03-22T13:55:41.35Z</time></trkpt><trkpt lat="43.119164" lon="11.1392652"><ele>351.0</ele><time>2026-03-22T13:55:43.349Z</time></trkpt><trkpt lat="43.1191121" lon="11.1393418"><ele>351.5</ele><time>2026-03-22T13:55:46.349Z</time></trkpt><trkpt lat="43.1190742" lon="11.1394288"><ele>352.0</ele><time>2026-03-22T13:55:48.35Z</time></trkpt><trkpt lat="43.1190126" lon="11.1395292"><ele>353.8</ele><time>2026-03-22T13:55:50.35Z</time></trkpt><trkpt lat="43.1189357" lon="11.1396364"><ele>355.6</ele><time>2026-03-22T13:55:52.349Z</time></trkpt><trkpt lat="43.1188831" lon="11.1396956"><ele>357.40000000000003</ele><time>2026-03-22T13:55:54.35Z</time></trkpt><trkpt lat="43.118827" lon="11.1397673"><ele>359.20000000000005</ele><time>2026-03-22T13:55:56.35Z</time></trkpt><trkpt lat="43.1187499" lon="11.1398485"><ele>361.0</ele><time>2026-03-22T13:55:58.35Z</time></trkpt><trkpt lat="43.1186359" lon="11.1398756"><ele>361.0</ele><time>2026-03-22T13:56:00.35Z</time></trkpt><trkpt lat="43.1185723" lon="11.1398793"><ele>361.0</ele><time>2026-03-22T13:56:01.349Z</time></trkpt><trkpt lat="43.118465" lon="11.1399191"><ele>361.0</ele><time>2026-03-22T13:56:03.35Z</time></trkpt><trkpt lat="43.1183614" lon="11.139964"><ele>361.0</ele><time>2026-03-22T13:56:05.35Z</time></trkpt><trkpt lat="43.1182967" lon="11.1399845"><ele>361.0</ele><time>2026-03-22T13:56:06.35Z</time></trkpt><trkpt lat="43.1182278" lon="11.1400045"><ele>361.0</ele><time>2026-03-22T13:56:07.35Z</time></trkpt><trkpt lat="43.1181633" lon="11.1400319"><ele>361.66666666666663</ele><time>2026-03-22T13:56:08.35Z</time></trkpt><trkpt lat="43.1180996" lon="11.1400662"><ele>362.3333333333333</ele><time>2026-03-22T13:56:09.35Z</time></trkpt><trkpt lat="43.1180295" lon="11.1401093"><ele>363.0</ele><time>2026-03-22T13:56:10.35Z</time></trkpt><trkpt lat="43.1179682" lon="11.1401546"><ele>363.6666666666667</ele><time>2026-03-22T13:56:11.349Z</time></trkpt><trkpt lat="43.1179128" lon="11.1402037"><ele>364.33333333333337</ele><time>2026-03-22T13:56:12.35Z</time></trkpt><trkpt lat="43.1178511" lon="11.1402342"><ele>365.0</ele><time>2026-03-22T13:56:13.35Z</time></trkpt><trkpt lat="43.1177408" lon="11.1402447"><ele>365.0</ele><time>2026-03-22T13:56:15.35Z</time></trkpt><trkpt lat="43.1176263" lon="11.140212"><ele>365.0</ele><time>2026-03-22T13:56:17.35Z</time></trkpt><trkpt lat="43.1175585" lon="11.1401624"><ele>365.0</ele><time>2026-03-22T13:56:19.35Z</time></trkpt><trkpt lat="43.1174907" lon="11.1401077"><ele>365.0</ele><time>2026-03-22T13:56:22.349Z</time></trkpt><trkpt lat="43.1174413" lon="11.1400469"><ele>365.0</ele><time>2026-03-22T13:56:25.349Z</time></trkpt><trkpt lat="43.1173852" lon="11.1399798"><ele>365.0</ele><time>2026-03-22T13:56:29.35Z</time></trkpt><trkpt lat="43.1173343" lon="11.1399257"><ele>366.1666666666667</ele><time>2026-03-22T13:56:33.35Z</time></trkpt><trkpt lat="43.1172719" lon="11.1398561"><ele>367.33333333333337</ele><time>2026-03-22T13:56:36.35Z</time></trkpt><trkpt lat="43.1172273" lon="11.1397874"><ele>368.5</ele><time>2026-03-22T13:56:39.35Z</time></trkpt><trkpt lat="43.117175" lon="11.1397333"><ele>369.6666666666667</ele><time>2026-03-22T13:56:42.349Z</time></trkpt><trkpt lat="43.1171033" lon="11.139675"><ele>370.8333333333333</ele><time>2026-03-22T13:56:45.35Z</time></trkpt><trkpt lat="43.1170383" lon="11.1396133"><ele>372.0</ele><time>2026-03-22T13:56:50.35Z</time></trkpt><trkpt lat="43.1169683" lon="11.13953"><ele>372.0</ele><time>2026-03-22T13:56:53.35Z</time></trkpt><trkpt lat="43.1168933" lon="11.1394483"><ele>372.0</ele><time>2026-03-22T13:56:55.35Z</time></trkpt><trkpt lat="43.1167883" lon="11.1393783"><ele>372.0</ele><time>2026-03-22T13:56:57.349Z</time></trkpt><trkpt lat="43.11666" lon="11.1393583"><ele>372.0</ele><time>2026-03-22T13:56:59.349Z</time></trkpt><trkpt lat="43.1165867" lon="11.1393517"><ele>372.0</ele><time>2026-03-22T13:57:00.35Z</time></trkpt><trkpt lat="43.1165067" lon="11.13935"><ele>371.8333333333333</ele><time>2026-03-22T13:57:01.349Z</time></trkpt><trkpt lat="43.1164217" lon="11.1393533"><ele>371.6666666666667</ele><time>2026-03-22T13:57:02.35Z</time></trkpt><trkpt lat="43.1163483" lon="11.1393567"><ele>371.5</ele><time>2026-03-22T13:57:03.35Z</time></trkpt><trkpt lat="43.1162483" lon="11.1393367"><ele>371.33333333333337</ele><time>2026-03-22T13:57:05.349Z</time></trkpt><trkpt lat="43.1162233" lon="11.139255"><ele>371.1666666666667</ele><time>2026-03-22T14:00:30.349Z</time></trkpt><trkpt lat="43.1161467" lon="11.1392067"><ele>371.0</ele><time>2026-03-22T14:00:33.35Z</time></trkpt><trkpt lat="43.1160733" lon="11.1391633"><ele>371.0</ele><time>2026-03-22T14:00:36.349Z</time></trkpt><trkpt lat="43.1160117" lon="11.13914"><ele>371.0</ele><time>2026-03-22T14:00:38.349Z</time></trkpt><trkpt lat="43.1159183" lon="11.139135"><ele>371.0</ele><time>2026-03-22T14:00:41.35Z</time></trkpt><trkpt lat="43.11583" lon="11.139155"><ele>371.0</ele><time>2026-03-22T14:00:43.349Z</time></trkpt><trkpt lat="43.1157667" lon="11.13918"><ele>371.0</ele><time>2026-03-22T14:00:44.35Z</time></trkpt><trkpt lat="43.115695" lon="11.13921"><ele>371.0</ele><time>2026-03-22T14:00:45.35Z</time></trkpt><trkpt lat="43.1156167" lon="11.1392417"><ele>369.33333333333337</ele><time>2026-03-22T14:00:46.349Z</time></trkpt><trkpt lat="43.1155317" lon="11.13925"><ele>367.6666666666667</ele><time>2026-03-22T14:00:47.35Z</time></trkpt><trkpt lat="43.1154483" lon="11.13926"><ele>366.0</ele><time>2026-03-22T14:00:48.35Z</time></trkpt><trkpt lat="43.1153817" lon="11.1392633"><ele>364.3333333333333</ele><time>2026-03-22T14:00:49.35Z</time></trkpt><trkpt lat="43.115305" lon="11.1392633"><ele>362.66666666666663</ele><time>2026-03-22T14:00:51.35Z</time></trkpt><trkpt lat="43.115235" lon="11.1392567"><ele>361.0</ele><time>2026-03-22T14:01:02.35Z</time></trkpt><trkpt lat="43.1151283" lon="11.1392633"><ele>361.0</ele><time>2026-03-22T14:01:04.35Z</time></trkpt><trkpt lat="43.1150617" lon="11.1392617"><ele>361.0</ele><time>2026-03-22T14:01:05.35Z</time></trkpt><trkpt lat="43.1149917" lon="11.139255"><ele>361.0</ele><time>2026-03-22T14:01:06.349Z</time></trkpt><trkpt lat="43.1148767" lon="11.139255"><ele>361.0</ele><time>2026-03-22T14:01:08.35Z</time></trkpt><trkpt lat="43.1147533" lon="11.13923"><ele>361.0</ele><time>2026-03-22T14:01:10.349Z</time></trkpt><trkpt lat="43.1146617" lon="11.1392033"><ele>359.4</ele><time>2026-03-22T14:01:12.35Z</time></trkpt><trkpt lat="43.1145683" lon="11.13917"><ele>357.8</ele><time>2026-03-22T14:01:14.35Z</time></trkpt><trkpt lat="43.11447" lon="11.1391517"><ele>356.2</ele><time>2026-03-22T14:01:16.35Z</time></trkpt><trkpt lat="43.1143783" lon="11.1391167"><ele>354.59999999999997</ele><time>2026-03-22T14:01:18.35Z</time></trkpt><trkpt lat="43.11429" lon="11.1390533"><ele>353.0</ele><time>2026-03-22T14:01:20.349Z</time></trkpt><trkpt lat="43.114225" lon="11.1390067"><ele>353.0</ele><time>2026-03-22T14:01:22.35Z</time></trkpt><trkpt lat="43.1141633" lon="11.1390283"><ele>353.0</ele><time>2026-03-22T14:02:02.35Z</time></trkpt><trkpt lat="43.1140983" lon="11.1390867"><ele>353.0</ele><time>2026-03-22T14:02:04.35Z</time></trkpt><trkpt lat="43.11401" lon="11.139115"><ele>353.0</ele><time>2026-03-22T14:02:06.35Z</time></trkpt><trkpt lat="43.1139167" lon="11.1391267"><ele>353.0</ele><time>2026-03-22T14:02:08.35Z</time></trkpt><trkpt lat="43.11385" lon="11.1391417"><ele>353.0</ele><time>2026-03-22T14:02:10.35Z</time></trkpt><trkpt lat="43.11378" lon="11.139155"><ele>352.2</ele><time>2026-03-22T14:02:12.35Z</time></trkpt><trkpt lat="43.1137017" lon="11.1391617"><ele>351.4</ele><time>2026-03-22T14:02:15.35Z</time></trkpt><trkpt lat="43.1135933" lon="11.1391683"><ele>350.59999999999997</ele><time>2026-03-22T14:02:23.35Z</time></trkpt><trkpt lat="43.1135117" lon="11.1391383"><ele>349.79999999999995</ele><time>2026-03-22T14:02:26.35Z</time></trkpt><trkpt lat="43.113415" lon="11.139085"><ele>349.0</ele><time>2026-03-22T14:02:32.349Z</time></trkpt><trkpt lat="43.1133517" lon="11.13903"><ele>348.8333333333333</ele><time>2026-03-22T14:02:34.35Z</time></trkpt><trkpt lat="43.113285" lon="11.1389167"><ele>348.66666666666663</ele><time>2026-03-22T14:02:36.35Z</time></trkpt><trkpt lat="43.113235" lon="11.138835"><ele>348.5</ele><time>2026-03-22T14:02:38.35Z</time></trkpt><trkpt lat="43.113195" lon="11.1387667"><ele>348.3333333333333</ele><time>2026-03-22T14:02:40.35Z</time></trkpt><trkpt lat="43.1131467" lon="11.13871"><ele>348.1666666666667</ele><time>2026-03-22T14:02:43.35Z</time></trkpt><trkpt lat="43.1130633" lon="11.1386983"><ele>348.0</ele><time>2026-03-22T14:02:46.349Z</time></trkpt><trkpt lat="43.1129533" lon="11.1387117"><ele>349.1428571428571</ele><time>2026-03-22T14:02:48.35Z</time></trkpt><trkpt lat="43.112885" lon="11.1387167"><ele>350.2857142857143</ele><time>2026-03-22T14:02:49.35Z</time></trkpt><trkpt lat="43.1128183" lon="11.13871"><ele>351.42857142857144</ele><time>2026-03-22T14:02:50.35Z</time></trkpt><trkpt lat="43.11275" lon="11.1386883"><ele>352.57142857142856</ele><time>2026-03-22T14:02:51.35Z</time></trkpt><trkpt lat="43.112685" lon="11.138665"><ele>353.7142857142857</ele><time>2026-03-22T14:02:52.35Z</time></trkpt><trkpt lat="43.11262" lon="11.1386533"><ele>354.85714285714283</ele><time>2026-03-22T14:02:53.35Z</time></trkpt><trkpt lat="43.1125467" lon="11.1386517"><ele>356.0</ele><time>2026-03-22T14:02:54.35Z</time></trkpt><trkpt lat="43.11248" lon="11.138655"><ele>356.0</ele><time>2026-03-22T14:02:55.35Z</time></trkpt><trkpt lat="43.1124183" lon="11.1386917"><ele>356.0</ele><time>2026-03-22T14:02:56.35Z</time></trkpt><trkpt lat="43.112325" lon="11.1387783"><ele>356.0</ele><time>2026-03-22T14:02:58.35Z</time></trkpt><trkpt lat="43.11221" lon="11.1387967"><ele>356.0</ele><time>2026-03-22T14:03:00.35Z</time></trkpt><trkpt lat="43.1121417" lon="11.1387817"><ele>356.0</ele><time>2026-03-22T14:03:01.35Z</time></trkpt><trkpt lat="43.1120717" lon="11.1387617"><ele>356.0</ele><time>2026-03-22T14:03:02.35Z</time></trkpt><trkpt lat="43.1120067" lon="11.138755"><ele>357.1666666666667</ele><time>2026-03-22T14:03:03.35Z</time></trkpt><trkpt lat="43.1118867" lon="11.13878"><ele>358.33333333333337</ele><time>2026-03-22T14:03:05.35Z</time></trkpt><trkpt lat="43.1118167" lon="11.13878"><ele>359.5</ele><time>2026-03-22T14:03:06.35Z</time></trkpt><trkpt lat="43.1117367" lon="11.138775"><ele>360.6666666666667</ele><time>2026-03-22T14:03:07.35Z</time></trkpt><trkpt lat="43.1116617" lon="11.1387617"><ele>361.8333333333333</ele><time>2026-03-22T14:03:08.35Z</time></trkpt><trkpt lat="43.1115967" lon="11.1387633"><ele>363.0</ele><time>2026-03-22T14:03:09.35Z</time></trkpt><trkpt lat="43.1114917" lon="11.1387983"><ele>363.3333333333333</ele><time>2026-03-22T14:03:11.35Z</time></trkpt><trkpt lat="43.1113883" lon="11.1389083"><ele>363.6666666666667</ele><time>2026-03-22T14:03:13.35Z</time></trkpt><trkpt lat="43.1113333" lon="11.1389817"><ele>364.0</ele><time>2026-03-22T14:03:14.35Z</time></trkpt><trkpt lat="43.11128" lon="11.1390533"><ele>364.33333333333337</ele><time>2026-03-22T14:03:15.35Z</time></trkpt><trkpt lat="43.1112233" lon="11.1391033"><ele>364.6666666666667</ele><time>2026-03-22T14:03:16.35Z</time></trkpt><trkpt lat="43.11115" lon="11.1391583"><ele>365.0</ele><time>2026-03-22T14:03:17.35Z</time></trkpt><trkpt lat="43.1110583" lon="11.1392217"><ele>364.5</ele><time>2026-03-22T14:03:18.35Z</time></trkpt><trkpt lat="43.11096" lon="11.1393"><ele>364.0</ele><time>2026-03-22T14:03:19.349Z</time></trkpt><trkpt lat="43.1108767" lon="11.1393833"><ele>363.5</ele><time>2026-03-22T14:03:20.348Z</time></trkpt><trkpt lat="43.1108033" lon="11.1394483"><ele>363.0</ele><time>2026-03-22T14:03:21.348Z</time></trkpt><trkpt lat="43.1107483" lon="11.1394917"><ele>362.5</ele><time>2026-03-22T14:03:22.349Z</time></trkpt><trkpt lat="43.1106917" lon="11.13954"><ele>362.0</ele><time>2026-03-22T14:03:23.349Z</time></trkpt><trkpt lat="43.1106033" lon="11.1396567"><ele>362.0</ele><time>2026-03-22T14:03:25.349Z</time></trkpt><trkpt lat="43.110555" lon="11.13975"><ele>362.0</ele><time>2026-03-22T14:03:27.349Z</time></trkpt><trkpt lat="43.1104917" lon="11.1398183"><ele>362.0</ele><time>2026-03-22T14:03:29.349Z</time></trkpt><trkpt lat="43.11043" lon="11.1398733"><ele>362.0</ele><time>2026-03-22T14:03:32.348Z</time></trkpt><trkpt lat="43.1103767" lon="11.1399283"><ele>362.0</ele><time>2026-03-22T14:03:36.349Z</time></trkpt><trkpt lat="43.1103433" lon="11.1400333"><ele>362.0</ele><time>2026-03-22T14:03:40.348Z</time></trkpt><trkpt lat="43.110265" lon="11.1401333"><ele>362.33333333333337</ele><time>2026-03-22T14:03:42.349Z</time></trkpt><trkpt lat="43.1102133" lon="11.1401833"><ele>362.6666666666667</ele><time>2026-03-22T14:03:43.349Z</time></trkpt><trkpt lat="43.1101617" lon="11.140235"><ele>363.0</ele><time>2026-03-22T14:03:44.349Z</time></trkpt><trkpt lat="43.1100933" lon="11.1403417"><ele>363.3333333333333</ele><time>2026-03-22T14:03:46.348Z</time></trkpt><trkpt lat="43.1100533" lon="11.1404333"><ele>363.66666666666663</ele><time>2026-03-22T14:03:48.349Z</time></trkpt><trkpt lat="43.10999" lon="11.1405133"><ele>364.0</ele><time>2026-03-22T14:03:50.349Z</time></trkpt><trkpt lat="43.1098633" lon="11.1405733"><ele>362.8333333333333</ele><time>2026-03-22T14:03:52.348Z</time></trkpt><trkpt lat="43.1097983" lon="11.1406033"><ele>361.66666666666663</ele><time>2026-03-22T14:03:53.349Z</time></trkpt><trkpt lat="43.1097367" lon="11.1406433"><ele>360.5</ele><time>2026-03-22T14:03:54.349Z</time></trkpt><trkpt lat="43.1096617" lon="11.140735"><ele>359.3333333333333</ele><time>2026-03-22T14:03:56.348Z</time></trkpt><trkpt lat="43.1096117" lon="11.1408383"><ele>358.1666666666667</ele><time>2026-03-22T14:03:58.348Z</time></trkpt><trkpt lat="43.1095567" lon="11.14089"><ele>357.0</ele><time>2026-03-22T14:04:00.349Z</time></trkpt><trkpt lat="43.1094683" lon="11.1409633"><ele>357.0</ele><time>2026-03-22T14:04:03.349Z</time></trkpt><trkpt lat="43.1093867" lon="11.1410183"><ele>357.0</ele><time>2026-03-22T14:04:05.349Z</time></trkpt><trkpt lat="43.1093183" lon="11.1410367"><ele>357.0</ele><time>2026-03-22T14:04:07.349Z</time></trkpt><trkpt lat="43.109255" lon="11.1409883"><ele>357.0</ele><time>2026-03-22T14:04:14.349Z</time></trkpt><trkpt lat="43.1091983" lon="11.1409083"><ele>357.0</ele><time>2026-03-22T14:04:16.349Z</time></trkpt><trkpt lat="43.109105" lon="11.140765"><ele>357.3333333333333</ele><time>2026-03-22T14:04:18.349Z</time></trkpt><trkpt lat="43.1090583" lon="11.14066"><ele>357.6666666666667</ele><time>2026-03-22T14:04:19.349Z</time></trkpt><trkpt lat="43.1090067" lon="11.1405633"><ele>358.0</ele><time>2026-03-22T14:04:20.349Z</time></trkpt><trkpt lat="43.1089567" lon="11.1404783"><ele>358.33333333333337</ele><time>2026-03-22T14:04:21.349Z</time></trkpt><trkpt lat="43.1088867" lon="11.1403967"><ele>358.6666666666667</ele><time>2026-03-22T14:04:22.348Z</time></trkpt><trkpt lat="43.1088067" lon="11.14032"><ele>359.0</ele><time>2026-03-22T14:04:23.349Z</time></trkpt><trkpt lat="43.1087183" lon="11.1402417"><ele>359.0</ele><time>2026-03-22T14:04:24.349Z</time></trkpt><trkpt lat="43.1086383" lon="11.1401683"><ele>359.0</ele><time>2026-03-22T14:04:25.348Z</time></trkpt><trkpt lat="43.1085683" lon="11.1400917"><ele>359.0</ele><time>2026-03-22T14:04:26.349Z</time></trkpt><trkpt lat="43.1085083" lon="11.1400217"><ele>359.0</ele><time>2026-03-22T14:04:27.348Z</time></trkpt><trkpt lat="43.1084133" lon="11.139925"><ele>359.0</ele><time>2026-03-22T14:04:29.348Z</time></trkpt><trkpt lat="43.1083333" lon="11.1398433"><ele>359.2</ele><time>2026-03-22T14:04:31.349Z</time></trkpt><trkpt lat="43.1082433" lon="11.1397267"><ele>359.4</ele><time>2026-03-22T14:04:33.349Z</time></trkpt><trkpt lat="43.1082067" lon="11.139645"><ele>359.6</ele><time>2026-03-22T14:04:35.349Z</time></trkpt><trkpt lat="43.1082083" lon="11.139545"><ele>359.8</ele><time>2026-03-22T14:04:37.349Z</time></trkpt><trkpt lat="43.1082167" lon="11.1393767"><ele>360.0</ele><time>2026-03-22T14:04:39.349Z</time></trkpt><trkpt lat="43.10822" lon="11.1392867"><ele>360.3333333333333</ele><time>2026-03-22T14:04:40.348Z</time></trkpt><trkpt lat="43.1081933" lon="11.1391833"><ele>360.6666666666667</ele><time>2026-03-22T14:04:41.349Z</time></trkpt><trkpt lat="43.1081567" lon="11.139075"><ele>361.0</ele><time>2026-03-22T14:04:42.349Z</time></trkpt><trkpt lat="43.1081033" lon="11.1389767"><ele>361.33333333333337</ele><time>2026-03-22T14:04:43.349Z</time></trkpt><trkpt lat="43.10805" lon="11.1389033"><ele>361.6666666666667</ele><time>2026-03-22T14:04:44.348Z</time></trkpt><trkpt lat="43.1079967" lon="11.1388533"><ele>362.0</ele><time>2026-03-22T14:04:45.349Z</time></trkpt><trkpt lat="43.1079217" lon="11.1388233"><ele>362.0</ele><time>2026-03-22T14:04:54.349Z</time></trkpt><trkpt lat="43.10784" lon="11.1388017"><ele>362.0</ele><time>2026-03-22T14:04:55.349Z</time></trkpt><trkpt lat="43.1077467" lon="11.1387767"><ele>362.0</ele><time>2026-03-22T14:04:56.348Z</time></trkpt><trkpt lat="43.1076467" lon="11.138735"><ele>362.0</ele><time>2026-03-22T14:04:57.349Z</time></trkpt><trkpt lat="43.107545" lon="11.1386967"><ele>362.0</ele><time>2026-03-22T14:04:58.349Z</time></trkpt><trkpt lat="43.10745" lon="11.1386517"><ele>362.1666666666667</ele><time>2026-03-22T14:04:59.349Z</time></trkpt><trkpt lat="43.1073533" lon="11.1386183"><ele>362.33333333333337</ele><time>2026-03-22T14:05:00.349Z</time></trkpt><trkpt lat="43.1072783" lon="11.138605"><ele>362.5</ele><time>2026-03-22T14:05:01.349Z</time></trkpt><trkpt lat="43.1072067" lon="11.1386117"><ele>362.6666666666667</ele><time>2026-03-22T14:05:02.348Z</time></trkpt><trkpt lat="43.1071267" lon="11.13862"><ele>362.8333333333333</ele><time>2026-03-22T14:05:03.349Z</time></trkpt><trkpt lat="43.10705" lon="11.1386267"><ele>363.0</ele><time>2026-03-22T14:05:04.349Z</time></trkpt><trkpt lat="43.106955" lon="11.13863"><ele>363.0</ele><time>2026-03-22T14:05:05.348Z</time></trkpt><trkpt lat="43.1068583" lon="11.1386367"><ele>363.0</ele><time>2026-03-22T14:05:06.348Z</time></trkpt><trkpt lat="43.1067467" lon="11.13865"><ele>363.0</ele><time>2026-03-22T14:05:07.349Z</time></trkpt><trkpt lat="43.1066267" lon="11.1386617"><ele>363.0</ele><time>2026-03-22T14:05:08.349Z</time></trkpt><trkpt lat="43.1065083" lon="11.1386633"><ele>363.0</ele><time>2026-03-22T14:05:09.349Z</time></trkpt><trkpt lat="43.1064017" lon="11.13866"><ele>364.0</ele><time>2026-03-22T14:05:10.349Z</time></trkpt><trkpt lat="43.1063117" lon="11.138655"><ele>365.0</ele><time>2026-03-22T14:05:11.348Z</time></trkpt><trkpt lat="43.106225" lon="11.1386467"><ele>366.0</ele><time>2026-03-22T14:05:12.349Z</time></trkpt><trkpt lat="43.1061333" lon="11.1386417"><ele>367.0</ele><time>2026-03-22T14:05:13.349Z</time></trkpt><trkpt lat="43.106025" lon="11.138635"><ele>368.0</ele><time>2026-03-22T14:05:14.349Z</time></trkpt><trkpt lat="43.105915" lon="11.1386283"><ele>368.0</ele><time>2026-03-22T14:05:15.349Z</time></trkpt><trkpt lat="43.105815" lon="11.1386233"><ele>368.0</ele><time>2026-03-22T14:05:16.349Z</time></trkpt><trkpt lat="43.1057067" lon="11.138625"><ele>368.0</ele><time>2026-03-22T14:05:17.349Z</time></trkpt><trkpt lat="43.1055967" lon="11.1386267"><ele>368.0</ele><time>2026-03-22T14:05:18.348Z</time></trkpt><trkpt lat="43.1054933" lon="11.1386317"><ele>368.0</ele><time>2026-03-22T14:05:19.348Z</time></trkpt><trkpt lat="43.105405" lon="11.138635"><ele>368.83333333333337</ele><time>2026-03-22T14:05:20.348Z</time></trkpt><trkpt lat="43.1053233" lon="11.1386367"><ele>369.6666666666667</ele><time>2026-03-22T14:05:21.349Z</time></trkpt><trkpt lat="43.1052483" lon="11.1386417"><ele>370.5</ele><time>2026-03-22T14:05:22.349Z</time></trkpt><trkpt lat="43.105175" lon="11.1386483"><ele>371.3333333333333</ele><time>2026-03-22T14:05:24.349Z</time></trkpt><trkpt lat="43.1051117" lon="11.1386517"><ele>372.16666666666663</ele><time>2026-03-22T14:05:29.349Z</time></trkpt><trkpt lat="43.1050033" lon="11.1386683"><ele>373.0</ele><time>2026-03-22T14:05:32.349Z</time></trkpt><trkpt lat="43.1049383" lon="11.13867"><ele>373.8333333333333</ele><time>2026-03-22T14:05:33.349Z</time></trkpt><trkpt lat="43.1048517" lon="11.1386567"><ele>374.66666666666663</ele><time>2026-03-22T14:05:35.349Z</time></trkpt><trkpt lat="43.1047467" lon="11.1386717"><ele>375.5</ele><time>2026-03-22T14:05:37.349Z</time></trkpt><trkpt lat="43.1046683" lon="11.1386867"><ele>376.3333333333333</ele><time>2026-03-22T14:05:38.349Z</time></trkpt><trkpt lat="43.1045883" lon="11.13869"><ele>377.1666666666667</ele><time>2026-03-22T14:05:39.349Z</time></trkpt><trkpt lat="43.1045233" lon="11.13867"><ele>378.0</ele><time>2026-03-22T14:05:40.349Z</time></trkpt><trkpt lat="43.104405" lon="11.1386317"><ele>378.0</ele><time>2026-03-22T14:05:42.349Z</time></trkpt><trkpt lat="43.1043283" lon="11.1386233"><ele>378.0</ele><time>2026-03-22T14:05:43.349Z</time></trkpt><trkpt lat="43.1042417" lon="11.1386167"><ele>378.0</ele><time>2026-03-22T14:05:44.348Z</time></trkpt><trkpt lat="43.1041383" lon="11.1386183"><ele>378.0</ele><time>2026-03-22T14:05:45.349Z</time></trkpt><trkpt lat="43.1040367" lon="11.1386233"><ele>378.0</ele><time>2026-03-22T14:05:46.349Z</time></trkpt><trkpt lat="43.1039417" lon="11.1386183"><ele>379.2</ele><time>2026-03-22T14:05:47.349Z</time></trkpt><trkpt lat="43.10386" lon="11.1386133"><ele>380.4</ele><time>2026-03-22T14:05:48.349Z</time></trkpt><trkpt lat="43.1037833" lon="11.1386333"><ele>381.59999999999997</ele><time>2026-03-22T14:05:49.348Z</time></trkpt><trkpt lat="43.1037" lon="11.1386783"><ele>382.79999999999995</ele><time>2026-03-22T14:05:50.349Z</time></trkpt><trkpt lat="43.103605" lon="11.1387233"><ele>384.0</ele><time>2026-03-22T14:05:51.348Z</time></trkpt><trkpt lat="43.1034983" lon="11.13876"><ele>384.0</ele><time>2026-03-22T14:05:52.348Z</time></trkpt><trkpt lat="43.1033867" lon="11.1387833"><ele>384.0</ele><time>2026-03-22T14:05:53.349Z</time></trkpt><trkpt lat="43.103285" lon="11.1388"><ele>384.0</ele><time>2026-03-22T14:05:54.349Z</time></trkpt><trkpt lat="43.103195" lon="11.1388267"><ele>384.0</ele><time>2026-03-22T14:05:55.349Z</time></trkpt><trkpt lat="43.1031067" lon="11.1388567"><ele>384.0</ele><time>2026-03-22T14:05:56.349Z</time></trkpt><trkpt lat="43.10302" lon="11.1389"><ele>385.5</ele><time>2026-03-22T14:05:57.349Z</time></trkpt><trkpt lat="43.1029383" lon="11.1389517"><ele>387.0</ele><time>2026-03-22T14:05:58.348Z</time></trkpt><trkpt lat="43.10286" lon="11.13899"><ele>388.5</ele><time>2026-03-22T14:05:59.349Z</time></trkpt><trkpt lat="43.102795" lon="11.1390033"><ele>390.0</ele><time>2026-03-22T14:06:00.349Z</time></trkpt><trkpt lat="43.1026833" lon="11.1389517"><ele>391.5</ele><time>2026-03-22T14:06:02.349Z</time></trkpt><trkpt lat="43.1026267" lon="11.1389033"><ele>393.0</ele><time>2026-03-22T14:06:03.349Z</time></trkpt><trkpt lat="43.1025633" lon="11.1388633"><ele>393.0</ele><time>2026-03-22T14:06:04.349Z</time></trkpt><trkpt lat="43.10246" lon="11.1387817"><ele>393.0</ele><time>2026-03-22T14:06:06.349Z</time></trkpt><trkpt lat="43.102405" lon="11.1387333"><ele>393.0</ele><time>2026-03-22T14:06:07.349Z</time></trkpt><trkpt lat="43.1023483" lon="11.1386833"><ele>393.0</ele><time>2026-03-22T14:06:08.348Z</time></trkpt><trkpt lat="43.1022833" lon="11.1386383"><ele>393.0</ele><time>2026-03-22T14:06:09.348Z</time></trkpt><trkpt lat="43.1022083" lon="11.138595"><ele>393.0</ele><time>2026-03-22T14:06:10.349Z</time></trkpt><trkpt lat="43.1021367" lon="11.1385567"><ele>393.6666666666667</ele><time>2026-03-22T14:06:11.349Z</time></trkpt><trkpt lat="43.1020767" lon="11.1385217"><ele>394.33333333333337</ele><time>2026-03-22T14:06:12.349Z</time></trkpt><trkpt lat="43.1020117" lon="11.1384933"><ele>395.0</ele><time>2026-03-22T14:06:13.349Z</time></trkpt><trkpt lat="43.1019417" lon="11.138475"><ele>395.6666666666667</ele><time>2026-03-22T14:06:14.348Z</time></trkpt><trkpt lat="43.1018633" lon="11.13847"><ele>396.33333333333337</ele><time>2026-03-22T14:06:15.349Z</time></trkpt><trkpt lat="43.1017733" lon="11.1384833"><ele>397.0</ele><time>2026-03-22T14:06:16.349Z</time></trkpt><trkpt lat="43.1016733" lon="11.1384983"><ele>396.75</ele><time>2026-03-22T14:06:17.349Z</time></trkpt><trkpt lat="43.10156" lon="11.1385133"><ele>396.5</ele><time>2026-03-22T14:06:18.349Z</time></trkpt><trkpt lat="43.1014383" lon="11.1385233"><ele>396.25</ele><time>2026-03-22T14:06:19.348Z</time></trkpt><trkpt lat="43.10132" lon="11.1385317"><ele>396.0</ele><time>2026-03-22T14:06:20.349Z</time></trkpt><trkpt lat="43.1012117" lon="11.13855"><ele>396.0</ele><time>2026-03-22T14:06:21.348Z</time></trkpt><trkpt lat="43.101105" lon="11.1385667"><ele>396.0</ele><time>2026-03-22T14:06:22.349Z</time></trkpt><trkpt lat="43.101" lon="11.1385817"><ele>396.0</ele><time>2026-03-22T14:06:23.349Z</time></trkpt><trkpt lat="43.1008817" lon="11.1385917"><ele>396.0</ele><time>2026-03-22T14:06:24.349Z</time></trkpt><trkpt lat="43.1007667" lon="11.1385917"><ele>396.0</ele><time>2026-03-22T14:06:25.349Z</time></trkpt><trkpt lat="43.1006667" lon="11.1385783"><ele>395.5</ele><time>2026-03-22T14:06:26.349Z</time></trkpt><trkpt lat="43.10058" lon="11.1385533"><ele>395.0</ele><time>2026-03-22T14:06:27.349Z</time></trkpt><trkpt lat="43.10051" lon="11.1385167"><ele>394.5</ele><time>2026-03-22T14:06:28.348Z</time></trkpt><trkpt lat="43.1004367" lon="11.1384283"><ele>394.0</ele><time>2026-03-22T14:06:30.348Z</time></trkpt><trkpt lat="43.10044" lon="11.138325"><ele>393.5</ele><time>2026-03-22T14:06:50.348Z</time></trkpt><trkpt lat="43.1004867" lon="11.138245"><ele>393.0</ele><time>2026-03-22T14:06:52.349Z</time></trkpt><trkpt lat="43.1005267" lon="11.138135"><ele>393.0</ele><time>2026-03-22T14:06:54.349Z</time></trkpt><trkpt lat="43.1005033" lon="11.1380317"><ele>393.0</ele><time>2026-03-22T14:06:56.349Z</time></trkpt><trkpt lat="43.1004367" lon="11.137945"><ele>393.0</ele><time>2026-03-22T14:06:58.349Z</time></trkpt><trkpt lat="43.1003633" lon="11.1378567"><ele>393.0</ele><time>2026-03-22T14:07:00.349Z</time></trkpt><trkpt lat="43.1003117" lon="11.137735"><ele>393.0</ele><time>2026-03-22T14:07:02.349Z</time></trkpt><trkpt lat="43.100345" lon="11.13761"><ele>393.0</ele><time>2026-03-22T14:07:04.349Z</time></trkpt><trkpt lat="43.1004" lon="11.1375633"><ele>393.0</ele><time>2026-03-22T14:07:05.349Z</time></trkpt><trkpt lat="43.1004817" lon="11.1375167"><ele>393.0</ele><time>2026-03-22T14:07:06.349Z</time></trkpt><trkpt lat="43.1005783" lon="11.1374833"><ele>393.0</ele><time>2026-03-22T14:07:07.349Z</time></trkpt><trkpt lat="43.10068" lon="11.1374367"><ele>393.0</ele><time>2026-03-22T14:07:08.349Z</time></trkpt><trkpt lat="43.100775" lon="11.137375"><ele>390.5</ele><time>2026-03-22T14:07:09.349Z</time></trkpt><trkpt lat="43.10086" lon="11.137295"><ele>388.0</ele><time>2026-03-22T14:07:10.348Z</time></trkpt><trkpt lat="43.1009433" lon="11.1371867"><ele>385.5</ele><time>2026-03-22T14:07:11.348Z</time></trkpt><trkpt lat="43.1010283" lon="11.1370517"><ele>383.0</ele><time>2026-03-22T14:07:12.349Z</time></trkpt><trkpt lat="43.1011133" lon="11.1368933"><ele>383.0</ele><time>2026-03-22T14:07:13.349Z</time></trkpt><trkpt lat="43.101205" lon="11.136725"><ele>383.0</ele><time>2026-03-22T14:07:14.349Z</time></trkpt><trkpt lat="43.1012867" lon="11.1365483"><ele>383.0</ele><time>2026-03-22T14:07:15.349Z</time></trkpt><trkpt lat="43.1013667" lon="11.1363583"><ele>382.75</ele><time>2026-03-22T14:07:16.348Z</time></trkpt><trkpt lat="43.1014417" lon="11.13616"><ele>382.5</ele><time>2026-03-22T14:07:17.349Z</time></trkpt><trkpt lat="43.1014983" lon="11.13597"><ele>382.25</ele><time>2026-03-22T14:07:18.349Z</time></trkpt><trkpt lat="43.1015517" lon="11.135805"><ele>382.0</ele><time>2026-03-22T14:07:19.349Z</time></trkpt><trkpt lat="43.101605" lon="11.1356583"><ele>382.0</ele><time>2026-03-22T14:07:20.348Z</time></trkpt><trkpt lat="43.1016533" lon="11.1355117"><ele>382.0</ele><time>2026-03-22T14:07:21.349Z</time></trkpt><trkpt lat="43.1017067" lon="11.1353567"><ele>382.0</ele><time>2026-03-22T14:07:22.349Z</time></trkpt><trkpt lat="43.1017683" lon="11.135215"><ele>382.0</ele><time>2026-03-22T14:07:23.348Z</time></trkpt><trkpt lat="43.1018467" lon="11.1350767"><ele>382.0</ele><time>2026-03-22T14:07:24.349Z</time></trkpt><trkpt lat="43.1019367" lon="11.134945"><ele>382.0</ele><time>2026-03-22T14:07:25.349Z</time></trkpt><trkpt lat="43.10205" lon="11.1348283"><ele>382.0</ele><time>2026-03-22T14:07:26.349Z</time></trkpt><trkpt lat="43.1021683" lon="11.1347267"><ele>382.0</ele><time>2026-03-22T14:07:27.348Z</time></trkpt><trkpt lat="43.1022917" lon="11.1346133"><ele>384.0</ele><time>2026-03-22T14:07:28.349Z</time></trkpt><trkpt lat="43.1024233" lon="11.1344983"><ele>386.0</ele><time>2026-03-22T14:07:29.348Z</time></trkpt><trkpt lat="43.1025583" lon="11.1343767"><ele>388.0</ele><time>2026-03-22T14:07:30.349Z</time></trkpt><trkpt lat="43.1026983" lon="11.1342467"><ele>388.0</ele><time>2026-03-22T14:07:31.349Z</time></trkpt><trkpt lat="43.1028333" lon="11.1341183"><ele>388.0</ele><time>2026-03-22T14:07:32.349Z</time></trkpt><trkpt lat="43.1029833" lon="11.133985"><ele>388.0</ele><time>2026-03-22T14:07:33.349Z</time></trkpt><trkpt lat="43.103125" lon="11.133865"><ele>389.0</ele><time>2026-03-22T14:07:34.348Z</time></trkpt><trkpt lat="43.10326" lon="11.1337483"><ele>390.0</ele><time>2026-03-22T14:07:35.349Z</time></trkpt><trkpt lat="43.103375" lon="11.133655"><ele>391.0</ele><time>2026-03-22T14:07:36.349Z</time></trkpt><trkpt lat="43.10348" lon="11.1335783"><ele>392.0</ele><time>2026-03-22T14:07:37.349Z</time></trkpt><trkpt lat="43.1035817" lon="11.133515"><ele>391.99999999999994</ele><time>2026-03-22T14:07:38.348Z</time></trkpt><trkpt lat="43.1036717" lon="11.133475"><ele>392.0</ele><time>2026-03-22T14:07:39.349Z</time></trkpt><trkpt lat="43.1037467" lon="11.1334317"><ele>392.0</ele><time>2026-03-22T14:07:40.349Z</time></trkpt><trkpt lat="43.1038133" lon="11.13337"><ele>392.0</ele><time>2026-03-22T14:07:41.349Z</time></trkpt><trkpt lat="43.1038517" lon="11.1333"><ele>391.99999999999994</ele><time>2026-03-22T14:07:42.349Z</time></trkpt><trkpt lat="43.1038567" lon="11.1331483"><ele>392.0</ele><time>2026-03-22T14:07:44.349Z</time></trkpt><trkpt lat="43.103815" lon="11.13308"><ele>392.8</ele><time>2026-03-22T14:07:45.349Z</time></trkpt><trkpt lat="43.1037467" lon="11.1330017"><ele>393.6</ele><time>2026-03-22T14:07:46.349Z</time></trkpt><trkpt lat="43.103695" lon="11.13292"><ele>394.40000000000003</ele><time>2026-03-22T14:07:47.349Z</time></trkpt><trkpt lat="43.1036433" lon="11.1328133"><ele>395.20000000000005</ele><time>2026-03-22T14:07:48.349Z</time></trkpt><trkpt lat="43.1036167" lon="11.1326833"><ele>396.0</ele><time>2026-03-22T14:07:49.349Z</time></trkpt><trkpt lat="43.1035917" lon="11.132515"><ele>395.4</ele><time>2026-03-22T14:07:50.349Z</time></trkpt><trkpt lat="43.1035767" lon="11.1323367"><ele>394.8</ele><time>2026-03-22T14:07:51.349Z</time></trkpt><trkpt lat="43.1035817" lon="11.1321767"><ele>394.2</ele><time>2026-03-22T14:07:52.349Z</time></trkpt><trkpt lat="43.1035933" lon="11.1320567"><ele>393.59999999999997</ele><time>2026-03-22T14:07:53.349Z</time></trkpt><trkpt lat="43.1036433" lon="11.13196"><ele>393.0</ele><time>2026-03-22T14:07:54.349Z</time></trkpt><trkpt lat="43.1037117" lon="11.1318933"><ele>393.0</ele><time>2026-03-22T14:07:55.349Z</time></trkpt><trkpt lat="43.103795" lon="11.131865"><ele>393.0</ele><time>2026-03-22T14:07:56.349Z</time></trkpt><trkpt lat="43.1039033" lon="11.131865"><ele>393.0</ele><time>2026-03-22T14:07:57.349Z</time></trkpt><trkpt lat="43.1040433" lon="11.1318983"><ele>393.0</ele><time>2026-03-22T14:07:58.349Z</time></trkpt><trkpt lat="43.1041967" lon="11.13195"><ele>397.33333333333337</ele><time>2026-03-22T14:07:59.349Z</time></trkpt><trkpt lat="43.1043667" lon="11.1319983"><ele>401.6666666666667</ele><time>2026-03-22T14:08:00.348Z</time></trkpt><trkpt lat="43.104525" lon="11.1320717"><ele>406.0</ele><time>2026-03-22T14:08:01.348Z</time></trkpt><trkpt lat="43.1046483" lon="11.1321467"><ele>406.0</ele><time>2026-03-22T14:08:02.349Z</time></trkpt><trkpt lat="43.10474" lon="11.1322217"><ele>406.0</ele><time>2026-03-22T14:08:03.349Z</time></trkpt><trkpt lat="43.1048167" lon="11.1322883"><ele>406.0</ele><time>2026-03-22T14:08:04.349Z</time></trkpt><trkpt lat="43.1048933" lon="11.1323333"><ele>406.0</ele><time>2026-03-22T14:08:05.349Z</time></trkpt><trkpt lat="43.104975" lon="11.1323533"><ele>406.0</ele><time>2026-03-22T14:08:06.348Z</time></trkpt><trkpt lat="43.1050617" lon="11.1323417"><ele>409.0</ele><time>2026-03-22T14:08:07.349Z</time></trkpt><trkpt lat="43.1051583" lon="11.1322917"><ele>412.0</ele><time>2026-03-22T14:08:08.348Z</time></trkpt><trkpt lat="43.1052667" lon="11.1322133"><ele>415.0</ele><time>2026-03-22T14:08:09.349Z</time></trkpt><trkpt lat="43.10537" lon="11.1321317"><ele>418.0</ele><time>2026-03-22T14:08:10.349Z</time></trkpt><trkpt lat="43.1054667" lon="11.1320383"><ele>418.00000000000006</ele><time>2026-03-22T14:08:11.349Z</time></trkpt><trkpt lat="43.105545" lon="11.1319333"><ele>418.0</ele><time>2026-03-22T14:08:12.348Z</time></trkpt><trkpt lat="43.1055917" lon="11.1318333"><ele>418.0</ele><time>2026-03-22T14:08:13.349Z</time></trkpt><trkpt lat="43.1056133" lon="11.1317383"><ele>418.0</ele><time>2026-03-22T14:08:14.349Z</time></trkpt><trkpt lat="43.1055783" lon="11.1316283"><ele>418.00000000000006</ele><time>2026-03-22T14:08:16.349Z</time></trkpt><trkpt lat="43.105515" lon="11.1316083"><ele>418.0</ele><time>2026-03-22T14:08:17.349Z</time></trkpt><trkpt lat="43.105435" lon="11.1316083"><ele>418.00000000000006</ele><time>2026-03-22T14:08:18.348Z</time></trkpt><trkpt lat="43.1053417" lon="11.13163"><ele>418.0</ele><time>2026-03-22T14:08:19.349Z</time></trkpt><trkpt lat="43.105255" lon="11.131635"><ele>418.0</ele><time>2026-03-22T14:08:20.348Z</time></trkpt><trkpt lat="43.105175" lon="11.13161"><ele>418.0</ele><time>2026-03-22T14:08:21.349Z</time></trkpt><trkpt lat="43.1051067" lon="11.1315417"><ele>418.00000000000006</ele><time>2026-03-22T14:08:22.349Z</time></trkpt><trkpt lat="43.10506" lon="11.1314367"><ele>418.0</ele><time>2026-03-22T14:08:23.349Z</time></trkpt><trkpt lat="43.1050183" lon="11.1312917"><ele>419.2</ele><time>2026-03-22T14:08:24.349Z</time></trkpt><trkpt lat="43.105" lon="11.1311333"><ele>420.4</ele><time>2026-03-22T14:08:25.349Z</time></trkpt><trkpt lat="43.1049933" lon="11.1309983"><ele>421.59999999999997</ele><time>2026-03-22T14:08:26.348Z</time></trkpt><trkpt lat="43.105005" lon="11.130895"><ele>422.79999999999995</ele><time>2026-03-22T14:08:27.349Z</time></trkpt><trkpt lat="43.1050933" lon="11.130805"><ele>424.0</ele><time>2026-03-22T14:08:29.349Z</time></trkpt><trkpt lat="43.1051617" lon="11.1308267"><ele>424.0</ele><time>2026-03-22T14:08:30.349Z</time></trkpt><trkpt lat="43.1052483" lon="11.1308817"><ele>424.0</ele><time>2026-03-22T14:08:31.348Z</time></trkpt><trkpt lat="43.1053417" lon="11.13095"><ele>424.0</ele><time>2026-03-22T14:08:32.349Z</time></trkpt><trkpt lat="43.1054433" lon="11.130995"><ele>424.0</ele><time>2026-03-22T14:08:33.349Z</time></trkpt><trkpt lat="43.105545" lon="11.1310083"><ele>424.0</ele><time>2026-03-22T14:08:34.349Z</time></trkpt><trkpt lat="43.105635" lon="11.1309767"><ele>424.0</ele><time>2026-03-22T14:08:35.349Z</time></trkpt><trkpt lat="43.1057283" lon="11.1309017"><ele>424.0</ele><time>2026-03-22T14:08:36.349Z</time></trkpt><trkpt lat="43.1058217" lon="11.1308033"><ele>424.0</ele><time>2026-03-22T14:08:37.348Z</time></trkpt><trkpt lat="43.1058983" lon="11.1307033"><ele>424.0</ele><time>2026-03-22T14:08:38.348Z</time></trkpt><trkpt lat="43.105945" lon="11.1306083"><ele>424.0</ele><time>2026-03-22T14:08:39.348Z</time></trkpt><trkpt lat="43.1059683" lon="11.1305133"><ele>424.6</ele><time>2026-03-22T14:08:40.349Z</time></trkpt><trkpt lat="43.10591" lon="11.130375"><ele>425.2</ele><time>2026-03-22T14:08:42.349Z</time></trkpt><trkpt lat="43.10582" lon="11.1303383"><ele>425.80000000000007</ele><time>2026-03-22T14:08:43.349Z</time></trkpt><trkpt lat="43.1057117" lon="11.130335"><ele>426.40000000000003</ele><time>2026-03-22T14:08:44.349Z</time></trkpt><trkpt lat="43.1056033" lon="11.13032"><ele>427.0</ele><time>2026-03-22T14:08:45.349Z</time></trkpt><trkpt lat="43.1055133" lon="11.1302483"><ele>427.0</ele><time>2026-03-22T14:08:46.349Z</time></trkpt><trkpt lat="43.10544" lon="11.1301433"><ele>427.0</ele><time>2026-03-22T14:08:47.349Z</time></trkpt><trkpt lat="43.105385" lon="11.1299933"><ele>427.0</ele><time>2026-03-22T14:08:48.349Z</time></trkpt><trkpt lat="43.105335" lon="11.1298183"><ele>427.0</ele><time>2026-03-22T14:08:49.349Z</time></trkpt><trkpt lat="43.1052917" lon="11.1296183"><ele>429.0</ele><time>2026-03-22T14:08:50.349Z</time></trkpt><trkpt lat="43.105285" lon="11.1294117"><ele>431.0</ele><time>2026-03-22T14:08:51.349Z</time></trkpt><trkpt lat="43.1052867" lon="11.12917"><ele>433.0</ele><time>2026-03-22T14:08:52.349Z</time></trkpt><trkpt lat="43.10531" lon="11.1289483"><ele>433.5</ele><time>2026-03-22T14:08:53.349Z</time></trkpt><trkpt lat="43.1053317" lon="11.128745"><ele>434.0</ele><time>2026-03-22T14:08:54.349Z</time></trkpt><trkpt lat="43.1053667" lon="11.1285883"><ele>434.5</ele><time>2026-03-22T14:08:55.349Z</time></trkpt><trkpt lat="43.1054217" lon="11.1284633"><ele>435.0</ele><time>2026-03-22T14:08:56.349Z</time></trkpt><trkpt lat="43.1055" lon="11.1283467"><ele>435.0</ele><time>2026-03-22T14:08:57.349Z</time></trkpt><trkpt lat="43.1056067" lon="11.1282267"><ele>435.0</ele><time>2026-03-22T14:08:58.349Z</time></trkpt><trkpt lat="43.1057183" lon="11.1281033"><ele>435.0</ele><time>2026-03-22T14:08:59.348Z</time></trkpt><trkpt lat="43.1058167" lon="11.1279533"><ele>435.0</ele><time>2026-03-22T14:09:00.348Z</time></trkpt><trkpt lat="43.1059083" lon="11.1277917"><ele>442.0</ele><time>2026-03-22T14:09:01.349Z</time></trkpt><trkpt lat="43.1059817" lon="11.1275917"><ele>449.0</ele><time>2026-03-22T14:09:02.349Z</time></trkpt><trkpt lat="43.1060317" lon="11.1273667"><ele>456.0</ele><time>2026-03-22T14:09:03.349Z</time></trkpt><trkpt lat="43.106055" lon="11.12716"><ele>456.0</ele><time>2026-03-22T14:09:04.348Z</time></trkpt><trkpt lat="43.10606" lon="11.12693"><ele>456.0</ele><time>2026-03-22T14:09:05.348Z</time></trkpt><trkpt lat="43.1060667" lon="11.1267283"><ele>456.0</ele><time>2026-03-22T14:09:06.349Z</time></trkpt><trkpt lat="43.10611" lon="11.12655"><ele>455.33333333333337</ele><time>2026-03-22T14:09:07.349Z</time></trkpt><trkpt lat="43.106145" lon="11.1263217"><ele>454.6666666666667</ele><time>2026-03-22T14:09:08.348Z</time></trkpt><trkpt lat="43.1062017" lon="11.1260983"><ele>454.0</ele><time>2026-03-22T14:09:09.349Z</time></trkpt><trkpt lat="43.1062717" lon="11.1258467"><ele>453.0</ele><time>2026-03-22T14:09:10.348Z</time></trkpt><trkpt lat="43.106355" lon="11.1255817"><ele>452.0</ele><time>2026-03-22T14:09:11.349Z</time></trkpt><trkpt lat="43.1064233" lon="11.1253267"><ele>451.0</ele><time>2026-03-22T14:09:12.349Z</time></trkpt><trkpt lat="43.1064917" lon="11.1251083"><ele>451.0</ele><time>2026-03-22T14:09:13.349Z</time></trkpt><trkpt lat="43.1065567" lon="11.1248967"><ele>451.0</ele><time>2026-03-22T14:09:14.349Z</time></trkpt><trkpt lat="43.1066167" lon="11.1246867"><ele>451.0</ele><time>2026-03-22T14:09:15.349Z</time></trkpt><trkpt lat="43.106685" lon="11.1244867"><ele>453.5</ele><time>2026-03-22T14:09:16.349Z</time></trkpt><trkpt lat="43.106755" lon="11.1243083"><ele>456.0</ele><time>2026-03-22T14:09:17.348Z</time></trkpt><trkpt lat="43.1068283" lon="11.1241433"><ele>458.5</ele><time>2026-03-22T14:09:18.349Z</time></trkpt><trkpt lat="43.1068983" lon="11.124015"><ele>461.0</ele><time>2026-03-22T14:09:19.349Z</time></trkpt><trkpt lat="43.1069633" lon="11.123925"><ele>461.0</ele><time>2026-03-22T14:09:20.349Z</time></trkpt><trkpt lat="43.1070367" lon="11.123855"><ele>461.0</ele><time>2026-03-22T14:09:21.349Z</time></trkpt><trkpt lat="43.1071233" lon="11.1238017"><ele>461.0</ele><time>2026-03-22T14:09:22.349Z</time></trkpt><trkpt lat="43.1072383" lon="11.1237367"><ele>461.0</ele><time>2026-03-22T14:09:23.348Z</time></trkpt><trkpt lat="43.1073533" lon="11.1236333"><ele>461.0</ele><time>2026-03-22T14:09:24.348Z</time></trkpt><trkpt lat="43.10747" lon="11.1234867"><ele>465.3333333333333</ele><time>2026-03-22T14:09:25.349Z</time></trkpt><trkpt lat="43.1075833" lon="11.1233167"><ele>469.66666666666663</ele><time>2026-03-22T14:09:26.349Z</time></trkpt><trkpt lat="43.1077" lon="11.12312"><ele>474.0</ele><time>2026-03-22T14:09:27.349Z</time></trkpt><trkpt lat="43.1077783" lon="11.1229233"><ele>474.0</ele><time>2026-03-22T14:09:28.349Z</time></trkpt><trkpt lat="43.1078417" lon="11.12275"><ele>474.0</ele><time>2026-03-22T14:09:29.349Z</time></trkpt><trkpt lat="43.1078783" lon="11.12255"><ele>474.0</ele><time>2026-03-22T14:09:30.349Z</time></trkpt><trkpt lat="43.1079033" lon="11.1223583"><ele>474.0</ele><time>2026-03-22T14:09:31.349Z</time></trkpt><trkpt lat="43.1079167" lon="11.1221883"><ele>473.0</ele><time>2026-03-22T14:09:32.349Z</time></trkpt><trkpt lat="43.10794" lon="11.1220583"><ele>472.0</ele><time>2026-03-22T14:09:33.349Z</time></trkpt><trkpt lat="43.1079783" lon="11.1219683"><ele>471.0</ele><time>2026-03-22T14:09:34.348Z</time></trkpt><trkpt lat="43.1080833" lon="11.1218733"><ele>470.0</ele><time>2026-03-22T14:09:36.349Z</time></trkpt><trkpt lat="43.108175" lon="11.12183"><ele>469.0</ele><time>2026-03-22T14:09:37.349Z</time></trkpt><trkpt lat="43.108275" lon="11.1217767"><ele>474.33333333333337</ele><time>2026-03-22T14:09:38.348Z</time></trkpt><trkpt lat="43.1084317" lon="11.1217267"><ele>479.66666666666663</ele><time>2026-03-22T14:09:39.348Z</time></trkpt><trkpt lat="43.108585" lon="11.1216617"><ele>485.0</ele><time>2026-03-22T14:09:40.349Z</time></trkpt><trkpt lat="43.1087167" lon="11.1215983"><ele>482.5</ele><time>2026-03-22T14:09:41.349Z</time></trkpt><trkpt lat="43.1088533" lon="11.1215483"><ele>480.0</ele><time>2026-03-22T14:09:42.348Z</time></trkpt><trkpt lat="43.1090083" lon="11.1215133"><ele>477.5</ele><time>2026-03-22T14:09:43.349Z</time></trkpt><trkpt lat="43.1091533" lon="11.1214867"><ele>475.0</ele><time>2026-03-22T14:09:44.349Z</time></trkpt><trkpt lat="43.1092867" lon="11.12144"><ele>475.0</ele><time>2026-03-22T14:09:45.348Z</time></trkpt><trkpt lat="43.1094167" lon="11.1213983"><ele>475.0</ele><time>2026-03-22T14:09:46.348Z</time></trkpt><trkpt lat="43.109565" lon="11.1213467"><ele>475.0</ele><time>2026-03-22T14:09:47.348Z</time></trkpt><trkpt lat="43.1097217" lon="11.12131"><ele>475.0</ele><time>2026-03-22T14:09:48.349Z</time></trkpt><trkpt lat="43.1098467" lon="11.1212533"><ele>476.0</ele><time>2026-03-22T14:09:49.349Z</time></trkpt><trkpt lat="43.109945" lon="11.1211767"><ele>477.0</ele><time>2026-03-22T14:09:50.348Z</time></trkpt><trkpt lat="43.1100383" lon="11.1210583"><ele>478.0</ele><time>2026-03-22T14:09:51.348Z</time></trkpt><trkpt lat="43.1101367" lon="11.1209067"><ele>479.0</ele><time>2026-03-22T14:09:52.349Z</time></trkpt><trkpt lat="43.1102317" lon="11.1207383"><ele>476.2</ele><time>2026-03-22T14:09:53.349Z</time></trkpt><trkpt lat="43.1103167" lon="11.1206067"><ele>473.4</ele><time>2026-03-22T14:09:54.349Z</time></trkpt><trkpt lat="43.1103783" lon="11.1204833"><ele>470.6</ele><time>2026-03-22T14:09:55.349Z</time></trkpt><trkpt lat="43.110415" lon="11.1203733"><ele>467.8</ele><time>2026-03-22T14:09:56.349Z</time></trkpt><trkpt lat="43.110445" lon="11.1202467"><ele>465.0</ele><time>2026-03-22T14:09:57.349Z</time></trkpt><trkpt lat="43.110475" lon="11.120155"><ele>465.0</ele><time>2026-03-22T14:09:58.349Z</time></trkpt><trkpt lat="43.1105217" lon="11.1200667"><ele>465.0</ele><time>2026-03-22T14:09:59.349Z</time></trkpt><trkpt lat="43.11059" lon="11.11998"><ele>465.0</ele><time>2026-03-22T14:10:00.349Z</time></trkpt><trkpt lat="43.1106833" lon="11.1198917"><ele>465.0</ele><time>2026-03-22T14:10:01.349Z</time></trkpt><trkpt lat="43.110815" lon="11.1197983"><ele>465.0</ele><time>2026-03-22T14:10:02.348Z</time></trkpt><trkpt lat="43.1110017" lon="11.1196767"><ele>461.33333333333337</ele><time>2026-03-22T14:10:03.349Z</time></trkpt><trkpt lat="43.111165" lon="11.1195817"><ele>457.6666666666667</ele><time>2026-03-22T14:10:04.348Z</time></trkpt><trkpt lat="43.1113067" lon="11.1194917"><ele>454.0</ele><time>2026-03-22T14:10:05.348Z</time></trkpt><trkpt lat="43.1114217" lon="11.1194033"><ele>454.0</ele><time>2026-03-22T14:10:06.349Z</time></trkpt><trkpt lat="43.111515" lon="11.119295"><ele>454.0</ele><time>2026-03-22T14:10:07.348Z</time></trkpt><trkpt lat="43.1115883" lon="11.11918"><ele>454.0</ele><time>2026-03-22T14:10:08.349Z</time></trkpt><trkpt lat="43.1116417" lon="11.11906"><ele>454.0</ele><time>2026-03-22T14:10:09.348Z</time></trkpt><trkpt lat="43.1116967" lon="11.1189367"><ele>454.0</ele><time>2026-03-22T14:10:10.349Z</time></trkpt><trkpt lat="43.11175" lon="11.1188483"><ele>452.1666666666667</ele><time>2026-03-22T14:10:11.349Z</time></trkpt><trkpt lat="43.1118083" lon="11.1187783"><ele>450.33333333333337</ele><time>2026-03-22T14:10:12.349Z</time></trkpt><trkpt lat="43.1118517" lon="11.1187083"><ele>448.5</ele><time>2026-03-22T14:10:13.349Z</time></trkpt><trkpt lat="43.1118867" lon="11.118625"><ele>446.66666666666663</ele><time>2026-03-22T14:10:14.349Z</time></trkpt><trkpt lat="43.1119133" lon="11.1185217"><ele>444.8333333333333</ele><time>2026-03-22T14:10:15.349Z</time></trkpt><trkpt lat="43.1119517" lon="11.11841"><ele>443.0</ele><time>2026-03-22T14:10:16.349Z</time></trkpt><trkpt lat="43.112" lon="11.1183117"><ele>441.2</ele><time>2026-03-22T14:10:17.349Z</time></trkpt><trkpt lat="43.112055" lon="11.11823"><ele>439.4</ele><time>2026-03-22T14:10:18.348Z</time></trkpt><trkpt lat="43.1121333" lon="11.1181517"><ele>437.59999999999997</ele><time>2026-03-22T14:10:19.348Z</time></trkpt><trkpt lat="43.1122367" lon="11.1180767"><ele>435.79999999999995</ele><time>2026-03-22T14:10:20.349Z</time></trkpt><trkpt lat="43.1123817" lon="11.118015"><ele>434.0</ele><time>2026-03-22T14:10:21.348Z</time></trkpt><trkpt lat="43.1125417" lon="11.117955"><ele>432.3333333333333</ele><time>2026-03-22T14:10:22.348Z</time></trkpt><trkpt lat="43.1126983" lon="11.117905"><ele>430.66666666666663</ele><time>2026-03-22T14:10:23.349Z</time></trkpt><trkpt lat="43.1128467" lon="11.117885"><ele>429.0</ele><time>2026-03-22T14:10:24.348Z</time></trkpt><trkpt lat="43.1130033" lon="11.1178783"><ele>429.0</ele><time>2026-03-22T14:10:25.349Z</time></trkpt><trkpt lat="43.1131617" lon="11.11789"><ele>429.0</ele><time>2026-03-22T14:10:26.349Z</time></trkpt><trkpt lat="43.1133317" lon="11.1179117"><ele>429.0</ele><time>2026-03-22T14:10:27.348Z</time></trkpt><trkpt lat="43.1135" lon="11.1179333"><ele>427.75</ele><time>2026-03-22T14:10:28.349Z</time></trkpt><trkpt lat="43.11367" lon="11.1179533"><ele>426.5</ele><time>2026-03-22T14:10:29.349Z</time></trkpt><trkpt lat="43.1138183" lon="11.1179833"><ele>425.25</ele><time>2026-03-22T14:10:30.349Z</time></trkpt><trkpt lat="43.1139383" lon="11.1179967"><ele>424.0</ele><time>2026-03-22T14:10:31.349Z</time></trkpt><trkpt lat="43.1140483" lon="11.1180017"><ele>422.6</ele><time>2026-03-22T14:10:32.349Z</time></trkpt><trkpt lat="43.11414" lon="11.1180017"><ele>421.2</ele><time>2026-03-22T14:10:33.349Z</time></trkpt><trkpt lat="43.114225" lon="11.11798"><ele>419.8</ele><time>2026-03-22T14:10:34.349Z</time></trkpt><trkpt lat="43.1143033" lon="11.117925"><ele>418.40000000000003</ele><time>2026-03-22T14:10:35.348Z</time></trkpt><trkpt lat="43.114375" lon="11.1178433"><ele>417.0</ele><time>2026-03-22T14:10:36.349Z</time></trkpt><trkpt lat="43.1144617" lon="11.1177333"><ele>417.0</ele><time>2026-03-22T14:10:37.348Z</time></trkpt><trkpt lat="43.1145617" lon="11.1176317"><ele>417.0</ele><time>2026-03-22T14:10:38.348Z</time></trkpt><trkpt lat="43.1146767" lon="11.117545"><ele>417.0</ele><time>2026-03-22T14:10:39.348Z</time></trkpt><trkpt lat="43.1148" lon="11.1174833"><ele>417.0</ele><time>2026-03-22T14:10:40.349Z</time></trkpt><trkpt lat="43.11495" lon="11.1174367"><ele>413.0</ele><time>2026-03-22T14:10:41.349Z</time></trkpt><trkpt lat="43.115115" lon="11.117425"><ele>409.0</ele><time>2026-03-22T14:10:42.348Z</time></trkpt><trkpt lat="43.1153117" lon="11.11744"><ele>405.0</ele><time>2026-03-22T14:10:43.349Z</time></trkpt><trkpt lat="43.115485" lon="11.1174633"><ele>405.0</ele><time>2026-03-22T14:10:44.349Z</time></trkpt><trkpt lat="43.1156533" lon="11.117485"><ele>405.0</ele><time>2026-03-22T14:10:45.349Z</time></trkpt><trkpt lat="43.1158183" lon="11.1174867"><ele>405.0</ele><time>2026-03-22T14:10:46.348Z</time></trkpt><trkpt lat="43.1159833" lon="11.1174617"><ele>402.66666666666663</ele><time>2026-03-22T14:10:47.349Z</time></trkpt><trkpt lat="43.116165" lon="11.117415"><ele>400.3333333333333</ele><time>2026-03-22T14:10:48.349Z</time></trkpt><trkpt lat="43.116325" lon="11.1173717"><ele>398.0</ele><time>2026-03-22T14:10:49.348Z</time></trkpt><trkpt lat="43.11648" lon="11.117325"><ele>393.0</ele><time>2026-03-22T14:10:50.349Z</time></trkpt><trkpt lat="43.1166517" lon="11.1172883"><ele>388.0</ele><time>2026-03-22T14:10:51.349Z</time></trkpt><trkpt lat="43.1168217" lon="11.1172533"><ele>383.0</ele><time>2026-03-22T14:10:52.349Z</time></trkpt><trkpt lat="43.1169983" lon="11.1172183"><ele>383.0</ele><time>2026-03-22T14:10:53.349Z</time></trkpt><trkpt lat="43.1171867" lon="11.117195"><ele>383.0</ele><time>2026-03-22T14:10:54.349Z</time></trkpt><trkpt lat="43.1173833" lon="11.1171683"><ele>383.0</ele><time>2026-03-22T14:10:55.349Z</time></trkpt><trkpt lat="43.11758" lon="11.1171517"><ele>380.33333333333337</ele><time>2026-03-22T14:10:56.349Z</time></trkpt><trkpt lat="43.11777" lon="11.1171417"><ele>377.6666666666667</ele><time>2026-03-22T14:10:57.349Z</time></trkpt><trkpt lat="43.1179467" lon="11.1171283"><ele>375.0</ele><time>2026-03-22T14:10:58.349Z</time></trkpt><trkpt lat="43.1180967" lon="11.1171183"><ele>375.0</ele><time>2026-03-22T14:10:59.349Z</time></trkpt><trkpt lat="43.11823" lon="11.1171033"><ele>375.0</ele><time>2026-03-22T14:11:00.348Z</time></trkpt><trkpt lat="43.1183433" lon="11.1170733"><ele>375.0</ele><time>2026-03-22T14:11:01.349Z</time></trkpt><trkpt lat="43.1184367" lon="11.117025"><ele>375.0</ele><time>2026-03-22T14:11:02.349Z</time></trkpt><trkpt lat="43.1185217" lon="11.1169717"><ele>375.0</ele><time>2026-03-22T14:11:03.349Z</time></trkpt><trkpt lat="43.118615" lon="11.1169333"><ele>372.75</ele><time>2026-03-22T14:11:04.349Z</time></trkpt><trkpt lat="43.1187167" lon="11.1169267"><ele>370.5</ele><time>2026-03-22T14:11:05.349Z</time></trkpt><trkpt lat="43.118835" lon="11.1169517"><ele>368.25</ele><time>2026-03-22T14:11:06.349Z</time></trkpt><trkpt lat="43.1189883" lon="11.117"><ele>366.0</ele><time>2026-03-22T14:11:07.349Z</time></trkpt><trkpt lat="43.1191467" lon="11.1170583"><ele>364.0</ele><time>2026-03-22T14:11:08.349Z</time></trkpt><trkpt lat="43.1193017" lon="11.1171267"><ele>362.0</ele><time>2026-03-22T14:11:09.349Z</time></trkpt><trkpt lat="43.1194483" lon="11.1171917"><ele>360.0</ele><time>2026-03-22T14:11:10.349Z</time></trkpt><trkpt lat="43.1195867" lon="11.11723"><ele>360.0</ele><time>2026-03-22T14:11:11.349Z</time></trkpt><trkpt lat="43.11972" lon="11.1172417"><ele>360.0</ele><time>2026-03-22T14:11:12.349Z</time></trkpt><trkpt lat="43.1198683" lon="11.1172283"><ele>360.0</ele><time>2026-03-22T14:11:13.349Z</time></trkpt><trkpt lat="43.1200283" lon="11.1171983"><ele>360.0</ele><time>2026-03-22T14:11:14.349Z</time></trkpt><trkpt lat="43.1202" lon="11.1171233"><ele>358.0</ele><time>2026-03-22T14:11:15.349Z</time></trkpt><trkpt lat="43.1203967" lon="11.11702"><ele>356.0</ele><time>2026-03-22T14:11:16.349Z</time></trkpt><trkpt lat="43.1205967" lon="11.116955"><ele>354.0</ele><time>2026-03-22T14:11:17.349Z</time></trkpt><trkpt lat="43.1207833" lon="11.116905"><ele>353.6666666666667</ele><time>2026-03-22T14:11:18.349Z</time></trkpt><trkpt lat="43.1209517" lon="11.1168667"><ele>353.33333333333337</ele><time>2026-03-22T14:11:19.348Z</time></trkpt><trkpt lat="43.1211167" lon="11.116825"><ele>353.0</ele><time>2026-03-22T14:11:20.349Z</time></trkpt><trkpt lat="43.1212767" lon="11.1167767"><ele>353.0</ele><time>2026-03-22T14:11:21.349Z</time></trkpt><trkpt lat="43.1214433" lon="11.11671"><ele>353.0</ele><time>2026-03-22T14:11:22.349Z</time></trkpt><trkpt lat="43.1216233" lon="11.1166233"><ele>353.0</ele><time>2026-03-22T14:11:23.349Z</time></trkpt><trkpt lat="43.1218" lon="11.116525"><ele>348.0</ele><time>2026-03-22T14:11:24.349Z</time></trkpt><trkpt lat="43.121975" lon="11.1164267"><ele>343.0</ele><time>2026-03-22T14:11:25.349Z</time></trkpt><trkpt lat="43.1221383" lon="11.1163167"><ele>338.0</ele><time>2026-03-22T14:11:26.349Z</time></trkpt><trkpt lat="43.1223133" lon="11.1162283"><ele>338.0</ele><time>2026-03-22T14:11:27.349Z</time></trkpt><trkpt lat="43.12248" lon="11.11614"><ele>338.0</ele><time>2026-03-22T14:11:28.349Z</time></trkpt><trkpt lat="43.1226317" lon="11.1160533"><ele>338.0</ele><time>2026-03-22T14:11:29.349Z</time></trkpt><trkpt lat="43.1227667" lon="11.1159667"><ele>338.0</ele><time>2026-03-22T14:11:30.349Z</time></trkpt><trkpt lat="43.122895" lon="11.1158817"><ele>338.0</ele><time>2026-03-22T14:11:31.349Z</time></trkpt><trkpt lat="43.1230083" lon="11.1157983"><ele>338.0</ele><time>2026-03-22T14:11:32.349Z</time></trkpt><trkpt lat="43.1231033" lon="11.11571"><ele>338.0</ele><time>2026-03-22T14:11:33.348Z</time></trkpt><trkpt lat="43.1231883" lon="11.1156433"><ele>337.33333333333337</ele><time>2026-03-22T14:11:34.349Z</time></trkpt><trkpt lat="43.1232533" lon="11.115575"><ele>336.6666666666667</ele><time>2026-03-22T14:11:35.349Z</time></trkpt><trkpt lat="43.1233117" lon="11.1155133"><ele>336.0</ele><time>2026-03-22T14:11:36.349Z</time></trkpt><trkpt lat="43.1233733" lon="11.1154533"><ele>335.3333333333333</ele><time>2026-03-22T14:11:37.349Z</time></trkpt><trkpt lat="43.1234317" lon="11.1153933"><ele>334.66666666666663</ele><time>2026-03-22T14:11:38.348Z</time></trkpt><trkpt lat="43.1234817" lon="11.11533"><ele>334.0</ele><time>2026-03-22T14:11:39.349Z</time></trkpt><trkpt lat="43.1235767" lon="11.1152167"><ele>334.0</ele><time>2026-03-22T14:11:41.348Z</time></trkpt><trkpt lat="43.1236717" lon="11.1151"><ele>334.0</ele><time>2026-03-22T14:11:43.349Z</time></trkpt><trkpt lat="43.1237167" lon="11.1150333"><ele>334.0</ele><time>2026-03-22T14:11:44.348Z</time></trkpt><trkpt lat="43.1237883" lon="11.1149367"><ele>334.0</ele><time>2026-03-22T14:11:46.349Z</time></trkpt><trkpt lat="43.1238583" lon="11.1149283"><ele>334.0</ele><time>2026-03-22T14:11:49.349Z</time></trkpt><trkpt lat="43.1239067" lon="11.1149867"><ele>334.0</ele><time>2026-03-22T14:12:10.349Z</time></trkpt><trkpt lat="43.1239633" lon="11.1150533"><ele>334.0</ele><time>2026-03-22T14:12:11.348Z</time></trkpt><trkpt lat="43.1240217" lon="11.1151417"><ele>334.0</ele><time>2026-03-22T14:12:12.349Z</time></trkpt><trkpt lat="43.1240867" lon="11.1152383"><ele>334.0</ele><time>2026-03-22T14:12:13.349Z</time></trkpt><trkpt lat="43.1241417" lon="11.115325"><ele>334.0</ele><time>2026-03-22T14:12:14.348Z</time></trkpt><trkpt lat="43.124185" lon="11.1153933"><ele>334.0</ele><time>2026-03-22T14:12:15.349Z</time></trkpt><trkpt lat="43.12425" lon="11.1154783"><ele>334.0</ele><time>2026-03-22T14:12:17.349Z</time></trkpt><trkpt lat="43.1243037" lon="11.1155269"><ele>334.0</ele><time>2026-03-22T14:12:52.349Z</time></trkpt><trkpt lat="43.1243343" lon="11.1154419"><ele>334.0</ele><time>2026-03-22T14:12:57.349Z</time></trkpt><trkpt lat="43.1242403" lon="11.115363"><ele>334.0</ele><time>2026-03-22T14:13:00.349Z</time></trkpt><trkpt lat="43.1241538" lon="11.1152919"><ele>334.0</ele><time>2026-03-22T14:13:02.35Z</time></trkpt><trkpt lat="43.124068" lon="11.1151926"><ele>334.0</ele><time>2026-03-22T14:13:04.349Z</time></trkpt><trkpt lat="43.1240242" lon="11.1151179"><ele>334.0</ele><time>2026-03-22T14:13:05.35Z</time></trkpt><trkpt lat="43.1239764" lon="11.1150457"><ele>334.0</ele><time>2026-03-22T14:13:06.35Z</time></trkpt><trkpt lat="43.123922" lon="11.1149788"><ele>334.0</ele><time>2026-03-22T14:13:07.35Z</time></trkpt><trkpt lat="43.1238708" lon="11.1149226"><ele>334.0</ele><time>2026-03-22T14:13:08.35Z</time></trkpt><trkpt lat="43.1238245" lon="11.1148242"><ele>334.0</ele><time>2026-03-22T14:13:10.349Z</time></trkpt><trkpt lat="43.1238651" lon="11.1147229"><ele>334.0</ele><time>2026-03-22T14:13:12.35Z</time></trkpt><trkpt lat="43.1239137" lon="11.1146546"><ele>334.0</ele><time>2026-03-22T14:13:13.349Z</time></trkpt><trkpt lat="43.123979" lon="11.114572"><ele>333.75</ele><time>2026-03-22T14:13:14.35Z</time></trkpt><trkpt lat="43.1240576" lon="11.114462"><ele>333.5</ele><time>2026-03-22T14:13:15.35Z</time></trkpt><trkpt lat="43.1241471" lon="11.1143298"><ele>333.25</ele><time>2026-03-22T14:13:16.349Z</time></trkpt><trkpt lat="43.1242362" lon="11.1141944"><ele>333.0</ele><time>2026-03-22T14:13:17.349Z</time></trkpt><trkpt lat="43.1243314" lon="11.1140469"><ele>333.0</ele><time>2026-03-22T14:13:18.35Z</time></trkpt><trkpt lat="43.1244137" lon="11.113889"><ele>333.0</ele><time>2026-03-22T14:13:19.349Z</time></trkpt><trkpt lat="43.1244951" lon="11.1137406"><ele>333.0</ele><time>2026-03-22T14:13:20.35Z</time></trkpt><trkpt lat="43.1245726" lon="11.1136045"><ele>333.0</ele><time>2026-03-22T14:13:21.35Z</time></trkpt><trkpt lat="43.1246482" lon="11.1134813"><ele>333.0</ele><time>2026-03-22T14:13:22.35Z</time></trkpt><trkpt lat="43.1247326" lon="11.1133704"><ele>333.0</ele><time>2026-03-22T14:13:23.35Z</time></trkpt><trkpt lat="43.1248184" lon="11.1132826"><ele>333.0</ele><time>2026-03-22T14:13:24.35Z</time></trkpt><trkpt lat="43.1249167" lon="11.1132006"><ele>333.0</ele><time>2026-03-22T14:13:25.35Z</time></trkpt><trkpt lat="43.125026" lon="11.1131243"><ele>334.5</ele><time>2026-03-22T14:13:26.35Z</time></trkpt><trkpt lat="43.1251479" lon="11.1130633"><ele>336.0</ele><time>2026-03-22T14:13:27.35Z</time></trkpt><trkpt lat="43.1252758" lon="11.1130115"><ele>337.5</ele><time>2026-03-22T14:13:28.349Z</time></trkpt><trkpt lat="43.1254184" lon="11.1129603"><ele>339.0</ele><time>2026-03-22T14:13:29.35Z</time></trkpt><trkpt lat="43.1255587" lon="11.1128987"><ele>339.0</ele><time>2026-03-22T14:13:30.349Z</time></trkpt><trkpt lat="43.1256957" lon="11.1128328"><ele>339.0</ele><time>2026-03-22T14:13:31.35Z</time></trkpt><trkpt lat="43.1258238" lon="11.1127493"><ele>339.0</ele><time>2026-03-22T14:13:32.35Z</time></trkpt><trkpt lat="43.125942" lon="11.1126691"><ele>339.0</ele><time>2026-03-22T14:13:33.35Z</time></trkpt><trkpt lat="43.1260576" lon="11.1126079"><ele>340.0</ele><time>2026-03-22T14:13:34.35Z</time></trkpt><trkpt lat="43.1261779" lon="11.1125717"><ele>341.0</ele><time>2026-03-22T14:13:35.35Z</time></trkpt><trkpt lat="43.1263057" lon="11.112538"><ele>342.0</ele><time>2026-03-22T14:13:36.35Z</time></trkpt><trkpt lat="43.126443" lon="11.1124847"><ele>343.0</ele><time>2026-03-22T14:13:37.35Z</time></trkpt><trkpt lat="43.1265889" lon="11.1123944"><ele>343.25</ele><time>2026-03-22T14:13:38.35Z</time></trkpt><trkpt lat="43.1267267" lon="11.1122907"><ele>343.5</ele><time>2026-03-22T14:13:39.35Z</time></trkpt><trkpt lat="43.1268464" lon="11.1121897"><ele>343.75</ele><time>2026-03-22T14:13:40.349Z</time></trkpt><trkpt lat="43.1269563" lon="11.1120845"><ele>344.0</ele><time>2026-03-22T14:13:41.35Z</time></trkpt><trkpt lat="43.1270602" lon="11.1119647"><ele>344.0</ele><time>2026-03-22T14:13:42.349Z</time></trkpt><trkpt lat="43.1271611" lon="11.1118286"><ele>344.0</ele><time>2026-03-22T14:13:43.35Z</time></trkpt><trkpt lat="43.1272655" lon="11.1116654"><ele>344.0</ele><time>2026-03-22T14:13:44.35Z</time></trkpt><trkpt lat="43.1273668" lon="11.1114912"><ele>344.6666666666667</ele><time>2026-03-22T14:13:45.349Z</time></trkpt><trkpt lat="43.1274729" lon="11.1113124"><ele>345.3333333333333</ele><time>2026-03-22T14:13:46.349Z</time></trkpt><trkpt lat="43.1275709" lon="11.1111263"><ele>346.0</ele><time>2026-03-22T14:13:47.35Z</time></trkpt><trkpt lat="43.1276575" lon="11.1109457"><ele>346.0</ele><time>2026-03-22T14:13:48.349Z</time></trkpt><trkpt lat="43.1277217" lon="11.1107679"><ele>346.0</ele><time>2026-03-22T14:13:49.35Z</time></trkpt><trkpt lat="43.1277858" lon="11.1105865"><ele>346.0</ele><time>2026-03-22T14:13:50.35Z</time></trkpt><trkpt lat="43.1278624" lon="11.1104049"><ele>346.0</ele><time>2026-03-22T14:13:51.349Z</time></trkpt><trkpt lat="43.1279444" lon="11.1102483"><ele>348.25</ele><time>2026-03-22T14:13:52.349Z</time></trkpt><trkpt lat="43.1280304" lon="11.1101054"><ele>350.5</ele><time>2026-03-22T14:13:53.35Z</time></trkpt><trkpt lat="43.128106" lon="11.1099764"><ele>352.75</ele><time>2026-03-22T14:13:54.35Z</time></trkpt><trkpt lat="43.1281647" lon="11.1098526"><ele>355.0</ele><time>2026-03-22T14:13:55.35Z</time></trkpt><trkpt lat="43.1281999" lon="11.1097264"><ele>354.0</ele><time>2026-03-22T14:13:56.349Z</time></trkpt><trkpt lat="43.1282212" lon="11.1095925"><ele>353.0</ele><time>2026-03-22T14:13:57.35Z</time></trkpt><trkpt lat="43.1282435" lon="11.1094592"><ele>352.0</ele><time>2026-03-22T14:13:58.35Z</time></trkpt><trkpt lat="43.1282719" lon="11.1093312"><ele>351.0</ele><time>2026-03-22T14:13:59.349Z</time></trkpt><trkpt lat="43.1283128" lon="11.1092279"><ele>350.0</ele><time>2026-03-22T14:14:00.35Z</time></trkpt><trkpt lat="43.1283693" lon="11.1091481"><ele>350.0</ele><time>2026-03-22T14:14:01.35Z</time></trkpt><trkpt lat="43.1284472" lon="11.1090857"><ele>350.0</ele><time>2026-03-22T14:14:02.35Z</time></trkpt><trkpt lat="43.1285409" lon="11.1090298"><ele>350.0</ele><time>2026-03-22T14:14:03.349Z</time></trkpt><trkpt lat="43.1286315" lon="11.1089852"><ele>350.0</ele><time>2026-03-22T14:14:04.35Z</time></trkpt><trkpt lat="43.1287123" lon="11.1089429"><ele>350.0</ele><time>2026-03-22T14:14:05.35Z</time></trkpt><trkpt lat="43.1287761" lon="11.1088853"><ele>350.6</ele><time>2026-03-22T14:14:06.349Z</time></trkpt><trkpt lat="43.128817" lon="11.1088145"><ele>351.2</ele><time>2026-03-22T14:14:07.35Z</time></trkpt><trkpt lat="43.1288262" lon="11.1086344"><ele>351.79999999999995</ele><time>2026-03-22T14:14:09.35Z</time></trkpt><trkpt lat="43.128807" lon="11.1085225"><ele>352.4</ele><time>2026-03-22T14:14:10.35Z</time></trkpt><trkpt lat="43.1287806" lon="11.1083954"><ele>353.0</ele><time>2026-03-22T14:14:11.35Z</time></trkpt><trkpt lat="43.12873" lon="11.10824"><ele>353.0</ele><time>2026-03-22T14:14:12.35Z</time></trkpt><trkpt lat="43.1287133" lon="11.1080883"><ele>353.0</ele><time>2026-03-22T14:14:13.35Z</time></trkpt><trkpt lat="43.1287217" lon="11.107935"><ele>353.0</ele><time>2026-03-22T14:14:14.35Z</time></trkpt><trkpt lat="43.1287383" lon="11.107785"><ele>353.0</ele><time>2026-03-22T14:14:15.35Z</time></trkpt><trkpt lat="43.1287717" lon="11.1076717"><ele>353.0</ele><time>2026-03-22T14:14:16.35Z</time></trkpt><trkpt lat="43.1288217" lon="11.107585"><ele>353.0</ele><time>2026-03-22T14:14:17.35Z</time></trkpt><trkpt lat="43.1288717" lon="11.107525"><ele>353.0</ele><time>2026-03-22T14:14:18.35Z</time></trkpt><trkpt lat="43.12896" lon="11.1074833"><ele>353.0</ele><time>2026-03-22T14:14:20.35Z</time></trkpt><trkpt lat="43.1290417" lon="11.1075367"><ele>353.0</ele><time>2026-03-22T14:14:22.35Z</time></trkpt><trkpt lat="43.1291067" lon="11.1075817"><ele>353.0</ele><time>2026-03-22T14:14:24.349Z</time></trkpt><trkpt lat="43.1291833" lon="11.1075983"><ele>353.0</ele><time>2026-03-22T14:14:26.35Z</time></trkpt><trkpt lat="43.12927" lon="11.107625"><ele>353.0</ele><time>2026-03-22T14:14:29.35Z</time></trkpt><trkpt lat="43.1293583" lon="11.1076483"><ele>353.0</ele><time>2026-03-22T14:14:32.35Z</time></trkpt><trkpt lat="43.1292667" lon="11.1076133"><ele>353.0</ele><time>2026-03-22T14:14:42.35Z</time></trkpt><trkpt lat="43.1292033" lon="11.107595"><ele>353.0</ele><time>2026-03-22T14:14:43.35Z</time></trkpt><trkpt lat="43.12913" lon="11.1075717"><ele>353.0</ele><time>2026-03-22T14:14:44.35Z</time></trkpt><trkpt lat="43.12905" lon="11.10755"><ele>353.0</ele><time>2026-03-22T14:14:45.35Z</time></trkpt><trkpt lat="43.1289783" lon="11.1075133"><ele>353.0</ele><time>2026-03-22T14:14:46.35Z</time></trkpt><trkpt lat="43.1289117" lon="11.1074683"><ele>353.0</ele><time>2026-03-22T14:14:47.349Z</time></trkpt><trkpt lat="43.1288467" lon="11.1074083"><ele>353.0</ele><time>2026-03-22T14:14:48.35Z</time></trkpt><trkpt lat="43.1287833" lon="11.10734"><ele>353.0</ele><time>2026-03-22T14:14:49.35Z</time></trkpt><trkpt lat="43.1287283" lon="11.1072633"><ele>353.0</ele><time>2026-03-22T14:14:50.349Z</time></trkpt><trkpt lat="43.1286717" lon="11.1071817"><ele>353.0</ele><time>2026-03-22T14:14:51.349Z</time></trkpt><trkpt lat="43.12862" lon="11.1070883"><ele>353.59999999999997</ele><time>2026-03-22T14:14:52.35Z</time></trkpt><trkpt lat="43.1285583" lon="11.10699"><ele>354.2</ele><time>2026-03-22T14:14:53.35Z</time></trkpt><trkpt lat="43.12848" lon="11.1068983"><ele>354.8</ele><time>2026-03-22T14:14:54.349Z</time></trkpt><trkpt lat="43.1283883" lon="11.1068067"><ele>355.4</ele><time>2026-03-22T14:14:55.35Z</time></trkpt><trkpt lat="43.1282867" lon="11.1067083"><ele>356.0</ele><time>2026-03-22T14:14:56.35Z</time></trkpt><trkpt lat="43.1281867" lon="11.1066117"><ele>360.0</ele><time>2026-03-22T14:14:57.35Z</time></trkpt><trkpt lat="43.1280867" lon="11.1065283"><ele>364.0</ele><time>2026-03-22T14:14:58.35Z</time></trkpt><trkpt lat="43.1279883" lon="11.10646"><ele>368.0</ele><time>2026-03-22T14:14:59.35Z</time></trkpt><trkpt lat="43.12789" lon="11.1064017"><ele>372.0</ele><time>2026-03-22T14:15:00.35Z</time></trkpt><trkpt lat="43.12778" lon="11.10635"><ele>372.0</ele><time>2026-03-22T14:15:01.35Z</time></trkpt><trkpt lat="43.1276783" lon="11.1063"><ele>372.0</ele><time>2026-03-22T14:15:02.35Z</time></trkpt><trkpt lat="43.1275883" lon="11.10624"><ele>372.0</ele><time>2026-03-22T14:15:03.35Z</time></trkpt><trkpt lat="43.1274967" lon="11.106175"><ele>372.0</ele><time>2026-03-22T14:15:04.35Z</time></trkpt><trkpt lat="43.12741" lon="11.1060833"><ele>372.0</ele><time>2026-03-22T14:15:05.35Z</time></trkpt><trkpt lat="43.1273317" lon="11.1059783"><ele>375.0</ele><time>2026-03-22T14:15:06.349Z</time></trkpt><trkpt lat="43.1272417" lon="11.1058733"><ele>378.0</ele><time>2026-03-22T14:15:07.35Z</time></trkpt><trkpt lat="43.12715" lon="11.105755"><ele>381.0</ele><time>2026-03-22T14:15:08.35Z</time></trkpt><trkpt lat="43.12706" lon="11.1056317"><ele>384.0</ele><time>2026-03-22T14:15:09.35Z</time></trkpt><trkpt lat="43.1269817" lon="11.1055117"><ele>385.5</ele><time>2026-03-22T14:15:10.35Z</time></trkpt><trkpt lat="43.1269083" lon="11.105395"><ele>387.0</ele><time>2026-03-22T14:15:11.35Z</time></trkpt><trkpt lat="43.1268317" lon="11.1052883"><ele>388.5</ele><time>2026-03-22T14:15:12.35Z</time></trkpt><trkpt lat="43.12675" lon="11.1051717"><ele>390.0</ele><time>2026-03-22T14:15:13.35Z</time></trkpt><trkpt lat="43.1266733" lon="11.1050617"><ele>390.0</ele><time>2026-03-22T14:15:14.35Z</time></trkpt><trkpt lat="43.1266083" lon="11.1049633"><ele>390.0</ele><time>2026-03-22T14:15:15.349Z</time></trkpt><trkpt lat="43.1265567" lon="11.1048783"><ele>390.0</ele><time>2026-03-22T14:15:16.35Z</time></trkpt><trkpt lat="43.1264967" lon="11.10481"><ele>390.0</ele><time>2026-03-22T14:15:17.35Z</time></trkpt><trkpt lat="43.126435" lon="11.1047733"><ele>390.0</ele><time>2026-03-22T14:15:18.349Z</time></trkpt><trkpt lat="43.12637" lon="11.1047583"><ele>390.0</ele><time>2026-03-22T14:15:19.35Z</time></trkpt><trkpt lat="43.1262967" lon="11.10476"><ele>392.6</ele><time>2026-03-22T14:15:20.349Z</time></trkpt><trkpt lat="43.1261933" lon="11.104755"><ele>395.2</ele><time>2026-03-22T14:15:21.35Z</time></trkpt><trkpt lat="43.1260933" lon="11.10473"><ele>397.79999999999995</ele><time>2026-03-22T14:15:22.35Z</time></trkpt><trkpt lat="43.12601" lon="11.1046817"><ele>400.4</ele><time>2026-03-22T14:15:23.35Z</time></trkpt><trkpt lat="43.1259417" lon="11.1046117"><ele>403.0</ele><time>2026-03-22T14:15:24.35Z</time></trkpt><trkpt lat="43.1258833" lon="11.1045283"><ele>403.0</ele><time>2026-03-22T14:15:25.35Z</time></trkpt><trkpt lat="43.12585" lon="11.1044233"><ele>403.0</ele><time>2026-03-22T14:15:26.349Z</time></trkpt><trkpt lat="43.1258267" lon="11.1043033"><ele>403.0</ele><time>2026-03-22T14:15:27.35Z</time></trkpt><trkpt lat="43.1258167" lon="11.104175"><ele>403.0</ele><time>2026-03-22T14:15:28.35Z</time></trkpt><trkpt lat="43.1257967" lon="11.104035"><ele>403.0</ele><time>2026-03-22T14:15:29.35Z</time></trkpt><trkpt lat="43.1257883" lon="11.1038983"><ele>403.59999999999997</ele><time>2026-03-22T14:15:30.35Z</time></trkpt><trkpt lat="43.1257683" lon="11.1037783"><ele>404.2</ele><time>2026-03-22T14:15:31.35Z</time></trkpt><trkpt lat="43.1257267" lon="11.1036533"><ele>404.8</ele><time>2026-03-22T14:15:32.349Z</time></trkpt><trkpt lat="43.125665" lon="11.10355"><ele>405.4</ele><time>2026-03-22T14:15:33.35Z</time></trkpt><trkpt lat="43.1255883" lon="11.1034467"><ele>406.0</ele><time>2026-03-22T14:15:34.35Z</time></trkpt><trkpt lat="43.1255067" lon="11.1033433"><ele>408.8</ele><time>2026-03-22T14:15:35.35Z</time></trkpt><trkpt lat="43.1254283" lon="11.1032267"><ele>411.6</ele><time>2026-03-22T14:15:36.35Z</time></trkpt><trkpt lat="43.1253533" lon="11.103105"><ele>414.4</ele><time>2026-03-22T14:15:37.35Z</time></trkpt><trkpt lat="43.12529" lon="11.1029883"><ele>417.2</ele><time>2026-03-22T14:15:38.35Z</time></trkpt><trkpt lat="43.1252233" lon="11.10288"><ele>420.0</ele><time>2026-03-22T14:15:39.35Z</time></trkpt><trkpt lat="43.125165" lon="11.1027783"><ele>420.0</ele><time>2026-03-22T14:15:40.35Z</time></trkpt><trkpt lat="43.125095" lon="11.102675"><ele>420.0</ele><time>2026-03-22T14:15:41.349Z</time></trkpt><trkpt lat="43.1250167" lon="11.1025717"><ele>420.0</ele><time>2026-03-22T14:15:42.35Z</time></trkpt><trkpt lat="43.124925" lon="11.1024733"><ele>420.0</ele><time>2026-03-22T14:15:43.35Z</time></trkpt><trkpt lat="43.1248267" lon="11.1023783"><ele>420.0</ele><time>2026-03-22T14:15:44.35Z</time></trkpt><trkpt lat="43.1247217" lon="11.1022783"><ele>422.75</ele><time>2026-03-22T14:15:45.35Z</time></trkpt><trkpt lat="43.124605" lon="11.1021817"><ele>425.5</ele><time>2026-03-22T14:15:46.35Z</time></trkpt><trkpt lat="43.1244933" lon="11.102085"><ele>428.25</ele><time>2026-03-22T14:15:47.349Z</time></trkpt><trkpt lat="43.1243817" lon="11.1019867"><ele>431.0</ele><time>2026-03-22T14:15:48.35Z</time></trkpt><trkpt lat="43.1242883" lon="11.101895"><ele>431.0</ele><time>2026-03-22T14:15:49.35Z</time></trkpt><trkpt lat="43.1242" lon="11.1018083"><ele>431.0</ele><time>2026-03-22T14:15:50.35Z</time></trkpt><trkpt lat="43.1241133" lon="11.1017317"><ele>431.0</ele><time>2026-03-22T14:15:51.349Z</time></trkpt><trkpt lat="43.1240367" lon="11.1016583"><ele>431.0</ele><time>2026-03-22T14:15:52.35Z</time></trkpt><trkpt lat="43.1239483" lon="11.1015833"><ele>431.0</ele><time>2026-03-22T14:15:53.35Z</time></trkpt><trkpt lat="43.1238517" lon="11.101505"><ele>432.20000000000005</ele><time>2026-03-22T14:15:54.35Z</time></trkpt><trkpt lat="43.123745" lon="11.1014333"><ele>433.40000000000003</ele><time>2026-03-22T14:15:55.35Z</time></trkpt><trkpt lat="43.12364" lon="11.10138"><ele>434.6</ele><time>2026-03-22T14:15:56.35Z</time></trkpt><trkpt lat="43.1235367" lon="11.1013583"><ele>435.8</ele><time>2026-03-22T14:15:57.35Z</time></trkpt><trkpt lat="43.12344" lon="11.1013567"><ele>437.0</ele><time>2026-03-22T14:15:58.35Z</time></trkpt><trkpt lat="43.1233583" lon="11.1013733"><ele>437.0</ele><time>2026-03-22T14:15:59.35Z</time></trkpt><trkpt lat="43.1232717" lon="11.1013967"><ele>437.00000000000006</ele><time>2026-03-22T14:16:00.35Z</time></trkpt><trkpt lat="43.1231683" lon="11.1014433"><ele>437.00000000000006</ele><time>2026-03-22T14:16:01.35Z</time></trkpt><trkpt lat="43.12305" lon="11.10148"><ele>437.0</ele><time>2026-03-22T14:16:02.35Z</time></trkpt><trkpt lat="43.1229333" lon="11.1014967"><ele>437.0</ele><time>2026-03-22T14:16:03.35Z</time></trkpt><trkpt lat="43.1228067" lon="11.101495"><ele>439.20000000000005</ele><time>2026-03-22T14:16:04.35Z</time></trkpt><trkpt lat="43.1226917" lon="11.1014733"><ele>441.40000000000003</ele><time>2026-03-22T14:16:05.349Z</time></trkpt><trkpt lat="43.122585" lon="11.1014333"><ele>443.59999999999997</ele><time>2026-03-22T14:16:06.35Z</time></trkpt><trkpt lat="43.122505" lon="11.101395"><ele>445.79999999999995</ele><time>2026-03-22T14:16:07.35Z</time></trkpt><trkpt lat="43.12244" lon="11.1013367"><ele>448.0</ele><time>2026-03-22T14:16:08.35Z</time></trkpt><trkpt lat="43.122385" lon="11.1012633"><ele>451.0</ele><time>2026-03-22T14:16:09.35Z</time></trkpt><trkpt lat="43.1223417" lon="11.101155"><ele>453.99999999999994</ele><time>2026-03-22T14:16:10.35Z</time></trkpt><trkpt lat="43.12231" lon="11.1010283"><ele>456.99999999999994</ele><time>2026-03-22T14:16:11.349Z</time></trkpt><trkpt lat="43.1222867" lon="11.1008983"><ele>460.0</ele><time>2026-03-22T14:16:12.349Z</time></trkpt><trkpt lat="43.1222867" lon="11.1007367"><ele>463.0</ele><time>2026-03-22T14:16:13.35Z</time></trkpt><trkpt lat="43.1223" lon="11.1005983"><ele>464.4</ele><time>2026-03-22T14:16:14.35Z</time></trkpt><trkpt lat="43.1223133" lon="11.100475"><ele>465.79999999999995</ele><time>2026-03-22T14:16:15.35Z</time></trkpt><trkpt lat="43.1223083" lon="11.100345"><ele>467.2</ele><time>2026-03-22T14:16:16.35Z</time></trkpt><trkpt lat="43.1223033" lon="11.10022"><ele>468.6</ele><time>2026-03-22T14:16:17.35Z</time></trkpt><trkpt lat="43.1222933" lon="11.1000983"><ele>470.0</ele><time>2026-03-22T14:16:18.349Z</time></trkpt><trkpt lat="43.12229" lon="11.0999717"><ele>470.2</ele><time>2026-03-22T14:16:19.35Z</time></trkpt><trkpt lat="43.12228" lon="11.0998533"><ele>470.4</ele><time>2026-03-22T14:16:20.35Z</time></trkpt><trkpt lat="43.12227" lon="11.09976"><ele>470.6</ele><time>2026-03-22T14:16:21.35Z</time></trkpt><trkpt lat="43.1222183" lon="11.0996133"><ele>470.8</ele><time>2026-03-22T14:16:23.35Z</time></trkpt><trkpt lat="43.1221267" lon="11.0994983"><ele>471.0</ele><time>2026-03-22T14:16:25.35Z</time></trkpt><trkpt lat="43.1220567" lon="11.0994733"><ele>471.0</ele><time>2026-03-22T14:16:26.349Z</time></trkpt><trkpt lat="43.1219667" lon="11.0994717"><ele>471.0</ele><time>2026-03-22T14:16:27.35Z</time></trkpt><trkpt lat="43.12187" lon="11.0994917"><ele>471.0</ele><time>2026-03-22T14:16:28.35Z</time></trkpt><trkpt lat="43.121755" lon="11.0995083"><ele>471.0</ele><time>2026-03-22T14:16:29.35Z</time></trkpt><trkpt lat="43.1216467" lon="11.0995117"><ele>471.0</ele><time>2026-03-22T14:16:30.349Z</time></trkpt><trkpt lat="43.1215433" lon="11.0994983"><ele>473.20000000000005</ele><time>2026-03-22T14:16:31.35Z</time></trkpt><trkpt lat="43.121445" lon="11.0994767"><ele>475.40000000000003</ele><time>2026-03-22T14:16:32.35Z</time></trkpt><trkpt lat="43.1213583" lon="11.0994417"><ele>477.6</ele><time>2026-03-22T14:16:33.35Z</time></trkpt><trkpt lat="43.1212733" lon="11.0993883"><ele>479.8</ele><time>2026-03-22T14:16:34.349Z</time></trkpt><trkpt lat="43.12119" lon="11.0993117"><ele>482.0</ele><time>2026-03-22T14:16:35.35Z</time></trkpt><trkpt lat="43.1211133" lon="11.099225"><ele>482.0</ele><time>2026-03-22T14:16:36.35Z</time></trkpt><trkpt lat="43.12104" lon="11.0991467"><ele>482.00000000000006</ele><time>2026-03-22T14:16:37.349Z</time></trkpt><trkpt lat="43.1209567" lon="11.09906"><ele>482.00000000000006</ele><time>2026-03-22T14:16:38.349Z</time></trkpt><trkpt lat="43.12086" lon="11.0989617"><ele>482.0</ele><time>2026-03-22T14:16:39.35Z</time></trkpt><trkpt lat="43.1207817" lon="11.0988517"><ele>482.0</ele><time>2026-03-22T14:16:40.35Z</time></trkpt><trkpt lat="43.1207233" lon="11.098725"><ele>485.25</ele><time>2026-03-22T14:16:41.349Z</time></trkpt><trkpt lat="43.1206667" lon="11.0985733"><ele>488.5</ele><time>2026-03-22T14:16:42.35Z</time></trkpt><trkpt lat="43.1206067" lon="11.09841"><ele>491.75</ele><time>2026-03-22T14:16:43.35Z</time></trkpt><trkpt lat="43.1205617" lon="11.0982717"><ele>495.0</ele><time>2026-03-22T14:16:44.35Z</time></trkpt><trkpt lat="43.1205033" lon="11.09814"><ele>496.2</ele><time>2026-03-22T14:16:45.35Z</time></trkpt><trkpt lat="43.1204417" lon="11.0980083"><ele>497.4</ele><time>2026-03-22T14:16:46.35Z</time></trkpt><trkpt lat="43.1203767" lon="11.0978817"><ele>498.6</ele><time>2026-03-22T14:16:47.35Z</time></trkpt><trkpt lat="43.120315" lon="11.09777"><ele>499.8</ele><time>2026-03-22T14:16:48.35Z</time></trkpt><trkpt lat="43.120245" lon="11.0976733"><ele>501.0</ele><time>2026-03-22T14:16:49.35Z</time></trkpt><trkpt lat="43.1201583" lon="11.0976083"><ele>501.0</ele><time>2026-03-22T14:16:50.35Z</time></trkpt><trkpt lat="43.1200733" lon="11.0975733"><ele>501.0</ele><time>2026-03-22T14:16:51.35Z</time></trkpt><trkpt lat="43.119975" lon="11.097565"><ele>501.0</ele><time>2026-03-22T14:16:52.349Z</time></trkpt><trkpt lat="43.11987" lon="11.097575"><ele>501.0</ele><time>2026-03-22T14:16:53.35Z</time></trkpt><trkpt lat="43.1197617" lon="11.0976283"><ele>501.0</ele><time>2026-03-22T14:16:54.35Z</time></trkpt><trkpt lat="43.1196717" lon="11.097695"><ele>503.5</ele><time>2026-03-22T14:16:55.35Z</time></trkpt><trkpt lat="43.1195833" lon="11.097775"><ele>506.0</ele><time>2026-03-22T14:16:56.35Z</time></trkpt><trkpt lat="43.1194967" lon="11.0978283"><ele>508.5</ele><time>2026-03-22T14:16:57.35Z</time></trkpt><trkpt lat="43.119415" lon="11.097825"><ele>511.0</ele><time>2026-03-22T14:16:58.349Z</time></trkpt><trkpt lat="43.1193467" lon="11.0977867"><ele>513.5</ele><time>2026-03-22T14:16:59.35Z</time></trkpt><trkpt lat="43.1192933" lon="11.0977117"><ele>516.0</ele><time>2026-03-22T14:17:00.35Z</time></trkpt><trkpt lat="43.11926" lon="11.0976167"><ele>516.0</ele><time>2026-03-22T14:17:01.35Z</time></trkpt><trkpt lat="43.1192583" lon="11.09749"><ele>516.0</ele><time>2026-03-22T14:17:02.35Z</time></trkpt><trkpt lat="43.11926" lon="11.0973467"><ele>516.0</ele><time>2026-03-22T14:17:03.35Z</time></trkpt><trkpt lat="43.1192683" lon="11.09719"><ele>516.0</ele><time>2026-03-22T14:17:04.349Z</time></trkpt><trkpt lat="43.11926" lon="11.0970267"><ele>516.0</ele><time>2026-03-22T14:17:05.35Z</time></trkpt><trkpt lat="43.1192367" lon="11.0968883"><ele>516.6666666666666</ele><time>2026-03-22T14:17:06.349Z</time></trkpt><trkpt lat="43.1192" lon="11.0967933"><ele>517.3333333333334</ele><time>2026-03-22T14:17:07.349Z</time></trkpt><trkpt lat="43.11915" lon="11.096695"><ele>518.0</ele><time>2026-03-22T14:17:08.35Z</time></trkpt><trkpt lat="43.1190833" lon="11.0965983"><ele>518.6666666666667</ele><time>2026-03-22T14:17:09.35Z</time></trkpt><trkpt lat="43.1190033" lon="11.0965317"><ele>519.3333333333334</ele><time>2026-03-22T14:17:10.35Z</time></trkpt><trkpt lat="43.1189233" lon="11.0964883"><ele>520.0</ele><time>2026-03-22T14:17:11.35Z</time></trkpt><trkpt lat="43.1188533" lon="11.0964767"><ele>523.0</ele><time>2026-03-22T14:17:12.35Z</time></trkpt><trkpt lat="43.11878" lon="11.09648"><ele>526.0</ele><time>2026-03-22T14:17:13.35Z</time></trkpt><trkpt lat="43.1187017" lon="11.0964933"><ele>529.0</ele><time>2026-03-22T14:17:14.35Z</time></trkpt><trkpt lat="43.1186267" lon="11.0965283"><ele>532.0</ele><time>2026-03-22T14:17:15.349Z</time></trkpt><trkpt lat="43.118555" lon="11.0965833"><ele>535.0</ele><time>2026-03-22T14:17:16.349Z</time></trkpt><trkpt lat="43.118495" lon="11.096675"><ele>538.0</ele><time>2026-03-22T14:17:17.35Z</time></trkpt><trkpt lat="43.118425" lon="11.0967783"><ele>538.0</ele><time>2026-03-22T14:17:18.35Z</time></trkpt><trkpt lat="43.1183667" lon="11.0968733"><ele>538.0</ele><time>2026-03-22T14:17:19.35Z</time></trkpt><trkpt lat="43.1183017" lon="11.096935"><ele>538.0</ele><time>2026-03-22T14:17:20.349Z</time></trkpt><trkpt lat="43.11822" lon="11.096965"><ele>538.0</ele><time>2026-03-22T14:17:21.35Z</time></trkpt><trkpt lat="43.1181233" lon="11.0969617"><ele>538.0</ele><time>2026-03-22T14:17:22.35Z</time></trkpt><trkpt lat="43.1180183" lon="11.0969417"><ele>542.0</ele><time>2026-03-22T14:17:23.35Z</time></trkpt><trkpt lat="43.1178983" lon="11.0968933"><ele>546.0</ele><time>2026-03-22T14:17:24.35Z</time></trkpt><trkpt lat="43.1177667" lon="11.0968267"><ele>550.0</ele><time>2026-03-22T14:17:25.35Z</time></trkpt><trkpt lat="43.1176433" lon="11.096765"><ele>554.0</ele><time>2026-03-22T14:17:26.349Z</time></trkpt><trkpt lat="43.117535" lon="11.0967017"><ele>554.0</ele><time>2026-03-22T14:17:27.349Z</time></trkpt><trkpt lat="43.1174517" lon="11.0966183"><ele>554.0</ele><time>2026-03-22T14:17:28.349Z</time></trkpt><trkpt lat="43.1173533" lon="11.0965267"><ele>554.0</ele><time>2026-03-22T14:17:29.35Z</time></trkpt><trkpt lat="43.1172667" lon="11.096465"><ele>554.0</ele><time>2026-03-22T14:17:30.35Z</time></trkpt><trkpt lat="43.1171583" lon="11.09644"><ele>554.0</ele><time>2026-03-22T14:17:31.35Z</time></trkpt><trkpt lat="43.1170367" lon="11.09642"><ele>558.4</ele><time>2026-03-22T14:17:32.35Z</time></trkpt><trkpt lat="43.1169283" lon="11.0964083"><ele>562.8</ele><time>2026-03-22T14:17:33.35Z</time></trkpt><trkpt lat="43.1168317" lon="11.0964067"><ele>567.2</ele><time>2026-03-22T14:17:34.35Z</time></trkpt><trkpt lat="43.1167367" lon="11.0964217"><ele>571.6</ele><time>2026-03-22T14:17:35.35Z</time></trkpt><trkpt lat="43.1166467" lon="11.0964483"><ele>576.0</ele><time>2026-03-22T14:17:36.349Z</time></trkpt><trkpt lat="43.1165667" lon="11.0964817"><ele>578.1666666666666</ele><time>2026-03-22T14:17:37.349Z</time></trkpt><trkpt lat="43.116495" lon="11.0965133"><ele>580.3333333333334</ele><time>2026-03-22T14:17:38.35Z</time></trkpt><trkpt lat="43.1164233" lon="11.0965233"><ele>582.5</ele><time>2026-03-22T14:17:39.35Z</time></trkpt><trkpt lat="43.1163517" lon="11.09651"><ele>584.6666666666667</ele><time>2026-03-22T14:17:40.35Z</time></trkpt><trkpt lat="43.1162783" lon="11.0965017"><ele>586.8333333333334</ele><time>2026-03-22T14:17:41.35Z</time></trkpt><trkpt lat="43.116205" lon="11.0965217"><ele>589.0</ele><time>2026-03-22T14:17:42.35Z</time></trkpt><trkpt lat="43.1161317" lon="11.0965717"><ele>586.8</ele><time>2026-03-22T14:17:43.35Z</time></trkpt><trkpt lat="43.11605" lon="11.0966533"><ele>584.5999999999999</ele><time>2026-03-22T14:17:44.35Z</time></trkpt><trkpt lat="43.1159683" lon="11.09674"><ele>582.4</ele><time>2026-03-22T14:17:45.35Z</time></trkpt><trkpt lat="43.11587" lon="11.096825"><ele>580.1999999999999</ele><time>2026-03-22T14:17:46.35Z</time></trkpt><trkpt lat="43.115775" lon="11.09691"><ele>578.0</ele><time>2026-03-22T14:17:47.35Z</time></trkpt><trkpt lat="43.1156867" lon="11.09699"><ele>580.8</ele><time>2026-03-22T14:17:48.35Z</time></trkpt><trkpt lat="43.115605" lon="11.0970783"><ele>583.5999999999999</ele><time>2026-03-22T14:17:49.35Z</time></trkpt><trkpt lat="43.1155383" lon="11.0971867"><ele>586.4000000000001</ele><time>2026-03-22T14:17:50.349Z</time></trkpt><trkpt lat="43.1154767" lon="11.0973067"><ele>589.2</ele><time>2026-03-22T14:17:51.349Z</time></trkpt><trkpt lat="43.1154033" lon="11.0974367"><ele>592.0</ele><time>2026-03-22T14:17:52.35Z</time></trkpt><trkpt lat="43.1153167" lon="11.0975483"><ele>592.0</ele><time>2026-03-22T14:17:53.35Z</time></trkpt><trkpt lat="43.115255" lon="11.0976233"><ele>592.0</ele><time>2026-03-22T14:17:54.35Z</time></trkpt><trkpt lat="43.1151983" lon="11.0976767"><ele>592.0</ele><time>2026-03-22T14:17:55.35Z</time></trkpt><trkpt lat="43.1151183" lon="11.0977967"><ele>592.0</ele><time>2026-03-22T14:17:57.35Z</time></trkpt><trkpt lat="43.1150783" lon="11.0978933"><ele>592.0</ele><time>2026-03-22T14:17:58.35Z</time></trkpt><trkpt lat="43.11503" lon="11.098"><ele>592.0</ele><time>2026-03-22T14:17:59.35Z</time></trkpt><trkpt lat="43.1149683" lon="11.0981117"><ele>594.25</ele><time>2026-03-22T14:18:00.35Z</time></trkpt><trkpt lat="43.1148883" lon="11.0982217"><ele>596.5</ele><time>2026-03-22T14:18:01.35Z</time></trkpt><trkpt lat="43.11478" lon="11.0983433"><ele>598.75</ele><time>2026-03-22T14:18:02.35Z</time></trkpt><trkpt lat="43.1146883" lon="11.0984483"><ele>601.0</ele><time>2026-03-22T14:18:03.35Z</time></trkpt><trkpt lat="43.1146133" lon="11.0985383"><ele>601.0</ele><time>2026-03-22T14:18:04.349Z</time></trkpt><trkpt lat="43.1145567" lon="11.0985933"><ele>601.0</ele><time>2026-03-22T14:18:05.35Z</time></trkpt><trkpt lat="43.1144617" lon="11.09868"><ele>601.0</ele><time>2026-03-22T14:18:07.35Z</time></trkpt><trkpt lat="43.1144083" lon="11.09873"><ele>601.0</ele><time>2026-03-22T14:18:08.349Z</time></trkpt><trkpt lat="43.1143517" lon="11.0987783"><ele>601.0</ele><time>2026-03-22T14:18:09.35Z</time></trkpt><trkpt lat="43.1142817" lon="11.09883"><ele>601.0</ele><time>2026-03-22T14:18:10.35Z</time></trkpt><trkpt lat="43.1142117" lon="11.0988833"><ele>601.0</ele><time>2026-03-22T14:18:11.35Z</time></trkpt><trkpt lat="43.11413" lon="11.0989167"><ele>601.0</ele><time>2026-03-22T14:18:12.35Z</time></trkpt><trkpt lat="43.1140317" lon="11.0989367"><ele>601.0</ele><time>2026-03-22T14:18:13.349Z</time></trkpt><trkpt lat="43.1139217" lon="11.0989683"><ele>601.0</ele><time>2026-03-22T14:18:14.35Z</time></trkpt><trkpt lat="43.1138017" lon="11.098985"><ele>601.0</ele><time>2026-03-22T14:18:15.35Z</time></trkpt><trkpt lat="43.1136817" lon="11.0989767"><ele>600.2</ele><time>2026-03-22T14:18:16.35Z</time></trkpt><trkpt lat="43.1135533" lon="11.0989433"><ele>599.4000000000001</ele><time>2026-03-22T14:18:17.349Z</time></trkpt><trkpt lat="43.1134467" lon="11.09891"><ele>598.6</ele><time>2026-03-22T14:18:18.35Z</time></trkpt><trkpt lat="43.113355" lon="11.0988917"><ele>597.8000000000001</ele><time>2026-03-22T14:18:19.35Z</time></trkpt><trkpt lat="43.1132717" lon="11.0988683"><ele>597.0</ele><time>2026-03-22T14:18:20.35Z</time></trkpt><trkpt lat="43.1131867" lon="11.0988483"><ele>593.0</ele><time>2026-03-22T14:18:21.349Z</time></trkpt><trkpt lat="43.11309" lon="11.0988067"><ele>589.0</ele><time>2026-03-22T14:18:22.35Z</time></trkpt><trkpt lat="43.1129733" lon="11.09876"><ele>585.0</ele><time>2026-03-22T14:18:23.349Z</time></trkpt><trkpt lat="43.1128583" lon="11.09873"><ele>581.0</ele><time>2026-03-22T14:18:24.35Z</time></trkpt><trkpt lat="43.1127483" lon="11.098685"><ele>581.0</ele><time>2026-03-22T14:18:25.349Z</time></trkpt><trkpt lat="43.11266" lon="11.0986417"><ele>581.0</ele><time>2026-03-22T14:18:26.35Z</time></trkpt><trkpt lat="43.1125817" lon="11.0985683"><ele>581.0</ele><time>2026-03-22T14:18:27.35Z</time></trkpt><trkpt lat="43.1125033" lon="11.0984817"><ele>581.0</ele><time>2026-03-22T14:18:28.35Z</time></trkpt><trkpt lat="43.1124167" lon="11.0983833"><ele>581.0</ele><time>2026-03-22T14:18:29.35Z</time></trkpt><trkpt lat="43.112335" lon="11.0983"><ele>579.2</ele><time>2026-03-22T14:18:30.349Z</time></trkpt><trkpt lat="43.1122533" lon="11.09823"><ele>577.4000000000001</ele><time>2026-03-22T14:18:31.35Z</time></trkpt><trkpt lat="43.1121683" lon="11.0981683"><ele>575.6</ele><time>2026-03-22T14:18:32.35Z</time></trkpt><trkpt lat="43.1120867" lon="11.0980883"><ele>573.8000000000001</ele><time>2026-03-22T14:18:33.35Z</time></trkpt><trkpt lat="43.1120183" lon="11.0979917"><ele>572.0</ele><time>2026-03-22T14:18:34.35Z</time></trkpt><trkpt lat="43.1119583" lon="11.09788"><ele>572.0</ele><time>2026-03-22T14:18:35.349Z</time></trkpt><trkpt lat="43.1119117" lon="11.0977767"><ele>572.0</ele><time>2026-03-22T14:18:36.35Z</time></trkpt><trkpt lat="43.1118933" lon="11.0976667"><ele>572.0</ele><time>2026-03-22T14:18:37.35Z</time></trkpt><trkpt lat="43.1118783" lon="11.097535"><ele>572.0</ele><time>2026-03-22T14:18:38.35Z</time></trkpt><trkpt lat="43.1118583" lon="11.0973967"><ele>572.0</ele><time>2026-03-22T14:18:39.35Z</time></trkpt><trkpt lat="43.11182" lon="11.0972817"><ele>570.3333333333333</ele><time>2026-03-22T14:18:40.349Z</time></trkpt><trkpt lat="43.1117717" lon="11.0971867"><ele>568.6666666666666</ele><time>2026-03-22T14:18:41.35Z</time></trkpt><trkpt lat="43.111705" lon="11.0971433"><ele>567.0</ele><time>2026-03-22T14:18:42.35Z</time></trkpt><trkpt lat="43.1116283" lon="11.097115"><ele>565.3333333333334</ele><time>2026-03-22T14:18:43.35Z</time></trkpt><trkpt lat="43.1115283" lon="11.0970917"><ele>563.6666666666667</ele><time>2026-03-22T14:18:44.35Z</time></trkpt><trkpt lat="43.1114283" lon="11.0970833"><ele>562.0</ele><time>2026-03-22T14:18:45.35Z</time></trkpt><trkpt lat="43.111345" lon="11.0970667"><ele>562.0</ele><time>2026-03-22T14:18:46.35Z</time></trkpt><trkpt lat="43.1112783" lon="11.0970267"><ele>562.0</ele><time>2026-03-22T14:18:47.35Z</time></trkpt><trkpt lat="43.1112283" lon="11.0969417"><ele>562.0</ele><time>2026-03-22T14:18:48.35Z</time></trkpt><trkpt lat="43.1111867" lon="11.0968517"><ele>562.0</ele><time>2026-03-22T14:18:49.349Z</time></trkpt><trkpt lat="43.1111467" lon="11.0967483"><ele>562.0</ele><time>2026-03-22T14:18:50.35Z</time></trkpt><trkpt lat="43.111115" lon="11.096625"><ele>562.0</ele><time>2026-03-22T14:18:51.35Z</time></trkpt><trkpt lat="43.1110833" lon="11.0964783"><ele>565.2</ele><time>2026-03-22T14:18:52.35Z</time></trkpt><trkpt lat="43.1110633" lon="11.0963017"><ele>568.4000000000001</ele><time>2026-03-22T14:18:53.35Z</time></trkpt><trkpt lat="43.11104" lon="11.096145"><ele>571.5999999999999</ele><time>2026-03-22T14:18:54.349Z</time></trkpt><trkpt lat="43.111" lon="11.0960267"><ele>574.8</ele><time>2026-03-22T14:18:55.35Z</time></trkpt><trkpt lat="43.1109617" lon="11.0959183"><ele>578.0</ele><time>2026-03-22T14:18:56.35Z</time></trkpt><trkpt lat="43.110895" lon="11.09581"><ele>579.5</ele><time>2026-03-22T14:18:57.349Z</time></trkpt><trkpt lat="43.110815" lon="11.095685"><ele>581.0</ele><time>2026-03-22T14:18:58.35Z</time></trkpt><trkpt lat="43.110735" lon="11.09556"><ele>582.5</ele><time>2026-03-22T14:18:59.349Z</time></trkpt><trkpt lat="43.1106633" lon="11.09542"><ele>584.0</ele><time>2026-03-22T14:19:00.35Z</time></trkpt><trkpt lat="43.110605" lon="11.0952717"><ele>584.0</ele><time>2026-03-22T14:19:01.35Z</time></trkpt><trkpt lat="43.110545" lon="11.09515"><ele>584.0</ele><time>2026-03-22T14:19:02.35Z</time></trkpt><trkpt lat="43.11048" lon="11.0950617"><ele>584.0</ele><time>2026-03-22T14:19:03.35Z</time></trkpt><trkpt lat="43.110405" lon="11.095005"><ele>584.0</ele><time>2026-03-22T14:19:04.349Z</time></trkpt><trkpt lat="43.1103217" lon="11.0949567"><ele>584.0</ele><time>2026-03-22T14:19:05.349Z</time></trkpt><trkpt lat="43.110235" lon="11.0949683"><ele>584.0</ele><time>2026-03-22T14:19:06.35Z</time></trkpt><trkpt lat="43.1101267" lon="11.0950233"><ele>584.0</ele><time>2026-03-22T14:19:07.35Z</time></trkpt><trkpt lat="43.11002" lon="11.0950617"><ele>584.0</ele><time>2026-03-22T14:19:08.35Z</time></trkpt><trkpt lat="43.1098983" lon="11.09509"><ele>584.0</ele><time>2026-03-22T14:19:09.35Z</time></trkpt><trkpt lat="43.1097767" lon="11.095115"><ele>579.25</ele><time>2026-03-22T14:19:10.35Z</time></trkpt><trkpt lat="43.1096517" lon="11.095125"><ele>574.5</ele><time>2026-03-22T14:19:11.35Z</time></trkpt><trkpt lat="43.10953" lon="11.0951033"><ele>569.75</ele><time>2026-03-22T14:19:12.349Z</time></trkpt><trkpt lat="43.1094317" lon="11.0950633"><ele>565.0</ele><time>2026-03-22T14:19:13.35Z</time></trkpt><trkpt lat="43.10934" lon="11.0949983"><ele>566.4</ele><time>2026-03-22T14:19:14.35Z</time></trkpt><trkpt lat="43.1092567" lon="11.0949033"><ele>567.8</ele><time>2026-03-22T14:19:15.35Z</time></trkpt><trkpt lat="43.109195" lon="11.0947917"><ele>569.2</ele><time>2026-03-22T14:19:16.349Z</time></trkpt><trkpt lat="43.1091533" lon="11.0946783"><ele>570.6</ele><time>2026-03-22T14:19:17.35Z</time></trkpt><trkpt lat="43.1091217" lon="11.0945517"><ele>572.0</ele><time>2026-03-22T14:19:18.35Z</time></trkpt><trkpt lat="43.1091033" lon="11.0944283"><ele>572.0</ele><time>2026-03-22T14:19:19.35Z</time></trkpt><trkpt lat="43.109105" lon="11.0942983"><ele>572.0</ele><time>2026-03-22T14:19:20.35Z</time></trkpt><trkpt lat="43.10911" lon="11.0941817"><ele>572.0</ele><time>2026-03-22T14:19:21.349Z</time></trkpt><trkpt lat="43.1091067" lon="11.094035"><ele>572.0</ele><time>2026-03-22T14:19:22.35Z</time></trkpt><trkpt lat="43.1091167" lon="11.093895"><ele>572.0</ele><time>2026-03-22T14:19:23.349Z</time></trkpt><trkpt lat="43.109105" lon="11.0937483"><ele>573.0</ele><time>2026-03-22T14:19:24.35Z</time></trkpt><trkpt lat="43.1090917" lon="11.093615"><ele>574.0</ele><time>2026-03-22T14:19:25.35Z</time></trkpt><trkpt lat="43.109065" lon="11.0935017"><ele>575.0</ele><time>2026-03-22T14:19:26.349Z</time></trkpt><trkpt lat="43.1090333" lon="11.0934033"><ele>576.0</ele><time>2026-03-22T14:19:27.35Z</time></trkpt><trkpt lat="43.108995" lon="11.0933333"><ele>577.0</ele><time>2026-03-22T14:19:28.35Z</time></trkpt><trkpt lat="43.1089317" lon="11.09328"><ele>578.0</ele><time>2026-03-22T14:19:29.35Z</time></trkpt><trkpt lat="43.1088167" lon="11.0932483"><ele>579.6666666666666</ele><time>2026-03-22T14:19:30.35Z</time></trkpt><trkpt lat="43.1086667" lon="11.0932383"><ele>581.3333333333334</ele><time>2026-03-22T14:19:31.349Z</time></trkpt><trkpt lat="43.1085033" lon="11.0932517"><ele>583.0</ele><time>2026-03-22T14:19:32.35Z</time></trkpt><trkpt lat="43.1083483" lon="11.09326"><ele>576.25</ele><time>2026-03-22T14:19:33.35Z</time></trkpt><trkpt lat="43.10821" lon="11.0932667"><ele>569.5</ele><time>2026-03-22T14:19:34.35Z</time></trkpt><trkpt lat="43.1080817" lon="11.09328"><ele>562.75</ele><time>2026-03-22T14:19:35.35Z</time></trkpt><trkpt lat="43.107955" lon="11.093285"><ele>556.0</ele><time>2026-03-22T14:19:36.35Z</time></trkpt><trkpt lat="43.1078417" lon="11.09328"><ele>557.3333333333334</ele><time>2026-03-22T14:19:37.35Z</time></trkpt><trkpt lat="43.1077483" lon="11.09325"><ele>558.6666666666667</ele><time>2026-03-22T14:19:38.35Z</time></trkpt><trkpt lat="43.1076783" lon="11.093205"><ele>560.0</ele><time>2026-03-22T14:19:39.35Z</time></trkpt><trkpt lat="43.1076183" lon="11.0931333"><ele>561.3333333333334</ele><time>2026-03-22T14:19:40.35Z</time></trkpt><trkpt lat="43.1075783" lon="11.0930517"><ele>562.6666666666666</ele><time>2026-03-22T14:19:41.35Z</time></trkpt><trkpt lat="43.107575" lon="11.0929467"><ele>564.0</ele><time>2026-03-22T14:19:42.349Z</time></trkpt><trkpt lat="43.10759" lon="11.09283"><ele>564.0</ele><time>2026-03-22T14:19:43.349Z</time></trkpt><trkpt lat="43.1076333" lon="11.0927017"><ele>564.0</ele><time>2026-03-22T14:19:44.35Z</time></trkpt><trkpt lat="43.10769" lon="11.0925983"><ele>564.0</ele><time>2026-03-22T14:19:45.35Z</time></trkpt></trkseg></trk></gpx>